<?xml version='1.0' encoding='UTF-8'?><gpx version="1.1" creator="JPX - https://github.com/jenetics/jpx" xmlns="http://www.topografix.com/GPX/1/1"><trk><trkseg><trkpt lat="46.1198856" lon="13.5242099"><ele>155.0</ele><time>2026-05-02T06:56:07.177Z</time></trkpt><trkpt lat="46.1198744" lon="13.5243038"><ele>155.0</ele><time>2026-05-02T06:57:47.178Z</time></trkpt><trkpt lat="46.1199363" lon="13.5242382"><ele>155.0</ele><time>2026-05-02T06:57:52.178Z</time></trkpt><trkpt lat="46.1200012" lon="13.5241761"><ele>155.0</ele><time>2026-05-02T06:57:56.177Z</time></trkpt><trkpt lat="46.1200707" lon="13.5241694"><ele>155.0</ele><time>2026-05-02T06:58:00.177Z</time></trkpt><trkpt lat="46.1201339" lon="13.5241707"><ele>155.0</ele><time>2026-05-02T06:59:17.177Z</time></trkpt><trkpt lat="46.1201912" lon="13.5242291"><ele>155.0</ele><time>2026-05-02T06:59:20.177Z</time></trkpt><trkpt lat="46.120202" lon="13.5243579"><ele>155.0</ele><time>2026-05-02T07:02:13.176Z</time></trkpt><trkpt lat="46.1202031" lon="13.5245339"><ele>155.0</ele><time>2026-05-02T07:02:15.176Z</time></trkpt><trkpt lat="46.120197" lon="13.5246386"><ele>155.0</ele><time>2026-05-02T07:02:16.176Z</time></trkpt><trkpt lat="46.1201947" lon="13.5247528"><ele>155.0</ele><time>2026-05-02T07:02:17.177Z</time></trkpt><trkpt lat="46.1201986" lon="13.5248886"><ele>155.0</ele><time>2026-05-02T07:02:18.176Z</time></trkpt><trkpt lat="46.1202036" lon="13.5250364"><ele>155.0</ele><time>2026-05-02T07:02:19.176Z</time></trkpt><trkpt lat="46.1202173" lon="13.5252076"><ele>155.0</ele><time>2026-05-02T07:02:20.176Z</time></trkpt><trkpt lat="46.120236" lon="13.5253773"><ele>155.0</ele><time>2026-05-02T07:02:21.176Z</time></trkpt><trkpt lat="46.1202511" lon="13.5255313"><ele>155.0</ele><time>2026-05-02T07:02:22.176Z</time></trkpt><trkpt lat="46.1202703" lon="13.5256814"><ele>155.4</ele><time>2026-05-02T07:02:23.176Z</time></trkpt><trkpt lat="46.1202967" lon="13.5258362"><ele>155.8</ele><time>2026-05-02T07:02:24.176Z</time></trkpt><trkpt lat="46.1203374" lon="13.5259698"><ele>156.2</ele><time>2026-05-02T07:02:25.177Z</time></trkpt><trkpt lat="46.1203926" lon="13.5260809"><ele>156.6</ele><time>2026-05-02T07:02:26.176Z</time></trkpt><trkpt lat="46.1204517" lon="13.5261814"><ele>157.0</ele><time>2026-05-02T07:02:27.176Z</time></trkpt><trkpt lat="46.1205126" lon="13.5262902"><ele>157.8</ele><time>2026-05-02T07:02:28.176Z</time></trkpt><trkpt lat="46.1205461" lon="13.5264185"><ele>158.6</ele><time>2026-05-02T07:02:29.176Z</time></trkpt><trkpt lat="46.1205369" lon="13.5265511"><ele>159.4</ele><time>2026-05-02T07:02:30.176Z</time></trkpt><trkpt lat="46.1205035" lon="13.5266848"><ele>160.20000000000002</ele><time>2026-05-02T07:02:31.176Z</time></trkpt><trkpt lat="46.1204738" lon="13.5268381"><ele>161.0</ele><time>2026-05-02T07:02:32.176Z</time></trkpt><trkpt lat="46.1204371" lon="13.5269968"><ele>161.0</ele><time>2026-05-02T07:02:33.176Z</time></trkpt><trkpt lat="46.120401" lon="13.5271571"><ele>161.0</ele><time>2026-05-02T07:02:34.176Z</time></trkpt><trkpt lat="46.1203652" lon="13.5273328"><ele>161.0</ele><time>2026-05-02T07:02:35.176Z</time></trkpt><trkpt lat="46.1203516" lon="13.5275004"><ele>161.0</ele><time>2026-05-02T07:02:36.176Z</time></trkpt><trkpt lat="46.1203393" lon="13.5276564"><ele>161.0</ele><time>2026-05-02T07:02:37.177Z</time></trkpt><trkpt lat="46.120332" lon="13.5278165"><ele>161.0</ele><time>2026-05-02T07:02:38.176Z</time></trkpt><trkpt lat="46.1203331" lon="13.5279846"><ele>161.0</ele><time>2026-05-02T07:02:39.176Z</time></trkpt><trkpt lat="46.1203438" lon="13.528154"><ele>161.0</ele><time>2026-05-02T07:02:40.177Z</time></trkpt><trkpt lat="46.1203583" lon="13.5283213"><ele>161.20000000000002</ele><time>2026-05-02T07:02:41.176Z</time></trkpt><trkpt lat="46.1203782" lon="13.5284811"><ele>161.4</ele><time>2026-05-02T07:02:42.177Z</time></trkpt><trkpt lat="46.1204003" lon="13.5286243"><ele>161.6</ele><time>2026-05-02T07:02:43.176Z</time></trkpt><trkpt lat="46.1204207" lon="13.528751"><ele>161.8</ele><time>2026-05-02T07:02:44.176Z</time></trkpt><trkpt lat="46.1204191" lon="13.5288696"><ele>162.0</ele><time>2026-05-02T07:02:45.176Z</time></trkpt><trkpt lat="46.1203881" lon="13.5289679"><ele>161.66666666666666</ele><time>2026-05-02T07:02:46.176Z</time></trkpt><trkpt lat="46.1203222" lon="13.5290443"><ele>161.33333333333334</ele><time>2026-05-02T07:02:47.176Z</time></trkpt><trkpt lat="46.1202598" lon="13.5291097"><ele>161.0</ele><time>2026-05-02T07:02:48.177Z</time></trkpt><trkpt lat="46.1202062" lon="13.5291643"><ele>160.66666666666669</ele><time>2026-05-02T07:02:49.176Z</time></trkpt><trkpt lat="46.1201352" lon="13.52932"><ele>160.33333333333334</ele><time>2026-05-02T07:02:51.176Z</time></trkpt><trkpt lat="46.1201146" lon="13.5294287"><ele>160.0</ele><time>2026-05-02T07:02:52.177Z</time></trkpt><trkpt lat="46.1201041" lon="13.5295467"><ele>160.5</ele><time>2026-05-02T07:02:53.176Z</time></trkpt><trkpt lat="46.120081" lon="13.5296789"><ele>161.0</ele><time>2026-05-02T07:02:54.177Z</time></trkpt><trkpt lat="46.1200303" lon="13.5297981"><ele>161.5</ele><time>2026-05-02T07:02:55.176Z</time></trkpt><trkpt lat="46.1199804" lon="13.5298953"><ele>162.0</ele><time>2026-05-02T07:02:56.176Z</time></trkpt><trkpt lat="46.11992" lon="13.529973"><ele>162.5</ele><time>2026-05-02T07:02:57.176Z</time></trkpt><trkpt lat="46.1198498" lon="13.530035"><ele>163.0</ele><time>2026-05-02T07:02:58.176Z</time></trkpt><trkpt lat="46.1197625" lon="13.5300893"><ele>163.8</ele><time>2026-05-02T07:02:59.176Z</time></trkpt><trkpt lat="46.1196763" lon="13.5301191"><ele>164.60000000000002</ele><time>2026-05-02T07:03:00.177Z</time></trkpt><trkpt lat="46.1195905" lon="13.5301222"><ele>165.39999999999998</ele><time>2026-05-02T07:03:01.176Z</time></trkpt><trkpt lat="46.1194944" lon="13.5301077"><ele>166.2</ele><time>2026-05-02T07:03:02.177Z</time></trkpt><trkpt lat="46.1193991" lon="13.5301181"><ele>167.0</ele><time>2026-05-02T07:03:03.177Z</time></trkpt><trkpt lat="46.1193015" lon="13.5301461"><ele>167.0</ele><time>2026-05-02T07:03:04.177Z</time></trkpt><trkpt lat="46.1192082" lon="13.5301756"><ele>167.0</ele><time>2026-05-02T07:03:05.176Z</time></trkpt><trkpt lat="46.1191177" lon="13.5302078"><ele>167.0</ele><time>2026-05-02T07:03:06.176Z</time></trkpt><trkpt lat="46.1190414" lon="13.5302351"><ele>167.0</ele><time>2026-05-02T07:03:07.176Z</time></trkpt><trkpt lat="46.1189821" lon="13.5302777"><ele>167.0</ele><time>2026-05-02T07:03:08.177Z</time></trkpt><trkpt lat="46.1189362" lon="13.5303549"><ele>167.0</ele><time>2026-05-02T07:03:09.177Z</time></trkpt><trkpt lat="46.1189025" lon="13.5304651"><ele>167.39999999999998</ele><time>2026-05-02T07:03:10.176Z</time></trkpt><trkpt lat="46.1188697" lon="13.5305752"><ele>167.79999999999998</ele><time>2026-05-02T07:03:11.176Z</time></trkpt><trkpt lat="46.1188336" lon="13.5306641"><ele>168.2</ele><time>2026-05-02T07:03:12.176Z</time></trkpt><trkpt lat="46.1187971" lon="13.5307568"><ele>168.6</ele><time>2026-05-02T07:03:13.176Z</time></trkpt><trkpt lat="46.1187352" lon="13.5308894"><ele>169.0</ele><time>2026-05-02T07:03:15.176Z</time></trkpt><trkpt lat="46.118746" lon="13.5310668"><ele>169.0</ele><time>2026-05-02T07:03:17.177Z</time></trkpt><trkpt lat="46.1187618" lon="13.5312236"><ele>169.0</ele><time>2026-05-02T07:03:19.176Z</time></trkpt><trkpt lat="46.1187589" lon="13.5313649"><ele>169.0</ele><time>2026-05-02T07:03:21.176Z</time></trkpt><trkpt lat="46.1186739" lon="13.5314799"><ele>169.0</ele><time>2026-05-02T07:03:23.177Z</time></trkpt><trkpt lat="46.1186023" lon="13.5314745"><ele>169.0</ele><time>2026-05-02T07:03:24.177Z</time></trkpt><trkpt lat="46.1185162" lon="13.5314685"><ele>169.2</ele><time>2026-05-02T07:03:25.176Z</time></trkpt><trkpt lat="46.1184276" lon="13.5314731"><ele>169.39999999999998</ele><time>2026-05-02T07:03:26.177Z</time></trkpt><trkpt lat="46.1183385" lon="13.5314904"><ele>169.6</ele><time>2026-05-02T07:03:27.177Z</time></trkpt><trkpt lat="46.1182528" lon="13.5315198"><ele>169.8</ele><time>2026-05-02T07:03:28.176Z</time></trkpt><trkpt lat="46.1181657" lon="13.5315407"><ele>170.0</ele><time>2026-05-02T07:03:29.176Z</time></trkpt><trkpt lat="46.1180712" lon="13.5315711"><ele>170.0</ele><time>2026-05-02T07:03:30.176Z</time></trkpt><trkpt lat="46.1179793" lon="13.5316144"><ele>170.0</ele><time>2026-05-02T07:03:31.177Z</time></trkpt><trkpt lat="46.1178884" lon="13.5316726"><ele>170.0</ele><time>2026-05-02T07:03:32.177Z</time></trkpt><trkpt lat="46.1177982" lon="13.5317464"><ele>170.0</ele><time>2026-05-02T07:03:33.176Z</time></trkpt><trkpt lat="46.1177024" lon="13.5318328"><ele>170.0</ele><time>2026-05-02T07:03:34.176Z</time></trkpt><trkpt lat="46.117616" lon="13.5319296"><ele>170.0</ele><time>2026-05-02T07:03:35.177Z</time></trkpt><trkpt lat="46.1175231" lon="13.5320246"><ele>170.0</ele><time>2026-05-02T07:03:36.176Z</time></trkpt><trkpt lat="46.1174122" lon="13.5320967"><ele>170.0</ele><time>2026-05-02T07:03:37.177Z</time></trkpt><trkpt lat="46.1172911" lon="13.5321348"><ele>170.0</ele><time>2026-05-02T07:03:38.176Z</time></trkpt><trkpt lat="46.1171688" lon="13.532139"><ele>171.0</ele><time>2026-05-02T07:03:39.177Z</time></trkpt><trkpt lat="46.1170437" lon="13.5321308"><ele>172.0</ele><time>2026-05-02T07:03:40.177Z</time></trkpt><trkpt lat="46.1169316" lon="13.5321092"><ele>173.0</ele><time>2026-05-02T07:03:41.176Z</time></trkpt><trkpt lat="46.116835" lon="13.5320926"><ele>174.0</ele><time>2026-05-02T07:03:42.176Z</time></trkpt><trkpt lat="46.1167329" lon="13.5320963"><ele>175.0</ele><time>2026-05-02T07:03:43.177Z</time></trkpt><trkpt lat="46.1166301" lon="13.5321394"><ele>175.8</ele><time>2026-05-02T07:03:44.177Z</time></trkpt><trkpt lat="46.1165403" lon="13.5322253"><ele>176.6</ele><time>2026-05-02T07:03:45.176Z</time></trkpt><trkpt lat="46.1164664" lon="13.5323514"><ele>177.39999999999998</ele><time>2026-05-02T07:03:46.176Z</time></trkpt><trkpt lat="46.1164004" lon="13.5324883"><ele>178.2</ele><time>2026-05-02T07:03:47.176Z</time></trkpt><trkpt lat="46.1163353" lon="13.5326103"><ele>179.0</ele><time>2026-05-02T07:03:48.176Z</time></trkpt><trkpt lat="46.116259" lon="13.5327185"><ele>179.0</ele><time>2026-05-02T07:03:49.176Z</time></trkpt><trkpt lat="46.1161652" lon="13.5328049"><ele>179.0</ele><time>2026-05-02T07:03:50.176Z</time></trkpt><trkpt lat="46.1160668" lon="13.5328758"><ele>179.0</ele><time>2026-05-02T07:03:51.177Z</time></trkpt><trkpt lat="46.1159443" lon="13.532921"><ele>179.0</ele><time>2026-05-02T07:03:52.176Z</time></trkpt><trkpt lat="46.1158205" lon="13.5329599"><ele>181.25</ele><time>2026-05-02T07:03:53.176Z</time></trkpt><trkpt lat="46.1156876" lon="13.5330034"><ele>183.5</ele><time>2026-05-02T07:03:54.176Z</time></trkpt><trkpt lat="46.1155482" lon="13.5330617"><ele>185.75</ele><time>2026-05-02T07:03:55.176Z</time></trkpt><trkpt lat="46.1154191" lon="13.5331262"><ele>188.0</ele><time>2026-05-02T07:03:56.176Z</time></trkpt><trkpt lat="46.1153152" lon="13.5332137"><ele>188.0</ele><time>2026-05-02T07:03:57.176Z</time></trkpt><trkpt lat="46.1152033" lon="13.5333129"><ele>188.0</ele><time>2026-05-02T07:03:58.176Z</time></trkpt><trkpt lat="46.1151242" lon="13.5334116"><ele>188.0</ele><time>2026-05-02T07:03:59.176Z</time></trkpt><trkpt lat="46.115022" lon="13.5335298"><ele>188.0</ele><time>2026-05-02T07:04:00.177Z</time></trkpt><trkpt lat="46.1149298" lon="13.5336463"><ele>190.75</ele><time>2026-05-02T07:04:01.176Z</time></trkpt><trkpt lat="46.1148209" lon="13.5337762"><ele>193.5</ele><time>2026-05-02T07:04:02.176Z</time></trkpt><trkpt lat="46.11472" lon="13.5339021"><ele>196.25</ele><time>2026-05-02T07:04:03.177Z</time></trkpt><trkpt lat="46.1146202" lon="13.5340222"><ele>199.0</ele><time>2026-05-02T07:04:04.176Z</time></trkpt><trkpt lat="46.1145129" lon="13.5341496"><ele>199.0</ele><time>2026-05-02T07:04:05.176Z</time></trkpt><trkpt lat="46.1144059" lon="13.5342856"><ele>199.0</ele><time>2026-05-02T07:04:06.176Z</time></trkpt><trkpt lat="46.114298" lon="13.5344274"><ele>199.0</ele><time>2026-05-02T07:04:07.176Z</time></trkpt><trkpt lat="46.1141774" lon="13.5345797"><ele>199.0</ele><time>2026-05-02T07:04:08.176Z</time></trkpt><trkpt lat="46.1140592" lon="13.5347419"><ele>200.6</ele><time>2026-05-02T07:04:09.176Z</time></trkpt><trkpt lat="46.1139411" lon="13.5348999"><ele>202.2</ele><time>2026-05-02T07:04:10.176Z</time></trkpt><trkpt lat="46.1138548" lon="13.5350127"><ele>203.79999999999998</ele><time>2026-05-02T07:04:11.176Z</time></trkpt><trkpt lat="46.1137734" lon="13.5351034"><ele>205.39999999999998</ele><time>2026-05-02T07:04:12.176Z</time></trkpt><trkpt lat="46.1137296" lon="13.5351788"><ele>207.0</ele><time>2026-05-02T07:04:13.177Z</time></trkpt><trkpt lat="46.1137855" lon="13.5352754"><ele>207.0</ele><time>2026-05-02T07:04:15.176Z</time></trkpt><trkpt lat="46.1138477" lon="13.5352955"><ele>207.0</ele><time>2026-05-02T07:04:16.176Z</time></trkpt><trkpt lat="46.113947" lon="13.5352588"><ele>207.0</ele><time>2026-05-02T07:04:17.176Z</time></trkpt><trkpt lat="46.1140556" lon="13.535199"><ele>207.0</ele><time>2026-05-02T07:04:18.176Z</time></trkpt><trkpt lat="46.114147" lon="13.5351533"><ele>207.0</ele><time>2026-05-02T07:04:19.177Z</time></trkpt><trkpt lat="46.11425" lon="13.5351099"><ele>206.5</ele><time>2026-05-02T07:04:20.176Z</time></trkpt><trkpt lat="46.1143641" lon="13.535078"><ele>206.0</ele><time>2026-05-02T07:04:21.177Z</time></trkpt><trkpt lat="46.1144861" lon="13.5350328"><ele>205.5</ele><time>2026-05-02T07:04:22.176Z</time></trkpt><trkpt lat="46.1146077" lon="13.5349901"><ele>205.0</ele><time>2026-05-02T07:04:23.177Z</time></trkpt><trkpt lat="46.1147386" lon="13.5349527"><ele>205.0</ele><time>2026-05-02T07:04:24.176Z</time></trkpt><trkpt lat="46.1148583" lon="13.5349225"><ele>205.0</ele><time>2026-05-02T07:04:25.177Z</time></trkpt><trkpt lat="46.1149637" lon="13.5348874"><ele>205.0</ele><time>2026-05-02T07:04:26.176Z</time></trkpt><trkpt lat="46.1150699" lon="13.5348627"><ele>205.0</ele><time>2026-05-02T07:04:27.176Z</time></trkpt><trkpt lat="46.1151786" lon="13.5348599"><ele>205.0</ele><time>2026-05-02T07:04:28.177Z</time></trkpt><trkpt lat="46.1152828" lon="13.5348744"><ele>205.8</ele><time>2026-05-02T07:04:29.176Z</time></trkpt><trkpt lat="46.1153797" lon="13.5349121"><ele>206.6</ele><time>2026-05-02T07:04:30.176Z</time></trkpt><trkpt lat="46.1154522" lon="13.5349948"><ele>207.39999999999998</ele><time>2026-05-02T07:04:31.176Z</time></trkpt><trkpt lat="46.1155014" lon="13.5351036"><ele>208.2</ele><time>2026-05-02T07:04:32.176Z</time></trkpt><trkpt lat="46.1155269" lon="13.5352189"><ele>209.0</ele><time>2026-05-02T07:04:33.176Z</time></trkpt><trkpt lat="46.1155545" lon="13.5353326"><ele>214.79999999999998</ele><time>2026-05-02T07:04:34.176Z</time></trkpt><trkpt lat="46.1156059" lon="13.5354254"><ele>220.6</ele><time>2026-05-02T07:04:35.176Z</time></trkpt><trkpt lat="46.115683" lon="13.5354732"><ele>226.4</ele><time>2026-05-02T07:04:36.177Z</time></trkpt><trkpt lat="46.1157737" lon="13.5354821"><ele>232.2</ele><time>2026-05-02T07:04:37.176Z</time></trkpt><trkpt lat="46.1158947" lon="13.535455"><ele>238.0</ele><time>2026-05-02T07:04:38.176Z</time></trkpt><trkpt lat="46.1160018" lon="13.5354279"><ele>238.0</ele><time>2026-05-02T07:04:39.176Z</time></trkpt><trkpt lat="46.1161136" lon="13.5354025"><ele>238.0</ele><time>2026-05-02T07:04:40.176Z</time></trkpt><trkpt lat="46.1162242" lon="13.5353679"><ele>238.0</ele><time>2026-05-02T07:04:41.176Z</time></trkpt><trkpt lat="46.116335" lon="13.5353189"><ele>238.0</ele><time>2026-05-02T07:04:42.177Z</time></trkpt><trkpt lat="46.1164343" lon="13.5352515"><ele>235.8</ele><time>2026-05-02T07:04:43.177Z</time></trkpt><trkpt lat="46.1165305" lon="13.5351848"><ele>233.60000000000002</ele><time>2026-05-02T07:04:44.176Z</time></trkpt><trkpt lat="46.1166179" lon="13.5351264"><ele>231.39999999999998</ele><time>2026-05-02T07:04:45.176Z</time></trkpt><trkpt lat="46.1167093" lon="13.5350876"><ele>229.2</ele><time>2026-05-02T07:04:46.177Z</time></trkpt><trkpt lat="46.1168106" lon="13.5350742"><ele>227.0</ele><time>2026-05-02T07:04:47.177Z</time></trkpt><trkpt lat="46.1169261" lon="13.5350858"><ele>227.0</ele><time>2026-05-02T07:04:48.176Z</time></trkpt><trkpt lat="46.1170427" lon="13.5351079"><ele>227.0</ele><time>2026-05-02T07:04:49.176Z</time></trkpt><trkpt lat="46.1171563" lon="13.5351292"><ele>227.0</ele><time>2026-05-02T07:04:50.176Z</time></trkpt><trkpt lat="46.1172696" lon="13.5351459"><ele>227.0</ele><time>2026-05-02T07:04:51.175Z</time></trkpt><trkpt lat="46.1173743" lon="13.535137"><ele>228.8</ele><time>2026-05-02T07:04:52.175Z</time></trkpt><trkpt lat="46.1174641" lon="13.5351083"><ele>230.6</ele><time>2026-05-02T07:04:53.176Z</time></trkpt><trkpt lat="46.1175516" lon="13.5350779"><ele>232.40000000000003</ele><time>2026-05-02T07:04:54.176Z</time></trkpt><trkpt lat="46.1176331" lon="13.5350669"><ele>234.20000000000002</ele><time>2026-05-02T07:04:55.176Z</time></trkpt><trkpt lat="46.1177019" lon="13.5351112"><ele>236.0</ele><time>2026-05-02T07:04:56.175Z</time></trkpt><trkpt lat="46.1177505" lon="13.5352789"><ele>238.4</ele><time>2026-05-02T07:04:58.176Z</time></trkpt><trkpt lat="46.1177405" lon="13.5354059"><ele>240.8</ele><time>2026-05-02T07:04:59.176Z</time></trkpt><trkpt lat="46.1177399" lon="13.5355479"><ele>243.20000000000002</ele><time>2026-05-02T07:05:00.175Z</time></trkpt><trkpt lat="46.1177596" lon="13.5356864"><ele>245.60000000000002</ele><time>2026-05-02T07:05:01.175Z</time></trkpt><trkpt lat="46.117785" lon="13.5358277"><ele>248.0</ele><time>2026-05-02T07:05:02.175Z</time></trkpt><trkpt lat="46.1178051" lon="13.5359698"><ele>248.0</ele><time>2026-05-02T07:05:03.175Z</time></trkpt><trkpt lat="46.117808" lon="13.5361354"><ele>248.0</ele><time>2026-05-02T07:05:04.175Z</time></trkpt><trkpt lat="46.1177874" lon="13.5363248"><ele>248.0</ele><time>2026-05-02T07:05:05.175Z</time></trkpt><trkpt lat="46.1178518" lon="13.5365285"><ele>248.0</ele><time>2026-05-02T07:05:06.175Z</time></trkpt><trkpt lat="46.1178578" lon="13.5366642"><ele>249.83333333333334</ele><time>2026-05-02T07:05:07.175Z</time></trkpt><trkpt lat="46.1178631" lon="13.5367821"><ele>251.66666666666669</ele><time>2026-05-02T07:05:08.176Z</time></trkpt><trkpt lat="46.1178886" lon="13.5368936"><ele>253.5</ele><time>2026-05-02T07:05:09.175Z</time></trkpt><trkpt lat="46.1179062" lon="13.5369823"><ele>255.33333333333331</ele><time>2026-05-02T07:05:10.175Z</time></trkpt><trkpt lat="46.1178482" lon="13.5370917"><ele>257.16666666666663</ele><time>2026-05-02T07:05:12.176Z</time></trkpt><trkpt lat="46.1177836" lon="13.5370758"><ele>259.0</ele><time>2026-05-02T07:05:13.175Z</time></trkpt><trkpt lat="46.1177077" lon="13.5369945"><ele>259.0</ele><time>2026-05-02T07:05:14.175Z</time></trkpt><trkpt lat="46.1176396" lon="13.5369045"><ele>259.0</ele><time>2026-05-02T07:05:15.176Z</time></trkpt><trkpt lat="46.117566" lon="13.536804"><ele>259.0</ele><time>2026-05-02T07:05:16.176Z</time></trkpt><trkpt lat="46.1174809" lon="13.5367223"><ele>259.0</ele><time>2026-05-02T07:05:17.176Z</time></trkpt><trkpt lat="46.1174069" lon="13.5366652"><ele>259.0</ele><time>2026-05-02T07:05:18.176Z</time></trkpt><trkpt lat="46.1173224" lon="13.5366373"><ele>259.8</ele><time>2026-05-02T07:05:19.176Z</time></trkpt><trkpt lat="46.1172271" lon="13.5366686"><ele>260.59999999999997</ele><time>2026-05-02T07:05:20.175Z</time></trkpt><trkpt lat="46.1171303" lon="13.5367206"><ele>261.4</ele><time>2026-05-02T07:05:21.176Z</time></trkpt><trkpt lat="46.1170294" lon="13.5367832"><ele>262.2</ele><time>2026-05-02T07:05:22.176Z</time></trkpt><trkpt lat="46.1169329" lon="13.5368461"><ele>263.0</ele><time>2026-05-02T07:05:23.175Z</time></trkpt><trkpt lat="46.1168418" lon="13.536919"><ele>263.0</ele><time>2026-05-02T07:05:24.176Z</time></trkpt><trkpt lat="46.1167465" lon="13.5369733"><ele>263.0</ele><time>2026-05-02T07:05:25.175Z</time></trkpt><trkpt lat="46.1166527" lon="13.5369954"><ele>263.0</ele><time>2026-05-02T07:05:26.176Z</time></trkpt><trkpt lat="46.1165715" lon="13.5370115"><ele>263.0</ele><time>2026-05-02T07:05:27.175Z</time></trkpt><trkpt lat="46.1165066" lon="13.5370427"><ele>263.0</ele><time>2026-05-02T07:05:28.176Z</time></trkpt><trkpt lat="46.1164607" lon="13.5371148"><ele>263.0</ele><time>2026-05-02T07:05:29.176Z</time></trkpt><trkpt lat="46.1164787" lon="13.5372925"><ele>266.0</ele><time>2026-05-02T07:05:31.175Z</time></trkpt><trkpt lat="46.1165376" lon="13.5373643"><ele>269.0</ele><time>2026-05-02T07:05:32.176Z</time></trkpt><trkpt lat="46.1166221" lon="13.5374334"><ele>272.0</ele><time>2026-05-02T07:05:33.175Z</time></trkpt><trkpt lat="46.1167055" lon="13.5374893"><ele>275.0</ele><time>2026-05-02T07:05:34.175Z</time></trkpt><trkpt lat="46.1167853" lon="13.5375127"><ele>278.0</ele><time>2026-05-02T07:05:35.175Z</time></trkpt><trkpt lat="46.1168643" lon="13.5375377"><ele>281.0</ele><time>2026-05-02T07:05:36.175Z</time></trkpt><trkpt lat="46.1169301" lon="13.5375782"><ele>281.0</ele><time>2026-05-02T07:05:37.175Z</time></trkpt><trkpt lat="46.116974" lon="13.5377143"><ele>281.0</ele><time>2026-05-02T07:05:39.175Z</time></trkpt><trkpt lat="46.1169376" lon="13.5377949"><ele>281.0</ele><time>2026-05-02T07:05:40.176Z</time></trkpt><trkpt lat="46.1168778" lon="13.5378879"><ele>281.0</ele><time>2026-05-02T07:05:41.176Z</time></trkpt><trkpt lat="46.1167966" lon="13.5379481"><ele>281.0</ele><time>2026-05-02T07:05:42.175Z</time></trkpt><trkpt lat="46.1167262" lon="13.5380125"><ele>281.0</ele><time>2026-05-02T07:05:43.175Z</time></trkpt><trkpt lat="46.1166573" lon="13.5380332"><ele>283.2</ele><time>2026-05-02T07:05:44.175Z</time></trkpt><trkpt lat="46.1165811" lon="13.5380279"><ele>285.40000000000003</ele><time>2026-05-02T07:05:45.175Z</time></trkpt><trkpt lat="46.1165086" lon="13.5379892"><ele>287.6</ele><time>2026-05-02T07:05:46.176Z</time></trkpt><trkpt lat="46.1164209" lon="13.5379219"><ele>289.8</ele><time>2026-05-02T07:05:47.175Z</time></trkpt><trkpt lat="46.1163326" lon="13.537839"><ele>292.0</ele><time>2026-05-02T07:05:48.175Z</time></trkpt><trkpt lat="46.1162472" lon="13.5377454"><ele>293.2</ele><time>2026-05-02T07:05:49.175Z</time></trkpt><trkpt lat="46.1161581" lon="13.5376415"><ele>294.4</ele><time>2026-05-02T07:05:50.175Z</time></trkpt><trkpt lat="46.1160883" lon="13.5375436"><ele>295.6</ele><time>2026-05-02T07:05:51.175Z</time></trkpt><trkpt lat="46.1160238" lon="13.5374672"><ele>296.8</ele><time>2026-05-02T07:05:52.175Z</time></trkpt><trkpt lat="46.115923" lon="13.5374395"><ele>298.0</ele><time>2026-05-02T07:05:54.176Z</time></trkpt><trkpt lat="46.1159018" lon="13.5375996"><ele>298.0</ele><time>2026-05-02T07:05:56.175Z</time></trkpt><trkpt lat="46.1159428" lon="13.5377072"><ele>298.0</ele><time>2026-05-02T07:05:57.176Z</time></trkpt><trkpt lat="46.1159978" lon="13.5377934"><ele>298.0</ele><time>2026-05-02T07:05:58.175Z</time></trkpt><trkpt lat="46.1160621" lon="13.5378888"><ele>298.0</ele><time>2026-05-02T07:05:59.175Z</time></trkpt><trkpt lat="46.1161162" lon="13.538014"><ele>298.0</ele><time>2026-05-02T07:06:00.175Z</time></trkpt><trkpt lat="46.1161676" lon="13.5381445"><ele>301.16666666666663</ele><time>2026-05-02T07:06:01.175Z</time></trkpt><trkpt lat="46.1162057" lon="13.5382728"><ele>304.3333333333333</ele><time>2026-05-02T07:06:02.176Z</time></trkpt><trkpt lat="46.1162413" lon="13.538384"><ele>307.5</ele><time>2026-05-02T07:06:03.175Z</time></trkpt><trkpt lat="46.1162796" lon="13.5384788"><ele>310.6666666666667</ele><time>2026-05-02T07:06:04.175Z</time></trkpt><trkpt lat="46.1163053" lon="13.5386181"><ele>313.83333333333337</ele><time>2026-05-02T07:06:06.175Z</time></trkpt><trkpt lat="46.1163107" lon="13.5387301"><ele>317.0</ele><time>2026-05-02T07:06:09.175Z</time></trkpt><trkpt lat="46.116324" lon="13.5388361"><ele>320.6</ele><time>2026-05-02T07:06:14.175Z</time></trkpt><trkpt lat="46.1163406" lon="13.5389445"><ele>324.2</ele><time>2026-05-02T07:06:16.175Z</time></trkpt><trkpt lat="46.1163799" lon="13.5391295"><ele>327.8</ele><time>2026-05-02T07:06:18.176Z</time></trkpt><trkpt lat="46.1163987" lon="13.5392418"><ele>331.4</ele><time>2026-05-02T07:06:19.175Z</time></trkpt><trkpt lat="46.116418" lon="13.5393598"><ele>335.0</ele><time>2026-05-02T07:06:20.175Z</time></trkpt><trkpt lat="46.1164346" lon="13.5394887"><ele>337.0</ele><time>2026-05-02T07:06:21.176Z</time></trkpt><trkpt lat="46.1164543" lon="13.5396279"><ele>339.0</ele><time>2026-05-02T07:06:22.175Z</time></trkpt><trkpt lat="46.1164656" lon="13.5397686"><ele>341.0</ele><time>2026-05-02T07:06:23.175Z</time></trkpt><trkpt lat="46.1164689" lon="13.5399074"><ele>343.0</ele><time>2026-05-02T07:06:24.176Z</time></trkpt><trkpt lat="46.1164753" lon="13.5400338"><ele>345.0</ele><time>2026-05-02T07:06:25.175Z</time></trkpt><trkpt lat="46.1164902" lon="13.5401522"><ele>345.0</ele><time>2026-05-02T07:06:26.176Z</time></trkpt><trkpt lat="46.116478" lon="13.5403483"><ele>345.0</ele><time>2026-05-02T07:06:28.176Z</time></trkpt><trkpt lat="46.1164662" lon="13.5404718"><ele>345.0</ele><time>2026-05-02T07:06:29.176Z</time></trkpt><trkpt lat="46.1164525" lon="13.5405957"><ele>345.0</ele><time>2026-05-02T07:06:30.175Z</time></trkpt><trkpt lat="46.1164397" lon="13.540718"><ele>345.0</ele><time>2026-05-02T07:06:31.175Z</time></trkpt><trkpt lat="46.116449" lon="13.540834"><ele>346.6</ele><time>2026-05-02T07:06:32.176Z</time></trkpt><trkpt lat="46.1164355" lon="13.5409786"><ele>348.2</ele><time>2026-05-02T07:06:33.175Z</time></trkpt><trkpt lat="46.1164204" lon="13.5411294"><ele>349.79999999999995</ele><time>2026-05-02T07:06:34.176Z</time></trkpt><trkpt lat="46.1164081" lon="13.5412822"><ele>351.4</ele><time>2026-05-02T07:06:35.175Z</time></trkpt><trkpt lat="46.1163917" lon="13.5414242"><ele>353.0</ele><time>2026-05-02T07:06:36.175Z</time></trkpt><trkpt lat="46.1163793" lon="13.5415493"><ele>353.6666666666667</ele><time>2026-05-02T07:06:37.176Z</time></trkpt><trkpt lat="46.116371" lon="13.5416629"><ele>354.33333333333337</ele><time>2026-05-02T07:06:38.175Z</time></trkpt><trkpt lat="46.1163436" lon="13.5417655"><ele>355.0</ele><time>2026-05-02T07:06:39.175Z</time></trkpt><trkpt lat="46.1163253" lon="13.5418689"><ele>355.6666666666667</ele><time>2026-05-02T07:06:40.175Z</time></trkpt><trkpt lat="46.1163029" lon="13.5419656"><ele>356.3333333333333</ele><time>2026-05-02T07:06:41.175Z</time></trkpt><trkpt lat="46.1162709" lon="13.5421115"><ele>357.0</ele><time>2026-05-02T07:06:42.175Z</time></trkpt><trkpt lat="46.1162383" lon="13.5422493"><ele>355.6666666666667</ele><time>2026-05-02T07:06:43.176Z</time></trkpt><trkpt lat="46.1162039" lon="13.5423697"><ele>354.3333333333333</ele><time>2026-05-02T07:06:44.175Z</time></trkpt><trkpt lat="46.1161602" lon="13.5424814"><ele>353.0</ele><time>2026-05-02T07:06:45.175Z</time></trkpt><trkpt lat="46.1161112" lon="13.5425902"><ele>351.66666666666663</ele><time>2026-05-02T07:06:46.175Z</time></trkpt><trkpt lat="46.1160825" lon="13.542678"><ele>350.3333333333333</ele><time>2026-05-02T07:06:47.176Z</time></trkpt><trkpt lat="46.1160492" lon="13.5427728"><ele>349.0</ele><time>2026-05-02T07:06:48.175Z</time></trkpt><trkpt lat="46.1160148" lon="13.5428755"><ele>346.8333333333333</ele><time>2026-05-02T07:06:49.176Z</time></trkpt><trkpt lat="46.1159903" lon="13.5429907"><ele>344.66666666666663</ele><time>2026-05-02T07:06:50.175Z</time></trkpt><trkpt lat="46.115946" lon="13.54311"><ele>342.5</ele><time>2026-05-02T07:06:51.175Z</time></trkpt><trkpt lat="46.1158948" lon="13.5432185"><ele>340.3333333333333</ele><time>2026-05-02T07:06:52.175Z</time></trkpt><trkpt lat="46.1158532" lon="13.5433305"><ele>338.1666666666667</ele><time>2026-05-02T07:06:53.175Z</time></trkpt><trkpt lat="46.1158063" lon="13.5434462"><ele>336.0</ele><time>2026-05-02T07:06:54.175Z</time></trkpt><trkpt lat="46.1157647" lon="13.543559"><ele>339.0</ele><time>2026-05-02T07:06:55.176Z</time></trkpt><trkpt lat="46.1157303" lon="13.5436551"><ele>342.0</ele><time>2026-05-02T07:06:56.175Z</time></trkpt><trkpt lat="46.1156896" lon="13.5437367"><ele>345.0</ele><time>2026-05-02T07:06:57.176Z</time></trkpt><trkpt lat="46.115648" lon="13.543808"><ele>348.0</ele><time>2026-05-02T07:06:58.176Z</time></trkpt><trkpt lat="46.1156053" lon="13.5439228"><ele>351.0</ele><time>2026-05-02T07:07:00.175Z</time></trkpt><trkpt lat="46.1156346" lon="13.544006"><ele>354.0</ele><time>2026-05-02T07:07:03.175Z</time></trkpt><trkpt lat="46.1157215" lon="13.5440466"><ele>350.0</ele><time>2026-05-02T07:07:09.176Z</time></trkpt><trkpt lat="46.1158387" lon="13.5441311"><ele>346.0</ele><time>2026-05-02T07:07:11.176Z</time></trkpt><trkpt lat="46.1159155" lon="13.5441781"><ele>342.0</ele><time>2026-05-02T07:07:12.175Z</time></trkpt><trkpt lat="46.1159922" lon="13.5442196"><ele>338.0</ele><time>2026-05-02T07:07:13.175Z</time></trkpt><trkpt lat="46.1160661" lon="13.5442591"><ele>334.0</ele><time>2026-05-02T07:07:14.176Z</time></trkpt><trkpt lat="46.1161479" lon="13.5442953"><ele>334.0</ele><time>2026-05-02T07:07:15.175Z</time></trkpt><trkpt lat="46.1162258" lon="13.5443188"><ele>334.0</ele><time>2026-05-02T07:07:16.175Z</time></trkpt><trkpt lat="46.1163072" lon="13.5443561"><ele>334.0</ele><time>2026-05-02T07:07:17.176Z</time></trkpt><trkpt lat="46.1163765" lon="13.5443767"><ele>334.0</ele><time>2026-05-02T07:07:18.175Z</time></trkpt><trkpt lat="46.1164405" lon="13.5444019"><ele>334.0</ele><time>2026-05-02T07:07:19.176Z</time></trkpt><trkpt lat="46.1165011" lon="13.5444339"><ele>334.0</ele><time>2026-05-02T07:07:20.176Z</time></trkpt><trkpt lat="46.1166108" lon="13.5445035"><ele>334.0</ele><time>2026-05-02T07:07:22.176Z</time></trkpt><trkpt lat="46.1166946" lon="13.5446232"><ele>334.0</ele><time>2026-05-02T07:07:24.175Z</time></trkpt><trkpt lat="46.1167453" lon="13.5447881"><ele>334.0</ele><time>2026-05-02T07:07:26.175Z</time></trkpt><trkpt lat="46.1167664" lon="13.5449081"><ele>334.0</ele><time>2026-05-02T07:07:27.175Z</time></trkpt><trkpt lat="46.1167975" lon="13.5450234"><ele>334.0</ele><time>2026-05-02T07:07:28.175Z</time></trkpt><trkpt lat="46.1168182" lon="13.5451457"><ele>334.0</ele><time>2026-05-02T07:07:29.175Z</time></trkpt><trkpt lat="46.1168486" lon="13.5452616"><ele>334.0</ele><time>2026-05-02T07:07:30.175Z</time></trkpt><trkpt lat="46.1168906" lon="13.5453723"><ele>334.0</ele><time>2026-05-02T07:07:31.175Z</time></trkpt><trkpt lat="46.1169282" lon="13.5455028"><ele>334.0</ele><time>2026-05-02T07:07:32.176Z</time></trkpt><trkpt lat="46.1169791" lon="13.54563"><ele>334.0</ele><time>2026-05-02T07:07:33.175Z</time></trkpt><trkpt lat="46.117028" lon="13.5457506"><ele>338.79999999999995</ele><time>2026-05-02T07:07:34.175Z</time></trkpt><trkpt lat="46.1170926" lon="13.5458718"><ele>343.59999999999997</ele><time>2026-05-02T07:07:35.175Z</time></trkpt><trkpt lat="46.1171512" lon="13.5459785"><ele>348.4</ele><time>2026-05-02T07:07:36.176Z</time></trkpt><trkpt lat="46.1171993" lon="13.5460969"><ele>353.2</ele><time>2026-05-02T07:07:37.176Z</time></trkpt><trkpt lat="46.1172643" lon="13.54621"><ele>358.0</ele><time>2026-05-02T07:07:38.176Z</time></trkpt><trkpt lat="46.1173282" lon="13.5463208"><ele>361.5</ele><time>2026-05-02T07:07:39.176Z</time></trkpt><trkpt lat="46.1173933" lon="13.5464165"><ele>365.0</ele><time>2026-05-02T07:07:40.175Z</time></trkpt><trkpt lat="46.1174495" lon="13.5465147"><ele>368.5</ele><time>2026-05-02T07:07:41.176Z</time></trkpt><trkpt lat="46.1174967" lon="13.5466162"><ele>372.0</ele><time>2026-05-02T07:07:42.176Z</time></trkpt><trkpt lat="46.1175403" lon="13.5467411"><ele>375.5</ele><time>2026-05-02T07:07:43.176Z</time></trkpt><trkpt lat="46.1175617" lon="13.5468473"><ele>379.0</ele><time>2026-05-02T07:07:44.175Z</time></trkpt><trkpt lat="46.1175955" lon="13.546965"><ele>372.3333333333333</ele><time>2026-05-02T07:07:45.175Z</time></trkpt><trkpt lat="46.117625" lon="13.547118"><ele>365.66666666666663</ele><time>2026-05-02T07:07:46.175Z</time></trkpt><trkpt lat="46.117643" lon="13.5472427"><ele>359.0</ele><time>2026-05-02T07:07:47.175Z</time></trkpt><trkpt lat="46.1176701" lon="13.5473607"><ele>352.3333333333333</ele><time>2026-05-02T07:07:48.176Z</time></trkpt><trkpt lat="46.1176951" lon="13.5474663"><ele>345.6666666666667</ele><time>2026-05-02T07:07:49.175Z</time></trkpt><trkpt lat="46.1177183" lon="13.5475552"><ele>339.0</ele><time>2026-05-02T07:07:50.175Z</time></trkpt><trkpt lat="46.1177542" lon="13.5477175"><ele>338.0</ele><time>2026-05-02T07:07:52.176Z</time></trkpt><trkpt lat="46.1177556" lon="13.5479026"><ele>337.0</ele><time>2026-05-02T07:07:54.175Z</time></trkpt><trkpt lat="46.1177497" lon="13.5479977"><ele>336.0</ele><time>2026-05-02T07:07:55.175Z</time></trkpt><trkpt lat="46.1177378" lon="13.5481067"><ele>335.0</ele><time>2026-05-02T07:07:56.175Z</time></trkpt><trkpt lat="46.1177231" lon="13.548238"><ele>334.0</ele><time>2026-05-02T07:07:57.176Z</time></trkpt><trkpt lat="46.1177085" lon="13.5483485"><ele>333.0</ele><time>2026-05-02T07:07:58.175Z</time></trkpt><trkpt lat="46.1176826" lon="13.5484411"><ele>333.0</ele><time>2026-05-02T07:07:59.176Z</time></trkpt><trkpt lat="46.1176603" lon="13.5485317"><ele>333.0</ele><time>2026-05-02T07:08:00.176Z</time></trkpt><trkpt lat="46.1176242" lon="13.5486374"><ele>333.0</ele><time>2026-05-02T07:08:01.176Z</time></trkpt><trkpt lat="46.1175789" lon="13.548717"><ele>333.0</ele><time>2026-05-02T07:08:02.175Z</time></trkpt><trkpt lat="46.1175181" lon="13.5488182"><ele>333.0</ele><time>2026-05-02T07:08:03.175Z</time></trkpt><trkpt lat="46.1174521" lon="13.5489324"><ele>333.0</ele><time>2026-05-02T07:08:04.175Z</time></trkpt><trkpt lat="46.1174044" lon="13.5490474"><ele>338.8333333333333</ele><time>2026-05-02T07:08:05.175Z</time></trkpt><trkpt lat="46.1173516" lon="13.5491508"><ele>344.6666666666667</ele><time>2026-05-02T07:08:06.176Z</time></trkpt><trkpt lat="46.1173099" lon="13.5492581"><ele>350.5</ele><time>2026-05-02T07:08:07.175Z</time></trkpt><trkpt lat="46.1172787" lon="13.5493676"><ele>356.33333333333337</ele><time>2026-05-02T07:08:08.175Z</time></trkpt><trkpt lat="46.1172559" lon="13.5494635"><ele>362.1666666666667</ele><time>2026-05-02T07:08:09.176Z</time></trkpt><trkpt lat="46.117246" lon="13.5495868"><ele>368.0</ele><time>2026-05-02T07:08:10.175Z</time></trkpt><trkpt lat="46.1172205" lon="13.5497079"><ele>368.0</ele><time>2026-05-02T07:08:11.175Z</time></trkpt><trkpt lat="46.1171932" lon="13.5498452"><ele>368.0</ele><time>2026-05-02T07:08:12.175Z</time></trkpt><trkpt lat="46.1171666" lon="13.549982"><ele>368.0</ele><time>2026-05-02T07:08:13.175Z</time></trkpt><trkpt lat="46.1171258" lon="13.5501227"><ele>368.0</ele><time>2026-05-02T07:08:14.176Z</time></trkpt><trkpt lat="46.117075" lon="13.5502695"><ele>368.0</ele><time>2026-05-02T07:08:15.175Z</time></trkpt><trkpt lat="46.1170158" lon="13.5503959"><ele>365.4</ele><time>2026-05-02T07:08:16.175Z</time></trkpt><trkpt lat="46.1169639" lon="13.5505293"><ele>362.79999999999995</ele><time>2026-05-02T07:08:17.176Z</time></trkpt><trkpt lat="46.1169051" lon="13.5506445"><ele>360.2</ele><time>2026-05-02T07:08:18.176Z</time></trkpt><trkpt lat="46.1168308" lon="13.5507627"><ele>357.6</ele><time>2026-05-02T07:08:19.175Z</time></trkpt><trkpt lat="46.1167622" lon="13.5508689"><ele>355.0</ele><time>2026-05-02T07:08:20.175Z</time></trkpt><trkpt lat="46.1167046" lon="13.5509902"><ele>355.0</ele><time>2026-05-02T07:08:21.175Z</time></trkpt><trkpt lat="46.1166478" lon="13.5511049"><ele>355.0</ele><time>2026-05-02T07:08:22.176Z</time></trkpt><trkpt lat="46.1166035" lon="13.5512214"><ele>355.0</ele><time>2026-05-02T07:08:23.175Z</time></trkpt><trkpt lat="46.1165743" lon="13.5513488"><ele>355.0</ele><time>2026-05-02T07:08:24.175Z</time></trkpt><trkpt lat="46.1165476" lon="13.5514711"><ele>355.0</ele><time>2026-05-02T07:08:25.176Z</time></trkpt><trkpt lat="46.1165451" lon="13.5515735"><ele>355.0</ele><time>2026-05-02T07:08:26.176Z</time></trkpt><trkpt lat="46.116629" lon="13.5515886"><ele>355.0</ele><time>2026-05-02T07:08:29.176Z</time></trkpt><trkpt lat="46.1166972" lon="13.5515352"><ele>355.0</ele><time>2026-05-02T07:08:31.175Z</time></trkpt><trkpt lat="46.1168047" lon="13.5514591"><ele>355.0</ele><time>2026-05-02T07:08:33.175Z</time></trkpt><trkpt lat="46.1168833" lon="13.5514157"><ele>355.0</ele><time>2026-05-02T07:08:34.176Z</time></trkpt><trkpt lat="46.1169663" lon="13.5513797"><ele>355.0</ele><time>2026-05-02T07:08:35.176Z</time></trkpt><trkpt lat="46.1170575" lon="13.5513232"><ele>355.0</ele><time>2026-05-02T07:08:36.176Z</time></trkpt><trkpt lat="46.1171859" lon="13.5512454"><ele>355.0</ele><time>2026-05-02T07:08:38.176Z</time></trkpt><trkpt lat="46.1172597" lon="13.551193"><ele>355.0</ele><time>2026-05-02T07:08:39.176Z</time></trkpt><trkpt lat="46.1173475" lon="13.5510818"><ele>355.0</ele><time>2026-05-02T07:08:41.176Z</time></trkpt><trkpt lat="46.1174609" lon="13.5510374"><ele>350.6</ele><time>2026-05-02T07:08:43.175Z</time></trkpt><trkpt lat="46.117535" lon="13.5510259"><ele>346.2</ele><time>2026-05-02T07:08:44.176Z</time></trkpt><trkpt lat="46.1176042" lon="13.5510303"><ele>341.79999999999995</ele><time>2026-05-02T07:08:45.175Z</time></trkpt><trkpt lat="46.1177425" lon="13.5510633"><ele>337.4</ele><time>2026-05-02T07:08:47.175Z</time></trkpt><trkpt lat="46.1178348" lon="13.551101"><ele>333.0</ele><time>2026-05-02T07:08:48.176Z</time></trkpt><trkpt lat="46.1179321" lon="13.5511291"><ele>333.0</ele><time>2026-05-02T07:08:49.175Z</time></trkpt><trkpt lat="46.1180276" lon="13.5511476"><ele>333.0</ele><time>2026-05-02T07:08:50.175Z</time></trkpt><trkpt lat="46.1181365" lon="13.551154"><ele>333.0</ele><time>2026-05-02T07:08:51.175Z</time></trkpt><trkpt lat="46.1182506" lon="13.551151"><ele>333.0</ele><time>2026-05-02T07:08:52.175Z</time></trkpt><trkpt lat="46.1183696" lon="13.5511588"><ele>333.0</ele><time>2026-05-02T07:08:53.175Z</time></trkpt><trkpt lat="46.1184772" lon="13.5511754"><ele>333.79999999999995</ele><time>2026-05-02T07:08:54.176Z</time></trkpt><trkpt lat="46.118588" lon="13.5511872"><ele>334.6</ele><time>2026-05-02T07:08:55.175Z</time></trkpt><trkpt lat="46.1186824" lon="13.5511729"><ele>335.4</ele><time>2026-05-02T07:08:56.176Z</time></trkpt><trkpt lat="46.1187753" lon="13.5511679"><ele>336.20000000000005</ele><time>2026-05-02T07:08:57.175Z</time></trkpt><trkpt lat="46.1188887" lon="13.5511631"><ele>337.0</ele><time>2026-05-02T07:08:58.176Z</time></trkpt><trkpt lat="46.1189752" lon="13.5511488"><ele>337.0</ele><time>2026-05-02T07:08:59.175Z</time></trkpt><trkpt lat="46.1190642" lon="13.5511659"><ele>337.0</ele><time>2026-05-02T07:09:00.175Z</time></trkpt><trkpt lat="46.1191443" lon="13.5511851"><ele>337.0</ele><time>2026-05-02T07:09:01.175Z</time></trkpt><trkpt lat="46.1192445" lon="13.5512697"><ele>337.0</ele><time>2026-05-02T07:09:03.176Z</time></trkpt><trkpt lat="46.1193045" lon="13.5513441"><ele>337.0</ele><time>2026-05-02T07:09:04.175Z</time></trkpt><trkpt lat="46.1193716" lon="13.5513951"><ele>337.0</ele><time>2026-05-02T07:09:08.176Z</time></trkpt><trkpt lat="46.1194302" lon="13.5514385"><ele>340.8</ele><time>2026-05-02T07:09:10.176Z</time></trkpt><trkpt lat="46.1195193" lon="13.5514696"><ele>344.6</ele><time>2026-05-02T07:09:12.176Z</time></trkpt><trkpt lat="46.1196081" lon="13.5515384"><ele>348.40000000000003</ele><time>2026-05-02T07:09:14.175Z</time></trkpt><trkpt lat="46.1197123" lon="13.5516179"><ele>352.20000000000005</ele><time>2026-05-02T07:09:16.176Z</time></trkpt><trkpt lat="46.1197659" lon="13.5516689"><ele>356.0</ele><time>2026-05-02T07:09:17.175Z</time></trkpt><trkpt lat="46.1198547" lon="13.5517491"><ele>350.4</ele><time>2026-05-02T07:09:19.176Z</time></trkpt><trkpt lat="46.1199478" lon="13.551856"><ele>344.8</ele><time>2026-05-02T07:09:21.175Z</time></trkpt><trkpt lat="46.1200292" lon="13.5518614"><ele>339.2</ele><time>2026-05-02T07:09:23.175Z</time></trkpt><trkpt lat="46.1201271" lon="13.5518381"><ele>333.59999999999997</ele><time>2026-05-02T07:09:25.175Z</time></trkpt><trkpt lat="46.1202079" lon="13.5518508"><ele>328.0</ele><time>2026-05-02T07:09:26.175Z</time></trkpt><trkpt lat="46.1202897" lon="13.5518659"><ele>328.0</ele><time>2026-05-02T07:09:27.175Z</time></trkpt><trkpt lat="46.1203582" lon="13.5518372"><ele>328.0</ele><time>2026-05-02T07:09:28.175Z</time></trkpt><trkpt lat="46.1204488" lon="13.5518008"><ele>328.0</ele><time>2026-05-02T07:09:30.175Z</time></trkpt><trkpt lat="46.1205211" lon="13.5517896"><ele>328.0</ele><time>2026-05-02T07:09:32.175Z</time></trkpt><trkpt lat="46.1206012" lon="13.5518256"><ele>328.0</ele><time>2026-05-02T07:09:35.175Z</time></trkpt><trkpt lat="46.120673" lon="13.5519168"><ele>328.0</ele><time>2026-05-02T07:09:37.176Z</time></trkpt><trkpt lat="46.1207257" lon="13.5519751"><ele>324.79999999999995</ele><time>2026-05-02T07:09:38.175Z</time></trkpt><trkpt lat="46.1207902" lon="13.5521009"><ele>321.59999999999997</ele><time>2026-05-02T07:09:40.176Z</time></trkpt><trkpt lat="46.120826" lon="13.5522259"><ele>318.4</ele><time>2026-05-02T07:09:42.176Z</time></trkpt><trkpt lat="46.1208421" lon="13.5523778"><ele>315.2</ele><time>2026-05-02T07:09:44.176Z</time></trkpt><trkpt lat="46.1208491" lon="13.5525473"><ele>312.0</ele><time>2026-05-02T07:09:46.174Z</time></trkpt><trkpt lat="46.1208734" lon="13.552724"><ele>312.0</ele><time>2026-05-02T07:09:48.174Z</time></trkpt><trkpt lat="46.120886" lon="13.5528149"><ele>312.0</ele><time>2026-05-02T07:09:49.175Z</time></trkpt><trkpt lat="46.1209001" lon="13.5529042"><ele>312.0</ele><time>2026-05-02T07:09:50.175Z</time></trkpt><trkpt lat="46.1209149" lon="13.5530668"><ele>312.0</ele><time>2026-05-02T07:09:52.174Z</time></trkpt><trkpt lat="46.1209378" lon="13.5532197"><ele>312.0</ele><time>2026-05-02T07:09:54.175Z</time></trkpt><trkpt lat="46.1209612" lon="13.5533576"><ele>312.0</ele><time>2026-05-02T07:09:56.174Z</time></trkpt><trkpt lat="46.1209987" lon="13.5535107"><ele>312.8</ele><time>2026-05-02T07:09:58.175Z</time></trkpt><trkpt lat="46.1210301" lon="13.5535902"><ele>313.6</ele><time>2026-05-02T07:09:59.175Z</time></trkpt><trkpt lat="46.1210937" lon="13.5537342"><ele>314.40000000000003</ele><time>2026-05-02T07:10:01.174Z</time></trkpt><trkpt lat="46.1211253" lon="13.5538133"><ele>315.2</ele><time>2026-05-02T07:10:02.175Z</time></trkpt><trkpt lat="46.1211515" lon="13.5539542"><ele>316.0</ele><time>2026-05-02T07:10:04.174Z</time></trkpt><trkpt lat="46.121148" lon="13.5541157"><ele>316.0</ele><time>2026-05-02T07:10:06.174Z</time></trkpt><trkpt lat="46.1211165" lon="13.5542814"><ele>316.0</ele><time>2026-05-02T07:10:08.174Z</time></trkpt><trkpt lat="46.1210899" lon="13.5543825"><ele>316.0</ele><time>2026-05-02T07:10:09.174Z</time></trkpt><trkpt lat="46.1210498" lon="13.5544763"><ele>316.0</ele><time>2026-05-02T07:10:10.175Z</time></trkpt><trkpt lat="46.1210134" lon="13.5545781"><ele>316.0</ele><time>2026-05-02T07:10:11.174Z</time></trkpt><trkpt lat="46.1209811" lon="13.554672"><ele>316.0</ele><time>2026-05-02T07:10:12.174Z</time></trkpt><trkpt lat="46.1209394" lon="13.5547735"><ele>313.3333333333333</ele><time>2026-05-02T07:10:13.174Z</time></trkpt><trkpt lat="46.1209054" lon="13.554881"><ele>310.66666666666663</ele><time>2026-05-02T07:10:14.174Z</time></trkpt><trkpt lat="46.1208894" lon="13.5549877"><ele>308.0</ele><time>2026-05-02T07:10:15.175Z</time></trkpt><trkpt lat="46.1208723" lon="13.5550841"><ele>305.3333333333333</ele><time>2026-05-02T07:10:16.174Z</time></trkpt><trkpt lat="46.1208442" lon="13.5551842"><ele>302.6666666666667</ele><time>2026-05-02T07:10:17.174Z</time></trkpt><trkpt lat="46.1208246" lon="13.5552856"><ele>300.0</ele><time>2026-05-02T07:10:18.175Z</time></trkpt><trkpt lat="46.120804" lon="13.5553946"><ele>297.3333333333333</ele><time>2026-05-02T07:10:19.174Z</time></trkpt><trkpt lat="46.1207843" lon="13.5554929"><ele>294.6666666666667</ele><time>2026-05-02T07:10:20.174Z</time></trkpt><trkpt lat="46.1207405" lon="13.555659"><ele>292.0</ele><time>2026-05-02T07:10:22.175Z</time></trkpt><trkpt lat="46.1207027" lon="13.5557699"><ele>289.33333333333337</ele><time>2026-05-02T07:10:23.174Z</time></trkpt><trkpt lat="46.1206618" lon="13.5558576"><ele>286.6666666666667</ele><time>2026-05-02T07:10:24.174Z</time></trkpt><trkpt lat="46.1206038" lon="13.5559597"><ele>284.0</ele><time>2026-05-02T07:10:25.174Z</time></trkpt><trkpt lat="46.1205608" lon="13.5560388"><ele>287.1666666666667</ele><time>2026-05-02T07:10:26.174Z</time></trkpt><trkpt lat="46.1205155" lon="13.5561319"><ele>290.33333333333337</ele><time>2026-05-02T07:10:27.174Z</time></trkpt><trkpt lat="46.1204879" lon="13.5562203"><ele>293.5</ele><time>2026-05-02T07:10:28.175Z</time></trkpt><trkpt lat="46.1204591" lon="13.556306"><ele>296.6666666666667</ele><time>2026-05-02T07:10:29.174Z</time></trkpt><trkpt lat="46.1204107" lon="13.5564273"><ele>299.8333333333333</ele><time>2026-05-02T07:10:31.175Z</time></trkpt><trkpt lat="46.1203659" lon="13.5565379"><ele>303.0</ele><time>2026-05-02T07:10:33.174Z</time></trkpt><trkpt lat="46.1203362" lon="13.5566314"><ele>303.0</ele><time>2026-05-02T07:10:35.174Z</time></trkpt><trkpt lat="46.1202691" lon="13.5567279"><ele>303.0</ele><time>2026-05-02T07:10:37.174Z</time></trkpt><trkpt lat="46.1201741" lon="13.5568184"><ele>303.0</ele><time>2026-05-02T07:10:39.174Z</time></trkpt><trkpt lat="46.1201207" lon="13.5568743"><ele>303.0</ele><time>2026-05-02T07:10:40.174Z</time></trkpt><trkpt lat="46.1200451" lon="13.5569673"><ele>303.0</ele><time>2026-05-02T07:10:41.175Z</time></trkpt><trkpt lat="46.1199853" lon="13.5570303"><ele>303.0</ele><time>2026-05-02T07:10:42.174Z</time></trkpt><trkpt lat="46.1198983" lon="13.5571302"><ele>306.0</ele><time>2026-05-02T07:10:44.174Z</time></trkpt><trkpt lat="46.1198184" lon="13.557239"><ele>309.0</ele><time>2026-05-02T07:10:46.175Z</time></trkpt><trkpt lat="46.1197274" lon="13.5573393"><ele>312.0</ele><time>2026-05-02T07:10:48.174Z</time></trkpt><trkpt lat="46.1196796" lon="13.5574031"><ele>315.0</ele><time>2026-05-02T07:10:49.175Z</time></trkpt><trkpt lat="46.1196254" lon="13.5575095"><ele>318.0</ele><time>2026-05-02T07:10:51.175Z</time></trkpt><trkpt lat="46.1195711" lon="13.5576058"><ele>318.0</ele><time>2026-05-02T07:10:53.174Z</time></trkpt><trkpt lat="46.1195317" lon="13.5577199"><ele>318.0</ele><time>2026-05-02T07:10:55.174Z</time></trkpt><trkpt lat="46.1195234" lon="13.5578356"><ele>318.0</ele><time>2026-05-02T07:10:57.174Z</time></trkpt><trkpt lat="46.1195589" lon="13.5579515"><ele>318.0</ele><time>2026-05-02T07:10:59.175Z</time></trkpt><trkpt lat="46.119618" lon="13.5579968"><ele>318.0</ele><time>2026-05-02T07:11:01.174Z</time></trkpt><trkpt lat="46.1197051" lon="13.5580233"><ele>318.0</ele><time>2026-05-02T07:11:03.174Z</time></trkpt><trkpt lat="46.1197897" lon="13.5580494"><ele>318.0</ele><time>2026-05-02T07:11:05.174Z</time></trkpt><trkpt lat="46.1198891" lon="13.5580602"><ele>318.0</ele><time>2026-05-02T07:11:07.174Z</time></trkpt><trkpt lat="46.1200078" lon="13.5580611"><ele>318.0</ele><time>2026-05-02T07:11:09.175Z</time></trkpt><trkpt lat="46.1200881" lon="13.558079"><ele>318.0</ele><time>2026-05-02T07:11:11.174Z</time></trkpt><trkpt lat="46.1201681" lon="13.5581256"><ele>318.0</ele><time>2026-05-02T07:11:13.174Z</time></trkpt><trkpt lat="46.1202461" lon="13.5582072"><ele>313.4</ele><time>2026-05-02T07:11:15.174Z</time></trkpt><trkpt lat="46.1203198" lon="13.5583035"><ele>308.8</ele><time>2026-05-02T07:11:17.175Z</time></trkpt><trkpt lat="46.1204408" lon="13.5583812"><ele>304.2</ele><time>2026-05-02T07:11:18.174Z</time></trkpt><trkpt lat="46.120494" lon="13.5584493"><ele>299.6</ele><time>2026-05-02T07:11:19.174Z</time></trkpt><trkpt lat="46.1205481" lon="13.5585072"><ele>295.0</ele><time>2026-05-02T07:11:20.174Z</time></trkpt><trkpt lat="46.1206058" lon="13.5586032"><ele>296.2</ele><time>2026-05-02T07:11:22.175Z</time></trkpt><trkpt lat="46.1206331" lon="13.5587499"><ele>297.4</ele><time>2026-05-02T07:11:24.174Z</time></trkpt><trkpt lat="46.1206847" lon="13.5588428"><ele>298.6</ele><time>2026-05-02T07:11:26.174Z</time></trkpt><trkpt lat="46.1207666" lon="13.558882"><ele>299.8</ele><time>2026-05-02T07:11:28.174Z</time></trkpt><trkpt lat="46.1208669" lon="13.5588824"><ele>301.0</ele><time>2026-05-02T07:11:30.175Z</time></trkpt><trkpt lat="46.1209534" lon="13.5588794"><ele>301.0</ele><time>2026-05-02T07:11:31.174Z</time></trkpt><trkpt lat="46.1210274" lon="13.5588864"><ele>301.0</ele><time>2026-05-02T07:11:32.174Z</time></trkpt><trkpt lat="46.1211333" lon="13.5589192"><ele>301.0</ele><time>2026-05-02T07:11:34.174Z</time></trkpt><trkpt lat="46.1212444" lon="13.5589418"><ele>301.0</ele><time>2026-05-02T07:11:36.174Z</time></trkpt><trkpt lat="46.1213118" lon="13.5589556"><ele>301.0</ele><time>2026-05-02T07:11:37.174Z</time></trkpt><trkpt lat="46.1213813" lon="13.5589749"><ele>301.0</ele><time>2026-05-02T07:11:38.174Z</time></trkpt><trkpt lat="46.121452" lon="13.5589886"><ele>301.0</ele><time>2026-05-02T07:11:39.175Z</time></trkpt><trkpt lat="46.1215578" lon="13.5590356"><ele>301.0</ele><time>2026-05-02T07:11:41.174Z</time></trkpt><trkpt lat="46.1216367" lon="13.5591036"><ele>301.0</ele><time>2026-05-02T07:11:43.174Z</time></trkpt><trkpt lat="46.1216842" lon="13.5591969"><ele>301.0</ele><time>2026-05-02T07:11:45.174Z</time></trkpt><trkpt lat="46.1217131" lon="13.5592876"><ele>301.0</ele><time>2026-05-02T07:11:46.174Z</time></trkpt><trkpt lat="46.1217383" lon="13.5593857"><ele>301.0</ele><time>2026-05-02T07:11:47.175Z</time></trkpt><trkpt lat="46.1217716" lon="13.5595049"><ele>301.6</ele><time>2026-05-02T07:11:49.174Z</time></trkpt><trkpt lat="46.1218022" lon="13.55963"><ele>302.20000000000005</ele><time>2026-05-02T07:11:51.174Z</time></trkpt><trkpt lat="46.1218224" lon="13.559751"><ele>302.79999999999995</ele><time>2026-05-02T07:11:53.174Z</time></trkpt><trkpt lat="46.1218484" lon="13.5599363"><ele>303.4</ele><time>2026-05-02T07:11:55.174Z</time></trkpt><trkpt lat="46.1218766" lon="13.5600513"><ele>304.0</ele><time>2026-05-02T07:11:56.174Z</time></trkpt><trkpt lat="46.1219137" lon="13.5601321"><ele>304.0</ele><time>2026-05-02T07:11:57.174Z</time></trkpt><trkpt lat="46.1219417" lon="13.5602221"><ele>304.0</ele><time>2026-05-02T07:11:58.174Z</time></trkpt><trkpt lat="46.1219702" lon="13.5603859"><ele>304.0</ele><time>2026-05-02T07:12:00.174Z</time></trkpt><trkpt lat="46.121995" lon="13.560471"><ele>304.0</ele><time>2026-05-02T07:12:01.175Z</time></trkpt><trkpt lat="46.1220052" lon="13.5605662"><ele>304.0</ele><time>2026-05-02T07:12:02.175Z</time></trkpt><trkpt lat="46.1220749" lon="13.5607061"><ele>304.0</ele><time>2026-05-02T07:12:04.175Z</time></trkpt><trkpt lat="46.122123" lon="13.5607913"><ele>306.16666666666663</ele><time>2026-05-02T07:12:05.175Z</time></trkpt><trkpt lat="46.1221895" lon="13.5609566"><ele>308.3333333333333</ele><time>2026-05-02T07:12:07.174Z</time></trkpt><trkpt lat="46.1222133" lon="13.5610624"><ele>310.5</ele><time>2026-05-02T07:12:08.175Z</time></trkpt><trkpt lat="46.1222184" lon="13.5611556"><ele>312.6666666666667</ele><time>2026-05-02T07:12:09.175Z</time></trkpt><trkpt lat="46.1222266" lon="13.5612709"><ele>314.83333333333337</ele><time>2026-05-02T07:12:10.175Z</time></trkpt><trkpt lat="46.122244" lon="13.5613689"><ele>317.0</ele><time>2026-05-02T07:12:11.174Z</time></trkpt><trkpt lat="46.1222735" lon="13.561486"><ele>314.83333333333337</ele><time>2026-05-02T07:12:12.174Z</time></trkpt><trkpt lat="46.1222966" lon="13.5615862"><ele>312.6666666666667</ele><time>2026-05-02T07:12:13.174Z</time></trkpt><trkpt lat="46.1223297" lon="13.5616707"><ele>310.5</ele><time>2026-05-02T07:12:14.175Z</time></trkpt><trkpt lat="46.1223856" lon="13.5618192"><ele>308.3333333333333</ele><time>2026-05-02T07:12:16.174Z</time></trkpt><trkpt lat="46.1224238" lon="13.5619063"><ele>306.16666666666663</ele><time>2026-05-02T07:12:17.174Z</time></trkpt><trkpt lat="46.1224693" lon="13.5619909"><ele>304.0</ele><time>2026-05-02T07:12:18.174Z</time></trkpt><trkpt lat="46.1225222" lon="13.5620876"><ele>304.0</ele><time>2026-05-02T07:12:19.174Z</time></trkpt><trkpt lat="46.1225655" lon="13.5621721"><ele>304.0</ele><time>2026-05-02T07:12:20.175Z</time></trkpt><trkpt lat="46.1226488" lon="13.5622967"><ele>304.0</ele><time>2026-05-02T07:12:22.175Z</time></trkpt><trkpt lat="46.122722" lon="13.5624178"><ele>304.0</ele><time>2026-05-02T07:12:24.174Z</time></trkpt><trkpt lat="46.1227889" lon="13.5625357"><ele>304.0</ele><time>2026-05-02T07:12:26.174Z</time></trkpt><trkpt lat="46.1228584" lon="13.5627092"><ele>304.0</ele><time>2026-05-02T07:12:28.174Z</time></trkpt><trkpt lat="46.1228926" lon="13.562791"><ele>304.0</ele><time>2026-05-02T07:12:29.174Z</time></trkpt><trkpt lat="46.1229571" lon="13.5629214"><ele>304.0</ele><time>2026-05-02T07:12:31.175Z</time></trkpt><trkpt lat="46.1230271" lon="13.5630039"><ele>304.0</ele><time>2026-05-02T07:12:33.175Z</time></trkpt><trkpt lat="46.1231503" lon="13.5630813"><ele>304.0</ele><time>2026-05-02T07:12:35.174Z</time></trkpt><trkpt lat="46.1232405" lon="13.5631131"><ele>303.1428571428571</ele><time>2026-05-02T07:12:36.174Z</time></trkpt><trkpt lat="46.1233164" lon="13.5631367"><ele>302.28571428571433</ele><time>2026-05-02T07:12:37.174Z</time></trkpt><trkpt lat="46.1233824" lon="13.5631476"><ele>301.42857142857144</ele><time>2026-05-02T07:12:38.175Z</time></trkpt><trkpt lat="46.1234486" lon="13.5631561"><ele>300.57142857142856</ele><time>2026-05-02T07:12:39.174Z</time></trkpt><trkpt lat="46.1235171" lon="13.5631741"><ele>299.71428571428567</ele><time>2026-05-02T07:12:40.174Z</time></trkpt><trkpt lat="46.1235871" lon="13.5631985"><ele>298.85714285714283</ele><time>2026-05-02T07:12:41.174Z</time></trkpt><trkpt lat="46.1236732" lon="13.5632039"><ele>298.0</ele><time>2026-05-02T07:12:43.174Z</time></trkpt><trkpt lat="46.1237635" lon="13.5633186"><ele>298.0</ele><time>2026-05-02T07:12:45.174Z</time></trkpt><trkpt lat="46.123811" lon="13.5634086"><ele>298.0</ele><time>2026-05-02T07:12:46.174Z</time></trkpt><trkpt lat="46.1238639" lon="13.5634925"><ele>298.0</ele><time>2026-05-02T07:12:47.175Z</time></trkpt><trkpt lat="46.1239148" lon="13.5635686"><ele>298.0</ele><time>2026-05-02T07:12:48.174Z</time></trkpt><trkpt lat="46.1239605" lon="13.5636568"><ele>298.0</ele><time>2026-05-02T07:12:49.174Z</time></trkpt><trkpt lat="46.1240402" lon="13.5637851"><ele>298.0</ele><time>2026-05-02T07:12:51.175Z</time></trkpt><trkpt lat="46.1240787" lon="13.5638618"><ele>297.2</ele><time>2026-05-02T07:12:52.174Z</time></trkpt><trkpt lat="46.1241154" lon="13.5639478"><ele>296.4</ele><time>2026-05-02T07:12:53.174Z</time></trkpt><trkpt lat="46.1241619" lon="13.5641039"><ele>295.59999999999997</ele><time>2026-05-02T07:12:55.174Z</time></trkpt><trkpt lat="46.1241806" lon="13.5642824"><ele>294.8</ele><time>2026-05-02T07:12:57.174Z</time></trkpt><trkpt lat="46.1241993" lon="13.5644554"><ele>294.0</ele><time>2026-05-02T07:12:59.174Z</time></trkpt><trkpt lat="46.1242478" lon="13.5646265"><ele>293.8333333333333</ele><time>2026-05-02T07:13:01.174Z</time></trkpt><trkpt lat="46.1242799" lon="13.5647067"><ele>293.6666666666667</ele><time>2026-05-02T07:13:02.175Z</time></trkpt><trkpt lat="46.1243049" lon="13.5648105"><ele>293.5</ele><time>2026-05-02T07:13:03.174Z</time></trkpt><trkpt lat="46.1243225" lon="13.5649211"><ele>293.33333333333337</ele><time>2026-05-02T07:13:04.175Z</time></trkpt><trkpt lat="46.124333" lon="13.565048"><ele>293.1666666666667</ele><time>2026-05-02T07:13:05.174Z</time></trkpt><trkpt lat="46.1243371" lon="13.5651761"><ele>293.0</ele><time>2026-05-02T07:13:06.175Z</time></trkpt><trkpt lat="46.1243369" lon="13.5652978"><ele>292.83333333333337</ele><time>2026-05-02T07:13:07.174Z</time></trkpt><trkpt lat="46.124338" lon="13.5654497"><ele>292.6666666666667</ele><time>2026-05-02T07:13:08.174Z</time></trkpt><trkpt lat="46.124323" lon="13.565574"><ele>292.5</ele><time>2026-05-02T07:13:09.175Z</time></trkpt><trkpt lat="46.1243183" lon="13.5656831"><ele>292.3333333333333</ele><time>2026-05-02T07:13:10.174Z</time></trkpt><trkpt lat="46.124312" lon="13.5657861"><ele>292.16666666666663</ele><time>2026-05-02T07:13:11.174Z</time></trkpt><trkpt lat="46.1243108" lon="13.5658809"><ele>292.0</ele><time>2026-05-02T07:13:12.174Z</time></trkpt><trkpt lat="46.1243078" lon="13.5659917"><ele>292.0</ele><time>2026-05-02T07:13:13.174Z</time></trkpt><trkpt lat="46.1242938" lon="13.5660955"><ele>292.0</ele><time>2026-05-02T07:13:14.175Z</time></trkpt><trkpt lat="46.1242825" lon="13.5661866"><ele>292.0</ele><time>2026-05-02T07:13:15.175Z</time></trkpt><trkpt lat="46.124268" lon="13.5662971"><ele>292.0</ele><time>2026-05-02T07:13:16.175Z</time></trkpt><trkpt lat="46.1242669" lon="13.5663939"><ele>292.0</ele><time>2026-05-02T07:13:17.175Z</time></trkpt><trkpt lat="46.1242754" lon="13.566513"><ele>292.0</ele><time>2026-05-02T07:13:18.175Z</time></trkpt><trkpt lat="46.1242807" lon="13.5666299"><ele>292.0</ele><time>2026-05-02T07:13:19.174Z</time></trkpt><trkpt lat="46.1242842" lon="13.5667347"><ele>291.5</ele><time>2026-05-02T07:13:20.175Z</time></trkpt><trkpt lat="46.1242841" lon="13.5668269"><ele>291.0</ele><time>2026-05-02T07:13:21.175Z</time></trkpt><trkpt lat="46.124284" lon="13.5670087"><ele>290.5</ele><time>2026-05-02T07:13:23.174Z</time></trkpt><trkpt lat="46.1242733" lon="13.5671155"><ele>290.0</ele><time>2026-05-02T07:13:24.174Z</time></trkpt><trkpt lat="46.1242384" lon="13.567273"><ele>289.5</ele><time>2026-05-02T07:13:26.175Z</time></trkpt><trkpt lat="46.1242132" lon="13.5673569"><ele>289.0</ele><time>2026-05-02T07:13:27.174Z</time></trkpt><trkpt lat="46.1241805" lon="13.5674356"><ele>286.5</ele><time>2026-05-02T07:13:28.175Z</time></trkpt><trkpt lat="46.1241376" lon="13.5675112"><ele>284.0</ele><time>2026-05-02T07:13:29.174Z</time></trkpt><trkpt lat="46.1240897" lon="13.5675706"><ele>281.5</ele><time>2026-05-02T07:13:30.174Z</time></trkpt><trkpt lat="46.1240115" lon="13.5676455"><ele>279.0</ele><time>2026-05-02T07:13:32.175Z</time></trkpt><trkpt lat="46.1239628" lon="13.5677096"><ele>276.5</ele><time>2026-05-02T07:13:34.175Z</time></trkpt><trkpt lat="46.1240128" lon="13.5677672"><ele>274.0</ele><time>2026-05-02T07:13:36.174Z</time></trkpt><trkpt lat="46.1241045" lon="13.5676728"><ele>274.00000000000006</ele><time>2026-05-02T07:13:39.175Z</time></trkpt><trkpt lat="46.1241581" lon="13.567601"><ele>274.0</ele><time>2026-05-02T07:13:40.175Z</time></trkpt><trkpt lat="46.1242095" lon="13.5675327"><ele>274.0</ele><time>2026-05-02T07:13:41.175Z</time></trkpt><trkpt lat="46.1242526" lon="13.5674646"><ele>274.0</ele><time>2026-05-02T07:13:42.175Z</time></trkpt><trkpt lat="46.1242902" lon="13.5673828"><ele>274.0</ele><time>2026-05-02T07:13:43.174Z</time></trkpt><trkpt lat="46.1243205" lon="13.5672993"><ele>274.00000000000006</ele><time>2026-05-02T07:13:44.175Z</time></trkpt><trkpt lat="46.1243533" lon="13.5672076"><ele>274.0</ele><time>2026-05-02T07:13:45.175Z</time></trkpt><trkpt lat="46.124388" lon="13.5671247"><ele>274.00000000000006</ele><time>2026-05-02T07:13:46.174Z</time></trkpt><trkpt lat="46.1244187" lon="13.5670387"><ele>274.0</ele><time>2026-05-02T07:13:47.175Z</time></trkpt><trkpt lat="46.1244362" lon="13.5669502"><ele>274.0</ele><time>2026-05-02T07:13:48.174Z</time></trkpt><trkpt lat="46.1244437" lon="13.566846"><ele>274.0</ele><time>2026-05-02T07:13:49.175Z</time></trkpt><trkpt lat="46.1244451" lon="13.5667339"><ele>274.0</ele><time>2026-05-02T07:13:50.175Z</time></trkpt><trkpt lat="46.1244432" lon="13.5666166"><ele>274.00000000000006</ele><time>2026-05-02T07:13:51.174Z</time></trkpt><trkpt lat="46.1244447" lon="13.566503"><ele>274.0</ele><time>2026-05-02T07:13:52.174Z</time></trkpt><trkpt lat="46.1244493" lon="13.5663376"><ele>277.59999999999997</ele><time>2026-05-02T07:13:54.174Z</time></trkpt><trkpt lat="46.124499" lon="13.5661216"><ele>281.2</ele><time>2026-05-02T07:13:56.174Z</time></trkpt><trkpt lat="46.1245381" lon="13.5659539"><ele>284.79999999999995</ele><time>2026-05-02T07:13:58.174Z</time></trkpt><trkpt lat="46.1245595" lon="13.5658545"><ele>288.4</ele><time>2026-05-02T07:13:59.174Z</time></trkpt><trkpt lat="46.1245902" lon="13.5657512"><ele>292.0</ele><time>2026-05-02T07:14:00.175Z</time></trkpt><trkpt lat="46.1246194" lon="13.5656452"><ele>292.0</ele><time>2026-05-02T07:14:01.174Z</time></trkpt><trkpt lat="46.1246426" lon="13.5655463"><ele>292.0</ele><time>2026-05-02T07:14:02.175Z</time></trkpt><trkpt lat="46.1246906" lon="13.565377"><ele>292.0</ele><time>2026-05-02T07:14:04.175Z</time></trkpt><trkpt lat="46.1247214" lon="13.5652858"><ele>292.0</ele><time>2026-05-02T07:14:05.175Z</time></trkpt><trkpt lat="46.1247341" lon="13.5651965"><ele>292.0</ele><time>2026-05-02T07:14:06.174Z</time></trkpt><trkpt lat="46.1247477" lon="13.5651043"><ele>292.0</ele><time>2026-05-02T07:14:07.174Z</time></trkpt><trkpt lat="46.1247657" lon="13.5650091"><ele>292.16666666666663</ele><time>2026-05-02T07:14:08.174Z</time></trkpt><trkpt lat="46.1247879" lon="13.5649056"><ele>292.3333333333333</ele><time>2026-05-02T07:14:09.174Z</time></trkpt><trkpt lat="46.1248087" lon="13.5648029"><ele>292.5</ele><time>2026-05-02T07:14:10.175Z</time></trkpt><trkpt lat="46.1248289" lon="13.5647072"><ele>292.6666666666667</ele><time>2026-05-02T07:14:11.175Z</time></trkpt><trkpt lat="46.1248747" lon="13.5645575"><ele>292.83333333333337</ele><time>2026-05-02T07:14:13.174Z</time></trkpt><trkpt lat="46.1249077" lon="13.564409"><ele>293.0</ele><time>2026-05-02T07:14:15.174Z</time></trkpt><trkpt lat="46.124953" lon="13.564249"><ele>285.0</ele><time>2026-05-02T07:14:17.174Z</time></trkpt><trkpt lat="46.1249774" lon="13.5641601"><ele>277.0</ele><time>2026-05-02T07:14:18.174Z</time></trkpt><trkpt lat="46.1250053" lon="13.5640565"><ele>269.0</ele><time>2026-05-02T07:14:19.174Z</time></trkpt><trkpt lat="46.1250063" lon="13.563963"><ele>261.0</ele><time>2026-05-02T07:14:20.174Z</time></trkpt><trkpt lat="46.1250059" lon="13.5637826"><ele>253.00000000000003</ele><time>2026-05-02T07:14:22.174Z</time></trkpt><trkpt lat="46.125004" lon="13.5636888"><ele>245.0</ele><time>2026-05-02T07:14:23.175Z</time></trkpt><trkpt lat="46.1250182" lon="13.5635086"><ele>243.85714285714286</ele><time>2026-05-02T07:14:25.173Z</time></trkpt><trkpt lat="46.1250319" lon="13.5634193"><ele>242.71428571428572</ele><time>2026-05-02T07:14:26.173Z</time></trkpt><trkpt lat="46.125042" lon="13.5633225"><ele>241.57142857142856</ele><time>2026-05-02T07:14:27.173Z</time></trkpt><trkpt lat="46.1250439" lon="13.5632304"><ele>240.42857142857142</ele><time>2026-05-02T07:14:28.174Z</time></trkpt><trkpt lat="46.1250379" lon="13.5631328"><ele>239.28571428571428</ele><time>2026-05-02T07:14:29.174Z</time></trkpt><trkpt lat="46.1250198" lon="13.5630393"><ele>238.1428571428571</ele><time>2026-05-02T07:14:30.173Z</time></trkpt><trkpt lat="46.1250099" lon="13.5629389"><ele>236.99999999999997</ele><time>2026-05-02T07:14:31.174Z</time></trkpt><trkpt lat="46.1250047" lon="13.5627732"><ele>236.83333333333334</ele><time>2026-05-02T07:14:33.174Z</time></trkpt><trkpt lat="46.1250035" lon="13.5626817"><ele>236.66666666666669</ele><time>2026-05-02T07:14:34.173Z</time></trkpt><trkpt lat="46.1249993" lon="13.5625165"><ele>236.5</ele><time>2026-05-02T07:14:36.173Z</time></trkpt><trkpt lat="46.1249837" lon="13.5624249"><ele>236.33333333333334</ele><time>2026-05-02T07:14:37.174Z</time></trkpt><trkpt lat="46.1249625" lon="13.5622657"><ele>236.16666666666669</ele><time>2026-05-02T07:14:39.173Z</time></trkpt><trkpt lat="46.1249618" lon="13.5621645"><ele>236.0</ele><time>2026-05-02T07:14:40.173Z</time></trkpt><trkpt lat="46.1249728" lon="13.5620602"><ele>234.57142857142856</ele><time>2026-05-02T07:14:41.173Z</time></trkpt><trkpt lat="46.1249672" lon="13.5619553"><ele>233.14285714285717</ele><time>2026-05-02T07:14:42.173Z</time></trkpt><trkpt lat="46.1249562" lon="13.56185"><ele>231.71428571428572</ele><time>2026-05-02T07:14:43.173Z</time></trkpt><trkpt lat="46.1249404" lon="13.5617317"><ele>230.28571428571428</ele><time>2026-05-02T07:14:44.173Z</time></trkpt><trkpt lat="46.1249248" lon="13.5616267"><ele>228.85714285714283</ele><time>2026-05-02T07:14:45.174Z</time></trkpt><trkpt lat="46.1249065" lon="13.5615388"><ele>227.42857142857144</ele><time>2026-05-02T07:14:46.174Z</time></trkpt><trkpt lat="46.1248832" lon="13.5614523"><ele>226.0</ele><time>2026-05-02T07:14:47.174Z</time></trkpt><trkpt lat="46.124813" lon="13.5612976"><ele>226.49999999999997</ele><time>2026-05-02T07:14:49.174Z</time></trkpt><trkpt lat="46.1247782" lon="13.5612151"><ele>227.0</ele><time>2026-05-02T07:14:50.173Z</time></trkpt><trkpt lat="46.12473" lon="13.5611181"><ele>227.5</ele><time>2026-05-02T07:14:51.174Z</time></trkpt><trkpt lat="46.1246929" lon="13.5610431"><ele>228.0</ele><time>2026-05-02T07:14:52.174Z</time></trkpt><trkpt lat="46.1245817" lon="13.5609381"><ele>228.49999999999997</ele><time>2026-05-02T07:14:54.173Z</time></trkpt><trkpt lat="46.1245206" lon="13.560872"><ele>229.0</ele><time>2026-05-02T07:14:55.174Z</time></trkpt><trkpt lat="46.1244726" lon="13.5608007"><ele>229.0</ele><time>2026-05-02T07:14:56.174Z</time></trkpt><trkpt lat="46.1244007" lon="13.5606545"><ele>228.99999999999997</ele><time>2026-05-02T07:14:58.173Z</time></trkpt><trkpt lat="46.1243619" lon="13.5605749"><ele>228.99999999999997</ele><time>2026-05-02T07:14:59.173Z</time></trkpt><trkpt lat="46.1243218" lon="13.5604833"><ele>229.0</ele><time>2026-05-02T07:15:00.173Z</time></trkpt><trkpt lat="46.1242942" lon="13.5603906"><ele>229.0</ele><time>2026-05-02T07:15:01.173Z</time></trkpt><trkpt lat="46.1242169" lon="13.5602092"><ele>231.2</ele><time>2026-05-02T07:15:03.173Z</time></trkpt><trkpt lat="46.1241723" lon="13.5601228"><ele>233.39999999999998</ele><time>2026-05-02T07:15:04.173Z</time></trkpt><trkpt lat="46.1240988" lon="13.5599888"><ele>235.6</ele><time>2026-05-02T07:15:06.173Z</time></trkpt><trkpt lat="46.1240607" lon="13.5598114"><ele>237.8</ele><time>2026-05-02T07:15:08.174Z</time></trkpt><trkpt lat="46.1240298" lon="13.5597286"><ele>240.0</ele><time>2026-05-02T07:15:09.173Z</time></trkpt><trkpt lat="46.1239552" lon="13.559623"><ele>238.83333333333334</ele><time>2026-05-02T07:15:11.174Z</time></trkpt><trkpt lat="46.1239523" lon="13.5595154"><ele>237.66666666666669</ele><time>2026-05-02T07:15:13.173Z</time></trkpt><trkpt lat="46.1239743" lon="13.5594106"><ele>236.5</ele><time>2026-05-02T07:15:14.174Z</time></trkpt><trkpt lat="46.1239569" lon="13.5592284"><ele>235.33333333333334</ele><time>2026-05-02T07:15:16.173Z</time></trkpt><trkpt lat="46.123923" lon="13.5591488"><ele>234.16666666666669</ele><time>2026-05-02T07:15:17.173Z</time></trkpt><trkpt lat="46.1238818" lon="13.559028"><ele>233.0</ele><time>2026-05-02T07:15:19.173Z</time></trkpt><trkpt lat="46.1239156" lon="13.558901"><ele>233.0</ele><time>2026-05-02T07:15:21.174Z</time></trkpt><trkpt lat="46.1239865" lon="13.5588343"><ele>233.0</ele><time>2026-05-02T07:15:24.173Z</time></trkpt><trkpt lat="46.1240369" lon="13.5587327"><ele>233.0</ele><time>2026-05-02T07:15:56.173Z</time></trkpt><trkpt lat="46.1239604" lon="13.5585826"><ele>233.0</ele><time>2026-05-02T07:15:58.173Z</time></trkpt><trkpt lat="46.1238954" lon="13.5584662"><ele>233.0</ele><time>2026-05-02T07:15:59.173Z</time></trkpt><trkpt lat="46.1238229" lon="13.5583304"><ele>229.75</ele><time>2026-05-02T07:16:00.174Z</time></trkpt><trkpt lat="46.1237471" lon="13.5581823"><ele>226.5</ele><time>2026-05-02T07:16:01.173Z</time></trkpt><trkpt lat="46.1236639" lon="13.5580212"><ele>223.25</ele><time>2026-05-02T07:16:02.173Z</time></trkpt><trkpt lat="46.123589" lon="13.557843"><ele>220.0</ele><time>2026-05-02T07:16:03.173Z</time></trkpt><trkpt lat="46.1235225" lon="13.5576593"><ele>217.0</ele><time>2026-05-02T07:16:04.173Z</time></trkpt><trkpt lat="46.1234612" lon="13.5574595"><ele>214.0</ele><time>2026-05-02T07:16:05.173Z</time></trkpt><trkpt lat="46.1234051" lon="13.5572417"><ele>211.0</ele><time>2026-05-02T07:16:06.173Z</time></trkpt><trkpt lat="46.1233626" lon="13.5570101"><ele>208.0</ele><time>2026-05-02T07:16:07.174Z</time></trkpt><trkpt lat="46.1233382" lon="13.5567676"><ele>205.0</ele><time>2026-05-02T07:16:08.174Z</time></trkpt><trkpt lat="46.1233333" lon="13.5565133"><ele>202.0</ele><time>2026-05-02T07:16:09.174Z</time></trkpt><trkpt lat="46.1233305" lon="13.5562478"><ele>201.33333333333331</ele><time>2026-05-02T07:16:10.174Z</time></trkpt><trkpt lat="46.1233239" lon="13.555985"><ele>200.66666666666669</ele><time>2026-05-02T07:16:11.173Z</time></trkpt><trkpt lat="46.1233137" lon="13.5557262"><ele>200.0</ele><time>2026-05-02T07:16:12.173Z</time></trkpt><trkpt lat="46.1233058" lon="13.5554651"><ele>199.0</ele><time>2026-05-02T07:16:13.174Z</time></trkpt><trkpt lat="46.1232951" lon="13.5552028"><ele>198.0</ele><time>2026-05-02T07:16:14.173Z</time></trkpt><trkpt lat="46.1232763" lon="13.5549209"><ele>197.0</ele><time>2026-05-02T07:16:15.174Z</time></trkpt><trkpt lat="46.1232677" lon="13.5546742"><ele>195.66666666666669</ele><time>2026-05-02T07:16:16.173Z</time></trkpt><trkpt lat="46.1232584" lon="13.5544298"><ele>194.33333333333331</ele><time>2026-05-02T07:16:17.173Z</time></trkpt><trkpt lat="46.1232477" lon="13.5541837"><ele>193.0</ele><time>2026-05-02T07:16:18.173Z</time></trkpt><trkpt lat="46.1232354" lon="13.5539414"><ele>199.0</ele><time>2026-05-02T07:16:19.173Z</time></trkpt><trkpt lat="46.1232219" lon="13.55371"><ele>205.0</ele><time>2026-05-02T07:16:20.174Z</time></trkpt><trkpt lat="46.1231989" lon="13.5534769"><ele>211.0</ele><time>2026-05-02T07:16:21.173Z</time></trkpt><trkpt lat="46.1231616" lon="13.5532526"><ele>211.0</ele><time>2026-05-02T07:16:22.173Z</time></trkpt><trkpt lat="46.1231133" lon="13.5530411"><ele>211.0</ele><time>2026-05-02T07:16:23.173Z</time></trkpt><trkpt lat="46.1230571" lon="13.5528185"><ele>211.0</ele><time>2026-05-02T07:16:24.173Z</time></trkpt><trkpt lat="46.1230032" lon="13.5526111"><ele>208.0</ele><time>2026-05-02T07:16:25.173Z</time></trkpt><trkpt lat="46.1229479" lon="13.5523998"><ele>205.0</ele><time>2026-05-02T07:16:26.173Z</time></trkpt><trkpt lat="46.1228907" lon="13.5521888"><ele>202.0</ele><time>2026-05-02T07:16:27.174Z</time></trkpt><trkpt lat="46.1228383" lon="13.5519867"><ele>200.25</ele><time>2026-05-02T07:16:28.173Z</time></trkpt><trkpt lat="46.1227895" lon="13.551789"><ele>198.5</ele><time>2026-05-02T07:16:29.173Z</time></trkpt><trkpt lat="46.1227524" lon="13.5515987"><ele>196.75</ele><time>2026-05-02T07:16:30.173Z</time></trkpt><trkpt lat="46.122722" lon="13.5514146"><ele>195.0</ele><time>2026-05-02T07:16:31.174Z</time></trkpt><trkpt lat="46.1226945" lon="13.5512306"><ele>193.75</ele><time>2026-05-02T07:16:32.174Z</time></trkpt><trkpt lat="46.1226688" lon="13.5510403"><ele>192.5</ele><time>2026-05-02T07:16:33.174Z</time></trkpt><trkpt lat="46.1226401" lon="13.5508515"><ele>191.25</ele><time>2026-05-02T07:16:34.174Z</time></trkpt><trkpt lat="46.1226149" lon="13.5506646"><ele>190.0</ele><time>2026-05-02T07:16:35.173Z</time></trkpt><trkpt lat="46.122588" lon="13.5504723"><ele>189.66666666666669</ele><time>2026-05-02T07:16:36.173Z</time></trkpt><trkpt lat="46.1225549" lon="13.5502652"><ele>189.33333333333334</ele><time>2026-05-02T07:16:37.173Z</time></trkpt><trkpt lat="46.1225144" lon="13.5500501"><ele>189.0</ele><time>2026-05-02T07:16:38.173Z</time></trkpt><trkpt lat="46.1224793" lon="13.5498282"><ele>189.0</ele><time>2026-05-02T07:16:39.173Z</time></trkpt><trkpt lat="46.1224495" lon="13.5496041"><ele>189.0</ele><time>2026-05-02T07:16:40.174Z</time></trkpt><trkpt lat="46.122421" lon="13.5493884"><ele>189.0</ele><time>2026-05-02T07:16:41.174Z</time></trkpt><trkpt lat="46.1223958" lon="13.5491824"><ele>196.25</ele><time>2026-05-02T07:16:42.174Z</time></trkpt><trkpt lat="46.1223719" lon="13.5489773"><ele>203.5</ele><time>2026-05-02T07:16:43.174Z</time></trkpt><trkpt lat="46.1223471" lon="13.5487778"><ele>210.75</ele><time>2026-05-02T07:16:44.173Z</time></trkpt><trkpt lat="46.122323" lon="13.5485714"><ele>218.0</ele><time>2026-05-02T07:16:45.173Z</time></trkpt><trkpt lat="46.1223013" lon="13.548353"><ele>218.0</ele><time>2026-05-02T07:16:46.174Z</time></trkpt><trkpt lat="46.122285" lon="13.5481127"><ele>218.0</ele><time>2026-05-02T07:16:47.174Z</time></trkpt><trkpt lat="46.1222712" lon="13.5478663"><ele>218.0</ele><time>2026-05-02T07:16:48.173Z</time></trkpt><trkpt lat="46.122248" lon="13.5476206"><ele>213.66666666666669</ele><time>2026-05-02T07:16:49.173Z</time></trkpt><trkpt lat="46.1222292" lon="13.5473602"><ele>209.33333333333331</ele><time>2026-05-02T07:16:50.173Z</time></trkpt><trkpt lat="46.1222117" lon="13.5470893"><ele>205.0</ele><time>2026-05-02T07:16:51.173Z</time></trkpt><trkpt lat="46.1222002" lon="13.5468256"><ele>200.33333333333331</ele><time>2026-05-02T07:16:52.173Z</time></trkpt><trkpt lat="46.1221784" lon="13.5465482"><ele>195.66666666666666</ele><time>2026-05-02T07:16:53.174Z</time></trkpt><trkpt lat="46.1221562" lon="13.5462721"><ele>191.0</ele><time>2026-05-02T07:16:54.173Z</time></trkpt><trkpt lat="46.1221335" lon="13.5459889"><ele>188.33333333333331</ele><time>2026-05-02T07:16:55.173Z</time></trkpt><trkpt lat="46.1221106" lon="13.5457052"><ele>185.66666666666666</ele><time>2026-05-02T07:16:56.174Z</time></trkpt><trkpt lat="46.1220912" lon="13.5454386"><ele>183.0</ele><time>2026-05-02T07:16:57.173Z</time></trkpt><trkpt lat="46.1220714" lon="13.545172"><ele>183.0</ele><time>2026-05-02T07:16:58.173Z</time></trkpt><trkpt lat="46.1220521" lon="13.5449095"><ele>183.0</ele><time>2026-05-02T07:16:59.173Z</time></trkpt><trkpt lat="46.1220336" lon="13.5446543"><ele>183.0</ele><time>2026-05-02T07:17:00.173Z</time></trkpt><trkpt lat="46.1220152" lon="13.5444036"><ele>183.0</ele><time>2026-05-02T07:17:01.174Z</time></trkpt><trkpt lat="46.1219967" lon="13.5441539"><ele>183.0</ele><time>2026-05-02T07:17:02.173Z</time></trkpt><trkpt lat="46.1219767" lon="13.5439001"><ele>183.0</ele><time>2026-05-02T07:17:03.173Z</time></trkpt><trkpt lat="46.1219563" lon="13.543655"><ele>184.0</ele><time>2026-05-02T07:17:04.173Z</time></trkpt><trkpt lat="46.1219364" lon="13.5434056"><ele>185.0</ele><time>2026-05-02T07:17:05.174Z</time></trkpt><trkpt lat="46.1219146" lon="13.5431578"><ele>186.0</ele><time>2026-05-02T07:17:06.173Z</time></trkpt><trkpt lat="46.1218855" lon="13.5429041"><ele>189.33333333333331</ele><time>2026-05-02T07:17:07.174Z</time></trkpt><trkpt lat="46.1218401" lon="13.5426496"><ele>192.66666666666666</ele><time>2026-05-02T07:17:08.174Z</time></trkpt><trkpt lat="46.1217791" lon="13.5423955"><ele>196.0</ele><time>2026-05-02T07:17:09.173Z</time></trkpt><trkpt lat="46.1217156" lon="13.5421483"><ele>197.0</ele><time>2026-05-02T07:17:10.173Z</time></trkpt><trkpt lat="46.1216533" lon="13.5419049"><ele>198.0</ele><time>2026-05-02T07:17:11.173Z</time></trkpt><trkpt lat="46.1215911" lon="13.541659"><ele>199.0</ele><time>2026-05-02T07:17:12.173Z</time></trkpt><trkpt lat="46.1215308" lon="13.5414123"><ele>192.0</ele><time>2026-05-02T07:17:13.173Z</time></trkpt><trkpt lat="46.1214716" lon="13.5411678"><ele>185.0</ele><time>2026-05-02T07:17:14.174Z</time></trkpt><trkpt lat="46.1214095" lon="13.5409237"><ele>178.0</ele><time>2026-05-02T07:17:15.173Z</time></trkpt><trkpt lat="46.1213476" lon="13.5406706"><ele>178.0</ele><time>2026-05-02T07:17:16.174Z</time></trkpt><trkpt lat="46.1212823" lon="13.5404175"><ele>178.0</ele><time>2026-05-02T07:17:17.173Z</time></trkpt><trkpt lat="46.1212142" lon="13.5401667"><ele>178.0</ele><time>2026-05-02T07:17:18.174Z</time></trkpt><trkpt lat="46.1211362" lon="13.5399057"><ele>178.0</ele><time>2026-05-02T07:17:19.174Z</time></trkpt><trkpt lat="46.1210623" lon="13.5396433"><ele>178.0</ele><time>2026-05-02T07:17:20.173Z</time></trkpt><trkpt lat="46.1209921" lon="13.5393926"><ele>178.0</ele><time>2026-05-02T07:17:21.174Z</time></trkpt><trkpt lat="46.120925" lon="13.5391501"><ele>178.0</ele><time>2026-05-02T07:17:22.173Z</time></trkpt><trkpt lat="46.1208582" lon="13.538896"><ele>178.0</ele><time>2026-05-02T07:17:23.174Z</time></trkpt><trkpt lat="46.1207851" lon="13.5386431"><ele>178.0</ele><time>2026-05-02T07:17:24.174Z</time></trkpt><trkpt lat="46.1207077" lon="13.538409"><ele>177.0</ele><time>2026-05-02T07:17:25.173Z</time></trkpt><trkpt lat="46.120633" lon="13.5381718"><ele>176.0</ele><time>2026-05-02T07:17:26.174Z</time></trkpt><trkpt lat="46.1205672" lon="13.5379292"><ele>175.0</ele><time>2026-05-02T07:17:27.173Z</time></trkpt><trkpt lat="46.1205192" lon="13.5376883"><ele>174.0</ele><time>2026-05-02T07:17:28.173Z</time></trkpt><trkpt lat="46.1204849" lon="13.5374343"><ele>173.0</ele><time>2026-05-02T07:17:29.174Z</time></trkpt><trkpt lat="46.1204559" lon="13.5371716"><ele>172.0</ele><time>2026-05-02T07:17:30.174Z</time></trkpt><trkpt lat="46.120435" lon="13.5369084"><ele>171.66666666666669</ele><time>2026-05-02T07:17:31.173Z</time></trkpt><trkpt lat="46.1204163" lon="13.5366521"><ele>171.33333333333334</ele><time>2026-05-02T07:17:32.173Z</time></trkpt><trkpt lat="46.1203974" lon="13.5364067"><ele>171.0</ele><time>2026-05-02T07:17:33.174Z</time></trkpt><trkpt lat="46.1203989" lon="13.5361462"><ele>171.66666666666666</ele><time>2026-05-02T07:17:34.174Z</time></trkpt><trkpt lat="46.1204171" lon="13.535896"><ele>172.33333333333331</ele><time>2026-05-02T07:17:35.173Z</time></trkpt><trkpt lat="46.120453" lon="13.5356418"><ele>173.0</ele><time>2026-05-02T07:17:36.174Z</time></trkpt><trkpt lat="46.1205108" lon="13.5353881"><ele>173.66666666666666</ele><time>2026-05-02T07:17:37.174Z</time></trkpt><trkpt lat="46.1205882" lon="13.5351386"><ele>174.33333333333334</ele><time>2026-05-02T07:17:38.173Z</time></trkpt><trkpt lat="46.1206766" lon="13.5349021"><ele>175.0</ele><time>2026-05-02T07:17:39.173Z</time></trkpt><trkpt lat="46.1207646" lon="13.5346744"><ele>172.33333333333334</ele><time>2026-05-02T07:17:40.173Z</time></trkpt><trkpt lat="46.1208568" lon="13.5344575"><ele>169.66666666666666</ele><time>2026-05-02T07:17:41.173Z</time></trkpt><trkpt lat="46.1209407" lon="13.5342454"><ele>167.0</ele><time>2026-05-02T07:17:42.174Z</time></trkpt><trkpt lat="46.1210109" lon="13.5340283"><ele>167.0</ele><time>2026-05-02T07:17:43.173Z</time></trkpt><trkpt lat="46.1210676" lon="13.5338047"><ele>167.0</ele><time>2026-05-02T07:17:44.174Z</time></trkpt><trkpt lat="46.1211049" lon="13.5335722"><ele>167.0</ele><time>2026-05-02T07:17:45.173Z</time></trkpt><trkpt lat="46.1211306" lon="13.5333344"><ele>166.0</ele><time>2026-05-02T07:17:46.174Z</time></trkpt><trkpt lat="46.1211526" lon="13.5330952"><ele>165.0</ele><time>2026-05-02T07:17:47.173Z</time></trkpt><trkpt lat="46.1211736" lon="13.5328676"><ele>164.0</ele><time>2026-05-02T07:17:48.173Z</time></trkpt><trkpt lat="46.12119" lon="13.5326502"><ele>164.0</ele><time>2026-05-02T07:17:49.173Z</time></trkpt><trkpt lat="46.1212054" lon="13.5324436"><ele>164.0</ele><time>2026-05-02T07:17:50.174Z</time></trkpt><trkpt lat="46.1212199" lon="13.5322451"><ele>164.0</ele><time>2026-05-02T07:17:51.173Z</time></trkpt><trkpt lat="46.1212346" lon="13.5320556"><ele>164.0</ele><time>2026-05-02T07:17:52.173Z</time></trkpt><trkpt lat="46.1212506" lon="13.5318654"><ele>163.75</ele><time>2026-05-02T07:17:53.173Z</time></trkpt><trkpt lat="46.1212665" lon="13.5316729"><ele>163.5</ele><time>2026-05-02T07:17:54.174Z</time></trkpt><trkpt lat="46.1212766" lon="13.5314841"><ele>163.25</ele><time>2026-05-02T07:17:55.173Z</time></trkpt><trkpt lat="46.1212912" lon="13.5312997"><ele>163.0</ele><time>2026-05-02T07:17:56.174Z</time></trkpt><trkpt lat="46.1213118" lon="13.5311154"><ele>163.0</ele><time>2026-05-02T07:17:57.174Z</time></trkpt><trkpt lat="46.1213393" lon="13.5309291"><ele>163.0</ele><time>2026-05-02T07:17:58.173Z</time></trkpt><trkpt lat="46.1213723" lon="13.5307379"><ele>163.0</ele><time>2026-05-02T07:17:59.173Z</time></trkpt><trkpt lat="46.121402" lon="13.5305465"><ele>163.0</ele><time>2026-05-02T07:18:00.174Z</time></trkpt><trkpt lat="46.1214324" lon="13.5303506"><ele>163.0</ele><time>2026-05-02T07:18:01.173Z</time></trkpt><trkpt lat="46.121463" lon="13.5301615"><ele>163.0</ele><time>2026-05-02T07:18:02.174Z</time></trkpt><trkpt lat="46.1214923" lon="13.5299825"><ele>163.0</ele><time>2026-05-02T07:18:03.174Z</time></trkpt><trkpt lat="46.1215176" lon="13.529815"><ele>163.0</ele><time>2026-05-02T07:18:04.173Z</time></trkpt><trkpt lat="46.1215444" lon="13.5296488"><ele>165.25</ele><time>2026-05-02T07:18:05.173Z</time></trkpt><trkpt lat="46.1215673" lon="13.5294811"><ele>167.5</ele><time>2026-05-02T07:18:06.174Z</time></trkpt><trkpt lat="46.1215896" lon="13.5293136"><ele>169.75</ele><time>2026-05-02T07:18:07.173Z</time></trkpt><trkpt lat="46.1216134" lon="13.5291471"><ele>172.0</ele><time>2026-05-02T07:18:08.173Z</time></trkpt><trkpt lat="46.121636" lon="13.5289928"><ele>172.0</ele><time>2026-05-02T07:18:09.174Z</time></trkpt><trkpt lat="46.1216574" lon="13.5288484"><ele>172.0</ele><time>2026-05-02T07:18:10.174Z</time></trkpt><trkpt lat="46.1216773" lon="13.5287176"><ele>172.0</ele><time>2026-05-02T07:18:11.174Z</time></trkpt><trkpt lat="46.1216941" lon="13.5286029"><ele>172.0</ele><time>2026-05-02T07:18:12.174Z</time></trkpt><trkpt lat="46.1217025" lon="13.5285091"><ele>172.0</ele><time>2026-05-02T07:18:13.173Z</time></trkpt><trkpt lat="46.1217217" lon="13.5283731"><ele>172.0</ele><time>2026-05-02T07:18:15.173Z</time></trkpt><trkpt lat="46.1217998" lon="13.528396"><ele>172.0</ele><time>2026-05-02T07:18:18.173Z</time></trkpt><trkpt lat="46.1218459" lon="13.5285594"><ele>172.0</ele><time>2026-05-02T07:18:20.173Z</time></trkpt><trkpt lat="46.1218954" lon="13.5286341"><ele>172.0</ele><time>2026-05-02T07:18:21.173Z</time></trkpt><trkpt lat="46.1219629" lon="13.5286771"><ele>172.0</ele><time>2026-05-02T07:18:22.174Z</time></trkpt><trkpt lat="46.1220366" lon="13.5286962"><ele>172.0</ele><time>2026-05-02T07:18:23.174Z</time></trkpt><trkpt lat="46.1221152" lon="13.5287226"><ele>172.0</ele><time>2026-05-02T07:18:24.174Z</time></trkpt><trkpt lat="46.1221972" lon="13.5287735"><ele>172.0</ele><time>2026-05-02T07:18:25.173Z</time></trkpt><trkpt lat="46.1222898" lon="13.5289043"><ele>172.0</ele><time>2026-05-02T07:18:27.173Z</time></trkpt><trkpt lat="46.1223156" lon="13.5290203"><ele>172.0</ele><time>2026-05-02T07:18:28.173Z</time></trkpt><trkpt lat="46.1223055" lon="13.5291504"><ele>172.0</ele><time>2026-05-02T07:18:29.173Z</time></trkpt><trkpt lat="46.1222673" lon="13.529278"><ele>172.0</ele><time>2026-05-02T07:18:30.174Z</time></trkpt><trkpt lat="46.1222154" lon="13.5293967"><ele>172.0</ele><time>2026-05-02T07:18:31.174Z</time></trkpt><trkpt lat="46.1221699" lon="13.5295105"><ele>172.0</ele><time>2026-05-02T07:18:32.173Z</time></trkpt><trkpt lat="46.1221322" lon="13.5296199"><ele>172.0</ele><time>2026-05-02T07:18:33.173Z</time></trkpt><trkpt lat="46.1220963" lon="13.5297213"><ele>172.0</ele><time>2026-05-02T07:18:34.173Z</time></trkpt><trkpt lat="46.1220626" lon="13.5298219"><ele>172.0</ele><time>2026-05-02T07:18:35.173Z</time></trkpt><trkpt lat="46.1220301" lon="13.5299281"><ele>172.0</ele><time>2026-05-02T07:18:36.174Z</time></trkpt><trkpt lat="46.1219919" lon="13.5300425"><ele>173.0</ele><time>2026-05-02T07:18:37.174Z</time></trkpt><trkpt lat="46.1219656" lon="13.5301667"><ele>174.0</ele><time>2026-05-02T07:18:38.174Z</time></trkpt><trkpt lat="46.1219518" lon="13.5303025"><ele>175.0</ele><time>2026-05-02T07:18:39.173Z</time></trkpt><trkpt lat="46.1219587" lon="13.5304353"><ele>176.0</ele><time>2026-05-02T07:18:40.174Z</time></trkpt><trkpt lat="46.1219714" lon="13.5305713"><ele>177.0</ele><time>2026-05-02T07:18:41.173Z</time></trkpt><trkpt lat="46.1219885" lon="13.5307051"><ele>177.2</ele><time>2026-05-02T07:18:42.174Z</time></trkpt><trkpt lat="46.1220189" lon="13.5308369"><ele>177.39999999999998</ele><time>2026-05-02T07:18:43.173Z</time></trkpt><trkpt lat="46.1220649" lon="13.5309643"><ele>177.60000000000002</ele><time>2026-05-02T07:18:44.173Z</time></trkpt><trkpt lat="46.1221276" lon="13.5310921"><ele>177.8</ele><time>2026-05-02T07:18:45.173Z</time></trkpt><trkpt lat="46.1222041" lon="13.531208"><ele>178.0</ele><time>2026-05-02T07:18:46.173Z</time></trkpt><trkpt lat="46.122285" lon="13.5312872"><ele>178.0</ele><time>2026-05-02T07:18:47.174Z</time></trkpt><trkpt lat="46.1223759" lon="13.5313507"><ele>178.0</ele><time>2026-05-02T07:18:48.174Z</time></trkpt><trkpt lat="46.1224708" lon="13.5314126"><ele>178.0</ele><time>2026-05-02T07:18:49.174Z</time></trkpt><trkpt lat="46.1225366" lon="13.5314445"><ele>178.0</ele><time>2026-05-02T07:18:50.174Z</time></trkpt><trkpt lat="46.1226178" lon="13.5314893"><ele>178.0</ele><time>2026-05-02T07:18:51.173Z</time></trkpt><trkpt lat="46.1226939" lon="13.5315535"><ele>182.83333333333334</ele><time>2026-05-02T07:18:52.173Z</time></trkpt><trkpt lat="46.1227504" lon="13.531649"><ele>187.66666666666669</ele><time>2026-05-02T07:18:53.173Z</time></trkpt><trkpt lat="46.1227773" lon="13.5317771"><ele>192.5</ele><time>2026-05-02T07:18:54.174Z</time></trkpt><trkpt lat="46.1227673" lon="13.5318772"><ele>197.33333333333334</ele><time>2026-05-02T07:18:55.174Z</time></trkpt><trkpt lat="46.1227359" lon="13.5319815"><ele>202.16666666666666</ele><time>2026-05-02T07:18:56.173Z</time></trkpt><trkpt lat="46.1226572" lon="13.5320916"><ele>207.0</ele><time>2026-05-02T07:18:57.173Z</time></trkpt><trkpt lat="46.1225776" lon="13.5321861"><ele>208.8</ele><time>2026-05-02T07:18:58.173Z</time></trkpt><trkpt lat="46.1225052" lon="13.5322772"><ele>210.6</ele><time>2026-05-02T07:18:59.173Z</time></trkpt><trkpt lat="46.1224524" lon="13.5323829"><ele>212.40000000000003</ele><time>2026-05-02T07:19:00.173Z</time></trkpt><trkpt lat="46.1224231" lon="13.5324996"><ele>214.20000000000002</ele><time>2026-05-02T07:19:01.172Z</time></trkpt><trkpt lat="46.1224339" lon="13.5326266"><ele>216.0</ele><time>2026-05-02T07:19:02.173Z</time></trkpt><trkpt lat="46.1224655" lon="13.5327773"><ele>216.8</ele><time>2026-05-02T07:19:03.172Z</time></trkpt><trkpt lat="46.1225025" lon="13.5329323"><ele>217.60000000000002</ele><time>2026-05-02T07:19:04.173Z</time></trkpt><trkpt lat="46.1225326" lon="13.5330818"><ele>218.4</ele><time>2026-05-02T07:19:05.172Z</time></trkpt><trkpt lat="46.1225632" lon="13.5332277"><ele>219.2</ele><time>2026-05-02T07:19:06.172Z</time></trkpt><trkpt lat="46.1225895" lon="13.5333814"><ele>220.0</ele><time>2026-05-02T07:19:07.172Z</time></trkpt><trkpt lat="46.1226167" lon="13.5335421"><ele>220.0</ele><time>2026-05-02T07:19:08.173Z</time></trkpt><trkpt lat="46.1226334" lon="13.5336887"><ele>220.0</ele><time>2026-05-02T07:19:09.172Z</time></trkpt><trkpt lat="46.1226607" lon="13.5338457"><ele>220.0</ele><time>2026-05-02T07:19:10.173Z</time></trkpt><trkpt lat="46.1227018" lon="13.5340015"><ele>220.0</ele><time>2026-05-02T07:19:11.172Z</time></trkpt><trkpt lat="46.1227506" lon="13.5341539"><ele>220.0</ele><time>2026-05-02T07:19:12.172Z</time></trkpt><trkpt lat="46.122805" lon="13.5342927"><ele>219.0</ele><time>2026-05-02T07:19:13.172Z</time></trkpt><trkpt lat="46.122854" lon="13.5344422"><ele>218.0</ele><time>2026-05-02T07:19:14.172Z</time></trkpt><trkpt lat="46.1229037" lon="13.534587"><ele>217.0</ele><time>2026-05-02T07:19:15.173Z</time></trkpt><trkpt lat="46.1229416" lon="13.534724"><ele>216.0</ele><time>2026-05-02T07:19:16.172Z</time></trkpt><trkpt lat="46.122982" lon="13.5348433"><ele>215.0</ele><time>2026-05-02T07:19:17.172Z</time></trkpt><trkpt lat="46.123018" lon="13.5349675"><ele>213.6</ele><time>2026-05-02T07:19:18.172Z</time></trkpt><trkpt lat="46.1230428" lon="13.5350962"><ele>212.2</ele><time>2026-05-02T07:19:19.172Z</time></trkpt><trkpt lat="46.1230709" lon="13.5352246"><ele>210.8</ele><time>2026-05-02T07:19:20.173Z</time></trkpt><trkpt lat="46.1231067" lon="13.5353561"><ele>209.4</ele><time>2026-05-02T07:19:21.172Z</time></trkpt><trkpt lat="46.1231641" lon="13.5354784"><ele>208.0</ele><time>2026-05-02T07:19:22.172Z</time></trkpt><trkpt lat="46.1232271" lon="13.5355993"><ele>213.8</ele><time>2026-05-02T07:19:23.173Z</time></trkpt><trkpt lat="46.1232997" lon="13.5357204"><ele>219.60000000000002</ele><time>2026-05-02T07:19:24.172Z</time></trkpt><trkpt lat="46.1233607" lon="13.5358371"><ele>225.39999999999998</ele><time>2026-05-02T07:19:25.173Z</time></trkpt><trkpt lat="46.1234284" lon="13.5359502"><ele>231.2</ele><time>2026-05-02T07:19:26.173Z</time></trkpt><trkpt lat="46.1234902" lon="13.5360452"><ele>237.0</ele><time>2026-05-02T07:19:27.172Z</time></trkpt><trkpt lat="46.123564" lon="13.5361466"><ele>237.2</ele><time>2026-05-02T07:19:28.173Z</time></trkpt><trkpt lat="46.1236388" lon="13.5362399"><ele>237.39999999999998</ele><time>2026-05-02T07:19:29.172Z</time></trkpt><trkpt lat="46.1237149" lon="13.536327"><ele>237.60000000000002</ele><time>2026-05-02T07:19:30.173Z</time></trkpt><trkpt lat="46.1237861" lon="13.5364135"><ele>237.8</ele><time>2026-05-02T07:19:31.173Z</time></trkpt><trkpt lat="46.1238469" lon="13.5365107"><ele>238.0</ele><time>2026-05-02T07:19:32.173Z</time></trkpt><trkpt lat="46.1238893" lon="13.5366085"><ele>237.99999999999997</ele><time>2026-05-02T07:19:33.172Z</time></trkpt><trkpt lat="46.1239014" lon="13.5367107"><ele>238.0</ele><time>2026-05-02T07:19:34.172Z</time></trkpt><trkpt lat="46.1238763" lon="13.5368084"><ele>238.0</ele><time>2026-05-02T07:19:35.173Z</time></trkpt><trkpt lat="46.1238255" lon="13.5368844"><ele>238.0</ele><time>2026-05-02T07:19:36.173Z</time></trkpt><trkpt lat="46.1237654" lon="13.536947"><ele>237.99999999999997</ele><time>2026-05-02T07:19:37.172Z</time></trkpt><trkpt lat="46.1236924" lon="13.5370517"><ele>238.0</ele><time>2026-05-02T07:19:39.172Z</time></trkpt><trkpt lat="46.1236433" lon="13.5371314"><ele>238.0</ele><time>2026-05-02T07:19:41.173Z</time></trkpt><trkpt lat="46.1235897" lon="13.5372093"><ele>238.0</ele><time>2026-05-02T07:19:43.172Z</time></trkpt><trkpt lat="46.1236634" lon="13.5372552"><ele>238.0</ele><time>2026-05-02T07:19:58.172Z</time></trkpt><trkpt lat="46.1237368" lon="13.5371519"><ele>238.0</ele><time>2026-05-02T07:20:00.172Z</time></trkpt><trkpt lat="46.1238298" lon="13.537031"><ele>238.0</ele><time>2026-05-02T07:20:02.173Z</time></trkpt><trkpt lat="46.1238804" lon="13.5369652"><ele>238.0</ele><time>2026-05-02T07:20:03.172Z</time></trkpt><trkpt lat="46.1239388" lon="13.5368948"><ele>238.0</ele><time>2026-05-02T07:20:04.172Z</time></trkpt><trkpt lat="46.1239843" lon="13.5368233"><ele>238.0</ele><time>2026-05-02T07:20:05.173Z</time></trkpt><trkpt lat="46.1240349" lon="13.5366742"><ele>238.0</ele><time>2026-05-02T07:20:07.172Z</time></trkpt><trkpt lat="46.1240079" lon="13.5364928"><ele>238.0</ele><time>2026-05-02T07:20:09.172Z</time></trkpt><trkpt lat="46.1239774" lon="13.5364063"><ele>237.99999999999997</ele><time>2026-05-02T07:20:10.172Z</time></trkpt><trkpt lat="46.1239274" lon="13.5363295"><ele>238.0</ele><time>2026-05-02T07:20:11.172Z</time></trkpt><trkpt lat="46.1238924" lon="13.536249"><ele>238.0</ele><time>2026-05-02T07:20:12.173Z</time></trkpt><trkpt lat="46.1238287" lon="13.5360931"><ele>238.0</ele><time>2026-05-02T07:20:14.173Z</time></trkpt><trkpt lat="46.1237998" lon="13.5359938"><ele>237.99999999999997</ele><time>2026-05-02T07:20:15.173Z</time></trkpt><trkpt lat="46.1237651" lon="13.5358727"><ele>238.0</ele><time>2026-05-02T07:20:16.173Z</time></trkpt><trkpt lat="46.1237427" lon="13.5357355"><ele>237.8</ele><time>2026-05-02T07:20:17.172Z</time></trkpt><trkpt lat="46.1237366" lon="13.5355769"><ele>237.60000000000002</ele><time>2026-05-02T07:20:18.173Z</time></trkpt><trkpt lat="46.1237336" lon="13.535415"><ele>237.39999999999998</ele><time>2026-05-02T07:20:19.173Z</time></trkpt><trkpt lat="46.1237398" lon="13.5352518"><ele>237.2</ele><time>2026-05-02T07:20:20.172Z</time></trkpt><trkpt lat="46.1237589" lon="13.5351147"><ele>237.0</ele><time>2026-05-02T07:20:21.172Z</time></trkpt><trkpt lat="46.1237862" lon="13.5349807"><ele>238.6</ele><time>2026-05-02T07:20:22.172Z</time></trkpt><trkpt lat="46.1238177" lon="13.5348583"><ele>240.2</ele><time>2026-05-02T07:20:23.172Z</time></trkpt><trkpt lat="46.1238398" lon="13.5347314"><ele>241.8</ele><time>2026-05-02T07:20:24.172Z</time></trkpt><trkpt lat="46.1238392" lon="13.5346135"><ele>243.4</ele><time>2026-05-02T07:20:25.172Z</time></trkpt><trkpt lat="46.12383" lon="13.5344842"><ele>245.0</ele><time>2026-05-02T07:20:26.172Z</time></trkpt><trkpt lat="46.1238195" lon="13.5343375"><ele>246.2</ele><time>2026-05-02T07:20:27.172Z</time></trkpt><trkpt lat="46.1238078" lon="13.5341825"><ele>247.4</ele><time>2026-05-02T07:20:28.173Z</time></trkpt><trkpt lat="46.1237916" lon="13.5340267"><ele>248.60000000000002</ele><time>2026-05-02T07:20:29.172Z</time></trkpt><trkpt lat="46.1237829" lon="13.5338767"><ele>249.8</ele><time>2026-05-02T07:20:30.173Z</time></trkpt><trkpt lat="46.1237826" lon="13.5337415"><ele>251.0</ele><time>2026-05-02T07:20:31.172Z</time></trkpt><trkpt lat="46.1237965" lon="13.5336101"><ele>251.20000000000002</ele><time>2026-05-02T07:20:32.172Z</time></trkpt><trkpt lat="46.1238197" lon="13.5334747"><ele>251.40000000000003</ele><time>2026-05-02T07:20:33.172Z</time></trkpt><trkpt lat="46.1238504" lon="13.5333344"><ele>251.6</ele><time>2026-05-02T07:20:34.173Z</time></trkpt><trkpt lat="46.1238919" lon="13.5332041"><ele>251.8</ele><time>2026-05-02T07:20:35.173Z</time></trkpt><trkpt lat="46.1239322" lon="13.533089"><ele>252.0</ele><time>2026-05-02T07:20:36.172Z</time></trkpt><trkpt lat="46.1239784" lon="13.5329894"><ele>252.0</ele><time>2026-05-02T07:20:37.172Z</time></trkpt><trkpt lat="46.124021" lon="13.5329047"><ele>252.0</ele><time>2026-05-02T07:20:38.173Z</time></trkpt><trkpt lat="46.1240739" lon="13.5328433"><ele>252.0</ele><time>2026-05-02T07:20:39.172Z</time></trkpt><trkpt lat="46.1241359" lon="13.5327897"><ele>252.0</ele><time>2026-05-02T07:20:40.172Z</time></trkpt><trkpt lat="46.1242529" lon="13.5327471"><ele>252.0</ele><time>2026-05-02T07:20:42.173Z</time></trkpt><trkpt lat="46.1243644" lon="13.5327871"><ele>252.0</ele><time>2026-05-02T07:20:44.173Z</time></trkpt><trkpt lat="46.1244225" lon="13.5328353"><ele>255.6</ele><time>2026-05-02T07:20:45.173Z</time></trkpt><trkpt lat="46.1244876" lon="13.532918"><ele>259.2</ele><time>2026-05-02T07:20:46.172Z</time></trkpt><trkpt lat="46.124565" lon="13.53302"><ele>262.8</ele><time>2026-05-02T07:20:47.172Z</time></trkpt><trkpt lat="46.1246379" lon="13.5331038"><ele>266.4</ele><time>2026-05-02T07:20:48.173Z</time></trkpt><trkpt lat="46.1247144" lon="13.5331763"><ele>270.0</ele><time>2026-05-02T07:20:49.173Z</time></trkpt><trkpt lat="46.1247943" lon="13.5332614"><ele>270.0</ele><time>2026-05-02T07:20:50.172Z</time></trkpt><trkpt lat="46.1248748" lon="13.5333556"><ele>270.0</ele><time>2026-05-02T07:20:51.172Z</time></trkpt><trkpt lat="46.124947" lon="13.5334401"><ele>270.0</ele><time>2026-05-02T07:20:52.173Z</time></trkpt><trkpt lat="46.1250132" lon="13.5335224"><ele>270.0</ele><time>2026-05-02T07:20:53.172Z</time></trkpt><trkpt lat="46.1250884" lon="13.5336007"><ele>270.0</ele><time>2026-05-02T07:20:54.172Z</time></trkpt><trkpt lat="46.1251724" lon="13.5336832"><ele>273.6</ele><time>2026-05-02T07:20:55.172Z</time></trkpt><trkpt lat="46.1252579" lon="13.5337592"><ele>277.2</ele><time>2026-05-02T07:20:56.172Z</time></trkpt><trkpt lat="46.1253285" lon="13.5338441"><ele>280.8</ele><time>2026-05-02T07:20:57.172Z</time></trkpt><trkpt lat="46.1253887" lon="13.5339526"><ele>284.4</ele><time>2026-05-02T07:20:58.173Z</time></trkpt><trkpt lat="46.1254527" lon="13.5340669"><ele>288.0</ele><time>2026-05-02T07:20:59.173Z</time></trkpt><trkpt lat="46.1254902" lon="13.5341762"><ele>288.0</ele><time>2026-05-02T07:21:00.172Z</time></trkpt><trkpt lat="46.1255265" lon="13.5343048"><ele>288.0</ele><time>2026-05-02T07:21:01.172Z</time></trkpt><trkpt lat="46.1255622" lon="13.5344292"><ele>288.0</ele><time>2026-05-02T07:21:02.172Z</time></trkpt><trkpt lat="46.1255829" lon="13.5345818"><ele>288.0</ele><time>2026-05-02T07:21:03.172Z</time></trkpt><trkpt lat="46.1256029" lon="13.5347429"><ele>288.0</ele><time>2026-05-02T07:21:04.172Z</time></trkpt><trkpt lat="46.125619" lon="13.53488"><ele>288.8</ele><time>2026-05-02T07:21:05.172Z</time></trkpt><trkpt lat="46.1256305" lon="13.5350055"><ele>289.6</ele><time>2026-05-02T07:21:06.173Z</time></trkpt><trkpt lat="46.1256468" lon="13.5351064"><ele>290.4</ele><time>2026-05-02T07:21:07.172Z</time></trkpt><trkpt lat="46.1256606" lon="13.5351967"><ele>291.2</ele><time>2026-05-02T07:21:08.173Z</time></trkpt><trkpt lat="46.1256541" lon="13.535358"><ele>292.0</ele><time>2026-05-02T07:21:10.172Z</time></trkpt><trkpt lat="46.1256087" lon="13.5355109"><ele>292.0</ele><time>2026-05-02T07:21:12.172Z</time></trkpt><trkpt lat="46.125542" lon="13.5355723"><ele>292.0</ele><time>2026-05-02T07:21:13.173Z</time></trkpt><trkpt lat="46.1254826" lon="13.5356075"><ele>292.0</ele><time>2026-05-02T07:21:14.172Z</time></trkpt><trkpt lat="46.1254177" lon="13.5356389"><ele>292.0</ele><time>2026-05-02T07:21:15.173Z</time></trkpt><trkpt lat="46.1253273" lon="13.5356527"><ele>292.0</ele><time>2026-05-02T07:21:16.173Z</time></trkpt><trkpt lat="46.1252376" lon="13.5356594"><ele>292.0</ele><time>2026-05-02T07:21:17.172Z</time></trkpt><trkpt lat="46.1251517" lon="13.5356867"><ele>292.0</ele><time>2026-05-02T07:21:18.173Z</time></trkpt><trkpt lat="46.1250767" lon="13.5357079"><ele>292.0</ele><time>2026-05-02T07:21:19.172Z</time></trkpt><trkpt lat="46.1250059" lon="13.5357463"><ele>292.0</ele><time>2026-05-02T07:21:20.172Z</time></trkpt><trkpt lat="46.1249492" lon="13.5357892"><ele>292.0</ele><time>2026-05-02T07:21:21.172Z</time></trkpt><trkpt lat="46.1248531" lon="13.5358299"><ele>292.0</ele><time>2026-05-02T07:21:23.172Z</time></trkpt><trkpt lat="46.1248202" lon="13.5359269"><ele>292.0</ele><time>2026-05-02T07:21:25.172Z</time></trkpt><trkpt lat="46.1248244" lon="13.5361325"><ele>293.2</ele><time>2026-05-02T07:21:27.172Z</time></trkpt><trkpt lat="46.1248374" lon="13.5362612"><ele>294.4</ele><time>2026-05-02T07:21:28.172Z</time></trkpt><trkpt lat="46.124856" lon="13.5363964"><ele>295.6</ele><time>2026-05-02T07:21:29.172Z</time></trkpt><trkpt lat="46.1248912" lon="13.536539"><ele>296.8</ele><time>2026-05-02T07:21:30.173Z</time></trkpt><trkpt lat="46.1249183" lon="13.5366783"><ele>298.0</ele><time>2026-05-02T07:21:31.173Z</time></trkpt><trkpt lat="46.1249418" lon="13.5368103"><ele>298.0</ele><time>2026-05-02T07:21:32.172Z</time></trkpt><trkpt lat="46.1249577" lon="13.5369247"><ele>298.0</ele><time>2026-05-02T07:21:33.172Z</time></trkpt><trkpt lat="46.1249752" lon="13.5370483"><ele>298.0</ele><time>2026-05-02T07:21:34.173Z</time></trkpt><trkpt lat="46.1249988" lon="13.5371846"><ele>298.0</ele><time>2026-05-02T07:21:35.172Z</time></trkpt><trkpt lat="46.1250356" lon="13.5373262"><ele>298.0</ele><time>2026-05-02T07:21:36.172Z</time></trkpt><trkpt lat="46.1250755" lon="13.5374505"><ele>299.16666666666663</ele><time>2026-05-02T07:21:37.173Z</time></trkpt><trkpt lat="46.1251218" lon="13.5375686"><ele>300.3333333333333</ele><time>2026-05-02T07:21:38.173Z</time></trkpt><trkpt lat="46.1251651" lon="13.5376655"><ele>301.5</ele><time>2026-05-02T07:21:39.172Z</time></trkpt><trkpt lat="46.125223" lon="13.5377432"><ele>302.6666666666667</ele><time>2026-05-02T07:21:40.172Z</time></trkpt><trkpt lat="46.1253166" lon="13.5378455"><ele>303.83333333333337</ele><time>2026-05-02T07:21:42.172Z</time></trkpt><trkpt lat="46.1253671" lon="13.5379011"><ele>305.0</ele><time>2026-05-02T07:21:43.172Z</time></trkpt><trkpt lat="46.1254256" lon="13.5379777"><ele>306.5</ele><time>2026-05-02T07:21:44.173Z</time></trkpt><trkpt lat="46.1254871" lon="13.5380602"><ele>308.0</ele><time>2026-05-02T07:21:45.172Z</time></trkpt><trkpt lat="46.1255527" lon="13.5381481"><ele>309.5</ele><time>2026-05-02T07:21:46.172Z</time></trkpt><trkpt lat="46.1256178" lon="13.5382379"><ele>311.0</ele><time>2026-05-02T07:21:47.173Z</time></trkpt><trkpt lat="46.1256722" lon="13.5383254"><ele>312.5</ele><time>2026-05-02T07:21:48.172Z</time></trkpt><trkpt lat="46.1257214" lon="13.538417"><ele>314.0</ele><time>2026-05-02T07:21:49.172Z</time></trkpt><trkpt lat="46.1257818" lon="13.538503"><ele>315.0</ele><time>2026-05-02T07:21:50.172Z</time></trkpt><trkpt lat="46.1258503" lon="13.5385725"><ele>316.0</ele><time>2026-05-02T07:21:51.173Z</time></trkpt><trkpt lat="46.1259235" lon="13.5386478"><ele>317.0</ele><time>2026-05-02T07:21:52.172Z</time></trkpt><trkpt lat="46.1260102" lon="13.5387227"><ele>318.0</ele><time>2026-05-02T07:21:53.173Z</time></trkpt><trkpt lat="46.1260891" lon="13.5388026"><ele>319.0</ele><time>2026-05-02T07:21:54.172Z</time></trkpt><trkpt lat="46.1261662" lon="13.5388844"><ele>321.5</ele><time>2026-05-02T07:21:55.173Z</time></trkpt><trkpt lat="46.126233" lon="13.538982"><ele>324.0</ele><time>2026-05-02T07:21:56.172Z</time></trkpt><trkpt lat="46.1262881" lon="13.5390611"><ele>326.5</ele><time>2026-05-02T07:21:57.172Z</time></trkpt><trkpt lat="46.1263291" lon="13.5391636"><ele>329.0</ele><time>2026-05-02T07:21:58.172Z</time></trkpt><trkpt lat="46.1263594" lon="13.5392738"><ele>331.5</ele><time>2026-05-02T07:21:59.173Z</time></trkpt><trkpt lat="46.1263808" lon="13.5393625"><ele>334.0</ele><time>2026-05-02T07:22:00.173Z</time></trkpt><trkpt lat="46.1264248" lon="13.5394675"><ele>334.0</ele><time>2026-05-02T07:22:02.172Z</time></trkpt><trkpt lat="46.1265016" lon="13.5395082"><ele>334.0</ele><time>2026-05-02T07:22:04.172Z</time></trkpt><trkpt lat="46.1265782" lon="13.5395364"><ele>334.0</ele><time>2026-05-02T07:22:05.172Z</time></trkpt><trkpt lat="46.1266762" lon="13.5395846"><ele>334.0</ele><time>2026-05-02T07:22:06.172Z</time></trkpt><trkpt lat="46.1267848" lon="13.5396274"><ele>334.0</ele><time>2026-05-02T07:22:07.172Z</time></trkpt><trkpt lat="46.1268765" lon="13.5396702"><ele>335.16666666666663</ele><time>2026-05-02T07:22:08.173Z</time></trkpt><trkpt lat="46.1269503" lon="13.5397183"><ele>336.3333333333333</ele><time>2026-05-02T07:22:09.172Z</time></trkpt><trkpt lat="46.1270301" lon="13.5397766"><ele>337.5</ele><time>2026-05-02T07:22:10.172Z</time></trkpt><trkpt lat="46.1271115" lon="13.5398543"><ele>338.6666666666667</ele><time>2026-05-02T07:22:11.172Z</time></trkpt><trkpt lat="46.1271804" lon="13.5399187"><ele>339.83333333333337</ele><time>2026-05-02T07:22:12.172Z</time></trkpt><trkpt lat="46.1272472" lon="13.5399661"><ele>341.0</ele><time>2026-05-02T07:22:13.172Z</time></trkpt><trkpt lat="46.1273175" lon="13.5400087"><ele>341.33333333333337</ele><time>2026-05-02T07:22:14.172Z</time></trkpt><trkpt lat="46.1273941" lon="13.540052"><ele>341.6666666666667</ele><time>2026-05-02T07:22:15.172Z</time></trkpt><trkpt lat="46.1274607" lon="13.5400928"><ele>342.0</ele><time>2026-05-02T07:22:16.173Z</time></trkpt><trkpt lat="46.1275114" lon="13.5401554"><ele>342.3333333333333</ele><time>2026-05-02T07:22:17.172Z</time></trkpt><trkpt lat="46.1276033" lon="13.5402902"><ele>342.66666666666663</ele><time>2026-05-02T07:22:19.173Z</time></trkpt><trkpt lat="46.127642" lon="13.5403702"><ele>343.0</ele><time>2026-05-02T07:22:20.173Z</time></trkpt><trkpt lat="46.1276925" lon="13.5404892"><ele>343.0</ele><time>2026-05-02T07:22:22.172Z</time></trkpt><trkpt lat="46.1276824" lon="13.5406145"><ele>343.0</ele><time>2026-05-02T07:22:24.172Z</time></trkpt><trkpt lat="46.1276533" lon="13.5407879"><ele>343.0</ele><time>2026-05-02T07:22:26.172Z</time></trkpt><trkpt lat="46.1276269" lon="13.5408919"><ele>343.0</ele><time>2026-05-02T07:22:27.172Z</time></trkpt><trkpt lat="46.1275903" lon="13.5409857"><ele>343.0</ele><time>2026-05-02T07:22:28.172Z</time></trkpt><trkpt lat="46.1275317" lon="13.5411428"><ele>344.59999999999997</ele><time>2026-05-02T07:22:30.172Z</time></trkpt><trkpt lat="46.1274816" lon="13.5413021"><ele>346.2</ele><time>2026-05-02T07:22:32.173Z</time></trkpt><trkpt lat="46.1274457" lon="13.5414285"><ele>347.8</ele><time>2026-05-02T07:22:34.173Z</time></trkpt><trkpt lat="46.1274495" lon="13.5415288"><ele>349.4</ele><time>2026-05-02T07:22:36.172Z</time></trkpt><trkpt lat="46.1275939" lon="13.541574"><ele>351.0</ele><time>2026-05-02T07:28:10.172Z</time></trkpt><trkpt lat="46.1276602" lon="13.5415581"><ele>351.0</ele><time>2026-05-02T07:28:11.172Z</time></trkpt><trkpt lat="46.1277718" lon="13.5415583"><ele>351.0</ele><time>2026-05-02T07:28:13.171Z</time></trkpt><trkpt lat="46.1278388" lon="13.5415948"><ele>351.0</ele><time>2026-05-02T07:28:14.172Z</time></trkpt><trkpt lat="46.1279206" lon="13.5416423"><ele>351.0</ele><time>2026-05-02T07:28:15.171Z</time></trkpt><trkpt lat="46.1280164" lon="13.5416917"><ele>351.0</ele><time>2026-05-02T07:28:16.171Z</time></trkpt><trkpt lat="46.1281151" lon="13.5417506"><ele>351.0</ele><time>2026-05-02T07:28:17.171Z</time></trkpt><trkpt lat="46.1282046" lon="13.5418028"><ele>351.0</ele><time>2026-05-02T07:28:18.172Z</time></trkpt><trkpt lat="46.1282742" lon="13.5418536"><ele>351.0</ele><time>2026-05-02T07:28:19.171Z</time></trkpt><trkpt lat="46.1283416" lon="13.5418785"><ele>351.0</ele><time>2026-05-02T07:28:20.171Z</time></trkpt><trkpt lat="46.1284123" lon="13.5418891"><ele>351.0</ele><time>2026-05-02T07:28:21.171Z</time></trkpt><trkpt lat="46.1284895" lon="13.5418941"><ele>351.0</ele><time>2026-05-02T07:28:22.171Z</time></trkpt><trkpt lat="46.128579" lon="13.5419013"><ele>353.0</ele><time>2026-05-02T07:28:23.171Z</time></trkpt><trkpt lat="46.1286488" lon="13.5419118"><ele>355.0</ele><time>2026-05-02T07:28:24.171Z</time></trkpt><trkpt lat="46.1287474" lon="13.5419867"><ele>357.0</ele><time>2026-05-02T07:28:26.171Z</time></trkpt><trkpt lat="46.1288072" lon="13.5420529"><ele>359.0</ele><time>2026-05-02T07:28:27.171Z</time></trkpt><trkpt lat="46.1288815" lon="13.5421288"><ele>361.0</ele><time>2026-05-02T07:28:28.171Z</time></trkpt><trkpt lat="46.1289591" lon="13.5421939"><ele>363.0</ele><time>2026-05-02T07:28:29.17Z</time></trkpt><trkpt lat="46.1290305" lon="13.5422355"><ele>362.6666666666667</ele><time>2026-05-02T07:28:30.17Z</time></trkpt><trkpt lat="46.1291025" lon="13.5422677"><ele>362.3333333333333</ele><time>2026-05-02T07:28:31.17Z</time></trkpt><trkpt lat="46.1291918" lon="13.542286"><ele>362.0</ele><time>2026-05-02T07:28:32.17Z</time></trkpt><trkpt lat="46.1292796" lon="13.5422867"><ele>361.66666666666663</ele><time>2026-05-02T07:28:33.17Z</time></trkpt><trkpt lat="46.1293596" lon="13.5422839"><ele>361.3333333333333</ele><time>2026-05-02T07:28:34.171Z</time></trkpt><trkpt lat="46.1294294" lon="13.5422952"><ele>361.0</ele><time>2026-05-02T07:28:35.171Z</time></trkpt><trkpt lat="46.1294984" lon="13.5423224"><ele>361.0</ele><time>2026-05-02T07:28:36.17Z</time></trkpt><trkpt lat="46.1295604" lon="13.5423622"><ele>361.0</ele><time>2026-05-02T07:28:37.17Z</time></trkpt><trkpt lat="46.1296114" lon="13.5424222"><ele>361.0</ele><time>2026-05-02T07:28:38.17Z</time></trkpt><trkpt lat="46.1296476" lon="13.5425028"><ele>361.0</ele><time>2026-05-02T07:28:39.17Z</time></trkpt><trkpt lat="46.1296786" lon="13.5425874"><ele>361.0</ele><time>2026-05-02T07:28:40.17Z</time></trkpt><trkpt lat="46.1296756" lon="13.5427557"><ele>361.0</ele><time>2026-05-02T07:28:42.17Z</time></trkpt><trkpt lat="46.1297111" lon="13.5428884"><ele>361.66666666666663</ele><time>2026-05-02T07:28:44.171Z</time></trkpt><trkpt lat="46.129782" lon="13.54297"><ele>362.3333333333333</ele><time>2026-05-02T07:28:46.171Z</time></trkpt><trkpt lat="46.1298458" lon="13.5429751"><ele>363.0</ele><time>2026-05-02T07:28:47.17Z</time></trkpt><trkpt lat="46.1299293" lon="13.5429949"><ele>363.6666666666667</ele><time>2026-05-02T07:28:48.17Z</time></trkpt><trkpt lat="46.1300251" lon="13.5430185"><ele>364.33333333333337</ele><time>2026-05-02T07:28:49.17Z</time></trkpt><trkpt lat="46.1301256" lon="13.543059"><ele>365.0</ele><time>2026-05-02T07:28:50.171Z</time></trkpt><trkpt lat="46.1302045" lon="13.5430968"><ele>365.0</ele><time>2026-05-02T07:28:51.17Z</time></trkpt><trkpt lat="46.1302779" lon="13.5431417"><ele>365.0</ele><time>2026-05-02T07:28:52.17Z</time></trkpt><trkpt lat="46.1303403" lon="13.5432198"><ele>365.0</ele><time>2026-05-02T07:28:53.171Z</time></trkpt><trkpt lat="46.1304092" lon="13.543298"><ele>365.0</ele><time>2026-05-02T07:28:54.17Z</time></trkpt><trkpt lat="46.1304774" lon="13.5433883"><ele>365.0</ele><time>2026-05-02T07:28:55.171Z</time></trkpt><trkpt lat="46.1305485" lon="13.5434745"><ele>365.0</ele><time>2026-05-02T07:28:56.17Z</time></trkpt><trkpt lat="46.1306158" lon="13.5435682"><ele>365.0</ele><time>2026-05-02T07:28:57.171Z</time></trkpt><trkpt lat="46.1306938" lon="13.5436431"><ele>365.0</ele><time>2026-05-02T07:28:58.171Z</time></trkpt><trkpt lat="46.1307612" lon="13.5437339"><ele>365.0</ele><time>2026-05-02T07:28:59.171Z</time></trkpt><trkpt lat="46.1308282" lon="13.5438122"><ele>365.0</ele><time>2026-05-02T07:29:00.171Z</time></trkpt><trkpt lat="46.1309015" lon="13.5438781"><ele>365.0</ele><time>2026-05-02T07:29:01.17Z</time></trkpt><trkpt lat="46.1309768" lon="13.5439391"><ele>365.0</ele><time>2026-05-02T07:29:02.171Z</time></trkpt><trkpt lat="46.1310408" lon="13.5439852"><ele>367.0</ele><time>2026-05-02T07:29:03.171Z</time></trkpt><trkpt lat="46.1311054" lon="13.5440465"><ele>369.0</ele><time>2026-05-02T07:29:04.17Z</time></trkpt><trkpt lat="46.1311662" lon="13.5441199"><ele>371.0</ele><time>2026-05-02T07:29:05.17Z</time></trkpt><trkpt lat="46.1312348" lon="13.5441763"><ele>373.0</ele><time>2026-05-02T07:29:06.17Z</time></trkpt><trkpt lat="46.1313027" lon="13.5442287"><ele>375.0</ele><time>2026-05-02T07:29:07.17Z</time></trkpt><trkpt lat="46.1313741" lon="13.5442825"><ele>377.0</ele><time>2026-05-02T07:29:08.171Z</time></trkpt><trkpt lat="46.1314551" lon="13.5443532"><ele>377.0</ele><time>2026-05-02T07:29:09.17Z</time></trkpt><trkpt lat="46.1315314" lon="13.5444265"><ele>377.0</ele><time>2026-05-02T07:29:10.171Z</time></trkpt><trkpt lat="46.1315985" lon="13.544509"><ele>377.0</ele><time>2026-05-02T07:29:11.17Z</time></trkpt><trkpt lat="46.1316582" lon="13.5445755"><ele>377.0</ele><time>2026-05-02T07:29:12.17Z</time></trkpt><trkpt lat="46.1317617" lon="13.5446376"><ele>377.0</ele><time>2026-05-02T07:29:14.17Z</time></trkpt><trkpt lat="46.1318284" lon="13.5446548"><ele>377.0</ele><time>2026-05-02T07:29:15.171Z</time></trkpt><trkpt lat="46.1318912" lon="13.5446713"><ele>378.0</ele><time>2026-05-02T07:29:16.171Z</time></trkpt><trkpt lat="46.1319598" lon="13.5447041"><ele>379.0</ele><time>2026-05-02T07:29:17.17Z</time></trkpt><trkpt lat="46.1320334" lon="13.5447459"><ele>380.0</ele><time>2026-05-02T07:29:18.17Z</time></trkpt><trkpt lat="46.1320932" lon="13.5447981"><ele>381.0</ele><time>2026-05-02T07:29:19.171Z</time></trkpt><trkpt lat="46.1321674" lon="13.5448643"><ele>382.0</ele><time>2026-05-02T07:29:20.17Z</time></trkpt><trkpt lat="46.1322511" lon="13.5449257"><ele>383.0</ele><time>2026-05-02T07:29:21.17Z</time></trkpt><trkpt lat="46.132319" lon="13.5449763"><ele>383.0</ele><time>2026-05-02T07:29:22.17Z</time></trkpt><trkpt lat="46.132378" lon="13.5450135"><ele>383.0</ele><time>2026-05-02T07:29:23.17Z</time></trkpt><trkpt lat="46.1324442" lon="13.5450477"><ele>383.0</ele><time>2026-05-02T07:29:24.171Z</time></trkpt><trkpt lat="46.1325143" lon="13.5450565"><ele>383.0</ele><time>2026-05-02T07:29:25.17Z</time></trkpt><trkpt lat="46.1325784" lon="13.5450772"><ele>383.0</ele><time>2026-05-02T07:29:26.17Z</time></trkpt><trkpt lat="46.1326876" lon="13.5451451"><ele>383.0</ele><time>2026-05-02T07:29:28.171Z</time></trkpt><trkpt lat="46.132777" lon="13.5452076"><ele>382.5</ele><time>2026-05-02T07:29:29.171Z</time></trkpt><trkpt lat="46.1328568" lon="13.5452401"><ele>382.0</ele><time>2026-05-02T07:29:30.171Z</time></trkpt><trkpt lat="46.1329365" lon="13.5452537"><ele>381.5</ele><time>2026-05-02T07:29:31.17Z</time></trkpt><trkpt lat="46.1330129" lon="13.5452683"><ele>381.0</ele><time>2026-05-02T07:29:32.17Z</time></trkpt><trkpt lat="46.1330773" lon="13.5452864"><ele>380.5</ele><time>2026-05-02T07:29:33.171Z</time></trkpt><trkpt lat="46.133143" lon="13.5453825"><ele>380.0</ele><time>2026-05-02T07:29:35.17Z</time></trkpt><trkpt lat="46.1332248" lon="13.545482"><ele>380.0</ele><time>2026-05-02T07:29:37.171Z</time></trkpt><trkpt lat="46.1332931" lon="13.5454934"><ele>380.0</ele><time>2026-05-02T07:29:39.17Z</time></trkpt><trkpt lat="46.1334101" lon="13.5453857"><ele>380.0</ele><time>2026-05-02T07:29:41.17Z</time></trkpt><trkpt lat="46.1335081" lon="13.5453077"><ele>380.0</ele><time>2026-05-02T07:29:42.171Z</time></trkpt><trkpt lat="46.1335818" lon="13.5452465"><ele>380.0</ele><time>2026-05-02T07:29:43.171Z</time></trkpt><trkpt lat="46.1336352" lon="13.545196"><ele>376.6</ele><time>2026-05-02T07:29:44.17Z</time></trkpt><trkpt lat="46.1337565" lon="13.5451205"><ele>373.2</ele><time>2026-05-02T07:29:46.17Z</time></trkpt><trkpt lat="46.1338288" lon="13.5451075"><ele>369.79999999999995</ele><time>2026-05-02T07:29:47.17Z</time></trkpt><trkpt lat="46.1339011" lon="13.5451018"><ele>366.4</ele><time>2026-05-02T07:29:48.171Z</time></trkpt><trkpt lat="46.1339974" lon="13.5451415"><ele>363.0</ele><time>2026-05-02T07:29:50.171Z</time></trkpt><trkpt lat="46.1341079" lon="13.5452497"><ele>363.0</ele><time>2026-05-02T07:29:52.171Z</time></trkpt><trkpt lat="46.1341697" lon="13.5453072"><ele>363.0</ele><time>2026-05-02T07:29:53.171Z</time></trkpt><trkpt lat="46.1342341" lon="13.5453473"><ele>363.0</ele><time>2026-05-02T07:29:54.17Z</time></trkpt><trkpt lat="46.1342981" lon="13.545367"><ele>363.0</ele><time>2026-05-02T07:29:55.17Z</time></trkpt><trkpt lat="46.1343987" lon="13.5453859"><ele>363.0</ele><time>2026-05-02T07:29:57.17Z</time></trkpt><trkpt lat="46.1344825" lon="13.5454813"><ele>363.0</ele><time>2026-05-02T07:29:59.17Z</time></trkpt><trkpt lat="46.1345251" lon="13.5455705"><ele>367.0</ele><time>2026-05-02T07:30:00.17Z</time></trkpt><trkpt lat="46.1345809" lon="13.5456919"><ele>371.0</ele><time>2026-05-02T07:30:01.171Z</time></trkpt><trkpt lat="46.1346424" lon="13.5458216"><ele>375.0</ele><time>2026-05-02T07:30:02.17Z</time></trkpt><trkpt lat="46.1346954" lon="13.5459329"><ele>379.0</ele><time>2026-05-02T07:30:03.171Z</time></trkpt><trkpt lat="46.1347364" lon="13.5460598"><ele>383.0</ele><time>2026-05-02T07:30:04.171Z</time></trkpt><trkpt lat="46.1347855" lon="13.5461898"><ele>382.6666666666667</ele><time>2026-05-02T07:30:05.17Z</time></trkpt><trkpt lat="46.1348281" lon="13.5463134"><ele>382.33333333333337</ele><time>2026-05-02T07:30:06.171Z</time></trkpt><trkpt lat="46.1348678" lon="13.5464063"><ele>382.0</ele><time>2026-05-02T07:30:07.171Z</time></trkpt><trkpt lat="46.1349127" lon="13.5464971"><ele>381.6666666666667</ele><time>2026-05-02T07:30:08.17Z</time></trkpt><trkpt lat="46.134956" lon="13.546581"><ele>381.3333333333333</ele><time>2026-05-02T07:30:09.17Z</time></trkpt><trkpt lat="46.1350023" lon="13.5466602"><ele>381.0</ele><time>2026-05-02T07:30:10.17Z</time></trkpt><trkpt lat="46.1350638" lon="13.5467386"><ele>381.0</ele><time>2026-05-02T07:30:11.17Z</time></trkpt><trkpt lat="46.1351264" lon="13.5468166"><ele>381.0</ele><time>2026-05-02T07:30:12.17Z</time></trkpt><trkpt lat="46.1352005" lon="13.5468981"><ele>381.0</ele><time>2026-05-02T07:30:13.171Z</time></trkpt><trkpt lat="46.1352729" lon="13.5469784"><ele>381.0</ele><time>2026-05-02T07:30:14.17Z</time></trkpt><trkpt lat="46.1353367" lon="13.5470586"><ele>381.0</ele><time>2026-05-02T07:30:15.17Z</time></trkpt><trkpt lat="46.1354089" lon="13.5471624"><ele>380.8</ele><time>2026-05-02T07:30:16.171Z</time></trkpt><trkpt lat="46.1354856" lon="13.5472411"><ele>380.6</ele><time>2026-05-02T07:30:17.17Z</time></trkpt><trkpt lat="46.1355678" lon="13.5473274"><ele>380.4</ele><time>2026-05-02T07:30:18.17Z</time></trkpt><trkpt lat="46.1356538" lon="13.5474083"><ele>380.2</ele><time>2026-05-02T07:30:19.171Z</time></trkpt><trkpt lat="46.1357344" lon="13.5474822"><ele>380.0</ele><time>2026-05-02T07:30:20.17Z</time></trkpt><trkpt lat="46.1358156" lon="13.5475358"><ele>380.0</ele><time>2026-05-02T07:30:21.17Z</time></trkpt><trkpt lat="46.1358908" lon="13.5475831"><ele>380.0</ele><time>2026-05-02T07:30:22.17Z</time></trkpt><trkpt lat="46.1359597" lon="13.5476305"><ele>380.0</ele><time>2026-05-02T07:30:23.17Z</time></trkpt><trkpt lat="46.1360188" lon="13.5476829"><ele>380.0</ele><time>2026-05-02T07:30:24.17Z</time></trkpt><trkpt lat="46.1360975" lon="13.5478089"><ele>380.0</ele><time>2026-05-02T07:30:26.17Z</time></trkpt><trkpt lat="46.1361326" lon="13.5478941"><ele>380.0</ele><time>2026-05-02T07:30:27.17Z</time></trkpt><trkpt lat="46.1361579" lon="13.5480007"><ele>383.6666666666667</ele><time>2026-05-02T07:30:28.17Z</time></trkpt><trkpt lat="46.1361742" lon="13.548128"><ele>387.33333333333337</ele><time>2026-05-02T07:30:29.171Z</time></trkpt><trkpt lat="46.136198" lon="13.5482426"><ele>391.0</ele><time>2026-05-02T07:30:30.171Z</time></trkpt><trkpt lat="46.1362327" lon="13.5483272"><ele>394.6666666666667</ele><time>2026-05-02T07:30:31.171Z</time></trkpt><trkpt lat="46.1362763" lon="13.5484023"><ele>398.3333333333333</ele><time>2026-05-02T07:30:32.17Z</time></trkpt><trkpt lat="46.1363918" lon="13.54849"><ele>402.0</ele><time>2026-05-02T07:30:34.17Z</time></trkpt><trkpt lat="46.1364714" lon="13.5485294"><ele>402.0</ele><time>2026-05-02T07:30:35.171Z</time></trkpt><trkpt lat="46.1365275" lon="13.5485717"><ele>402.0</ele><time>2026-05-02T07:30:36.171Z</time></trkpt><trkpt lat="46.1365757" lon="13.5486344"><ele>402.0</ele><time>2026-05-02T07:30:37.17Z</time></trkpt><trkpt lat="46.1366343" lon="13.5487236"><ele>402.0</ele><time>2026-05-02T07:30:38.171Z</time></trkpt><trkpt lat="46.1366874" lon="13.5488263"><ele>402.0</ele><time>2026-05-02T07:30:39.17Z</time></trkpt><trkpt lat="46.1367592" lon="13.5489627"><ele>402.0</ele><time>2026-05-02T07:30:40.17Z</time></trkpt><trkpt lat="46.1368249" lon="13.5490861"><ele>403.20000000000005</ele><time>2026-05-02T07:30:41.17Z</time></trkpt><trkpt lat="46.1368937" lon="13.5491918"><ele>404.4</ele><time>2026-05-02T07:30:42.171Z</time></trkpt><trkpt lat="46.1369631" lon="13.5493009"><ele>405.6</ele><time>2026-05-02T07:30:43.17Z</time></trkpt><trkpt lat="46.137035" lon="13.5493963"><ele>406.79999999999995</ele><time>2026-05-02T07:30:44.171Z</time></trkpt><trkpt lat="46.1371011" lon="13.5494921"><ele>408.0</ele><time>2026-05-02T07:30:45.171Z</time></trkpt><trkpt lat="46.1371546" lon="13.5495877"><ele>408.0</ele><time>2026-05-02T07:30:46.171Z</time></trkpt><trkpt lat="46.1372" lon="13.5496783"><ele>408.0</ele><time>2026-05-02T07:30:47.171Z</time></trkpt><trkpt lat="46.1372474" lon="13.5498215"><ele>408.0</ele><time>2026-05-02T07:30:49.17Z</time></trkpt><trkpt lat="46.1372791" lon="13.550023"><ele>408.0</ele><time>2026-05-02T07:30:51.17Z</time></trkpt><trkpt lat="46.1372964" lon="13.5501529"><ele>408.0</ele><time>2026-05-02T07:30:52.171Z</time></trkpt><trkpt lat="46.1373207" lon="13.5502674"><ele>410.2</ele><time>2026-05-02T07:30:53.171Z</time></trkpt><trkpt lat="46.1373487" lon="13.5503769"><ele>412.4</ele><time>2026-05-02T07:30:54.171Z</time></trkpt><trkpt lat="46.1373728" lon="13.5505212"><ele>414.59999999999997</ele><time>2026-05-02T07:30:56.17Z</time></trkpt><trkpt lat="46.1373477" lon="13.5507009"><ele>416.79999999999995</ele><time>2026-05-02T07:30:58.171Z</time></trkpt><trkpt lat="46.1373468" lon="13.5508415"><ele>419.0</ele><time>2026-05-02T07:31:00.17Z</time></trkpt><trkpt lat="46.1373674" lon="13.5509349"><ele>419.8333333333333</ele><time>2026-05-02T07:31:01.171Z</time></trkpt><trkpt lat="46.1373957" lon="13.5510565"><ele>420.66666666666663</ele><time>2026-05-02T07:31:02.17Z</time></trkpt><trkpt lat="46.1374009" lon="13.5511648"><ele>421.5</ele><time>2026-05-02T07:31:03.17Z</time></trkpt><trkpt lat="46.1373971" lon="13.5512994"><ele>422.33333333333337</ele><time>2026-05-02T07:31:04.17Z</time></trkpt><trkpt lat="46.1373857" lon="13.551429"><ele>423.1666666666667</ele><time>2026-05-02T07:31:05.171Z</time></trkpt><trkpt lat="46.1373619" lon="13.5515355"><ele>424.0</ele><time>2026-05-02T07:31:06.17Z</time></trkpt><trkpt lat="46.1373267" lon="13.5516595"><ele>424.00000000000006</ele><time>2026-05-02T07:31:07.17Z</time></trkpt><trkpt lat="46.1372869" lon="13.5517776"><ele>424.0</ele><time>2026-05-02T07:31:08.17Z</time></trkpt><trkpt lat="46.1372438" lon="13.5518946"><ele>424.0</ele><time>2026-05-02T07:31:09.17Z</time></trkpt><trkpt lat="46.1372078" lon="13.551983"><ele>424.0</ele><time>2026-05-02T07:31:10.171Z</time></trkpt><trkpt lat="46.1371783" lon="13.5520748"><ele>424.00000000000006</ele><time>2026-05-02T07:31:11.17Z</time></trkpt><trkpt lat="46.1371613" lon="13.5521683"><ele>424.0</ele><time>2026-05-02T07:31:12.171Z</time></trkpt><trkpt lat="46.1371571" lon="13.5522786"><ele>424.6</ele><time>2026-05-02T07:31:13.17Z</time></trkpt><trkpt lat="46.1371642" lon="13.5523955"><ele>425.2</ele><time>2026-05-02T07:31:14.17Z</time></trkpt><trkpt lat="46.1371803" lon="13.552524"><ele>425.80000000000007</ele><time>2026-05-02T07:31:15.17Z</time></trkpt><trkpt lat="46.1372037" lon="13.5526617"><ele>426.40000000000003</ele><time>2026-05-02T07:31:16.17Z</time></trkpt><trkpt lat="46.1372334" lon="13.5527932"><ele>427.0</ele><time>2026-05-02T07:31:17.17Z</time></trkpt><trkpt lat="46.1372537" lon="13.5529158"><ele>429.00000000000006</ele><time>2026-05-02T07:31:18.17Z</time></trkpt><trkpt lat="46.1372678" lon="13.5530204"><ele>431.0</ele><time>2026-05-02T07:31:19.17Z</time></trkpt><trkpt lat="46.1372803" lon="13.5531222"><ele>433.0</ele><time>2026-05-02T07:31:20.17Z</time></trkpt><trkpt lat="46.1373032" lon="13.5532143"><ele>435.0</ele><time>2026-05-02T07:31:21.17Z</time></trkpt><trkpt lat="46.1373337" lon="13.5533188"><ele>437.00000000000006</ele><time>2026-05-02T07:31:22.17Z</time></trkpt><trkpt lat="46.1374158" lon="13.5533686"><ele>439.0</ele><time>2026-05-02T07:31:24.171Z</time></trkpt><trkpt lat="46.1374997" lon="13.5532567"><ele>433.2</ele><time>2026-05-02T07:31:26.171Z</time></trkpt><trkpt lat="46.1375733" lon="13.5532296"><ele>427.4</ele><time>2026-05-02T07:31:27.17Z</time></trkpt><trkpt lat="46.1376333" lon="13.5531911"><ele>421.6</ele><time>2026-05-02T07:31:28.17Z</time></trkpt><trkpt lat="46.1377444" lon="13.5531987"><ele>415.8</ele><time>2026-05-02T07:31:30.171Z</time></trkpt><trkpt lat="46.1378419" lon="13.5532524"><ele>410.0</ele><time>2026-05-02T07:31:31.17Z</time></trkpt><trkpt lat="46.1379414" lon="13.5532902"><ele>409.99999999999994</ele><time>2026-05-02T07:31:32.17Z</time></trkpt><trkpt lat="46.1380152" lon="13.553324"><ele>410.0</ele><time>2026-05-02T07:31:33.17Z</time></trkpt><trkpt lat="46.1380939" lon="13.5533353"><ele>410.0</ele><time>2026-05-02T07:31:34.171Z</time></trkpt><trkpt lat="46.1381946" lon="13.553327"><ele>410.0</ele><time>2026-05-02T07:31:35.17Z</time></trkpt><trkpt lat="46.1382727" lon="13.5533394"><ele>409.99999999999994</ele><time>2026-05-02T07:31:36.171Z</time></trkpt><trkpt lat="46.1383374" lon="13.5533509"><ele>410.0</ele><time>2026-05-02T07:31:37.17Z</time></trkpt><trkpt lat="46.1383964" lon="13.5533868"><ele>407.0</ele><time>2026-05-02T07:31:38.17Z</time></trkpt><trkpt lat="46.1384612" lon="13.5534163"><ele>404.0</ele><time>2026-05-02T07:31:39.17Z</time></trkpt><trkpt lat="46.1385253" lon="13.5534463"><ele>401.0</ele><time>2026-05-02T07:31:40.17Z</time></trkpt><trkpt lat="46.1386195" lon="13.5534834"><ele>398.0</ele><time>2026-05-02T07:31:41.17Z</time></trkpt><trkpt lat="46.1387639" lon="13.5534806"><ele>395.0</ele><time>2026-05-02T07:31:43.17Z</time></trkpt><trkpt lat="46.1388509" lon="13.5534827"><ele>394.99999999999994</ele><time>2026-05-02T07:31:44.171Z</time></trkpt><trkpt lat="46.1389368" lon="13.5534913"><ele>395.0</ele><time>2026-05-02T07:31:45.171Z</time></trkpt><trkpt lat="46.1390098" lon="13.5534798"><ele>395.0</ele><time>2026-05-02T07:31:46.171Z</time></trkpt><trkpt lat="46.139072" lon="13.5534419"><ele>395.0</ele><time>2026-05-02T07:31:47.17Z</time></trkpt><trkpt lat="46.1391923" lon="13.5533391"><ele>394.99999999999994</ele><time>2026-05-02T07:31:49.171Z</time></trkpt><trkpt lat="46.1392558" lon="13.5532949"><ele>395.0</ele><time>2026-05-02T07:31:50.17Z</time></trkpt><trkpt lat="46.1393171" lon="13.5532638"><ele>394.3333333333333</ele><time>2026-05-02T07:31:51.17Z</time></trkpt><trkpt lat="46.1393935" lon="13.5532387"><ele>393.66666666666663</ele><time>2026-05-02T07:31:52.17Z</time></trkpt><trkpt lat="46.1394717" lon="13.5532084"><ele>393.0</ele><time>2026-05-02T07:31:53.17Z</time></trkpt><trkpt lat="46.139539" lon="13.5531918"><ele>392.33333333333337</ele><time>2026-05-02T07:31:54.17Z</time></trkpt><trkpt lat="46.1396426" lon="13.5531991"><ele>391.6666666666667</ele><time>2026-05-02T07:31:56.17Z</time></trkpt><trkpt lat="46.1397399" lon="13.5532941"><ele>391.0</ele><time>2026-05-02T07:31:58.17Z</time></trkpt><trkpt lat="46.1398149" lon="13.5534127"><ele>391.00000000000006</ele><time>2026-05-02T07:32:00.17Z</time></trkpt><trkpt lat="46.1398471" lon="13.5534912"><ele>391.0</ele><time>2026-05-02T07:32:01.17Z</time></trkpt><trkpt lat="46.1398624" lon="13.5535931"><ele>391.0</ele><time>2026-05-02T07:32:02.17Z</time></trkpt><trkpt lat="46.1398779" lon="13.5537118"><ele>391.0</ele><time>2026-05-02T07:32:03.17Z</time></trkpt><trkpt lat="46.1398958" lon="13.5538575"><ele>391.00000000000006</ele><time>2026-05-02T07:32:04.171Z</time></trkpt><trkpt lat="46.1399107" lon="13.5539745"><ele>391.0</ele><time>2026-05-02T07:32:05.171Z</time></trkpt><trkpt lat="46.1399324" lon="13.5540702"><ele>390.50000000000006</ele><time>2026-05-02T07:32:06.171Z</time></trkpt><trkpt lat="46.1399568" lon="13.5541691"><ele>390.0</ele><time>2026-05-02T07:32:07.171Z</time></trkpt><trkpt lat="46.1399871" lon="13.5542909"><ele>389.5</ele><time>2026-05-02T07:32:09.17Z</time></trkpt><trkpt lat="46.1399899" lon="13.5544079"><ele>389.0</ele><time>2026-05-02T07:32:10.171Z</time></trkpt><trkpt lat="46.1399778" lon="13.5545252"><ele>388.50000000000006</ele><time>2026-05-02T07:32:11.171Z</time></trkpt><trkpt lat="46.1399528" lon="13.5546501"><ele>388.0</ele><time>2026-05-02T07:32:12.171Z</time></trkpt><trkpt lat="46.1399281" lon="13.5548085"><ele>391.1666666666667</ele><time>2026-05-02T07:32:13.17Z</time></trkpt><trkpt lat="46.1398575" lon="13.554981"><ele>394.33333333333337</ele><time>2026-05-02T07:32:14.171Z</time></trkpt><trkpt lat="46.1398374" lon="13.555081"><ele>397.5</ele><time>2026-05-02T07:32:15.171Z</time></trkpt><trkpt lat="46.1397876" lon="13.5551992"><ele>400.66666666666663</ele><time>2026-05-02T07:32:16.17Z</time></trkpt><trkpt lat="46.1397515" lon="13.5552834"><ele>403.8333333333333</ele><time>2026-05-02T07:32:17.17Z</time></trkpt><trkpt lat="46.1397165" lon="13.5553607"><ele>407.0</ele><time>2026-05-02T07:32:18.17Z</time></trkpt><trkpt lat="46.1396589" lon="13.5555063"><ele>406.99999999999994</ele><time>2026-05-02T07:32:20.171Z</time></trkpt><trkpt lat="46.1396169" lon="13.555592"><ele>407.0</ele><time>2026-05-02T07:32:21.17Z</time></trkpt><trkpt lat="46.1395864" lon="13.5556767"><ele>407.0</ele><time>2026-05-02T07:32:22.17Z</time></trkpt><trkpt lat="46.1395588" lon="13.5557647"><ele>407.0</ele><time>2026-05-02T07:32:23.17Z</time></trkpt><trkpt lat="46.1395344" lon="13.5558753"><ele>406.99999999999994</ele><time>2026-05-02T07:32:24.17Z</time></trkpt><trkpt lat="46.1395058" lon="13.5559954"><ele>407.0</ele><time>2026-05-02T07:32:25.171Z</time></trkpt><trkpt lat="46.1394873" lon="13.5561008"><ele>401.75</ele><time>2026-05-02T07:32:26.171Z</time></trkpt><trkpt lat="46.1394474" lon="13.5562735"><ele>396.5</ele><time>2026-05-02T07:32:28.17Z</time></trkpt><trkpt lat="46.1393842" lon="13.556409"><ele>391.25</ele><time>2026-05-02T07:32:30.17Z</time></trkpt><trkpt lat="46.1392936" lon="13.5565112"><ele>386.0</ele><time>2026-05-02T07:32:32.17Z</time></trkpt><trkpt lat="46.1392093" lon="13.5566011"><ele>385.99999999999994</ele><time>2026-05-02T07:32:34.17Z</time></trkpt><trkpt lat="46.1391651" lon="13.5567469"><ele>386.0</ele><time>2026-05-02T07:32:36.17Z</time></trkpt><trkpt lat="46.139146" lon="13.5568437"><ele>386.0</ele><time>2026-05-02T07:32:37.17Z</time></trkpt><trkpt lat="46.1391291" lon="13.5569339"><ele>386.0</ele><time>2026-05-02T07:32:38.17Z</time></trkpt><trkpt lat="46.139067" lon="13.5570677"><ele>385.99999999999994</ele><time>2026-05-02T07:32:40.17Z</time></trkpt><trkpt lat="46.1390374" lon="13.5571521"><ele>386.0</ele><time>2026-05-02T07:32:41.17Z</time></trkpt><trkpt lat="46.1390181" lon="13.5572977"><ele>386.99999999999994</ele><time>2026-05-02T07:32:43.17Z</time></trkpt><trkpt lat="46.1391227" lon="13.5574452"><ele>388.0</ele><time>2026-05-02T07:32:45.171Z</time></trkpt><trkpt lat="46.1391895" lon="13.5575236"><ele>389.0</ele><time>2026-05-02T07:32:46.171Z</time></trkpt><trkpt lat="46.1392475" lon="13.557569"><ele>390.0</ele><time>2026-05-02T07:32:47.17Z</time></trkpt><trkpt lat="46.139308" lon="13.5576082"><ele>390.99999999999994</ele><time>2026-05-02T07:32:48.171Z</time></trkpt><trkpt lat="46.1393707" lon="13.5576296"><ele>392.0</ele><time>2026-05-02T07:32:49.17Z</time></trkpt><trkpt lat="46.1394526" lon="13.5576337"><ele>392.0</ele><time>2026-05-02T07:32:50.17Z</time></trkpt><trkpt lat="46.1395409" lon="13.5576329"><ele>392.0</ele><time>2026-05-02T07:32:51.17Z</time></trkpt><trkpt lat="46.1396255" lon="13.557626"><ele>392.0</ele><time>2026-05-02T07:32:52.171Z</time></trkpt><trkpt lat="46.1396979" lon="13.5576134"><ele>392.0</ele><time>2026-05-02T07:32:53.171Z</time></trkpt><trkpt lat="46.1398104" lon="13.5576015"><ele>392.0</ele><time>2026-05-02T07:32:55.17Z</time></trkpt><trkpt lat="46.1399139" lon="13.5576523"><ele>388.6</ele><time>2026-05-02T07:32:57.171Z</time></trkpt><trkpt lat="46.1399868" lon="13.5577292"><ele>385.20000000000005</ele><time>2026-05-02T07:32:59.17Z</time></trkpt><trkpt lat="46.1400205" lon="13.5578442"><ele>381.8</ele><time>2026-05-02T07:33:01.171Z</time></trkpt><trkpt lat="46.1400005" lon="13.5580248"><ele>378.4</ele><time>2026-05-02T07:33:03.17Z</time></trkpt><trkpt lat="46.1399742" lon="13.5581337"><ele>375.0</ele><time>2026-05-02T07:33:04.17Z</time></trkpt><trkpt lat="46.1399427" lon="13.5582568"><ele>375.0</ele><time>2026-05-02T07:33:05.17Z</time></trkpt><trkpt lat="46.1399049" lon="13.5583798"><ele>375.0</ele><time>2026-05-02T07:33:06.17Z</time></trkpt><trkpt lat="46.1398731" lon="13.5584983"><ele>375.0</ele><time>2026-05-02T07:33:07.17Z</time></trkpt><trkpt lat="46.1398483" lon="13.5586152"><ele>375.0</ele><time>2026-05-02T07:33:08.17Z</time></trkpt><trkpt lat="46.139833" lon="13.5587407"><ele>375.0</ele><time>2026-05-02T07:33:09.17Z</time></trkpt><trkpt lat="46.139823" lon="13.558863"><ele>375.0</ele><time>2026-05-02T07:33:10.17Z</time></trkpt><trkpt lat="46.1398118" lon="13.558973"><ele>383.6666666666667</ele><time>2026-05-02T07:33:11.169Z</time></trkpt><trkpt lat="46.1398011" lon="13.5590883"><ele>392.33333333333337</ele><time>2026-05-02T07:33:12.169Z</time></trkpt><trkpt lat="46.1397901" lon="13.5592095"><ele>401.0</ele><time>2026-05-02T07:33:13.169Z</time></trkpt><trkpt lat="46.139778" lon="13.559311"><ele>409.6666666666667</ele><time>2026-05-02T07:33:14.169Z</time></trkpt><trkpt lat="46.1397527" lon="13.5594817"><ele>418.33333333333337</ele><time>2026-05-02T07:33:16.17Z</time></trkpt><trkpt lat="46.139746" lon="13.5595724"><ele>427.0</ele><time>2026-05-02T07:33:17.169Z</time></trkpt><trkpt lat="46.1397773" lon="13.5597051"><ele>427.1666666666667</ele><time>2026-05-02T07:33:19.17Z</time></trkpt><trkpt lat="46.1398541" lon="13.5597644"><ele>427.33333333333337</ele><time>2026-05-02T07:33:22.169Z</time></trkpt><trkpt lat="46.1399262" lon="13.5597669"><ele>427.5</ele><time>2026-05-02T07:33:23.17Z</time></trkpt><trkpt lat="46.1399995" lon="13.55975"><ele>427.66666666666663</ele><time>2026-05-02T07:33:24.169Z</time></trkpt><trkpt lat="46.1400965" lon="13.5597323"><ele>427.8333333333333</ele><time>2026-05-02T07:33:25.169Z</time></trkpt><trkpt lat="46.1401914" lon="13.5597041"><ele>428.0</ele><time>2026-05-02T07:33:26.169Z</time></trkpt><trkpt lat="46.1402791" lon="13.5596788"><ele>422.49999999999994</ele><time>2026-05-02T07:33:27.169Z</time></trkpt><trkpt lat="46.1403633" lon="13.5596637"><ele>417.0</ele><time>2026-05-02T07:33:28.169Z</time></trkpt><trkpt lat="46.1404505" lon="13.5596604"><ele>411.5</ele><time>2026-05-02T07:33:29.169Z</time></trkpt><trkpt lat="46.1405438" lon="13.5596479"><ele>406.0</ele><time>2026-05-02T07:33:30.169Z</time></trkpt><trkpt lat="46.1406131" lon="13.5596427"><ele>400.49999999999994</ele><time>2026-05-02T07:33:31.17Z</time></trkpt><trkpt lat="46.1407123" lon="13.559608"><ele>395.0</ele><time>2026-05-02T07:33:33.169Z</time></trkpt><trkpt lat="46.1407861" lon="13.559553"><ele>389.4</ele><time>2026-05-02T07:33:34.17Z</time></trkpt><trkpt lat="46.1408651" lon="13.5594863"><ele>383.8</ele><time>2026-05-02T07:33:35.17Z</time></trkpt><trkpt lat="46.1409265" lon="13.5594601"><ele>378.20000000000005</ele><time>2026-05-02T07:33:36.17Z</time></trkpt><trkpt lat="46.1410697" lon="13.5594573"><ele>372.6</ele><time>2026-05-02T07:33:38.17Z</time></trkpt><trkpt lat="46.1411578" lon="13.5594443"><ele>367.0</ele><time>2026-05-02T07:33:39.169Z</time></trkpt><trkpt lat="46.1412281" lon="13.559421"><ele>367.0</ele><time>2026-05-02T07:33:40.17Z</time></trkpt><trkpt lat="46.1413379" lon="13.5593232"><ele>367.0</ele><time>2026-05-02T07:33:42.169Z</time></trkpt><trkpt lat="46.1414064" lon="13.5592369"><ele>367.0</ele><time>2026-05-02T07:33:43.169Z</time></trkpt><trkpt lat="46.1414751" lon="13.5591473"><ele>367.0</ele><time>2026-05-02T07:33:44.169Z</time></trkpt><trkpt lat="46.1415464" lon="13.5590588"><ele>367.0</ele><time>2026-05-02T07:33:45.17Z</time></trkpt><trkpt lat="46.141616" lon="13.5589839"><ele>366.8333333333333</ele><time>2026-05-02T07:33:46.169Z</time></trkpt><trkpt lat="46.1416798" lon="13.558924"><ele>366.66666666666663</ele><time>2026-05-02T07:33:47.169Z</time></trkpt><trkpt lat="46.1417512" lon="13.5588733"><ele>366.5</ele><time>2026-05-02T07:33:48.169Z</time></trkpt><trkpt lat="46.1418216" lon="13.558831"><ele>366.3333333333333</ele><time>2026-05-02T07:33:49.169Z</time></trkpt><trkpt lat="46.1418904" lon="13.5587722"><ele>366.1666666666667</ele><time>2026-05-02T07:33:50.169Z</time></trkpt><trkpt lat="46.1419871" lon="13.558702"><ele>366.0</ele><time>2026-05-02T07:33:51.17Z</time></trkpt><trkpt lat="46.1420835" lon="13.558636"><ele>366.0</ele><time>2026-05-02T07:33:52.169Z</time></trkpt><trkpt lat="46.1421636" lon="13.5585871"><ele>366.0</ele><time>2026-05-02T07:33:53.169Z</time></trkpt><trkpt lat="46.1422369" lon="13.5585363"><ele>366.0</ele><time>2026-05-02T07:33:54.17Z</time></trkpt><trkpt lat="46.1423003" lon="13.5584912"><ele>366.0</ele><time>2026-05-02T07:33:55.169Z</time></trkpt><trkpt lat="46.1423609" lon="13.5584569"><ele>366.0</ele><time>2026-05-02T07:33:56.169Z</time></trkpt><trkpt lat="46.1424427" lon="13.5584568"><ele>366.0</ele><time>2026-05-02T07:33:58.169Z</time></trkpt><trkpt lat="46.1424854" lon="13.5585373"><ele>368.20000000000005</ele><time>2026-05-02T07:34:00.169Z</time></trkpt><trkpt lat="46.1423982" lon="13.5585111"><ele>370.40000000000003</ele><time>2026-05-02T07:34:02.17Z</time></trkpt><trkpt lat="46.1423877" lon="13.5586376"><ele>372.6</ele><time>2026-05-02T07:34:03.169Z</time></trkpt><trkpt lat="46.1423959" lon="13.558781"><ele>374.8</ele><time>2026-05-02T07:34:04.169Z</time></trkpt><trkpt lat="46.1423956" lon="13.5589183"><ele>377.0</ele><time>2026-05-02T07:34:05.169Z</time></trkpt><trkpt lat="46.1423994" lon="13.5590603"><ele>379.33333333333337</ele><time>2026-05-02T07:34:06.17Z</time></trkpt><trkpt lat="46.1424058" lon="13.5591873"><ele>381.6666666666667</ele><time>2026-05-02T07:34:07.17Z</time></trkpt><trkpt lat="46.1424096" lon="13.5592982"><ele>384.0</ele><time>2026-05-02T07:34:08.17Z</time></trkpt><trkpt lat="46.1424319" lon="13.5594203"><ele>386.33333333333337</ele><time>2026-05-02T07:34:09.17Z</time></trkpt><trkpt lat="46.1424518" lon="13.5595286"><ele>388.6666666666667</ele><time>2026-05-02T07:34:10.169Z</time></trkpt><trkpt lat="46.1424816" lon="13.5596551"><ele>391.0</ele><time>2026-05-02T07:34:12.17Z</time></trkpt><trkpt lat="46.1423841" lon="13.5596181"><ele>390.20000000000005</ele><time>2026-05-02T07:34:17.169Z</time></trkpt><trkpt lat="46.1422901" lon="13.5594975"><ele>389.40000000000003</ele><time>2026-05-02T07:34:19.169Z</time></trkpt><trkpt lat="46.1422435" lon="13.5594266"><ele>388.6</ele><time>2026-05-02T07:34:20.169Z</time></trkpt><trkpt lat="46.1421401" lon="13.5593437"><ele>387.8</ele><time>2026-05-02T07:34:22.169Z</time></trkpt><trkpt lat="46.1420196" lon="13.5593541"><ele>387.0</ele><time>2026-05-02T07:34:24.169Z</time></trkpt><trkpt lat="46.1419617" lon="13.5593937"><ele>387.0</ele><time>2026-05-02T07:34:25.17Z</time></trkpt><trkpt lat="46.1418734" lon="13.5594808"><ele>387.0</ele><time>2026-05-02T07:34:27.169Z</time></trkpt><trkpt lat="46.1418509" lon="13.5595948"><ele>387.0</ele><time>2026-05-02T07:34:30.169Z</time></trkpt><trkpt lat="46.1419157" lon="13.5596202"><ele>387.0</ele><time>2026-05-02T07:34:32.17Z</time></trkpt><trkpt lat="46.1420189" lon="13.5596518"><ele>387.0</ele><time>2026-05-02T07:34:34.17Z</time></trkpt><trkpt lat="46.1421111" lon="13.5597408"><ele>391.8</ele><time>2026-05-02T07:34:36.169Z</time></trkpt><trkpt lat="46.1421527" lon="13.5598321"><ele>396.6</ele><time>2026-05-02T07:34:37.169Z</time></trkpt><trkpt lat="46.1421956" lon="13.5599338"><ele>401.40000000000003</ele><time>2026-05-02T07:34:38.169Z</time></trkpt><trkpt lat="46.142254" lon="13.5600153"><ele>406.20000000000005</ele><time>2026-05-02T07:34:39.169Z</time></trkpt><trkpt lat="46.1423133" lon="13.5601539"><ele>411.0</ele><time>2026-05-02T07:34:41.17Z</time></trkpt><trkpt lat="46.1423493" lon="13.5603273"><ele>414.85714285714283</ele><time>2026-05-02T07:34:43.17Z</time></trkpt><trkpt lat="46.1423407" lon="13.5604412"><ele>418.71428571428567</ele><time>2026-05-02T07:34:44.169Z</time></trkpt><trkpt lat="46.1423313" lon="13.5605676"><ele>422.57142857142856</ele><time>2026-05-02T07:34:45.169Z</time></trkpt><trkpt lat="46.1423236" lon="13.5606843"><ele>426.42857142857144</ele><time>2026-05-02T07:34:46.169Z</time></trkpt><trkpt lat="46.1423149" lon="13.560776"><ele>430.2857142857143</ele><time>2026-05-02T07:34:47.169Z</time></trkpt><trkpt lat="46.1423034" lon="13.56087"><ele>434.14285714285717</ele><time>2026-05-02T07:34:48.169Z</time></trkpt><trkpt lat="46.1423038" lon="13.560963"><ele>438.0</ele><time>2026-05-02T07:34:49.169Z</time></trkpt><trkpt lat="46.1422889" lon="13.5611042"><ele>440.79999999999995</ele><time>2026-05-02T07:34:51.169Z</time></trkpt><trkpt lat="46.1422765" lon="13.5612067"><ele>443.59999999999997</ele><time>2026-05-02T07:34:52.169Z</time></trkpt><trkpt lat="46.1422644" lon="13.5613127"><ele>446.40000000000003</ele><time>2026-05-02T07:34:53.17Z</time></trkpt><trkpt lat="46.1422559" lon="13.5614311"><ele>449.20000000000005</ele><time>2026-05-02T07:34:54.169Z</time></trkpt><trkpt lat="46.1422473" lon="13.5616061"><ele>452.0</ele><time>2026-05-02T07:34:56.17Z</time></trkpt><trkpt lat="46.1422436" lon="13.5617668"><ele>451.99999999999994</ele><time>2026-05-02T07:34:58.169Z</time></trkpt><trkpt lat="46.1422189" lon="13.5619016"><ele>452.0</ele><time>2026-05-02T07:35:00.169Z</time></trkpt><trkpt lat="46.1421676" lon="13.5620321"><ele>452.0</ele><time>2026-05-02T07:35:02.169Z</time></trkpt><trkpt lat="46.1421215" lon="13.5621195"><ele>452.0</ele><time>2026-05-02T07:35:03.169Z</time></trkpt><trkpt lat="46.1420799" lon="13.5622171"><ele>451.99999999999994</ele><time>2026-05-02T07:35:04.17Z</time></trkpt><trkpt lat="46.1420389" lon="13.5623257"><ele>452.0</ele><time>2026-05-02T07:35:05.169Z</time></trkpt><trkpt lat="46.1419978" lon="13.5624388"><ele>450.8</ele><time>2026-05-02T07:35:06.17Z</time></trkpt><trkpt lat="46.1419615" lon="13.5625377"><ele>449.6</ele><time>2026-05-02T07:35:07.17Z</time></trkpt><trkpt lat="46.1419267" lon="13.5626321"><ele>448.40000000000003</ele><time>2026-05-02T07:35:08.169Z</time></trkpt><trkpt lat="46.1418654" lon="13.5627855"><ele>447.20000000000005</ele><time>2026-05-02T07:35:10.17Z</time></trkpt><trkpt lat="46.1418054" lon="13.5629121"><ele>446.0</ele><time>2026-05-02T07:35:12.169Z</time></trkpt><trkpt lat="46.141794" lon="13.5630426"><ele>446.0</ele><time>2026-05-02T07:35:14.169Z</time></trkpt><trkpt lat="46.1417917" lon="13.5631996"><ele>446.0</ele><time>2026-05-02T07:35:16.17Z</time></trkpt><trkpt lat="46.1418107" lon="13.5633438"><ele>446.0</ele><time>2026-05-02T07:35:18.169Z</time></trkpt><trkpt lat="46.1418963" lon="13.5633888"><ele>446.0</ele><time>2026-05-02T07:35:21.169Z</time></trkpt><trkpt lat="46.1420245" lon="13.5633393"><ele>446.0</ele><time>2026-05-02T07:35:23.169Z</time></trkpt><trkpt lat="46.1421089" lon="13.5633176"><ele>445.99999999999994</ele><time>2026-05-02T07:35:24.169Z</time></trkpt><trkpt lat="46.1421805" lon="13.5632968"><ele>446.0</ele><time>2026-05-02T07:35:25.17Z</time></trkpt><trkpt lat="46.1422729" lon="13.5633414"><ele>446.0</ele><time>2026-05-02T07:35:27.169Z</time></trkpt><trkpt lat="46.1423269" lon="13.5634433"><ele>446.0</ele><time>2026-05-02T07:35:29.17Z</time></trkpt><trkpt lat="46.1423874" lon="13.5635451"><ele>445.99999999999994</ele><time>2026-05-02T07:35:31.169Z</time></trkpt><trkpt lat="46.1424618" lon="13.5635991"><ele>446.0</ele><time>2026-05-02T07:35:33.169Z</time></trkpt><trkpt lat="46.1425928" lon="13.5635895"><ele>449.4</ele><time>2026-05-02T07:35:35.17Z</time></trkpt><trkpt lat="46.1426601" lon="13.5635882"><ele>452.8</ele><time>2026-05-02T07:35:36.169Z</time></trkpt><trkpt lat="46.1427619" lon="13.5636241"><ele>456.19999999999993</ele><time>2026-05-02T07:35:38.169Z</time></trkpt><trkpt lat="46.1428727" lon="13.5636714"><ele>459.59999999999997</ele><time>2026-05-02T07:35:40.169Z</time></trkpt><trkpt lat="46.1429454" lon="13.5637421"><ele>463.0</ele><time>2026-05-02T07:35:42.169Z</time></trkpt><trkpt lat="46.1430279" lon="13.5638601"><ele>463.0</ele><time>2026-05-02T07:35:44.169Z</time></trkpt><trkpt lat="46.1430658" lon="13.5639837"><ele>462.99999999999994</ele><time>2026-05-02T07:35:46.17Z</time></trkpt><trkpt lat="46.1430638" lon="13.564123"><ele>462.99999999999994</ele><time>2026-05-02T07:35:48.169Z</time></trkpt><trkpt lat="46.1429687" lon="13.564098"><ele>463.0</ele><time>2026-05-02T07:35:51.17Z</time></trkpt><trkpt lat="46.1429279" lon="13.5640211"><ele>463.0</ele><time>2026-05-02T07:35:52.169Z</time></trkpt><trkpt lat="46.1428494" lon="13.5639117"><ele>463.0</ele><time>2026-05-02T07:35:54.17Z</time></trkpt><trkpt lat="46.1427604" lon="13.5638674"><ele>462.99999999999994</ele><time>2026-05-02T07:35:56.17Z</time></trkpt><trkpt lat="46.1426482" lon="13.563861"><ele>462.99999999999994</ele><time>2026-05-02T07:35:58.169Z</time></trkpt><trkpt lat="46.1425321" lon="13.5638727"><ele>463.0</ele><time>2026-05-02T07:36:00.17Z</time></trkpt><trkpt lat="46.1424588" lon="13.5639023"><ele>463.0</ele><time>2026-05-02T07:36:01.169Z</time></trkpt><trkpt lat="46.1423899" lon="13.5639427"><ele>464.59999999999997</ele><time>2026-05-02T07:36:02.17Z</time></trkpt><trkpt lat="46.142326" lon="13.5639659"><ele>466.19999999999993</ele><time>2026-05-02T07:36:03.17Z</time></trkpt><trkpt lat="46.1422563" lon="13.5639785"><ele>467.8</ele><time>2026-05-02T07:36:04.169Z</time></trkpt><trkpt lat="46.1421708" lon="13.5639837"><ele>469.4</ele><time>2026-05-02T07:36:05.17Z</time></trkpt><trkpt lat="46.1420589" lon="13.5640001"><ele>471.0</ele><time>2026-05-02T07:36:07.17Z</time></trkpt><trkpt lat="46.1419388" lon="13.564056"><ele>471.0</ele><time>2026-05-02T07:36:09.17Z</time></trkpt><trkpt lat="46.1418765" lon="13.5641068"><ele>471.0</ele><time>2026-05-02T07:36:10.17Z</time></trkpt><trkpt lat="46.1417643" lon="13.5641698"><ele>471.0</ele><time>2026-05-02T07:36:12.169Z</time></trkpt><trkpt lat="46.1416626" lon="13.5641909"><ele>471.0</ele><time>2026-05-02T07:36:14.169Z</time></trkpt><trkpt lat="46.1415723" lon="13.5641364"><ele>471.0</ele><time>2026-05-02T07:36:16.169Z</time></trkpt><trkpt lat="46.1415268" lon="13.5640682"><ele>474.1666666666667</ele><time>2026-05-02T07:36:17.17Z</time></trkpt><trkpt lat="46.1414845" lon="13.5639803"><ele>477.33333333333337</ele><time>2026-05-02T07:36:18.17Z</time></trkpt><trkpt lat="46.1414567" lon="13.5638921"><ele>480.5</ele><time>2026-05-02T07:36:19.169Z</time></trkpt><trkpt lat="46.1413938" lon="13.5637767"><ele>483.6666666666667</ele><time>2026-05-02T07:36:21.169Z</time></trkpt><trkpt lat="46.1413065" lon="13.5637082"><ele>486.83333333333337</ele><time>2026-05-02T07:36:23.169Z</time></trkpt><trkpt lat="46.141236" lon="13.5636235"><ele>490.0</ele><time>2026-05-02T07:36:25.169Z</time></trkpt><trkpt lat="46.1411845" lon="13.5635166"><ele>490.00000000000006</ele><time>2026-05-02T07:36:27.169Z</time></trkpt><trkpt lat="46.1411589" lon="13.5633464"><ele>490.0</ele><time>2026-05-02T07:36:29.17Z</time></trkpt><trkpt lat="46.1411317" lon="13.5631724"><ele>490.0</ele><time>2026-05-02T07:36:31.169Z</time></trkpt><trkpt lat="46.141125" lon="13.5630744"><ele>490.0</ele><time>2026-05-02T07:36:32.17Z</time></trkpt><trkpt lat="46.1411294" lon="13.5629739"><ele>490.00000000000006</ele><time>2026-05-02T07:36:33.17Z</time></trkpt><trkpt lat="46.1411415" lon="13.5628811"><ele>490.0</ele><time>2026-05-02T07:36:34.17Z</time></trkpt><trkpt lat="46.1411662" lon="13.562711"><ele>489.6</ele><time>2026-05-02T07:36:36.169Z</time></trkpt><trkpt lat="46.1411981" lon="13.562536"><ele>489.2</ele><time>2026-05-02T07:36:38.17Z</time></trkpt><trkpt lat="46.1412182" lon="13.5624359"><ele>488.79999999999995</ele><time>2026-05-02T07:36:39.17Z</time></trkpt><trkpt lat="46.141245" lon="13.5623217"><ele>488.4</ele><time>2026-05-02T07:36:40.169Z</time></trkpt><trkpt lat="46.1412822" lon="13.562208"><ele>488.0</ele><time>2026-05-02T07:36:41.169Z</time></trkpt><trkpt lat="46.141326" lon="13.5621026"><ele>485.16666666666663</ele><time>2026-05-02T07:36:42.17Z</time></trkpt><trkpt lat="46.1413702" lon="13.5619918"><ele>482.3333333333333</ele><time>2026-05-02T07:36:43.169Z</time></trkpt><trkpt lat="46.141408" lon="13.5619062"><ele>479.5</ele><time>2026-05-02T07:36:44.169Z</time></trkpt><trkpt lat="46.1414428" lon="13.5618296"><ele>476.66666666666663</ele><time>2026-05-02T07:36:45.169Z</time></trkpt><trkpt lat="46.1414847" lon="13.561666"><ele>473.8333333333333</ele><time>2026-05-02T07:36:47.169Z</time></trkpt><trkpt lat="46.1414474" lon="13.561556"><ele>471.0</ele><time>2026-05-02T07:36:49.17Z</time></trkpt><trkpt lat="46.1413913" lon="13.5614941"><ele>471.0</ele><time>2026-05-02T07:36:51.169Z</time></trkpt><trkpt lat="46.141263" lon="13.5615347"><ele>471.0</ele><time>2026-05-02T07:36:53.169Z</time></trkpt><trkpt lat="46.1411895" lon="13.5615795"><ele>471.0</ele><time>2026-05-02T07:36:54.17Z</time></trkpt><trkpt lat="46.1411034" lon="13.5616223"><ele>471.0</ele><time>2026-05-02T07:36:55.17Z</time></trkpt><trkpt lat="46.1410179" lon="13.5616465"><ele>471.0</ele><time>2026-05-02T07:36:56.169Z</time></trkpt><trkpt lat="46.14094" lon="13.5616717"><ele>471.0</ele><time>2026-05-02T07:36:57.169Z</time></trkpt><trkpt lat="46.140865" lon="13.5616938"><ele>471.0</ele><time>2026-05-02T07:36:58.169Z</time></trkpt><trkpt lat="46.1407898" lon="13.561711"><ele>471.0</ele><time>2026-05-02T07:36:59.169Z</time></trkpt><trkpt lat="46.1407216" lon="13.5617321"><ele>471.0</ele><time>2026-05-02T07:37:00.17Z</time></trkpt><trkpt lat="46.1406504" lon="13.5617505"><ele>471.0</ele><time>2026-05-02T07:37:01.169Z</time></trkpt><trkpt lat="46.1405754" lon="13.5617839"><ele>471.0</ele><time>2026-05-02T07:37:02.169Z</time></trkpt><trkpt lat="46.1404944" lon="13.5618296"><ele>468.6666666666667</ele><time>2026-05-02T07:37:03.169Z</time></trkpt><trkpt lat="46.1404096" lon="13.5618716"><ele>466.33333333333337</ele><time>2026-05-02T07:37:04.17Z</time></trkpt><trkpt lat="46.1403257" lon="13.5619147"><ele>464.0</ele><time>2026-05-02T07:37:05.17Z</time></trkpt><trkpt lat="46.1402423" lon="13.5619562"><ele>461.6666666666667</ele><time>2026-05-02T07:37:06.169Z</time></trkpt><trkpt lat="46.140171" lon="13.5619918"><ele>459.33333333333337</ele><time>2026-05-02T07:37:07.169Z</time></trkpt><trkpt lat="46.1401108" lon="13.5620306"><ele>457.0</ele><time>2026-05-02T07:37:08.169Z</time></trkpt><trkpt lat="46.1399979" lon="13.5620696"><ele>460.33333333333337</ele><time>2026-05-02T07:37:10.169Z</time></trkpt><trkpt lat="46.1399037" lon="13.5621869"><ele>463.6666666666667</ele><time>2026-05-02T07:37:12.169Z</time></trkpt><trkpt lat="46.1398476" lon="13.5622483"><ele>467.0</ele><time>2026-05-02T07:37:13.169Z</time></trkpt><trkpt lat="46.1397854" lon="13.5623"><ele>470.33333333333337</ele><time>2026-05-02T07:37:14.169Z</time></trkpt><trkpt lat="46.1397274" lon="13.5623502"><ele>473.6666666666667</ele><time>2026-05-02T07:37:15.169Z</time></trkpt><trkpt lat="46.1396653" lon="13.5623867"><ele>477.0</ele><time>2026-05-02T07:37:16.169Z</time></trkpt><trkpt lat="46.1396102" lon="13.5624377"><ele>477.0</ele><time>2026-05-02T07:37:17.17Z</time></trkpt><trkpt lat="46.1395483" lon="13.5625036"><ele>476.99999999999994</ele><time>2026-05-02T07:37:18.169Z</time></trkpt><trkpt lat="46.1394837" lon="13.5625662"><ele>477.0</ele><time>2026-05-02T07:37:19.17Z</time></trkpt><trkpt lat="46.1394204" lon="13.5626254"><ele>477.0</ele><time>2026-05-02T07:37:20.169Z</time></trkpt><trkpt lat="46.1393629" lon="13.562683"><ele>476.99999999999994</ele><time>2026-05-02T07:37:21.169Z</time></trkpt><trkpt lat="46.1393024" lon="13.5627388"><ele>477.0</ele><time>2026-05-02T07:37:22.169Z</time></trkpt><trkpt lat="46.1392441" lon="13.5627963"><ele>477.0</ele><time>2026-05-02T07:37:23.169Z</time></trkpt><trkpt lat="46.1391919" lon="13.5628607"><ele>482.0</ele><time>2026-05-02T07:37:24.169Z</time></trkpt><trkpt lat="46.1391357" lon="13.5629338"><ele>487.0</ele><time>2026-05-02T07:37:25.17Z</time></trkpt><trkpt lat="46.13909" lon="13.5630041"><ele>492.0</ele><time>2026-05-02T07:37:26.169Z</time></trkpt><trkpt lat="46.1390024" lon="13.5631274"><ele>497.0</ele><time>2026-05-02T07:37:28.169Z</time></trkpt><trkpt lat="46.1389292" lon="13.5631942"><ele>502.0</ele><time>2026-05-02T07:37:30.169Z</time></trkpt><trkpt lat="46.1388513" lon="13.5631673"><ele>507.0</ele><time>2026-05-02T07:37:32.169Z</time></trkpt><trkpt lat="46.1387713" lon="13.5630581"><ele>509.6666666666667</ele><time>2026-05-02T07:37:34.169Z</time></trkpt><trkpt lat="46.1387215" lon="13.5629866"><ele>512.3333333333334</ele><time>2026-05-02T07:37:35.169Z</time></trkpt><trkpt lat="46.1386737" lon="13.5629261"><ele>515.0</ele><time>2026-05-02T07:37:36.169Z</time></trkpt><trkpt lat="46.1386047" lon="13.5628849"><ele>517.6666666666667</ele><time>2026-05-02T07:37:37.169Z</time></trkpt><trkpt lat="46.1385461" lon="13.5628452"><ele>520.3333333333334</ele><time>2026-05-02T07:37:38.169Z</time></trkpt><trkpt lat="46.1384204" lon="13.5628066"><ele>523.0</ele><time>2026-05-02T07:37:40.169Z</time></trkpt><trkpt lat="46.1383463" lon="13.5627957"><ele>525.1666666666667</ele><time>2026-05-02T07:37:41.169Z</time></trkpt><trkpt lat="46.1382726" lon="13.5627898"><ele>527.3333333333334</ele><time>2026-05-02T07:37:42.169Z</time></trkpt><trkpt lat="46.1381929" lon="13.5627755"><ele>529.5</ele><time>2026-05-02T07:37:43.17Z</time></trkpt><trkpt lat="46.1381298" lon="13.5627506"><ele>531.6666666666666</ele><time>2026-05-02T07:37:44.169Z</time></trkpt><trkpt lat="46.1380558" lon="13.5626713"><ele>533.8333333333333</ele><time>2026-05-02T07:37:46.169Z</time></trkpt><trkpt lat="46.1380262" lon="13.5625367"><ele>536.0</ele><time>2026-05-02T07:37:48.169Z</time></trkpt><trkpt lat="46.1380145" lon="13.5624419"><ele>536.0</ele><time>2026-05-02T07:37:49.17Z</time></trkpt><trkpt lat="46.1379934" lon="13.5623288"><ele>536.0</ele><time>2026-05-02T07:37:50.169Z</time></trkpt><trkpt lat="46.1379791" lon="13.5622281"><ele>536.0</ele><time>2026-05-02T07:37:51.169Z</time></trkpt><trkpt lat="46.137962" lon="13.5621199"><ele>536.0</ele><time>2026-05-02T07:37:52.169Z</time></trkpt><trkpt lat="46.1379471" lon="13.5620285"><ele>536.0</ele><time>2026-05-02T07:37:53.17Z</time></trkpt><trkpt lat="46.1379383" lon="13.5619384"><ele>536.0</ele><time>2026-05-02T07:37:54.169Z</time></trkpt><trkpt lat="46.1379275" lon="13.5618396"><ele>536.0</ele><time>2026-05-02T07:37:55.17Z</time></trkpt><trkpt lat="46.1379184" lon="13.5616538"><ele>536.6666666666666</ele><time>2026-05-02T07:37:57.168Z</time></trkpt><trkpt lat="46.1378929" lon="13.5614885"><ele>537.3333333333333</ele><time>2026-05-02T07:37:59.168Z</time></trkpt><trkpt lat="46.1378743" lon="13.5614007"><ele>538.0</ele><time>2026-05-02T07:38:00.168Z</time></trkpt><trkpt lat="46.137843" lon="13.5613177"><ele>538.6666666666666</ele><time>2026-05-02T07:38:01.168Z</time></trkpt><trkpt lat="46.1378146" lon="13.5612356"><ele>539.3333333333334</ele><time>2026-05-02T07:38:02.169Z</time></trkpt><trkpt lat="46.1377834" lon="13.5611438"><ele>540.0</ele><time>2026-05-02T07:38:03.169Z</time></trkpt><trkpt lat="46.1377526" lon="13.5610486"><ele>540.4</ele><time>2026-05-02T07:38:04.168Z</time></trkpt><trkpt lat="46.1377245" lon="13.5609606"><ele>540.8</ele><time>2026-05-02T07:38:05.168Z</time></trkpt><trkpt lat="46.1376971" lon="13.5607831"><ele>541.2</ele><time>2026-05-02T07:38:07.168Z</time></trkpt><trkpt lat="46.1376973" lon="13.5606201"><ele>541.6</ele><time>2026-05-02T07:38:09.168Z</time></trkpt><trkpt lat="46.137738" lon="13.560506"><ele>542.0</ele><time>2026-05-02T07:38:11.168Z</time></trkpt><trkpt lat="46.137821" lon="13.5603792"><ele>541.3333333333333</ele><time>2026-05-02T07:38:13.168Z</time></trkpt><trkpt lat="46.1378626" lon="13.5603031"><ele>540.6666666666666</ele><time>2026-05-02T07:38:14.168Z</time></trkpt><trkpt lat="46.1379148" lon="13.5601548"><ele>540.0</ele><time>2026-05-02T07:38:16.169Z</time></trkpt><trkpt lat="46.1379481" lon="13.5600711"><ele>539.3333333333334</ele><time>2026-05-02T07:38:17.168Z</time></trkpt><trkpt lat="46.1379923" lon="13.5599068"><ele>538.6666666666667</ele><time>2026-05-02T07:38:19.169Z</time></trkpt><trkpt lat="46.1379901" lon="13.5598121"><ele>538.0</ele><time>2026-05-02T07:38:20.168Z</time></trkpt><trkpt lat="46.1379664" lon="13.5597202"><ele>538.0</ele><time>2026-05-02T07:38:21.168Z</time></trkpt><trkpt lat="46.1379397" lon="13.5596322"><ele>538.0</ele><time>2026-05-02T07:38:22.169Z</time></trkpt><trkpt lat="46.1379086" lon="13.55955"><ele>538.0</ele><time>2026-05-02T07:38:23.168Z</time></trkpt><trkpt lat="46.1378363" lon="13.5594162"><ele>538.0</ele><time>2026-05-02T07:38:25.168Z</time></trkpt><trkpt lat="46.1377853" lon="13.5593543"><ele>538.0</ele><time>2026-05-02T07:38:26.168Z</time></trkpt><trkpt lat="46.1377262" lon="13.5592934"><ele>538.0</ele><time>2026-05-02T07:38:27.169Z</time></trkpt><trkpt lat="46.1376639" lon="13.5592337"><ele>541.6</ele><time>2026-05-02T07:38:28.168Z</time></trkpt><trkpt lat="46.1376015" lon="13.559192"><ele>545.1999999999999</ele><time>2026-05-02T07:38:29.169Z</time></trkpt><trkpt lat="46.1375077" lon="13.5591493"><ele>548.8</ele><time>2026-05-02T07:38:31.169Z</time></trkpt><trkpt lat="46.137373" lon="13.5591561"><ele>552.4</ele><time>2026-05-02T07:38:33.169Z</time></trkpt><trkpt lat="46.1372715" lon="13.5591282"><ele>556.0</ele><time>2026-05-02T07:38:35.168Z</time></trkpt><trkpt lat="46.137206" lon="13.5590327"><ele>556.0</ele><time>2026-05-02T07:38:37.168Z</time></trkpt><trkpt lat="46.1371471" lon="13.5588681"><ele>556.0</ele><time>2026-05-02T07:38:39.169Z</time></trkpt><trkpt lat="46.1371192" lon="13.5587631"><ele>556.0</ele><time>2026-05-02T07:38:40.169Z</time></trkpt><trkpt lat="46.1370896" lon="13.5586464"><ele>556.0</ele><time>2026-05-02T07:38:41.168Z</time></trkpt><trkpt lat="46.1370711" lon="13.5585392"><ele>556.0</ele><time>2026-05-02T07:38:42.169Z</time></trkpt><trkpt lat="46.1370502" lon="13.5584387"><ele>556.0</ele><time>2026-05-02T07:38:43.168Z</time></trkpt><trkpt lat="46.1370469" lon="13.5582482"><ele>555.5</ele><time>2026-05-02T07:38:45.169Z</time></trkpt><trkpt lat="46.1370399" lon="13.5581538"><ele>555.0</ele><time>2026-05-02T07:38:46.169Z</time></trkpt><trkpt lat="46.1370273" lon="13.5580507"><ele>554.5</ele><time>2026-05-02T07:38:47.168Z</time></trkpt><trkpt lat="46.1370102" lon="13.5579543"><ele>554.0</ele><time>2026-05-02T07:38:48.168Z</time></trkpt><trkpt lat="46.1369928" lon="13.557811"><ele>553.5</ele><time>2026-05-02T07:38:50.168Z</time></trkpt><trkpt lat="46.1370102" lon="13.5576225"><ele>553.0</ele><time>2026-05-02T07:38:52.169Z</time></trkpt><trkpt lat="46.1370042" lon="13.5575056"><ele>552.5</ele><time>2026-05-02T07:38:53.168Z</time></trkpt><trkpt lat="46.1369947" lon="13.5573881"><ele>552.0</ele><time>2026-05-02T07:38:54.168Z</time></trkpt><trkpt lat="46.1369865" lon="13.5572652"><ele>551.5</ele><time>2026-05-02T07:38:55.169Z</time></trkpt><trkpt lat="46.136971" lon="13.5571528"><ele>551.0</ele><time>2026-05-02T07:38:56.169Z</time></trkpt><trkpt lat="46.136952" lon="13.5570436"><ele>550.5</ele><time>2026-05-02T07:38:57.169Z</time></trkpt><trkpt lat="46.1369461" lon="13.5569487"><ele>550.0</ele><time>2026-05-02T07:38:58.168Z</time></trkpt><trkpt lat="46.1369438" lon="13.5568496"><ele>546.6</ele><time>2026-05-02T07:38:59.168Z</time></trkpt><trkpt lat="46.1369454" lon="13.5566863"><ele>543.2</ele><time>2026-05-02T07:39:01.169Z</time></trkpt><trkpt lat="46.1369428" lon="13.5565111"><ele>539.8</ele><time>2026-05-02T07:39:03.168Z</time></trkpt><trkpt lat="46.1369367" lon="13.5564177"><ele>536.4</ele><time>2026-05-02T07:39:04.169Z</time></trkpt><trkpt lat="46.136934" lon="13.5563171"><ele>533.0</ele><time>2026-05-02T07:39:05.169Z</time></trkpt><trkpt lat="46.1368911" lon="13.5562115"><ele>533.5</ele><time>2026-05-02T07:39:07.168Z</time></trkpt><trkpt lat="46.1367878" lon="13.5561491"><ele>534.0</ele><time>2026-05-02T07:39:09.169Z</time></trkpt><trkpt lat="46.1366659" lon="13.5561316"><ele>534.5</ele><time>2026-05-02T07:39:11.168Z</time></trkpt><trkpt lat="46.1366031" lon="13.5561532"><ele>535.0</ele><time>2026-05-02T07:39:12.168Z</time></trkpt><trkpt lat="46.1365436" lon="13.5561884"><ele>535.5</ele><time>2026-05-02T07:39:13.168Z</time></trkpt><trkpt lat="46.1364757" lon="13.5562434"><ele>536.0</ele><time>2026-05-02T07:39:14.168Z</time></trkpt><trkpt lat="46.1364097" lon="13.5563169"><ele>536.0</ele><time>2026-05-02T07:39:15.169Z</time></trkpt><trkpt lat="46.1363519" lon="13.5563738"><ele>536.0</ele><time>2026-05-02T07:39:16.169Z</time></trkpt><trkpt lat="46.1362971" lon="13.5564222"><ele>536.0</ele><time>2026-05-02T07:39:17.168Z</time></trkpt><trkpt lat="46.1362365" lon="13.5564504"><ele>536.0</ele><time>2026-05-02T07:39:18.168Z</time></trkpt><trkpt lat="46.1361039" lon="13.5564832"><ele>536.0</ele><time>2026-05-02T07:39:20.168Z</time></trkpt><trkpt lat="46.1360265" lon="13.556477"><ele>536.0</ele><time>2026-05-02T07:39:21.168Z</time></trkpt><trkpt lat="46.1359442" lon="13.5564624"><ele>536.0</ele><time>2026-05-02T07:39:22.168Z</time></trkpt><trkpt lat="46.1358597" lon="13.5564633"><ele>536.0</ele><time>2026-05-02T07:39:23.168Z</time></trkpt><trkpt lat="46.1357764" lon="13.5564719"><ele>536.0</ele><time>2026-05-02T07:39:24.168Z</time></trkpt><trkpt lat="46.1357046" lon="13.5564604"><ele>536.0</ele><time>2026-05-02T07:39:25.169Z</time></trkpt><trkpt lat="46.1356361" lon="13.5564468"><ele>536.0</ele><time>2026-05-02T07:39:26.168Z</time></trkpt><trkpt lat="46.1355211" lon="13.5563858"><ele>536.0</ele><time>2026-05-02T07:39:28.168Z</time></trkpt><trkpt lat="46.1354662" lon="13.5563289"><ele>534.8</ele><time>2026-05-02T07:39:29.168Z</time></trkpt><trkpt lat="46.1353515" lon="13.5562838"><ele>533.6</ele><time>2026-05-02T07:39:31.168Z</time></trkpt><trkpt lat="46.1352368" lon="13.5561963"><ele>532.4</ele><time>2026-05-02T07:39:33.168Z</time></trkpt><trkpt lat="46.1351761" lon="13.5560965"><ele>531.2</ele><time>2026-05-02T07:39:35.168Z</time></trkpt><trkpt lat="46.1350996" lon="13.5560991"><ele>530.0</ele><time>2026-05-02T07:39:37.168Z</time></trkpt><trkpt lat="46.1350492" lon="13.5561815"><ele>529.9999999999999</ele><time>2026-05-02T07:39:39.168Z</time></trkpt><trkpt lat="46.1350193" lon="13.5562669"><ele>530.0</ele><time>2026-05-02T07:39:40.168Z</time></trkpt><trkpt lat="46.1349845" lon="13.5563683"><ele>530.0</ele><time>2026-05-02T07:39:41.169Z</time></trkpt><trkpt lat="46.134956" lon="13.5564614"><ele>530.0</ele><time>2026-05-02T07:39:42.168Z</time></trkpt><trkpt lat="46.1349384" lon="13.5565636"><ele>530.0</ele><time>2026-05-02T07:39:43.168Z</time></trkpt><trkpt lat="46.1349266" lon="13.5566684"><ele>529.9999999999999</ele><time>2026-05-02T07:39:44.168Z</time></trkpt><trkpt lat="46.1349217" lon="13.5567829"><ele>530.0</ele><time>2026-05-02T07:39:45.169Z</time></trkpt><trkpt lat="46.1349249" lon="13.5568914"><ele>530.0</ele><time>2026-05-02T07:39:46.169Z</time></trkpt><trkpt lat="46.1349371" lon="13.5570028"><ele>530.0</ele><time>2026-05-02T07:39:47.169Z</time></trkpt><trkpt lat="46.1349493" lon="13.5571045"><ele>530.0</ele><time>2026-05-02T07:39:48.168Z</time></trkpt><trkpt lat="46.1349632" lon="13.557207"><ele>530.0</ele><time>2026-05-02T07:39:49.168Z</time></trkpt><trkpt lat="46.1349651" lon="13.5573081"><ele>530.0</ele><time>2026-05-02T07:39:50.169Z</time></trkpt><trkpt lat="46.1349577" lon="13.5574326"><ele>530.0</ele><time>2026-05-02T07:39:51.168Z</time></trkpt><trkpt lat="46.1349546" lon="13.5575563"><ele>530.5</ele><time>2026-05-02T07:39:52.168Z</time></trkpt><trkpt lat="46.1349569" lon="13.5576752"><ele>531.0</ele><time>2026-05-02T07:39:53.169Z</time></trkpt><trkpt lat="46.1349606" lon="13.5577813"><ele>531.5</ele><time>2026-05-02T07:39:54.169Z</time></trkpt><trkpt lat="46.1349601" lon="13.5579609"><ele>532.0</ele><time>2026-05-02T07:39:56.168Z</time></trkpt><trkpt lat="46.134941" lon="13.5580694"><ele>532.5</ele><time>2026-05-02T07:39:57.169Z</time></trkpt><trkpt lat="46.1349196" lon="13.5581842"><ele>533.0</ele><time>2026-05-02T07:39:58.169Z</time></trkpt><trkpt lat="46.1348949" lon="13.5582962"><ele>530.0</ele><time>2026-05-02T07:39:59.168Z</time></trkpt><trkpt lat="46.1348725" lon="13.5583919"><ele>527.0</ele><time>2026-05-02T07:40:00.169Z</time></trkpt><trkpt lat="46.1348491" lon="13.5584774"><ele>524.0</ele><time>2026-05-02T07:40:01.169Z</time></trkpt><trkpt lat="46.1348194" lon="13.558568"><ele>521.0</ele><time>2026-05-02T07:40:02.169Z</time></trkpt><trkpt lat="46.1347826" lon="13.5586516"><ele>518.0</ele><time>2026-05-02T07:40:03.168Z</time></trkpt><trkpt lat="46.1347309" lon="13.55874"><ele>515.0</ele><time>2026-05-02T07:40:04.169Z</time></trkpt><trkpt lat="46.1346767" lon="13.5588298"><ele>512.0</ele><time>2026-05-02T07:40:05.168Z</time></trkpt><trkpt lat="46.1346241" lon="13.5589142"><ele>511.99999999999994</ele><time>2026-05-02T07:40:06.168Z</time></trkpt><trkpt lat="46.1345876" lon="13.5590002"><ele>512.0</ele><time>2026-05-02T07:40:07.169Z</time></trkpt><trkpt lat="46.1345525" lon="13.5591791"><ele>512.0</ele><time>2026-05-02T07:40:09.169Z</time></trkpt><trkpt lat="46.1345465" lon="13.5592831"><ele>512.0</ele><time>2026-05-02T07:40:10.168Z</time></trkpt><trkpt lat="46.1345463" lon="13.5593859"><ele>511.99999999999994</ele><time>2026-05-02T07:40:11.168Z</time></trkpt><trkpt lat="46.1345598" lon="13.5594756"><ele>512.0</ele><time>2026-05-02T07:40:12.169Z</time></trkpt><trkpt lat="46.134607" lon="13.5596415"><ele>511.49999999999994</ele><time>2026-05-02T07:40:14.169Z</time></trkpt><trkpt lat="46.1346439" lon="13.5597259"><ele>511.0</ele><time>2026-05-02T07:40:15.169Z</time></trkpt><trkpt lat="46.134719" lon="13.5598771"><ele>510.5</ele><time>2026-05-02T07:40:17.168Z</time></trkpt><trkpt lat="46.1347655" lon="13.5599585"><ele>510.0</ele><time>2026-05-02T07:40:18.168Z</time></trkpt><trkpt lat="46.1348353" lon="13.5600415"><ele>509.49999999999994</ele><time>2026-05-02T07:40:19.169Z</time></trkpt><trkpt lat="46.13489" lon="13.5601116"><ele>509.0</ele><time>2026-05-02T07:40:20.169Z</time></trkpt><trkpt lat="46.1349903" lon="13.5602278"><ele>512.1666666666666</ele><time>2026-05-02T07:40:22.168Z</time></trkpt><trkpt lat="46.1350478" lon="13.5602736"><ele>515.3333333333333</ele><time>2026-05-02T07:40:23.168Z</time></trkpt><trkpt lat="46.1351591" lon="13.5603268"><ele>518.5</ele><time>2026-05-02T07:40:25.168Z</time></trkpt><trkpt lat="46.1352196" lon="13.560359"><ele>521.6666666666666</ele><time>2026-05-02T07:40:26.168Z</time></trkpt><trkpt lat="46.1352938" lon="13.560417"><ele>524.8333333333334</ele><time>2026-05-02T07:40:27.168Z</time></trkpt><trkpt lat="46.135375" lon="13.5604737"><ele>528.0</ele><time>2026-05-02T07:40:28.169Z</time></trkpt><trkpt lat="46.1354506" lon="13.5605387"><ele>528.0</ele><time>2026-05-02T07:40:29.168Z</time></trkpt><trkpt lat="46.1355249" lon="13.5606078"><ele>528.0</ele><time>2026-05-02T07:40:30.169Z</time></trkpt><trkpt lat="46.1355967" lon="13.5606713"><ele>528.0</ele><time>2026-05-02T07:40:31.169Z</time></trkpt><trkpt lat="46.1356749" lon="13.5607224"><ele>528.0</ele><time>2026-05-02T07:40:32.168Z</time></trkpt><trkpt lat="46.1357547" lon="13.5607656"><ele>528.0</ele><time>2026-05-02T07:40:33.168Z</time></trkpt><trkpt lat="46.1358217" lon="13.5607876"><ele>528.0</ele><time>2026-05-02T07:40:34.168Z</time></trkpt><trkpt lat="46.1359047" lon="13.5607905"><ele>531.1666666666666</ele><time>2026-05-02T07:40:35.169Z</time></trkpt><trkpt lat="46.1359822" lon="13.5607811"><ele>534.3333333333334</ele><time>2026-05-02T07:40:36.168Z</time></trkpt><trkpt lat="46.1360749" lon="13.5607726"><ele>537.5</ele><time>2026-05-02T07:40:37.168Z</time></trkpt><trkpt lat="46.1361465" lon="13.5607926"><ele>540.6666666666667</ele><time>2026-05-02T07:40:38.168Z</time></trkpt><trkpt lat="46.1362666" lon="13.5608622"><ele>543.8333333333334</ele><time>2026-05-02T07:40:40.169Z</time></trkpt><trkpt lat="46.1363278" lon="13.5609279"><ele>547.0</ele><time>2026-05-02T07:40:41.168Z</time></trkpt><trkpt lat="46.1363935" lon="13.561033"><ele>547.0</ele><time>2026-05-02T07:40:42.168Z</time></trkpt><trkpt lat="46.1364643" lon="13.5611529"><ele>547.0</ele><time>2026-05-02T07:40:43.169Z</time></trkpt><trkpt lat="46.1365243" lon="13.5612594"><ele>547.0</ele><time>2026-05-02T07:40:44.168Z</time></trkpt><trkpt lat="46.1365847" lon="13.5613474"><ele>547.0</ele><time>2026-05-02T07:40:45.169Z</time></trkpt><trkpt lat="46.1366306" lon="13.5614222"><ele>547.0</ele><time>2026-05-02T07:40:46.169Z</time></trkpt><trkpt lat="46.1366834" lon="13.5614955"><ele>547.0</ele><time>2026-05-02T07:40:47.169Z</time></trkpt><trkpt lat="46.1367614" lon="13.5615691"><ele>546.6666666666667</ele><time>2026-05-02T07:40:48.168Z</time></trkpt><trkpt lat="46.1368391" lon="13.5616556"><ele>546.3333333333334</ele><time>2026-05-02T07:40:49.168Z</time></trkpt><trkpt lat="46.1369058" lon="13.5617395"><ele>546.0</ele><time>2026-05-02T07:40:50.169Z</time></trkpt><trkpt lat="46.1369642" lon="13.5618254"><ele>545.6666666666666</ele><time>2026-05-02T07:40:51.168Z</time></trkpt><trkpt lat="46.1370225" lon="13.5619133"><ele>545.3333333333333</ele><time>2026-05-02T07:40:52.169Z</time></trkpt><trkpt lat="46.1370762" lon="13.561999"><ele>545.0</ele><time>2026-05-02T07:40:53.169Z</time></trkpt><trkpt lat="46.1371189" lon="13.5620912"><ele>542.8333333333333</ele><time>2026-05-02T07:40:54.169Z</time></trkpt><trkpt lat="46.1371521" lon="13.5621884"><ele>540.6666666666666</ele><time>2026-05-02T07:40:55.169Z</time></trkpt><trkpt lat="46.1371692" lon="13.5623135"><ele>538.5</ele><time>2026-05-02T07:40:56.168Z</time></trkpt><trkpt lat="46.1371839" lon="13.5624265"><ele>536.3333333333334</ele><time>2026-05-02T07:40:57.168Z</time></trkpt><trkpt lat="46.1371916" lon="13.5625639"><ele>534.1666666666667</ele><time>2026-05-02T07:40:59.169Z</time></trkpt><trkpt lat="46.1371796" lon="13.5627159"><ele>532.0</ele><time>2026-05-02T07:41:01.168Z</time></trkpt><trkpt lat="46.1371608" lon="13.562818"><ele>531.2</ele><time>2026-05-02T07:41:02.168Z</time></trkpt><trkpt lat="46.1371632" lon="13.5629803"><ele>530.4000000000001</ele><time>2026-05-02T07:41:04.168Z</time></trkpt><trkpt lat="46.1371941" lon="13.563107"><ele>529.5999999999999</ele><time>2026-05-02T07:41:06.168Z</time></trkpt><trkpt lat="46.1372482" lon="13.5632439"><ele>528.8</ele><time>2026-05-02T07:41:08.168Z</time></trkpt><trkpt lat="46.1373247" lon="13.5633843"><ele>528.0</ele><time>2026-05-02T07:41:10.168Z</time></trkpt><trkpt lat="46.1374098" lon="13.563488"><ele>531.0</ele><time>2026-05-02T07:41:12.169Z</time></trkpt><trkpt lat="46.1375147" lon="13.5635608"><ele>534.0</ele><time>2026-05-02T07:41:14.169Z</time></trkpt><trkpt lat="46.1375881" lon="13.5636081"><ele>537.0</ele><time>2026-05-02T07:41:15.168Z</time></trkpt><trkpt lat="46.1376763" lon="13.5636712"><ele>540.0</ele><time>2026-05-02T07:41:16.168Z</time></trkpt><trkpt lat="46.1377625" lon="13.5637224"><ele>543.0</ele><time>2026-05-02T07:41:17.168Z</time></trkpt><trkpt lat="46.1378397" lon="13.5637725"><ele>544.4</ele><time>2026-05-02T07:41:18.168Z</time></trkpt><trkpt lat="46.1379145" lon="13.563829"><ele>545.8</ele><time>2026-05-02T07:41:19.168Z</time></trkpt><trkpt lat="46.1379873" lon="13.5638737"><ele>547.2</ele><time>2026-05-02T07:41:20.169Z</time></trkpt><trkpt lat="46.138054" lon="13.5639045"><ele>548.6</ele><time>2026-05-02T07:41:21.169Z</time></trkpt><trkpt lat="46.138171" lon="13.5639166"><ele>550.0</ele><time>2026-05-02T07:41:23.168Z</time></trkpt><trkpt lat="46.1382832" lon="13.5639629"><ele>550.6666666666667</ele><time>2026-05-02T07:41:25.169Z</time></trkpt><trkpt lat="46.1383662" lon="13.5640978"><ele>551.3333333333334</ele><time>2026-05-02T07:41:27.169Z</time></trkpt><trkpt lat="46.1384067" lon="13.5641695"><ele>552.0</ele><time>2026-05-02T07:41:28.168Z</time></trkpt><trkpt lat="46.1385049" lon="13.5642483"><ele>552.6666666666666</ele><time>2026-05-02T07:41:30.168Z</time></trkpt><trkpt lat="46.1385711" lon="13.5642752"><ele>553.3333333333333</ele><time>2026-05-02T07:41:31.168Z</time></trkpt><trkpt lat="46.1386374" lon="13.5642942"><ele>554.0</ele><time>2026-05-02T07:41:32.168Z</time></trkpt><trkpt lat="46.1387545" lon="13.5643241"><ele>554.0</ele><time>2026-05-02T07:41:34.169Z</time></trkpt><trkpt lat="46.1388626" lon="13.5643"><ele>554.0</ele><time>2026-05-02T07:41:36.168Z</time></trkpt><trkpt lat="46.1389909" lon="13.5642767"><ele>554.0</ele><time>2026-05-02T07:41:38.168Z</time></trkpt><trkpt lat="46.1390736" lon="13.5642813"><ele>554.0</ele><time>2026-05-02T07:41:39.169Z</time></trkpt><trkpt lat="46.1391652" lon="13.5643005"><ele>554.0</ele><time>2026-05-02T07:41:40.169Z</time></trkpt><trkpt lat="46.1392457" lon="13.5643109"><ele>550.8</ele><time>2026-05-02T07:41:41.168Z</time></trkpt><trkpt lat="46.1393621" lon="13.5643155"><ele>547.5999999999999</ele><time>2026-05-02T07:41:43.169Z</time></trkpt><trkpt lat="46.1394615" lon="13.5642778"><ele>544.4</ele><time>2026-05-02T07:41:45.169Z</time></trkpt><trkpt lat="46.1395254" lon="13.5642331"><ele>541.1999999999999</ele><time>2026-05-02T07:41:46.168Z</time></trkpt><trkpt lat="46.1395841" lon="13.564181"><ele>538.0</ele><time>2026-05-02T07:41:47.168Z</time></trkpt><trkpt lat="46.13968" lon="13.5641137"><ele>538.0</ele><time>2026-05-02T07:41:49.169Z</time></trkpt><trkpt lat="46.1397617" lon="13.5640925"><ele>538.0</ele><time>2026-05-02T07:41:51.168Z</time></trkpt><trkpt lat="46.1398432" lon="13.5641395"><ele>538.0</ele><time>2026-05-02T07:41:53.169Z</time></trkpt><trkpt lat="46.1399081" lon="13.5642425"><ele>538.0</ele><time>2026-05-02T07:41:55.169Z</time></trkpt><trkpt lat="46.1399622" lon="13.5643815"><ele>538.0</ele><time>2026-05-02T07:41:57.169Z</time></trkpt><trkpt lat="46.1400069" lon="13.5645399"><ele>543.0</ele><time>2026-05-02T07:41:59.168Z</time></trkpt><trkpt lat="46.1400413" lon="13.5646178"><ele>548.0</ele><time>2026-05-02T07:42:00.168Z</time></trkpt><trkpt lat="46.1401262" lon="13.5647035"><ele>553.0</ele><time>2026-05-02T07:42:02.168Z</time></trkpt><trkpt lat="46.1402183" lon="13.5647813"><ele>558.0</ele><time>2026-05-02T07:42:04.168Z</time></trkpt><trkpt lat="46.1402994" lon="13.5648778"><ele>563.0</ele><time>2026-05-02T07:42:06.168Z</time></trkpt><trkpt lat="46.1403926" lon="13.5650193"><ele>563.0</ele><time>2026-05-02T07:42:08.168Z</time></trkpt><trkpt lat="46.1404613" lon="13.5651051"><ele>563.0</ele><time>2026-05-02T07:42:09.168Z</time></trkpt><trkpt lat="46.1405259" lon="13.5651552"><ele>563.0</ele><time>2026-05-02T07:42:10.168Z</time></trkpt><trkpt lat="46.1405835" lon="13.5651964"><ele>563.0</ele><time>2026-05-02T07:42:11.168Z</time></trkpt><trkpt lat="46.1406546" lon="13.5653007"><ele>563.0</ele><time>2026-05-02T07:42:13.169Z</time></trkpt><trkpt lat="46.1406953" lon="13.5653789"><ele>563.0</ele><time>2026-05-02T07:42:14.168Z</time></trkpt><trkpt lat="46.1407484" lon="13.5654685"><ele>560.8333333333333</ele><time>2026-05-02T07:42:15.169Z</time></trkpt><trkpt lat="46.1408033" lon="13.5655583"><ele>558.6666666666666</ele><time>2026-05-02T07:42:16.169Z</time></trkpt><trkpt lat="46.1408578" lon="13.5656322"><ele>556.5</ele><time>2026-05-02T07:42:17.168Z</time></trkpt><trkpt lat="46.140916" lon="13.5657044"><ele>554.3333333333334</ele><time>2026-05-02T07:42:18.168Z</time></trkpt><trkpt lat="46.1409781" lon="13.5657636"><ele>552.1666666666667</ele><time>2026-05-02T07:42:19.169Z</time></trkpt><trkpt lat="46.1410533" lon="13.5658119"><ele>550.0</ele><time>2026-05-02T07:42:20.168Z</time></trkpt><trkpt lat="46.141129" lon="13.5658337"><ele>550.0</ele><time>2026-05-02T07:42:21.169Z</time></trkpt><trkpt lat="46.1411969" lon="13.5658817"><ele>550.0</ele><time>2026-05-02T07:42:23.168Z</time></trkpt><trkpt lat="46.1412136" lon="13.5660027"><ele>550.0</ele><time>2026-05-02T07:42:25.168Z</time></trkpt><trkpt lat="46.1412059" lon="13.5661897"><ele>550.0</ele><time>2026-05-02T07:42:27.168Z</time></trkpt><trkpt lat="46.1412345" lon="13.5662994"><ele>550.0</ele><time>2026-05-02T07:42:28.168Z</time></trkpt><trkpt lat="46.1412493" lon="13.5663882"><ele>550.0</ele><time>2026-05-02T07:42:29.168Z</time></trkpt><trkpt lat="46.1412521" lon="13.5665196"><ele>552.3333333333334</ele><time>2026-05-02T07:42:31.168Z</time></trkpt><trkpt lat="46.1412097" lon="13.5666581"><ele>554.6666666666667</ele><time>2026-05-02T07:42:33.168Z</time></trkpt><trkpt lat="46.1411887" lon="13.5667517"><ele>557.0</ele><time>2026-05-02T07:42:34.168Z</time></trkpt><trkpt lat="46.1411718" lon="13.5668522"><ele>559.3333333333334</ele><time>2026-05-02T07:42:35.168Z</time></trkpt><trkpt lat="46.1411571" lon="13.5669572"><ele>561.6666666666666</ele><time>2026-05-02T07:42:36.167Z</time></trkpt><trkpt lat="46.1411439" lon="13.5670581"><ele>564.0</ele><time>2026-05-02T07:42:37.167Z</time></trkpt><trkpt lat="46.1411415" lon="13.5672026"><ele>564.6666666666666</ele><time>2026-05-02T07:42:39.167Z</time></trkpt><trkpt lat="46.1411768" lon="13.5673562"><ele>565.3333333333334</ele><time>2026-05-02T07:42:41.167Z</time></trkpt><trkpt lat="46.1411925" lon="13.567458"><ele>566.0</ele><time>2026-05-02T07:42:42.167Z</time></trkpt><trkpt lat="46.1412194" lon="13.5675572"><ele>566.6666666666667</ele><time>2026-05-02T07:42:43.168Z</time></trkpt><trkpt lat="46.1412438" lon="13.5676566"><ele>567.3333333333334</ele><time>2026-05-02T07:42:44.167Z</time></trkpt><trkpt lat="46.1412602" lon="13.5677633"><ele>568.0</ele><time>2026-05-02T07:42:45.168Z</time></trkpt><trkpt lat="46.1412638" lon="13.567881"><ele>568.6666666666667</ele><time>2026-05-02T07:42:46.167Z</time></trkpt><trkpt lat="46.1412677" lon="13.5679968"><ele>569.3333333333334</ele><time>2026-05-02T07:42:47.168Z</time></trkpt><trkpt lat="46.1412666" lon="13.5681248"><ele>570.0</ele><time>2026-05-02T07:42:48.168Z</time></trkpt><trkpt lat="46.1412641" lon="13.5682635"><ele>570.6666666666666</ele><time>2026-05-02T07:42:49.167Z</time></trkpt><trkpt lat="46.1412659" lon="13.5683918"><ele>571.3333333333333</ele><time>2026-05-02T07:42:50.167Z</time></trkpt><trkpt lat="46.1412705" lon="13.5684825"><ele>572.0</ele><time>2026-05-02T07:42:51.167Z</time></trkpt><trkpt lat="46.1412583" lon="13.5686506"><ele>572.8000000000001</ele><time>2026-05-02T07:42:53.168Z</time></trkpt><trkpt lat="46.141251" lon="13.5687782"><ele>573.6</ele><time>2026-05-02T07:42:54.167Z</time></trkpt><trkpt lat="46.1412498" lon="13.5689335"><ele>574.4000000000001</ele><time>2026-05-02T07:42:55.167Z</time></trkpt><trkpt lat="46.1412442" lon="13.5690805"><ele>575.2</ele><time>2026-05-02T07:42:56.167Z</time></trkpt><trkpt lat="46.1412452" lon="13.5691915"><ele>576.0</ele><time>2026-05-02T07:42:57.167Z</time></trkpt><trkpt lat="46.1412613" lon="13.5693019"><ele>576.0</ele><time>2026-05-02T07:42:58.168Z</time></trkpt><trkpt lat="46.1412643" lon="13.5693975"><ele>576.0</ele><time>2026-05-02T07:42:59.167Z</time></trkpt><trkpt lat="46.1412687" lon="13.569559"><ele>576.0</ele><time>2026-05-02T07:43:01.168Z</time></trkpt><trkpt lat="46.1412617" lon="13.5696855"><ele>576.0</ele><time>2026-05-02T07:43:03.167Z</time></trkpt><trkpt lat="46.1412508" lon="13.5698668"><ele>576.0</ele><time>2026-05-02T07:43:05.167Z</time></trkpt><trkpt lat="46.1412485" lon="13.5699589"><ele>575.8333333333334</ele><time>2026-05-02T07:43:06.167Z</time></trkpt><trkpt lat="46.1412496" lon="13.570095"><ele>575.6666666666666</ele><time>2026-05-02T07:43:08.167Z</time></trkpt><trkpt lat="46.1412789" lon="13.5702039"><ele>575.5</ele><time>2026-05-02T07:43:10.167Z</time></trkpt><trkpt lat="46.1413499" lon="13.5702704"><ele>575.3333333333333</ele><time>2026-05-02T07:43:12.168Z</time></trkpt><trkpt lat="46.1414344" lon="13.5703279"><ele>575.1666666666666</ele><time>2026-05-02T07:43:14.167Z</time></trkpt><trkpt lat="46.1415147" lon="13.5703336"><ele>575.0</ele><time>2026-05-02T07:43:15.167Z</time></trkpt><trkpt lat="46.1416192" lon="13.5703442"><ele>571.6666666666666</ele><time>2026-05-02T07:43:16.167Z</time></trkpt><trkpt lat="46.1417166" lon="13.570352"><ele>568.3333333333333</ele><time>2026-05-02T07:43:17.168Z</time></trkpt><trkpt lat="46.1417858" lon="13.5703598"><ele>565.0</ele><time>2026-05-02T07:43:18.167Z</time></trkpt><trkpt lat="46.1418484" lon="13.5703808"><ele>561.6666666666666</ele><time>2026-05-02T07:43:19.168Z</time></trkpt><trkpt lat="46.141923" lon="13.5704103"><ele>558.3333333333334</ele><time>2026-05-02T07:43:20.167Z</time></trkpt><trkpt lat="46.1420032" lon="13.5704363"><ele>555.0</ele><time>2026-05-02T07:43:21.167Z</time></trkpt><trkpt lat="46.1420799" lon="13.5704655"><ele>555.0</ele><time>2026-05-02T07:43:22.168Z</time></trkpt><trkpt lat="46.1421641" lon="13.5704954"><ele>555.0</ele><time>2026-05-02T07:43:23.167Z</time></trkpt><trkpt lat="46.1422432" lon="13.570527"><ele>555.0</ele><time>2026-05-02T07:43:24.167Z</time></trkpt><trkpt lat="46.1423182" lon="13.5705554"><ele>555.0</ele><time>2026-05-02T07:43:25.167Z</time></trkpt><trkpt lat="46.1423924" lon="13.5705814"><ele>555.0</ele><time>2026-05-02T07:43:26.168Z</time></trkpt><trkpt lat="46.1425033" lon="13.5705684"><ele>555.0</ele><time>2026-05-02T07:43:28.168Z</time></trkpt><trkpt lat="46.1425992" lon="13.5705535"><ele>552.6666666666666</ele><time>2026-05-02T07:43:30.167Z</time></trkpt><trkpt lat="46.1426689" lon="13.5705532"><ele>550.3333333333334</ele><time>2026-05-02T07:43:32.168Z</time></trkpt><trkpt lat="46.1427013" lon="13.5706335"><ele>548.0</ele><time>2026-05-02T07:43:34.167Z</time></trkpt><trkpt lat="46.1426817" lon="13.5707904"><ele>545.6666666666667</ele><time>2026-05-02T07:43:36.167Z</time></trkpt><trkpt lat="46.1426354" lon="13.5709555"><ele>543.3333333333334</ele><time>2026-05-02T07:43:38.168Z</time></trkpt><trkpt lat="46.1425978" lon="13.571034"><ele>541.0</ele><time>2026-05-02T07:43:39.167Z</time></trkpt><trkpt lat="46.1425568" lon="13.5711987"><ele>541.0</ele><time>2026-05-02T07:43:41.168Z</time></trkpt><trkpt lat="46.1425418" lon="13.5713465"><ele>541.0</ele><time>2026-05-02T07:43:43.167Z</time></trkpt><trkpt lat="46.1425509" lon="13.571452"><ele>541.0</ele><time>2026-05-02T07:43:45.168Z</time></trkpt><trkpt lat="46.1425998" lon="13.571528"><ele>541.0</ele><time>2026-05-02T07:43:47.167Z</time></trkpt><trkpt lat="46.1426865" lon="13.5715735"><ele>541.0</ele><time>2026-05-02T07:43:49.168Z</time></trkpt><trkpt lat="46.1427731" lon="13.5715988"><ele>541.0</ele><time>2026-05-02T07:43:51.168Z</time></trkpt><trkpt lat="46.1428567" lon="13.5715644"><ele>541.0</ele><time>2026-05-02T07:43:53.167Z</time></trkpt><trkpt lat="46.1429749" lon="13.5715256"><ele>541.0</ele><time>2026-05-02T07:43:55.168Z</time></trkpt><trkpt lat="46.1430385" lon="13.5715158"><ele>541.0</ele><time>2026-05-02T07:43:56.167Z</time></trkpt><trkpt lat="46.1431373" lon="13.5715386"><ele>541.0</ele><time>2026-05-02T07:43:58.167Z</time></trkpt><trkpt lat="46.1432373" lon="13.5715886"><ele>541.0</ele><time>2026-05-02T07:44:00.167Z</time></trkpt><trkpt lat="46.1432973" lon="13.5716193"><ele>538.6666666666667</ele><time>2026-05-02T07:44:01.167Z</time></trkpt><trkpt lat="46.1434151" lon="13.5716127"><ele>536.3333333333334</ele><time>2026-05-02T07:44:03.167Z</time></trkpt><trkpt lat="46.1434787" lon="13.5715663"><ele>534.0</ele><time>2026-05-02T07:44:04.168Z</time></trkpt><trkpt lat="46.1435509" lon="13.5715182"><ele>531.6666666666666</ele><time>2026-05-02T07:44:05.167Z</time></trkpt><trkpt lat="46.1436143" lon="13.5714699"><ele>529.3333333333333</ele><time>2026-05-02T07:44:06.167Z</time></trkpt><trkpt lat="46.1436804" lon="13.5714255"><ele>527.0</ele><time>2026-05-02T07:44:07.168Z</time></trkpt><trkpt lat="46.143749" lon="13.5713936"><ele>527.0</ele><time>2026-05-02T07:44:08.167Z</time></trkpt><trkpt lat="46.1438189" lon="13.5713743"><ele>527.0</ele><time>2026-05-02T07:44:09.167Z</time></trkpt><trkpt lat="46.1438944" lon="13.5713548"><ele>527.0</ele><time>2026-05-02T07:44:10.167Z</time></trkpt><trkpt lat="46.1439777" lon="13.5713334"><ele>527.0</ele><time>2026-05-02T07:44:11.168Z</time></trkpt><trkpt lat="46.1440568" lon="13.5713163"><ele>527.0</ele><time>2026-05-02T07:44:12.167Z</time></trkpt><trkpt lat="46.144135" lon="13.5713101"><ele>527.0</ele><time>2026-05-02T07:44:13.167Z</time></trkpt><trkpt lat="46.1442058" lon="13.5713144"><ele>527.0</ele><time>2026-05-02T07:44:14.167Z</time></trkpt><trkpt lat="46.1442704" lon="13.5713282"><ele>527.0</ele><time>2026-05-02T07:44:15.167Z</time></trkpt><trkpt lat="46.1443947" lon="13.5713405"><ele>527.0</ele><time>2026-05-02T07:44:17.167Z</time></trkpt><trkpt lat="46.1445105" lon="13.5713006"><ele>527.0</ele><time>2026-05-02T07:44:19.167Z</time></trkpt><trkpt lat="46.1445942" lon="13.5712571"><ele>527.0</ele><time>2026-05-02T07:44:21.168Z</time></trkpt><trkpt lat="46.1447074" lon="13.5712238"><ele>527.0</ele><time>2026-05-02T07:44:23.167Z</time></trkpt><trkpt lat="46.1447788" lon="13.5712369"><ele>527.0</ele><time>2026-05-02T07:44:24.167Z</time></trkpt><trkpt lat="46.1448984" lon="13.5712493"><ele>527.0</ele><time>2026-05-02T07:44:26.167Z</time></trkpt><trkpt lat="46.1450059" lon="13.5712615"><ele>527.0</ele><time>2026-05-02T07:44:28.167Z</time></trkpt><trkpt lat="46.1450972" lon="13.5713167"><ele>527.0</ele><time>2026-05-02T07:44:30.168Z</time></trkpt><trkpt lat="46.1451573" lon="13.571421"><ele>523.8333333333333</ele><time>2026-05-02T07:44:32.167Z</time></trkpt><trkpt lat="46.145185" lon="13.5715254"><ele>520.6666666666666</ele><time>2026-05-02T07:44:34.167Z</time></trkpt><trkpt lat="46.1451873" lon="13.5716348"><ele>517.5</ele><time>2026-05-02T07:44:36.167Z</time></trkpt><trkpt lat="46.1451842" lon="13.5717458"><ele>514.3333333333334</ele><time>2026-05-02T07:44:38.168Z</time></trkpt><trkpt lat="46.145172" lon="13.5718741"><ele>511.1666666666667</ele><time>2026-05-02T07:44:40.167Z</time></trkpt><trkpt lat="46.1451574" lon="13.5720241"><ele>508.0</ele><time>2026-05-02T07:44:42.167Z</time></trkpt><trkpt lat="46.1451387" lon="13.5721691"><ele>508.00000000000006</ele><time>2026-05-02T07:44:44.167Z</time></trkpt><trkpt lat="46.145119" lon="13.5722618"><ele>508.0</ele><time>2026-05-02T07:44:45.167Z</time></trkpt><trkpt lat="46.1450801" lon="13.5723598"><ele>508.0</ele><time>2026-05-02T07:44:46.167Z</time></trkpt><trkpt lat="46.1450426" lon="13.5724526"><ele>508.0</ele><time>2026-05-02T07:44:47.167Z</time></trkpt><trkpt lat="46.1450051" lon="13.5725371"><ele>508.00000000000006</ele><time>2026-05-02T07:44:48.167Z</time></trkpt><trkpt lat="46.1449339" lon="13.5727002"><ele>508.0</ele><time>2026-05-02T07:44:50.167Z</time></trkpt><trkpt lat="46.1449044" lon="13.5727844"><ele>513.6</ele><time>2026-05-02T07:44:51.167Z</time></trkpt><trkpt lat="46.1448559" lon="13.5729129"><ele>519.1999999999999</ele><time>2026-05-02T07:44:53.167Z</time></trkpt><trkpt lat="46.1448129" lon="13.573049"><ele>524.8</ele><time>2026-05-02T07:44:55.167Z</time></trkpt><trkpt lat="46.1448263" lon="13.5732261"><ele>530.4</ele><time>2026-05-02T07:44:57.168Z</time></trkpt><trkpt lat="46.1448462" lon="13.5733243"><ele>536.0</ele><time>2026-05-02T07:44:58.168Z</time></trkpt><trkpt lat="46.1448609" lon="13.5734225"><ele>527.4</ele><time>2026-05-02T07:44:59.167Z</time></trkpt><trkpt lat="46.1448989" lon="13.5734971"><ele>518.8</ele><time>2026-05-02T07:45:00.167Z</time></trkpt><trkpt lat="46.1449531" lon="13.5736576"><ele>510.19999999999993</ele><time>2026-05-02T07:45:02.167Z</time></trkpt><trkpt lat="46.1449812" lon="13.573739"><ele>501.59999999999997</ele><time>2026-05-02T07:45:03.168Z</time></trkpt><trkpt lat="46.1450291" lon="13.573896"><ele>493.0</ele><time>2026-05-02T07:45:05.167Z</time></trkpt><trkpt lat="46.145035" lon="13.574053"><ele>493.59999999999997</ele><time>2026-05-02T07:45:07.167Z</time></trkpt><trkpt lat="46.1449853" lon="13.5742217"><ele>494.19999999999993</ele><time>2026-05-02T07:45:09.167Z</time></trkpt><trkpt lat="46.1449395" lon="13.5743045"><ele>494.8</ele><time>2026-05-02T07:45:10.168Z</time></trkpt><trkpt lat="46.1448905" lon="13.5743857"><ele>495.4</ele><time>2026-05-02T07:45:11.167Z</time></trkpt><trkpt lat="46.1448305" lon="13.5745172"><ele>496.0</ele><time>2026-05-02T07:45:13.168Z</time></trkpt><trkpt lat="46.1447536" lon="13.5746214"><ele>496.00000000000006</ele><time>2026-05-02T07:45:15.167Z</time></trkpt><trkpt lat="46.1446927" lon="13.5747084"><ele>496.0</ele><time>2026-05-02T07:45:17.167Z</time></trkpt><trkpt lat="46.1446503" lon="13.5748027"><ele>496.0</ele><time>2026-05-02T07:45:19.167Z</time></trkpt><trkpt lat="46.1446491" lon="13.5749092"><ele>496.0</ele><time>2026-05-02T07:45:21.168Z</time></trkpt><trkpt lat="46.1446591" lon="13.575028"><ele>496.00000000000006</ele><time>2026-05-02T07:45:23.167Z</time></trkpt><trkpt lat="46.1446814" lon="13.5751918"><ele>496.0</ele><time>2026-05-02T07:45:25.167Z</time></trkpt><trkpt lat="46.1446998" lon="13.5752801"><ele>490.6</ele><time>2026-05-02T07:45:26.168Z</time></trkpt><trkpt lat="46.1447105" lon="13.5754258"><ele>485.20000000000005</ele><time>2026-05-02T07:45:28.167Z</time></trkpt><trkpt lat="46.1446867" lon="13.5755482"><ele>479.79999999999995</ele><time>2026-05-02T07:45:30.167Z</time></trkpt><trkpt lat="46.144627" lon="13.5756464"><ele>474.4</ele><time>2026-05-02T07:45:32.167Z</time></trkpt><trkpt lat="46.1445519" lon="13.5757197"><ele>469.0</ele><time>2026-05-02T07:45:42.168Z</time></trkpt><trkpt lat="46.1444763" lon="13.5757563"><ele>469.00000000000006</ele><time>2026-05-02T07:45:44.168Z</time></trkpt><trkpt lat="46.1443619" lon="13.5757998"><ele>469.0</ele><time>2026-05-02T07:45:46.167Z</time></trkpt><trkpt lat="46.1442949" lon="13.575819"><ele>469.0</ele><time>2026-05-02T07:45:47.168Z</time></trkpt><trkpt lat="46.1441746" lon="13.5758589"><ele>469.0</ele><time>2026-05-02T07:45:49.168Z</time></trkpt><trkpt lat="46.1441077" lon="13.5758803"><ele>469.00000000000006</ele><time>2026-05-02T07:45:50.167Z</time></trkpt><trkpt lat="46.1440419" lon="13.5759088"><ele>469.0</ele><time>2026-05-02T07:45:51.167Z</time></trkpt><trkpt lat="46.1439737" lon="13.5759373"><ele>474.2</ele><time>2026-05-02T07:45:52.167Z</time></trkpt><trkpt lat="46.1439116" lon="13.5759601"><ele>479.4</ele><time>2026-05-02T07:45:53.168Z</time></trkpt><trkpt lat="46.1437891" lon="13.5760239"><ele>484.6</ele><time>2026-05-02T07:45:55.168Z</time></trkpt><trkpt lat="46.1436814" lon="13.5760967"><ele>489.8</ele><time>2026-05-02T07:45:57.167Z</time></trkpt><trkpt lat="46.1436079" lon="13.5761973"><ele>495.0</ele><time>2026-05-02T07:45:59.167Z</time></trkpt><trkpt lat="46.1435867" lon="13.576293"><ele>494.99999999999994</ele><time>2026-05-02T07:46:01.167Z</time></trkpt><trkpt lat="46.1436272" lon="13.5763949"><ele>495.0</ele><time>2026-05-02T07:46:03.167Z</time></trkpt><trkpt lat="46.1436898" lon="13.5764547"><ele>494.99999999999994</ele><time>2026-05-02T07:46:05.168Z</time></trkpt><trkpt lat="46.1437513" lon="13.5765175"><ele>494.99999999999994</ele><time>2026-05-02T07:46:06.167Z</time></trkpt><trkpt lat="46.1438094" lon="13.5765559"><ele>495.0</ele><time>2026-05-02T07:46:07.167Z</time></trkpt><trkpt lat="46.1438687" lon="13.5766067"><ele>494.99999999999994</ele><time>2026-05-02T07:46:08.168Z</time></trkpt><trkpt lat="46.143924" lon="13.5766655"><ele>494.99999999999994</ele><time>2026-05-02T07:46:09.168Z</time></trkpt><trkpt lat="46.143985" lon="13.5767234"><ele>494.99999999999994</ele><time>2026-05-02T07:46:10.167Z</time></trkpt><trkpt lat="46.1440388" lon="13.5767876"><ele>495.0</ele><time>2026-05-02T07:46:11.168Z</time></trkpt><trkpt lat="46.1440844" lon="13.5768575"><ele>494.99999999999994</ele><time>2026-05-02T07:46:12.167Z</time></trkpt><trkpt lat="46.1441315" lon="13.5769388"><ele>494.99999999999994</ele><time>2026-05-02T07:46:13.168Z</time></trkpt><trkpt lat="46.1441688" lon="13.5770225"><ele>495.0</ele><time>2026-05-02T07:46:14.167Z</time></trkpt><trkpt lat="46.1442019" lon="13.577109"><ele>494.99999999999994</ele><time>2026-05-02T07:46:15.167Z</time></trkpt><trkpt lat="46.1442309" lon="13.5771949"><ele>494.99999999999994</ele><time>2026-05-02T07:46:16.167Z</time></trkpt><trkpt lat="46.1442736" lon="13.5773249"><ele>487.8</ele><time>2026-05-02T07:46:18.168Z</time></trkpt><trkpt lat="46.1442934" lon="13.5774363"><ele>480.6</ele><time>2026-05-02T07:46:20.167Z</time></trkpt><trkpt lat="46.1442629" lon="13.5775709"><ele>473.4</ele><time>2026-05-02T07:46:22.167Z</time></trkpt><trkpt lat="46.1442352" lon="13.5777158"><ele>466.2</ele><time>2026-05-02T07:46:24.168Z</time></trkpt><trkpt lat="46.1441803" lon="13.5778822"><ele>459.0</ele><time>2026-05-02T07:46:26.168Z</time></trkpt><trkpt lat="46.1441284" lon="13.5780226"><ele>458.6666666666667</ele><time>2026-05-02T07:46:28.168Z</time></trkpt><trkpt lat="46.1440902" lon="13.5781359"><ele>458.33333333333337</ele><time>2026-05-02T07:46:30.168Z</time></trkpt><trkpt lat="46.1440422" lon="13.57823"><ele>458.0</ele><time>2026-05-02T07:46:32.168Z</time></trkpt><trkpt lat="46.1440204" lon="13.5783162"><ele>457.6666666666667</ele><time>2026-05-02T07:46:34.168Z</time></trkpt><trkpt lat="46.1440982" lon="13.5783747"><ele>457.33333333333337</ele><time>2026-05-02T07:46:37.167Z</time></trkpt><trkpt lat="46.1441746" lon="13.5783908"><ele>457.0</ele><time>2026-05-02T07:46:39.167Z</time></trkpt><trkpt lat="46.1442969" lon="13.5784161"><ele>457.0</ele><time>2026-05-02T07:46:41.168Z</time></trkpt><trkpt lat="46.1443631" lon="13.5784358"><ele>457.00000000000006</ele><time>2026-05-02T07:46:42.167Z</time></trkpt><trkpt lat="46.1444289" lon="13.5784551"><ele>457.00000000000006</ele><time>2026-05-02T07:46:43.167Z</time></trkpt><trkpt lat="46.1445429" lon="13.5784853"><ele>457.0</ele><time>2026-05-02T07:46:45.167Z</time></trkpt><trkpt lat="46.1446658" lon="13.5784831"><ele>457.0</ele><time>2026-05-02T07:46:47.168Z</time></trkpt><trkpt lat="46.1447865" lon="13.5784772"><ele>455.6</ele><time>2026-05-02T07:46:49.167Z</time></trkpt><trkpt lat="46.1449165" lon="13.5784619"><ele>454.20000000000005</ele><time>2026-05-02T07:46:51.168Z</time></trkpt><trkpt lat="46.145019" lon="13.578459"><ele>452.8</ele><time>2026-05-02T07:46:53.168Z</time></trkpt><trkpt lat="46.1451031" lon="13.5785392"><ele>451.4</ele><time>2026-05-02T07:46:55.167Z</time></trkpt><trkpt lat="46.1451437" lon="13.5786106"><ele>450.0</ele><time>2026-05-02T07:46:56.168Z</time></trkpt><trkpt lat="46.145218" lon="13.5787384"><ele>450.0</ele><time>2026-05-02T07:46:58.168Z</time></trkpt><trkpt lat="46.1453172" lon="13.578825"><ele>450.0</ele><time>2026-05-02T07:47:00.167Z</time></trkpt><trkpt lat="46.145411" lon="13.5789046"><ele>450.0</ele><time>2026-05-02T07:47:02.168Z</time></trkpt><trkpt lat="46.1454742" lon="13.579041"><ele>450.0</ele><time>2026-05-02T07:47:04.167Z</time></trkpt><trkpt lat="46.1454814" lon="13.5791701"><ele>450.0</ele><time>2026-05-02T07:47:06.168Z</time></trkpt><trkpt lat="46.1454677" lon="13.579306"><ele>450.0</ele><time>2026-05-02T07:47:08.167Z</time></trkpt><trkpt lat="46.1454455" lon="13.5794289"><ele>450.0</ele><time>2026-05-02T07:47:10.167Z</time></trkpt><trkpt lat="46.1454535" lon="13.5795369"><ele>450.0</ele><time>2026-05-02T07:47:12.168Z</time></trkpt><trkpt lat="46.1454903" lon="13.5796803"><ele>450.0</ele><time>2026-05-02T07:47:14.167Z</time></trkpt><trkpt lat="46.1455362" lon="13.5798092"><ele>450.0</ele><time>2026-05-02T07:47:16.167Z</time></trkpt><trkpt lat="46.1456052" lon="13.5798981"><ele>447.5</ele><time>2026-05-02T07:47:19.166Z</time></trkpt><trkpt lat="46.1456649" lon="13.5799376"><ele>445.0</ele><time>2026-05-02T07:47:21.166Z</time></trkpt><trkpt lat="46.1457581" lon="13.5798527"><ele>442.5</ele><time>2026-05-02T07:47:23.166Z</time></trkpt><trkpt lat="46.1458128" lon="13.57979"><ele>440.0</ele><time>2026-05-02T07:47:24.167Z</time></trkpt><trkpt lat="46.1458975" lon="13.5797313"><ele>437.5</ele><time>2026-05-02T07:47:26.166Z</time></trkpt><trkpt lat="46.1459606" lon="13.5796646"><ele>435.0</ele><time>2026-05-02T07:47:28.167Z</time></trkpt><trkpt lat="46.1460046" lon="13.579525"><ele>432.0</ele><time>2026-05-02T07:47:30.166Z</time></trkpt><trkpt lat="46.1460531" lon="13.579392"><ele>429.0</ele><time>2026-05-02T07:47:32.166Z</time></trkpt><trkpt lat="46.1461063" lon="13.5793202"><ele>426.0</ele><time>2026-05-02T07:47:33.167Z</time></trkpt><trkpt lat="46.1461613" lon="13.5792372"><ele>423.0</ele><time>2026-05-02T07:47:34.167Z</time></trkpt><trkpt lat="46.1462149" lon="13.5791694"><ele>420.0</ele><time>2026-05-02T07:47:35.167Z</time></trkpt><trkpt lat="46.1462673" lon="13.5791134"><ele>417.0</ele><time>2026-05-02T07:47:36.167Z</time></trkpt><trkpt lat="46.1463606" lon="13.5790289"><ele>417.0</ele><time>2026-05-02T07:47:38.166Z</time></trkpt><trkpt lat="46.1464398" lon="13.5789398"><ele>417.0</ele><time>2026-05-02T07:47:40.166Z</time></trkpt><trkpt lat="46.1464752" lon="13.5788642"><ele>417.0</ele><time>2026-05-02T07:47:41.167Z</time></trkpt><trkpt lat="46.1465172" lon="13.5787825"><ele>417.0</ele><time>2026-05-02T07:47:42.167Z</time></trkpt><trkpt lat="46.1465559" lon="13.578709"><ele>417.0</ele><time>2026-05-02T07:47:43.166Z</time></trkpt><trkpt lat="46.1466218" lon="13.5785726"><ele>417.0</ele><time>2026-05-02T07:47:45.166Z</time></trkpt><trkpt lat="46.1467174" lon="13.5784691"><ele>414.0</ele><time>2026-05-02T07:47:47.166Z</time></trkpt><trkpt lat="46.1468077" lon="13.5783868"><ele>411.0</ele><time>2026-05-02T07:47:49.166Z</time></trkpt><trkpt lat="46.1469037" lon="13.5783289"><ele>408.0</ele><time>2026-05-02T07:47:51.166Z</time></trkpt><trkpt lat="46.1469921" lon="13.5782252"><ele>405.0</ele><time>2026-05-02T07:47:53.167Z</time></trkpt><trkpt lat="46.1470582" lon="13.5780889"><ele>402.0</ele><time>2026-05-02T07:47:55.166Z</time></trkpt><trkpt lat="46.1471235" lon="13.577976"><ele>402.0</ele><time>2026-05-02T07:47:57.167Z</time></trkpt><trkpt lat="46.1471779" lon="13.5778874"><ele>402.0</ele><time>2026-05-02T07:47:58.166Z</time></trkpt><trkpt lat="46.1472272" lon="13.5778094"><ele>402.0</ele><time>2026-05-02T07:47:59.167Z</time></trkpt><trkpt lat="46.1472776" lon="13.5777346"><ele>402.0</ele><time>2026-05-02T07:48:00.166Z</time></trkpt><trkpt lat="46.1473217" lon="13.5776563"><ele>402.0</ele><time>2026-05-02T07:48:01.166Z</time></trkpt><trkpt lat="46.1473792" lon="13.5775986"><ele>402.0</ele><time>2026-05-02T07:48:02.166Z</time></trkpt><trkpt lat="46.1474789" lon="13.5774877"><ele>401.6</ele><time>2026-05-02T07:48:04.166Z</time></trkpt><trkpt lat="46.1475751" lon="13.5774195"><ele>401.20000000000005</ele><time>2026-05-02T07:48:06.167Z</time></trkpt><trkpt lat="46.1476812" lon="13.5774131"><ele>400.8</ele><time>2026-05-02T07:48:08.166Z</time></trkpt><trkpt lat="46.1477887" lon="13.5774048"><ele>400.4</ele><time>2026-05-02T07:48:10.166Z</time></trkpt><trkpt lat="46.1478683" lon="13.577344"><ele>400.0</ele><time>2026-05-02T07:48:12.166Z</time></trkpt><trkpt lat="46.1479519" lon="13.5772259"><ele>400.00000000000006</ele><time>2026-05-02T07:48:14.166Z</time></trkpt><trkpt lat="46.1479933" lon="13.5771281"><ele>400.0</ele><time>2026-05-02T07:48:15.167Z</time></trkpt><trkpt lat="46.1480336" lon="13.5770456"><ele>400.0</ele><time>2026-05-02T07:48:16.167Z</time></trkpt><trkpt lat="46.1480717" lon="13.5769592"><ele>400.0</ele><time>2026-05-02T07:48:17.167Z</time></trkpt><trkpt lat="46.1481105" lon="13.5768623"><ele>400.0</ele><time>2026-05-02T07:48:18.167Z</time></trkpt><trkpt lat="46.1481549" lon="13.5767851"><ele>400.00000000000006</ele><time>2026-05-02T07:48:19.166Z</time></trkpt><trkpt lat="46.1482084" lon="13.5767269"><ele>400.0</ele><time>2026-05-02T07:48:20.167Z</time></trkpt><trkpt lat="46.1483095" lon="13.5766735"><ele>398.2</ele><time>2026-05-02T07:48:22.166Z</time></trkpt><trkpt lat="46.1484418" lon="13.5766297"><ele>396.4</ele><time>2026-05-02T07:48:24.166Z</time></trkpt><trkpt lat="46.1485204" lon="13.5766171"><ele>394.6</ele><time>2026-05-02T07:48:25.166Z</time></trkpt><trkpt lat="46.1485985" lon="13.5766017"><ele>392.8</ele><time>2026-05-02T07:48:26.166Z</time></trkpt><trkpt lat="46.1487163" lon="13.5765494"><ele>391.0</ele><time>2026-05-02T07:48:28.167Z</time></trkpt><trkpt lat="46.1488269" lon="13.5764701"><ele>391.00000000000006</ele><time>2026-05-02T07:48:30.166Z</time></trkpt><trkpt lat="46.1489228" lon="13.576419"><ele>391.0</ele><time>2026-05-02T07:48:32.167Z</time></trkpt><trkpt lat="46.1490202" lon="13.5764166"><ele>391.0</ele><time>2026-05-02T07:48:34.167Z</time></trkpt><trkpt lat="46.1490933" lon="13.576513"><ele>391.0</ele><time>2026-05-02T07:48:36.167Z</time></trkpt><trkpt lat="46.1491258" lon="13.5766099"><ele>391.00000000000006</ele><time>2026-05-02T07:48:37.166Z</time></trkpt><trkpt lat="46.1491581" lon="13.5767035"><ele>391.0</ele><time>2026-05-02T07:48:38.166Z</time></trkpt><trkpt lat="46.1491725" lon="13.5768072"><ele>391.1428571428571</ele><time>2026-05-02T07:48:39.166Z</time></trkpt><trkpt lat="46.1491965" lon="13.5769054"><ele>391.2857142857143</ele><time>2026-05-02T07:48:40.167Z</time></trkpt><trkpt lat="46.1492186" lon="13.5770067"><ele>391.42857142857144</ele><time>2026-05-02T07:48:41.167Z</time></trkpt><trkpt lat="46.1492344" lon="13.5771"><ele>391.57142857142856</ele><time>2026-05-02T07:48:42.166Z</time></trkpt><trkpt lat="46.1492577" lon="13.5771934"><ele>391.7142857142857</ele><time>2026-05-02T07:48:43.166Z</time></trkpt><trkpt lat="46.1492722" lon="13.5772822"><ele>391.85714285714283</ele><time>2026-05-02T07:48:44.167Z</time></trkpt><trkpt lat="46.1492909" lon="13.5773872"><ele>392.0</ele><time>2026-05-02T07:48:45.166Z</time></trkpt><trkpt lat="46.1493095" lon="13.5774994"><ele>395.8</ele><time>2026-05-02T07:48:46.166Z</time></trkpt><trkpt lat="46.1493355" lon="13.5776374"><ele>399.6</ele><time>2026-05-02T07:48:48.167Z</time></trkpt><trkpt lat="46.1493989" lon="13.5776931"><ele>403.40000000000003</ele><time>2026-05-02T07:48:51.167Z</time></trkpt><trkpt lat="46.149513" lon="13.5777256"><ele>407.20000000000005</ele><time>2026-05-02T07:48:53.167Z</time></trkpt><trkpt lat="46.1496175" lon="13.577715"><ele>411.0</ele><time>2026-05-02T07:48:55.167Z</time></trkpt><trkpt lat="46.1496817" lon="13.5776857"><ele>411.0</ele><time>2026-05-02T07:48:56.166Z</time></trkpt><trkpt lat="46.149751" lon="13.5776535"><ele>411.0</ele><time>2026-05-02T07:48:57.166Z</time></trkpt><trkpt lat="46.1498453" lon="13.5776415"><ele>411.0</ele><time>2026-05-02T07:48:59.167Z</time></trkpt><trkpt lat="46.1499169" lon="13.5777364"><ele>411.0</ele><time>2026-05-02T07:49:01.167Z</time></trkpt><trkpt lat="46.149973" lon="13.5778383"><ele>411.0</ele><time>2026-05-02T07:49:03.167Z</time></trkpt><trkpt lat="46.150064" lon="13.5778518"><ele>411.0</ele><time>2026-05-02T07:49:05.167Z</time></trkpt><trkpt lat="46.1501483" lon="13.5778204"><ele>412.6</ele><time>2026-05-02T07:49:07.166Z</time></trkpt><trkpt lat="46.1502387" lon="13.5777639"><ele>414.20000000000005</ele><time>2026-05-02T07:49:09.167Z</time></trkpt><trkpt lat="46.1503352" lon="13.5776934"><ele>415.79999999999995</ele><time>2026-05-02T07:49:11.166Z</time></trkpt><trkpt lat="46.1504275" lon="13.5776763"><ele>417.4</ele><time>2026-05-02T07:49:13.166Z</time></trkpt><trkpt lat="46.1505101" lon="13.5777379"><ele>419.0</ele><time>2026-05-02T07:49:15.166Z</time></trkpt><trkpt lat="46.1505563" lon="13.5778536"><ele>418.99999999999994</ele><time>2026-05-02T07:49:17.166Z</time></trkpt><trkpt lat="46.1506017" lon="13.5779439"><ele>419.0</ele><time>2026-05-02T07:49:19.166Z</time></trkpt><trkpt lat="46.1506635" lon="13.5779857"><ele>419.0</ele><time>2026-05-02T07:49:21.167Z</time></trkpt><trkpt lat="46.1507395" lon="13.577981"><ele>419.0</ele><time>2026-05-02T07:49:23.166Z</time></trkpt><trkpt lat="46.1508307" lon="13.5779092"><ele>418.99999999999994</ele><time>2026-05-02T07:49:25.167Z</time></trkpt><trkpt lat="46.1509502" lon="13.5778879"><ele>419.0</ele><time>2026-05-02T07:49:27.167Z</time></trkpt><trkpt lat="46.1510147" lon="13.5778912"><ele>416.16666666666663</ele><time>2026-05-02T07:49:28.167Z</time></trkpt><trkpt lat="46.1510897" lon="13.5779867"><ele>413.3333333333333</ele><time>2026-05-02T07:49:30.166Z</time></trkpt><trkpt lat="46.1511146" lon="13.5780742"><ele>410.5</ele><time>2026-05-02T07:49:31.166Z</time></trkpt><trkpt lat="46.1511261" lon="13.5781654"><ele>407.66666666666663</ele><time>2026-05-02T07:49:32.166Z</time></trkpt><trkpt lat="46.1511421" lon="13.578261"><ele>404.8333333333333</ele><time>2026-05-02T07:49:33.167Z</time></trkpt><trkpt lat="46.1511945" lon="13.5783726"><ele>402.0</ele><time>2026-05-02T07:49:35.166Z</time></trkpt><trkpt lat="46.151276" lon="13.578457"><ele>402.0</ele><time>2026-05-02T07:49:37.166Z</time></trkpt><trkpt lat="46.1513879" lon="13.5784752"><ele>402.0</ele><time>2026-05-02T07:49:39.167Z</time></trkpt><trkpt lat="46.1514587" lon="13.5784607"><ele>402.0</ele><time>2026-05-02T07:49:40.166Z</time></trkpt><trkpt lat="46.151532" lon="13.5784287"><ele>402.0</ele><time>2026-05-02T07:49:41.167Z</time></trkpt><trkpt lat="46.151597" lon="13.578397"><ele>402.0</ele><time>2026-05-02T07:49:42.166Z</time></trkpt><trkpt lat="46.1517113" lon="13.5783526"><ele>402.0</ele><time>2026-05-02T07:49:44.166Z</time></trkpt><trkpt lat="46.1518086" lon="13.5783412"><ele>398.40000000000003</ele><time>2026-05-02T07:49:46.166Z</time></trkpt><trkpt lat="46.1518788" lon="13.5784439"><ele>394.8</ele><time>2026-05-02T07:49:48.166Z</time></trkpt><trkpt lat="46.1519055" lon="13.5785666"><ele>391.2</ele><time>2026-05-02T07:49:50.167Z</time></trkpt><trkpt lat="46.1519127" lon="13.5786898"><ele>387.6</ele><time>2026-05-02T07:49:52.167Z</time></trkpt><trkpt lat="46.1518981" lon="13.5788369"><ele>384.0</ele><time>2026-05-02T07:49:54.166Z</time></trkpt><trkpt lat="46.1518668" lon="13.5789316"><ele>383.99999999999994</ele><time>2026-05-02T07:49:55.166Z</time></trkpt><trkpt lat="46.1518268" lon="13.5790216"><ele>384.0</ele><time>2026-05-02T07:49:56.167Z</time></trkpt><trkpt lat="46.1517854" lon="13.5790909"><ele>384.0</ele><time>2026-05-02T07:49:57.166Z</time></trkpt><trkpt lat="46.1517376" lon="13.5791596"><ele>384.0</ele><time>2026-05-02T07:49:58.166Z</time></trkpt><trkpt lat="46.1516874" lon="13.5792235"><ele>384.0</ele><time>2026-05-02T07:49:59.166Z</time></trkpt><trkpt lat="46.1516294" lon="13.5792918"><ele>383.99999999999994</ele><time>2026-05-02T07:50:00.167Z</time></trkpt><trkpt lat="46.1515828" lon="13.5793622"><ele>384.0</ele><time>2026-05-02T07:50:01.167Z</time></trkpt><trkpt lat="46.1515168" lon="13.5794798"><ele>385.1666666666667</ele><time>2026-05-02T07:50:03.166Z</time></trkpt><trkpt lat="46.1514791" lon="13.5796196"><ele>386.33333333333337</ele><time>2026-05-02T07:50:05.167Z</time></trkpt><trkpt lat="46.1514551" lon="13.5797447"><ele>387.5</ele><time>2026-05-02T07:50:07.166Z</time></trkpt><trkpt lat="46.1514674" lon="13.5798347"><ele>388.6666666666667</ele><time>2026-05-02T07:50:09.166Z</time></trkpt><trkpt lat="46.1515259" lon="13.5798871"><ele>389.83333333333337</ele><time>2026-05-02T07:50:11.166Z</time></trkpt><trkpt lat="46.1516158" lon="13.5799257"><ele>391.0</ele><time>2026-05-02T07:50:13.166Z</time></trkpt><trkpt lat="46.1517142" lon="13.5799771"><ele>391.0</ele><time>2026-05-02T07:50:15.166Z</time></trkpt><trkpt lat="46.1517853" lon="13.5800592"><ele>391.0</ele><time>2026-05-02T07:50:17.166Z</time></trkpt><trkpt lat="46.1518783" lon="13.5801578"><ele>391.0</ele><time>2026-05-02T07:50:19.167Z</time></trkpt><trkpt lat="46.1519466" lon="13.5802247"><ele>391.0</ele><time>2026-05-02T07:50:20.166Z</time></trkpt><trkpt lat="46.1519967" lon="13.5802896"><ele>391.0</ele><time>2026-05-02T07:50:21.166Z</time></trkpt><trkpt lat="46.1520517" lon="13.5804057"><ele>394.6666666666667</ele><time>2026-05-02T07:50:23.166Z</time></trkpt><trkpt lat="46.1520858" lon="13.5805523"><ele>398.33333333333337</ele><time>2026-05-02T07:50:25.166Z</time></trkpt><trkpt lat="46.1521381" lon="13.5806134"><ele>402.0</ele><time>2026-05-02T07:50:27.167Z</time></trkpt><trkpt lat="46.1522371" lon="13.5806816"><ele>405.66666666666663</ele><time>2026-05-02T07:50:29.166Z</time></trkpt><trkpt lat="46.1523091" lon="13.5807359"><ele>409.3333333333333</ele><time>2026-05-02T07:50:30.167Z</time></trkpt><trkpt lat="46.1523734" lon="13.5807643"><ele>413.0</ele><time>2026-05-02T07:50:31.167Z</time></trkpt><trkpt lat="46.1524324" lon="13.5808052"><ele>404.2</ele><time>2026-05-02T07:50:32.166Z</time></trkpt><trkpt lat="46.1525134" lon="13.5808333"><ele>395.4</ele><time>2026-05-02T07:50:34.166Z</time></trkpt><trkpt lat="46.1525713" lon="13.5809157"><ele>386.59999999999997</ele><time>2026-05-02T07:50:36.166Z</time></trkpt><trkpt lat="46.1525796" lon="13.5810129"><ele>377.79999999999995</ele><time>2026-05-02T07:50:38.166Z</time></trkpt><trkpt lat="46.1525116" lon="13.581147"><ele>369.0</ele><time>2026-05-02T07:50:40.166Z</time></trkpt><trkpt lat="46.1524374" lon="13.5812819"><ele>368.1666666666667</ele><time>2026-05-02T07:50:42.166Z</time></trkpt><trkpt lat="46.1523913" lon="13.5813451"><ele>367.3333333333333</ele><time>2026-05-02T07:50:43.166Z</time></trkpt><trkpt lat="46.1523387" lon="13.5814173"><ele>366.5</ele><time>2026-05-02T07:50:44.166Z</time></trkpt><trkpt lat="46.1522797" lon="13.5814916"><ele>365.66666666666663</ele><time>2026-05-02T07:50:45.166Z</time></trkpt><trkpt lat="46.1522368" lon="13.5815622"><ele>364.8333333333333</ele><time>2026-05-02T07:50:46.166Z</time></trkpt><trkpt lat="46.1521571" lon="13.5816939"><ele>364.0</ele><time>2026-05-02T07:50:48.167Z</time></trkpt><trkpt lat="46.1521007" lon="13.5818445"><ele>372.5</ele><time>2026-05-02T07:50:50.166Z</time></trkpt><trkpt lat="46.1520787" lon="13.58196"><ele>381.0</ele><time>2026-05-02T07:50:52.167Z</time></trkpt><trkpt lat="46.1520875" lon="13.5820605"><ele>389.5</ele><time>2026-05-02T07:50:54.167Z</time></trkpt><trkpt lat="46.1521288" lon="13.5821348"><ele>398.0</ele><time>2026-05-02T07:50:56.166Z</time></trkpt><trkpt lat="46.152209" lon="13.5822216"><ele>406.50000000000006</ele><time>2026-05-02T07:50:58.166Z</time></trkpt><trkpt lat="46.1522486" lon="13.5822997"><ele>415.0</ele><time>2026-05-02T07:50:59.166Z</time></trkpt><trkpt lat="46.1522885" lon="13.5824552"><ele>415.33333333333337</ele><time>2026-05-02T07:51:01.166Z</time></trkpt><trkpt lat="46.1523048" lon="13.582605"><ele>415.6666666666667</ele><time>2026-05-02T07:51:03.167Z</time></trkpt><trkpt lat="46.1522891" lon="13.5827276"><ele>416.0</ele><time>2026-05-02T07:51:05.167Z</time></trkpt><trkpt lat="46.1523102" lon="13.5828155"><ele>416.33333333333337</ele><time>2026-05-02T07:51:07.166Z</time></trkpt><trkpt lat="46.1523846" lon="13.5828769"><ele>416.6666666666667</ele><time>2026-05-02T07:51:09.166Z</time></trkpt><trkpt lat="46.1524757" lon="13.5829157"><ele>417.0</ele><time>2026-05-02T07:51:11.167Z</time></trkpt><trkpt lat="46.1525458" lon="13.5829673"><ele>412.40000000000003</ele><time>2026-05-02T07:51:13.166Z</time></trkpt><trkpt lat="46.152611" lon="13.5830051"><ele>407.8</ele><time>2026-05-02T07:51:15.167Z</time></trkpt><trkpt lat="46.1526956" lon="13.5830566"><ele>403.2</ele><time>2026-05-02T07:51:17.166Z</time></trkpt><trkpt lat="46.1527871" lon="13.5830852"><ele>398.6</ele><time>2026-05-02T07:51:19.167Z</time></trkpt><trkpt lat="46.1528838" lon="13.5831178"><ele>394.0</ele><time>2026-05-02T07:51:21.167Z</time></trkpt><trkpt lat="46.1529817" lon="13.5831789"><ele>394.00000000000006</ele><time>2026-05-02T07:51:23.166Z</time></trkpt><trkpt lat="46.153066" lon="13.5832316"><ele>394.0</ele><time>2026-05-02T07:51:25.166Z</time></trkpt><trkpt lat="46.153162" lon="13.5832576"><ele>394.0</ele><time>2026-05-02T07:51:27.166Z</time></trkpt><trkpt lat="46.1532254" lon="13.5832595"><ele>394.0</ele><time>2026-05-02T07:51:28.166Z</time></trkpt><trkpt lat="46.1533059" lon="13.5832771"><ele>394.00000000000006</ele><time>2026-05-02T07:51:30.166Z</time></trkpt><trkpt lat="46.1533946" lon="13.5833143"><ele>394.0</ele><time>2026-05-02T07:51:32.166Z</time></trkpt><trkpt lat="46.1534522" lon="13.5833541"><ele>388.0</ele><time>2026-05-02T07:51:33.166Z</time></trkpt><trkpt lat="46.153518" lon="13.583393"><ele>382.0</ele><time>2026-05-02T07:51:34.166Z</time></trkpt><trkpt lat="46.1535828" lon="13.5834352"><ele>376.0</ele><time>2026-05-02T07:51:35.166Z</time></trkpt><trkpt lat="46.1536956" lon="13.5834986"><ele>370.0</ele><time>2026-05-02T07:51:37.166Z</time></trkpt><trkpt lat="46.1538115" lon="13.583549"><ele>364.0</ele><time>2026-05-02T07:51:39.167Z</time></trkpt><trkpt lat="46.1539115" lon="13.5836288"><ele>364.0</ele><time>2026-05-02T07:51:41.167Z</time></trkpt><trkpt lat="46.1539717" lon="13.583699"><ele>364.0</ele><time>2026-05-02T07:51:42.166Z</time></trkpt><trkpt lat="46.1540247" lon="13.5837673"><ele>364.0</ele><time>2026-05-02T07:51:43.166Z</time></trkpt><trkpt lat="46.1540723" lon="13.5838322"><ele>364.0</ele><time>2026-05-02T07:51:44.167Z</time></trkpt><trkpt lat="46.1541547" lon="13.583943"><ele>364.0</ele><time>2026-05-02T07:51:46.166Z</time></trkpt><trkpt lat="46.154207" lon="13.5840336"><ele>364.0</ele><time>2026-05-02T07:51:48.166Z</time></trkpt><trkpt lat="46.1542082" lon="13.5841333"><ele>364.0</ele><time>2026-05-02T07:51:50.167Z</time></trkpt><trkpt lat="46.1541898" lon="13.5842749"><ele>364.0</ele><time>2026-05-02T07:51:52.166Z</time></trkpt><trkpt lat="46.1541902" lon="13.5843891"><ele>364.0</ele><time>2026-05-02T07:51:54.166Z</time></trkpt><trkpt lat="46.1542119" lon="13.584522"><ele>364.0</ele><time>2026-05-02T07:51:56.166Z</time></trkpt><trkpt lat="46.1542329" lon="13.5846536"><ele>364.0</ele><time>2026-05-02T07:51:58.167Z</time></trkpt><trkpt lat="46.1542514" lon="13.5848083"><ele>363.66666666666663</ele><time>2026-05-02T07:52:00.167Z</time></trkpt><trkpt lat="46.154226" lon="13.5849862"><ele>363.3333333333333</ele><time>2026-05-02T07:52:02.166Z</time></trkpt><trkpt lat="46.1541605" lon="13.5851219"><ele>363.0</ele><time>2026-05-02T07:52:04.167Z</time></trkpt><trkpt lat="46.1541123" lon="13.5851856"><ele>362.6666666666667</ele><time>2026-05-02T07:52:05.167Z</time></trkpt><trkpt lat="46.1540558" lon="13.5852478"><ele>362.33333333333337</ele><time>2026-05-02T07:52:06.167Z</time></trkpt><trkpt lat="46.1540007" lon="13.5853"><ele>362.0</ele><time>2026-05-02T07:52:07.166Z</time></trkpt><trkpt lat="46.1538928" lon="13.5853652"><ele>365.85714285714283</ele><time>2026-05-02T07:52:09.166Z</time></trkpt><trkpt lat="46.153834" lon="13.5854001"><ele>369.71428571428567</ele><time>2026-05-02T07:52:10.167Z</time></trkpt><trkpt lat="46.1537318" lon="13.5854362"><ele>373.57142857142856</ele><time>2026-05-02T07:52:12.167Z</time></trkpt><trkpt lat="46.1536667" lon="13.5854762"><ele>377.42857142857144</ele><time>2026-05-02T07:52:14.167Z</time></trkpt><trkpt lat="46.1536386" lon="13.5855592"><ele>381.2857142857143</ele><time>2026-05-02T07:52:16.166Z</time></trkpt><trkpt lat="46.1536475" lon="13.5856493"><ele>385.14285714285717</ele><time>2026-05-02T07:52:19.166Z</time></trkpt><trkpt lat="46.1536452" lon="13.5857541"><ele>389.0</ele><time>2026-05-02T07:53:23.165Z</time></trkpt><trkpt lat="46.1536385" lon="13.5858521"><ele>388.99999999999994</ele><time>2026-05-02T07:53:25.165Z</time></trkpt><trkpt lat="46.153624" lon="13.5859757"><ele>389.0</ele><time>2026-05-02T07:53:27.165Z</time></trkpt><trkpt lat="46.1536137" lon="13.5860777"><ele>389.0</ele><time>2026-05-02T07:53:29.165Z</time></trkpt><trkpt lat="46.1535848" lon="13.5861808"><ele>389.0</ele><time>2026-05-02T07:53:32.165Z</time></trkpt><trkpt lat="46.1535669" lon="13.5863001"><ele>388.99999999999994</ele><time>2026-05-02T07:58:10.165Z</time></trkpt><trkpt lat="46.153546" lon="13.5864652"><ele>389.0</ele><time>2026-05-02T07:58:13.165Z</time></trkpt><trkpt lat="46.1534919" lon="13.5866034"><ele>389.2</ele><time>2026-05-02T07:58:15.164Z</time></trkpt><trkpt lat="46.1534702" lon="13.586701"><ele>389.4</ele><time>2026-05-02T07:58:16.165Z</time></trkpt><trkpt lat="46.1534186" lon="13.5868558"><ele>389.6</ele><time>2026-05-02T07:58:18.164Z</time></trkpt><trkpt lat="46.1533759" lon="13.5870109"><ele>389.8</ele><time>2026-05-02T07:58:20.164Z</time></trkpt><trkpt lat="46.1533332" lon="13.58715"><ele>390.0</ele><time>2026-05-02T07:58:22.165Z</time></trkpt><trkpt lat="46.1532955" lon="13.587281"><ele>388.75</ele><time>2026-05-02T07:58:24.164Z</time></trkpt><trkpt lat="46.1532566" lon="13.5874242"><ele>387.5</ele><time>2026-05-02T07:58:26.164Z</time></trkpt><trkpt lat="46.1532045" lon="13.5875587"><ele>386.25</ele><time>2026-05-02T07:58:28.165Z</time></trkpt><trkpt lat="46.1531428" lon="13.5877043"><ele>385.0</ele><time>2026-05-02T07:58:30.164Z</time></trkpt><trkpt lat="46.1530848" lon="13.5878801"><ele>390.0</ele><time>2026-05-02T07:58:32.165Z</time></trkpt><trkpt lat="46.1530452" lon="13.5879725"><ele>395.0</ele><time>2026-05-02T07:58:33.164Z</time></trkpt><trkpt lat="46.1530067" lon="13.5880802"><ele>400.0</ele><time>2026-05-02T07:58:34.165Z</time></trkpt><trkpt lat="46.1529353" lon="13.5882328"><ele>405.0</ele><time>2026-05-02T07:58:36.164Z</time></trkpt><trkpt lat="46.1529049" lon="13.5883126"><ele>410.0</ele><time>2026-05-02T07:58:37.165Z</time></trkpt><trkpt lat="46.1528249" lon="13.5884208"><ele>409.99999999999994</ele><time>2026-05-02T07:58:39.164Z</time></trkpt><trkpt lat="46.1527151" lon="13.5885044"><ele>410.0</ele><time>2026-05-02T07:58:41.164Z</time></trkpt><trkpt lat="46.1526326" lon="13.588561"><ele>410.0</ele><time>2026-05-02T07:58:43.165Z</time></trkpt><trkpt lat="46.1525737" lon="13.5886028"><ele>410.0</ele><time>2026-05-02T07:58:54.164Z</time></trkpt><trkpt lat="46.1525025" lon="13.5886228"><ele>409.99999999999994</ele><time>2026-05-02T07:59:09.164Z</time></trkpt><trkpt lat="46.1524152" lon="13.5886239"><ele>410.0</ele><time>2026-05-02T07:59:11.164Z</time></trkpt><trkpt lat="46.1522943" lon="13.5886369"><ele>409.8333333333333</ele><time>2026-05-02T07:59:13.165Z</time></trkpt><trkpt lat="46.1521799" lon="13.5885711"><ele>409.66666666666663</ele><time>2026-05-02T07:59:15.164Z</time></trkpt><trkpt lat="46.1521225" lon="13.5885175"><ele>409.5</ele><time>2026-05-02T07:59:16.164Z</time></trkpt><trkpt lat="46.1520544" lon="13.5884579"><ele>409.33333333333337</ele><time>2026-05-02T07:59:17.164Z</time></trkpt><trkpt lat="46.1519808" lon="13.5884214"><ele>409.1666666666667</ele><time>2026-05-02T07:59:18.164Z</time></trkpt><trkpt lat="46.1519156" lon="13.5883909"><ele>409.0</ele><time>2026-05-02T07:59:19.164Z</time></trkpt><trkpt lat="46.1518428" lon="13.5883534"><ele>409.0</ele><time>2026-05-02T07:59:20.164Z</time></trkpt><trkpt lat="46.1517817" lon="13.5883009"><ele>409.0</ele><time>2026-05-02T07:59:21.165Z</time></trkpt><trkpt lat="46.1516854" lon="13.588181"><ele>409.0</ele><time>2026-05-02T07:59:23.165Z</time></trkpt><trkpt lat="46.1516261" lon="13.5882129"><ele>409.0</ele><time>2026-05-02T07:59:24.164Z</time></trkpt><trkpt lat="46.1515195" lon="13.5881197"><ele>409.0</ele><time>2026-05-02T07:59:26.164Z</time></trkpt><trkpt lat="46.1514316" lon="13.5880485"><ele>407.4</ele><time>2026-05-02T07:59:28.164Z</time></trkpt><trkpt lat="46.1513261" lon="13.5879435"><ele>405.79999999999995</ele><time>2026-05-02T07:59:30.164Z</time></trkpt><trkpt lat="46.1512563" lon="13.5878899"><ele>404.20000000000005</ele><time>2026-05-02T07:59:31.164Z</time></trkpt><trkpt lat="46.1511527" lon="13.587807"><ele>402.6</ele><time>2026-05-02T07:59:33.164Z</time></trkpt><trkpt lat="46.1510544" lon="13.5877623"><ele>401.0</ele><time>2026-05-02T07:59:35.164Z</time></trkpt><trkpt lat="46.1509578" lon="13.5877141"><ele>400.99999999999994</ele><time>2026-05-02T07:59:37.165Z</time></trkpt><trkpt lat="46.1508884" lon="13.5877281"><ele>401.0</ele><time>2026-05-02T07:59:39.164Z</time></trkpt><trkpt lat="46.1508487" lon="13.5878005"><ele>401.0</ele><time>2026-05-02T07:59:41.165Z</time></trkpt><trkpt lat="46.1508365" lon="13.587937"><ele>401.0</ele><time>2026-05-02T07:59:43.164Z</time></trkpt><trkpt lat="46.1507798" lon="13.5880223"><ele>400.99999999999994</ele><time>2026-05-02T07:59:45.164Z</time></trkpt><trkpt lat="46.1506782" lon="13.5880848"><ele>401.0</ele><time>2026-05-02T07:59:47.165Z</time></trkpt><trkpt lat="46.1505752" lon="13.588108"><ele>405.6</ele><time>2026-05-02T07:59:49.164Z</time></trkpt><trkpt lat="46.1504731" lon="13.5881473"><ele>410.20000000000005</ele><time>2026-05-02T07:59:51.165Z</time></trkpt><trkpt lat="46.1504021" lon="13.5881735"><ele>414.79999999999995</ele><time>2026-05-02T07:59:53.164Z</time></trkpt><trkpt lat="46.1503142" lon="13.5881862"><ele>419.4</ele><time>2026-05-02T07:59:55.164Z</time></trkpt><trkpt lat="46.1501914" lon="13.5881947"><ele>424.0</ele><time>2026-05-02T07:59:57.164Z</time></trkpt><trkpt lat="46.1500781" lon="13.5881847"><ele>424.0</ele><time>2026-05-02T07:59:59.164Z</time></trkpt><trkpt lat="46.1499659" lon="13.5881798"><ele>424.0</ele><time>2026-05-02T08:00:01.164Z</time></trkpt><trkpt lat="46.1498643" lon="13.5882307"><ele>424.0</ele><time>2026-05-02T08:00:03.164Z</time></trkpt><trkpt lat="46.1498061" lon="13.5883532"><ele>424.0</ele><time>2026-05-02T08:00:05.165Z</time></trkpt><trkpt lat="46.1497793" lon="13.5884841"><ele>424.0</ele><time>2026-05-02T08:00:07.164Z</time></trkpt><trkpt lat="46.1498085" lon="13.5886169"><ele>425.6666666666667</ele><time>2026-05-02T08:00:09.164Z</time></trkpt><trkpt lat="46.1498681" lon="13.5887512"><ele>427.33333333333337</ele><time>2026-05-02T08:00:11.165Z</time></trkpt><trkpt lat="46.1499411" lon="13.5888366"><ele>429.0</ele><time>2026-05-02T08:00:13.164Z</time></trkpt><trkpt lat="46.1499921" lon="13.5889263"><ele>430.66666666666663</ele><time>2026-05-02T08:00:14.164Z</time></trkpt><trkpt lat="46.1500397" lon="13.5890006"><ele>432.3333333333333</ele><time>2026-05-02T08:00:15.164Z</time></trkpt><trkpt lat="46.1500884" lon="13.5890697"><ele>434.0</ele><time>2026-05-02T08:00:16.164Z</time></trkpt><trkpt lat="46.1501739" lon="13.5891841"><ele>434.0</ele><time>2026-05-02T08:00:18.164Z</time></trkpt><trkpt lat="46.1502526" lon="13.5892805"><ele>434.0</ele><time>2026-05-02T08:00:20.164Z</time></trkpt><trkpt lat="46.1503268" lon="13.5893556"><ele>434.0</ele><time>2026-05-02T08:00:22.164Z</time></trkpt><trkpt lat="46.1504389" lon="13.5894224"><ele>434.0</ele><time>2026-05-02T08:00:24.165Z</time></trkpt><trkpt lat="46.1505051" lon="13.5894694"><ele>434.0</ele><time>2026-05-02T08:00:25.164Z</time></trkpt><trkpt lat="46.150567" lon="13.5895154"><ele>437.0</ele><time>2026-05-02T08:00:26.164Z</time></trkpt><trkpt lat="46.150659" lon="13.5896017"><ele>440.0</ele><time>2026-05-02T08:00:28.165Z</time></trkpt><trkpt lat="46.150719" lon="13.5897229"><ele>443.0</ele><time>2026-05-02T08:00:30.165Z</time></trkpt><trkpt lat="46.1507185" lon="13.5898699"><ele>446.0</ele><time>2026-05-02T08:00:32.164Z</time></trkpt><trkpt lat="46.1506562" lon="13.5900197"><ele>449.0</ele><time>2026-05-02T08:00:34.164Z</time></trkpt><trkpt lat="46.1506022" lon="13.590092"><ele>449.0</ele><time>2026-05-02T08:00:35.165Z</time></trkpt><trkpt lat="46.1505439" lon="13.5901682"><ele>449.0</ele><time>2026-05-02T08:00:36.164Z</time></trkpt><trkpt lat="46.1504981" lon="13.5902322"><ele>449.0</ele><time>2026-05-02T08:00:37.164Z</time></trkpt><trkpt lat="46.1504115" lon="13.590352"><ele>449.0</ele><time>2026-05-02T08:00:39.165Z</time></trkpt><trkpt lat="46.1503076" lon="13.5904745"><ele>449.0</ele><time>2026-05-02T08:00:41.164Z</time></trkpt><trkpt lat="46.1502608" lon="13.5905411"><ele>446.3333333333333</ele><time>2026-05-02T08:00:42.165Z</time></trkpt><trkpt lat="46.150195" lon="13.5906663"><ele>443.66666666666663</ele><time>2026-05-02T08:00:44.165Z</time></trkpt><trkpt lat="46.1501539" lon="13.5907492"><ele>441.0</ele><time>2026-05-02T08:00:45.164Z</time></trkpt><trkpt lat="46.1501075" lon="13.5908295"><ele>438.33333333333337</ele><time>2026-05-02T08:00:46.165Z</time></trkpt><trkpt lat="46.1500754" lon="13.5909251"><ele>435.6666666666667</ele><time>2026-05-02T08:00:47.164Z</time></trkpt><trkpt lat="46.150046" lon="13.5910154"><ele>433.0</ele><time>2026-05-02T08:00:48.165Z</time></trkpt><trkpt lat="46.1499893" lon="13.5911016"><ele>433.1666666666667</ele><time>2026-05-02T08:00:50.164Z</time></trkpt><trkpt lat="46.1498664" lon="13.5911982"><ele>433.33333333333337</ele><time>2026-05-02T08:00:52.164Z</time></trkpt><trkpt lat="46.149797" lon="13.5912638"><ele>433.5</ele><time>2026-05-02T08:00:53.164Z</time></trkpt><trkpt lat="46.1497342" lon="13.5913122"><ele>433.66666666666663</ele><time>2026-05-02T08:00:54.165Z</time></trkpt><trkpt lat="46.1496716" lon="13.5913365"><ele>433.8333333333333</ele><time>2026-05-02T08:00:55.165Z</time></trkpt><trkpt lat="46.149597" lon="13.5913629"><ele>434.0</ele><time>2026-05-02T08:00:56.164Z</time></trkpt><trkpt lat="46.1495258" lon="13.5913945"><ele>434.0</ele><time>2026-05-02T08:00:57.164Z</time></trkpt><trkpt lat="46.149456" lon="13.5914248"><ele>434.0</ele><time>2026-05-02T08:00:58.165Z</time></trkpt><trkpt lat="46.1493535" lon="13.5914829"><ele>434.0</ele><time>2026-05-02T08:01:00.165Z</time></trkpt><trkpt lat="46.1492311" lon="13.5914992"><ele>434.0</ele><time>2026-05-02T08:01:02.164Z</time></trkpt><trkpt lat="46.1491531" lon="13.5915029"><ele>434.0</ele><time>2026-05-02T08:01:03.164Z</time></trkpt><trkpt lat="46.1490563" lon="13.5915176"><ele>437.42857142857144</ele><time>2026-05-02T08:01:04.165Z</time></trkpt><trkpt lat="46.148978" lon="13.5915333"><ele>440.8571428571429</ele><time>2026-05-02T08:01:05.165Z</time></trkpt><trkpt lat="46.1489082" lon="13.591541"><ele>444.2857142857143</ele><time>2026-05-02T08:01:06.165Z</time></trkpt><trkpt lat="46.1488429" lon="13.5915448"><ele>447.7142857142857</ele><time>2026-05-02T08:01:07.165Z</time></trkpt><trkpt lat="46.1487758" lon="13.5915565"><ele>451.14285714285717</ele><time>2026-05-02T08:01:08.164Z</time></trkpt><trkpt lat="46.1487116" lon="13.5915713"><ele>454.57142857142856</ele><time>2026-05-02T08:01:09.164Z</time></trkpt><trkpt lat="46.1486441" lon="13.5915885"><ele>458.0</ele><time>2026-05-02T08:01:10.164Z</time></trkpt><trkpt lat="46.1485351" lon="13.5916148"><ele>457.99999999999994</ele><time>2026-05-02T08:01:12.165Z</time></trkpt><trkpt lat="46.1484708" lon="13.5916929"><ele>458.0</ele><time>2026-05-02T08:01:14.165Z</time></trkpt><trkpt lat="46.1484599" lon="13.5918027"><ele>458.0</ele><time>2026-05-02T08:01:16.164Z</time></trkpt><trkpt lat="46.1485199" lon="13.5918856"><ele>458.0</ele><time>2026-05-02T08:01:18.163Z</time></trkpt><trkpt lat="46.1485729" lon="13.5919461"><ele>457.99999999999994</ele><time>2026-05-02T08:01:19.163Z</time></trkpt><trkpt lat="46.1486164" lon="13.5920213"><ele>458.0</ele><time>2026-05-02T08:01:20.163Z</time></trkpt><trkpt lat="46.1486675" lon="13.5921221"><ele>457.79999999999995</ele><time>2026-05-02T08:01:21.163Z</time></trkpt><trkpt lat="46.1487208" lon="13.5922264"><ele>457.59999999999997</ele><time>2026-05-02T08:01:22.164Z</time></trkpt><trkpt lat="46.1487696" lon="13.5923706"><ele>457.40000000000003</ele><time>2026-05-02T08:01:24.163Z</time></trkpt><trkpt lat="46.1487606" lon="13.5925068"><ele>457.20000000000005</ele><time>2026-05-02T08:01:26.164Z</time></trkpt><trkpt lat="46.1486813" lon="13.5926536"><ele>457.0</ele><time>2026-05-02T08:01:28.164Z</time></trkpt><trkpt lat="46.1486187" lon="13.5927303"><ele>457.00000000000006</ele><time>2026-05-02T08:01:29.164Z</time></trkpt><trkpt lat="46.148566" lon="13.5927831"><ele>457.0</ele><time>2026-05-02T08:01:30.164Z</time></trkpt><trkpt lat="46.1485343" lon="13.59289"><ele>457.0</ele><time>2026-05-02T08:01:32.164Z</time></trkpt><trkpt lat="46.1485791" lon="13.5930089"><ele>457.0</ele><time>2026-05-02T08:01:34.164Z</time></trkpt><trkpt lat="46.1486288" lon="13.5931055"><ele>457.00000000000006</ele><time>2026-05-02T08:01:35.164Z</time></trkpt><trkpt lat="46.1486749" lon="13.5931703"><ele>457.0</ele><time>2026-05-02T08:01:36.163Z</time></trkpt><trkpt lat="46.1487446" lon="13.5931846"><ele>457.33333333333337</ele><time>2026-05-02T08:01:38.163Z</time></trkpt><trkpt lat="46.1488097" lon="13.5931643"><ele>457.6666666666667</ele><time>2026-05-02T08:01:39.164Z</time></trkpt><trkpt lat="46.1489102" lon="13.5931401"><ele>458.0</ele><time>2026-05-02T08:01:40.164Z</time></trkpt><trkpt lat="46.1490423" lon="13.5931127"><ele>458.33333333333337</ele><time>2026-05-02T08:01:42.164Z</time></trkpt><trkpt lat="46.1491161" lon="13.5931012"><ele>458.6666666666667</ele><time>2026-05-02T08:01:43.164Z</time></trkpt><trkpt lat="46.1491877" lon="13.5930865"><ele>459.0</ele><time>2026-05-02T08:01:44.164Z</time></trkpt><trkpt lat="46.1492656" lon="13.5930749"><ele>459.0</ele><time>2026-05-02T08:01:45.164Z</time></trkpt><trkpt lat="46.1493599" lon="13.5930112"><ele>459.0</ele><time>2026-05-02T08:01:47.163Z</time></trkpt><trkpt lat="46.1494736" lon="13.5929843"><ele>459.0</ele><time>2026-05-02T08:01:49.164Z</time></trkpt><trkpt lat="46.1495434" lon="13.5929709"><ele>459.0</ele><time>2026-05-02T08:01:50.163Z</time></trkpt><trkpt lat="46.1496113" lon="13.5929612"><ele>459.0</ele><time>2026-05-02T08:01:51.163Z</time></trkpt><trkpt lat="46.1496823" lon="13.5929576"><ele>459.0</ele><time>2026-05-02T08:01:52.163Z</time></trkpt><trkpt lat="46.1497523" lon="13.5929694"><ele>459.0</ele><time>2026-05-02T08:01:53.163Z</time></trkpt><trkpt lat="46.1498273" lon="13.5929791"><ele>459.0</ele><time>2026-05-02T08:01:54.163Z</time></trkpt><trkpt lat="46.1499025" lon="13.5929829"><ele>459.0</ele><time>2026-05-02T08:01:55.164Z</time></trkpt><trkpt lat="46.1499681" lon="13.593001"><ele>459.0</ele><time>2026-05-02T08:01:56.163Z</time></trkpt><trkpt lat="46.1500311" lon="13.5930134"><ele>459.0</ele><time>2026-05-02T08:01:57.164Z</time></trkpt><trkpt lat="46.1501015" lon="13.593044"><ele>459.0</ele><time>2026-05-02T08:01:58.163Z</time></trkpt><trkpt lat="46.1501735" lon="13.5930539"><ele>459.0</ele><time>2026-05-02T08:01:59.164Z</time></trkpt><trkpt lat="46.1502397" lon="13.5930646"><ele>458.1666666666667</ele><time>2026-05-02T08:02:00.163Z</time></trkpt><trkpt lat="46.1503041" lon="13.5930682"><ele>457.33333333333337</ele><time>2026-05-02T08:02:01.163Z</time></trkpt><trkpt lat="46.1503715" lon="13.5930661"><ele>456.5</ele><time>2026-05-02T08:02:02.163Z</time></trkpt><trkpt lat="46.1504391" lon="13.5930536"><ele>455.6666666666667</ele><time>2026-05-02T08:02:03.163Z</time></trkpt><trkpt lat="46.1505089" lon="13.5930529"><ele>454.83333333333337</ele><time>2026-05-02T08:02:04.164Z</time></trkpt><trkpt lat="46.1505767" lon="13.5930376"><ele>454.0</ele><time>2026-05-02T08:02:05.163Z</time></trkpt><trkpt lat="46.1506931" lon="13.5930138"><ele>451.6</ele><time>2026-05-02T08:02:07.164Z</time></trkpt><trkpt lat="46.1508081" lon="13.5930278"><ele>449.2</ele><time>2026-05-02T08:02:09.164Z</time></trkpt><trkpt lat="46.150935" lon="13.5930694"><ele>446.80000000000007</ele><time>2026-05-02T08:02:11.163Z</time></trkpt><trkpt lat="46.1510175" lon="13.5931051"><ele>444.40000000000003</ele><time>2026-05-02T08:02:12.163Z</time></trkpt><trkpt lat="46.1510855" lon="13.5931368"><ele>442.0</ele><time>2026-05-02T08:02:13.164Z</time></trkpt><trkpt lat="46.1511487" lon="13.5931759"><ele>442.0</ele><time>2026-05-02T08:02:14.164Z</time></trkpt><trkpt lat="46.1512058" lon="13.5932313"><ele>442.00000000000006</ele><time>2026-05-02T08:02:15.163Z</time></trkpt><trkpt lat="46.1512806" lon="13.5933413"><ele>442.00000000000006</ele><time>2026-05-02T08:02:17.163Z</time></trkpt><trkpt lat="46.1513251" lon="13.5934357"><ele>442.0</ele><time>2026-05-02T08:02:19.164Z</time></trkpt><trkpt lat="46.1513269" lon="13.5935623"><ele>442.0</ele><time>2026-05-02T08:02:21.163Z</time></trkpt><trkpt lat="46.151312" lon="13.5937194"><ele>445.0</ele><time>2026-05-02T08:02:23.164Z</time></trkpt><trkpt lat="46.1512817" lon="13.593883"><ele>448.0</ele><time>2026-05-02T08:02:25.164Z</time></trkpt><trkpt lat="46.1512889" lon="13.5940321"><ele>451.0</ele><time>2026-05-02T08:02:27.163Z</time></trkpt><trkpt lat="46.1512602" lon="13.5941898"><ele>454.0</ele><time>2026-05-02T08:02:29.163Z</time></trkpt><trkpt lat="46.151225" lon="13.5943508"><ele>452.2</ele><time>2026-05-02T08:02:31.163Z</time></trkpt><trkpt lat="46.1511973" lon="13.5945097"><ele>450.4</ele><time>2026-05-02T08:02:33.163Z</time></trkpt><trkpt lat="46.1511823" lon="13.5946899"><ele>448.6</ele><time>2026-05-02T08:02:35.164Z</time></trkpt><trkpt lat="46.1511718" lon="13.594794"><ele>446.8</ele><time>2026-05-02T08:02:36.163Z</time></trkpt><trkpt lat="46.1511687" lon="13.5949436"><ele>445.0</ele><time>2026-05-02T08:02:38.164Z</time></trkpt><trkpt lat="46.1511537" lon="13.595089"><ele>445.0</ele><time>2026-05-02T08:02:40.163Z</time></trkpt><trkpt lat="46.1511366" lon="13.595247"><ele>445.0</ele><time>2026-05-02T08:02:42.163Z</time></trkpt><trkpt lat="46.1511296" lon="13.5953681"><ele>445.0</ele><time>2026-05-02T08:02:44.163Z</time></trkpt><trkpt lat="46.1511433" lon="13.5955241"><ele>445.0</ele><time>2026-05-02T08:02:46.163Z</time></trkpt><trkpt lat="46.1511376" lon="13.5956738"><ele>445.0</ele><time>2026-05-02T08:02:47.163Z</time></trkpt><trkpt lat="46.1511088" lon="13.5957965"><ele>441.8</ele><time>2026-05-02T08:02:49.163Z</time></trkpt><trkpt lat="46.1510259" lon="13.595846"><ele>438.6</ele><time>2026-05-02T08:02:51.164Z</time></trkpt><trkpt lat="46.1509042" lon="13.5959201"><ele>435.4</ele><time>2026-05-02T08:02:53.163Z</time></trkpt><trkpt lat="46.1508065" lon="13.5959714"><ele>432.2</ele><time>2026-05-02T08:02:55.163Z</time></trkpt><trkpt lat="46.1507258" lon="13.5960719"><ele>429.0</ele><time>2026-05-02T08:02:57.163Z</time></trkpt><trkpt lat="46.1506811" lon="13.596196"><ele>429.0</ele><time>2026-05-02T08:02:59.163Z</time></trkpt><trkpt lat="46.1506521" lon="13.5963293"><ele>429.0</ele><time>2026-05-02T08:03:01.163Z</time></trkpt><trkpt lat="46.1506378" lon="13.596496"><ele>429.0</ele><time>2026-05-02T08:03:03.164Z</time></trkpt><trkpt lat="46.1506142" lon="13.5966755"><ele>429.0</ele><time>2026-05-02T08:03:05.164Z</time></trkpt><trkpt lat="46.1506031" lon="13.5968297"><ele>429.0</ele><time>2026-05-02T08:03:07.164Z</time></trkpt><trkpt lat="46.1506529" lon="13.597019"><ele>424.8333333333333</ele><time>2026-05-02T08:03:09.163Z</time></trkpt><trkpt lat="46.1506768" lon="13.5971185"><ele>420.66666666666663</ele><time>2026-05-02T08:03:10.163Z</time></trkpt><trkpt lat="46.150682" lon="13.5972434"><ele>416.5</ele><time>2026-05-02T08:03:12.164Z</time></trkpt><trkpt lat="46.1506515" lon="13.5973375"><ele>412.3333333333333</ele><time>2026-05-02T08:03:14.163Z</time></trkpt><trkpt lat="46.1505856" lon="13.5973734"><ele>408.16666666666663</ele><time>2026-05-02T08:03:16.163Z</time></trkpt><trkpt lat="46.1504843" lon="13.5973696"><ele>404.0</ele><time>2026-05-02T08:03:18.164Z</time></trkpt><trkpt lat="46.1503762" lon="13.5973567"><ele>403.99999999999994</ele><time>2026-05-02T08:03:20.163Z</time></trkpt><trkpt lat="46.1502645" lon="13.5973458"><ele>404.0</ele><time>2026-05-02T08:03:22.163Z</time></trkpt><trkpt lat="46.1501971" lon="13.5973437"><ele>404.0</ele><time>2026-05-02T08:03:23.163Z</time></trkpt><trkpt lat="46.1501159" lon="13.5973554"><ele>404.0</ele><time>2026-05-02T08:03:24.164Z</time></trkpt><trkpt lat="46.1500416" lon="13.5973703"><ele>403.99999999999994</ele><time>2026-05-02T08:03:25.164Z</time></trkpt><trkpt lat="46.1499729" lon="13.5973982"><ele>404.0</ele><time>2026-05-02T08:03:26.163Z</time></trkpt><trkpt lat="46.1498835" lon="13.5974567"><ele>409.6</ele><time>2026-05-02T08:03:28.164Z</time></trkpt><trkpt lat="46.1498215" lon="13.5975872"><ele>415.2</ele><time>2026-05-02T08:03:30.163Z</time></trkpt><trkpt lat="46.1498009" lon="13.597677"><ele>420.80000000000007</ele><time>2026-05-02T08:03:31.163Z</time></trkpt><trkpt lat="46.1497147" lon="13.5977632"><ele>426.40000000000003</ele><time>2026-05-02T08:03:33.163Z</time></trkpt><trkpt lat="46.1496007" lon="13.5978642"><ele>432.0</ele><time>2026-05-02T08:03:35.163Z</time></trkpt><trkpt lat="46.1495061" lon="13.597951"><ele>432.0</ele><time>2026-05-02T08:03:37.164Z</time></trkpt><trkpt lat="46.1494207" lon="13.5980241"><ele>432.00000000000006</ele><time>2026-05-02T08:03:39.163Z</time></trkpt><trkpt lat="46.1493568" lon="13.5981535"><ele>432.00000000000006</ele><time>2026-05-02T08:03:41.163Z</time></trkpt><trkpt lat="46.1493511" lon="13.5982886"><ele>432.0</ele><time>2026-05-02T08:03:43.164Z</time></trkpt><trkpt lat="46.1493919" lon="13.5983957"><ele>432.0</ele><time>2026-05-02T08:03:45.163Z</time></trkpt><trkpt lat="46.1494931" lon="13.5984687"><ele>432.0</ele><time>2026-05-02T08:03:47.164Z</time></trkpt><trkpt lat="46.1496128" lon="13.5985042"><ele>432.00000000000006</ele><time>2026-05-02T08:03:49.164Z</time></trkpt><trkpt lat="46.1497129" lon="13.5985418"><ele>432.00000000000006</ele><time>2026-05-02T08:03:51.164Z</time></trkpt><trkpt lat="46.1497777" lon="13.5985813"><ele>432.0</ele><time>2026-05-02T08:03:52.163Z</time></trkpt><trkpt lat="46.1498494" lon="13.5986409"><ele>432.0</ele><time>2026-05-02T08:03:53.164Z</time></trkpt><trkpt lat="46.1499195" lon="13.5986849"><ele>428.0</ele><time>2026-05-02T08:03:54.163Z</time></trkpt><trkpt lat="46.1499833" lon="13.5987356"><ele>424.0</ele><time>2026-05-02T08:03:55.164Z</time></trkpt><trkpt lat="46.1500612" lon="13.5987738"><ele>420.0</ele><time>2026-05-02T08:03:56.164Z</time></trkpt><trkpt lat="46.150164" lon="13.5988189"><ele>416.0</ele><time>2026-05-02T08:03:58.163Z</time></trkpt><trkpt lat="46.1502261" lon="13.5988554"><ele>412.0</ele><time>2026-05-02T08:03:59.163Z</time></trkpt><trkpt lat="46.1503128" lon="13.5989674"><ele>408.0</ele><time>2026-05-02T08:04:01.163Z</time></trkpt><trkpt lat="46.1503772" lon="13.5991035"><ele>408.0</ele><time>2026-05-02T08:04:03.163Z</time></trkpt><trkpt lat="46.1504194" lon="13.5992564"><ele>408.0</ele><time>2026-05-02T08:04:05.164Z</time></trkpt><trkpt lat="46.150445" lon="13.5994039"><ele>408.0</ele><time>2026-05-02T08:04:07.164Z</time></trkpt><trkpt lat="46.1504407" lon="13.5995355"><ele>408.0</ele><time>2026-05-02T08:04:09.164Z</time></trkpt><trkpt lat="46.1503902" lon="13.5996346"><ele>408.0</ele><time>2026-05-02T08:04:11.163Z</time></trkpt><trkpt lat="46.1503243" lon="13.5997221"><ele>407.2</ele><time>2026-05-02T08:04:13.163Z</time></trkpt><trkpt lat="46.1502463" lon="13.5998463"><ele>406.4</ele><time>2026-05-02T08:04:15.163Z</time></trkpt><trkpt lat="46.1501885" lon="13.5999554"><ele>405.59999999999997</ele><time>2026-05-02T08:04:17.163Z</time></trkpt><trkpt lat="46.1501601" lon="13.6001078"><ele>404.79999999999995</ele><time>2026-05-02T08:04:19.163Z</time></trkpt><trkpt lat="46.1501389" lon="13.6002073"><ele>404.0</ele><time>2026-05-02T08:04:20.163Z</time></trkpt><trkpt lat="46.1501119" lon="13.6002894"><ele>402.8333333333333</ele><time>2026-05-02T08:04:21.163Z</time></trkpt><trkpt lat="46.1500812" lon="13.6003772"><ele>401.66666666666663</ele><time>2026-05-02T08:04:22.164Z</time></trkpt><trkpt lat="46.1500861" lon="13.6004739"><ele>400.5</ele><time>2026-05-02T08:04:23.163Z</time></trkpt><trkpt lat="46.1500798" lon="13.6006042"><ele>399.33333333333337</ele><time>2026-05-02T08:04:24.164Z</time></trkpt><trkpt lat="46.1500449" lon="13.6007535"><ele>398.1666666666667</ele><time>2026-05-02T08:04:26.164Z</time></trkpt><trkpt lat="46.1500237" lon="13.6008409"><ele>397.0</ele><time>2026-05-02T08:04:27.163Z</time></trkpt><trkpt lat="46.1500152" lon="13.6009718"><ele>397.0</ele><time>2026-05-02T08:04:29.163Z</time></trkpt><trkpt lat="46.1500662" lon="13.6010342"><ele>397.0</ele><time>2026-05-02T08:04:31.164Z</time></trkpt><trkpt lat="46.1501574" lon="13.601105"><ele>397.0</ele><time>2026-05-02T08:04:33.163Z</time></trkpt><trkpt lat="46.1501536" lon="13.6012644"><ele>397.0</ele><time>2026-05-02T08:04:36.164Z</time></trkpt><trkpt lat="46.1501443" lon="13.6014175"><ele>397.0</ele><time>2026-05-02T08:04:38.164Z</time></trkpt><trkpt lat="46.1500939" lon="13.6015381"><ele>396.50000000000006</ele><time>2026-05-02T08:04:39.163Z</time></trkpt><trkpt lat="46.1500784" lon="13.6016821"><ele>396.0</ele><time>2026-05-02T08:04:41.164Z</time></trkpt><trkpt lat="46.1500596" lon="13.6018356"><ele>395.5</ele><time>2026-05-02T08:04:43.164Z</time></trkpt><trkpt lat="46.1500337" lon="13.6019525"><ele>395.0</ele><time>2026-05-02T08:04:45.163Z</time></trkpt><trkpt lat="46.1499697" lon="13.6019987"><ele>394.50000000000006</ele><time>2026-05-02T08:04:47.164Z</time></trkpt><trkpt lat="46.1499159" lon="13.6019432"><ele>394.0</ele><time>2026-05-02T08:04:49.163Z</time></trkpt><trkpt lat="46.1498883" lon="13.6017885"><ele>397.83333333333337</ele><time>2026-05-02T08:04:51.163Z</time></trkpt><trkpt lat="46.1498699" lon="13.6016921"><ele>401.6666666666667</ele><time>2026-05-02T08:04:52.164Z</time></trkpt><trkpt lat="46.149849" lon="13.6016045"><ele>405.5</ele><time>2026-05-02T08:04:53.164Z</time></trkpt><trkpt lat="46.14982" lon="13.6015097"><ele>409.33333333333337</ele><time>2026-05-02T08:04:54.163Z</time></trkpt><trkpt lat="46.1497546" lon="13.6013558"><ele>413.1666666666667</ele><time>2026-05-02T08:04:56.164Z</time></trkpt><trkpt lat="46.1497076" lon="13.601288"><ele>417.0</ele><time>2026-05-02T08:04:57.163Z</time></trkpt><trkpt lat="46.1496593" lon="13.6012241"><ele>417.0</ele><time>2026-05-02T08:04:58.163Z</time></trkpt><trkpt lat="46.1496079" lon="13.6011704"><ele>417.0</ele><time>2026-05-02T08:04:59.163Z</time></trkpt><trkpt lat="46.1495571" lon="13.6011"><ele>417.0</ele><time>2026-05-02T08:05:00.163Z</time></trkpt><trkpt lat="46.1494984" lon="13.6010271"><ele>417.0</ele><time>2026-05-02T08:05:01.163Z</time></trkpt><trkpt lat="46.1494515" lon="13.6009571"><ele>417.0</ele><time>2026-05-02T08:05:02.163Z</time></trkpt><trkpt lat="46.149396" lon="13.6008889"><ele>417.0</ele><time>2026-05-02T08:05:03.164Z</time></trkpt><trkpt lat="46.149335" lon="13.6008126"><ele>417.0</ele><time>2026-05-02T08:05:04.163Z</time></trkpt><trkpt lat="46.1492771" lon="13.6007591"><ele>418.0</ele><time>2026-05-02T08:05:05.163Z</time></trkpt><trkpt lat="46.1492127" lon="13.6006707"><ele>419.0</ele><time>2026-05-02T08:05:07.163Z</time></trkpt><trkpt lat="46.1491588" lon="13.6005907"><ele>420.0</ele><time>2026-05-02T08:05:08.163Z</time></trkpt><trkpt lat="46.1491095" lon="13.6005134"><ele>421.0</ele><time>2026-05-02T08:05:09.164Z</time></trkpt><trkpt lat="46.1490457" lon="13.6004459"><ele>422.0</ele><time>2026-05-02T08:05:10.164Z</time></trkpt><trkpt lat="46.148981" lon="13.6004103"><ele>423.0</ele><time>2026-05-02T08:05:11.163Z</time></trkpt><trkpt lat="46.148854" lon="13.6003697"><ele>427.59999999999997</ele><time>2026-05-02T08:05:13.163Z</time></trkpt><trkpt lat="46.1487366" lon="13.6003803"><ele>432.2</ele><time>2026-05-02T08:05:15.164Z</time></trkpt><trkpt lat="46.1486599" lon="13.6003701"><ele>436.8</ele><time>2026-05-02T08:05:17.163Z</time></trkpt><trkpt lat="46.1485716" lon="13.6003266"><ele>441.4</ele><time>2026-05-02T08:05:19.163Z</time></trkpt><trkpt lat="46.1484996" lon="13.6003058"><ele>446.0</ele><time>2026-05-02T08:05:20.163Z</time></trkpt><trkpt lat="46.1484077" lon="13.6002664"><ele>446.0</ele><time>2026-05-02T08:05:22.164Z</time></trkpt><trkpt lat="46.1484022" lon="13.6004349"><ele>446.0</ele><time>2026-05-02T08:05:26.164Z</time></trkpt><trkpt lat="46.1484592" lon="13.6005928"><ele>446.0</ele><time>2026-05-02T08:05:28.164Z</time></trkpt><trkpt lat="46.1485164" lon="13.6007209"><ele>446.0</ele><time>2026-05-02T08:05:30.163Z</time></trkpt><trkpt lat="46.1486097" lon="13.6008562"><ele>445.99999999999994</ele><time>2026-05-02T08:05:32.164Z</time></trkpt><trkpt lat="46.1486844" lon="13.6010088"><ele>446.0</ele><time>2026-05-02T08:05:34.163Z</time></trkpt><trkpt lat="46.1487125" lon="13.6010988"><ele>446.0</ele><time>2026-05-02T08:05:35.163Z</time></trkpt><trkpt lat="46.1487362" lon="13.6011987"><ele>446.0</ele><time>2026-05-02T08:05:36.164Z</time></trkpt><trkpt lat="46.1487561" lon="13.6013017"><ele>445.99999999999994</ele><time>2026-05-02T08:05:37.164Z</time></trkpt><trkpt lat="46.1487679" lon="13.6014071"><ele>446.0</ele><time>2026-05-02T08:05:38.163Z</time></trkpt><trkpt lat="46.1487891" lon="13.6015715"><ele>445.0</ele><time>2026-05-02T08:05:40.163Z</time></trkpt><trkpt lat="46.1487572" lon="13.6016999"><ele>444.0</ele><time>2026-05-02T08:05:42.164Z</time></trkpt><trkpt lat="46.1486745" lon="13.6017825"><ele>443.0</ele><time>2026-05-02T08:05:44.163Z</time></trkpt><trkpt lat="46.1486196" lon="13.6018306"><ele>442.0</ele><time>2026-05-02T08:05:45.162Z</time></trkpt><trkpt lat="46.1484886" lon="13.6018399"><ele>441.0</ele><time>2026-05-02T08:05:47.162Z</time></trkpt><trkpt lat="46.1484237" lon="13.6018303"><ele>441.0</ele><time>2026-05-02T08:05:48.162Z</time></trkpt><trkpt lat="46.1483378" lon="13.6018258"><ele>441.0</ele><time>2026-05-02T08:05:50.163Z</time></trkpt><trkpt lat="46.1482469" lon="13.6018332"><ele>441.0</ele><time>2026-05-02T08:05:52.163Z</time></trkpt><trkpt lat="46.1481265" lon="13.6018563"><ele>441.0</ele><time>2026-05-02T08:05:54.162Z</time></trkpt><trkpt lat="46.148056" lon="13.6018631"><ele>441.0</ele><time>2026-05-02T08:05:55.163Z</time></trkpt><trkpt lat="46.1479907" lon="13.6018656"><ele>441.0</ele><time>2026-05-02T08:05:56.162Z</time></trkpt><trkpt lat="46.1478807" lon="13.6018464"><ele>444.8</ele><time>2026-05-02T08:05:58.162Z</time></trkpt><trkpt lat="46.1477674" lon="13.6017982"><ele>448.6</ele><time>2026-05-02T08:06:00.163Z</time></trkpt><trkpt lat="46.1476776" lon="13.6017412"><ele>452.4</ele><time>2026-05-02T08:06:02.162Z</time></trkpt><trkpt lat="46.1475662" lon="13.601746"><ele>456.2</ele><time>2026-05-02T08:06:04.162Z</time></trkpt><trkpt lat="46.1474747" lon="13.6017909"><ele>460.0</ele><time>2026-05-02T08:06:06.162Z</time></trkpt><trkpt lat="46.1473685" lon="13.6018238"><ele>463.6</ele><time>2026-05-02T08:06:08.163Z</time></trkpt><trkpt lat="46.1472505" lon="13.6017962"><ele>467.2</ele><time>2026-05-02T08:06:10.163Z</time></trkpt><trkpt lat="46.1471878" lon="13.6017865"><ele>470.79999999999995</ele><time>2026-05-02T08:06:11.162Z</time></trkpt><trkpt lat="46.1470915" lon="13.6018022"><ele>474.4</ele><time>2026-05-02T08:06:13.162Z</time></trkpt><trkpt lat="46.1469814" lon="13.601809"><ele>478.0</ele><time>2026-05-02T08:06:15.162Z</time></trkpt><trkpt lat="46.1468687" lon="13.6018469"><ele>478.00000000000006</ele><time>2026-05-02T08:06:17.163Z</time></trkpt><trkpt lat="46.1468002" lon="13.6019335"><ele>478.0</ele><time>2026-05-02T08:06:19.162Z</time></trkpt><trkpt lat="46.1467528" lon="13.6020008"><ele>478.0</ele><time>2026-05-02T08:06:20.163Z</time></trkpt><trkpt lat="46.1466609" lon="13.6021154"><ele>478.0</ele><time>2026-05-02T08:06:22.163Z</time></trkpt><trkpt lat="46.1466081" lon="13.6021687"><ele>478.00000000000006</ele><time>2026-05-02T08:06:23.162Z</time></trkpt><trkpt lat="46.1465611" lon="13.6022302"><ele>478.0</ele><time>2026-05-02T08:06:24.162Z</time></trkpt><trkpt lat="46.1464637" lon="13.6023124"><ele>480.0</ele><time>2026-05-02T08:06:26.162Z</time></trkpt><trkpt lat="46.1463604" lon="13.6023359"><ele>481.99999999999994</ele><time>2026-05-02T08:06:28.162Z</time></trkpt><trkpt lat="46.1462585" lon="13.6023188"><ele>483.99999999999994</ele><time>2026-05-02T08:06:30.162Z</time></trkpt><trkpt lat="46.1461493" lon="13.6022801"><ele>486.0</ele><time>2026-05-02T08:06:32.162Z</time></trkpt><trkpt lat="46.1460414" lon="13.6022521"><ele>488.0</ele><time>2026-05-02T08:06:34.162Z</time></trkpt><trkpt lat="46.1459652" lon="13.6023102"><ele>488.0</ele><time>2026-05-02T08:06:36.162Z</time></trkpt><trkpt lat="46.1459654" lon="13.6024561"><ele>487.99999999999994</ele><time>2026-05-02T08:06:39.162Z</time></trkpt><trkpt lat="46.1460222" lon="13.6026115"><ele>487.99999999999994</ele><time>2026-05-02T08:06:41.162Z</time></trkpt><trkpt lat="46.1460507" lon="13.602784"><ele>488.0</ele><time>2026-05-02T08:06:43.163Z</time></trkpt><trkpt lat="46.1460525" lon="13.6029322"><ele>488.0</ele><time>2026-05-02T08:06:45.163Z</time></trkpt><trkpt lat="46.1460144" lon="13.6030574"><ele>486.0</ele><time>2026-05-02T08:06:47.163Z</time></trkpt><trkpt lat="46.1459446" lon="13.6031913"><ele>483.99999999999994</ele><time>2026-05-02T08:06:49.162Z</time></trkpt><trkpt lat="46.1458696" lon="13.6032958"><ele>481.99999999999994</ele><time>2026-05-02T08:06:51.162Z</time></trkpt><trkpt lat="46.1457841" lon="13.6034329"><ele>480.0</ele><time>2026-05-02T08:06:53.162Z</time></trkpt><trkpt lat="46.1457401" lon="13.6035617"><ele>478.0</ele><time>2026-05-02T08:06:54.162Z</time></trkpt><trkpt lat="46.1457002" lon="13.6036346"><ele>483.1666666666667</ele><time>2026-05-02T08:06:55.162Z</time></trkpt><trkpt lat="46.1456493" lon="13.6037068"><ele>488.33333333333337</ele><time>2026-05-02T08:06:56.162Z</time></trkpt><trkpt lat="46.1456063" lon="13.6037781"><ele>493.5</ele><time>2026-05-02T08:06:57.162Z</time></trkpt><trkpt lat="46.1455584" lon="13.6038659"><ele>498.66666666666663</ele><time>2026-05-02T08:06:59.163Z</time></trkpt><trkpt lat="46.1454953" lon="13.6037914"><ele>503.8333333333333</ele><time>2026-05-02T08:07:03.162Z</time></trkpt><trkpt lat="46.145549" lon="13.6036543"><ele>509.0</ele><time>2026-05-02T08:07:05.162Z</time></trkpt><trkpt lat="46.1455855" lon="13.6035656"><ele>510.49999999999994</ele><time>2026-05-02T08:07:06.162Z</time></trkpt><trkpt lat="46.1456186" lon="13.6034693"><ele>512.0</ele><time>2026-05-02T08:07:07.162Z</time></trkpt><trkpt lat="46.1456396" lon="13.603358"><ele>513.5</ele><time>2026-05-02T08:07:08.162Z</time></trkpt><trkpt lat="46.1456572" lon="13.6032439"><ele>515.0</ele><time>2026-05-02T08:07:09.162Z</time></trkpt><trkpt lat="46.1456975" lon="13.6031591"><ele>516.5</ele><time>2026-05-02T08:07:10.162Z</time></trkpt><trkpt lat="46.1457071" lon="13.6030486"><ele>518.0</ele><time>2026-05-02T08:07:11.162Z</time></trkpt><trkpt lat="46.1457066" lon="13.602942"><ele>518.0</ele><time>2026-05-02T08:07:12.163Z</time></trkpt><trkpt lat="46.1456942" lon="13.6028227"><ele>518.0</ele><time>2026-05-02T08:07:13.162Z</time></trkpt><trkpt lat="46.1456866" lon="13.6027215"><ele>518.0</ele><time>2026-05-02T08:07:14.162Z</time></trkpt><trkpt lat="46.1456583" lon="13.6026166"><ele>518.0</ele><time>2026-05-02T08:07:16.162Z</time></trkpt><trkpt lat="46.145604" lon="13.6026795"><ele>518.0</ele><time>2026-05-02T08:07:19.163Z</time></trkpt><trkpt lat="46.145552" lon="13.6028312"><ele>518.0</ele><time>2026-05-02T08:07:21.162Z</time></trkpt><trkpt lat="46.1454944" lon="13.6029548"><ele>518.0</ele><time>2026-05-02T08:07:23.163Z</time></trkpt><trkpt lat="46.1454494" lon="13.6030249"><ele>518.0</ele><time>2026-05-02T08:07:24.162Z</time></trkpt><trkpt lat="46.1453497" lon="13.6031295"><ele>518.0</ele><time>2026-05-02T08:07:26.163Z</time></trkpt><trkpt lat="46.1452698" lon="13.6031881"><ele>518.0</ele><time>2026-05-02T08:07:27.162Z</time></trkpt><trkpt lat="46.1451949" lon="13.6032451"><ele>518.0</ele><time>2026-05-02T08:07:28.162Z</time></trkpt><trkpt lat="46.145101" lon="13.6033069"><ele>518.0</ele><time>2026-05-02T08:07:29.162Z</time></trkpt><trkpt lat="46.1449977" lon="13.603382"><ele>518.0</ele><time>2026-05-02T08:07:31.162Z</time></trkpt><trkpt lat="46.1449492" lon="13.6034783"><ele>518.0</ele><time>2026-05-02T08:07:33.162Z</time></trkpt><trkpt lat="46.1449095" lon="13.6036538"><ele>518.0</ele><time>2026-05-02T08:07:35.162Z</time></trkpt><trkpt lat="46.1448937" lon="13.6037772"><ele>518.0</ele><time>2026-05-02T08:07:36.162Z</time></trkpt><trkpt lat="46.1448749" lon="13.6038783"><ele>522.6666666666666</ele><time>2026-05-02T08:07:37.162Z</time></trkpt><trkpt lat="46.1448459" lon="13.6039614"><ele>527.3333333333333</ele><time>2026-05-02T08:07:38.163Z</time></trkpt><trkpt lat="46.1447639" lon="13.6040662"><ele>532.0</ele><time>2026-05-02T08:07:40.162Z</time></trkpt><trkpt lat="46.1447277" lon="13.6041742"><ele>536.6666666666666</ele><time>2026-05-02T08:07:42.163Z</time></trkpt><trkpt lat="46.1447124" lon="13.6043476"><ele>541.3333333333334</ele><time>2026-05-02T08:07:44.162Z</time></trkpt><trkpt lat="46.1446964" lon="13.6044391"><ele>546.0</ele><time>2026-05-02T08:07:45.162Z</time></trkpt><trkpt lat="46.1446308" lon="13.6045505"><ele>546.0</ele><time>2026-05-02T08:07:47.162Z</time></trkpt><trkpt lat="46.1445211" lon="13.6045513"><ele>546.0</ele><time>2026-05-02T08:07:49.162Z</time></trkpt><trkpt lat="46.1444465" lon="13.6045181"><ele>546.0</ele><time>2026-05-02T08:07:51.162Z</time></trkpt><trkpt lat="46.1444483" lon="13.6043992"><ele>546.0</ele><time>2026-05-02T08:07:53.162Z</time></trkpt><trkpt lat="46.1444728" lon="13.6043131"><ele>546.0</ele><time>2026-05-02T08:07:54.162Z</time></trkpt><trkpt lat="46.144493" lon="13.6041169"><ele>547.4</ele><time>2026-05-02T08:07:56.162Z</time></trkpt><trkpt lat="46.1444924" lon="13.6039777"><ele>548.8</ele><time>2026-05-02T08:07:57.163Z</time></trkpt><trkpt lat="46.1445008" lon="13.6038453"><ele>550.1999999999999</ele><time>2026-05-02T08:07:58.162Z</time></trkpt><trkpt lat="46.1445044" lon="13.6037226"><ele>551.6</ele><time>2026-05-02T08:07:59.163Z</time></trkpt><trkpt lat="46.1444915" lon="13.603604"><ele>553.0</ele><time>2026-05-02T08:08:00.162Z</time></trkpt><trkpt lat="46.1444783" lon="13.6034631"><ele>554.6666666666667</ele><time>2026-05-02T08:08:01.162Z</time></trkpt><trkpt lat="46.1444768" lon="13.6033429"><ele>556.3333333333334</ele><time>2026-05-02T08:08:02.162Z</time></trkpt><trkpt lat="46.1444779" lon="13.6032402"><ele>558.0</ele><time>2026-05-02T08:08:03.163Z</time></trkpt><trkpt lat="46.1445006" lon="13.6031029"><ele>559.6666666666666</ele><time>2026-05-02T08:08:05.162Z</time></trkpt><trkpt lat="46.1445609" lon="13.6029834"><ele>561.3333333333333</ele><time>2026-05-02T08:08:07.162Z</time></trkpt><trkpt lat="46.144598" lon="13.6029068"><ele>563.0</ele><time>2026-05-02T08:08:08.162Z</time></trkpt><trkpt lat="46.1446435" lon="13.6028073"><ele>565.0</ele><time>2026-05-02T08:08:09.163Z</time></trkpt><trkpt lat="46.1446942" lon="13.6027193"><ele>567.0</ele><time>2026-05-02T08:08:10.163Z</time></trkpt><trkpt lat="46.1447281" lon="13.6026384"><ele>569.0</ele><time>2026-05-02T08:08:11.162Z</time></trkpt><trkpt lat="46.1447912" lon="13.6025144"><ele>571.0</ele><time>2026-05-02T08:08:13.162Z</time></trkpt><trkpt lat="46.1447788" lon="13.6023773"><ele>573.0</ele><time>2026-05-02T08:08:15.163Z</time></trkpt><trkpt lat="46.1447539" lon="13.6022659"><ele>575.0</ele><time>2026-05-02T08:08:16.162Z</time></trkpt><trkpt lat="46.1447478" lon="13.6021324"><ele>575.0</ele><time>2026-05-02T08:08:17.163Z</time></trkpt><trkpt lat="46.1447391" lon="13.6020075"><ele>575.0</ele><time>2026-05-02T08:08:18.162Z</time></trkpt><trkpt lat="46.1447515" lon="13.601914"><ele>575.0</ele><time>2026-05-02T08:08:19.162Z</time></trkpt><trkpt lat="46.144776" lon="13.6017965"><ele>575.0</ele><time>2026-05-02T08:08:20.162Z</time></trkpt><trkpt lat="46.1448044" lon="13.6016482"><ele>575.0</ele><time>2026-05-02T08:08:21.163Z</time></trkpt><trkpt lat="46.1448413" lon="13.6015296"><ele>575.0</ele><time>2026-05-02T08:08:22.162Z</time></trkpt><trkpt lat="46.1448664" lon="13.6014047"><ele>577.5</ele><time>2026-05-02T08:08:23.163Z</time></trkpt><trkpt lat="46.1448761" lon="13.6012791"><ele>580.0</ele><time>2026-05-02T08:08:24.162Z</time></trkpt><trkpt lat="46.1448845" lon="13.601135"><ele>582.5</ele><time>2026-05-02T08:08:25.162Z</time></trkpt><trkpt lat="46.1448875" lon="13.6010314"><ele>585.0</ele><time>2026-05-02T08:08:26.162Z</time></trkpt><trkpt lat="46.1449106" lon="13.6008813"><ele>587.5</ele><time>2026-05-02T08:08:28.162Z</time></trkpt><trkpt lat="46.1449835" lon="13.6008386"><ele>590.0</ele><time>2026-05-02T08:08:30.163Z</time></trkpt><trkpt lat="46.1450538" lon="13.6008355"><ele>587.6666666666666</ele><time>2026-05-02T08:08:31.162Z</time></trkpt><trkpt lat="46.145181" lon="13.6007534"><ele>585.3333333333333</ele><time>2026-05-02T08:08:33.162Z</time></trkpt><trkpt lat="46.1452368" lon="13.6006886"><ele>583.0</ele><time>2026-05-02T08:08:34.163Z</time></trkpt><trkpt lat="46.1452947" lon="13.6006016"><ele>580.6666666666666</ele><time>2026-05-02T08:08:35.163Z</time></trkpt><trkpt lat="46.1453299" lon="13.6005255"><ele>578.3333333333334</ele><time>2026-05-02T08:08:36.163Z</time></trkpt><trkpt lat="46.1453651" lon="13.6004334"><ele>576.0</ele><time>2026-05-02T08:08:37.162Z</time></trkpt><trkpt lat="46.1454371" lon="13.6003044"><ele>576.0</ele><time>2026-05-02T08:08:38.162Z</time></trkpt><trkpt lat="46.1455273" lon="13.6001808"><ele>576.0</ele><time>2026-05-02T08:08:39.162Z</time></trkpt><trkpt lat="46.1455932" lon="13.6000784"><ele>576.0</ele><time>2026-05-02T08:08:40.162Z</time></trkpt><trkpt lat="46.1456479" lon="13.5999858"><ele>576.0</ele><time>2026-05-02T08:08:41.162Z</time></trkpt><trkpt lat="46.145697" lon="13.5999018"><ele>576.0</ele><time>2026-05-02T08:08:42.163Z</time></trkpt><trkpt lat="46.145733" lon="13.5998214"><ele>576.0</ele><time>2026-05-02T08:08:43.162Z</time></trkpt><trkpt lat="46.1457737" lon="13.599654"><ele>577.6666666666666</ele><time>2026-05-02T08:08:45.162Z</time></trkpt><trkpt lat="46.1457751" lon="13.5995531"><ele>579.3333333333334</ele><time>2026-05-02T08:08:46.162Z</time></trkpt><trkpt lat="46.1457578" lon="13.5994589"><ele>581.0</ele><time>2026-05-02T08:08:47.162Z</time></trkpt><trkpt lat="46.1457248" lon="13.5993811"><ele>582.6666666666667</ele><time>2026-05-02T08:08:48.162Z</time></trkpt><trkpt lat="46.1456482" lon="13.5992538"><ele>584.3333333333334</ele><time>2026-05-02T08:08:50.163Z</time></trkpt><trkpt lat="46.1455962" lon="13.5991844"><ele>586.0</ele><time>2026-05-02T08:08:51.162Z</time></trkpt><trkpt lat="46.1455252" lon="13.5991178"><ele>586.0</ele><time>2026-05-02T08:08:52.162Z</time></trkpt><trkpt lat="46.1454345" lon="13.5990431"><ele>586.0</ele><time>2026-05-02T08:08:53.163Z</time></trkpt><trkpt lat="46.1453582" lon="13.5989658"><ele>586.0</ele><time>2026-05-02T08:08:54.163Z</time></trkpt><trkpt lat="46.1453045" lon="13.598902"><ele>586.0</ele><time>2026-05-02T08:08:55.163Z</time></trkpt><trkpt lat="46.1452514" lon="13.5988175"><ele>586.0</ele><time>2026-05-02T08:08:56.162Z</time></trkpt><trkpt lat="46.1452157" lon="13.5987361"><ele>586.0</ele><time>2026-05-02T08:08:57.163Z</time></trkpt><trkpt lat="46.1451908" lon="13.5985855"><ele>585.6666666666667</ele><time>2026-05-02T08:08:59.162Z</time></trkpt><trkpt lat="46.1452087" lon="13.5984606"><ele>585.3333333333334</ele><time>2026-05-02T08:09:01.162Z</time></trkpt><trkpt lat="46.1453203" lon="13.5984155"><ele>585.0</ele><time>2026-05-02T08:09:03.163Z</time></trkpt><trkpt lat="46.1453854" lon="13.5983984"><ele>584.6666666666666</ele><time>2026-05-02T08:09:04.163Z</time></trkpt><trkpt lat="46.1454471" lon="13.5983748"><ele>584.3333333333333</ele><time>2026-05-02T08:09:05.162Z</time></trkpt><trkpt lat="46.1455206" lon="13.5982638"><ele>584.0</ele><time>2026-05-02T08:09:07.162Z</time></trkpt><trkpt lat="46.1455496" lon="13.5981215"><ele>584.0</ele><time>2026-05-02T08:09:09.162Z</time></trkpt><trkpt lat="46.1456164" lon="13.5980339"><ele>584.0</ele><time>2026-05-02T08:09:11.163Z</time></trkpt><trkpt lat="46.1457538" lon="13.5980014"><ele>584.0</ele><time>2026-05-02T08:09:13.162Z</time></trkpt><trkpt lat="46.145843" lon="13.5979815"><ele>584.0</ele><time>2026-05-02T08:09:14.162Z</time></trkpt><trkpt lat="46.1459356" lon="13.5979575"><ele>584.0</ele><time>2026-05-02T08:09:15.163Z</time></trkpt><trkpt lat="46.1460101" lon="13.5979204"><ele>581.4</ele><time>2026-05-02T08:09:16.162Z</time></trkpt><trkpt lat="46.1460868" lon="13.5978614"><ele>578.8</ele><time>2026-05-02T08:09:17.163Z</time></trkpt><trkpt lat="46.1461502" lon="13.5977729"><ele>576.2</ele><time>2026-05-02T08:09:18.163Z</time></trkpt><trkpt lat="46.1462042" lon="13.5976967"><ele>573.6</ele><time>2026-05-02T08:09:19.162Z</time></trkpt><trkpt lat="46.1462928" lon="13.597578"><ele>571.0</ele><time>2026-05-02T08:09:21.162Z</time></trkpt><trkpt lat="46.1463436" lon="13.5974727"><ele>571.0</ele><time>2026-05-02T08:09:23.163Z</time></trkpt><trkpt lat="46.1463461" lon="13.5973529"><ele>571.0</ele><time>2026-05-02T08:09:25.162Z</time></trkpt><trkpt lat="46.1463047" lon="13.5972304"><ele>571.0</ele><time>2026-05-02T08:09:27.163Z</time></trkpt><trkpt lat="46.1462736" lon="13.597151"><ele>571.0</ele><time>2026-05-02T08:09:28.163Z</time></trkpt><trkpt lat="46.1462499" lon="13.597023"><ele>571.0</ele><time>2026-05-02T08:09:30.162Z</time></trkpt><trkpt lat="46.1462906" lon="13.5969313"><ele>571.0</ele><time>2026-05-02T08:09:32.163Z</time></trkpt><trkpt lat="46.1463603" lon="13.5968952"><ele>574.0</ele><time>2026-05-02T08:09:33.162Z</time></trkpt><trkpt lat="46.1464553" lon="13.5967742"><ele>577.0</ele><time>2026-05-02T08:09:35.162Z</time></trkpt><trkpt lat="46.1465019" lon="13.5966808"><ele>580.0</ele><time>2026-05-02T08:09:36.162Z</time></trkpt><trkpt lat="46.1465495" lon="13.5965862"><ele>583.0</ele><time>2026-05-02T08:09:37.163Z</time></trkpt><trkpt lat="46.1466032" lon="13.5964743"><ele>586.0</ele><time>2026-05-02T08:09:38.162Z</time></trkpt><trkpt lat="46.1466555" lon="13.5963645"><ele>585.8</ele><time>2026-05-02T08:09:39.162Z</time></trkpt><trkpt lat="46.1466928" lon="13.5962702"><ele>585.6</ele><time>2026-05-02T08:09:40.162Z</time></trkpt><trkpt lat="46.146722" lon="13.5961317"><ele>585.4</ele><time>2026-05-02T08:09:42.162Z</time></trkpt><trkpt lat="46.1466722" lon="13.5960374"><ele>585.2</ele><time>2026-05-02T08:09:44.162Z</time></trkpt><trkpt lat="46.1465797" lon="13.5959578"><ele>585.0</ele><time>2026-05-02T08:09:46.162Z</time></trkpt><trkpt lat="46.1464974" lon="13.5959215"><ele>585.0</ele><time>2026-05-02T08:09:47.162Z</time></trkpt><trkpt lat="46.1464156" lon="13.5958888"><ele>585.0</ele><time>2026-05-02T08:09:48.162Z</time></trkpt><trkpt lat="46.1463461" lon="13.5958567"><ele>585.0</ele><time>2026-05-02T08:09:49.163Z</time></trkpt><trkpt lat="46.1462854" lon="13.5958298"><ele>585.0</ele><time>2026-05-02T08:09:50.162Z</time></trkpt><trkpt lat="46.1462277" lon="13.5957627"><ele>585.0</ele><time>2026-05-02T08:09:52.162Z</time></trkpt><trkpt lat="46.1462406" lon="13.5956401"><ele>585.0</ele><time>2026-05-02T08:09:54.162Z</time></trkpt><trkpt lat="46.1462702" lon="13.5955597"><ele>585.0</ele><time>2026-05-02T08:09:55.162Z</time></trkpt><trkpt lat="46.14631" lon="13.5954576"><ele>585.0</ele><time>2026-05-02T08:09:56.162Z</time></trkpt><trkpt lat="46.1463531" lon="13.5953392"><ele>585.0</ele><time>2026-05-02T08:09:57.162Z</time></trkpt><trkpt lat="46.1464026" lon="13.595205"><ele>585.0</ele><time>2026-05-02T08:09:58.162Z</time></trkpt><trkpt lat="46.14646" lon="13.5950741"><ele>585.0</ele><time>2026-05-02T08:09:59.162Z</time></trkpt><trkpt lat="46.1465036" lon="13.5949747"><ele>585.0</ele><time>2026-05-02T08:10:00.162Z</time></trkpt><trkpt lat="46.1465356" lon="13.5948937"><ele>585.0</ele><time>2026-05-02T08:10:01.162Z</time></trkpt><trkpt lat="46.1465471" lon="13.5947753"><ele>585.0</ele><time>2026-05-02T08:10:03.163Z</time></trkpt><trkpt lat="46.1464943" lon="13.5946949"><ele>585.0</ele><time>2026-05-02T08:10:05.162Z</time></trkpt><trkpt lat="46.1463941" lon="13.5946937"><ele>585.0</ele><time>2026-05-02T08:10:07.163Z</time></trkpt><trkpt lat="46.1463112" lon="13.5947078"><ele>585.0</ele><time>2026-05-02T08:10:08.163Z</time></trkpt><trkpt lat="46.1462064" lon="13.5947216"><ele>585.0</ele><time>2026-05-02T08:10:09.162Z</time></trkpt><trkpt lat="46.146109" lon="13.5947302"><ele>585.0</ele><time>2026-05-02T08:10:10.162Z</time></trkpt><trkpt lat="46.1460357" lon="13.5947398"><ele>585.0</ele><time>2026-05-02T08:10:11.163Z</time></trkpt><trkpt lat="46.1459439" lon="13.5947076"><ele>585.0</ele><time>2026-05-02T08:10:13.163Z</time></trkpt><trkpt lat="46.1458716" lon="13.5946242"><ele>585.0</ele><time>2026-05-02T08:10:15.162Z</time></trkpt><trkpt lat="46.1457823" lon="13.5945651"><ele>585.0</ele><time>2026-05-02T08:10:17.163Z</time></trkpt><trkpt lat="46.1457311" lon="13.5944964"><ele>585.0</ele><time>2026-05-02T08:10:19.162Z</time></trkpt><trkpt lat="46.1457155" lon="13.5943603"><ele>583.6666666666666</ele><time>2026-05-02T08:10:21.162Z</time></trkpt><trkpt lat="46.1457129" lon="13.5942295"><ele>582.3333333333334</ele><time>2026-05-02T08:10:22.162Z</time></trkpt><trkpt lat="46.1457199" lon="13.5940789"><ele>581.0</ele><time>2026-05-02T08:10:23.163Z</time></trkpt><trkpt lat="46.14572" lon="13.593942"><ele>579.6666666666667</ele><time>2026-05-02T08:10:24.162Z</time></trkpt><trkpt lat="46.1457068" lon="13.5938336"><ele>578.3333333333334</ele><time>2026-05-02T08:10:25.163Z</time></trkpt><trkpt lat="46.1456786" lon="13.5937343"><ele>577.0</ele><time>2026-05-02T08:10:26.162Z</time></trkpt><trkpt lat="46.1456509" lon="13.5936313"><ele>583.4</ele><time>2026-05-02T08:10:27.162Z</time></trkpt><trkpt lat="46.1456176" lon="13.5935493"><ele>589.8000000000001</ele><time>2026-05-02T08:10:28.162Z</time></trkpt><trkpt lat="46.1455047" lon="13.5934629"><ele>596.2</ele><time>2026-05-02T08:10:30.163Z</time></trkpt><trkpt lat="46.1454296" lon="13.5933681"><ele>602.6</ele><time>2026-05-02T08:10:32.162Z</time></trkpt><trkpt lat="46.145415" lon="13.5932383"><ele>609.0</ele><time>2026-05-02T08:10:34.162Z</time></trkpt><trkpt lat="46.1454424" lon="13.5931278"><ele>609.0</ele><time>2026-05-02T08:10:35.162Z</time></trkpt><trkpt lat="46.1454706" lon="13.5930138"><ele>609.0</ele><time>2026-05-02T08:10:36.161Z</time></trkpt><trkpt lat="46.1454903" lon="13.5929097"><ele>609.0</ele><time>2026-05-02T08:10:37.162Z</time></trkpt><trkpt lat="46.1455314" lon="13.592826"><ele>609.0</ele><time>2026-05-02T08:10:38.161Z</time></trkpt><trkpt lat="46.1455841" lon="13.5927567"><ele>609.0</ele><time>2026-05-02T08:10:39.161Z</time></trkpt><trkpt lat="46.1456507" lon="13.592624"><ele>609.0</ele><time>2026-05-02T08:10:41.162Z</time></trkpt><trkpt lat="46.1456619" lon="13.5925305"><ele>608.5</ele><time>2026-05-02T08:10:42.162Z</time></trkpt><trkpt lat="46.1456584" lon="13.5924208"><ele>608.0</ele><time>2026-05-02T08:10:43.162Z</time></trkpt><trkpt lat="46.1456589" lon="13.5923233"><ele>607.5</ele><time>2026-05-02T08:10:44.161Z</time></trkpt><trkpt lat="46.1456551" lon="13.5921733"><ele>607.0</ele><time>2026-05-02T08:10:46.162Z</time></trkpt><trkpt lat="46.1456122" lon="13.5920275"><ele>606.5</ele><time>2026-05-02T08:10:48.162Z</time></trkpt><trkpt lat="46.1455757" lon="13.5919055"><ele>606.0</ele><time>2026-05-02T08:10:49.161Z</time></trkpt><trkpt lat="46.1455465" lon="13.5917907"><ele>606.0</ele><time>2026-05-02T08:10:50.161Z</time></trkpt><trkpt lat="46.1455215" lon="13.5916726"><ele>606.0</ele><time>2026-05-02T08:10:51.161Z</time></trkpt><trkpt lat="46.145501" lon="13.5914971"><ele>606.0</ele><time>2026-05-02T08:10:53.161Z</time></trkpt><trkpt lat="46.1455413" lon="13.5913024"><ele>606.0</ele><time>2026-05-02T08:10:55.161Z</time></trkpt><trkpt lat="46.145567" lon="13.5911912"><ele>606.0</ele><time>2026-05-02T08:10:56.161Z</time></trkpt><trkpt lat="46.145587" lon="13.5910925"><ele>606.8333333333334</ele><time>2026-05-02T08:10:57.162Z</time></trkpt><trkpt lat="46.1455974" lon="13.5909694"><ele>607.6666666666666</ele><time>2026-05-02T08:10:58.161Z</time></trkpt><trkpt lat="46.1456001" lon="13.5908595"><ele>608.5</ele><time>2026-05-02T08:10:59.161Z</time></trkpt><trkpt lat="46.1456082" lon="13.5907668"><ele>609.3333333333333</ele><time>2026-05-02T08:11:00.161Z</time></trkpt><trkpt lat="46.1456318" lon="13.5906015"><ele>610.1666666666666</ele><time>2026-05-02T08:11:02.161Z</time></trkpt><trkpt lat="46.1456627" lon="13.5905196"><ele>611.0</ele><time>2026-05-02T08:11:03.162Z</time></trkpt><trkpt lat="46.1457037" lon="13.5904427"><ele>604.6666666666666</ele><time>2026-05-02T08:11:04.161Z</time></trkpt><trkpt lat="46.1457636" lon="13.5903659"><ele>598.3333333333333</ele><time>2026-05-02T08:11:05.162Z</time></trkpt><trkpt lat="46.1458176" lon="13.5902436"><ele>592.0</ele><time>2026-05-02T08:11:07.162Z</time></trkpt><trkpt lat="46.1458281" lon="13.5900863"><ele>585.6666666666666</ele><time>2026-05-02T08:11:09.161Z</time></trkpt><trkpt lat="46.145818" lon="13.5899844"><ele>579.3333333333334</ele><time>2026-05-02T08:11:10.162Z</time></trkpt><trkpt lat="46.1458126" lon="13.5898835"><ele>573.0</ele><time>2026-05-02T08:11:11.161Z</time></trkpt><trkpt lat="46.1458235" lon="13.5897741"><ele>573.0</ele><time>2026-05-02T08:11:12.161Z</time></trkpt><trkpt lat="46.1458435" lon="13.5896645"><ele>573.0</ele><time>2026-05-02T08:11:13.162Z</time></trkpt><trkpt lat="46.1458643" lon="13.5895586"><ele>573.0</ele><time>2026-05-02T08:11:14.162Z</time></trkpt><trkpt lat="46.1458764" lon="13.5894691"><ele>573.0</ele><time>2026-05-02T08:11:15.161Z</time></trkpt><trkpt lat="46.1458821" lon="13.5892878"><ele>573.0</ele><time>2026-05-02T08:11:17.162Z</time></trkpt><trkpt lat="46.1459198" lon="13.5890936"><ele>574.1999999999999</ele><time>2026-05-02T08:11:19.161Z</time></trkpt><trkpt lat="46.1459542" lon="13.5889918"><ele>575.4</ele><time>2026-05-02T08:11:20.162Z</time></trkpt><trkpt lat="46.1459848" lon="13.5889115"><ele>576.5999999999999</ele><time>2026-05-02T08:11:21.161Z</time></trkpt><trkpt lat="46.1459927" lon="13.5887817"><ele>577.8</ele><time>2026-05-02T08:11:23.161Z</time></trkpt><trkpt lat="46.1461404" lon="13.5886751"><ele>579.0</ele><time>2026-05-02T08:11:25.162Z</time></trkpt><trkpt lat="46.1462452" lon="13.5885895"><ele>577.0</ele><time>2026-05-02T08:11:26.161Z</time></trkpt><trkpt lat="46.1463458" lon="13.5885241"><ele>575.0</ele><time>2026-05-02T08:11:27.162Z</time></trkpt><trkpt lat="46.1464293" lon="13.5884639"><ele>573.0</ele><time>2026-05-02T08:11:28.162Z</time></trkpt><trkpt lat="46.1465163" lon="13.5884163"><ele>571.0</ele><time>2026-05-02T08:11:29.161Z</time></trkpt><trkpt lat="46.146597" lon="13.588388"><ele>569.0</ele><time>2026-05-02T08:11:30.161Z</time></trkpt><trkpt lat="46.1466675" lon="13.5883652"><ele>569.0</ele><time>2026-05-02T08:11:31.162Z</time></trkpt><trkpt lat="46.1467415" lon="13.5882646"><ele>569.0</ele><time>2026-05-02T08:11:33.161Z</time></trkpt><trkpt lat="46.1467273" lon="13.5881631"><ele>569.0</ele><time>2026-05-02T08:11:36.161Z</time></trkpt><trkpt lat="46.1466463" lon="13.5881647"><ele>569.0</ele><time>2026-05-02T08:11:38.162Z</time></trkpt><trkpt lat="46.1464911" lon="13.588239"><ele>569.0</ele><time>2026-05-02T08:11:40.162Z</time></trkpt><trkpt lat="46.1464085" lon="13.5882829"><ele>574.5</ele><time>2026-05-02T08:11:41.161Z</time></trkpt><trkpt lat="46.1463323" lon="13.5883315"><ele>580.0</ele><time>2026-05-02T08:11:42.162Z</time></trkpt><trkpt lat="46.1462613" lon="13.5883643"><ele>585.5</ele><time>2026-05-02T08:11:43.162Z</time></trkpt><trkpt lat="46.1461986" lon="13.5884078"><ele>591.0</ele><time>2026-05-02T08:11:44.161Z</time></trkpt><trkpt lat="46.1461401" lon="13.5884655"><ele>596.5</ele><time>2026-05-02T08:11:45.162Z</time></trkpt><trkpt lat="46.1460767" lon="13.5885325"><ele>602.0</ele><time>2026-05-02T08:11:46.162Z</time></trkpt><trkpt lat="46.1460054" lon="13.5885812"><ele>602.0</ele><time>2026-05-02T08:11:47.161Z</time></trkpt><trkpt lat="46.145935" lon="13.5886199"><ele>602.0</ele><time>2026-05-02T08:11:48.161Z</time></trkpt><trkpt lat="46.1458808" lon="13.5886668"><ele>602.0</ele><time>2026-05-02T08:11:49.161Z</time></trkpt><trkpt lat="46.1458083" lon="13.5887997"><ele>602.0</ele><time>2026-05-02T08:11:51.161Z</time></trkpt><trkpt lat="46.1457645" lon="13.5888988"><ele>602.0</ele><time>2026-05-02T08:11:52.162Z</time></trkpt><trkpt lat="46.1457187" lon="13.5890014"><ele>602.0</ele><time>2026-05-02T08:11:53.162Z</time></trkpt><trkpt lat="46.1456918" lon="13.5891024"><ele>604.8333333333333</ele><time>2026-05-02T08:11:54.162Z</time></trkpt><trkpt lat="46.1456335" lon="13.5892293"><ele>607.6666666666666</ele><time>2026-05-02T08:11:55.161Z</time></trkpt><trkpt lat="46.1456112" lon="13.5893303"><ele>610.5</ele><time>2026-05-02T08:11:56.162Z</time></trkpt><trkpt lat="46.1455814" lon="13.5894399"><ele>613.3333333333334</ele><time>2026-05-02T08:11:57.161Z</time></trkpt><trkpt lat="46.1455616" lon="13.589531"><ele>616.1666666666667</ele><time>2026-05-02T08:11:58.161Z</time></trkpt><trkpt lat="46.1455376" lon="13.5896421"><ele>619.0</ele><time>2026-05-02T08:11:59.162Z</time></trkpt><trkpt lat="46.1455086" lon="13.5897439"><ele>619.0</ele><time>2026-05-02T08:12:00.161Z</time></trkpt><trkpt lat="46.1454766" lon="13.5898256"><ele>619.0</ele><time>2026-05-02T08:12:01.162Z</time></trkpt><trkpt lat="46.1454383" lon="13.5899208"><ele>619.0</ele><time>2026-05-02T08:12:02.162Z</time></trkpt><trkpt lat="46.1453908" lon="13.5900514"><ele>619.0</ele><time>2026-05-02T08:12:04.161Z</time></trkpt><trkpt lat="46.1453922" lon="13.5901425"><ele>619.0</ele><time>2026-05-02T08:12:05.161Z</time></trkpt><trkpt lat="46.1453783" lon="13.5902565"><ele>619.0</ele><time>2026-05-02T08:12:06.161Z</time></trkpt><trkpt lat="46.1453735" lon="13.5903633"><ele>617.8571428571429</ele><time>2026-05-02T08:12:07.161Z</time></trkpt><trkpt lat="46.1453711" lon="13.5904696"><ele>616.7142857142858</ele><time>2026-05-02T08:12:08.161Z</time></trkpt><trkpt lat="46.1453619" lon="13.590567"><ele>615.5714285714287</ele><time>2026-05-02T08:12:09.161Z</time></trkpt><trkpt lat="46.1453424" lon="13.5906574"><ele>614.4285714285714</ele><time>2026-05-02T08:12:10.161Z</time></trkpt><trkpt lat="46.1453108" lon="13.5907466"><ele>613.2857142857143</ele><time>2026-05-02T08:12:11.161Z</time></trkpt><trkpt lat="46.1452722" lon="13.5908672"><ele>612.1428571428572</ele><time>2026-05-02T08:12:12.162Z</time></trkpt><trkpt lat="46.1452388" lon="13.5909684"><ele>611.0</ele><time>2026-05-02T08:12:13.161Z</time></trkpt><trkpt lat="46.1451972" lon="13.5910413"><ele>611.0</ele><time>2026-05-02T08:12:14.161Z</time></trkpt><trkpt lat="46.1451408" lon="13.5911022"><ele>611.0</ele><time>2026-05-02T08:12:15.162Z</time></trkpt><trkpt lat="46.145067" lon="13.5912304"><ele>611.0</ele><time>2026-05-02T08:12:17.162Z</time></trkpt><trkpt lat="46.1450318" lon="13.5913488"><ele>611.0</ele><time>2026-05-02T08:12:19.161Z</time></trkpt><trkpt lat="46.1450404" lon="13.5915566"><ele>611.0</ele><time>2026-05-02T08:12:21.162Z</time></trkpt><trkpt lat="46.1450275" lon="13.5917023"><ele>610.1666666666666</ele><time>2026-05-02T08:12:22.161Z</time></trkpt><trkpt lat="46.1450085" lon="13.5918437"><ele>609.3333333333333</ele><time>2026-05-02T08:12:23.162Z</time></trkpt><trkpt lat="46.1449936" lon="13.5919555"><ele>608.5</ele><time>2026-05-02T08:12:24.161Z</time></trkpt><trkpt lat="46.1449818" lon="13.5920533"><ele>607.6666666666666</ele><time>2026-05-02T08:12:25.161Z</time></trkpt><trkpt lat="46.1449473" lon="13.5921416"><ele>606.8333333333334</ele><time>2026-05-02T08:12:26.161Z</time></trkpt><trkpt lat="46.1449175" lon="13.5922366"><ele>606.0</ele><time>2026-05-02T08:12:27.162Z</time></trkpt><trkpt lat="46.1448961" lon="13.5923334"><ele>605.8</ele><time>2026-05-02T08:12:28.161Z</time></trkpt><trkpt lat="46.1448916" lon="13.5925267"><ele>605.6</ele><time>2026-05-02T08:12:30.161Z</time></trkpt><trkpt lat="46.1449098" lon="13.5926654"><ele>605.4</ele><time>2026-05-02T08:12:31.161Z</time></trkpt><trkpt lat="46.1449307" lon="13.5927806"><ele>605.2</ele><time>2026-05-02T08:12:32.161Z</time></trkpt><trkpt lat="46.1449472" lon="13.5929297"><ele>605.0</ele><time>2026-05-02T08:12:34.162Z</time></trkpt><trkpt lat="46.1448999" lon="13.5930459"><ele>605.6666666666666</ele><time>2026-05-02T08:12:36.161Z</time></trkpt><trkpt lat="46.144846" lon="13.5931314"><ele>606.3333333333333</ele><time>2026-05-02T08:12:37.161Z</time></trkpt><trkpt lat="46.1447721" lon="13.5932462"><ele>607.0</ele><time>2026-05-02T08:12:39.161Z</time></trkpt><trkpt lat="46.1447384" lon="13.5933801"><ele>607.6666666666666</ele><time>2026-05-02T08:12:41.162Z</time></trkpt><trkpt lat="46.1446736" lon="13.5933873"><ele>608.3333333333334</ele><time>2026-05-02T08:12:43.161Z</time></trkpt><trkpt lat="46.1446089" lon="13.5932884"><ele>609.0</ele><time>2026-05-02T08:12:45.162Z</time></trkpt><trkpt lat="46.144609" lon="13.5930853"><ele>609.0</ele><time>2026-05-02T08:12:47.161Z</time></trkpt><trkpt lat="46.1446045" lon="13.5929603"><ele>609.0</ele><time>2026-05-02T08:12:48.161Z</time></trkpt><trkpt lat="46.144587" lon="13.592831"><ele>609.0</ele><time>2026-05-02T08:12:49.161Z</time></trkpt><trkpt lat="46.1445601" lon="13.5926994"><ele>609.0</ele><time>2026-05-02T08:12:50.161Z</time></trkpt><trkpt lat="46.144516" lon="13.5925577"><ele>609.0</ele><time>2026-05-02T08:12:51.161Z</time></trkpt><trkpt lat="46.144465" lon="13.592416"><ele>608.8</ele><time>2026-05-02T08:12:52.161Z</time></trkpt><trkpt lat="46.1444136" lon="13.5922673"><ele>608.5999999999999</ele><time>2026-05-02T08:12:53.161Z</time></trkpt><trkpt lat="46.1443655" lon="13.5921488"><ele>608.4</ele><time>2026-05-02T08:12:54.162Z</time></trkpt><trkpt lat="46.1443347" lon="13.5920543"><ele>608.1999999999999</ele><time>2026-05-02T08:12:55.162Z</time></trkpt><trkpt lat="46.1443312" lon="13.5918906"><ele>608.0</ele><time>2026-05-02T08:12:57.161Z</time></trkpt><trkpt lat="46.144345" lon="13.5917261"><ele>608.0</ele><time>2026-05-02T08:12:59.161Z</time></trkpt><trkpt lat="46.1443135" lon="13.5916414"><ele>608.0</ele><time>2026-05-02T08:13:00.161Z</time></trkpt><trkpt lat="46.1442079" lon="13.5915422"><ele>608.0</ele><time>2026-05-02T08:13:02.162Z</time></trkpt><trkpt lat="46.1441311" lon="13.5914816"><ele>608.0</ele><time>2026-05-02T08:13:03.161Z</time></trkpt><trkpt lat="46.1440558" lon="13.5914187"><ele>608.0</ele><time>2026-05-02T08:13:04.162Z</time></trkpt><trkpt lat="46.14399" lon="13.59135"><ele>608.0</ele><time>2026-05-02T08:13:05.162Z</time></trkpt><trkpt lat="46.1439346" lon="13.5912899"><ele>604.4</ele><time>2026-05-02T08:13:06.161Z</time></trkpt><trkpt lat="46.1438678" lon="13.5912328"><ele>600.8</ele><time>2026-05-02T08:13:07.161Z</time></trkpt><trkpt lat="46.1438096" lon="13.5911978"><ele>597.2</ele><time>2026-05-02T08:13:08.162Z</time></trkpt><trkpt lat="46.1437355" lon="13.5910822"><ele>593.6</ele><time>2026-05-02T08:13:10.162Z</time></trkpt><trkpt lat="46.1436761" lon="13.5909249"><ele>590.0</ele><time>2026-05-02T08:13:12.162Z</time></trkpt><trkpt lat="46.143646" lon="13.5908103"><ele>589.8333333333333</ele><time>2026-05-02T08:13:13.162Z</time></trkpt><trkpt lat="46.1436122" lon="13.5906927"><ele>589.6666666666666</ele><time>2026-05-02T08:13:14.161Z</time></trkpt><trkpt lat="46.143571" lon="13.5905949"><ele>589.5</ele><time>2026-05-02T08:13:15.161Z</time></trkpt><trkpt lat="46.1435384" lon="13.5904769"><ele>589.3333333333334</ele><time>2026-05-02T08:13:16.161Z</time></trkpt><trkpt lat="46.1435035" lon="13.5903561"><ele>589.1666666666667</ele><time>2026-05-02T08:13:17.161Z</time></trkpt><trkpt lat="46.1434688" lon="13.590243"><ele>589.0</ele><time>2026-05-02T08:13:18.162Z</time></trkpt><trkpt lat="46.1434404" lon="13.5901212"><ele>589.0</ele><time>2026-05-02T08:13:19.161Z</time></trkpt><trkpt lat="46.1434108" lon="13.5900052"><ele>589.0</ele><time>2026-05-02T08:13:20.162Z</time></trkpt><trkpt lat="46.1433789" lon="13.5898789"><ele>589.0</ele><time>2026-05-02T08:13:21.162Z</time></trkpt><trkpt lat="46.1433441" lon="13.5897539"><ele>589.0</ele><time>2026-05-02T08:13:22.161Z</time></trkpt><trkpt lat="46.1433128" lon="13.5896437"><ele>589.0</ele><time>2026-05-02T08:13:23.161Z</time></trkpt><trkpt lat="46.1432788" lon="13.5895318"><ele>589.0</ele><time>2026-05-02T08:13:24.162Z</time></trkpt><trkpt lat="46.14325" lon="13.5894276"><ele>590.8333333333334</ele><time>2026-05-02T08:13:25.161Z</time></trkpt><trkpt lat="46.1432283" lon="13.589322"><ele>592.6666666666667</ele><time>2026-05-02T08:13:26.161Z</time></trkpt><trkpt lat="46.1432066" lon="13.5892215"><ele>594.5</ele><time>2026-05-02T08:13:27.161Z</time></trkpt><trkpt lat="46.1431919" lon="13.5891069"><ele>596.3333333333334</ele><time>2026-05-02T08:13:28.161Z</time></trkpt><trkpt lat="46.1431816" lon="13.5889868"><ele>598.1666666666666</ele><time>2026-05-02T08:13:29.162Z</time></trkpt><trkpt lat="46.1431759" lon="13.5888739"><ele>600.0</ele><time>2026-05-02T08:13:30.161Z</time></trkpt><trkpt lat="46.1431779" lon="13.5887573"><ele>598.5</ele><time>2026-05-02T08:13:31.161Z</time></trkpt><trkpt lat="46.143195" lon="13.588662"><ele>597.0</ele><time>2026-05-02T08:13:32.162Z</time></trkpt><trkpt lat="46.1432282" lon="13.5885779"><ele>595.5</ele><time>2026-05-02T08:13:33.162Z</time></trkpt><trkpt lat="46.1432741" lon="13.5884693"><ele>594.0</ele><time>2026-05-02T08:13:34.162Z</time></trkpt><trkpt lat="46.1433143" lon="13.5883616"><ele>592.5</ele><time>2026-05-02T08:13:35.161Z</time></trkpt><trkpt lat="46.1433364" lon="13.5882564"><ele>591.0</ele><time>2026-05-02T08:13:36.162Z</time></trkpt><trkpt lat="46.1433322" lon="13.5881621"><ele>591.0</ele><time>2026-05-02T08:13:37.161Z</time></trkpt><trkpt lat="46.1433272" lon="13.5880625"><ele>591.0</ele><time>2026-05-02T08:13:38.162Z</time></trkpt><trkpt lat="46.1433134" lon="13.587933"><ele>591.0</ele><time>2026-05-02T08:13:39.161Z</time></trkpt><trkpt lat="46.14329" lon="13.5878053"><ele>591.0</ele><time>2026-05-02T08:13:40.162Z</time></trkpt><trkpt lat="46.1432729" lon="13.5876821"><ele>591.0</ele><time>2026-05-02T08:13:41.161Z</time></trkpt><trkpt lat="46.143265" lon="13.5875456"><ele>591.0</ele><time>2026-05-02T08:13:42.162Z</time></trkpt><trkpt lat="46.1432467" lon="13.5874236"><ele>589.6666666666666</ele><time>2026-05-02T08:13:43.161Z</time></trkpt><trkpt lat="46.1432229" lon="13.5872974"><ele>588.3333333333334</ele><time>2026-05-02T08:13:44.161Z</time></trkpt><trkpt lat="46.1432003" lon="13.5871814"><ele>587.0</ele><time>2026-05-02T08:13:45.161Z</time></trkpt><trkpt lat="46.1431781" lon="13.5870624"><ele>585.6666666666667</ele><time>2026-05-02T08:13:46.161Z</time></trkpt><trkpt lat="46.1431738" lon="13.5869651"><ele>584.3333333333334</ele><time>2026-05-02T08:13:47.162Z</time></trkpt><trkpt lat="46.1431928" lon="13.5868011"><ele>583.0</ele><time>2026-05-02T08:13:49.162Z</time></trkpt><trkpt lat="46.1431823" lon="13.5866275"><ele>575.6666666666667</ele><time>2026-05-02T08:13:51.161Z</time></trkpt><trkpt lat="46.1431973" lon="13.586506"><ele>568.3333333333334</ele><time>2026-05-02T08:13:52.162Z</time></trkpt><trkpt lat="46.1431995" lon="13.5863916"><ele>561.0</ele><time>2026-05-02T08:13:53.162Z</time></trkpt><trkpt lat="46.1432078" lon="13.5862644"><ele>553.6666666666666</ele><time>2026-05-02T08:13:54.161Z</time></trkpt><trkpt lat="46.1431978" lon="13.5861678"><ele>546.3333333333333</ele><time>2026-05-02T08:13:55.162Z</time></trkpt><trkpt lat="46.143195" lon="13.5860652"><ele>539.0</ele><time>2026-05-02T08:13:56.161Z</time></trkpt><trkpt lat="46.1431835" lon="13.5859675"><ele>539.0</ele><time>2026-05-02T08:13:57.162Z</time></trkpt><trkpt lat="46.1431729" lon="13.5857778"><ele>539.0</ele><time>2026-05-02T08:13:59.161Z</time></trkpt><trkpt lat="46.143169" lon="13.5856652"><ele>539.0</ele><time>2026-05-02T08:14:00.161Z</time></trkpt><trkpt lat="46.1431557" lon="13.5855112"><ele>539.0</ele><time>2026-05-02T08:14:02.161Z</time></trkpt><trkpt lat="46.1431067" lon="13.5853191"><ele>540.1428571428571</ele><time>2026-05-02T08:14:04.162Z</time></trkpt><trkpt lat="46.1430779" lon="13.5852245"><ele>541.2857142857142</ele><time>2026-05-02T08:14:05.162Z</time></trkpt><trkpt lat="46.1430477" lon="13.5851433"><ele>542.4285714285714</ele><time>2026-05-02T08:14:06.161Z</time></trkpt><trkpt lat="46.1430215" lon="13.5850457"><ele>543.5714285714286</ele><time>2026-05-02T08:14:07.161Z</time></trkpt><trkpt lat="46.1429641" lon="13.5849846"><ele>544.7142857142857</ele><time>2026-05-02T08:14:08.162Z</time></trkpt><trkpt lat="46.1429049" lon="13.5849151"><ele>545.8571428571429</ele><time>2026-05-02T08:14:09.161Z</time></trkpt><trkpt lat="46.1428538" lon="13.5848492"><ele>547.0</ele><time>2026-05-02T08:14:10.162Z</time></trkpt><trkpt lat="46.1427817" lon="13.5847127"><ele>547.0</ele><time>2026-05-02T08:14:12.161Z</time></trkpt><trkpt lat="46.1427514" lon="13.5846301"><ele>547.0</ele><time>2026-05-02T08:14:13.162Z</time></trkpt><trkpt lat="46.1427122" lon="13.5845316"><ele>547.0</ele><time>2026-05-02T08:14:14.162Z</time></trkpt><trkpt lat="46.1426811" lon="13.5844377"><ele>547.0</ele><time>2026-05-02T08:14:15.162Z</time></trkpt><trkpt lat="46.1426501" lon="13.584337"><ele>547.0</ele><time>2026-05-02T08:14:16.162Z</time></trkpt><trkpt lat="46.1425904" lon="13.5841864"><ele>547.0</ele><time>2026-05-02T08:14:18.161Z</time></trkpt><trkpt lat="46.142534" lon="13.5841306"><ele>546.5</ele><time>2026-05-02T08:14:19.162Z</time></trkpt><trkpt lat="46.1424567" lon="13.5840699"><ele>546.0</ele><time>2026-05-02T08:14:20.162Z</time></trkpt><trkpt lat="46.142367" lon="13.5840453"><ele>545.5</ele><time>2026-05-02T08:14:21.162Z</time></trkpt><trkpt lat="46.1422825" lon="13.5840526"><ele>545.0</ele><time>2026-05-02T08:14:22.161Z</time></trkpt><trkpt lat="46.1422072" lon="13.5840305"><ele>544.5</ele><time>2026-05-02T08:14:23.161Z</time></trkpt><trkpt lat="46.1421325" lon="13.5840357"><ele>544.0</ele><time>2026-05-02T08:14:24.162Z</time></trkpt><trkpt lat="46.1420114" lon="13.5840796"><ele>544.0</ele><time>2026-05-02T08:14:26.161Z</time></trkpt><trkpt lat="46.1419438" lon="13.5841289"><ele>544.0</ele><time>2026-05-02T08:14:27.161Z</time></trkpt><trkpt lat="46.1418795" lon="13.5841585"><ele>544.0</ele><time>2026-05-02T08:14:28.162Z</time></trkpt><trkpt lat="46.1417981" lon="13.5842158"><ele>544.0</ele><time>2026-05-02T08:14:30.161Z</time></trkpt><trkpt lat="46.1418207" lon="13.5840939"><ele>544.0</ele><time>2026-05-02T08:14:35.161Z</time></trkpt><trkpt lat="46.141739" lon="13.5839135"><ele>544.0</ele><time>2026-05-02T08:14:37.161Z</time></trkpt><trkpt lat="46.1416658" lon="13.5837914"><ele>544.0</ele><time>2026-05-02T08:14:38.161Z</time></trkpt><trkpt lat="46.1416053" lon="13.5836706"><ele>544.0</ele><time>2026-05-02T08:14:39.161Z</time></trkpt><trkpt lat="46.1415503" lon="13.5835441"><ele>544.0</ele><time>2026-05-02T08:14:40.162Z</time></trkpt><trkpt lat="46.1414926" lon="13.5834172"><ele>544.0</ele><time>2026-05-02T08:14:41.162Z</time></trkpt><trkpt lat="46.141424" lon="13.5832916"><ele>540.2</ele><time>2026-05-02T08:14:42.162Z</time></trkpt><trkpt lat="46.1413494" lon="13.5831772"><ele>536.4</ele><time>2026-05-02T08:14:43.161Z</time></trkpt><trkpt lat="46.1412628" lon="13.5830554"><ele>532.6</ele><time>2026-05-02T08:14:44.162Z</time></trkpt><trkpt lat="46.141204" lon="13.5829649"><ele>528.8</ele><time>2026-05-02T08:14:45.162Z</time></trkpt><trkpt lat="46.1411567" lon="13.5828919"><ele>525.0</ele><time>2026-05-02T08:14:46.162Z</time></trkpt><trkpt lat="46.1411176" lon="13.5827645"><ele>525.0</ele><time>2026-05-02T08:14:47.161Z</time></trkpt><trkpt lat="46.1410676" lon="13.582609"><ele>525.0</ele><time>2026-05-02T08:14:48.161Z</time></trkpt><trkpt lat="46.1410151" lon="13.5824515"><ele>525.0</ele><time>2026-05-02T08:14:49.162Z</time></trkpt><trkpt lat="46.1409722" lon="13.5823077"><ele>525.0</ele><time>2026-05-02T08:14:50.161Z</time></trkpt><trkpt lat="46.1409409" lon="13.5821695"><ele>525.0</ele><time>2026-05-02T08:14:51.162Z</time></trkpt><trkpt lat="46.1409059" lon="13.5820354"><ele>527.0</ele><time>2026-05-02T08:14:52.162Z</time></trkpt><trkpt lat="46.1408628" lon="13.5818968"><ele>529.0</ele><time>2026-05-02T08:14:53.161Z</time></trkpt><trkpt lat="46.1408222" lon="13.5817751"><ele>531.0</ele><time>2026-05-02T08:14:54.161Z</time></trkpt><trkpt lat="46.1407829" lon="13.5816874"><ele>533.0</ele><time>2026-05-02T08:14:55.161Z</time></trkpt><trkpt lat="46.1407213" lon="13.5815636"><ele>535.0</ele><time>2026-05-02T08:14:56.161Z</time></trkpt><trkpt lat="46.1406353" lon="13.5814201"><ele>529.4</ele><time>2026-05-02T08:14:57.161Z</time></trkpt><trkpt lat="46.1405583" lon="13.5812951"><ele>523.8</ele><time>2026-05-02T08:14:58.161Z</time></trkpt><trkpt lat="46.1404984" lon="13.581188"><ele>518.2</ele><time>2026-05-02T08:14:59.16Z</time></trkpt><trkpt lat="46.1404263" lon="13.5810938"><ele>512.6</ele><time>2026-05-02T08:15:00.16Z</time></trkpt><trkpt lat="46.1403755" lon="13.5809995"><ele>507.0</ele><time>2026-05-02T08:15:01.16Z</time></trkpt><trkpt lat="46.140347" lon="13.5809062"><ele>507.0</ele><time>2026-05-02T08:15:02.16Z</time></trkpt><trkpt lat="46.1403262" lon="13.5808165"><ele>507.00000000000006</ele><time>2026-05-02T08:15:03.161Z</time></trkpt><trkpt lat="46.1402762" lon="13.5806957"><ele>507.00000000000006</ele><time>2026-05-02T08:15:05.16Z</time></trkpt><trkpt lat="46.1402178" lon="13.5806286"><ele>507.0</ele><time>2026-05-02T08:15:07.16Z</time></trkpt><trkpt lat="46.1401848" lon="13.5804296"><ele>507.0</ele><time>2026-05-02T08:15:09.16Z</time></trkpt><trkpt lat="46.1402021" lon="13.5802939"><ele>507.40000000000003</ele><time>2026-05-02T08:15:10.16Z</time></trkpt><trkpt lat="46.1402331" lon="13.5801397"><ele>507.80000000000007</ele><time>2026-05-02T08:15:11.16Z</time></trkpt><trkpt lat="46.1402512" lon="13.5799947"><ele>508.2</ele><time>2026-05-02T08:15:12.16Z</time></trkpt><trkpt lat="46.1402418" lon="13.5798607"><ele>508.6</ele><time>2026-05-02T08:15:13.16Z</time></trkpt><trkpt lat="46.140232" lon="13.5797352"><ele>509.0</ele><time>2026-05-02T08:15:14.16Z</time></trkpt><trkpt lat="46.1402237" lon="13.579601"><ele>508.66666666666663</ele><time>2026-05-02T08:15:15.161Z</time></trkpt><trkpt lat="46.1402475" lon="13.5793312"><ele>508.33333333333337</ele><time>2026-05-02T08:15:17.16Z</time></trkpt><trkpt lat="46.1402816" lon="13.5791374"><ele>508.0</ele><time>2026-05-02T08:15:18.16Z</time></trkpt><trkpt lat="46.1403104" lon="13.5789081"><ele>504.6666666666667</ele><time>2026-05-02T08:15:19.161Z</time></trkpt><trkpt lat="46.1403293" lon="13.5786675"><ele>501.33333333333337</ele><time>2026-05-02T08:15:20.16Z</time></trkpt><trkpt lat="46.1403286" lon="13.5784313"><ele>498.0</ele><time>2026-05-02T08:15:21.161Z</time></trkpt><trkpt lat="46.1403244" lon="13.5782034"><ele>498.0</ele><time>2026-05-02T08:15:22.161Z</time></trkpt><trkpt lat="46.1403178" lon="13.5779974"><ele>498.0</ele><time>2026-05-02T08:15:23.161Z</time></trkpt><trkpt lat="46.1403104" lon="13.5778199"><ele>498.0</ele><time>2026-05-02T08:15:24.161Z</time></trkpt><trkpt lat="46.1402911" lon="13.5776559"><ele>498.0</ele><time>2026-05-02T08:15:25.16Z</time></trkpt><trkpt lat="46.1402649" lon="13.5775078"><ele>499.25</ele><time>2026-05-02T08:15:26.16Z</time></trkpt><trkpt lat="46.1402088" lon="13.5773678"><ele>500.5</ele><time>2026-05-02T08:15:27.16Z</time></trkpt><trkpt lat="46.1401274" lon="13.5772467"><ele>501.75</ele><time>2026-05-02T08:15:28.16Z</time></trkpt><trkpt lat="46.140012" lon="13.5771315"><ele>503.0</ele><time>2026-05-02T08:15:29.161Z</time></trkpt><trkpt lat="46.1398674" lon="13.5770571"><ele>503.0</ele><time>2026-05-02T08:15:30.16Z</time></trkpt><trkpt lat="46.1397116" lon="13.5770214"><ele>503.0</ele><time>2026-05-02T08:15:31.16Z</time></trkpt><trkpt lat="46.1395835" lon="13.5769951"><ele>503.0</ele><time>2026-05-02T08:15:32.16Z</time></trkpt><trkpt lat="46.139465" lon="13.5769974"><ele>503.0</ele><time>2026-05-02T08:15:33.161Z</time></trkpt><trkpt lat="46.1393575" lon="13.5769822"><ele>503.0</ele><time>2026-05-02T08:15:34.161Z</time></trkpt><trkpt lat="46.1392624" lon="13.5769261"><ele>503.0</ele><time>2026-05-02T08:15:35.161Z</time></trkpt><trkpt lat="46.1391697" lon="13.5768226"><ele>503.0</ele><time>2026-05-02T08:15:36.16Z</time></trkpt><trkpt lat="46.1390776" lon="13.5767103"><ele>503.0</ele><time>2026-05-02T08:15:37.161Z</time></trkpt><trkpt lat="46.1389682" lon="13.5766582"><ele>498.0</ele><time>2026-05-02T08:15:38.161Z</time></trkpt><trkpt lat="46.1388214" lon="13.5766297"><ele>493.0</ele><time>2026-05-02T08:15:39.16Z</time></trkpt><trkpt lat="46.1386639" lon="13.5766267"><ele>488.0</ele><time>2026-05-02T08:15:40.16Z</time></trkpt><trkpt lat="46.1385132" lon="13.5766447"><ele>488.0</ele><time>2026-05-02T08:15:41.161Z</time></trkpt><trkpt lat="46.1383625" lon="13.5766555"><ele>488.0</ele><time>2026-05-02T08:15:42.16Z</time></trkpt><trkpt lat="46.1382179" lon="13.5766675"><ele>488.0</ele><time>2026-05-02T08:15:43.16Z</time></trkpt><trkpt lat="46.1380758" lon="13.5766987"><ele>488.0</ele><time>2026-05-02T08:15:44.16Z</time></trkpt><trkpt lat="46.137927" lon="13.5767638"><ele>483.3333333333333</ele><time>2026-05-02T08:15:45.161Z</time></trkpt><trkpt lat="46.137757" lon="13.5768691"><ele>478.66666666666663</ele><time>2026-05-02T08:15:46.16Z</time></trkpt><trkpt lat="46.1375802" lon="13.5769558"><ele>474.0</ele><time>2026-05-02T08:15:47.16Z</time></trkpt><trkpt lat="46.1374153" lon="13.5770435"><ele>470.66666666666663</ele><time>2026-05-02T08:15:48.16Z</time></trkpt><trkpt lat="46.1372614" lon="13.5771258"><ele>467.3333333333333</ele><time>2026-05-02T08:15:49.16Z</time></trkpt><trkpt lat="46.1370937" lon="13.5771962"><ele>464.0</ele><time>2026-05-02T08:15:50.161Z</time></trkpt><trkpt lat="46.1369784" lon="13.5772387"><ele>464.0</ele><time>2026-05-02T08:15:51.161Z</time></trkpt><trkpt lat="46.1368961" lon="13.5772669"><ele>464.0</ele><time>2026-05-02T08:15:52.161Z</time></trkpt><trkpt lat="46.1367734" lon="13.5773081"><ele>464.0</ele><time>2026-05-02T08:15:54.161Z</time></trkpt><trkpt lat="46.136691" lon="13.5773388"><ele>464.0</ele><time>2026-05-02T08:15:55.161Z</time></trkpt><trkpt lat="46.1366011" lon="13.5773684"><ele>464.0</ele><time>2026-05-02T08:15:56.16Z</time></trkpt><trkpt lat="46.1365317" lon="13.5773611"><ele>462.0</ele><time>2026-05-02T08:15:57.16Z</time></trkpt><trkpt lat="46.1364725" lon="13.5773165"><ele>460.0</ele><time>2026-05-02T08:15:58.16Z</time></trkpt><trkpt lat="46.1364742" lon="13.5771378"><ele>458.0</ele><time>2026-05-02T08:16:00.16Z</time></trkpt><trkpt lat="46.1365347" lon="13.577026"><ele>456.0</ele><time>2026-05-02T08:16:01.161Z</time></trkpt><trkpt lat="46.1366405" lon="13.5768918"><ele>454.0</ele><time>2026-05-02T08:16:02.16Z</time></trkpt><trkpt lat="46.1367916" lon="13.5767543"><ele>454.0</ele><time>2026-05-02T08:16:03.16Z</time></trkpt><trkpt lat="46.1369457" lon="13.5766064"><ele>454.0</ele><time>2026-05-02T08:16:04.161Z</time></trkpt><trkpt lat="46.1370972" lon="13.5764655"><ele>454.0</ele><time>2026-05-02T08:16:05.16Z</time></trkpt><trkpt lat="46.1372363" lon="13.5763367"><ele>454.0</ele><time>2026-05-02T08:16:06.16Z</time></trkpt><trkpt lat="46.1373573" lon="13.5762185"><ele>454.0</ele><time>2026-05-02T08:16:07.16Z</time></trkpt><trkpt lat="46.1374606" lon="13.5761189"><ele>454.0</ele><time>2026-05-02T08:16:08.16Z</time></trkpt><trkpt lat="46.1375459" lon="13.5760342"><ele>454.0</ele><time>2026-05-02T08:16:09.16Z</time></trkpt><trkpt lat="46.1376164" lon="13.5759605"><ele>455.0</ele><time>2026-05-02T08:16:10.16Z</time></trkpt><trkpt lat="46.1376635" lon="13.5758771"><ele>456.0</ele><time>2026-05-02T08:16:11.16Z</time></trkpt><trkpt lat="46.1376705" lon="13.5757503"><ele>457.0</ele><time>2026-05-02T08:16:12.16Z</time></trkpt><trkpt lat="46.1376477" lon="13.5756372"><ele>458.0</ele><time>2026-05-02T08:16:13.16Z</time></trkpt><trkpt lat="46.1375818" lon="13.5755327"><ele>459.0</ele><time>2026-05-02T08:16:14.161Z</time></trkpt><trkpt lat="46.1374789" lon="13.5754328"><ele>442.0</ele><time>2026-05-02T08:16:15.16Z</time></trkpt><trkpt lat="46.1373603" lon="13.5752813"><ele>425.0</ele><time>2026-05-02T08:16:16.161Z</time></trkpt><trkpt lat="46.1372508" lon="13.5750798"><ele>408.0</ele><time>2026-05-02T08:16:17.161Z</time></trkpt><trkpt lat="46.1371581" lon="13.5748662"><ele>408.0</ele><time>2026-05-02T08:16:18.161Z</time></trkpt><trkpt lat="46.1370685" lon="13.5746492"><ele>408.0</ele><time>2026-05-02T08:16:19.16Z</time></trkpt><trkpt lat="46.1370057" lon="13.5743981"><ele>408.0</ele><time>2026-05-02T08:16:20.16Z</time></trkpt><trkpt lat="46.1369256" lon="13.5742028"><ele>411.0</ele><time>2026-05-02T08:16:21.16Z</time></trkpt><trkpt lat="46.1368379" lon="13.5740149"><ele>414.0</ele><time>2026-05-02T08:16:22.16Z</time></trkpt><trkpt lat="46.1367566" lon="13.5738366"><ele>417.0</ele><time>2026-05-02T08:16:23.16Z</time></trkpt><trkpt lat="46.1367027" lon="13.5736423"><ele>418.5</ele><time>2026-05-02T08:16:24.16Z</time></trkpt><trkpt lat="46.1366683" lon="13.5734459"><ele>420.0</ele><time>2026-05-02T08:16:25.16Z</time></trkpt><trkpt lat="46.1366527" lon="13.573243"><ele>421.5</ele><time>2026-05-02T08:16:26.16Z</time></trkpt><trkpt lat="46.1366537" lon="13.5730398"><ele>423.0</ele><time>2026-05-02T08:16:27.161Z</time></trkpt><trkpt lat="46.1366658" lon="13.5728573"><ele>421.2</ele><time>2026-05-02T08:16:28.16Z</time></trkpt><trkpt lat="46.136703" lon="13.5726874"><ele>419.4</ele><time>2026-05-02T08:16:29.16Z</time></trkpt><trkpt lat="46.1367312" lon="13.5725345"><ele>417.59999999999997</ele><time>2026-05-02T08:16:30.16Z</time></trkpt><trkpt lat="46.13677" lon="13.5724048"><ele>415.79999999999995</ele><time>2026-05-02T08:16:31.16Z</time></trkpt><trkpt lat="46.1368154" lon="13.572298"><ele>414.0</ele><time>2026-05-02T08:16:32.161Z</time></trkpt><trkpt lat="46.1368437" lon="13.5721957"><ele>414.0</ele><time>2026-05-02T08:16:33.16Z</time></trkpt><trkpt lat="46.1368484" lon="13.5720866"><ele>414.0</ele><time>2026-05-02T08:16:34.16Z</time></trkpt><trkpt lat="46.1368332" lon="13.5719509"><ele>414.0</ele><time>2026-05-02T08:16:35.16Z</time></trkpt><trkpt lat="46.1367904" lon="13.5718222"><ele>414.0</ele><time>2026-05-02T08:16:36.16Z</time></trkpt><trkpt lat="46.1367335" lon="13.5717226"><ele>414.0</ele><time>2026-05-02T08:16:37.16Z</time></trkpt><trkpt lat="46.1366487" lon="13.5716639"><ele>415.75</ele><time>2026-05-02T08:16:38.16Z</time></trkpt><trkpt lat="46.1365337" lon="13.571649"><ele>417.5</ele><time>2026-05-02T08:16:39.16Z</time></trkpt><trkpt lat="46.13638" lon="13.571654"><ele>419.25</ele><time>2026-05-02T08:16:40.161Z</time></trkpt><trkpt lat="46.1362035" lon="13.5716555"><ele>421.0</ele><time>2026-05-02T08:16:41.161Z</time></trkpt><trkpt lat="46.136032" lon="13.5716708"><ele>421.0</ele><time>2026-05-02T08:16:42.161Z</time></trkpt><trkpt lat="46.1358532" lon="13.5716961"><ele>421.0</ele><time>2026-05-02T08:16:43.16Z</time></trkpt><trkpt lat="46.1356638" lon="13.5717536"><ele>421.0</ele><time>2026-05-02T08:16:44.16Z</time></trkpt><trkpt lat="46.1354761" lon="13.5718278"><ele>422.6666666666667</ele><time>2026-05-02T08:16:45.161Z</time></trkpt><trkpt lat="46.1352849" lon="13.571953"><ele>424.33333333333337</ele><time>2026-05-02T08:16:46.16Z</time></trkpt><trkpt lat="46.1351036" lon="13.5720589"><ele>426.0</ele><time>2026-05-02T08:16:47.16Z</time></trkpt><trkpt lat="46.1349526" lon="13.5721704"><ele>418.0</ele><time>2026-05-02T08:16:48.16Z</time></trkpt><trkpt lat="46.1348134" lon="13.5722484"><ele>410.0</ele><time>2026-05-02T08:16:49.16Z</time></trkpt><trkpt lat="46.1346557" lon="13.5723432"><ele>402.0</ele><time>2026-05-02T08:16:50.16Z</time></trkpt><trkpt lat="46.134519" lon="13.5724213"><ele>402.0</ele><time>2026-05-02T08:16:51.16Z</time></trkpt><trkpt lat="46.134368" lon="13.5724872"><ele>402.0</ele><time>2026-05-02T08:16:52.16Z</time></trkpt><trkpt lat="46.1342072" lon="13.5725346"><ele>402.0</ele><time>2026-05-02T08:16:53.161Z</time></trkpt><trkpt lat="46.1340277" lon="13.5725888"><ele>398.25</ele><time>2026-05-02T08:16:54.16Z</time></trkpt><trkpt lat="46.1338785" lon="13.5726524"><ele>394.5</ele><time>2026-05-02T08:16:55.161Z</time></trkpt><trkpt lat="46.1337427" lon="13.5727103"><ele>390.75</ele><time>2026-05-02T08:16:56.161Z</time></trkpt><trkpt lat="46.1336189" lon="13.5727911"><ele>387.0</ele><time>2026-05-02T08:16:57.16Z</time></trkpt><trkpt lat="46.1335122" lon="13.5728727"><ele>385.0</ele><time>2026-05-02T08:16:58.16Z</time></trkpt><trkpt lat="46.1334218" lon="13.5729392"><ele>383.0</ele><time>2026-05-02T08:16:59.16Z</time></trkpt><trkpt lat="46.1333462" lon="13.5729778"><ele>381.0</ele><time>2026-05-02T08:17:00.161Z</time></trkpt><trkpt lat="46.1332702" lon="13.5729789"><ele>379.0</ele><time>2026-05-02T08:17:01.161Z</time></trkpt><trkpt lat="46.133201" lon="13.572928"><ele>377.0</ele><time>2026-05-02T08:17:02.161Z</time></trkpt><trkpt lat="46.1331518" lon="13.5728259"><ele>375.0</ele><time>2026-05-02T08:17:03.16Z</time></trkpt><trkpt lat="46.1331295" lon="13.5726906"><ele>375.0</ele><time>2026-05-02T08:17:04.16Z</time></trkpt><trkpt lat="46.1331419" lon="13.5725519"><ele>375.0</ele><time>2026-05-02T08:17:05.161Z</time></trkpt><trkpt lat="46.133197" lon="13.5724064"><ele>375.0</ele><time>2026-05-02T08:17:06.16Z</time></trkpt><trkpt lat="46.1332825" lon="13.5722285"><ele>375.0</ele><time>2026-05-02T08:17:07.16Z</time></trkpt><trkpt lat="46.1333879" lon="13.5720161"><ele>375.0</ele><time>2026-05-02T08:17:08.16Z</time></trkpt><trkpt lat="46.1334672" lon="13.5717692"><ele>375.0</ele><time>2026-05-02T08:17:09.16Z</time></trkpt><trkpt lat="46.1335455" lon="13.5715391"><ele>375.0</ele><time>2026-05-02T08:17:10.16Z</time></trkpt><trkpt lat="46.1336355" lon="13.571346"><ele>368.0</ele><time>2026-05-02T08:17:11.161Z</time></trkpt><trkpt lat="46.1337402" lon="13.5711469"><ele>361.0</ele><time>2026-05-02T08:17:12.161Z</time></trkpt><trkpt lat="46.1338472" lon="13.5709566"><ele>354.0</ele><time>2026-05-02T08:17:13.161Z</time></trkpt><trkpt lat="46.1339381" lon="13.5707877"><ele>354.0</ele><time>2026-05-02T08:17:14.16Z</time></trkpt><trkpt lat="46.1340149" lon="13.5706478"><ele>354.0</ele><time>2026-05-02T08:17:15.16Z</time></trkpt><trkpt lat="46.1340746" lon="13.5705234"><ele>354.0</ele><time>2026-05-02T08:17:16.161Z</time></trkpt><trkpt lat="46.1341242" lon="13.5704166"><ele>354.0</ele><time>2026-05-02T08:17:17.161Z</time></trkpt><trkpt lat="46.1341589" lon="13.5703198"><ele>354.0</ele><time>2026-05-02T08:17:18.161Z</time></trkpt><trkpt lat="46.1341672" lon="13.5702149"><ele>354.4</ele><time>2026-05-02T08:17:19.16Z</time></trkpt><trkpt lat="46.1341383" lon="13.5700893"><ele>354.79999999999995</ele><time>2026-05-02T08:17:20.16Z</time></trkpt><trkpt lat="46.1340676" lon="13.5700134"><ele>355.20000000000005</ele><time>2026-05-02T08:17:21.16Z</time></trkpt><trkpt lat="46.1339629" lon="13.569957"><ele>355.6</ele><time>2026-05-02T08:17:22.16Z</time></trkpt><trkpt lat="46.1338758" lon="13.5698852"><ele>356.0</ele><time>2026-05-02T08:17:23.16Z</time></trkpt><trkpt lat="46.1337576" lon="13.569809"><ele>356.0</ele><time>2026-05-02T08:17:24.16Z</time></trkpt><trkpt lat="46.1336278" lon="13.5697461"><ele>356.0</ele><time>2026-05-02T08:17:25.16Z</time></trkpt><trkpt lat="46.1334916" lon="13.5697078"><ele>356.0</ele><time>2026-05-02T08:17:26.16Z</time></trkpt><trkpt lat="46.1333572" lon="13.5696521"><ele>356.0</ele><time>2026-05-02T08:17:27.161Z</time></trkpt><trkpt lat="46.1332189" lon="13.5695845"><ele>356.5</ele><time>2026-05-02T08:17:28.161Z</time></trkpt><trkpt lat="46.1330826" lon="13.5695117"><ele>357.0</ele><time>2026-05-02T08:17:29.16Z</time></trkpt><trkpt lat="46.1329574" lon="13.5694562"><ele>357.5</ele><time>2026-05-02T08:17:30.16Z</time></trkpt><trkpt lat="46.1328484" lon="13.5693982"><ele>358.0</ele><time>2026-05-02T08:17:31.161Z</time></trkpt><trkpt lat="46.1327493" lon="13.5693188"><ele>358.0</ele><time>2026-05-02T08:17:32.161Z</time></trkpt><trkpt lat="46.1326382" lon="13.5692266"><ele>358.0</ele><time>2026-05-02T08:17:33.161Z</time></trkpt><trkpt lat="46.1325252" lon="13.5691222"><ele>358.0</ele><time>2026-05-02T08:17:34.16Z</time></trkpt><trkpt lat="46.1324136" lon="13.5690323"><ele>358.0</ele><time>2026-05-02T08:17:35.16Z</time></trkpt><trkpt lat="46.1323184" lon="13.5689551"><ele>355.59999999999997</ele><time>2026-05-02T08:17:36.16Z</time></trkpt><trkpt lat="46.1322391" lon="13.5689001"><ele>353.2</ele><time>2026-05-02T08:17:37.16Z</time></trkpt><trkpt lat="46.1321559" lon="13.5687849"><ele>350.8</ele><time>2026-05-02T08:17:39.16Z</time></trkpt><trkpt lat="46.1321832" lon="13.5686245"><ele>348.4</ele><time>2026-05-02T08:17:41.161Z</time></trkpt><trkpt lat="46.1322752" lon="13.5685259"><ele>346.0</ele><time>2026-05-02T08:17:43.16Z</time></trkpt><trkpt lat="46.1323322" lon="13.5683978"><ele>346.0</ele><time>2026-05-02T08:17:45.16Z</time></trkpt><trkpt lat="46.1323547" lon="13.5682326"><ele>346.0</ele><time>2026-05-02T08:17:47.161Z</time></trkpt><trkpt lat="46.1323278" lon="13.5681281"><ele>346.0</ele><time>2026-05-02T08:17:48.16Z</time></trkpt><trkpt lat="46.1322691" lon="13.5680012"><ele>346.0</ele><time>2026-05-02T08:17:49.161Z</time></trkpt><trkpt lat="46.1322064" lon="13.5679261"><ele>346.0</ele><time>2026-05-02T08:17:50.16Z</time></trkpt><trkpt lat="46.1321634" lon="13.567835"><ele>344.75</ele><time>2026-05-02T08:17:51.16Z</time></trkpt><trkpt lat="46.1320373" lon="13.5677458"><ele>343.5</ele><time>2026-05-02T08:17:53.16Z</time></trkpt><trkpt lat="46.1319188" lon="13.5677566"><ele>342.25</ele><time>2026-05-02T08:17:54.16Z</time></trkpt><trkpt lat="46.1318045" lon="13.5677492"><ele>341.0</ele><time>2026-05-02T08:17:55.161Z</time></trkpt><trkpt lat="46.1316847" lon="13.5677127"><ele>341.0</ele><time>2026-05-02T08:17:56.16Z</time></trkpt><trkpt lat="46.1315645" lon="13.5676686"><ele>341.0</ele><time>2026-05-02T08:17:57.16Z</time></trkpt><trkpt lat="46.1314584" lon="13.5676206"><ele>341.0</ele><time>2026-05-02T08:17:58.16Z</time></trkpt><trkpt lat="46.1313767" lon="13.5675749"><ele>341.0</ele><time>2026-05-02T08:17:59.16Z</time></trkpt><trkpt lat="46.1313001" lon="13.5675018"><ele>341.0</ele><time>2026-05-02T08:18:00.161Z</time></trkpt><trkpt lat="46.1312628" lon="13.5673967"><ele>337.75</ele><time>2026-05-02T08:18:01.161Z</time></trkpt><trkpt lat="46.1312642" lon="13.5672568"><ele>334.5</ele><time>2026-05-02T08:18:02.16Z</time></trkpt><trkpt lat="46.1312872" lon="13.5670714"><ele>331.25</ele><time>2026-05-02T08:18:03.16Z</time></trkpt><trkpt lat="46.1313056" lon="13.5668714"><ele>328.0</ele><time>2026-05-02T08:18:04.161Z</time></trkpt><trkpt lat="46.1313235" lon="13.5666864"><ele>327.59999999999997</ele><time>2026-05-02T08:18:05.16Z</time></trkpt><trkpt lat="46.131343" lon="13.5665158"><ele>327.2</ele><time>2026-05-02T08:18:06.16Z</time></trkpt><trkpt lat="46.1313804" lon="13.5663698"><ele>326.8</ele><time>2026-05-02T08:18:07.16Z</time></trkpt><trkpt lat="46.1314397" lon="13.5662672"><ele>326.4</ele><time>2026-05-02T08:18:08.16Z</time></trkpt><trkpt lat="46.131534" lon="13.5661909"><ele>326.0</ele><time>2026-05-02T08:18:09.16Z</time></trkpt><trkpt lat="46.1316434" lon="13.566097"><ele>326.0</ele><time>2026-05-02T08:18:10.16Z</time></trkpt><trkpt lat="46.1317523" lon="13.5659842"><ele>326.0</ele><time>2026-05-02T08:18:11.16Z</time></trkpt><trkpt lat="46.131851" lon="13.5659007"><ele>326.0</ele><time>2026-05-02T08:18:12.16Z</time></trkpt><trkpt lat="46.1319493" lon="13.5658318"><ele>326.0</ele><time>2026-05-02T08:18:13.16Z</time></trkpt><trkpt lat="46.1320229" lon="13.5657517"><ele>326.0</ele><time>2026-05-02T08:18:14.161Z</time></trkpt><trkpt lat="46.1320619" lon="13.5656718"><ele>326.0</ele><time>2026-05-02T08:18:15.16Z</time></trkpt><trkpt lat="46.1320517" lon="13.5655738"><ele>326.0</ele><time>2026-05-02T08:18:16.161Z</time></trkpt><trkpt lat="46.1319986" lon="13.5654792"><ele>326.0</ele><time>2026-05-02T08:18:17.16Z</time></trkpt><trkpt lat="46.1319162" lon="13.5654212"><ele>326.0</ele><time>2026-05-02T08:18:18.16Z</time></trkpt><trkpt lat="46.1317994" lon="13.5653678"><ele>326.0</ele><time>2026-05-02T08:18:19.16Z</time></trkpt><trkpt lat="46.1316716" lon="13.5653308"><ele>322.75</ele><time>2026-05-02T08:18:20.16Z</time></trkpt><trkpt lat="46.1315288" lon="13.5653143"><ele>319.5</ele><time>2026-05-02T08:18:21.16Z</time></trkpt><trkpt lat="46.1313974" lon="13.5653106"><ele>316.25</ele><time>2026-05-02T08:18:22.16Z</time></trkpt><trkpt lat="46.1312785" lon="13.5652899"><ele>313.0</ele><time>2026-05-02T08:18:23.16Z</time></trkpt><trkpt lat="46.1311569" lon="13.5652226"><ele>313.0</ele><time>2026-05-02T08:18:24.158Z</time></trkpt><trkpt lat="46.1310179" lon="13.5651262"><ele>313.0</ele><time>2026-05-02T08:18:25.16Z</time></trkpt><trkpt lat="46.1308622" lon="13.5650273"><ele>313.0</ele><time>2026-05-02T08:18:26.16Z</time></trkpt><trkpt lat="46.1307092" lon="13.5649637"><ele>307.66666666666663</ele><time>2026-05-02T08:18:27.16Z</time></trkpt><trkpt lat="46.1305379" lon="13.5649544"><ele>302.3333333333333</ele><time>2026-05-02T08:18:28.161Z</time></trkpt><trkpt lat="46.1303555" lon="13.5649685"><ele>297.0</ele><time>2026-05-02T08:18:29.16Z</time></trkpt><trkpt lat="46.1301799" lon="13.5649803"><ele>297.0</ele><time>2026-05-02T08:18:30.16Z</time></trkpt><trkpt lat="46.1300181" lon="13.5649765"><ele>297.0</ele><time>2026-05-02T08:18:31.16Z</time></trkpt><trkpt lat="46.129872" lon="13.5649522"><ele>297.0</ele><time>2026-05-02T08:18:32.161Z</time></trkpt><trkpt lat="46.1297299" lon="13.5649202"><ele>291.75</ele><time>2026-05-02T08:18:33.161Z</time></trkpt><trkpt lat="46.1295961" lon="13.5648556"><ele>286.5</ele><time>2026-05-02T08:18:34.16Z</time></trkpt><trkpt lat="46.129471" lon="13.5647652"><ele>281.25</ele><time>2026-05-02T08:18:35.161Z</time></trkpt><trkpt lat="46.129355" lon="13.5646864"><ele>276.0</ele><time>2026-05-02T08:18:36.16Z</time></trkpt><trkpt lat="46.1292364" lon="13.5646543"><ele>276.0</ele><time>2026-05-02T08:18:37.16Z</time></trkpt><trkpt lat="46.1290973" lon="13.564665"><ele>276.0</ele><time>2026-05-02T08:18:38.161Z</time></trkpt><trkpt lat="46.128965" lon="13.5646903"><ele>276.0</ele><time>2026-05-02T08:18:39.161Z</time></trkpt><trkpt lat="46.1288557" lon="13.5646872"><ele>276.0</ele><time>2026-05-02T08:18:40.161Z</time></trkpt><trkpt lat="46.1287717" lon="13.5646594"><ele>274.25</ele><time>2026-05-02T08:18:41.16Z</time></trkpt><trkpt lat="46.1286998" lon="13.5645841"><ele>272.5</ele><time>2026-05-02T08:18:42.16Z</time></trkpt><trkpt lat="46.1286349" lon="13.5644482"><ele>270.75</ele><time>2026-05-02T08:18:43.161Z</time></trkpt><trkpt lat="46.1285907" lon="13.5642865"><ele>269.0</ele><time>2026-05-02T08:18:44.16Z</time></trkpt><trkpt lat="46.1285341" lon="13.5641154"><ele>269.0</ele><time>2026-05-02T08:18:45.16Z</time></trkpt><trkpt lat="46.1284604" lon="13.5639823"><ele>269.0</ele><time>2026-05-02T08:18:46.16Z</time></trkpt><trkpt lat="46.1283874" lon="13.5638589"><ele>269.0</ele><time>2026-05-02T08:18:47.161Z</time></trkpt><trkpt lat="46.1283656" lon="13.5637413"><ele>269.0</ele><time>2026-05-02T08:18:48.161Z</time></trkpt><trkpt lat="46.1283738" lon="13.563608"><ele>269.0</ele><time>2026-05-02T08:18:49.161Z</time></trkpt><trkpt lat="46.1283628" lon="13.563494"><ele>269.0</ele><time>2026-05-02T08:18:50.161Z</time></trkpt><trkpt lat="46.1282523" lon="13.5634584"><ele>269.0</ele><time>2026-05-02T08:18:52.161Z</time></trkpt><trkpt lat="46.1282118" lon="13.5635404"><ele>269.0</ele><time>2026-05-02T08:18:53.16Z</time></trkpt><trkpt lat="46.1282051" lon="13.5636639"><ele>269.0</ele><time>2026-05-02T08:18:54.16Z</time></trkpt><trkpt lat="46.1282155" lon="13.5638517"><ele>269.0</ele><time>2026-05-02T08:18:55.16Z</time></trkpt><trkpt lat="46.1282287" lon="13.5640646"><ele>261.75</ele><time>2026-05-02T08:18:56.16Z</time></trkpt><trkpt lat="46.1282161" lon="13.5642359"><ele>254.5</ele><time>2026-05-02T08:18:57.16Z</time></trkpt><trkpt lat="46.1281785" lon="13.5644062"><ele>247.25</ele><time>2026-05-02T08:18:58.16Z</time></trkpt><trkpt lat="46.1281182" lon="13.5645674"><ele>240.0</ele><time>2026-05-02T08:18:59.16Z</time></trkpt><trkpt lat="46.1280538" lon="13.5646811"><ele>239.5</ele><time>2026-05-02T08:19:00.16Z</time></trkpt><trkpt lat="46.1279868" lon="13.5647943"><ele>239.0</ele><time>2026-05-02T08:19:01.16Z</time></trkpt><trkpt lat="46.1279572" lon="13.5649033"><ele>238.5</ele><time>2026-05-02T08:19:02.16Z</time></trkpt><trkpt lat="46.1279649" lon="13.5650031"><ele>238.0</ele><time>2026-05-02T08:19:03.16Z</time></trkpt><trkpt lat="46.1279596" lon="13.565098"><ele>237.5</ele><time>2026-05-02T08:19:04.16Z</time></trkpt><trkpt lat="46.1278655" lon="13.5650884"><ele>237.0</ele><time>2026-05-02T08:19:06.161Z</time></trkpt><trkpt lat="46.1278248" lon="13.564991"><ele>237.0</ele><time>2026-05-02T08:19:07.16Z</time></trkpt><trkpt lat="46.1278084" lon="13.5648276"><ele>237.0</ele><time>2026-05-02T08:19:08.161Z</time></trkpt><trkpt lat="46.1278027" lon="13.5646405"><ele>237.0</ele><time>2026-05-02T08:19:09.16Z</time></trkpt><trkpt lat="46.1278027" lon="13.5644695"><ele>237.0</ele><time>2026-05-02T08:19:10.161Z</time></trkpt><trkpt lat="46.1277843" lon="13.5643198"><ele>237.6</ele><time>2026-05-02T08:19:11.159Z</time></trkpt><trkpt lat="46.1277383" lon="13.5642192"><ele>238.2</ele><time>2026-05-02T08:19:12.159Z</time></trkpt><trkpt lat="46.1276551" lon="13.5641309"><ele>238.8</ele><time>2026-05-02T08:19:13.159Z</time></trkpt><trkpt lat="46.1275598" lon="13.5640581"><ele>239.4</ele><time>2026-05-02T08:19:14.159Z</time></trkpt><trkpt lat="46.1274749" lon="13.5639754"><ele>240.0</ele><time>2026-05-02T08:19:15.159Z</time></trkpt><trkpt lat="46.1274632" lon="13.5638685"><ele>240.0</ele><time>2026-05-02T08:19:16.16Z</time></trkpt><trkpt lat="46.1274969" lon="13.5637571"><ele>240.0</ele><time>2026-05-02T08:19:17.16Z</time></trkpt><trkpt lat="46.1274428" lon="13.5636321"><ele>240.0</ele><time>2026-05-02T08:19:19.159Z</time></trkpt><trkpt lat="46.1273576" lon="13.5637346"><ele>240.0</ele><time>2026-05-02T08:19:21.159Z</time></trkpt><trkpt lat="46.1273621" lon="13.5638883"><ele>240.0</ele><time>2026-05-02T08:19:22.159Z</time></trkpt><trkpt lat="46.1273686" lon="13.5640713"><ele>234.25</ele><time>2026-05-02T08:19:23.159Z</time></trkpt><trkpt lat="46.1273803" lon="13.564284"><ele>228.5</ele><time>2026-05-02T08:19:24.159Z</time></trkpt><trkpt lat="46.1273823" lon="13.5644738"><ele>222.75</ele><time>2026-05-02T08:19:25.159Z</time></trkpt><trkpt lat="46.127342" lon="13.5646466"><ele>217.0</ele><time>2026-05-02T08:19:26.16Z</time></trkpt><trkpt lat="46.1272915" lon="13.5648331"><ele>217.0</ele><time>2026-05-02T08:19:27.16Z</time></trkpt><trkpt lat="46.1272612" lon="13.5650196"><ele>217.0</ele><time>2026-05-02T08:19:28.159Z</time></trkpt><trkpt lat="46.1272595" lon="13.5652052"><ele>217.0</ele><time>2026-05-02T08:19:29.16Z</time></trkpt><trkpt lat="46.1272825" lon="13.5653641"><ele>217.0</ele><time>2026-05-02T08:19:30.159Z</time></trkpt><trkpt lat="46.1273223" lon="13.5654723"><ele>219.2</ele><time>2026-05-02T08:19:31.159Z</time></trkpt><trkpt lat="46.1273618" lon="13.5655573"><ele>221.39999999999998</ele><time>2026-05-02T08:19:32.159Z</time></trkpt><trkpt lat="46.1273684" lon="13.5656768"><ele>223.60000000000002</ele><time>2026-05-02T08:19:34.16Z</time></trkpt><trkpt lat="46.1274329" lon="13.5658343"><ele>225.8</ele><time>2026-05-02T08:19:38.159Z</time></trkpt><trkpt lat="46.127523" lon="13.5658877"><ele>228.0</ele><time>2026-05-02T08:19:39.159Z</time></trkpt><trkpt lat="46.1276356" lon="13.565976"><ele>229.0</ele><time>2026-05-02T08:19:40.159Z</time></trkpt><trkpt lat="46.1277527" lon="13.5661127"><ele>230.0</ele><time>2026-05-02T08:19:41.16Z</time></trkpt><trkpt lat="46.1278634" lon="13.566253"><ele>231.0</ele><time>2026-05-02T08:19:42.16Z</time></trkpt><trkpt lat="46.1279549" lon="13.566349"><ele>232.0</ele><time>2026-05-02T08:19:43.16Z</time></trkpt><trkpt lat="46.1280292" lon="13.5664653"><ele>233.5</ele><time>2026-05-02T08:19:44.16Z</time></trkpt><trkpt lat="46.1280627" lon="13.5666031"><ele>235.0</ele><time>2026-05-02T08:19:45.159Z</time></trkpt><trkpt lat="46.1280667" lon="13.5667867"><ele>236.5</ele><time>2026-05-02T08:19:46.159Z</time></trkpt><trkpt lat="46.128103" lon="13.566976"><ele>238.0</ele><time>2026-05-02T08:19:47.159Z</time></trkpt><trkpt lat="46.128197" lon="13.56718"><ele>238.66666666666666</ele><time>2026-05-02T08:19:48.159Z</time></trkpt><trkpt lat="46.1282775" lon="13.5674086"><ele>239.33333333333331</ele><time>2026-05-02T08:19:49.159Z</time></trkpt><trkpt lat="46.1283284" lon="13.5676745"><ele>240.0</ele><time>2026-05-02T08:19:50.16Z</time></trkpt><trkpt lat="46.1283624" lon="13.5679479"><ele>240.0</ele><time>2026-05-02T08:19:51.159Z</time></trkpt><trkpt lat="46.1283917" lon="13.5682054"><ele>240.0</ele><time>2026-05-02T08:19:52.159Z</time></trkpt><trkpt lat="46.1284033" lon="13.5684465"><ele>240.0</ele><time>2026-05-02T08:19:53.159Z</time></trkpt><trkpt lat="46.1284066" lon="13.5687019"><ele>240.33333333333331</ele><time>2026-05-02T08:19:54.16Z</time></trkpt><trkpt lat="46.1284" lon="13.5689537"><ele>240.66666666666666</ele><time>2026-05-02T08:19:55.159Z</time></trkpt><trkpt lat="46.1283922" lon="13.5691866"><ele>241.0</ele><time>2026-05-02T08:19:56.16Z</time></trkpt><trkpt lat="46.1283774" lon="13.5693824"><ele>243.0</ele><time>2026-05-02T08:19:57.16Z</time></trkpt><trkpt lat="46.1283645" lon="13.5695441"><ele>245.00000000000003</ele><time>2026-05-02T08:19:58.16Z</time></trkpt><trkpt lat="46.1283807" lon="13.5696613"><ele>247.00000000000003</ele><time>2026-05-02T08:19:59.159Z</time></trkpt><trkpt lat="46.1284435" lon="13.5697601"><ele>249.0</ele><time>2026-05-02T08:20:00.159Z</time></trkpt><trkpt lat="46.1285432" lon="13.5698729"><ele>251.0</ele><time>2026-05-02T08:20:01.159Z</time></trkpt><trkpt lat="46.1286635" lon="13.5700084"><ele>251.0</ele><time>2026-05-02T08:20:02.16Z</time></trkpt><trkpt lat="46.1288001" lon="13.5701886"><ele>251.0</ele><time>2026-05-02T08:20:03.159Z</time></trkpt><trkpt lat="46.1289378" lon="13.570398"><ele>251.0</ele><time>2026-05-02T08:20:04.16Z</time></trkpt><trkpt lat="46.12907" lon="13.5706273"><ele>249.33333333333334</ele><time>2026-05-02T08:20:05.159Z</time></trkpt><trkpt lat="46.1291875" lon="13.5708473"><ele>247.66666666666669</ele><time>2026-05-02T08:20:06.159Z</time></trkpt><trkpt lat="46.1292933" lon="13.5710595"><ele>246.0</ele><time>2026-05-02T08:20:07.16Z</time></trkpt><trkpt lat="46.1294055" lon="13.5712577"><ele>251.66666666666669</ele><time>2026-05-02T08:20:08.159Z</time></trkpt><trkpt lat="46.1295249" lon="13.5714372"><ele>257.33333333333337</ele><time>2026-05-02T08:20:09.159Z</time></trkpt><trkpt lat="46.1296352" lon="13.571626"><ele>263.0</ele><time>2026-05-02T08:20:10.159Z</time></trkpt><trkpt lat="46.1297467" lon="13.5718024"><ele>263.0</ele><time>2026-05-02T08:20:11.16Z</time></trkpt><trkpt lat="46.1298489" lon="13.5719682"><ele>263.0</ele><time>2026-05-02T08:20:12.16Z</time></trkpt><trkpt lat="46.1299257" lon="13.5721524"><ele>263.0</ele><time>2026-05-02T08:20:13.159Z</time></trkpt><trkpt lat="46.1299708" lon="13.5723757"><ele>262.0</ele><time>2026-05-02T08:20:14.159Z</time></trkpt><trkpt lat="46.1300036" lon="13.5726384"><ele>261.0</ele><time>2026-05-02T08:20:15.16Z</time></trkpt><trkpt lat="46.1300656" lon="13.5729107"><ele>260.0</ele><time>2026-05-02T08:20:16.16Z</time></trkpt><trkpt lat="46.1301592" lon="13.5731707"><ele>263.0</ele><time>2026-05-02T08:20:17.159Z</time></trkpt><trkpt lat="46.1302626" lon="13.5734309"><ele>266.0</ele><time>2026-05-02T08:20:18.159Z</time></trkpt><trkpt lat="46.1303601" lon="13.5736675"><ele>269.0</ele><time>2026-05-02T08:20:19.159Z</time></trkpt><trkpt lat="46.1304366" lon="13.5738799"><ele>272.0</ele><time>2026-05-02T08:20:20.159Z</time></trkpt><trkpt lat="46.1305055" lon="13.5740785"><ele>275.0</ele><time>2026-05-02T08:20:21.159Z</time></trkpt><trkpt lat="46.1305449" lon="13.5742904"><ele>278.0</ele><time>2026-05-02T08:20:22.159Z</time></trkpt><trkpt lat="46.1305539" lon="13.5745146"><ele>281.6666666666667</ele><time>2026-05-02T08:20:23.159Z</time></trkpt><trkpt lat="46.1305453" lon="13.5747362"><ele>285.3333333333333</ele><time>2026-05-02T08:20:24.16Z</time></trkpt><trkpt lat="46.1305693" lon="13.5749538"><ele>289.0</ele><time>2026-05-02T08:20:25.159Z</time></trkpt><trkpt lat="46.1306117" lon="13.5751627"><ele>293.75</ele><time>2026-05-02T08:20:26.16Z</time></trkpt><trkpt lat="46.1306436" lon="13.5753812"><ele>298.5</ele><time>2026-05-02T08:20:27.16Z</time></trkpt><trkpt lat="46.1306439" lon="13.5755767"><ele>303.25</ele><time>2026-05-02T08:20:28.159Z</time></trkpt><trkpt lat="46.1306508" lon="13.5757541"><ele>308.0</ele><time>2026-05-02T08:20:29.16Z</time></trkpt><trkpt lat="46.1306732" lon="13.575923"><ele>299.0</ele><time>2026-05-02T08:20:30.159Z</time></trkpt><trkpt lat="46.1307504" lon="13.5760667"><ele>290.0</ele><time>2026-05-02T08:20:31.16Z</time></trkpt><trkpt lat="46.1308614" lon="13.5762233"><ele>281.0</ele><time>2026-05-02T08:20:32.159Z</time></trkpt><trkpt lat="46.1309882" lon="13.5764109"><ele>281.0</ele><time>2026-05-02T08:20:33.159Z</time></trkpt><trkpt lat="46.1311087" lon="13.5766024"><ele>281.0</ele><time>2026-05-02T08:20:34.159Z</time></trkpt><trkpt lat="46.1311991" lon="13.5767633"><ele>281.0</ele><time>2026-05-02T08:20:35.16Z</time></trkpt><trkpt lat="46.1312887" lon="13.5769136"><ele>283.75</ele><time>2026-05-02T08:20:36.159Z</time></trkpt><trkpt lat="46.1313562" lon="13.5771012"><ele>286.5</ele><time>2026-05-02T08:20:37.16Z</time></trkpt><trkpt lat="46.1313999" lon="13.5773086"><ele>289.25</ele><time>2026-05-02T08:20:38.159Z</time></trkpt><trkpt lat="46.1314359" lon="13.5774818"><ele>292.0</ele><time>2026-05-02T08:20:39.159Z</time></trkpt><trkpt lat="46.1314941" lon="13.5775919"><ele>292.0</ele><time>2026-05-02T08:20:40.159Z</time></trkpt><trkpt lat="46.1315437" lon="13.5776761"><ele>292.0</ele><time>2026-05-02T08:20:41.16Z</time></trkpt><trkpt lat="46.1315711" lon="13.5777733"><ele>292.0</ele><time>2026-05-02T08:20:42.159Z</time></trkpt><trkpt lat="46.1315435" lon="13.5778574"><ele>292.0</ele><time>2026-05-02T08:20:43.159Z</time></trkpt><trkpt lat="46.1314451" lon="13.577851"><ele>292.0</ele><time>2026-05-02T08:20:45.159Z</time></trkpt><trkpt lat="46.1314133" lon="13.5777507"><ele>292.0</ele><time>2026-05-02T08:20:46.159Z</time></trkpt><trkpt lat="46.1313797" lon="13.5776045"><ele>292.0</ele><time>2026-05-02T08:20:47.16Z</time></trkpt><trkpt lat="46.1313095" lon="13.5774451"><ele>292.0</ele><time>2026-05-02T08:20:48.16Z</time></trkpt><trkpt lat="46.1312102" lon="13.5772808"><ele>292.0</ele><time>2026-05-02T08:20:49.159Z</time></trkpt><trkpt lat="46.1311" lon="13.5771324"><ele>292.0</ele><time>2026-05-02T08:20:50.16Z</time></trkpt><trkpt lat="46.1309956" lon="13.5769868"><ele>289.25</ele><time>2026-05-02T08:20:51.159Z</time></trkpt><trkpt lat="46.1309296" lon="13.5768307"><ele>286.5</ele><time>2026-05-02T08:20:52.159Z</time></trkpt><trkpt lat="46.1308521" lon="13.5766738"><ele>283.75</ele><time>2026-05-02T08:20:53.159Z</time></trkpt><trkpt lat="46.1307503" lon="13.5765142"><ele>281.0</ele><time>2026-05-02T08:20:54.159Z</time></trkpt><trkpt lat="46.1306169" lon="13.5763455"><ele>290.0</ele><time>2026-05-02T08:20:55.16Z</time></trkpt><trkpt lat="46.1304786" lon="13.5761524"><ele>299.0</ele><time>2026-05-02T08:20:56.159Z</time></trkpt><trkpt lat="46.1303389" lon="13.575957"><ele>308.0</ele><time>2026-05-02T08:20:57.16Z</time></trkpt><trkpt lat="46.1302191" lon="13.5757588"><ele>308.0</ele><time>2026-05-02T08:20:58.159Z</time></trkpt><trkpt lat="46.1301104" lon="13.5755447"><ele>308.0</ele><time>2026-05-02T08:20:59.159Z</time></trkpt><trkpt lat="46.1300211" lon="13.5752819"><ele>308.0</ele><time>2026-05-02T08:21:00.16Z</time></trkpt><trkpt lat="46.1299243" lon="13.5750078"><ele>319.6666666666667</ele><time>2026-05-02T08:21:01.159Z</time></trkpt><trkpt lat="46.1298296" lon="13.5747566"><ele>331.3333333333333</ele><time>2026-05-02T08:21:02.16Z</time></trkpt><trkpt lat="46.1297518" lon="13.574541"><ele>343.0</ele><time>2026-05-02T08:21:03.16Z</time></trkpt><trkpt lat="46.1297037" lon="13.5743106"><ele>343.0</ele><time>2026-05-02T08:21:04.16Z</time></trkpt><trkpt lat="46.1296754" lon="13.5740655"><ele>343.0</ele><time>2026-05-02T08:21:05.16Z</time></trkpt><trkpt lat="46.1296477" lon="13.5738341"><ele>343.0</ele><time>2026-05-02T08:21:06.159Z</time></trkpt><trkpt lat="46.1295971" lon="13.5736224"><ele>337.0</ele><time>2026-05-02T08:21:07.16Z</time></trkpt><trkpt lat="46.1295246" lon="13.5734377"><ele>331.0</ele><time>2026-05-02T08:21:08.16Z</time></trkpt><trkpt lat="46.1294319" lon="13.5732654"><ele>325.0</ele><time>2026-05-02T08:21:09.159Z</time></trkpt><trkpt lat="46.129337" lon="13.5730786"><ele>325.0</ele><time>2026-05-02T08:21:10.16Z</time></trkpt><trkpt lat="46.1292618" lon="13.5729099"><ele>325.0</ele><time>2026-05-02T08:21:11.159Z</time></trkpt><trkpt lat="46.1291943" lon="13.5727738"><ele>325.0</ele><time>2026-05-02T08:21:12.159Z</time></trkpt><trkpt lat="46.1291184" lon="13.5726897"><ele>325.0</ele><time>2026-05-02T08:21:13.159Z</time></trkpt><trkpt lat="46.1290177" lon="13.5726526"><ele>327.8</ele><time>2026-05-02T08:21:14.16Z</time></trkpt><trkpt lat="46.1289092" lon="13.5726276"><ele>330.6</ele><time>2026-05-02T08:21:15.159Z</time></trkpt><trkpt lat="46.1288269" lon="13.572567"><ele>333.4</ele><time>2026-05-02T08:21:16.159Z</time></trkpt><trkpt lat="46.1287609" lon="13.572476"><ele>336.2</ele><time>2026-05-02T08:21:17.159Z</time></trkpt><trkpt lat="46.128692" lon="13.572396"><ele>339.0</ele><time>2026-05-02T08:21:18.159Z</time></trkpt><trkpt lat="46.128618" lon="13.5723311"><ele>339.0</ele><time>2026-05-02T08:21:19.16Z</time></trkpt><trkpt lat="46.1285359" lon="13.5722639"><ele>339.0</ele><time>2026-05-02T08:21:20.159Z</time></trkpt><trkpt lat="46.1284604" lon="13.5721704"><ele>339.0</ele><time>2026-05-02T08:21:21.159Z</time></trkpt><trkpt lat="46.1284092" lon="13.5720691"><ele>339.0</ele><time>2026-05-02T08:21:22.16Z</time></trkpt><trkpt lat="46.1283773" lon="13.5719819"><ele>339.0</ele><time>2026-05-02T08:21:23.16Z</time></trkpt><trkpt lat="46.1283381" lon="13.5718647"><ele>339.0</ele><time>2026-05-02T08:21:24.159Z</time></trkpt><trkpt lat="46.1282979" lon="13.5717692"><ele>339.0</ele><time>2026-05-02T08:21:25.159Z</time></trkpt><trkpt lat="46.1282439" lon="13.571694"><ele>339.0</ele><time>2026-05-02T08:21:26.159Z</time></trkpt><trkpt lat="46.1281887" lon="13.5716304"><ele>339.0</ele><time>2026-05-02T08:21:27.16Z</time></trkpt><trkpt lat="46.1281378" lon="13.5715605"><ele>339.0</ele><time>2026-05-02T08:21:28.16Z</time></trkpt><trkpt lat="46.1280752" lon="13.5714824"><ele>339.0</ele><time>2026-05-02T08:21:29.159Z</time></trkpt><trkpt lat="46.1280122" lon="13.5713817"><ele>339.0</ele><time>2026-05-02T08:21:30.159Z</time></trkpt><trkpt lat="46.1279541" lon="13.5712772"><ele>334.59999999999997</ele><time>2026-05-02T08:21:31.159Z</time></trkpt><trkpt lat="46.1278906" lon="13.5711872"><ele>330.2</ele><time>2026-05-02T08:21:32.16Z</time></trkpt><trkpt lat="46.1278082" lon="13.5711465"><ele>325.79999999999995</ele><time>2026-05-02T08:21:33.159Z</time></trkpt><trkpt lat="46.1277126" lon="13.5711261"><ele>321.4</ele><time>2026-05-02T08:21:34.16Z</time></trkpt><trkpt lat="46.1276259" lon="13.5711072"><ele>317.0</ele><time>2026-05-02T08:21:35.16Z</time></trkpt><trkpt lat="46.1275341" lon="13.5710815"><ele>317.0</ele><time>2026-05-02T08:21:36.159Z</time></trkpt><trkpt lat="46.1274547" lon="13.57103"><ele>317.0</ele><time>2026-05-02T08:21:37.159Z</time></trkpt><trkpt lat="46.1273824" lon="13.5709612"><ele>317.0</ele><time>2026-05-02T08:21:38.16Z</time></trkpt><trkpt lat="46.1273191" lon="13.5708704"><ele>317.0</ele><time>2026-05-02T08:21:39.16Z</time></trkpt><trkpt lat="46.1272873" lon="13.5707595"><ele>317.0</ele><time>2026-05-02T08:21:40.159Z</time></trkpt><trkpt lat="46.1272685" lon="13.5706573"><ele>317.0</ele><time>2026-05-02T08:21:41.16Z</time></trkpt><trkpt lat="46.1272504" lon="13.5705657"><ele>317.6</ele><time>2026-05-02T08:21:42.159Z</time></trkpt><trkpt lat="46.1271819" lon="13.5704097"><ele>318.2</ele><time>2026-05-02T08:21:44.159Z</time></trkpt><trkpt lat="46.1271188" lon="13.5703423"><ele>318.8</ele><time>2026-05-02T08:21:45.159Z</time></trkpt><trkpt lat="46.1270371" lon="13.5703148"><ele>319.4</ele><time>2026-05-02T08:21:46.159Z</time></trkpt><trkpt lat="46.1269322" lon="13.5703773"><ele>320.0</ele><time>2026-05-02T08:21:47.159Z</time></trkpt><trkpt lat="46.1268171" lon="13.5704653"><ele>320.0</ele><time>2026-05-02T08:21:48.159Z</time></trkpt><trkpt lat="46.1267158" lon="13.5705331"><ele>320.0</ele><time>2026-05-02T08:21:49.159Z</time></trkpt><trkpt lat="46.1266533" lon="13.5706177"><ele>320.0</ele><time>2026-05-02T08:21:50.159Z</time></trkpt><trkpt lat="46.1266155" lon="13.5707069"><ele>320.0</ele><time>2026-05-02T08:21:51.16Z</time></trkpt><trkpt lat="46.1266415" lon="13.5708016"><ele>320.0</ele><time>2026-05-02T08:21:52.159Z</time></trkpt><trkpt lat="46.1266971" lon="13.5708516"><ele>320.0</ele><time>2026-05-02T08:21:53.16Z</time></trkpt><trkpt lat="46.126774" lon="13.5708232"><ele>320.0</ele><time>2026-05-02T08:21:54.159Z</time></trkpt><trkpt lat="46.126864" lon="13.5707549"><ele>320.0</ele><time>2026-05-02T08:21:55.159Z</time></trkpt><trkpt lat="46.1269424" lon="13.5707022"><ele>320.0</ele><time>2026-05-02T08:21:56.159Z</time></trkpt><trkpt lat="46.1270212" lon="13.5706791"><ele>320.0</ele><time>2026-05-02T08:21:57.159Z</time></trkpt><trkpt lat="46.1270972" lon="13.5707165"><ele>320.0</ele><time>2026-05-02T08:21:58.159Z</time></trkpt><trkpt lat="46.127131" lon="13.5708085"><ele>320.0</ele><time>2026-05-02T08:21:59.159Z</time></trkpt><trkpt lat="46.1271232" lon="13.5709217"><ele>320.0</ele><time>2026-05-02T08:22:00.159Z</time></trkpt><trkpt lat="46.1270596" lon="13.5709898"><ele>320.0</ele><time>2026-05-02T08:22:01.16Z</time></trkpt><trkpt lat="46.1269504" lon="13.5710206"><ele>320.0</ele><time>2026-05-02T08:22:02.159Z</time></trkpt><trkpt lat="46.1268245" lon="13.5710839"><ele>320.0</ele><time>2026-05-02T08:22:03.159Z</time></trkpt><trkpt lat="46.12671" lon="13.5711997"><ele>316.0</ele><time>2026-05-02T08:22:04.159Z</time></trkpt><trkpt lat="46.1265927" lon="13.5713776"><ele>312.0</ele><time>2026-05-02T08:22:05.159Z</time></trkpt><trkpt lat="46.126473" lon="13.5715331"><ele>308.0</ele><time>2026-05-02T08:22:06.16Z</time></trkpt><trkpt lat="46.126374" lon="13.5716518"><ele>308.0</ele><time>2026-05-02T08:22:07.16Z</time></trkpt><trkpt lat="46.1263087" lon="13.5717587"><ele>308.0</ele><time>2026-05-02T08:22:08.16Z</time></trkpt><trkpt lat="46.1262744" lon="13.5718526"><ele>308.0</ele><time>2026-05-02T08:22:09.16Z</time></trkpt><trkpt lat="46.1262837" lon="13.5719486"><ele>308.0</ele><time>2026-05-02T08:22:10.159Z</time></trkpt><trkpt lat="46.1263499" lon="13.5719924"><ele>308.0</ele><time>2026-05-02T08:22:11.16Z</time></trkpt><trkpt lat="46.1264197" lon="13.5719598"><ele>308.0</ele><time>2026-05-02T08:22:12.16Z</time></trkpt><trkpt lat="46.1264999" lon="13.5718749"><ele>314.5</ele><time>2026-05-02T08:22:13.159Z</time></trkpt><trkpt lat="46.1265929" lon="13.5717543"><ele>321.0</ele><time>2026-05-02T08:22:14.159Z</time></trkpt><trkpt lat="46.1267104" lon="13.5716521"><ele>327.5</ele><time>2026-05-02T08:22:15.159Z</time></trkpt><trkpt lat="46.126824" lon="13.571563"><ele>334.0</ele><time>2026-05-02T08:22:16.159Z</time></trkpt><trkpt lat="46.1269302" lon="13.5715018"><ele>334.0</ele><time>2026-05-02T08:22:17.159Z</time></trkpt><trkpt lat="46.1270325" lon="13.5715081"><ele>334.0</ele><time>2026-05-02T08:22:18.159Z</time></trkpt><trkpt lat="46.1271546" lon="13.5715708"><ele>334.0</ele><time>2026-05-02T08:22:19.159Z</time></trkpt><trkpt lat="46.1272653" lon="13.5716873"><ele>334.0</ele><time>2026-05-02T08:22:20.16Z</time></trkpt><trkpt lat="46.1273781" lon="13.5718689"><ele>341.0</ele><time>2026-05-02T08:22:21.16Z</time></trkpt><trkpt lat="46.1274961" lon="13.5720659"><ele>348.0</ele><time>2026-05-02T08:22:22.159Z</time></trkpt><trkpt lat="46.1276015" lon="13.5722121"><ele>355.0</ele><time>2026-05-02T08:22:23.16Z</time></trkpt><trkpt lat="46.1277048" lon="13.572357"><ele>355.0</ele><time>2026-05-02T08:22:24.159Z</time></trkpt><trkpt lat="46.1277999" lon="13.5725672"><ele>355.0</ele><time>2026-05-02T08:22:25.159Z</time></trkpt><trkpt lat="46.127888" lon="13.5728092"><ele>355.0</ele><time>2026-05-02T08:22:26.159Z</time></trkpt><trkpt lat="46.1279932" lon="13.5730166"><ele>358.0</ele><time>2026-05-02T08:22:27.159Z</time></trkpt><trkpt lat="46.1280721" lon="13.5731761"><ele>361.0</ele><time>2026-05-02T08:22:28.159Z</time></trkpt><trkpt lat="46.128143" lon="13.5733027"><ele>364.0</ele><time>2026-05-02T08:22:29.159Z</time></trkpt><trkpt lat="46.1281784" lon="13.5734227"><ele>367.0</ele><time>2026-05-02T08:22:30.159Z</time></trkpt><trkpt lat="46.1281766" lon="13.5735205"><ele>370.0</ele><time>2026-05-02T08:22:31.159Z</time></trkpt><trkpt lat="46.1281452" lon="13.5736076"><ele>370.0</ele><time>2026-05-02T08:22:32.159Z</time></trkpt><trkpt lat="46.1280232" lon="13.5735301"><ele>370.0</ele><time>2026-05-02T08:22:34.16Z</time></trkpt><trkpt lat="46.127967" lon="13.5734071"><ele>370.0</ele><time>2026-05-02T08:22:35.159Z</time></trkpt><trkpt lat="46.1278902" lon="13.5732786"><ele>370.0</ele><time>2026-05-02T08:22:36.16Z</time></trkpt><trkpt lat="46.1277755" lon="13.5731414"><ele>370.0</ele><time>2026-05-02T08:22:37.159Z</time></trkpt><trkpt lat="46.1276348" lon="13.5730412"><ele>370.0</ele><time>2026-05-02T08:22:38.16Z</time></trkpt><trkpt lat="46.1275168" lon="13.5729801"><ele>370.0</ele><time>2026-05-02T08:22:39.159Z</time></trkpt><trkpt lat="46.1274114" lon="13.5729378"><ele>370.0</ele><time>2026-05-02T08:22:40.16Z</time></trkpt><trkpt lat="46.1273029" lon="13.5729452"><ele>365.0</ele><time>2026-05-02T08:22:41.16Z</time></trkpt><trkpt lat="46.1272035" lon="13.5730147"><ele>360.0</ele><time>2026-05-02T08:22:42.16Z</time></trkpt><trkpt lat="46.1271187" lon="13.5731419"><ele>355.0</ele><time>2026-05-02T08:22:43.16Z</time></trkpt><trkpt lat="46.1270646" lon="13.5732911"><ele>350.0</ele><time>2026-05-02T08:22:44.16Z</time></trkpt><trkpt lat="46.1270511" lon="13.5734514"><ele>350.0</ele><time>2026-05-02T08:22:45.159Z</time></trkpt><trkpt lat="46.1270825" lon="13.5736372"><ele>350.0</ele><time>2026-05-02T08:22:46.159Z</time></trkpt><trkpt lat="46.1271278" lon="13.5738454"><ele>350.0</ele><time>2026-05-02T08:22:47.159Z</time></trkpt><trkpt lat="46.127174" lon="13.5740773"><ele>351.6666666666667</ele><time>2026-05-02T08:22:48.159Z</time></trkpt><trkpt lat="46.127227" lon="13.5743077"><ele>353.3333333333333</ele><time>2026-05-02T08:22:49.159Z</time></trkpt><trkpt lat="46.1272804" lon="13.5745362"><ele>355.0</ele><time>2026-05-02T08:22:50.159Z</time></trkpt><trkpt lat="46.1273299" lon="13.5747539"><ele>356.75</ele><time>2026-05-02T08:22:51.159Z</time></trkpt><trkpt lat="46.1273526" lon="13.574954"><ele>358.5</ele><time>2026-05-02T08:22:52.16Z</time></trkpt><trkpt lat="46.1273322" lon="13.5751582"><ele>360.25</ele><time>2026-05-02T08:22:53.159Z</time></trkpt><trkpt lat="46.1272827" lon="13.575325"><ele>362.0</ele><time>2026-05-02T08:22:54.159Z</time></trkpt><trkpt lat="46.127241" lon="13.575475"><ele>364.8</ele><time>2026-05-02T08:22:55.16Z</time></trkpt><trkpt lat="46.1272191" lon="13.5756082"><ele>367.6</ele><time>2026-05-02T08:22:56.16Z</time></trkpt><trkpt lat="46.1272168" lon="13.5757431"><ele>370.40000000000003</ele><time>2026-05-02T08:22:57.159Z</time></trkpt><trkpt lat="46.127226" lon="13.5758926"><ele>373.20000000000005</ele><time>2026-05-02T08:22:58.159Z</time></trkpt><trkpt lat="46.1272315" lon="13.5760431"><ele>376.0</ele><time>2026-05-02T08:22:59.159Z</time></trkpt><trkpt lat="46.1272313" lon="13.5762073"><ele>378.8</ele><time>2026-05-02T08:23:00.159Z</time></trkpt><trkpt lat="46.1272102" lon="13.576374"><ele>381.6</ele><time>2026-05-02T08:23:01.159Z</time></trkpt><trkpt lat="46.1271713" lon="13.5765247"><ele>384.4</ele><time>2026-05-02T08:23:02.159Z</time></trkpt><trkpt lat="46.1271198" lon="13.5766594"><ele>387.2</ele><time>2026-05-02T08:23:03.16Z</time></trkpt><trkpt lat="46.1270755" lon="13.5768057"><ele>390.0</ele><time>2026-05-02T08:23:04.16Z</time></trkpt><trkpt lat="46.1270447" lon="13.57696"><ele>391.25</ele><time>2026-05-02T08:23:05.159Z</time></trkpt><trkpt lat="46.1270247" lon="13.5771187"><ele>392.5</ele><time>2026-05-02T08:23:06.159Z</time></trkpt><trkpt lat="46.1269937" lon="13.5772817"><ele>393.75</ele><time>2026-05-02T08:23:07.159Z</time></trkpt><trkpt lat="46.1269561" lon="13.577458"><ele>395.0</ele><time>2026-05-02T08:23:08.159Z</time></trkpt><trkpt lat="46.126925" lon="13.5776459"><ele>395.0</ele><time>2026-05-02T08:23:09.16Z</time></trkpt><trkpt lat="46.1268887" lon="13.5778263"><ele>395.0</ele><time>2026-05-02T08:23:10.159Z</time></trkpt><trkpt lat="46.1268401" lon="13.5779926"><ele>395.0</ele><time>2026-05-02T08:23:11.159Z</time></trkpt><trkpt lat="46.1267946" lon="13.5781517"><ele>395.0</ele><time>2026-05-02T08:23:12.159Z</time></trkpt><trkpt lat="46.1267502" lon="13.5783179"><ele>397.0</ele><time>2026-05-02T08:23:13.159Z</time></trkpt><trkpt lat="46.1267014" lon="13.5784919"><ele>399.0</ele><time>2026-05-02T08:23:14.159Z</time></trkpt><trkpt lat="46.1266536" lon="13.5786723"><ele>401.0</ele><time>2026-05-02T08:23:15.159Z</time></trkpt><trkpt lat="46.1266094" lon="13.5788606"><ele>403.0</ele><time>2026-05-02T08:23:16.159Z</time></trkpt><trkpt lat="46.1265633" lon="13.5790539"><ele>401.75</ele><time>2026-05-02T08:23:17.159Z</time></trkpt><trkpt lat="46.1265187" lon="13.5792498"><ele>400.5</ele><time>2026-05-02T08:23:18.16Z</time></trkpt><trkpt lat="46.1264715" lon="13.5794487"><ele>399.25</ele><time>2026-05-02T08:23:19.16Z</time></trkpt><trkpt lat="46.1264263" lon="13.5796477"><ele>398.0</ele><time>2026-05-02T08:23:20.159Z</time></trkpt><trkpt lat="46.1263819" lon="13.5798397"><ele>401.25</ele><time>2026-05-02T08:23:21.159Z</time></trkpt><trkpt lat="46.1263337" lon="13.5800376"><ele>404.5</ele><time>2026-05-02T08:23:22.16Z</time></trkpt><trkpt lat="46.1262884" lon="13.5802332"><ele>407.75</ele><time>2026-05-02T08:23:23.159Z</time></trkpt><trkpt lat="46.1262485" lon="13.580425"><ele>411.0</ele><time>2026-05-02T08:23:24.159Z</time></trkpt><trkpt lat="46.1262127" lon="13.5806176"><ele>413.33333333333337</ele><time>2026-05-02T08:23:25.16Z</time></trkpt><trkpt lat="46.1261874" lon="13.5808236"><ele>415.6666666666667</ele><time>2026-05-02T08:23:26.159Z</time></trkpt><trkpt lat="46.1261694" lon="13.5810373"><ele>418.0</ele><time>2026-05-02T08:23:27.16Z</time></trkpt><trkpt lat="46.126148" lon="13.5812729"><ele>420.0</ele><time>2026-05-02T08:23:28.16Z</time></trkpt><trkpt lat="46.1261253" lon="13.5815305"><ele>422.0</ele><time>2026-05-02T08:23:29.16Z</time></trkpt><trkpt lat="46.1261074" lon="13.5817943"><ele>424.0</ele><time>2026-05-02T08:23:30.159Z</time></trkpt><trkpt lat="46.1260799" lon="13.5820387"><ele>425.6666666666667</ele><time>2026-05-02T08:23:31.159Z</time></trkpt><trkpt lat="46.1260476" lon="13.5822584"><ele>427.33333333333337</ele><time>2026-05-02T08:23:32.159Z</time></trkpt><trkpt lat="46.1260253" lon="13.5824723"><ele>429.0</ele><time>2026-05-02T08:23:33.16Z</time></trkpt><trkpt lat="46.1260281" lon="13.5826828"><ele>430.33333333333337</ele><time>2026-05-02T08:23:34.159Z</time></trkpt><trkpt lat="46.1260592" lon="13.5828984"><ele>431.6666666666667</ele><time>2026-05-02T08:23:35.159Z</time></trkpt><trkpt lat="46.1261028" lon="13.5831276"><ele>433.0</ele><time>2026-05-02T08:23:36.159Z</time></trkpt><trkpt lat="46.1261739" lon="13.5833529"><ele>433.0</ele><time>2026-05-02T08:23:37.16Z</time></trkpt><trkpt lat="46.1262387" lon="13.5835638"><ele>433.0</ele><time>2026-05-02T08:23:38.159Z</time></trkpt><trkpt lat="46.1262832" lon="13.5837751"><ele>433.0</ele><time>2026-05-02T08:23:39.158Z</time></trkpt><trkpt lat="46.1263021" lon="13.5839888"><ele>434.0</ele><time>2026-05-02T08:23:40.158Z</time></trkpt><trkpt lat="46.1262903" lon="13.5842127"><ele>435.0</ele><time>2026-05-02T08:23:41.158Z</time></trkpt><trkpt lat="46.126255" lon="13.5844763"><ele>436.0</ele><time>2026-05-02T08:23:42.159Z</time></trkpt><trkpt lat="46.1262311" lon="13.584771"><ele>437.6666666666667</ele><time>2026-05-02T08:23:43.158Z</time></trkpt><trkpt lat="46.1262123" lon="13.5850755"><ele>439.33333333333337</ele><time>2026-05-02T08:23:44.158Z</time></trkpt><trkpt lat="46.1261925" lon="13.5853502"><ele>441.0</ele><time>2026-05-02T08:23:45.158Z</time></trkpt><trkpt lat="46.1261746" lon="13.5855877"><ele>442.66666666666663</ele><time>2026-05-02T08:23:46.158Z</time></trkpt><trkpt lat="46.1261597" lon="13.5858047"><ele>444.3333333333333</ele><time>2026-05-02T08:23:47.158Z</time></trkpt><trkpt lat="46.1261343" lon="13.5860299"><ele>446.0</ele><time>2026-05-02T08:23:48.159Z</time></trkpt><trkpt lat="46.1261133" lon="13.5862574"><ele>447.0</ele><time>2026-05-02T08:23:49.158Z</time></trkpt><trkpt lat="46.1261019" lon="13.5864811"><ele>448.0</ele><time>2026-05-02T08:23:50.158Z</time></trkpt><trkpt lat="46.126081" lon="13.5866927"><ele>449.0</ele><time>2026-05-02T08:23:51.158Z</time></trkpt><trkpt lat="46.1260442" lon="13.5869107"><ele>450.3333333333333</ele><time>2026-05-02T08:23:52.158Z</time></trkpt><trkpt lat="46.1259903" lon="13.5871283"><ele>451.66666666666663</ele><time>2026-05-02T08:23:53.158Z</time></trkpt><trkpt lat="46.1259352" lon="13.5873373"><ele>453.0</ele><time>2026-05-02T08:23:54.158Z</time></trkpt><trkpt lat="46.1258766" lon="13.5875302"><ele>453.0</ele><time>2026-05-02T08:23:55.158Z</time></trkpt><trkpt lat="46.1258154" lon="13.5877117"><ele>453.0</ele><time>2026-05-02T08:23:56.158Z</time></trkpt><trkpt lat="46.1257553" lon="13.587883"><ele>453.0</ele><time>2026-05-02T08:23:57.158Z</time></trkpt><trkpt lat="46.1256972" lon="13.5880576"><ele>453.0</ele><time>2026-05-02T08:23:58.159Z</time></trkpt><trkpt lat="46.1256483" lon="13.5882446"><ele>459.66666666666663</ele><time>2026-05-02T08:23:59.159Z</time></trkpt><trkpt lat="46.1256139" lon="13.5884613"><ele>466.3333333333333</ele><time>2026-05-02T08:24:00.158Z</time></trkpt><trkpt lat="46.1255864" lon="13.5886882"><ele>473.0</ele><time>2026-05-02T08:24:01.159Z</time></trkpt><trkpt lat="46.1255546" lon="13.5888789"><ele>473.66666666666663</ele><time>2026-05-02T08:24:02.158Z</time></trkpt><trkpt lat="46.1255306" lon="13.5890228"><ele>474.3333333333333</ele><time>2026-05-02T08:24:03.158Z</time></trkpt><trkpt lat="46.1254993" lon="13.5891603"><ele>475.0</ele><time>2026-05-02T08:24:04.158Z</time></trkpt><trkpt lat="46.1254457" lon="13.5892232"><ele>475.66666666666663</ele><time>2026-05-02T08:24:05.159Z</time></trkpt><trkpt lat="46.1253797" lon="13.5892387"><ele>476.3333333333333</ele><time>2026-05-02T08:24:06.158Z</time></trkpt><trkpt lat="46.1252977" lon="13.5892111"><ele>477.0</ele><time>2026-05-02T08:24:07.159Z</time></trkpt><trkpt lat="46.1252165" lon="13.5891338"><ele>477.0</ele><time>2026-05-02T08:24:08.159Z</time></trkpt><trkpt lat="46.1251886" lon="13.5890294"><ele>477.0</ele><time>2026-05-02T08:24:09.158Z</time></trkpt><trkpt lat="46.1251793" lon="13.5888758"><ele>477.0</ele><time>2026-05-02T08:24:10.159Z</time></trkpt><trkpt lat="46.1251504" lon="13.5886839"><ele>477.0</ele><time>2026-05-02T08:24:11.159Z</time></trkpt><trkpt lat="46.1250824" lon="13.5884742"><ele>476.20000000000005</ele><time>2026-05-02T08:24:12.159Z</time></trkpt><trkpt lat="46.1250237" lon="13.5883166"><ele>475.40000000000003</ele><time>2026-05-02T08:24:13.159Z</time></trkpt><trkpt lat="46.1249633" lon="13.5881948"><ele>474.59999999999997</ele><time>2026-05-02T08:24:14.158Z</time></trkpt><trkpt lat="46.124897" lon="13.5880793"><ele>473.79999999999995</ele><time>2026-05-02T08:24:15.158Z</time></trkpt><trkpt lat="46.1248116" lon="13.5879763"><ele>473.0</ele><time>2026-05-02T08:24:16.158Z</time></trkpt><trkpt lat="46.1247065" lon="13.5878943"><ele>479.3333333333333</ele><time>2026-05-02T08:24:17.159Z</time></trkpt><trkpt lat="46.1245719" lon="13.5878125"><ele>485.66666666666663</ele><time>2026-05-02T08:24:18.158Z</time></trkpt><trkpt lat="46.1244198" lon="13.5877286"><ele>492.0</ele><time>2026-05-02T08:24:19.159Z</time></trkpt><trkpt lat="46.1242736" lon="13.5876783"><ele>492.0</ele><time>2026-05-02T08:24:20.159Z</time></trkpt><trkpt lat="46.1241245" lon="13.587648"><ele>492.0</ele><time>2026-05-02T08:24:21.158Z</time></trkpt><trkpt lat="46.1239965" lon="13.5876375"><ele>492.0</ele><time>2026-05-02T08:24:22.158Z</time></trkpt><trkpt lat="46.1238969" lon="13.5876249"><ele>492.0</ele><time>2026-05-02T08:24:23.158Z</time></trkpt><trkpt lat="46.1238093" lon="13.587591"><ele>496.5</ele><time>2026-05-02T08:24:24.158Z</time></trkpt><trkpt lat="46.1237232" lon="13.5875251"><ele>501.0</ele><time>2026-05-02T08:24:26.158Z</time></trkpt><trkpt lat="46.1237446" lon="13.5874042"><ele>505.5</ele><time>2026-05-02T08:24:28.158Z</time></trkpt><trkpt lat="46.1238505" lon="13.587283"><ele>510.0</ele><time>2026-05-02T08:24:29.158Z</time></trkpt><trkpt lat="46.1240379" lon="13.5871493"><ele>506.66666666666663</ele><time>2026-05-02T08:24:30.159Z</time></trkpt><trkpt lat="46.1241971" lon="13.587002"><ele>503.3333333333333</ele><time>2026-05-02T08:24:31.159Z</time></trkpt><trkpt lat="46.124331" lon="13.5868725"><ele>500.0</ele><time>2026-05-02T08:24:32.158Z</time></trkpt><trkpt lat="46.1244375" lon="13.5867616"><ele>500.0</ele><time>2026-05-02T08:24:33.158Z</time></trkpt><trkpt lat="46.1245391" lon="13.5866285"><ele>500.0</ele><time>2026-05-02T08:24:34.158Z</time></trkpt><trkpt lat="46.1246092" lon="13.586467"><ele>500.0</ele><time>2026-05-02T08:24:35.158Z</time></trkpt><trkpt lat="46.1246283" lon="13.5862792"><ele>500.0</ele><time>2026-05-02T08:24:36.158Z</time></trkpt><trkpt lat="46.1246141" lon="13.5860865"><ele>503.3333333333333</ele><time>2026-05-02T08:24:37.159Z</time></trkpt><trkpt lat="46.1245733" lon="13.5858648"><ele>506.66666666666663</ele><time>2026-05-02T08:24:38.158Z</time></trkpt><trkpt lat="46.1245026" lon="13.5856274"><ele>510.0</ele><time>2026-05-02T08:24:39.158Z</time></trkpt><trkpt lat="46.1243927" lon="13.5853951"><ele>508.0</ele><time>2026-05-02T08:24:40.158Z</time></trkpt><trkpt lat="46.124286" lon="13.5851736"><ele>506.0</ele><time>2026-05-02T08:24:41.159Z</time></trkpt><trkpt lat="46.1242" lon="13.5849638"><ele>504.0</ele><time>2026-05-02T08:24:42.158Z</time></trkpt><trkpt lat="46.1241468" lon="13.5847846"><ele>504.0</ele><time>2026-05-02T08:24:43.158Z</time></trkpt><trkpt lat="46.1241098" lon="13.5846331"><ele>504.0</ele><time>2026-05-02T08:24:44.159Z</time></trkpt><trkpt lat="46.124048" lon="13.5845221"><ele>504.0</ele><time>2026-05-02T08:24:45.158Z</time></trkpt><trkpt lat="46.1239557" lon="13.5844309"><ele>504.0</ele><time>2026-05-02T08:24:46.158Z</time></trkpt><trkpt lat="46.1238431" lon="13.5843776"><ele>504.0</ele><time>2026-05-02T08:24:47.159Z</time></trkpt><trkpt lat="46.1237375" lon="13.5842967"><ele>507.2</ele><time>2026-05-02T08:24:48.158Z</time></trkpt><trkpt lat="46.1236651" lon="13.5841546"><ele>510.4</ele><time>2026-05-02T08:24:49.158Z</time></trkpt><trkpt lat="46.12361" lon="13.5840079"><ele>513.6</ele><time>2026-05-02T08:24:50.158Z</time></trkpt><trkpt lat="46.1235652" lon="13.5838982"><ele>516.8</ele><time>2026-05-02T08:24:51.158Z</time></trkpt><trkpt lat="46.1234484" lon="13.5838843"><ele>520.0</ele><time>2026-05-02T08:24:53.158Z</time></trkpt><trkpt lat="46.1234316" lon="13.58406"><ele>520.0</ele><time>2026-05-02T08:24:55.158Z</time></trkpt><trkpt lat="46.123481" lon="13.5841643"><ele>520.0</ele><time>2026-05-02T08:24:56.159Z</time></trkpt><trkpt lat="46.1235619" lon="13.5843002"><ele>520.0</ele><time>2026-05-02T08:24:57.158Z</time></trkpt><trkpt lat="46.1236579" lon="13.5844817"><ele>520.0</ele><time>2026-05-02T08:24:58.158Z</time></trkpt><trkpt lat="46.123747" lon="13.5846789"><ele>523.6666666666667</ele><time>2026-05-02T08:24:59.158Z</time></trkpt><trkpt lat="46.1238036" lon="13.5848745"><ele>527.3333333333334</ele><time>2026-05-02T08:25:00.159Z</time></trkpt><trkpt lat="46.1238496" lon="13.5850929"><ele>531.0</ele><time>2026-05-02T08:25:01.158Z</time></trkpt><trkpt lat="46.1238638" lon="13.5853065"><ele>531.2</ele><time>2026-05-02T08:25:02.159Z</time></trkpt><trkpt lat="46.1238667" lon="13.5854887"><ele>531.4000000000001</ele><time>2026-05-02T08:25:03.159Z</time></trkpt><trkpt lat="46.1238968" lon="13.5856116"><ele>531.6</ele><time>2026-05-02T08:25:04.159Z</time></trkpt><trkpt lat="46.1239305" lon="13.5857214"><ele>531.8000000000001</ele><time>2026-05-02T08:25:05.158Z</time></trkpt><trkpt lat="46.1238626" lon="13.5858666"><ele>532.0</ele><time>2026-05-02T08:25:07.158Z</time></trkpt><trkpt lat="46.1237912" lon="13.5858659"><ele>532.0</ele><time>2026-05-02T08:25:08.159Z</time></trkpt><trkpt lat="46.1237386" lon="13.5857805"><ele>532.0</ele><time>2026-05-02T08:25:09.158Z</time></trkpt><trkpt lat="46.1237135" lon="13.5856506"><ele>532.0</ele><time>2026-05-02T08:25:10.158Z</time></trkpt><trkpt lat="46.1236748" lon="13.5854865"><ele>532.0</ele><time>2026-05-02T08:25:11.158Z</time></trkpt><trkpt lat="46.1236072" lon="13.5853353"><ele>532.0</ele><time>2026-05-02T08:25:12.159Z</time></trkpt><trkpt lat="46.1234984" lon="13.5851737"><ele>531.6666666666667</ele><time>2026-05-02T08:25:13.158Z</time></trkpt><trkpt lat="46.1233604" lon="13.5850015"><ele>531.3333333333334</ele><time>2026-05-02T08:25:14.159Z</time></trkpt><trkpt lat="46.1231887" lon="13.5848422"><ele>531.0</ele><time>2026-05-02T08:25:15.159Z</time></trkpt><trkpt lat="46.123013" lon="13.5847084"><ele>534.0</ele><time>2026-05-02T08:25:16.159Z</time></trkpt><trkpt lat="46.1228289" lon="13.5845871"><ele>537.0</ele><time>2026-05-02T08:25:17.159Z</time></trkpt><trkpt lat="46.1226664" lon="13.5844802"><ele>540.0</ele><time>2026-05-02T08:25:18.158Z</time></trkpt><trkpt lat="46.1225284" lon="13.5843905"><ele>545.6666666666666</ele><time>2026-05-02T08:25:19.159Z</time></trkpt><trkpt lat="46.1223916" lon="13.5843318"><ele>551.3333333333333</ele><time>2026-05-02T08:25:20.159Z</time></trkpt><trkpt lat="46.1222377" lon="13.5843098"><ele>557.0</ele><time>2026-05-02T08:25:21.159Z</time></trkpt><trkpt lat="46.1220693" lon="13.5842788"><ele>557.0</ele><time>2026-05-02T08:25:22.159Z</time></trkpt><trkpt lat="46.1219253" lon="13.5842154"><ele>557.0</ele><time>2026-05-02T08:25:23.159Z</time></trkpt><trkpt lat="46.1218125" lon="13.5841183"><ele>557.0</ele><time>2026-05-02T08:25:24.159Z</time></trkpt><trkpt lat="46.1217306" lon="13.5839822"><ele>557.0</ele><time>2026-05-02T08:25:25.158Z</time></trkpt><trkpt lat="46.1216684" lon="13.583789"><ele>557.0</ele><time>2026-05-02T08:25:26.158Z</time></trkpt><trkpt lat="46.1216025" lon="13.5835572"><ele>557.0</ele><time>2026-05-02T08:25:27.159Z</time></trkpt><trkpt lat="46.1215413" lon="13.5833078"><ele>557.0</ele><time>2026-05-02T08:25:28.159Z</time></trkpt><trkpt lat="46.1214927" lon="13.5830574"><ele>562.3333333333333</ele><time>2026-05-02T08:25:29.158Z</time></trkpt><trkpt lat="46.1214473" lon="13.5827959"><ele>567.6666666666666</ele><time>2026-05-02T08:25:30.159Z</time></trkpt><trkpt lat="46.1213858" lon="13.5825545"><ele>573.0</ele><time>2026-05-02T08:25:31.158Z</time></trkpt><trkpt lat="46.1213304" lon="13.5823388"><ele>573.0</ele><time>2026-05-02T08:25:32.158Z</time></trkpt><trkpt lat="46.1212794" lon="13.5821978"><ele>573.0</ele><time>2026-05-02T08:25:33.158Z</time></trkpt><trkpt lat="46.1212343" lon="13.5821037"><ele>573.0</ele><time>2026-05-02T08:25:34.158Z</time></trkpt><trkpt lat="46.1211703" lon="13.5820174"><ele>573.0</ele><time>2026-05-02T08:25:36.158Z</time></trkpt><trkpt lat="46.1210768" lon="13.5820584"><ele>573.0</ele><time>2026-05-02T08:25:38.159Z</time></trkpt><trkpt lat="46.1210118" lon="13.582143"><ele>573.0</ele><time>2026-05-02T08:25:39.158Z</time></trkpt><trkpt lat="46.1209618" lon="13.5822815"><ele>573.0</ele><time>2026-05-02T08:25:40.158Z</time></trkpt><trkpt lat="46.1209327" lon="13.5824418"><ele>573.0</ele><time>2026-05-02T08:25:41.158Z</time></trkpt><trkpt lat="46.120921" lon="13.5826234"><ele>573.0</ele><time>2026-05-02T08:25:42.158Z</time></trkpt><trkpt lat="46.1209128" lon="13.5827764"><ele>574.6</ele><time>2026-05-02T08:25:43.158Z</time></trkpt><trkpt lat="46.120904" lon="13.5829453"><ele>576.1999999999999</ele><time>2026-05-02T08:25:44.158Z</time></trkpt><trkpt lat="46.1209004" lon="13.5831157"><ele>577.8</ele><time>2026-05-02T08:25:45.158Z</time></trkpt><trkpt lat="46.1208844" lon="13.5832649"><ele>579.4</ele><time>2026-05-02T08:25:46.158Z</time></trkpt><trkpt lat="46.1208575" lon="13.5834047"><ele>581.0</ele><time>2026-05-02T08:25:47.158Z</time></trkpt><trkpt lat="46.1208352" lon="13.5835358"><ele>581.0</ele><time>2026-05-02T08:25:48.158Z</time></trkpt><trkpt lat="46.1208068" lon="13.5836408"><ele>581.0</ele><time>2026-05-02T08:25:49.158Z</time></trkpt><trkpt lat="46.1207655" lon="13.5837339"><ele>581.0</ele><time>2026-05-02T08:25:50.158Z</time></trkpt><trkpt lat="46.120713" lon="13.583789"><ele>581.0</ele><time>2026-05-02T08:25:51.158Z</time></trkpt><trkpt lat="46.1206475" lon="13.5838228"><ele>581.0</ele><time>2026-05-02T08:25:52.158Z</time></trkpt><trkpt lat="46.1205773" lon="13.5838394"><ele>581.0</ele><time>2026-05-02T08:25:53.159Z</time></trkpt><trkpt lat="46.1204954" lon="13.5838642"><ele>581.0</ele><time>2026-05-02T08:25:54.159Z</time></trkpt><trkpt lat="46.1204213" lon="13.5838897"><ele>583.6</ele><time>2026-05-02T08:25:55.159Z</time></trkpt><trkpt lat="46.1203466" lon="13.5839165"><ele>586.2</ele><time>2026-05-02T08:25:56.158Z</time></trkpt><trkpt lat="46.1202414" lon="13.5839802"><ele>588.8</ele><time>2026-05-02T08:25:58.158Z</time></trkpt><trkpt lat="46.1201741" lon="13.584132"><ele>591.4</ele><time>2026-05-02T08:26:00.158Z</time></trkpt><trkpt lat="46.120182" lon="13.5842569"><ele>594.0</ele><time>2026-05-02T08:26:01.158Z</time></trkpt><trkpt lat="46.1201868" lon="13.5843993"><ele>595.2</ele><time>2026-05-02T08:26:02.159Z</time></trkpt><trkpt lat="46.1201726" lon="13.5845399"><ele>596.4</ele><time>2026-05-02T08:26:03.158Z</time></trkpt><trkpt lat="46.1201491" lon="13.5846742"><ele>597.6</ele><time>2026-05-02T08:26:04.159Z</time></trkpt><trkpt lat="46.1201278" lon="13.584776"><ele>598.8</ele><time>2026-05-02T08:26:05.159Z</time></trkpt><trkpt lat="46.1200756" lon="13.5849116"><ele>600.0</ele><time>2026-05-02T08:26:07.158Z</time></trkpt><trkpt lat="46.1199685" lon="13.5849188"><ele>603.6</ele><time>2026-05-02T08:26:09.158Z</time></trkpt><trkpt lat="46.1198956" lon="13.584784"><ele>607.2</ele><time>2026-05-02T08:26:11.158Z</time></trkpt><trkpt lat="46.1198596" lon="13.5846778"><ele>610.8</ele><time>2026-05-02T08:26:12.158Z</time></trkpt><trkpt lat="46.1197985" lon="13.5846014"><ele>614.4</ele><time>2026-05-02T08:26:13.158Z</time></trkpt><trkpt lat="46.1197167" lon="13.5845708"><ele>618.0</ele><time>2026-05-02T08:26:14.159Z</time></trkpt><trkpt lat="46.1196039" lon="13.584603"><ele>618.0</ele><time>2026-05-02T08:26:15.159Z</time></trkpt><trkpt lat="46.1194843" lon="13.5846513"><ele>618.0</ele><time>2026-05-02T08:26:16.159Z</time></trkpt><trkpt lat="46.1193561" lon="13.5846916"><ele>618.0</ele><time>2026-05-02T08:26:17.158Z</time></trkpt><trkpt lat="46.1192283" lon="13.5847271"><ele>618.0</ele><time>2026-05-02T08:26:18.158Z</time></trkpt><trkpt lat="46.1190969" lon="13.5847362"><ele>618.0</ele><time>2026-05-02T08:26:19.158Z</time></trkpt><trkpt lat="46.1189738" lon="13.5847019"><ele>618.0</ele><time>2026-05-02T08:26:20.158Z</time></trkpt><trkpt lat="46.1188758" lon="13.5846025"><ele>618.0</ele><time>2026-05-02T08:26:21.158Z</time></trkpt><trkpt lat="46.1187895" lon="13.5844931"><ele>618.0</ele><time>2026-05-02T08:26:22.159Z</time></trkpt><trkpt lat="46.1187032" lon="13.5844397"><ele>618.0</ele><time>2026-05-02T08:26:23.158Z</time></trkpt><trkpt lat="46.1186014" lon="13.5844685"><ele>618.0</ele><time>2026-05-02T08:26:24.158Z</time></trkpt><trkpt lat="46.1185178" lon="13.5845708"><ele>618.0</ele><time>2026-05-02T08:26:25.159Z</time></trkpt><trkpt lat="46.1184536" lon="13.58472"><ele>618.0</ele><time>2026-05-02T08:26:26.158Z</time></trkpt><trkpt lat="46.118411" lon="13.5849091"><ele>618.0</ele><time>2026-05-02T08:26:27.158Z</time></trkpt><trkpt lat="46.1183636" lon="13.5851121"><ele>618.0</ele><time>2026-05-02T08:26:28.158Z</time></trkpt><trkpt lat="46.1183035" lon="13.5852936"><ele>618.0</ele><time>2026-05-02T08:26:29.158Z</time></trkpt><trkpt lat="46.1181899" lon="13.585412"><ele>618.0</ele><time>2026-05-02T08:26:30.158Z</time></trkpt><trkpt lat="46.1180564" lon="13.5855089"><ele>618.25</ele><time>2026-05-02T08:26:31.158Z</time></trkpt><trkpt lat="46.1179128" lon="13.5855842"><ele>618.5</ele><time>2026-05-02T08:26:32.158Z</time></trkpt><trkpt lat="46.1177793" lon="13.5856817"><ele>618.75</ele><time>2026-05-02T08:26:33.158Z</time></trkpt><trkpt lat="46.1176682" lon="13.5858188"><ele>619.0</ele><time>2026-05-02T08:26:34.158Z</time></trkpt><trkpt lat="46.1175575" lon="13.5860046"><ele>621.3333333333334</ele><time>2026-05-02T08:26:35.158Z</time></trkpt><trkpt lat="46.1174646" lon="13.5862"><ele>623.6666666666666</ele><time>2026-05-02T08:26:36.159Z</time></trkpt><trkpt lat="46.1173658" lon="13.5863732"><ele>626.0</ele><time>2026-05-02T08:26:37.158Z</time></trkpt><trkpt lat="46.1172392" lon="13.5865223"><ele>626.0</ele><time>2026-05-02T08:26:38.158Z</time></trkpt><trkpt lat="46.1171043" lon="13.5866752"><ele>626.0</ele><time>2026-05-02T08:26:39.158Z</time></trkpt><trkpt lat="46.1169517" lon="13.5868073"><ele>626.0</ele><time>2026-05-02T08:26:40.159Z</time></trkpt><trkpt lat="46.116805" lon="13.5869115"><ele>626.0</ele><time>2026-05-02T08:26:41.158Z</time></trkpt><trkpt lat="46.1166665" lon="13.5869993"><ele>626.0</ele><time>2026-05-02T08:26:42.158Z</time></trkpt><trkpt lat="46.116528" lon="13.5870339"><ele>626.0</ele><time>2026-05-02T08:26:43.158Z</time></trkpt><trkpt lat="46.1163891" lon="13.5870155"><ele>626.0</ele><time>2026-05-02T08:26:44.158Z</time></trkpt><trkpt lat="46.1162404" lon="13.5869302"><ele>627.6666666666666</ele><time>2026-05-02T08:26:45.158Z</time></trkpt><trkpt lat="46.1160857" lon="13.5868723"><ele>629.3333333333334</ele><time>2026-05-02T08:26:46.159Z</time></trkpt><trkpt lat="46.1159068" lon="13.5868209"><ele>631.0</ele><time>2026-05-02T08:26:47.158Z</time></trkpt><trkpt lat="46.1157173" lon="13.5867913"><ele>634.6666666666667</ele><time>2026-05-02T08:26:48.158Z</time></trkpt><trkpt lat="46.1155324" lon="13.5867625"><ele>638.3333333333334</ele><time>2026-05-02T08:26:49.159Z</time></trkpt><trkpt lat="46.1153627" lon="13.5867433"><ele>642.0</ele><time>2026-05-02T08:26:50.159Z</time></trkpt><trkpt lat="46.1152119" lon="13.58669"><ele>642.0</ele><time>2026-05-02T08:26:51.159Z</time></trkpt><trkpt lat="46.1150797" lon="13.5866479"><ele>642.0</ele><time>2026-05-02T08:26:52.158Z</time></trkpt><trkpt lat="46.114955" lon="13.5866344"><ele>642.0</ele><time>2026-05-02T08:26:53.158Z</time></trkpt><trkpt lat="46.1148304" lon="13.586669"><ele>642.0</ele><time>2026-05-02T08:26:54.159Z</time></trkpt><trkpt lat="46.1147282" lon="13.5867448"><ele>643.3333333333334</ele><time>2026-05-02T08:26:55.158Z</time></trkpt><trkpt lat="46.1146287" lon="13.586807"><ele>644.6666666666666</ele><time>2026-05-02T08:26:56.158Z</time></trkpt><trkpt lat="46.1145385" lon="13.5867879"><ele>646.0</ele><time>2026-05-02T08:26:57.158Z</time></trkpt><trkpt lat="46.1144716" lon="13.5867407"><ele>647.3333333333333</ele><time>2026-05-02T08:26:58.158Z</time></trkpt><trkpt lat="46.1144568" lon="13.5866429"><ele>648.6666666666666</ele><time>2026-05-02T08:26:59.158Z</time></trkpt><trkpt lat="46.1144832" lon="13.586521"><ele>650.0</ele><time>2026-05-02T08:27:00.158Z</time></trkpt><trkpt lat="46.1145096" lon="13.5863635"><ele>650.0</ele><time>2026-05-02T08:27:01.158Z</time></trkpt><trkpt lat="46.1145026" lon="13.5861954"><ele>650.0</ele><time>2026-05-02T08:27:02.158Z</time></trkpt><trkpt lat="46.1144599" lon="13.5860461"><ele>650.0</ele><time>2026-05-02T08:27:03.159Z</time></trkpt><trkpt lat="46.1143798" lon="13.5859707"><ele>650.0</ele><time>2026-05-02T08:27:04.158Z</time></trkpt><trkpt lat="46.1142948" lon="13.5859274"><ele>650.0</ele><time>2026-05-02T08:27:05.159Z</time></trkpt><trkpt lat="46.1141932" lon="13.5859207"><ele>646.6666666666666</ele><time>2026-05-02T08:27:06.158Z</time></trkpt><trkpt lat="46.114053" lon="13.5859292"><ele>643.3333333333334</ele><time>2026-05-02T08:27:07.158Z</time></trkpt><trkpt lat="46.1138924" lon="13.5859249"><ele>640.0</ele><time>2026-05-02T08:27:08.158Z</time></trkpt><trkpt lat="46.1137405" lon="13.5859137"><ele>640.0</ele><time>2026-05-02T08:27:09.159Z</time></trkpt><trkpt lat="46.1136039" lon="13.5859184"><ele>640.0</ele><time>2026-05-02T08:27:10.159Z</time></trkpt><trkpt lat="46.1134592" lon="13.5859718"><ele>640.0</ele><time>2026-05-02T08:27:11.158Z</time></trkpt><trkpt lat="46.113301" lon="13.5860804"><ele>643.5</ele><time>2026-05-02T08:27:12.158Z</time></trkpt><trkpt lat="46.1131621" lon="13.5861946"><ele>647.0</ele><time>2026-05-02T08:27:13.159Z</time></trkpt><trkpt lat="46.1130336" lon="13.5863026"><ele>650.5</ele><time>2026-05-02T08:27:14.159Z</time></trkpt><trkpt lat="46.1129268" lon="13.5864128"><ele>654.0</ele><time>2026-05-02T08:27:15.158Z</time></trkpt><trkpt lat="46.1128161" lon="13.5864895"><ele>654.0</ele><time>2026-05-02T08:27:16.158Z</time></trkpt><trkpt lat="46.1126831" lon="13.5865054"><ele>654.0</ele><time>2026-05-02T08:27:17.158Z</time></trkpt><trkpt lat="46.1125211" lon="13.5864936"><ele>654.0</ele><time>2026-05-02T08:27:18.159Z</time></trkpt><trkpt lat="46.112349" lon="13.5864844"><ele>656.3333333333334</ele><time>2026-05-02T08:27:19.159Z</time></trkpt><trkpt lat="46.1121826" lon="13.5864631"><ele>658.6666666666667</ele><time>2026-05-02T08:27:20.159Z</time></trkpt><trkpt lat="46.1120171" lon="13.5864337"><ele>661.0</ele><time>2026-05-02T08:27:21.159Z</time></trkpt><trkpt lat="46.1118649" lon="13.5863733"><ele>661.0</ele><time>2026-05-02T08:27:22.159Z</time></trkpt><trkpt lat="46.1117182" lon="13.5862498"><ele>661.0</ele><time>2026-05-02T08:27:23.158Z</time></trkpt><trkpt lat="46.1115934" lon="13.5860782"><ele>661.0</ele><time>2026-05-02T08:27:24.158Z</time></trkpt><trkpt lat="46.1114671" lon="13.5859211"><ele>659.75</ele><time>2026-05-02T08:27:25.158Z</time></trkpt><trkpt lat="46.111343" lon="13.5858122"><ele>658.5</ele><time>2026-05-02T08:27:26.158Z</time></trkpt><trkpt lat="46.1112179" lon="13.5857177"><ele>657.25</ele><time>2026-05-02T08:27:27.159Z</time></trkpt><trkpt lat="46.1111028" lon="13.5855913"><ele>656.0</ele><time>2026-05-02T08:27:28.158Z</time></trkpt><trkpt lat="46.1109965" lon="13.5854264"><ele>654.6666666666666</ele><time>2026-05-02T08:27:29.159Z</time></trkpt><trkpt lat="46.1108993" lon="13.5851883"><ele>653.3333333333334</ele><time>2026-05-02T08:27:30.158Z</time></trkpt><trkpt lat="46.1108214" lon="13.5849625"><ele>652.0</ele><time>2026-05-02T08:27:31.158Z</time></trkpt><trkpt lat="46.1107521" lon="13.5847373"><ele>652.75</ele><time>2026-05-02T08:27:32.159Z</time></trkpt><trkpt lat="46.1107147" lon="13.5845209"><ele>653.5</ele><time>2026-05-02T08:27:33.158Z</time></trkpt><trkpt lat="46.1107169" lon="13.5843299"><ele>654.25</ele><time>2026-05-02T08:27:34.158Z</time></trkpt><trkpt lat="46.1107381" lon="13.584154"><ele>655.0</ele><time>2026-05-02T08:27:35.158Z</time></trkpt><trkpt lat="46.1107929" lon="13.5839528"><ele>655.0</ele><time>2026-05-02T08:27:36.158Z</time></trkpt><trkpt lat="46.1108645" lon="13.5837787"><ele>655.0</ele><time>2026-05-02T08:27:37.158Z</time></trkpt><trkpt lat="46.1109167" lon="13.583602"><ele>655.0</ele><time>2026-05-02T08:27:38.159Z</time></trkpt><trkpt lat="46.1109328" lon="13.5834526"><ele>655.0</ele><time>2026-05-02T08:27:39.158Z</time></trkpt><trkpt lat="46.1109163" lon="13.5833067"><ele>655.8</ele><time>2026-05-02T08:27:40.158Z</time></trkpt><trkpt lat="46.1108846" lon="13.5831768"><ele>656.6</ele><time>2026-05-02T08:27:41.158Z</time></trkpt><trkpt lat="46.1108361" lon="13.5830879"><ele>657.4000000000001</ele><time>2026-05-02T08:27:42.159Z</time></trkpt><trkpt lat="46.1107651" lon="13.5830183"><ele>658.2</ele><time>2026-05-02T08:27:43.158Z</time></trkpt><trkpt lat="46.1106637" lon="13.5829639"><ele>659.0</ele><time>2026-05-02T08:27:44.159Z</time></trkpt><trkpt lat="46.1105341" lon="13.5829224"><ele>656.4000000000001</ele><time>2026-05-02T08:27:45.159Z</time></trkpt><trkpt lat="46.1104013" lon="13.5828801"><ele>653.8</ele><time>2026-05-02T08:27:46.159Z</time></trkpt><trkpt lat="46.110293" lon="13.5828122"><ele>651.2</ele><time>2026-05-02T08:27:47.159Z</time></trkpt><trkpt lat="46.1102038" lon="13.5827371"><ele>648.5999999999999</ele><time>2026-05-02T08:27:48.158Z</time></trkpt><trkpt lat="46.1101299" lon="13.5826605"><ele>646.0</ele><time>2026-05-02T08:27:49.159Z</time></trkpt><trkpt lat="46.1100688" lon="13.5826069"><ele>646.0</ele><time>2026-05-02T08:27:50.158Z</time></trkpt><trkpt lat="46.1100012" lon="13.5825826"><ele>646.0</ele><time>2026-05-02T08:27:52.158Z</time></trkpt><trkpt lat="46.1099507" lon="13.5826748"><ele>646.0</ele><time>2026-05-02T08:27:56.158Z</time></trkpt><trkpt lat="46.1099295" lon="13.5827833"><ele>646.0</ele><time>2026-05-02T08:28:02.158Z</time></trkpt><trkpt lat="46.1099315" lon="13.5829528"><ele>646.0</ele><time>2026-05-02T08:28:04.158Z</time></trkpt><trkpt lat="46.1099392" lon="13.5830691"><ele>646.0</ele><time>2026-05-02T08:28:05.157Z</time></trkpt><trkpt lat="46.1099435" lon="13.5831932"><ele>645.6666666666667</ele><time>2026-05-02T08:28:06.157Z</time></trkpt><trkpt lat="46.1099458" lon="13.583331"><ele>645.3333333333334</ele><time>2026-05-02T08:28:07.158Z</time></trkpt><trkpt lat="46.1099565" lon="13.5834514"><ele>645.0</ele><time>2026-05-02T08:28:08.157Z</time></trkpt><trkpt lat="46.1099645" lon="13.5835613"><ele>644.6666666666666</ele><time>2026-05-02T08:28:09.157Z</time></trkpt><trkpt lat="46.1099682" lon="13.5836555"><ele>644.3333333333333</ele><time>2026-05-02T08:28:10.158Z</time></trkpt><trkpt lat="46.1099752" lon="13.5837549"><ele>644.0</ele><time>2026-05-02T08:28:11.157Z</time></trkpt><trkpt lat="46.1099898" lon="13.5838657"><ele>643.0</ele><time>2026-05-02T08:28:12.158Z</time></trkpt><trkpt lat="46.1100063" lon="13.5839733"><ele>642.0</ele><time>2026-05-02T08:28:13.157Z</time></trkpt><trkpt lat="46.110033" lon="13.584069"><ele>641.0</ele><time>2026-05-02T08:28:14.157Z</time></trkpt><trkpt lat="46.1100571" lon="13.5841677"><ele>640.0</ele><time>2026-05-02T08:28:15.157Z</time></trkpt><trkpt lat="46.1100728" lon="13.5842624"><ele>639.0</ele><time>2026-05-02T08:28:16.158Z</time></trkpt><trkpt lat="46.1100855" lon="13.5843667"><ele>638.0</ele><time>2026-05-02T08:28:17.157Z</time></trkpt><trkpt lat="46.1100764" lon="13.5844808"><ele>637.0</ele><time>2026-05-02T08:28:18.157Z</time></trkpt><trkpt lat="46.1100669" lon="13.5846003"><ele>635.8333333333334</ele><time>2026-05-02T08:28:19.158Z</time></trkpt><trkpt lat="46.1100524" lon="13.5847011"><ele>634.6666666666667</ele><time>2026-05-02T08:28:20.157Z</time></trkpt><trkpt lat="46.1100438" lon="13.584799"><ele>633.5</ele><time>2026-05-02T08:28:21.157Z</time></trkpt><trkpt lat="46.1100306" lon="13.584981"><ele>632.3333333333334</ele><time>2026-05-02T08:28:23.157Z</time></trkpt><trkpt lat="46.1100283" lon="13.5850946"><ele>631.1666666666666</ele><time>2026-05-02T08:28:24.158Z</time></trkpt><trkpt lat="46.1100108" lon="13.5852146"><ele>630.0</ele><time>2026-05-02T08:28:25.157Z</time></trkpt><trkpt lat="46.1099987" lon="13.5853377"><ele>629.7142857142857</ele><time>2026-05-02T08:28:26.157Z</time></trkpt><trkpt lat="46.1099821" lon="13.5854571"><ele>629.4285714285714</ele><time>2026-05-02T08:28:27.158Z</time></trkpt><trkpt lat="46.109955" lon="13.5855546"><ele>629.1428571428571</ele><time>2026-05-02T08:28:28.158Z</time></trkpt><trkpt lat="46.1099242" lon="13.5856359"><ele>628.8571428571429</ele><time>2026-05-02T08:28:29.157Z</time></trkpt><trkpt lat="46.1098947" lon="13.5857249"><ele>628.5714285714286</ele><time>2026-05-02T08:28:30.158Z</time></trkpt><trkpt lat="46.1098615" lon="13.5858025"><ele>628.2857142857142</ele><time>2026-05-02T08:28:31.158Z</time></trkpt><trkpt lat="46.1098387" lon="13.5858887"><ele>628.0</ele><time>2026-05-02T08:28:32.158Z</time></trkpt><trkpt lat="46.1098179" lon="13.5859827"><ele>622.5714285714286</ele><time>2026-05-02T08:28:33.157Z</time></trkpt><trkpt lat="46.109797" lon="13.5860902"><ele>617.1428571428571</ele><time>2026-05-02T08:28:34.157Z</time></trkpt><trkpt lat="46.1097628" lon="13.5861852"><ele>611.7142857142858</ele><time>2026-05-02T08:28:35.158Z</time></trkpt><trkpt lat="46.1097424" lon="13.5862802"><ele>606.2857142857142</ele><time>2026-05-02T08:28:36.158Z</time></trkpt><trkpt lat="46.1097184" lon="13.5863648"><ele>600.8571428571429</ele><time>2026-05-02T08:28:37.157Z</time></trkpt><trkpt lat="46.109692" lon="13.5864556"><ele>595.4285714285714</ele><time>2026-05-02T08:28:38.158Z</time></trkpt><trkpt lat="46.1096749" lon="13.5865562"><ele>590.0</ele><time>2026-05-02T08:28:39.158Z</time></trkpt><trkpt lat="46.1096587" lon="13.5866466"><ele>590.0000000000001</ele><time>2026-05-02T08:28:40.157Z</time></trkpt><trkpt lat="46.109644" lon="13.5867423"><ele>590.0</ele><time>2026-05-02T08:28:41.157Z</time></trkpt><trkpt lat="46.1096308" lon="13.5868417"><ele>590.0</ele><time>2026-05-02T08:28:42.157Z</time></trkpt><trkpt lat="46.1096113" lon="13.5869512"><ele>590.0</ele><time>2026-05-02T08:28:43.157Z</time></trkpt><trkpt lat="46.1095811" lon="13.5870748"><ele>590.0</ele><time>2026-05-02T08:28:44.157Z</time></trkpt><trkpt lat="46.1095589" lon="13.5871758"><ele>590.0000000000001</ele><time>2026-05-02T08:28:45.157Z</time></trkpt><trkpt lat="46.1095451" lon="13.5872671"><ele>590.0</ele><time>2026-05-02T08:28:46.158Z</time></trkpt><trkpt lat="46.109519" lon="13.587426"><ele>590.6666666666666</ele><time>2026-05-02T08:28:48.158Z</time></trkpt><trkpt lat="46.1095265" lon="13.5876142"><ele>591.3333333333333</ele><time>2026-05-02T08:28:50.157Z</time></trkpt><trkpt lat="46.1095388" lon="13.5877362"><ele>592.0</ele><time>2026-05-02T08:28:51.157Z</time></trkpt><trkpt lat="46.1095564" lon="13.5878477"><ele>592.6666666666666</ele><time>2026-05-02T08:28:52.158Z</time></trkpt><trkpt lat="46.1095849" lon="13.5879517"><ele>593.3333333333334</ele><time>2026-05-02T08:28:53.157Z</time></trkpt><trkpt lat="46.1096121" lon="13.5880365"><ele>594.0</ele><time>2026-05-02T08:28:54.158Z</time></trkpt><trkpt lat="46.1096793" lon="13.5881512"><ele>594.0</ele><time>2026-05-02T08:28:56.158Z</time></trkpt><trkpt lat="46.1097016" lon="13.5882512"><ele>594.0</ele><time>2026-05-02T08:28:59.158Z</time></trkpt><trkpt lat="46.1096262" lon="13.5882476"><ele>594.0</ele><time>2026-05-02T08:29:01.157Z</time></trkpt><trkpt lat="46.1095577" lon="13.5881979"><ele>594.0</ele><time>2026-05-02T08:29:02.157Z</time></trkpt><trkpt lat="46.1095002" lon="13.5881457"><ele>594.0</ele><time>2026-05-02T08:29:03.157Z</time></trkpt><trkpt lat="46.1094176" lon="13.5880496"><ele>594.0</ele><time>2026-05-02T08:29:05.157Z</time></trkpt><trkpt lat="46.1093807" lon="13.5878628"><ele>594.0</ele><time>2026-05-02T08:29:07.158Z</time></trkpt><trkpt lat="46.1093608" lon="13.5877538"><ele>594.0</ele><time>2026-05-02T08:29:08.158Z</time></trkpt><trkpt lat="46.1093495" lon="13.5876301"><ele>594.0</ele><time>2026-05-02T08:29:09.158Z</time></trkpt><trkpt lat="46.1093392" lon="13.5874987"><ele>594.0</ele><time>2026-05-02T08:29:10.157Z</time></trkpt><trkpt lat="46.1093323" lon="13.5873618"><ele>594.0</ele><time>2026-05-02T08:29:11.158Z</time></trkpt><trkpt lat="46.1093184" lon="13.5872308"><ele>594.0</ele><time>2026-05-02T08:29:12.157Z</time></trkpt><trkpt lat="46.1093098" lon="13.5871131"><ele>593.3333333333334</ele><time>2026-05-02T08:29:13.157Z</time></trkpt><trkpt lat="46.1092978" lon="13.5870088"><ele>592.6666666666666</ele><time>2026-05-02T08:29:14.157Z</time></trkpt><trkpt lat="46.1092885" lon="13.5869027"><ele>592.0</ele><time>2026-05-02T08:29:15.157Z</time></trkpt><trkpt lat="46.1092743" lon="13.586793"><ele>591.3333333333333</ele><time>2026-05-02T08:29:16.158Z</time></trkpt><trkpt lat="46.1092657" lon="13.5866909"><ele>590.6666666666666</ele><time>2026-05-02T08:29:17.158Z</time></trkpt><trkpt lat="46.1092534" lon="13.5865371"><ele>590.0</ele><time>2026-05-02T08:29:19.157Z</time></trkpt><trkpt lat="46.1092497" lon="13.5864083"><ele>590.0</ele><time>2026-05-02T08:29:21.157Z</time></trkpt><trkpt lat="46.1092593" lon="13.5862186"><ele>590.0</ele><time>2026-05-02T08:29:23.157Z</time></trkpt><trkpt lat="46.1092681" lon="13.586104"><ele>590.0</ele><time>2026-05-02T08:29:24.157Z</time></trkpt><trkpt lat="46.1092713" lon="13.5860015"><ele>590.0</ele><time>2026-05-02T08:29:25.158Z</time></trkpt><trkpt lat="46.1092728" lon="13.5858984"><ele>590.0</ele><time>2026-05-02T08:29:26.157Z</time></trkpt><trkpt lat="46.1092753" lon="13.5857969"><ele>590.0</ele><time>2026-05-02T08:29:27.157Z</time></trkpt><trkpt lat="46.1092802" lon="13.5856973"><ele>589.3333333333333</ele><time>2026-05-02T08:29:28.157Z</time></trkpt><trkpt lat="46.1092749" lon="13.5855343"><ele>588.6666666666666</ele><time>2026-05-02T08:29:30.158Z</time></trkpt><trkpt lat="46.109249" lon="13.5854506"><ele>588.0</ele><time>2026-05-02T08:29:31.158Z</time></trkpt><trkpt lat="46.1092095" lon="13.5853519"><ele>587.3333333333334</ele><time>2026-05-02T08:29:32.157Z</time></trkpt><trkpt lat="46.1091713" lon="13.5852535"><ele>586.6666666666667</ele><time>2026-05-02T08:29:33.158Z</time></trkpt><trkpt lat="46.1091366" lon="13.5851609"><ele>586.0</ele><time>2026-05-02T08:29:34.157Z</time></trkpt><trkpt lat="46.1091056" lon="13.5850628"><ele>585.9999999999999</ele><time>2026-05-02T08:29:35.157Z</time></trkpt><trkpt lat="46.1090891" lon="13.5849552"><ele>586.0</ele><time>2026-05-02T08:29:36.157Z</time></trkpt><trkpt lat="46.1090731" lon="13.58485"><ele>586.0</ele><time>2026-05-02T08:29:37.158Z</time></trkpt><trkpt lat="46.1090541" lon="13.5847531"><ele>586.0</ele><time>2026-05-02T08:29:38.158Z</time></trkpt><trkpt lat="46.1090283" lon="13.5846658"><ele>586.0</ele><time>2026-05-02T08:29:39.157Z</time></trkpt><trkpt lat="46.1089964" lon="13.5845744"><ele>585.9999999999999</ele><time>2026-05-02T08:29:40.157Z</time></trkpt><trkpt lat="46.1089593" lon="13.584485"><ele>586.0</ele><time>2026-05-02T08:29:41.157Z</time></trkpt><trkpt lat="46.1089149" lon="13.5843924"><ele>581.5714285714286</ele><time>2026-05-02T08:29:42.158Z</time></trkpt><trkpt lat="46.1088713" lon="13.5843029"><ele>577.1428571428571</ele><time>2026-05-02T08:29:43.157Z</time></trkpt><trkpt lat="46.1088215" lon="13.5842311"><ele>572.7142857142858</ele><time>2026-05-02T08:29:44.158Z</time></trkpt><trkpt lat="46.108781" lon="13.58416"><ele>568.2857142857142</ele><time>2026-05-02T08:29:45.157Z</time></trkpt><trkpt lat="46.1087429" lon="13.5840824"><ele>563.8571428571429</ele><time>2026-05-02T08:29:46.158Z</time></trkpt><trkpt lat="46.108714" lon="13.5839974"><ele>559.4285714285714</ele><time>2026-05-02T08:29:47.158Z</time></trkpt><trkpt lat="46.1086737" lon="13.5839061"><ele>555.0</ele><time>2026-05-02T08:29:48.158Z</time></trkpt><trkpt lat="46.108625" lon="13.5838263"><ele>555.0</ele><time>2026-05-02T08:29:49.157Z</time></trkpt><trkpt lat="46.1085489" lon="13.5837088"><ele>555.0</ele><time>2026-05-02T08:29:51.157Z</time></trkpt><trkpt lat="46.1084772" lon="13.5836065"><ele>555.0</ele><time>2026-05-02T08:29:53.157Z</time></trkpt><trkpt lat="46.1084216" lon="13.5835611"><ele>555.0</ele><time>2026-05-02T08:29:55.157Z</time></trkpt><trkpt lat="46.1083351" lon="13.5835729"><ele>555.0</ele><time>2026-05-02T08:29:58.157Z</time></trkpt><trkpt lat="46.1082221" lon="13.5836212"><ele>553.6666666666666</ele><time>2026-05-02T08:30:00.157Z</time></trkpt><trkpt lat="46.1080994" lon="13.5836482"><ele>552.3333333333334</ele><time>2026-05-02T08:30:02.158Z</time></trkpt><trkpt lat="46.1080325" lon="13.583628"><ele>551.0</ele><time>2026-05-02T08:30:03.157Z</time></trkpt><trkpt lat="46.1079708" lon="13.5835966"><ele>549.6666666666667</ele><time>2026-05-02T08:30:04.158Z</time></trkpt><trkpt lat="46.1079094" lon="13.5835587"><ele>548.3333333333334</ele><time>2026-05-02T08:30:05.157Z</time></trkpt><trkpt lat="46.1078447" lon="13.5835223"><ele>547.0</ele><time>2026-05-02T08:30:06.157Z</time></trkpt><trkpt lat="46.1077785" lon="13.5834864"><ele>547.0</ele><time>2026-05-02T08:30:07.158Z</time></trkpt><trkpt lat="46.107713" lon="13.5834465"><ele>547.0</ele><time>2026-05-02T08:30:08.158Z</time></trkpt><trkpt lat="46.1076478" lon="13.5834063"><ele>547.0</ele><time>2026-05-02T08:30:09.157Z</time></trkpt><trkpt lat="46.1075458" lon="13.5833125"><ele>547.0</ele><time>2026-05-02T08:30:11.157Z</time></trkpt><trkpt lat="46.10748" lon="13.5831855"><ele>547.0</ele><time>2026-05-02T08:30:13.157Z</time></trkpt><trkpt lat="46.1074095" lon="13.5831402"><ele>547.0</ele><time>2026-05-02T08:30:16.157Z</time></trkpt><trkpt lat="46.1074213" lon="13.5832432"><ele>547.0</ele><time>2026-05-02T08:30:18.157Z</time></trkpt><trkpt lat="46.1074494" lon="13.5833264"><ele>547.0</ele><time>2026-05-02T08:30:19.157Z</time></trkpt><trkpt lat="46.107494" lon="13.5834281"><ele>547.0</ele><time>2026-05-02T08:30:20.157Z</time></trkpt><trkpt lat="46.1075508" lon="13.583542"><ele>547.0</ele><time>2026-05-02T08:30:21.157Z</time></trkpt><trkpt lat="46.1076155" lon="13.5836502"><ele>547.0</ele><time>2026-05-02T08:30:22.157Z</time></trkpt><trkpt lat="46.1076731" lon="13.5837502"><ele>546.0</ele><time>2026-05-02T08:30:23.157Z</time></trkpt><trkpt lat="46.1077212" lon="13.583844"><ele>545.0</ele><time>2026-05-02T08:30:24.158Z</time></trkpt><trkpt lat="46.1077636" lon="13.5839212"><ele>544.0</ele><time>2026-05-02T08:30:25.157Z</time></trkpt><trkpt lat="46.1078101" lon="13.5839901"><ele>543.0</ele><time>2026-05-02T08:30:26.158Z</time></trkpt><trkpt lat="46.1078563" lon="13.5840579"><ele>542.0</ele><time>2026-05-02T08:30:27.158Z</time></trkpt><trkpt lat="46.1079133" lon="13.5841215"><ele>541.0</ele><time>2026-05-02T08:30:28.157Z</time></trkpt><trkpt lat="46.1079729" lon="13.5841569"><ele>540.0</ele><time>2026-05-02T08:30:29.157Z</time></trkpt><trkpt lat="46.1080733" lon="13.5841651"><ele>540.0</ele><time>2026-05-02T08:30:31.157Z</time></trkpt><trkpt lat="46.108188" lon="13.5841224"><ele>540.0</ele><time>2026-05-02T08:30:33.158Z</time></trkpt><trkpt lat="46.10825" lon="13.5842317"><ele>540.0</ele><time>2026-05-02T08:30:36.157Z</time></trkpt><trkpt lat="46.1082373" lon="13.584394"><ele>540.0</ele><time>2026-05-02T08:30:38.157Z</time></trkpt><trkpt lat="46.108224" lon="13.5845058"><ele>540.0</ele><time>2026-05-02T08:30:39.157Z</time></trkpt><trkpt lat="46.1082367" lon="13.5846141"><ele>540.1666666666666</ele><time>2026-05-02T08:30:40.158Z</time></trkpt><trkpt lat="46.1082519" lon="13.5847127"><ele>540.3333333333334</ele><time>2026-05-02T08:30:41.157Z</time></trkpt><trkpt lat="46.1082549" lon="13.5848161"><ele>540.5</ele><time>2026-05-02T08:30:42.157Z</time></trkpt><trkpt lat="46.1082515" lon="13.5849183"><ele>540.6666666666667</ele><time>2026-05-02T08:30:43.158Z</time></trkpt><trkpt lat="46.1082578" lon="13.585009"><ele>540.8333333333334</ele><time>2026-05-02T08:30:44.157Z</time></trkpt><trkpt lat="46.1082578" lon="13.5851777"><ele>541.0</ele><time>2026-05-02T08:30:46.157Z</time></trkpt><trkpt lat="46.108254" lon="13.5853335"><ele>534.0</ele><time>2026-05-02T08:30:48.157Z</time></trkpt><trkpt lat="46.108241" lon="13.5855156"><ele>527.0</ele><time>2026-05-02T08:30:50.158Z</time></trkpt><trkpt lat="46.1082021" lon="13.5855875"><ele>520.0</ele><time>2026-05-02T08:30:51.158Z</time></trkpt><trkpt lat="46.1081517" lon="13.5856647"><ele>513.0</ele><time>2026-05-02T08:30:52.157Z</time></trkpt><trkpt lat="46.1080967" lon="13.5857296"><ele>506.00000000000006</ele><time>2026-05-02T08:30:53.157Z</time></trkpt><trkpt lat="46.1080407" lon="13.5857888"><ele>499.0</ele><time>2026-05-02T08:30:54.157Z</time></trkpt><trkpt lat="46.1079923" lon="13.5858645"><ele>499.00000000000006</ele><time>2026-05-02T08:30:55.157Z</time></trkpt><trkpt lat="46.1079539" lon="13.5859419"><ele>499.0</ele><time>2026-05-02T08:30:56.157Z</time></trkpt><trkpt lat="46.1079242" lon="13.5860225"><ele>499.0</ele><time>2026-05-02T08:30:57.157Z</time></trkpt><trkpt lat="46.1079037" lon="13.5861107"><ele>499.0</ele><time>2026-05-02T08:30:58.157Z</time></trkpt><trkpt lat="46.1078803" lon="13.5862896"><ele>499.00000000000006</ele><time>2026-05-02T08:31:00.158Z</time></trkpt><trkpt lat="46.10785" lon="13.5863877"><ele>499.0</ele><time>2026-05-02T08:31:01.157Z</time></trkpt><trkpt lat="46.1078023" lon="13.5864689"><ele>498.6666666666667</ele><time>2026-05-02T08:31:02.157Z</time></trkpt><trkpt lat="46.1077695" lon="13.5865565"><ele>498.33333333333337</ele><time>2026-05-02T08:31:03.157Z</time></trkpt><trkpt lat="46.1077352" lon="13.5866427"><ele>498.0</ele><time>2026-05-02T08:31:04.158Z</time></trkpt><trkpt lat="46.1077053" lon="13.5867273"><ele>497.66666666666663</ele><time>2026-05-02T08:31:05.158Z</time></trkpt><trkpt lat="46.1076643" lon="13.5868883"><ele>497.3333333333333</ele><time>2026-05-02T08:31:07.157Z</time></trkpt><trkpt lat="46.1076187" lon="13.5870524"><ele>497.0</ele><time>2026-05-02T08:31:09.157Z</time></trkpt><trkpt lat="46.1076045" lon="13.5871449"><ele>498.20000000000005</ele><time>2026-05-02T08:31:10.158Z</time></trkpt><trkpt lat="46.1075734" lon="13.5872772"><ele>499.40000000000003</ele><time>2026-05-02T08:31:12.157Z</time></trkpt><trkpt lat="46.1075045" lon="13.5873877"><ele>500.59999999999997</ele><time>2026-05-02T08:31:14.157Z</time></trkpt><trkpt lat="46.1074466" lon="13.5875222"><ele>501.79999999999995</ele><time>2026-05-02T08:31:16.157Z</time></trkpt><trkpt lat="46.1074123" lon="13.5876892"><ele>503.0</ele><time>2026-05-02T08:31:18.157Z</time></trkpt><trkpt lat="46.1073575" lon="13.5878661"><ele>494.42857142857144</ele><time>2026-05-02T08:31:20.157Z</time></trkpt><trkpt lat="46.1073246" lon="13.5879612"><ele>485.8571428571429</ele><time>2026-05-02T08:31:21.158Z</time></trkpt><trkpt lat="46.1073077" lon="13.5880554"><ele>477.28571428571433</ele><time>2026-05-02T08:31:22.158Z</time></trkpt><trkpt lat="46.1073054" lon="13.5881556"><ele>468.7142857142857</ele><time>2026-05-02T08:31:23.157Z</time></trkpt><trkpt lat="46.1073047" lon="13.5882774"><ele>460.14285714285717</ele><time>2026-05-02T08:31:24.157Z</time></trkpt><trkpt lat="46.1073101" lon="13.5883871"><ele>451.57142857142856</ele><time>2026-05-02T08:31:25.157Z</time></trkpt><trkpt lat="46.1073173" lon="13.588484"><ele>443.0</ele><time>2026-05-02T08:31:26.157Z</time></trkpt><trkpt lat="46.1073445" lon="13.5885691"><ele>443.0</ele><time>2026-05-02T08:31:27.158Z</time></trkpt><trkpt lat="46.1073837" lon="13.5886484"><ele>443.0</ele><time>2026-05-02T08:31:28.157Z</time></trkpt><trkpt lat="46.107417" lon="13.588734"><ele>443.0</ele><time>2026-05-02T08:31:29.157Z</time></trkpt><trkpt lat="46.1074495" lon="13.5888185"><ele>443.0</ele><time>2026-05-02T08:31:30.157Z</time></trkpt><trkpt lat="46.1074898" lon="13.5888961"><ele>443.0</ele><time>2026-05-02T08:31:31.157Z</time></trkpt><trkpt lat="46.1075373" lon="13.5889714"><ele>443.0</ele><time>2026-05-02T08:31:32.157Z</time></trkpt><trkpt lat="46.1075933" lon="13.5890439"><ele>443.0</ele><time>2026-05-02T08:31:33.158Z</time></trkpt><trkpt lat="46.1076606" lon="13.5891156"><ele>447.4</ele><time>2026-05-02T08:31:34.157Z</time></trkpt><trkpt lat="46.1077413" lon="13.5891657"><ele>451.79999999999995</ele><time>2026-05-02T08:31:35.158Z</time></trkpt><trkpt lat="46.1078236" lon="13.5892233"><ele>456.2</ele><time>2026-05-02T08:31:36.158Z</time></trkpt><trkpt lat="46.107907" lon="13.5892859"><ele>460.6</ele><time>2026-05-02T08:31:37.158Z</time></trkpt><trkpt lat="46.1079891" lon="13.5893567"><ele>465.0</ele><time>2026-05-02T08:31:38.157Z</time></trkpt><trkpt lat="46.1080693" lon="13.5894245"><ele>465.0</ele><time>2026-05-02T08:31:39.157Z</time></trkpt><trkpt lat="46.1081421" lon="13.5894774"><ele>465.0</ele><time>2026-05-02T08:31:40.157Z</time></trkpt><trkpt lat="46.1082129" lon="13.589534"><ele>465.0</ele><time>2026-05-02T08:31:41.158Z</time></trkpt><trkpt lat="46.108277" lon="13.5895742"><ele>465.0</ele><time>2026-05-02T08:31:42.157Z</time></trkpt><trkpt lat="46.1083383" lon="13.5896065"><ele>465.0</ele><time>2026-05-02T08:31:43.158Z</time></trkpt><trkpt lat="46.1084097" lon="13.5896467"><ele>465.0</ele><time>2026-05-02T08:31:44.157Z</time></trkpt><trkpt lat="46.1084851" lon="13.5896838"><ele>465.0</ele><time>2026-05-02T08:31:45.157Z</time></trkpt><trkpt lat="46.1085567" lon="13.5897238"><ele>465.0</ele><time>2026-05-02T08:31:46.158Z</time></trkpt><trkpt lat="46.1086214" lon="13.5897552"><ele>465.0</ele><time>2026-05-02T08:31:47.157Z</time></trkpt><trkpt lat="46.1086875" lon="13.5897823"><ele>465.0</ele><time>2026-05-02T08:31:48.157Z</time></trkpt><trkpt lat="46.1087599" lon="13.5898059"><ele>465.0</ele><time>2026-05-02T08:31:49.158Z</time></trkpt><trkpt lat="46.108837" lon="13.5898205"><ele>465.0</ele><time>2026-05-02T08:31:50.157Z</time></trkpt><trkpt lat="46.1089197" lon="13.5898375"><ele>465.0</ele><time>2026-05-02T08:31:51.157Z</time></trkpt><trkpt lat="46.1090045" lon="13.5898473"><ele>465.0</ele><time>2026-05-02T08:31:52.158Z</time></trkpt><trkpt lat="46.1090867" lon="13.5898562"><ele>465.0</ele><time>2026-05-02T08:31:53.158Z</time></trkpt><trkpt lat="46.1091664" lon="13.5898871"><ele>465.0</ele><time>2026-05-02T08:31:54.157Z</time></trkpt><trkpt lat="46.1092536" lon="13.5899192"><ele>465.0</ele><time>2026-05-02T08:31:55.157Z</time></trkpt><trkpt lat="46.1093393" lon="13.5899517"><ele>465.0</ele><time>2026-05-02T08:31:56.157Z</time></trkpt><trkpt lat="46.1094272" lon="13.5899726"><ele>465.0</ele><time>2026-05-02T08:31:57.158Z</time></trkpt><trkpt lat="46.1095104" lon="13.5899894"><ele>465.0</ele><time>2026-05-02T08:31:58.157Z</time></trkpt><trkpt lat="46.1095941" lon="13.5900021"><ele>465.0</ele><time>2026-05-02T08:31:59.157Z</time></trkpt><trkpt lat="46.109674" lon="13.5900185"><ele>465.0</ele><time>2026-05-02T08:32:00.157Z</time></trkpt><trkpt lat="46.1097431" lon="13.5900439"><ele>465.0</ele><time>2026-05-02T08:32:01.158Z</time></trkpt><trkpt lat="46.1098037" lon="13.590087"><ele>465.0</ele><time>2026-05-02T08:32:02.157Z</time></trkpt><trkpt lat="46.1098526" lon="13.5901461"><ele>465.0</ele><time>2026-05-02T08:32:03.158Z</time></trkpt><trkpt lat="46.1099018" lon="13.5902041"><ele>465.0</ele><time>2026-05-02T08:32:04.158Z</time></trkpt><trkpt lat="46.1099825" lon="13.5903321"><ele>465.0</ele><time>2026-05-02T08:32:06.157Z</time></trkpt><trkpt lat="46.1100164" lon="13.5904921"><ele>465.0</ele><time>2026-05-02T08:32:08.157Z</time></trkpt><trkpt lat="46.1099936" lon="13.5906693"><ele>465.0</ele><time>2026-05-02T08:32:10.157Z</time></trkpt><trkpt lat="46.1099993" lon="13.5907691"><ele>465.0</ele><time>2026-05-02T08:32:11.158Z</time></trkpt><trkpt lat="46.1099947" lon="13.5909023"><ele>465.0</ele><time>2026-05-02T08:32:12.158Z</time></trkpt><trkpt lat="46.1099847" lon="13.5910102"><ele>465.0</ele><time>2026-05-02T08:32:13.157Z</time></trkpt><trkpt lat="46.1099644" lon="13.5911199"><ele>465.0</ele><time>2026-05-02T08:32:14.157Z</time></trkpt><trkpt lat="46.1099548" lon="13.5912383"><ele>465.0</ele><time>2026-05-02T08:32:15.158Z</time></trkpt><trkpt lat="46.1099575" lon="13.5913516"><ele>465.0</ele><time>2026-05-02T08:32:16.158Z</time></trkpt><trkpt lat="46.1099592" lon="13.5914692"><ele>465.0</ele><time>2026-05-02T08:32:17.157Z</time></trkpt><trkpt lat="46.1099673" lon="13.5915795"><ele>465.0</ele><time>2026-05-02T08:32:18.158Z</time></trkpt><trkpt lat="46.1099804" lon="13.5916923"><ele>461.3333333333333</ele><time>2026-05-02T08:32:19.157Z</time></trkpt><trkpt lat="46.1099846" lon="13.591794"><ele>457.66666666666663</ele><time>2026-05-02T08:32:20.157Z</time></trkpt><trkpt lat="46.1099918" lon="13.591886"><ele>454.0</ele><time>2026-05-02T08:32:21.158Z</time></trkpt><trkpt lat="46.110038" lon="13.5920255"><ele>450.3333333333333</ele><time>2026-05-02T08:32:23.157Z</time></trkpt><trkpt lat="46.11013" lon="13.5921035"><ele>446.66666666666663</ele><time>2026-05-02T08:32:25.157Z</time></trkpt><trkpt lat="46.1101923" lon="13.5921417"><ele>443.0</ele><time>2026-05-02T08:32:26.157Z</time></trkpt><trkpt lat="46.1102575" lon="13.5921693"><ele>442.99999999999994</ele><time>2026-05-02T08:32:27.157Z</time></trkpt><trkpt lat="46.1103267" lon="13.5922002"><ele>443.0</ele><time>2026-05-02T08:32:28.157Z</time></trkpt><trkpt lat="46.1103907" lon="13.5922352"><ele>443.0</ele><time>2026-05-02T08:32:29.158Z</time></trkpt><trkpt lat="46.1105015" lon="13.5923007"><ele>443.0</ele><time>2026-05-02T08:32:31.157Z</time></trkpt><trkpt lat="46.1105876" lon="13.5924217"><ele>442.99999999999994</ele><time>2026-05-02T08:32:33.157Z</time></trkpt><trkpt lat="46.1106237" lon="13.5925002"><ele>443.0</ele><time>2026-05-02T08:32:34.157Z</time></trkpt><trkpt lat="46.1106661" lon="13.5925766"><ele>444.16666666666663</ele><time>2026-05-02T08:32:35.157Z</time></trkpt><trkpt lat="46.1107513" lon="13.5927001"><ele>445.3333333333333</ele><time>2026-05-02T08:32:37.157Z</time></trkpt><trkpt lat="46.1108152" lon="13.5928445"><ele>446.5</ele><time>2026-05-02T08:32:39.157Z</time></trkpt><trkpt lat="46.1108203" lon="13.5929436"><ele>447.66666666666663</ele><time>2026-05-02T08:32:40.157Z</time></trkpt><trkpt lat="46.1108131" lon="13.5930393"><ele>448.8333333333333</ele><time>2026-05-02T08:32:41.158Z</time></trkpt><trkpt lat="46.1107947" lon="13.5931369"><ele>450.0</ele><time>2026-05-02T08:32:42.157Z</time></trkpt><trkpt lat="46.1107806" lon="13.5932468"><ele>450.0</ele><time>2026-05-02T08:32:43.158Z</time></trkpt><trkpt lat="46.1107445" lon="13.5934122"><ele>450.0</ele><time>2026-05-02T08:32:45.157Z</time></trkpt><trkpt lat="46.1107297" lon="13.5935598"><ele>450.0</ele><time>2026-05-02T08:32:47.156Z</time></trkpt><trkpt lat="46.110745" lon="13.5936647"><ele>450.0</ele><time>2026-05-02T08:32:49.156Z</time></trkpt><trkpt lat="46.1106822" lon="13.5936582"><ele>450.0</ele><time>2026-05-02T08:32:51.157Z</time></trkpt><trkpt lat="46.1106643" lon="13.5935616"><ele>450.0</ele><time>2026-05-02T08:32:53.157Z</time></trkpt><trkpt lat="46.1106877" lon="13.5934109"><ele>448.8333333333333</ele><time>2026-05-02T08:32:55.157Z</time></trkpt><trkpt lat="46.1106963" lon="13.5932867"><ele>447.66666666666663</ele><time>2026-05-02T08:32:56.156Z</time></trkpt><trkpt lat="46.1106943" lon="13.5931723"><ele>446.5</ele><time>2026-05-02T08:32:57.157Z</time></trkpt><trkpt lat="46.1106644" lon="13.593034"><ele>445.3333333333333</ele><time>2026-05-02T08:32:59.156Z</time></trkpt><trkpt lat="46.1105862" lon="13.5929154"><ele>444.16666666666663</ele><time>2026-05-02T08:33:01.157Z</time></trkpt><trkpt lat="46.1105342" lon="13.5928545"><ele>443.0</ele><time>2026-05-02T08:33:02.157Z</time></trkpt><trkpt lat="46.1104752" lon="13.5928094"><ele>442.99999999999994</ele><time>2026-05-02T08:33:03.156Z</time></trkpt><trkpt lat="46.1104115" lon="13.5927571"><ele>443.0</ele><time>2026-05-02T08:33:04.157Z</time></trkpt><trkpt lat="46.110353" lon="13.5927149"><ele>443.0</ele><time>2026-05-02T08:33:05.157Z</time></trkpt><trkpt lat="46.1102433" lon="13.592691"><ele>443.0</ele><time>2026-05-02T08:33:07.157Z</time></trkpt><trkpt lat="46.1101215" lon="13.5926956"><ele>442.99999999999994</ele><time>2026-05-02T08:33:09.156Z</time></trkpt><trkpt lat="46.1100485" lon="13.592718"><ele>443.0</ele><time>2026-05-02T08:33:10.156Z</time></trkpt><trkpt lat="46.109975" lon="13.5927401"><ele>439.2857142857143</ele><time>2026-05-02T08:33:11.156Z</time></trkpt><trkpt lat="46.1099038" lon="13.5927633"><ele>435.57142857142856</ele><time>2026-05-02T08:33:12.157Z</time></trkpt><trkpt lat="46.1098281" lon="13.5927666"><ele>431.8571428571429</ele><time>2026-05-02T08:33:13.157Z</time></trkpt><trkpt lat="46.1097519" lon="13.5927614"><ele>428.1428571428571</ele><time>2026-05-02T08:33:14.157Z</time></trkpt><trkpt lat="46.1096815" lon="13.5927642"><ele>424.4285714285714</ele><time>2026-05-02T08:33:15.156Z</time></trkpt><trkpt lat="46.1096129" lon="13.5927673"><ele>420.7142857142857</ele><time>2026-05-02T08:33:16.156Z</time></trkpt><trkpt lat="46.1095498" lon="13.5927799"><ele>417.0</ele><time>2026-05-02T08:33:17.157Z</time></trkpt><trkpt lat="46.1094735" lon="13.5928025"><ele>417.0</ele><time>2026-05-02T08:33:18.156Z</time></trkpt><trkpt lat="46.1094" lon="13.59283"><ele>417.0</ele><time>2026-05-02T08:33:19.157Z</time></trkpt><trkpt lat="46.109336" lon="13.5928416"><ele>417.0</ele><time>2026-05-02T08:33:20.157Z</time></trkpt><trkpt lat="46.1092207" lon="13.5928152"><ele>417.0</ele><time>2026-05-02T08:33:22.156Z</time></trkpt><trkpt lat="46.1091515" lon="13.5927221"><ele>417.0</ele><time>2026-05-02T08:33:24.156Z</time></trkpt><trkpt lat="46.109128" lon="13.5925849"><ele>417.0</ele><time>2026-05-02T08:33:26.156Z</time></trkpt><trkpt lat="46.1091496" lon="13.5924021"><ele>417.0</ele><time>2026-05-02T08:33:28.156Z</time></trkpt><trkpt lat="46.1091679" lon="13.5922928"><ele>417.0</ele><time>2026-05-02T08:33:29.157Z</time></trkpt><trkpt lat="46.1091844" lon="13.5921983"><ele>417.0</ele><time>2026-05-02T08:33:30.156Z</time></trkpt><trkpt lat="46.1092031" lon="13.5920943"><ele>417.0</ele><time>2026-05-02T08:33:31.156Z</time></trkpt><trkpt lat="46.1092077" lon="13.5919908"><ele>417.0</ele><time>2026-05-02T08:33:32.156Z</time></trkpt><trkpt lat="46.1092038" lon="13.591891"><ele>417.0</ele><time>2026-05-02T08:33:33.157Z</time></trkpt><trkpt lat="46.1091955" lon="13.591789"><ele>417.0</ele><time>2026-05-02T08:33:34.156Z</time></trkpt><trkpt lat="46.1091768" lon="13.5916886"><ele>417.0</ele><time>2026-05-02T08:33:35.157Z</time></trkpt><trkpt lat="46.1091288" lon="13.5915116"><ele>417.0</ele><time>2026-05-02T08:33:37.156Z</time></trkpt><trkpt lat="46.1090897" lon="13.5914216"><ele>417.0</ele><time>2026-05-02T08:33:38.156Z</time></trkpt><trkpt lat="46.1090173" lon="13.5912953"><ele>413.5</ele><time>2026-05-02T08:33:40.156Z</time></trkpt><trkpt lat="46.1089496" lon="13.5912365"><ele>410.0</ele><time>2026-05-02T08:33:42.156Z</time></trkpt><trkpt lat="46.1088553" lon="13.591256"><ele>406.5</ele><time>2026-05-02T08:33:44.157Z</time></trkpt><trkpt lat="46.1087802" lon="13.591297"><ele>403.0</ele><time>2026-05-02T08:33:45.156Z</time></trkpt><trkpt lat="46.1087022" lon="13.5913274"><ele>399.5</ele><time>2026-05-02T08:33:46.156Z</time></trkpt><trkpt lat="46.1086382" lon="13.5913606"><ele>396.0</ele><time>2026-05-02T08:33:47.156Z</time></trkpt><trkpt lat="46.1085633" lon="13.5913763"><ele>396.0</ele><time>2026-05-02T08:33:48.156Z</time></trkpt><trkpt lat="46.1084854" lon="13.5913997"><ele>396.0</ele><time>2026-05-02T08:33:49.156Z</time></trkpt><trkpt lat="46.108412" lon="13.5914201"><ele>396.0</ele><time>2026-05-02T08:33:50.157Z</time></trkpt><trkpt lat="46.1083383" lon="13.5914463"><ele>396.0</ele><time>2026-05-02T08:33:51.157Z</time></trkpt><trkpt lat="46.1082762" lon="13.5914648"><ele>396.0</ele><time>2026-05-02T08:33:52.156Z</time></trkpt><trkpt lat="46.1082121" lon="13.5914676"><ele>396.0</ele><time>2026-05-02T08:33:53.156Z</time></trkpt><trkpt lat="46.1080849" lon="13.5914532"><ele>393.1666666666667</ele><time>2026-05-02T08:33:55.156Z</time></trkpt><trkpt lat="46.108004" lon="13.5914562"><ele>390.3333333333333</ele><time>2026-05-02T08:33:56.156Z</time></trkpt><trkpt lat="46.1079286" lon="13.5914644"><ele>387.5</ele><time>2026-05-02T08:33:57.156Z</time></trkpt><trkpt lat="46.1078496" lon="13.5914627"><ele>384.66666666666663</ele><time>2026-05-02T08:33:58.156Z</time></trkpt><trkpt lat="46.1077708" lon="13.5914615"><ele>381.8333333333333</ele><time>2026-05-02T08:33:59.157Z</time></trkpt><trkpt lat="46.1076949" lon="13.591458"><ele>379.0</ele><time>2026-05-02T08:34:00.157Z</time></trkpt><trkpt lat="46.1076276" lon="13.5914538"><ele>379.0</ele><time>2026-05-02T08:34:01.156Z</time></trkpt><trkpt lat="46.1075514" lon="13.5914218"><ele>379.0</ele><time>2026-05-02T08:34:02.156Z</time></trkpt><trkpt lat="46.1074631" lon="13.5913702"><ele>379.0</ele><time>2026-05-02T08:34:03.157Z</time></trkpt><trkpt lat="46.1073879" lon="13.5913437"><ele>379.0</ele><time>2026-05-02T08:34:04.157Z</time></trkpt><trkpt lat="46.1073199" lon="13.5913386"><ele>379.0</ele><time>2026-05-02T08:34:05.156Z</time></trkpt><trkpt lat="46.1072461" lon="13.5913413"><ele>379.0</ele><time>2026-05-02T08:34:06.156Z</time></trkpt><trkpt lat="46.1071756" lon="13.5913393"><ele>378.14285714285717</ele><time>2026-05-02T08:34:07.156Z</time></trkpt><trkpt lat="46.1071066" lon="13.591319"><ele>377.2857142857143</ele><time>2026-05-02T08:34:08.156Z</time></trkpt><trkpt lat="46.1070388" lon="13.591322"><ele>376.42857142857144</ele><time>2026-05-02T08:34:09.157Z</time></trkpt><trkpt lat="46.1069653" lon="13.591329"><ele>375.57142857142856</ele><time>2026-05-02T08:34:10.156Z</time></trkpt><trkpt lat="46.1068941" lon="13.591346"><ele>374.7142857142857</ele><time>2026-05-02T08:34:11.156Z</time></trkpt><trkpt lat="46.1068198" lon="13.5913712"><ele>373.8571428571429</ele><time>2026-05-02T08:34:12.157Z</time></trkpt><trkpt lat="46.1067497" lon="13.5913996"><ele>373.0</ele><time>2026-05-02T08:34:13.156Z</time></trkpt><trkpt lat="46.1066763" lon="13.5914431"><ele>373.0</ele><time>2026-05-02T08:34:14.156Z</time></trkpt><trkpt lat="46.1066144" lon="13.5914923"><ele>373.0</ele><time>2026-05-02T08:34:15.156Z</time></trkpt><trkpt lat="46.106554" lon="13.5915369"><ele>373.0</ele><time>2026-05-02T08:34:16.156Z</time></trkpt><trkpt lat="46.1064598" lon="13.5915836"><ele>373.0</ele><time>2026-05-02T08:34:18.157Z</time></trkpt><trkpt lat="46.106377" lon="13.5916145"><ele>373.0</ele><time>2026-05-02T08:34:20.156Z</time></trkpt><trkpt lat="46.1063791" lon="13.5917067"><ele>373.0</ele><time>2026-05-02T08:34:23.156Z</time></trkpt><trkpt lat="46.1064577" lon="13.5917167"><ele>373.0</ele><time>2026-05-02T08:34:25.156Z</time></trkpt><trkpt lat="46.106582" lon="13.5917013"><ele>373.0</ele><time>2026-05-02T08:34:27.156Z</time></trkpt><trkpt lat="46.106647" lon="13.5916886"><ele>373.0</ele><time>2026-05-02T08:34:28.157Z</time></trkpt><trkpt lat="46.10676" lon="13.591665"><ele>373.0</ele><time>2026-05-02T08:34:30.156Z</time></trkpt><trkpt lat="46.1068653" lon="13.5916531"><ele>373.0</ele><time>2026-05-02T08:34:32.157Z</time></trkpt><trkpt lat="46.1069863" lon="13.591657"><ele>373.0</ele><time>2026-05-02T08:34:34.157Z</time></trkpt><trkpt lat="46.1070652" lon="13.5916561"><ele>373.0</ele><time>2026-05-02T08:34:35.156Z</time></trkpt><trkpt lat="46.1071369" lon="13.5916781"><ele>373.0</ele><time>2026-05-02T08:34:36.157Z</time></trkpt><trkpt lat="46.1072081" lon="13.591712"><ele>373.0</ele><time>2026-05-02T08:34:37.157Z</time></trkpt><trkpt lat="46.1072761" lon="13.5917611"><ele>373.0</ele><time>2026-05-02T08:34:38.156Z</time></trkpt><trkpt lat="46.1073319" lon="13.5918199"><ele>373.0</ele><time>2026-05-02T08:34:39.157Z</time></trkpt><trkpt lat="46.1073932" lon="13.5918792"><ele>373.0</ele><time>2026-05-02T08:34:40.156Z</time></trkpt><trkpt lat="46.1074453" lon="13.5919392"><ele>369.16666666666663</ele><time>2026-05-02T08:34:41.156Z</time></trkpt><trkpt lat="46.1074993" lon="13.5920072"><ele>365.3333333333333</ele><time>2026-05-02T08:34:42.157Z</time></trkpt><trkpt lat="46.1075555" lon="13.5920577"><ele>361.5</ele><time>2026-05-02T08:34:43.157Z</time></trkpt><trkpt lat="46.1076092" lon="13.592107"><ele>357.6666666666667</ele><time>2026-05-02T08:34:44.156Z</time></trkpt><trkpt lat="46.1076599" lon="13.5921623"><ele>353.83333333333337</ele><time>2026-05-02T08:34:45.156Z</time></trkpt><trkpt lat="46.1077065" lon="13.592242"><ele>350.0</ele><time>2026-05-02T08:34:46.156Z</time></trkpt><trkpt lat="46.1077725" lon="13.5923818"><ele>350.0</ele><time>2026-05-02T08:34:48.156Z</time></trkpt><trkpt lat="46.1078299" lon="13.5924784"><ele>350.0</ele><time>2026-05-02T08:34:50.156Z</time></trkpt><trkpt lat="46.1078973" lon="13.5924925"><ele>350.0</ele><time>2026-05-02T08:34:52.156Z</time></trkpt><trkpt lat="46.1079569" lon="13.5924564"><ele>350.0</ele><time>2026-05-02T08:34:54.156Z</time></trkpt><trkpt lat="46.1080284" lon="13.5924205"><ele>350.0</ele><time>2026-05-02T08:34:57.157Z</time></trkpt><trkpt lat="46.1079895" lon="13.5925034"><ele>350.0</ele><time>2026-05-02T08:35:00.156Z</time></trkpt><trkpt lat="46.1079416" lon="13.5925709"><ele>350.0</ele><time>2026-05-02T08:35:01.156Z</time></trkpt><trkpt lat="46.1078524" lon="13.5926727"><ele>350.0</ele><time>2026-05-02T08:35:03.156Z</time></trkpt><trkpt lat="46.1077689" lon="13.5927362"><ele>350.0</ele><time>2026-05-02T08:35:05.156Z</time></trkpt><trkpt lat="46.1076682" lon="13.5927168"><ele>350.0</ele><time>2026-05-02T08:35:07.156Z</time></trkpt><trkpt lat="46.107609" lon="13.5926771"><ele>350.0</ele><time>2026-05-02T08:35:08.156Z</time></trkpt><trkpt lat="46.1074944" lon="13.5925895"><ele>350.0</ele><time>2026-05-02T08:35:10.157Z</time></trkpt><trkpt lat="46.1073831" lon="13.5925365"><ele>348.33333333333337</ele><time>2026-05-02T08:35:12.157Z</time></trkpt><trkpt lat="46.1073231" lon="13.592502"><ele>346.6666666666667</ele><time>2026-05-02T08:35:13.156Z</time></trkpt><trkpt lat="46.1072579" lon="13.5924803"><ele>345.0</ele><time>2026-05-02T08:35:14.156Z</time></trkpt><trkpt lat="46.1071774" lon="13.5924571"><ele>343.3333333333333</ele><time>2026-05-02T08:35:15.157Z</time></trkpt><trkpt lat="46.1070972" lon="13.5924341"><ele>341.66666666666663</ele><time>2026-05-02T08:35:16.157Z</time></trkpt><trkpt lat="46.1070299" lon="13.5924186"><ele>340.0</ele><time>2026-05-02T08:35:17.157Z</time></trkpt><trkpt lat="46.106904" lon="13.5924306"><ele>340.0</ele><time>2026-05-02T08:35:19.157Z</time></trkpt><trkpt lat="46.1068334" lon="13.592444"><ele>340.0</ele><time>2026-05-02T08:35:20.157Z</time></trkpt><trkpt lat="46.1067724" lon="13.5924729"><ele>340.0</ele><time>2026-05-02T08:35:21.157Z</time></trkpt><trkpt lat="46.1067026" lon="13.5925066"><ele>340.0</ele><time>2026-05-02T08:35:22.156Z</time></trkpt><trkpt lat="46.1066229" lon="13.5925394"><ele>340.0</ele><time>2026-05-02T08:35:23.157Z</time></trkpt><trkpt lat="46.1065439" lon="13.5925803"><ele>340.0</ele><time>2026-05-02T08:35:24.156Z</time></trkpt><trkpt lat="46.1064628" lon="13.5926122"><ele>339.0</ele><time>2026-05-02T08:35:25.156Z</time></trkpt><trkpt lat="46.1063919" lon="13.5926362"><ele>338.0</ele><time>2026-05-02T08:35:26.157Z</time></trkpt><trkpt lat="46.106326" lon="13.592655"><ele>337.0</ele><time>2026-05-02T08:35:27.157Z</time></trkpt><trkpt lat="46.1062273" lon="13.5926774"><ele>336.0</ele><time>2026-05-02T08:35:29.156Z</time></trkpt><trkpt lat="46.1063273" lon="13.5927331"><ele>335.0</ele><time>2026-05-02T08:35:33.156Z</time></trkpt><trkpt lat="46.1063989" lon="13.5927331"><ele>334.0</ele><time>2026-05-02T08:35:34.156Z</time></trkpt><trkpt lat="46.1064728" lon="13.5927559"><ele>334.0</ele><time>2026-05-02T08:35:35.157Z</time></trkpt><trkpt lat="46.1065546" lon="13.5927983"><ele>334.0</ele><time>2026-05-02T08:35:36.156Z</time></trkpt><trkpt lat="46.1066218" lon="13.5928268"><ele>334.0</ele><time>2026-05-02T08:35:37.157Z</time></trkpt><trkpt lat="46.1066937" lon="13.5928598"><ele>334.0</ele><time>2026-05-02T08:35:38.156Z</time></trkpt><trkpt lat="46.1067615" lon="13.5928997"><ele>334.0</ele><time>2026-05-02T08:35:39.156Z</time></trkpt><trkpt lat="46.1068321" lon="13.592966"><ele>334.0</ele><time>2026-05-02T08:35:40.156Z</time></trkpt><trkpt lat="46.1068842" lon="13.5930229"><ele>330.5</ele><time>2026-05-02T08:35:41.156Z</time></trkpt><trkpt lat="46.1069335" lon="13.5930915"><ele>327.0</ele><time>2026-05-02T08:35:42.156Z</time></trkpt><trkpt lat="46.1069827" lon="13.5931723"><ele>323.5</ele><time>2026-05-02T08:35:43.157Z</time></trkpt><trkpt lat="46.1070223" lon="13.5932725"><ele>320.0</ele><time>2026-05-02T08:35:44.156Z</time></trkpt><trkpt lat="46.1070498" lon="13.5933608"><ele>316.5</ele><time>2026-05-02T08:35:45.157Z</time></trkpt><trkpt lat="46.1071147" lon="13.5935112"><ele>313.0</ele><time>2026-05-02T08:35:47.156Z</time></trkpt><trkpt lat="46.1072103" lon="13.5936009"><ele>313.0</ele><time>2026-05-02T08:35:49.156Z</time></trkpt><trkpt lat="46.1073324" lon="13.5936157"><ele>313.0</ele><time>2026-05-02T08:35:51.156Z</time></trkpt><trkpt lat="46.107394" lon="13.5937279"><ele>313.0</ele><time>2026-05-02T08:35:53.156Z</time></trkpt><trkpt lat="46.1073524" lon="13.5938906"><ele>313.0</ele><time>2026-05-02T08:35:55.157Z</time></trkpt><trkpt lat="46.1073196" lon="13.5939821"><ele>313.0</ele><time>2026-05-02T08:35:56.157Z</time></trkpt><trkpt lat="46.1073041" lon="13.5940763"><ele>309.0</ele><time>2026-05-02T08:35:57.156Z</time></trkpt><trkpt lat="46.1072991" lon="13.5941746"><ele>305.0</ele><time>2026-05-02T08:35:58.156Z</time></trkpt><trkpt lat="46.1072754" lon="13.5943223"><ele>301.0</ele><time>2026-05-02T08:36:00.156Z</time></trkpt><trkpt lat="46.1072349" lon="13.5944411"><ele>297.0</ele><time>2026-05-02T08:36:03.156Z</time></trkpt><trkpt lat="46.1072297" lon="13.594555"><ele>293.0</ele><time>2026-05-02T08:36:05.156Z</time></trkpt><trkpt lat="46.107291" lon="13.5947435"><ele>295.0</ele><time>2026-05-02T08:36:07.156Z</time></trkpt><trkpt lat="46.1073635" lon="13.5948586"><ele>297.0</ele><time>2026-05-02T08:36:08.156Z</time></trkpt><trkpt lat="46.1074342" lon="13.594972"><ele>299.0</ele><time>2026-05-02T08:36:09.156Z</time></trkpt><trkpt lat="46.1074867" lon="13.5950863"><ele>301.0</ele><time>2026-05-02T08:36:10.156Z</time></trkpt><trkpt lat="46.1075323" lon="13.5951817"><ele>303.0</ele><time>2026-05-02T08:36:11.157Z</time></trkpt><trkpt lat="46.1075688" lon="13.5952816"><ele>298.8333333333333</ele><time>2026-05-02T08:36:12.156Z</time></trkpt><trkpt lat="46.1075944" lon="13.5953903"><ele>294.6666666666667</ele><time>2026-05-02T08:36:13.157Z</time></trkpt><trkpt lat="46.107611" lon="13.595507"><ele>290.5</ele><time>2026-05-02T08:36:14.156Z</time></trkpt><trkpt lat="46.1076473" lon="13.5956164"><ele>286.33333333333337</ele><time>2026-05-02T08:36:15.156Z</time></trkpt><trkpt lat="46.1076765" lon="13.5957038"><ele>282.1666666666667</ele><time>2026-05-02T08:36:16.156Z</time></trkpt><trkpt lat="46.1077328" lon="13.5958562"><ele>278.0</ele><time>2026-05-02T08:36:18.157Z</time></trkpt><trkpt lat="46.107847" lon="13.5959207"><ele>278.0</ele><time>2026-05-02T08:36:20.156Z</time></trkpt><trkpt lat="46.1079252" lon="13.5959191"><ele>278.0</ele><time>2026-05-02T08:36:21.157Z</time></trkpt><trkpt lat="46.1080018" lon="13.5959292"><ele>278.0</ele><time>2026-05-02T08:36:22.157Z</time></trkpt><trkpt lat="46.1080698" lon="13.5959431"><ele>278.0</ele><time>2026-05-02T08:36:23.156Z</time></trkpt><trkpt lat="46.1081523" lon="13.5959785"><ele>278.0</ele><time>2026-05-02T08:36:25.156Z</time></trkpt><trkpt lat="46.1081871" lon="13.5960929"><ele>278.0</ele><time>2026-05-02T08:36:27.156Z</time></trkpt><trkpt lat="46.1081314" lon="13.5961524"><ele>278.0</ele><time>2026-05-02T08:36:29.156Z</time></trkpt><trkpt lat="46.108024" lon="13.596093"><ele>278.0</ele><time>2026-05-02T08:36:31.156Z</time></trkpt><trkpt lat="46.1079583" lon="13.5960583"><ele>278.0</ele><time>2026-05-02T08:36:32.156Z</time></trkpt><trkpt lat="46.10789" lon="13.5960428"><ele>278.0</ele><time>2026-05-02T08:36:33.156Z</time></trkpt><trkpt lat="46.1078049" lon="13.5960507"><ele>278.0</ele><time>2026-05-02T08:36:34.156Z</time></trkpt><trkpt lat="46.1077203" lon="13.5960458"><ele>278.0</ele><time>2026-05-02T08:36:35.156Z</time></trkpt><trkpt lat="46.1076529" lon="13.596015"><ele>278.0</ele><time>2026-05-02T08:36:36.157Z</time></trkpt><trkpt lat="46.1076008" lon="13.5959603"><ele>278.0</ele><time>2026-05-02T08:36:37.156Z</time></trkpt><trkpt lat="46.1075496" lon="13.5958894"><ele>278.0</ele><time>2026-05-02T08:36:38.156Z</time></trkpt><trkpt lat="46.1075061" lon="13.5958059"><ele>278.0</ele><time>2026-05-02T08:36:39.156Z</time></trkpt><trkpt lat="46.1074568" lon="13.5956979"><ele>278.0</ele><time>2026-05-02T08:36:40.156Z</time></trkpt><trkpt lat="46.1074028" lon="13.5955771"><ele>278.0</ele><time>2026-05-02T08:36:41.157Z</time></trkpt><trkpt lat="46.1073322" lon="13.5954552"><ele>278.4</ele><time>2026-05-02T08:36:42.156Z</time></trkpt><trkpt lat="46.1072432" lon="13.5953377"><ele>278.8</ele><time>2026-05-02T08:36:43.157Z</time></trkpt><trkpt lat="46.1071464" lon="13.5952318"><ele>279.2</ele><time>2026-05-02T08:36:44.156Z</time></trkpt><trkpt lat="46.1070682" lon="13.5951485"><ele>279.6</ele><time>2026-05-02T08:36:45.156Z</time></trkpt><trkpt lat="46.1070032" lon="13.5950797"><ele>280.0</ele><time>2026-05-02T08:36:46.156Z</time></trkpt><trkpt lat="46.1069057" lon="13.5949956"><ele>280.0</ele><time>2026-05-02T08:36:48.157Z</time></trkpt><trkpt lat="46.1068368" lon="13.5949562"><ele>280.0</ele><time>2026-05-02T08:36:50.156Z</time></trkpt><trkpt lat="46.1067813" lon="13.5948988"><ele>280.0</ele><time>2026-05-02T08:36:52.156Z</time></trkpt><trkpt lat="46.1067199" lon="13.5948283"><ele>280.0</ele><time>2026-05-02T08:36:58.157Z</time></trkpt><trkpt lat="46.1066907" lon="13.5947301"><ele>280.0</ele><time>2026-05-02T08:37:00.156Z</time></trkpt><trkpt lat="46.1066665" lon="13.5946287"><ele>280.0</ele><time>2026-05-02T08:37:02.157Z</time></trkpt><trkpt lat="46.1066194" lon="13.5945515"><ele>280.0</ele><time>2026-05-02T08:37:06.157Z</time></trkpt><trkpt lat="46.1066144" lon="13.5944586"><ele>293.0</ele><time>2026-05-02T08:38:54.155Z</time></trkpt><trkpt lat="46.1066062" lon="13.5943664"><ele>293.0</ele><time>2026-05-02T08:39:00.155Z</time></trkpt></trkseg><trkseg><trkpt lat="46.1066357" lon="13.5944813"><ele>293.0</ele><time>2026-05-02T08:54:38.151Z</time></trkpt><trkpt lat="46.1066006" lon="13.594373"><ele>293.0</ele><time>2026-05-02T08:54:41.151Z</time></trkpt><trkpt lat="46.1065472" lon="13.594256"><ele>293.0</ele><time>2026-05-02T08:54:44.151Z</time></trkpt><trkpt lat="46.1064362" lon="13.5941772"><ele>293.0</ele><time>2026-05-02T08:54:46.151Z</time></trkpt><trkpt lat="46.1063503" lon="13.5940653"><ele>293.0</ele><time>2026-05-02T08:54:48.151Z</time></trkpt><trkpt lat="46.1063081" lon="13.5939917"><ele>293.83333333333337</ele><time>2026-05-02T08:54:49.152Z</time></trkpt><trkpt lat="46.1062705" lon="13.5939076"><ele>294.6666666666667</ele><time>2026-05-02T08:54:50.152Z</time></trkpt><trkpt lat="46.1062113" lon="13.5938349"><ele>295.5</ele><time>2026-05-02T08:54:51.151Z</time></trkpt><trkpt lat="46.1061302" lon="13.5937676"><ele>296.3333333333333</ele><time>2026-05-02T08:54:52.151Z</time></trkpt><trkpt lat="46.1060335" lon="13.5937357"><ele>297.16666666666663</ele><time>2026-05-02T08:54:53.151Z</time></trkpt><trkpt lat="46.1059301" lon="13.5937055"><ele>298.0</ele><time>2026-05-02T08:54:54.151Z</time></trkpt><trkpt lat="46.1058371" lon="13.5936596"><ele>291.0</ele><time>2026-05-02T08:54:55.151Z</time></trkpt><trkpt lat="46.1057344" lon="13.5935976"><ele>284.0</ele><time>2026-05-02T08:54:56.151Z</time></trkpt><trkpt lat="46.1056273" lon="13.5935121"><ele>277.0</ele><time>2026-05-02T08:54:57.151Z</time></trkpt><trkpt lat="46.1055227" lon="13.5934375"><ele>270.0</ele><time>2026-05-02T08:54:58.152Z</time></trkpt><trkpt lat="46.1054257" lon="13.5933527"><ele>270.0</ele><time>2026-05-02T08:54:59.151Z</time></trkpt><trkpt lat="46.1053285" lon="13.5932815"><ele>270.0</ele><time>2026-05-02T08:55:00.151Z</time></trkpt><trkpt lat="46.1052354" lon="13.59321"><ele>270.0</ele><time>2026-05-02T08:55:01.152Z</time></trkpt><trkpt lat="46.1051414" lon="13.5931282"><ele>270.0</ele><time>2026-05-02T08:55:02.151Z</time></trkpt><trkpt lat="46.1050484" lon="13.5930328"><ele>270.0</ele><time>2026-05-02T08:55:03.151Z</time></trkpt><trkpt lat="46.1049566" lon="13.5929233"><ele>267.5</ele><time>2026-05-02T08:55:04.152Z</time></trkpt><trkpt lat="46.1048717" lon="13.5927943"><ele>265.0</ele><time>2026-05-02T08:55:05.152Z</time></trkpt><trkpt lat="46.1047837" lon="13.5926398"><ele>262.5</ele><time>2026-05-02T08:55:06.152Z</time></trkpt><trkpt lat="46.1046909" lon="13.5924889"><ele>260.0</ele><time>2026-05-02T08:55:07.151Z</time></trkpt><trkpt lat="46.1046017" lon="13.5923435"><ele>260.0</ele><time>2026-05-02T08:55:08.151Z</time></trkpt><trkpt lat="46.1045211" lon="13.5922061"><ele>260.0</ele><time>2026-05-02T08:55:09.151Z</time></trkpt><trkpt lat="46.1044483" lon="13.5920726"><ele>260.0</ele><time>2026-05-02T08:55:10.151Z</time></trkpt><trkpt lat="46.1043719" lon="13.591934"><ele>260.0</ele><time>2026-05-02T08:55:11.151Z</time></trkpt><trkpt lat="46.1043019" lon="13.5917743"><ele>257.75</ele><time>2026-05-02T08:55:12.152Z</time></trkpt><trkpt lat="46.1042347" lon="13.5916079"><ele>255.5</ele><time>2026-05-02T08:55:13.151Z</time></trkpt><trkpt lat="46.1041743" lon="13.5914352"><ele>253.25</ele><time>2026-05-02T08:55:14.152Z</time></trkpt><trkpt lat="46.1041155" lon="13.5912667"><ele>251.0</ele><time>2026-05-02T08:55:15.152Z</time></trkpt><trkpt lat="46.1040531" lon="13.5910914"><ele>251.0</ele><time>2026-05-02T08:55:16.151Z</time></trkpt><trkpt lat="46.1039948" lon="13.590904"><ele>251.0</ele><time>2026-05-02T08:55:17.152Z</time></trkpt><trkpt lat="46.1039163" lon="13.5907722"><ele>251.0</ele><time>2026-05-02T08:55:18.151Z</time></trkpt><trkpt lat="46.1038535" lon="13.5905968"><ele>251.0</ele><time>2026-05-02T08:55:19.151Z</time></trkpt><trkpt lat="46.10379" lon="13.5904166"><ele>254.20000000000002</ele><time>2026-05-02T08:55:20.151Z</time></trkpt><trkpt lat="46.1037192" lon="13.5902692"><ele>257.40000000000003</ele><time>2026-05-02T08:55:21.151Z</time></trkpt><trkpt lat="46.1036402" lon="13.5901615"><ele>260.6</ele><time>2026-05-02T08:55:22.151Z</time></trkpt><trkpt lat="46.1035755" lon="13.5900871"><ele>263.8</ele><time>2026-05-02T08:55:23.152Z</time></trkpt><trkpt lat="46.1034805" lon="13.5899837"><ele>267.0</ele><time>2026-05-02T08:55:25.151Z</time></trkpt><trkpt lat="46.1034182" lon="13.5898655"><ele>267.0</ele><time>2026-05-02T08:55:26.151Z</time></trkpt><trkpt lat="46.1033575" lon="13.5897426"><ele>267.0</ele><time>2026-05-02T08:55:27.151Z</time></trkpt><trkpt lat="46.1032884" lon="13.5896238"><ele>267.0</ele><time>2026-05-02T08:55:28.151Z</time></trkpt><trkpt lat="46.1031907" lon="13.5895097"><ele>267.0</ele><time>2026-05-02T08:55:29.152Z</time></trkpt><trkpt lat="46.1030885" lon="13.5894016"><ele>264.75</ele><time>2026-05-02T08:55:30.151Z</time></trkpt><trkpt lat="46.1029853" lon="13.589305"><ele>262.5</ele><time>2026-05-02T08:55:31.151Z</time></trkpt><trkpt lat="46.1028855" lon="13.5892177"><ele>260.25</ele><time>2026-05-02T08:55:32.151Z</time></trkpt><trkpt lat="46.1027867" lon="13.5891385"><ele>258.0</ele><time>2026-05-02T08:55:33.151Z</time></trkpt><trkpt lat="46.1026828" lon="13.5890712"><ele>258.0</ele><time>2026-05-02T08:55:34.151Z</time></trkpt><trkpt lat="46.1025719" lon="13.5890012"><ele>258.0</ele><time>2026-05-02T08:55:35.151Z</time></trkpt><trkpt lat="46.1024696" lon="13.5889215"><ele>258.0</ele><time>2026-05-02T08:55:36.151Z</time></trkpt><trkpt lat="46.1023905" lon="13.5888234"><ele>258.0</ele><time>2026-05-02T08:55:37.152Z</time></trkpt><trkpt lat="46.1022924" lon="13.5886953"><ele>254.0</ele><time>2026-05-02T08:55:38.151Z</time></trkpt><trkpt lat="46.1022099" lon="13.5886018"><ele>250.0</ele><time>2026-05-02T08:55:39.152Z</time></trkpt><trkpt lat="46.1021359" lon="13.5885174"><ele>246.0</ele><time>2026-05-02T08:55:40.151Z</time></trkpt><trkpt lat="46.1020876" lon="13.5884401"><ele>242.0</ele><time>2026-05-02T08:55:41.151Z</time></trkpt><trkpt lat="46.1020596" lon="13.588317"><ele>238.0</ele><time>2026-05-02T08:55:43.151Z</time></trkpt><trkpt lat="46.1021362" lon="13.5881841"><ele>237.99999999999997</ele><time>2026-05-02T08:55:45.151Z</time></trkpt><trkpt lat="46.102197" lon="13.5880911"><ele>238.0</ele><time>2026-05-02T08:55:46.151Z</time></trkpt><trkpt lat="46.1022501" lon="13.588016"><ele>238.0</ele><time>2026-05-02T08:55:47.152Z</time></trkpt><trkpt lat="46.1023076" lon="13.5879109"><ele>238.0</ele><time>2026-05-02T08:55:48.151Z</time></trkpt><trkpt lat="46.1023613" lon="13.5878027"><ele>237.99999999999997</ele><time>2026-05-02T08:55:49.152Z</time></trkpt><trkpt lat="46.1024045" lon="13.5876714"><ele>238.0</ele><time>2026-05-02T08:55:50.151Z</time></trkpt><trkpt lat="46.1024214" lon="13.5875021"><ele>238.4</ele><time>2026-05-02T08:55:51.151Z</time></trkpt><trkpt lat="46.1023981" lon="13.5873596"><ele>238.8</ele><time>2026-05-02T08:55:52.151Z</time></trkpt><trkpt lat="46.1023493" lon="13.587234"><ele>239.2</ele><time>2026-05-02T08:55:53.152Z</time></trkpt><trkpt lat="46.1022745" lon="13.5871515"><ele>239.6</ele><time>2026-05-02T08:55:54.152Z</time></trkpt><trkpt lat="46.1021916" lon="13.5871131"><ele>240.0</ele><time>2026-05-02T08:55:55.151Z</time></trkpt><trkpt lat="46.102113" lon="13.58713"><ele>240.0</ele><time>2026-05-02T08:55:56.152Z</time></trkpt><trkpt lat="46.1020481" lon="13.5871935"><ele>240.0</ele><time>2026-05-02T08:55:57.151Z</time></trkpt><trkpt lat="46.1020028" lon="13.5873191"><ele>240.0</ele><time>2026-05-02T08:55:58.152Z</time></trkpt><trkpt lat="46.101944" lon="13.5874754"><ele>240.0</ele><time>2026-05-02T08:55:59.151Z</time></trkpt><trkpt lat="46.1018856" lon="13.5876142"><ele>240.0</ele><time>2026-05-02T08:56:00.151Z</time></trkpt><trkpt lat="46.1018339" lon="13.587743"><ele>239.6</ele><time>2026-05-02T08:56:01.151Z</time></trkpt><trkpt lat="46.1017834" lon="13.5878715"><ele>239.2</ele><time>2026-05-02T08:56:02.152Z</time></trkpt><trkpt lat="46.101743" lon="13.5879952"><ele>238.8</ele><time>2026-05-02T08:56:03.151Z</time></trkpt><trkpt lat="46.1017174" lon="13.5881202"><ele>238.4</ele><time>2026-05-02T08:56:04.152Z</time></trkpt><trkpt lat="46.1017024" lon="13.5882301"><ele>238.0</ele><time>2026-05-02T08:56:05.151Z</time></trkpt><trkpt lat="46.1016897" lon="13.5883624"><ele>237.99999999999997</ele><time>2026-05-02T08:56:06.151Z</time></trkpt><trkpt lat="46.1016902" lon="13.5884626"><ele>238.0</ele><time>2026-05-02T08:56:07.151Z</time></trkpt><trkpt lat="46.1016897" lon="13.5885942"><ele>238.0</ele><time>2026-05-02T08:56:09.152Z</time></trkpt><trkpt lat="46.1016893" lon="13.5887186"><ele>238.0</ele><time>2026-05-02T08:56:11.151Z</time></trkpt><trkpt lat="46.1017232" lon="13.5888057"><ele>237.99999999999997</ele><time>2026-05-02T08:56:12.152Z</time></trkpt><trkpt lat="46.1017889" lon="13.5888915"><ele>238.0</ele><time>2026-05-02T08:56:13.151Z</time></trkpt><trkpt lat="46.1018674" lon="13.5889567"><ele>237.0</ele><time>2026-05-02T08:56:14.151Z</time></trkpt><trkpt lat="46.1019622" lon="13.5890368"><ele>236.0</ele><time>2026-05-02T08:56:15.151Z</time></trkpt><trkpt lat="46.1020723" lon="13.5891205"><ele>235.0</ele><time>2026-05-02T08:56:16.151Z</time></trkpt><trkpt lat="46.1021828" lon="13.5892079"><ele>234.0</ele><time>2026-05-02T08:56:17.151Z</time></trkpt><trkpt lat="46.1022892" lon="13.5893049"><ele>234.0</ele><time>2026-05-02T08:56:18.151Z</time></trkpt><trkpt lat="46.1024002" lon="13.5893883"><ele>234.0</ele><time>2026-05-02T08:56:19.151Z</time></trkpt><trkpt lat="46.1025076" lon="13.589482"><ele>234.0</ele><time>2026-05-02T08:56:20.152Z</time></trkpt><trkpt lat="46.1026164" lon="13.5895739"><ele>234.0</ele><time>2026-05-02T08:56:21.151Z</time></trkpt><trkpt lat="46.102722" lon="13.589667"><ele>235.25</ele><time>2026-05-02T08:56:22.152Z</time></trkpt><trkpt lat="46.102816" lon="13.5897747"><ele>236.5</ele><time>2026-05-02T08:56:23.151Z</time></trkpt><trkpt lat="46.1029094" lon="13.5898891"><ele>237.75</ele><time>2026-05-02T08:56:24.152Z</time></trkpt><trkpt lat="46.1029994" lon="13.5900147"><ele>239.0</ele><time>2026-05-02T08:56:25.151Z</time></trkpt><trkpt lat="46.1030881" lon="13.5901483"><ele>239.0</ele><time>2026-05-02T08:56:26.151Z</time></trkpt><trkpt lat="46.1031784" lon="13.5903026"><ele>239.0</ele><time>2026-05-02T08:56:27.152Z</time></trkpt><trkpt lat="46.1032656" lon="13.5904682"><ele>239.0</ele><time>2026-05-02T08:56:28.151Z</time></trkpt><trkpt lat="46.1033418" lon="13.5906329"><ele>239.0</ele><time>2026-05-02T08:56:29.151Z</time></trkpt><trkpt lat="46.1034129" lon="13.5908089"><ele>240.0</ele><time>2026-05-02T08:56:30.151Z</time></trkpt><trkpt lat="46.1034798" lon="13.5909925"><ele>241.0</ele><time>2026-05-02T08:56:31.151Z</time></trkpt><trkpt lat="46.1035401" lon="13.5911785"><ele>242.0</ele><time>2026-05-02T08:56:32.151Z</time></trkpt><trkpt lat="46.1035987" lon="13.5913706"><ele>243.0</ele><time>2026-05-02T08:56:33.151Z</time></trkpt><trkpt lat="46.1036644" lon="13.5915565"><ele>243.0</ele><time>2026-05-02T08:56:34.151Z</time></trkpt><trkpt lat="46.1037161" lon="13.5917447"><ele>243.0</ele><time>2026-05-02T08:56:35.152Z</time></trkpt><trkpt lat="46.1037771" lon="13.5919374"><ele>243.0</ele><time>2026-05-02T08:56:36.151Z</time></trkpt><trkpt lat="46.1038443" lon="13.5921074"><ele>243.0</ele><time>2026-05-02T08:56:37.152Z</time></trkpt><trkpt lat="46.1039241" lon="13.5922694"><ele>242.66666666666669</ele><time>2026-05-02T08:56:38.152Z</time></trkpt><trkpt lat="46.1040307" lon="13.5924152"><ele>242.33333333333334</ele><time>2026-05-02T08:56:39.151Z</time></trkpt><trkpt lat="46.1041553" lon="13.5925633"><ele>242.0</ele><time>2026-05-02T08:56:40.152Z</time></trkpt><trkpt lat="46.104265" lon="13.5927424"><ele>242.0</ele><time>2026-05-02T08:56:41.151Z</time></trkpt><trkpt lat="46.1043709" lon="13.5929198"><ele>242.0</ele><time>2026-05-02T08:56:42.151Z</time></trkpt><trkpt lat="46.1044653" lon="13.5930879"><ele>242.0</ele><time>2026-05-02T08:56:43.152Z</time></trkpt><trkpt lat="46.10455" lon="13.5932475"><ele>242.0</ele><time>2026-05-02T08:56:44.152Z</time></trkpt><trkpt lat="46.1046216" lon="13.593405"><ele>242.0</ele><time>2026-05-02T08:56:45.152Z</time></trkpt><trkpt lat="46.1046887" lon="13.5935453"><ele>242.0</ele><time>2026-05-02T08:56:46.151Z</time></trkpt><trkpt lat="46.1047572" lon="13.5936632"><ele>242.0</ele><time>2026-05-02T08:56:47.151Z</time></trkpt><trkpt lat="46.1048405" lon="13.593767"><ele>243.5</ele><time>2026-05-02T08:56:48.152Z</time></trkpt><trkpt lat="46.1049465" lon="13.5938819"><ele>245.0</ele><time>2026-05-02T08:56:49.151Z</time></trkpt><trkpt lat="46.1050585" lon="13.5940144"><ele>246.5</ele><time>2026-05-02T08:56:50.151Z</time></trkpt><trkpt lat="46.1051752" lon="13.5941825"><ele>248.0</ele><time>2026-05-02T08:56:51.152Z</time></trkpt><trkpt lat="46.1052811" lon="13.5944285"><ele>245.33333333333334</ele><time>2026-05-02T08:56:52.151Z</time></trkpt><trkpt lat="46.1053638" lon="13.5946761"><ele>242.66666666666669</ele><time>2026-05-02T08:56:53.151Z</time></trkpt><trkpt lat="46.1054403" lon="13.594911"><ele>240.0</ele><time>2026-05-02T08:56:54.152Z</time></trkpt><trkpt lat="46.1055077" lon="13.5951345"><ele>240.0</ele><time>2026-05-02T08:56:55.151Z</time></trkpt><trkpt lat="46.1055556" lon="13.5953321"><ele>240.0</ele><time>2026-05-02T08:56:56.151Z</time></trkpt><trkpt lat="46.1056109" lon="13.5955072"><ele>240.0</ele><time>2026-05-02T08:56:57.151Z</time></trkpt><trkpt lat="46.1056731" lon="13.5956432"><ele>240.0</ele><time>2026-05-02T08:56:58.151Z</time></trkpt><trkpt lat="46.105748" lon="13.5957539"><ele>242.25</ele><time>2026-05-02T08:56:59.152Z</time></trkpt><trkpt lat="46.1058604" lon="13.5958597"><ele>244.5</ele><time>2026-05-02T08:57:00.152Z</time></trkpt><trkpt lat="46.1059759" lon="13.5959222"><ele>246.75</ele><time>2026-05-02T08:57:01.152Z</time></trkpt><trkpt lat="46.1060934" lon="13.5959509"><ele>249.0</ele><time>2026-05-02T08:57:02.151Z</time></trkpt><trkpt lat="46.1062343" lon="13.5959592"><ele>249.0</ele><time>2026-05-02T08:57:03.152Z</time></trkpt><trkpt lat="46.1063574" lon="13.5959896"><ele>249.0</ele><time>2026-05-02T08:57:04.151Z</time></trkpt><trkpt lat="46.1064712" lon="13.5960468"><ele>249.0</ele><time>2026-05-02T08:57:05.152Z</time></trkpt><trkpt lat="46.1066263" lon="13.5960817"><ele>249.0</ele><time>2026-05-02T08:57:07.152Z</time></trkpt><trkpt lat="46.1067392" lon="13.5960349"><ele>248.0</ele><time>2026-05-02T08:57:08.151Z</time></trkpt><trkpt lat="46.1068397" lon="13.5960095"><ele>246.99999999999997</ele><time>2026-05-02T08:57:09.151Z</time></trkpt><trkpt lat="46.106933" lon="13.5960346"><ele>245.99999999999997</ele><time>2026-05-02T08:57:10.151Z</time></trkpt><trkpt lat="46.1070217" lon="13.5961059"><ele>245.0</ele><time>2026-05-02T08:57:11.152Z</time></trkpt><trkpt lat="46.1071088" lon="13.5961907"><ele>244.0</ele><time>2026-05-02T08:57:12.151Z</time></trkpt><trkpt lat="46.1072095" lon="13.5962695"><ele>244.0</ele><time>2026-05-02T08:57:13.152Z</time></trkpt><trkpt lat="46.1073128" lon="13.5963437"><ele>244.0</ele><time>2026-05-02T08:57:14.151Z</time></trkpt><trkpt lat="46.1074165" lon="13.5964223"><ele>244.0</ele><time>2026-05-02T08:57:15.152Z</time></trkpt><trkpt lat="46.1075166" lon="13.5965127"><ele>244.0</ele><time>2026-05-02T08:57:16.152Z</time></trkpt><trkpt lat="46.1076242" lon="13.5965793"><ele>243.6</ele><time>2026-05-02T08:57:17.151Z</time></trkpt><trkpt lat="46.1077232" lon="13.5966414"><ele>243.2</ele><time>2026-05-02T08:57:18.152Z</time></trkpt><trkpt lat="46.107796" lon="13.5967243"><ele>242.79999999999998</ele><time>2026-05-02T08:57:19.151Z</time></trkpt><trkpt lat="46.1078455" lon="13.596874"><ele>242.39999999999998</ele><time>2026-05-02T08:57:20.151Z</time></trkpt><trkpt lat="46.1079335" lon="13.5969868"><ele>242.0</ele><time>2026-05-02T08:57:21.151Z</time></trkpt><trkpt lat="46.1080438" lon="13.5970805"><ele>242.0</ele><time>2026-05-02T08:57:22.151Z</time></trkpt><trkpt lat="46.1081633" lon="13.5971586"><ele>242.0</ele><time>2026-05-02T08:57:23.151Z</time></trkpt><trkpt lat="46.1082853" lon="13.5972374"><ele>242.0</ele><time>2026-05-02T08:57:24.152Z</time></trkpt><trkpt lat="46.1083976" lon="13.5973297"><ele>242.0</ele><time>2026-05-02T08:57:25.151Z</time></trkpt><trkpt lat="46.1084991" lon="13.5974247"><ele>243.25</ele><time>2026-05-02T08:57:26.151Z</time></trkpt><trkpt lat="46.1085862" lon="13.5975338"><ele>244.5</ele><time>2026-05-02T08:57:27.152Z</time></trkpt><trkpt lat="46.1086537" lon="13.5976647"><ele>245.75</ele><time>2026-05-02T08:57:28.152Z</time></trkpt><trkpt lat="46.1086942" lon="13.5978168"><ele>247.0</ele><time>2026-05-02T08:57:29.151Z</time></trkpt><trkpt lat="46.1087223" lon="13.5979791"><ele>247.0</ele><time>2026-05-02T08:57:30.151Z</time></trkpt><trkpt lat="46.1087561" lon="13.59815"><ele>247.0</ele><time>2026-05-02T08:57:31.151Z</time></trkpt><trkpt lat="46.1088089" lon="13.5983103"><ele>247.0</ele><time>2026-05-02T08:57:32.152Z</time></trkpt><trkpt lat="46.1088744" lon="13.5984728"><ele>247.0</ele><time>2026-05-02T08:57:33.151Z</time></trkpt><trkpt lat="46.1089519" lon="13.598628"><ele>245.5</ele><time>2026-05-02T08:57:34.152Z</time></trkpt><trkpt lat="46.1090361" lon="13.5987756"><ele>244.0</ele><time>2026-05-02T08:57:35.151Z</time></trkpt><trkpt lat="46.1091176" lon="13.5989216"><ele>242.5</ele><time>2026-05-02T08:57:36.152Z</time></trkpt><trkpt lat="46.1091907" lon="13.5990533"><ele>241.0</ele><time>2026-05-02T08:57:37.151Z</time></trkpt><trkpt lat="46.1092577" lon="13.599166"><ele>244.4</ele><time>2026-05-02T08:57:38.151Z</time></trkpt><trkpt lat="46.109331" lon="13.5992626"><ele>247.8</ele><time>2026-05-02T08:57:39.151Z</time></trkpt><trkpt lat="46.1094183" lon="13.5993295"><ele>251.20000000000002</ele><time>2026-05-02T08:57:40.151Z</time></trkpt><trkpt lat="46.1095155" lon="13.5993594"><ele>254.60000000000002</ele><time>2026-05-02T08:57:41.152Z</time></trkpt><trkpt lat="46.1096181" lon="13.59936"><ele>258.0</ele><time>2026-05-02T08:57:42.151Z</time></trkpt><trkpt lat="46.1097254" lon="13.5993611"><ele>258.0</ele><time>2026-05-02T08:57:43.151Z</time></trkpt><trkpt lat="46.1098379" lon="13.5993591"><ele>258.0</ele><time>2026-05-02T08:57:44.151Z</time></trkpt><trkpt lat="46.1099527" lon="13.5993492"><ele>258.0</ele><time>2026-05-02T08:57:45.151Z</time></trkpt><trkpt lat="46.1100545" lon="13.5993079"><ele>258.0</ele><time>2026-05-02T08:57:46.152Z</time></trkpt><trkpt lat="46.1101449" lon="13.5992541"><ele>258.0</ele><time>2026-05-02T08:57:47.152Z</time></trkpt><trkpt lat="46.1102359" lon="13.5992079"><ele>260.25</ele><time>2026-05-02T08:57:48.151Z</time></trkpt><trkpt lat="46.1102939" lon="13.5992554"><ele>262.5</ele><time>2026-05-02T08:57:49.151Z</time></trkpt><trkpt lat="46.1104098" lon="13.5992889"><ele>264.75</ele><time>2026-05-02T08:57:50.151Z</time></trkpt><trkpt lat="46.1105434" lon="13.5993216"><ele>267.0</ele><time>2026-05-02T08:57:51.151Z</time></trkpt><trkpt lat="46.1106828" lon="13.5993277"><ele>270.75</ele><time>2026-05-02T08:57:52.151Z</time></trkpt><trkpt lat="46.1108223" lon="13.5993512"><ele>274.5</ele><time>2026-05-02T08:57:53.151Z</time></trkpt><trkpt lat="46.1109473" lon="13.5993939"><ele>278.25</ele><time>2026-05-02T08:57:54.151Z</time></trkpt><trkpt lat="46.1110507" lon="13.5994314"><ele>282.0</ele><time>2026-05-02T08:57:55.151Z</time></trkpt><trkpt lat="46.1111488" lon="13.599471"><ele>277.4</ele><time>2026-05-02T08:57:56.151Z</time></trkpt><trkpt lat="46.1112382" lon="13.5995185"><ele>272.79999999999995</ele><time>2026-05-02T08:57:57.152Z</time></trkpt><trkpt lat="46.1113236" lon="13.5995814"><ele>268.2</ele><time>2026-05-02T08:57:58.151Z</time></trkpt><trkpt lat="46.1114079" lon="13.5996424"><ele>263.59999999999997</ele><time>2026-05-02T08:57:59.151Z</time></trkpt><trkpt lat="46.111488" lon="13.5997045"><ele>259.0</ele><time>2026-05-02T08:58:00.151Z</time></trkpt><trkpt lat="46.111564" lon="13.5997718"><ele>261.59999999999997</ele><time>2026-05-02T08:58:01.151Z</time></trkpt><trkpt lat="46.1116403" lon="13.599864"><ele>264.2</ele><time>2026-05-02T08:58:02.151Z</time></trkpt><trkpt lat="46.111724" lon="13.5999225"><ele>266.79999999999995</ele><time>2026-05-02T08:58:03.151Z</time></trkpt><trkpt lat="46.1118144" lon="13.5999884"><ele>269.4</ele><time>2026-05-02T08:58:04.152Z</time></trkpt><trkpt lat="46.1119108" lon="13.6000578"><ele>272.0</ele><time>2026-05-02T08:58:05.151Z</time></trkpt><trkpt lat="46.1120076" lon="13.6001339"><ele>272.0</ele><time>2026-05-02T08:58:06.152Z</time></trkpt><trkpt lat="46.1121098" lon="13.6002139"><ele>272.0</ele><time>2026-05-02T08:58:07.152Z</time></trkpt><trkpt lat="46.1122226" lon="13.6002566"><ele>272.0</ele><time>2026-05-02T08:58:08.152Z</time></trkpt><trkpt lat="46.1123401" lon="13.6002797"><ele>272.0</ele><time>2026-05-02T08:58:09.151Z</time></trkpt><trkpt lat="46.1124515" lon="13.6003006"><ele>271.1666666666667</ele><time>2026-05-02T08:58:10.151Z</time></trkpt><trkpt lat="46.1125509" lon="13.6003345"><ele>270.33333333333337</ele><time>2026-05-02T08:58:11.15Z</time></trkpt><trkpt lat="46.112614" lon="13.6003877"><ele>269.5</ele><time>2026-05-02T08:58:12.151Z</time></trkpt><trkpt lat="46.1126322" lon="13.6004873"><ele>268.6666666666667</ele><time>2026-05-02T08:58:13.15Z</time></trkpt><trkpt lat="46.1126488" lon="13.600577"><ele>267.8333333333333</ele><time>2026-05-02T08:58:14.151Z</time></trkpt><trkpt lat="46.1126609" lon="13.6006856"><ele>267.0</ele><time>2026-05-02T08:58:15.15Z</time></trkpt><trkpt lat="46.1126945" lon="13.6007772"><ele>267.0</ele><time>2026-05-02T08:58:16.151Z</time></trkpt><trkpt lat="46.1127471" lon="13.6008758"><ele>267.0</ele><time>2026-05-02T08:58:17.151Z</time></trkpt><trkpt lat="46.1128224" lon="13.6009623"><ele>267.0</ele><time>2026-05-02T08:58:18.15Z</time></trkpt><trkpt lat="46.1129033" lon="13.6010443"><ele>267.0</ele><time>2026-05-02T08:58:19.151Z</time></trkpt><trkpt lat="46.1129953" lon="13.6011243"><ele>267.0</ele><time>2026-05-02T08:58:20.15Z</time></trkpt><trkpt lat="46.1130785" lon="13.601198"><ele>267.5</ele><time>2026-05-02T08:58:21.151Z</time></trkpt><trkpt lat="46.1131449" lon="13.6012963"><ele>268.0</ele><time>2026-05-02T08:58:22.15Z</time></trkpt><trkpt lat="46.1131949" lon="13.6014056"><ele>268.5</ele><time>2026-05-02T08:58:23.15Z</time></trkpt><trkpt lat="46.1132362" lon="13.6014807"><ele>269.0</ele><time>2026-05-02T08:58:24.15Z</time></trkpt><trkpt lat="46.1132963" lon="13.6015322"><ele>269.5</ele><time>2026-05-02T08:58:25.151Z</time></trkpt><trkpt lat="46.113389" lon="13.601579"><ele>270.0</ele><time>2026-05-02T08:58:26.151Z</time></trkpt><trkpt lat="46.1134842" lon="13.6016289"><ele>270.0</ele><time>2026-05-02T08:58:27.151Z</time></trkpt><trkpt lat="46.1135724" lon="13.6017082"><ele>270.0</ele><time>2026-05-02T08:58:28.15Z</time></trkpt><trkpt lat="46.1136334" lon="13.6018153"><ele>270.0</ele><time>2026-05-02T08:58:29.15Z</time></trkpt><trkpt lat="46.11369" lon="13.6019391"><ele>270.0</ele><time>2026-05-02T08:58:30.151Z</time></trkpt><trkpt lat="46.1137429" lon="13.602075"><ele>270.0</ele><time>2026-05-02T08:58:31.15Z</time></trkpt><trkpt lat="46.1138092" lon="13.6022195"><ele>268.5</ele><time>2026-05-02T08:58:32.15Z</time></trkpt><trkpt lat="46.1138782" lon="13.6023594"><ele>267.0</ele><time>2026-05-02T08:58:33.151Z</time></trkpt><trkpt lat="46.1139416" lon="13.6024905"><ele>265.5</ele><time>2026-05-02T08:58:34.15Z</time></trkpt><trkpt lat="46.1140017" lon="13.6026345"><ele>264.0</ele><time>2026-05-02T08:58:35.15Z</time></trkpt><trkpt lat="46.1140494" lon="13.6027988"><ele>266.75</ele><time>2026-05-02T08:58:36.151Z</time></trkpt><trkpt lat="46.1140916" lon="13.6029798"><ele>269.5</ele><time>2026-05-02T08:58:37.15Z</time></trkpt><trkpt lat="46.1141232" lon="13.6031677"><ele>272.25</ele><time>2026-05-02T08:58:38.15Z</time></trkpt><trkpt lat="46.1141443" lon="13.603335"><ele>275.0</ele><time>2026-05-02T08:58:39.15Z</time></trkpt><trkpt lat="46.1141639" lon="13.6034559"><ele>275.0</ele><time>2026-05-02T08:58:40.15Z</time></trkpt><trkpt lat="46.1141787" lon="13.6035518"><ele>275.0</ele><time>2026-05-02T08:58:41.15Z</time></trkpt><trkpt lat="46.1142105" lon="13.6036875"><ele>275.0</ele><time>2026-05-02T08:58:43.15Z</time></trkpt><trkpt lat="46.1142767" lon="13.6037988"><ele>275.0</ele><time>2026-05-02T08:58:45.15Z</time></trkpt><trkpt lat="46.1143314" lon="13.6038949"><ele>275.0</ele><time>2026-05-02T08:58:46.15Z</time></trkpt><trkpt lat="46.1143853" lon="13.6040172"><ele>274.0</ele><time>2026-05-02T08:58:47.15Z</time></trkpt><trkpt lat="46.114429" lon="13.6041249"><ele>273.0</ele><time>2026-05-02T08:58:48.15Z</time></trkpt><trkpt lat="46.1144756" lon="13.6042015"><ele>272.0</ele><time>2026-05-02T08:58:49.15Z</time></trkpt><trkpt lat="46.1145295" lon="13.604262"><ele>271.0</ele><time>2026-05-02T08:58:50.15Z</time></trkpt><trkpt lat="46.1145928" lon="13.6043135"><ele>270.0</ele><time>2026-05-02T08:58:51.15Z</time></trkpt><trkpt lat="46.1146564" lon="13.6043571"><ele>269.0</ele><time>2026-05-02T08:58:52.15Z</time></trkpt><trkpt lat="46.1147187" lon="13.6043832"><ele>268.0</ele><time>2026-05-02T08:58:53.15Z</time></trkpt><trkpt lat="46.1148235" lon="13.6044092"><ele>268.0</ele><time>2026-05-02T08:58:55.151Z</time></trkpt><trkpt lat="46.1149096" lon="13.6043937"><ele>268.0</ele><time>2026-05-02T08:58:57.151Z</time></trkpt><trkpt lat="46.114898" lon="13.6042561"><ele>268.0</ele><time>2026-05-02T08:58:59.151Z</time></trkpt><trkpt lat="46.114861" lon="13.6041147"><ele>268.0</ele><time>2026-05-02T08:59:01.15Z</time></trkpt><trkpt lat="46.1148574" lon="13.6039837"><ele>268.0</ele><time>2026-05-02T08:59:03.151Z</time></trkpt><trkpt lat="46.1148621" lon="13.6038482"><ele>268.0</ele><time>2026-05-02T08:59:05.15Z</time></trkpt><trkpt lat="46.1148738" lon="13.6036705"><ele>268.0</ele><time>2026-05-02T08:59:07.151Z</time></trkpt><trkpt lat="46.1148737" lon="13.6035694"><ele>268.0</ele><time>2026-05-02T08:59:08.15Z</time></trkpt><trkpt lat="46.1148584" lon="13.6034084"><ele>268.0</ele><time>2026-05-02T08:59:10.15Z</time></trkpt><trkpt lat="46.1149069" lon="13.6033073"><ele>268.0</ele><time>2026-05-02T08:59:13.151Z</time></trkpt><trkpt lat="46.1149727" lon="13.6033274"><ele>271.6</ele><time>2026-05-02T08:59:15.15Z</time></trkpt><trkpt lat="46.1150229" lon="13.60343"><ele>275.20000000000005</ele><time>2026-05-02T08:59:17.151Z</time></trkpt><trkpt lat="46.1150493" lon="13.6036075"><ele>278.8</ele><time>2026-05-02T08:59:19.15Z</time></trkpt><trkpt lat="46.1150739" lon="13.6037157"><ele>282.40000000000003</ele><time>2026-05-02T08:59:20.15Z</time></trkpt><trkpt lat="46.1151193" lon="13.6038982"><ele>286.0</ele><time>2026-05-02T08:59:22.151Z</time></trkpt><trkpt lat="46.1151432" lon="13.6040022"><ele>286.0</ele><time>2026-05-02T08:59:23.151Z</time></trkpt><trkpt lat="46.1151821" lon="13.6040908"><ele>286.0</ele><time>2026-05-02T08:59:24.151Z</time></trkpt><trkpt lat="46.1152268" lon="13.6041822"><ele>286.0</ele><time>2026-05-02T08:59:25.15Z</time></trkpt><trkpt lat="46.1152782" lon="13.604262"><ele>286.0</ele><time>2026-05-02T08:59:26.15Z</time></trkpt><trkpt lat="46.1153372" lon="13.6043484"><ele>286.0</ele><time>2026-05-02T08:59:27.15Z</time></trkpt><trkpt lat="46.1153961" lon="13.6044264"><ele>286.0</ele><time>2026-05-02T08:59:28.151Z</time></trkpt><trkpt lat="46.1154513" lon="13.6045094"><ele>284.66666666666663</ele><time>2026-05-02T08:59:29.15Z</time></trkpt><trkpt lat="46.1155047" lon="13.6045922"><ele>283.3333333333333</ele><time>2026-05-02T08:59:30.15Z</time></trkpt><trkpt lat="46.1155526" lon="13.6046716"><ele>282.0</ele><time>2026-05-02T08:59:31.15Z</time></trkpt><trkpt lat="46.115599" lon="13.6047366"><ele>280.6666666666667</ele><time>2026-05-02T08:59:32.15Z</time></trkpt><trkpt lat="46.1156465" lon="13.6048049"><ele>279.33333333333337</ele><time>2026-05-02T08:59:33.15Z</time></trkpt><trkpt lat="46.1157308" lon="13.6049363"><ele>278.0</ele><time>2026-05-02T08:59:35.151Z</time></trkpt><trkpt lat="46.1158081" lon="13.6050184"><ele>283.6666666666667</ele><time>2026-05-02T08:59:37.15Z</time></trkpt><trkpt lat="46.1159026" lon="13.6049439"><ele>289.33333333333337</ele><time>2026-05-02T08:59:39.151Z</time></trkpt><trkpt lat="46.1159584" lon="13.6048825"><ele>295.0</ele><time>2026-05-02T08:59:40.15Z</time></trkpt><trkpt lat="46.1160188" lon="13.6048386"><ele>300.6666666666667</ele><time>2026-05-02T08:59:41.15Z</time></trkpt><trkpt lat="46.1160835" lon="13.6048221"><ele>306.3333333333333</ele><time>2026-05-02T08:59:42.15Z</time></trkpt><trkpt lat="46.1161986" lon="13.6047809"><ele>312.0</ele><time>2026-05-02T08:59:44.15Z</time></trkpt><trkpt lat="46.1162754" lon="13.6047618"><ele>312.0</ele><time>2026-05-02T08:59:45.15Z</time></trkpt><trkpt lat="46.1163555" lon="13.6047253"><ele>312.0</ele><time>2026-05-02T08:59:46.15Z</time></trkpt><trkpt lat="46.1164285" lon="13.6046964"><ele>312.0</ele><time>2026-05-02T08:59:47.15Z</time></trkpt><trkpt lat="46.1165479" lon="13.6046489"><ele>312.0</ele><time>2026-05-02T08:59:49.151Z</time></trkpt><trkpt lat="46.1166676" lon="13.6046366"><ele>312.0</ele><time>2026-05-02T08:59:51.15Z</time></trkpt><trkpt lat="46.1167669" lon="13.604645"><ele>315.4</ele><time>2026-05-02T08:59:53.151Z</time></trkpt><trkpt lat="46.1168432" lon="13.6047113"><ele>318.79999999999995</ele><time>2026-05-02T08:59:55.15Z</time></trkpt><trkpt lat="46.1168711" lon="13.6048289"><ele>322.2</ele><time>2026-05-02T08:59:57.15Z</time></trkpt><trkpt lat="46.1168476" lon="13.6049765"><ele>325.59999999999997</ele><time>2026-05-02T08:59:59.151Z</time></trkpt><trkpt lat="46.1167821" lon="13.6051482"><ele>329.0</ele><time>2026-05-02T09:00:01.15Z</time></trkpt><trkpt lat="46.1167546" lon="13.6052603"><ele>328.6</ele><time>2026-05-02T09:00:02.15Z</time></trkpt><trkpt lat="46.1167269" lon="13.6054265"><ele>328.2</ele><time>2026-05-02T09:00:04.151Z</time></trkpt><trkpt lat="46.1167288" lon="13.6056155"><ele>327.8</ele><time>2026-05-02T09:00:06.151Z</time></trkpt><trkpt lat="46.1167461" lon="13.6057109"><ele>327.40000000000003</ele><time>2026-05-02T09:00:07.15Z</time></trkpt><trkpt lat="46.1167709" lon="13.6058012"><ele>327.0</ele><time>2026-05-02T09:00:08.15Z</time></trkpt><trkpt lat="46.1168263" lon="13.6058724"><ele>327.0</ele><time>2026-05-02T09:00:09.151Z</time></trkpt><trkpt lat="46.1168673" lon="13.605951"><ele>327.0</ele><time>2026-05-02T09:00:10.151Z</time></trkpt><trkpt lat="46.116896" lon="13.6060456"><ele>327.0</ele><time>2026-05-02T09:00:11.15Z</time></trkpt><trkpt lat="46.1169326" lon="13.6061535"><ele>327.0</ele><time>2026-05-02T09:00:12.15Z</time></trkpt><trkpt lat="46.1169647" lon="13.6062697"><ele>327.0</ele><time>2026-05-02T09:00:13.15Z</time></trkpt><trkpt lat="46.116997" lon="13.6063815"><ele>327.0</ele><time>2026-05-02T09:00:14.15Z</time></trkpt><trkpt lat="46.1170106" lon="13.6064869"><ele>324.6666666666667</ele><time>2026-05-02T09:00:15.15Z</time></trkpt><trkpt lat="46.1170075" lon="13.6065914"><ele>322.3333333333333</ele><time>2026-05-02T09:00:16.151Z</time></trkpt><trkpt lat="46.1169945" lon="13.6066893"><ele>320.0</ele><time>2026-05-02T09:00:17.15Z</time></trkpt><trkpt lat="46.1170057" lon="13.6067827"><ele>317.66666666666663</ele><time>2026-05-02T09:00:18.15Z</time></trkpt><trkpt lat="46.1170719" lon="13.6069082"><ele>315.3333333333333</ele><time>2026-05-02T09:00:20.151Z</time></trkpt><trkpt lat="46.1171214" lon="13.6069823"><ele>313.0</ele><time>2026-05-02T09:00:21.15Z</time></trkpt><trkpt lat="46.1171784" lon="13.6070668"><ele>310.5</ele><time>2026-05-02T09:00:22.15Z</time></trkpt><trkpt lat="46.1172207" lon="13.6071613"><ele>308.0</ele><time>2026-05-02T09:00:23.15Z</time></trkpt><trkpt lat="46.117261" lon="13.6072563"><ele>305.5</ele><time>2026-05-02T09:00:24.15Z</time></trkpt><trkpt lat="46.1173322" lon="13.6073967"><ele>303.0</ele><time>2026-05-02T09:00:26.15Z</time></trkpt><trkpt lat="46.1173828" lon="13.6074673"><ele>300.5</ele><time>2026-05-02T09:00:27.15Z</time></trkpt><trkpt lat="46.1174354" lon="13.6075446"><ele>298.0</ele><time>2026-05-02T09:00:28.15Z</time></trkpt><trkpt lat="46.1174742" lon="13.6076347"><ele>304.0</ele><time>2026-05-02T09:00:29.15Z</time></trkpt><trkpt lat="46.1175184" lon="13.6077362"><ele>310.0</ele><time>2026-05-02T09:00:30.15Z</time></trkpt><trkpt lat="46.1175839" lon="13.6078586"><ele>316.0</ele><time>2026-05-02T09:00:31.151Z</time></trkpt><trkpt lat="46.1176384" lon="13.6079809"><ele>322.0</ele><time>2026-05-02T09:00:32.15Z</time></trkpt><trkpt lat="46.1176834" lon="13.6080692"><ele>328.0</ele><time>2026-05-02T09:00:33.151Z</time></trkpt><trkpt lat="46.1177281" lon="13.6081775"><ele>329.59999999999997</ele><time>2026-05-02T09:00:34.15Z</time></trkpt><trkpt lat="46.1177668" lon="13.6082806"><ele>331.2</ele><time>2026-05-02T09:00:35.151Z</time></trkpt><trkpt lat="46.117797" lon="13.6084118"><ele>332.8</ele><time>2026-05-02T09:00:36.15Z</time></trkpt><trkpt lat="46.1178298" lon="13.608559"><ele>334.4</ele><time>2026-05-02T09:00:37.151Z</time></trkpt><trkpt lat="46.1178658" lon="13.608689"><ele>336.0</ele><time>2026-05-02T09:00:38.15Z</time></trkpt><trkpt lat="46.1179066" lon="13.6088292"><ele>336.0</ele><time>2026-05-02T09:00:39.15Z</time></trkpt><trkpt lat="46.1179479" lon="13.6089451"><ele>336.0</ele><time>2026-05-02T09:00:40.15Z</time></trkpt><trkpt lat="46.117995" lon="13.6090646"><ele>336.0</ele><time>2026-05-02T09:00:41.151Z</time></trkpt><trkpt lat="46.1180391" lon="13.6091986"><ele>336.0</ele><time>2026-05-02T09:00:42.151Z</time></trkpt><trkpt lat="46.1180762" lon="13.6093197"><ele>336.0</ele><time>2026-05-02T09:00:43.15Z</time></trkpt><trkpt lat="46.1180987" lon="13.6094492"><ele>334.3333333333333</ele><time>2026-05-02T09:00:44.15Z</time></trkpt><trkpt lat="46.1181264" lon="13.6095792"><ele>332.6666666666667</ele><time>2026-05-02T09:00:45.151Z</time></trkpt><trkpt lat="46.1181633" lon="13.609691"><ele>331.0</ele><time>2026-05-02T09:00:46.15Z</time></trkpt><trkpt lat="46.1182287" lon="13.6098091"><ele>329.33333333333337</ele><time>2026-05-02T09:00:48.15Z</time></trkpt><trkpt lat="46.1183187" lon="13.6098182"><ele>327.6666666666667</ele><time>2026-05-02T09:00:50.15Z</time></trkpt><trkpt lat="46.1183887" lon="13.6098074"><ele>326.0</ele><time>2026-05-02T09:00:51.15Z</time></trkpt><trkpt lat="46.1184695" lon="13.6097868"><ele>330.0</ele><time>2026-05-02T09:00:52.151Z</time></trkpt><trkpt lat="46.118554" lon="13.6097618"><ele>334.0</ele><time>2026-05-02T09:00:53.15Z</time></trkpt><trkpt lat="46.1186338" lon="13.6097406"><ele>338.0</ele><time>2026-05-02T09:00:54.15Z</time></trkpt><trkpt lat="46.118703" lon="13.6097049"><ele>342.0</ele><time>2026-05-02T09:00:55.15Z</time></trkpt><trkpt lat="46.1187612" lon="13.609657"><ele>346.0</ele><time>2026-05-02T09:00:56.15Z</time></trkpt><trkpt lat="46.1188318" lon="13.609592"><ele>350.0</ele><time>2026-05-02T09:00:57.15Z</time></trkpt><trkpt lat="46.1189078" lon="13.6095192"><ele>354.1666666666667</ele><time>2026-05-02T09:00:58.15Z</time></trkpt><trkpt lat="46.1189883" lon="13.60947"><ele>358.33333333333337</ele><time>2026-05-02T09:00:59.15Z</time></trkpt><trkpt lat="46.1190727" lon="13.6094136"><ele>362.5</ele><time>2026-05-02T09:01:00.15Z</time></trkpt><trkpt lat="46.1191552" lon="13.6093953"><ele>366.6666666666667</ele><time>2026-05-02T09:01:01.15Z</time></trkpt><trkpt lat="46.1192211" lon="13.6093831"><ele>370.8333333333333</ele><time>2026-05-02T09:01:02.15Z</time></trkpt><trkpt lat="46.1192869" lon="13.6093698"><ele>375.0</ele><time>2026-05-02T09:01:03.151Z</time></trkpt><trkpt lat="46.1193781" lon="13.6093632"><ele>376.3333333333333</ele><time>2026-05-02T09:01:05.151Z</time></trkpt><trkpt lat="46.1194483" lon="13.6094229"><ele>377.6666666666667</ele><time>2026-05-02T09:01:07.15Z</time></trkpt><trkpt lat="46.119419" lon="13.609558"><ele>379.0</ele><time>2026-05-02T09:01:10.151Z</time></trkpt><trkpt lat="46.1194061" lon="13.6096512"><ele>380.33333333333337</ele><time>2026-05-02T09:01:11.15Z</time></trkpt><trkpt lat="46.1194274" lon="13.6097439"><ele>381.6666666666667</ele><time>2026-05-02T09:01:12.15Z</time></trkpt><trkpt lat="46.1194623" lon="13.6098694"><ele>383.0</ele><time>2026-05-02T09:01:13.151Z</time></trkpt><trkpt lat="46.1195025" lon="13.6100072"><ele>377.4</ele><time>2026-05-02T09:01:14.15Z</time></trkpt><trkpt lat="46.1195389" lon="13.6101483"><ele>371.79999999999995</ele><time>2026-05-02T09:01:15.15Z</time></trkpt><trkpt lat="46.1195614" lon="13.6102815"><ele>366.2</ele><time>2026-05-02T09:01:16.15Z</time></trkpt><trkpt lat="46.1195819" lon="13.6104147"><ele>360.6</ele><time>2026-05-02T09:01:17.15Z</time></trkpt><trkpt lat="46.1196123" lon="13.6105457"><ele>355.0</ele><time>2026-05-02T09:01:18.15Z</time></trkpt><trkpt lat="46.1196333" lon="13.6106806"><ele>352.66666666666663</ele><time>2026-05-02T09:01:19.15Z</time></trkpt><trkpt lat="46.1196359" lon="13.6107957"><ele>350.3333333333333</ele><time>2026-05-02T09:01:20.151Z</time></trkpt><trkpt lat="46.1196496" lon="13.6108928"><ele>348.0</ele><time>2026-05-02T09:01:21.151Z</time></trkpt><trkpt lat="46.1196949" lon="13.6110127"><ele>345.6666666666667</ele><time>2026-05-02T09:01:23.151Z</time></trkpt><trkpt lat="46.1197479" lon="13.6110665"><ele>343.33333333333337</ele><time>2026-05-02T09:01:24.151Z</time></trkpt><trkpt lat="46.1198146" lon="13.6111172"><ele>341.0</ele><time>2026-05-02T09:01:25.151Z</time></trkpt><trkpt lat="46.1198886" lon="13.6111664"><ele>345.1666666666667</ele><time>2026-05-02T09:01:26.151Z</time></trkpt><trkpt lat="46.1199594" lon="13.611222"><ele>349.33333333333337</ele><time>2026-05-02T09:01:27.15Z</time></trkpt><trkpt lat="46.1200223" lon="13.6112931"><ele>353.5</ele><time>2026-05-02T09:01:28.15Z</time></trkpt><trkpt lat="46.1200594" lon="13.6113833"><ele>357.6666666666667</ele><time>2026-05-02T09:01:29.15Z</time></trkpt><trkpt lat="46.120102" lon="13.6114744"><ele>361.8333333333333</ele><time>2026-05-02T09:01:30.151Z</time></trkpt><trkpt lat="46.1201421" lon="13.6115892"><ele>366.0</ele><time>2026-05-02T09:01:31.151Z</time></trkpt><trkpt lat="46.1201834" lon="13.6116716"><ele>366.0</ele><time>2026-05-02T09:01:32.15Z</time></trkpt><trkpt lat="46.1202693" lon="13.6118077"><ele>366.0</ele><time>2026-05-02T09:01:34.151Z</time></trkpt><trkpt lat="46.1203217" lon="13.6118777"><ele>366.0</ele><time>2026-05-02T09:01:35.151Z</time></trkpt><trkpt lat="46.1203841" lon="13.6119357"><ele>366.0</ele><time>2026-05-02T09:01:36.151Z</time></trkpt><trkpt lat="46.1204999" lon="13.6119911"><ele>366.0</ele><time>2026-05-02T09:01:38.151Z</time></trkpt><trkpt lat="46.1205667" lon="13.6119925"><ele>366.0</ele><time>2026-05-02T09:01:39.151Z</time></trkpt><trkpt lat="46.1206429" lon="13.6119808"><ele>366.0</ele><time>2026-05-02T09:01:40.151Z</time></trkpt><trkpt lat="46.1207315" lon="13.61196"><ele>366.0</ele><time>2026-05-02T09:01:41.15Z</time></trkpt><trkpt lat="46.1208098" lon="13.6119332"><ele>366.0</ele><time>2026-05-02T09:01:42.15Z</time></trkpt><trkpt lat="46.1208887" lon="13.6118908"><ele>366.0</ele><time>2026-05-02T09:01:43.15Z</time></trkpt><trkpt lat="46.1209679" lon="13.6118273"><ele>366.0</ele><time>2026-05-02T09:01:44.15Z</time></trkpt><trkpt lat="46.1210487" lon="13.6117694"><ele>371.1666666666667</ele><time>2026-05-02T09:01:45.15Z</time></trkpt><trkpt lat="46.1211335" lon="13.6117145"><ele>376.33333333333337</ele><time>2026-05-02T09:01:46.15Z</time></trkpt><trkpt lat="46.1212032" lon="13.6116482"><ele>381.5</ele><time>2026-05-02T09:01:47.15Z</time></trkpt><trkpt lat="46.1212545" lon="13.611581"><ele>386.6666666666667</ele><time>2026-05-02T09:01:48.15Z</time></trkpt><trkpt lat="46.1213352" lon="13.6114684"><ele>391.83333333333337</ele><time>2026-05-02T09:01:50.15Z</time></trkpt><trkpt lat="46.1213958" lon="13.6114363"><ele>397.0</ele><time>2026-05-02T09:01:52.151Z</time></trkpt><trkpt lat="46.1214603" lon="13.6114555"><ele>397.00000000000006</ele><time>2026-05-02T09:01:54.151Z</time></trkpt><trkpt lat="46.1215005" lon="13.6115293"><ele>397.0</ele><time>2026-05-02T09:01:55.15Z</time></trkpt><trkpt lat="46.1215338" lon="13.6116389"><ele>397.0</ele><time>2026-05-02T09:01:56.151Z</time></trkpt><trkpt lat="46.1215605" lon="13.6117585"><ele>397.0</ele><time>2026-05-02T09:01:57.15Z</time></trkpt><trkpt lat="46.121589" lon="13.6118852"><ele>397.00000000000006</ele><time>2026-05-02T09:01:58.151Z</time></trkpt><trkpt lat="46.1215984" lon="13.6119806"><ele>397.0</ele><time>2026-05-02T09:01:59.15Z</time></trkpt><trkpt lat="46.1215997" lon="13.6120867"><ele>396.6666666666667</ele><time>2026-05-02T09:02:00.15Z</time></trkpt><trkpt lat="46.1216225" lon="13.6122019"><ele>396.33333333333337</ele><time>2026-05-02T09:02:01.15Z</time></trkpt><trkpt lat="46.1216413" lon="13.6123352"><ele>396.0</ele><time>2026-05-02T09:02:02.15Z</time></trkpt><trkpt lat="46.1216626" lon="13.6124556"><ele>395.66666666666663</ele><time>2026-05-02T09:02:03.151Z</time></trkpt><trkpt lat="46.1216773" lon="13.6125758"><ele>395.3333333333333</ele><time>2026-05-02T09:02:04.15Z</time></trkpt><trkpt lat="46.1216865" lon="13.6126845"><ele>395.0</ele><time>2026-05-02T09:02:05.15Z</time></trkpt><trkpt lat="46.1216974" lon="13.6127819"><ele>395.0</ele><time>2026-05-02T09:02:06.15Z</time></trkpt><trkpt lat="46.1217141" lon="13.6129188"><ele>395.0</ele><time>2026-05-02T09:02:08.15Z</time></trkpt><trkpt lat="46.1217531" lon="13.6129916"><ele>395.0</ele><time>2026-05-02T09:02:10.151Z</time></trkpt><trkpt lat="46.1217922" lon="13.6128942"><ele>395.0</ele><time>2026-05-02T09:02:14.15Z</time></trkpt><trkpt lat="46.1217517" lon="13.6127355"><ele>395.0</ele><time>2026-05-02T09:02:16.149Z</time></trkpt><trkpt lat="46.1217396" lon="13.6125548"><ele>394.99999999999994</ele><time>2026-05-02T09:02:18.149Z</time></trkpt><trkpt lat="46.1217441" lon="13.612453"><ele>395.0</ele><time>2026-05-02T09:02:19.15Z</time></trkpt><trkpt lat="46.1217561" lon="13.6123331"><ele>395.0</ele><time>2026-05-02T09:02:20.15Z</time></trkpt><trkpt lat="46.1217628" lon="13.6122168"><ele>395.0</ele><time>2026-05-02T09:02:21.15Z</time></trkpt><trkpt lat="46.1217665" lon="13.612104"><ele>394.99999999999994</ele><time>2026-05-02T09:02:22.149Z</time></trkpt><trkpt lat="46.1217814" lon="13.6119779"><ele>395.0</ele><time>2026-05-02T09:02:23.149Z</time></trkpt><trkpt lat="46.1217971" lon="13.6118452"><ele>396.8333333333333</ele><time>2026-05-02T09:02:24.149Z</time></trkpt><trkpt lat="46.1218099" lon="13.6117124"><ele>398.66666666666663</ele><time>2026-05-02T09:02:25.149Z</time></trkpt><trkpt lat="46.1218086" lon="13.6115781"><ele>400.5</ele><time>2026-05-02T09:02:26.149Z</time></trkpt><trkpt lat="46.1217985" lon="13.6114445"><ele>402.33333333333337</ele><time>2026-05-02T09:02:27.15Z</time></trkpt><trkpt lat="46.1217919" lon="13.611319"><ele>404.1666666666667</ele><time>2026-05-02T09:02:28.15Z</time></trkpt><trkpt lat="46.1217818" lon="13.6112115"><ele>406.0</ele><time>2026-05-02T09:02:29.15Z</time></trkpt><trkpt lat="46.1217757" lon="13.6110759"><ele>410.0</ele><time>2026-05-02T09:02:30.151Z</time></trkpt><trkpt lat="46.1217644" lon="13.6109589"><ele>414.0</ele><time>2026-05-02T09:02:31.151Z</time></trkpt><trkpt lat="46.1217424" lon="13.6108487"><ele>418.0</ele><time>2026-05-02T09:02:32.15Z</time></trkpt><trkpt lat="46.1217061" lon="13.6107169"><ele>422.0</ele><time>2026-05-02T09:02:34.151Z</time></trkpt><trkpt lat="46.1216176" lon="13.6106641"><ele>426.0</ele><time>2026-05-02T09:02:37.15Z</time></trkpt><trkpt lat="46.1214836" lon="13.6107316"><ele>426.0</ele><time>2026-05-02T09:02:39.15Z</time></trkpt><trkpt lat="46.1214058" lon="13.6107811"><ele>426.0</ele><time>2026-05-02T09:02:40.15Z</time></trkpt><trkpt lat="46.1213137" lon="13.6108204"><ele>426.0</ele><time>2026-05-02T09:02:41.15Z</time></trkpt><trkpt lat="46.1212357" lon="13.6108493"><ele>426.0</ele><time>2026-05-02T09:02:42.15Z</time></trkpt><trkpt lat="46.1211601" lon="13.6108753"><ele>426.0</ele><time>2026-05-02T09:02:43.149Z</time></trkpt><trkpt lat="46.1210887" lon="13.6109125"><ele>426.0</ele><time>2026-05-02T09:02:44.15Z</time></trkpt><trkpt lat="46.121014" lon="13.6109663"><ele>426.0</ele><time>2026-05-02T09:02:45.149Z</time></trkpt><trkpt lat="46.120945" lon="13.611011"><ele>426.0</ele><time>2026-05-02T09:02:46.149Z</time></trkpt><trkpt lat="46.1208332" lon="13.6110363"><ele>426.0</ele><time>2026-05-02T09:02:48.149Z</time></trkpt><trkpt lat="46.1207351" lon="13.6110007"><ele>426.0</ele><time>2026-05-02T09:02:50.15Z</time></trkpt><trkpt lat="46.1206579" lon="13.6108692"><ele>426.0</ele><time>2026-05-02T09:02:52.149Z</time></trkpt><trkpt lat="46.1206097" lon="13.6106956"><ele>420.6666666666667</ele><time>2026-05-02T09:02:54.149Z</time></trkpt><trkpt lat="46.1205839" lon="13.6105865"><ele>415.33333333333337</ele><time>2026-05-02T09:02:55.15Z</time></trkpt><trkpt lat="46.1205556" lon="13.6104811"><ele>410.0</ele><time>2026-05-02T09:02:56.149Z</time></trkpt><trkpt lat="46.1205175" lon="13.61032"><ele>404.6666666666667</ele><time>2026-05-02T09:02:58.149Z</time></trkpt><trkpt lat="46.1204922" lon="13.6102235"><ele>399.33333333333337</ele><time>2026-05-02T09:02:59.15Z</time></trkpt><trkpt lat="46.1204833" lon="13.6101242"><ele>394.0</ele><time>2026-05-02T09:03:00.15Z</time></trkpt><trkpt lat="46.120491" lon="13.609971"><ele>394.0</ele><time>2026-05-02T09:03:02.149Z</time></trkpt><trkpt lat="46.1204953" lon="13.6098662"><ele>394.0</ele><time>2026-05-02T09:03:03.15Z</time></trkpt><trkpt lat="46.1205154" lon="13.6097659"><ele>394.0</ele><time>2026-05-02T09:03:04.15Z</time></trkpt><trkpt lat="46.120528" lon="13.6096609"><ele>394.0</ele><time>2026-05-02T09:03:05.149Z</time></trkpt><trkpt lat="46.1205223" lon="13.6095524"><ele>394.0</ele><time>2026-05-02T09:03:06.15Z</time></trkpt><trkpt lat="46.1205167" lon="13.6094446"><ele>394.0</ele><time>2026-05-02T09:03:07.149Z</time></trkpt><trkpt lat="46.1205296" lon="13.6093531"><ele>394.0</ele><time>2026-05-02T09:03:08.149Z</time></trkpt><trkpt lat="46.1205615" lon="13.6092606"><ele>395.6666666666667</ele><time>2026-05-02T09:03:09.149Z</time></trkpt><trkpt lat="46.1205979" lon="13.6091595"><ele>397.33333333333337</ele><time>2026-05-02T09:03:10.149Z</time></trkpt><trkpt lat="46.1206412" lon="13.6090415"><ele>399.0</ele><time>2026-05-02T09:03:11.149Z</time></trkpt><trkpt lat="46.120668" lon="13.6089331"><ele>400.66666666666663</ele><time>2026-05-02T09:03:12.149Z</time></trkpt><trkpt lat="46.1206833" lon="13.6088246"><ele>402.3333333333333</ele><time>2026-05-02T09:03:13.149Z</time></trkpt><trkpt lat="46.1206811" lon="13.6087002"><ele>404.0</ele><time>2026-05-02T09:03:14.15Z</time></trkpt><trkpt lat="46.1206717" lon="13.6085619"><ele>405.66666666666663</ele><time>2026-05-02T09:03:15.15Z</time></trkpt><trkpt lat="46.120667" lon="13.60845"><ele>407.3333333333333</ele><time>2026-05-02T09:03:16.149Z</time></trkpt><trkpt lat="46.1206784" lon="13.6083568"><ele>409.0</ele><time>2026-05-02T09:03:17.149Z</time></trkpt><trkpt lat="46.1207128" lon="13.6082721"><ele>410.66666666666663</ele><time>2026-05-02T09:03:18.149Z</time></trkpt><trkpt lat="46.1207505" lon="13.6081825"><ele>412.3333333333333</ele><time>2026-05-02T09:03:19.149Z</time></trkpt><trkpt lat="46.1208004" lon="13.6080729"><ele>414.0</ele><time>2026-05-02T09:03:20.149Z</time></trkpt><trkpt lat="46.1208635" lon="13.6079414"><ele>421.0</ele><time>2026-05-02T09:03:21.15Z</time></trkpt><trkpt lat="46.120906" lon="13.6078127"><ele>428.0</ele><time>2026-05-02T09:03:22.149Z</time></trkpt><trkpt lat="46.1209366" lon="13.6077244"><ele>435.0</ele><time>2026-05-02T09:03:23.149Z</time></trkpt><trkpt lat="46.1210246" lon="13.6075969"><ele>442.0</ele><time>2026-05-02T09:03:25.149Z</time></trkpt><trkpt lat="46.1210855" lon="13.6075319"><ele>449.0</ele><time>2026-05-02T09:03:26.149Z</time></trkpt><trkpt lat="46.1211601" lon="13.6074563"><ele>448.99999999999994</ele><time>2026-05-02T09:03:27.149Z</time></trkpt><trkpt lat="46.1212351" lon="13.607367"><ele>449.0</ele><time>2026-05-02T09:03:28.15Z</time></trkpt><trkpt lat="46.1212974" lon="13.6072799"><ele>449.0</ele><time>2026-05-02T09:03:29.149Z</time></trkpt><trkpt lat="46.1213494" lon="13.6071958"><ele>449.0</ele><time>2026-05-02T09:03:30.149Z</time></trkpt><trkpt lat="46.1213967" lon="13.6070574"><ele>448.99999999999994</ele><time>2026-05-02T09:03:32.15Z</time></trkpt><trkpt lat="46.1213706" lon="13.6069526"><ele>449.0</ele><time>2026-05-02T09:03:35.149Z</time></trkpt><trkpt lat="46.1213015" lon="13.6069504"><ele>452.8333333333333</ele><time>2026-05-02T09:03:37.15Z</time></trkpt><trkpt lat="46.1211864" lon="13.6069161"><ele>456.66666666666663</ele><time>2026-05-02T09:03:39.149Z</time></trkpt><trkpt lat="46.1211163" lon="13.6068784"><ele>460.5</ele><time>2026-05-02T09:03:40.149Z</time></trkpt><trkpt lat="46.1210368" lon="13.6068433"><ele>464.33333333333337</ele><time>2026-05-02T09:03:41.15Z</time></trkpt><trkpt lat="46.1209606" lon="13.6068002"><ele>468.1666666666667</ele><time>2026-05-02T09:03:42.149Z</time></trkpt><trkpt lat="46.1208815" lon="13.6067511"><ele>472.0</ele><time>2026-05-02T09:03:43.149Z</time></trkpt><trkpt lat="46.1208166" lon="13.6067148"><ele>472.0</ele><time>2026-05-02T09:03:44.15Z</time></trkpt><trkpt lat="46.1207418" lon="13.6066655"><ele>472.00000000000006</ele><time>2026-05-02T09:03:45.149Z</time></trkpt><trkpt lat="46.1206763" lon="13.6066228"><ele>472.00000000000006</ele><time>2026-05-02T09:03:46.15Z</time></trkpt><trkpt lat="46.1206022" lon="13.6065144"><ele>472.0</ele><time>2026-05-02T09:03:48.149Z</time></trkpt><trkpt lat="46.1205718" lon="13.60634"><ele>472.0</ele><time>2026-05-02T09:03:50.15Z</time></trkpt><trkpt lat="46.1205594" lon="13.6062369"><ele>473.1666666666667</ele><time>2026-05-02T09:03:51.149Z</time></trkpt><trkpt lat="46.1205066" lon="13.6061184"><ele>474.33333333333337</ele><time>2026-05-02T09:03:53.15Z</time></trkpt><trkpt lat="46.1203926" lon="13.6061492"><ele>475.5</ele><time>2026-05-02T09:03:55.15Z</time></trkpt><trkpt lat="46.1203258" lon="13.606185"><ele>476.66666666666663</ele><time>2026-05-02T09:03:56.15Z</time></trkpt><trkpt lat="46.1202487" lon="13.6062028"><ele>477.8333333333333</ele><time>2026-05-02T09:03:57.15Z</time></trkpt><trkpt lat="46.120173" lon="13.6062189"><ele>479.0</ele><time>2026-05-02T09:03:58.15Z</time></trkpt><trkpt lat="46.1200926" lon="13.6062469"><ele>478.99999999999994</ele><time>2026-05-02T09:03:59.149Z</time></trkpt><trkpt lat="46.1200101" lon="13.6062752"><ele>479.0</ele><time>2026-05-02T09:04:00.149Z</time></trkpt><trkpt lat="46.1199213" lon="13.606315"><ele>479.0</ele><time>2026-05-02T09:04:01.149Z</time></trkpt><trkpt lat="46.1198268" lon="13.6063433"><ele>479.0</ele><time>2026-05-02T09:04:02.149Z</time></trkpt><trkpt lat="46.1197445" lon="13.6063613"><ele>478.99999999999994</ele><time>2026-05-02T09:04:03.149Z</time></trkpt><trkpt lat="46.119678" lon="13.6064012"><ele>479.0</ele><time>2026-05-02T09:04:04.15Z</time></trkpt><trkpt lat="46.1196188" lon="13.6064535"><ele>477.4</ele><time>2026-05-02T09:04:05.149Z</time></trkpt><trkpt lat="46.1195195" lon="13.606495"><ele>475.79999999999995</ele><time>2026-05-02T09:04:07.149Z</time></trkpt><trkpt lat="46.1194464" lon="13.606469"><ele>474.20000000000005</ele><time>2026-05-02T09:04:09.149Z</time></trkpt><trkpt lat="46.1194267" lon="13.6063797"><ele>472.6</ele><time>2026-05-02T09:04:11.149Z</time></trkpt><trkpt lat="46.1194593" lon="13.6062371"><ele>471.0</ele><time>2026-05-02T09:04:13.15Z</time></trkpt><trkpt lat="46.119507" lon="13.6060951"><ele>471.0</ele><time>2026-05-02T09:04:15.149Z</time></trkpt><trkpt lat="46.1195329" lon="13.605947"><ele>471.0</ele><time>2026-05-02T09:04:17.149Z</time></trkpt><trkpt lat="46.1195602" lon="13.6057932"><ele>471.0</ele><time>2026-05-02T09:04:19.149Z</time></trkpt><trkpt lat="46.1195892" lon="13.605703"><ele>471.0</ele><time>2026-05-02T09:04:20.15Z</time></trkpt><trkpt lat="46.1196227" lon="13.6056107"><ele>471.0</ele><time>2026-05-02T09:04:21.149Z</time></trkpt><trkpt lat="46.1196551" lon="13.6055117"><ele>471.0</ele><time>2026-05-02T09:04:22.15Z</time></trkpt><trkpt lat="46.1197297" lon="13.6053759"><ele>469.57142857142867</ele><time>2026-05-02T09:04:24.149Z</time></trkpt><trkpt lat="46.1197687" lon="13.6052984"><ele>468.14285714285717</ele><time>2026-05-02T09:04:25.149Z</time></trkpt><trkpt lat="46.1198193" lon="13.6052425"><ele>466.7142857142858</ele><time>2026-05-02T09:04:26.149Z</time></trkpt><trkpt lat="46.1198748" lon="13.6051969"><ele>465.28571428571433</ele><time>2026-05-02T09:04:27.149Z</time></trkpt><trkpt lat="46.119931" lon="13.6051547"><ele>463.8571428571429</ele><time>2026-05-02T09:04:28.15Z</time></trkpt><trkpt lat="46.1199878" lon="13.6051138"><ele>462.42857142857144</ele><time>2026-05-02T09:04:29.149Z</time></trkpt><trkpt lat="46.1200517" lon="13.6050676"><ele>461.0</ele><time>2026-05-02T09:04:30.149Z</time></trkpt><trkpt lat="46.1201244" lon="13.6050156"><ele>467.3333333333333</ele><time>2026-05-02T09:04:31.15Z</time></trkpt><trkpt lat="46.1201923" lon="13.6049529"><ele>473.66666666666663</ele><time>2026-05-02T09:04:32.149Z</time></trkpt><trkpt lat="46.1202553" lon="13.6048986"><ele>480.0</ele><time>2026-05-02T09:04:33.149Z</time></trkpt><trkpt lat="46.1203614" lon="13.6048488"><ele>486.33333333333337</ele><time>2026-05-02T09:04:35.149Z</time></trkpt><trkpt lat="46.1204588" lon="13.6048743"><ele>492.6666666666667</ele><time>2026-05-02T09:04:37.15Z</time></trkpt><trkpt lat="46.1205299" lon="13.6048645"><ele>499.0</ele><time>2026-05-02T09:04:38.149Z</time></trkpt><trkpt lat="46.1206472" lon="13.6048298"><ele>499.00000000000006</ele><time>2026-05-02T09:04:40.149Z</time></trkpt><trkpt lat="46.1207072" lon="13.6048011"><ele>499.0</ele><time>2026-05-02T09:04:41.15Z</time></trkpt><trkpt lat="46.1207815" lon="13.604724"><ele>499.0</ele><time>2026-05-02T09:04:43.15Z</time></trkpt><trkpt lat="46.1208733" lon="13.6046589"><ele>499.0</ele><time>2026-05-02T09:04:45.15Z</time></trkpt><trkpt lat="46.1209422" lon="13.6046542"><ele>499.00000000000006</ele><time>2026-05-02T09:04:46.149Z</time></trkpt><trkpt lat="46.1210293" lon="13.6045913"><ele>499.0</ele><time>2026-05-02T09:04:48.15Z</time></trkpt><trkpt lat="46.1210245" lon="13.6044907"><ele>498.83333333333337</ele><time>2026-05-02T09:04:50.149Z</time></trkpt><trkpt lat="46.1209569" lon="13.604465"><ele>498.6666666666667</ele><time>2026-05-02T09:04:52.149Z</time></trkpt><trkpt lat="46.1208508" lon="13.6044759"><ele>498.5</ele><time>2026-05-02T09:04:54.149Z</time></trkpt><trkpt lat="46.1207759" lon="13.6044603"><ele>498.33333333333337</ele><time>2026-05-02T09:04:55.149Z</time></trkpt><trkpt lat="46.1207105" lon="13.6044258"><ele>498.1666666666667</ele><time>2026-05-02T09:04:56.15Z</time></trkpt><trkpt lat="46.1206602" lon="13.6042819"><ele>498.0</ele><time>2026-05-02T09:04:58.149Z</time></trkpt><trkpt lat="46.1206499" lon="13.6041767"><ele>498.0</ele><time>2026-05-02T09:04:59.15Z</time></trkpt><trkpt lat="46.1206385" lon="13.6040641"><ele>498.0</ele><time>2026-05-02T09:05:00.149Z</time></trkpt><trkpt lat="46.1206309" lon="13.603948"><ele>498.0</ele><time>2026-05-02T09:05:01.149Z</time></trkpt><trkpt lat="46.120612" lon="13.6038336"><ele>498.0</ele><time>2026-05-02T09:05:02.15Z</time></trkpt><trkpt lat="46.120575" lon="13.6037428"><ele>498.0</ele><time>2026-05-02T09:05:03.149Z</time></trkpt><trkpt lat="46.1205416" lon="13.6036513"><ele>498.0</ele><time>2026-05-02T09:05:04.149Z</time></trkpt><trkpt lat="46.1205227" lon="13.6035611"><ele>500.0</ele><time>2026-05-02T09:05:05.149Z</time></trkpt><trkpt lat="46.1205263" lon="13.6033811"><ele>501.99999999999994</ele><time>2026-05-02T09:05:07.149Z</time></trkpt><trkpt lat="46.1205435" lon="13.6032575"><ele>503.99999999999994</ele><time>2026-05-02T09:05:08.149Z</time></trkpt><trkpt lat="46.1205639" lon="13.6031276"><ele>506.0</ele><time>2026-05-02T09:05:09.15Z</time></trkpt><trkpt lat="46.1205832" lon="13.6030161"><ele>508.0</ele><time>2026-05-02T09:05:10.149Z</time></trkpt><trkpt lat="46.1206081" lon="13.6029161"><ele>508.2</ele><time>2026-05-02T09:05:11.15Z</time></trkpt><trkpt lat="46.1206443" lon="13.6028134"><ele>508.4</ele><time>2026-05-02T09:05:12.149Z</time></trkpt><trkpt lat="46.1206846" lon="13.6027012"><ele>508.59999999999997</ele><time>2026-05-02T09:05:13.149Z</time></trkpt><trkpt lat="46.120734" lon="13.6025935"><ele>508.79999999999995</ele><time>2026-05-02T09:05:14.149Z</time></trkpt><trkpt lat="46.1207692" lon="13.6024916"><ele>509.0</ele><time>2026-05-02T09:05:15.149Z</time></trkpt><trkpt lat="46.120799" lon="13.6023296"><ele>520.0</ele><time>2026-05-02T09:05:17.149Z</time></trkpt><trkpt lat="46.1207933" lon="13.602151"><ele>531.0</ele><time>2026-05-02T09:05:19.149Z</time></trkpt><trkpt lat="46.1207819" lon="13.6020505"><ele>542.0</ele><time>2026-05-02T09:05:20.15Z</time></trkpt><trkpt lat="46.1207682" lon="13.6019277"><ele>553.0</ele><time>2026-05-02T09:05:21.15Z</time></trkpt><trkpt lat="46.1207679" lon="13.6018211"><ele>564.0</ele><time>2026-05-02T09:05:22.15Z</time></trkpt><trkpt lat="46.1207949" lon="13.6016458"><ele>564.4</ele><time>2026-05-02T09:05:24.149Z</time></trkpt><trkpt lat="46.1208151" lon="13.6015407"><ele>564.8</ele><time>2026-05-02T09:05:25.149Z</time></trkpt><trkpt lat="46.120841" lon="13.6014052"><ele>565.2</ele><time>2026-05-02T09:05:26.149Z</time></trkpt><trkpt lat="46.1208727" lon="13.6012626"><ele>565.6</ele><time>2026-05-02T09:05:27.149Z</time></trkpt><trkpt lat="46.1208936" lon="13.6011315"><ele>566.0</ele><time>2026-05-02T09:05:28.15Z</time></trkpt><trkpt lat="46.1209157" lon="13.6009916"><ele>566.0</ele><time>2026-05-02T09:05:29.149Z</time></trkpt><trkpt lat="46.1209288" lon="13.6008508"><ele>566.0</ele><time>2026-05-02T09:05:30.149Z</time></trkpt><trkpt lat="46.1209274" lon="13.6006953"><ele>566.0</ele><time>2026-05-02T09:05:31.149Z</time></trkpt><trkpt lat="46.1209331" lon="13.6005302"><ele>566.0</ele><time>2026-05-02T09:05:32.149Z</time></trkpt><trkpt lat="46.1209451" lon="13.6003656"><ele>566.0</ele><time>2026-05-02T09:05:33.149Z</time></trkpt><trkpt lat="46.1209567" lon="13.6002299"><ele>566.0</ele><time>2026-05-02T09:05:34.149Z</time></trkpt><trkpt lat="46.1209547" lon="13.6001249"><ele>566.0</ele><time>2026-05-02T09:05:35.15Z</time></trkpt><trkpt lat="46.1209542" lon="13.5999505"><ele>566.0</ele><time>2026-05-02T09:05:37.149Z</time></trkpt><trkpt lat="46.1210003" lon="13.5998166"><ele>566.0</ele><time>2026-05-02T09:05:39.15Z</time></trkpt><trkpt lat="46.1210895" lon="13.5997572"><ele>566.0</ele><time>2026-05-02T09:05:41.15Z</time></trkpt><trkpt lat="46.1211656" lon="13.5997421"><ele>566.0</ele><time>2026-05-02T09:05:43.15Z</time></trkpt><trkpt lat="46.1212714" lon="13.5997699"><ele>566.0</ele><time>2026-05-02T09:05:46.15Z</time></trkpt><trkpt lat="46.1213679" lon="13.5998685"><ele>566.0</ele><time>2026-05-02T09:05:48.15Z</time></trkpt><trkpt lat="46.1214301" lon="13.5999022"><ele>566.0</ele><time>2026-05-02T09:05:49.15Z</time></trkpt><trkpt lat="46.1214956" lon="13.5999268"><ele>566.0</ele><time>2026-05-02T09:05:50.149Z</time></trkpt><trkpt lat="46.1215606" lon="13.5999595"><ele>566.0</ele><time>2026-05-02T09:05:51.15Z</time></trkpt><trkpt lat="46.1216266" lon="13.6000047"><ele>569.4</ele><time>2026-05-02T09:05:52.15Z</time></trkpt><trkpt lat="46.121679" lon="13.6001059"><ele>572.8</ele><time>2026-05-02T09:05:53.149Z</time></trkpt><trkpt lat="46.1216948" lon="13.6002269"><ele>576.1999999999999</ele><time>2026-05-02T09:05:54.15Z</time></trkpt><trkpt lat="46.1216896" lon="13.6003621"><ele>579.6</ele><time>2026-05-02T09:05:55.149Z</time></trkpt><trkpt lat="46.1216764" lon="13.6005049"><ele>583.0</ele><time>2026-05-02T09:05:56.149Z</time></trkpt><trkpt lat="46.1216535" lon="13.6006567"><ele>583.8</ele><time>2026-05-02T09:05:57.149Z</time></trkpt><trkpt lat="46.1216244" lon="13.6008046"><ele>584.5999999999999</ele><time>2026-05-02T09:05:58.149Z</time></trkpt><trkpt lat="46.1215972" lon="13.6009523"><ele>585.4000000000001</ele><time>2026-05-02T09:05:59.149Z</time></trkpt><trkpt lat="46.1215721" lon="13.601109"><ele>586.2</ele><time>2026-05-02T09:06:00.149Z</time></trkpt><trkpt lat="46.1215745" lon="13.6012781"><ele>587.0</ele><time>2026-05-02T09:06:01.149Z</time></trkpt><trkpt lat="46.121615" lon="13.6014428"><ele>587.0</ele><time>2026-05-02T09:06:02.149Z</time></trkpt><trkpt lat="46.1216808" lon="13.6016072"><ele>587.0</ele><time>2026-05-02T09:06:03.15Z</time></trkpt><trkpt lat="46.1217502" lon="13.60175"><ele>587.0</ele><time>2026-05-02T09:06:04.149Z</time></trkpt><trkpt lat="46.1218089" lon="13.6018765"><ele>587.0</ele><time>2026-05-02T09:06:05.15Z</time></trkpt><trkpt lat="46.1218966" lon="13.6019843"><ele>588.2</ele><time>2026-05-02T09:06:06.15Z</time></trkpt><trkpt lat="46.1219929" lon="13.602079"><ele>589.4000000000001</ele><time>2026-05-02T09:06:07.149Z</time></trkpt><trkpt lat="46.1220908" lon="13.6021313"><ele>590.5999999999999</ele><time>2026-05-02T09:06:08.149Z</time></trkpt><trkpt lat="46.122185" lon="13.6021169"><ele>591.8</ele><time>2026-05-02T09:06:09.149Z</time></trkpt><trkpt lat="46.1222653" lon="13.6020961"><ele>593.0</ele><time>2026-05-02T09:06:10.15Z</time></trkpt><trkpt lat="46.1223497" lon="13.6020586"><ele>593.8</ele><time>2026-05-02T09:06:11.15Z</time></trkpt><trkpt lat="46.1224373" lon="13.6020385"><ele>594.5999999999999</ele><time>2026-05-02T09:06:12.15Z</time></trkpt><trkpt lat="46.1225266" lon="13.6020611"><ele>595.4000000000001</ele><time>2026-05-02T09:06:13.15Z</time></trkpt><trkpt lat="46.122608" lon="13.6021238"><ele>596.2</ele><time>2026-05-02T09:06:14.149Z</time></trkpt><trkpt lat="46.1226888" lon="13.6021996"><ele>597.0</ele><time>2026-05-02T09:06:15.149Z</time></trkpt><trkpt lat="46.1227708" lon="13.6022805"><ele>597.0</ele><time>2026-05-02T09:06:16.149Z</time></trkpt><trkpt lat="46.1228517" lon="13.6023618"><ele>597.0</ele><time>2026-05-02T09:06:17.149Z</time></trkpt><trkpt lat="46.1229294" lon="13.6024546"><ele>597.0</ele><time>2026-05-02T09:06:18.15Z</time></trkpt><trkpt lat="46.1229972" lon="13.6025532"><ele>597.0</ele><time>2026-05-02T09:06:19.149Z</time></trkpt><trkpt lat="46.1230583" lon="13.6026545"><ele>597.0</ele><time>2026-05-02T09:06:20.15Z</time></trkpt><trkpt lat="46.1231239" lon="13.6027341"><ele>597.0</ele><time>2026-05-02T09:06:21.15Z</time></trkpt><trkpt lat="46.1232052" lon="13.6027777"><ele>597.0</ele><time>2026-05-02T09:06:22.149Z</time></trkpt><trkpt lat="46.1232943" lon="13.6027726"><ele>597.0</ele><time>2026-05-02T09:06:23.15Z</time></trkpt><trkpt lat="46.1233794" lon="13.6027825"><ele>597.0</ele><time>2026-05-02T09:06:24.149Z</time></trkpt><trkpt lat="46.1234716" lon="13.6027692"><ele>597.0</ele><time>2026-05-02T09:06:25.149Z</time></trkpt><trkpt lat="46.1235688" lon="13.6027342"><ele>595.5</ele><time>2026-05-02T09:06:26.149Z</time></trkpt><trkpt lat="46.1236508" lon="13.6026806"><ele>594.0</ele><time>2026-05-02T09:06:27.149Z</time></trkpt><trkpt lat="46.1237286" lon="13.60264"><ele>592.5</ele><time>2026-05-02T09:06:28.15Z</time></trkpt><trkpt lat="46.1237998" lon="13.6026142"><ele>591.0</ele><time>2026-05-02T09:06:29.149Z</time></trkpt><trkpt lat="46.12388" lon="13.6026125"><ele>589.5</ele><time>2026-05-02T09:06:30.149Z</time></trkpt><trkpt lat="46.1239621" lon="13.6026305"><ele>588.0</ele><time>2026-05-02T09:06:31.15Z</time></trkpt><trkpt lat="46.124049" lon="13.6026494"><ele>588.6</ele><time>2026-05-02T09:06:32.15Z</time></trkpt><trkpt lat="46.1241474" lon="13.6026371"><ele>589.1999999999999</ele><time>2026-05-02T09:06:33.149Z</time></trkpt><trkpt lat="46.1242343" lon="13.602567"><ele>589.8</ele><time>2026-05-02T09:06:34.149Z</time></trkpt><trkpt lat="46.1243141" lon="13.6024721"><ele>590.4</ele><time>2026-05-02T09:06:35.149Z</time></trkpt><trkpt lat="46.1243653" lon="13.6023407"><ele>591.0</ele><time>2026-05-02T09:06:36.149Z</time></trkpt><trkpt lat="46.1243967" lon="13.602194"><ele>591.0</ele><time>2026-05-02T09:06:37.148Z</time></trkpt><trkpt lat="46.1244264" lon="13.6020697"><ele>591.0</ele><time>2026-05-02T09:06:38.148Z</time></trkpt><trkpt lat="46.1244592" lon="13.601956"><ele>591.0</ele><time>2026-05-02T09:06:39.149Z</time></trkpt><trkpt lat="46.1245058" lon="13.6018666"><ele>591.0</ele><time>2026-05-02T09:06:40.148Z</time></trkpt><trkpt lat="46.12457" lon="13.6018029"><ele>591.0</ele><time>2026-05-02T09:06:41.148Z</time></trkpt><trkpt lat="46.1246412" lon="13.6017762"><ele>591.0</ele><time>2026-05-02T09:06:42.149Z</time></trkpt><trkpt lat="46.1247131" lon="13.6018013"><ele>590.2</ele><time>2026-05-02T09:06:43.148Z</time></trkpt><trkpt lat="46.1247841" lon="13.601855"><ele>589.4000000000001</ele><time>2026-05-02T09:06:44.149Z</time></trkpt><trkpt lat="46.1248523" lon="13.6019345"><ele>588.6</ele><time>2026-05-02T09:06:45.148Z</time></trkpt><trkpt lat="46.1249213" lon="13.6020343"><ele>587.8000000000001</ele><time>2026-05-02T09:06:46.148Z</time></trkpt><trkpt lat="46.1250005" lon="13.6021334"><ele>587.0</ele><time>2026-05-02T09:06:47.148Z</time></trkpt><trkpt lat="46.1250763" lon="13.6022353"><ele>587.0</ele><time>2026-05-02T09:06:48.148Z</time></trkpt><trkpt lat="46.1251431" lon="13.6023503"><ele>587.0</ele><time>2026-05-02T09:06:49.149Z</time></trkpt><trkpt lat="46.1251732" lon="13.6024617"><ele>587.0</ele><time>2026-05-02T09:06:50.148Z</time></trkpt><trkpt lat="46.1251583" lon="13.6025986"><ele>587.0</ele><time>2026-05-02T09:06:51.149Z</time></trkpt><trkpt lat="46.1251116" lon="13.6027555"><ele>587.0</ele><time>2026-05-02T09:06:52.149Z</time></trkpt><trkpt lat="46.1250508" lon="13.6029102"><ele>586.75</ele><time>2026-05-02T09:06:53.148Z</time></trkpt><trkpt lat="46.1249943" lon="13.6030688"><ele>586.5</ele><time>2026-05-02T09:06:54.149Z</time></trkpt><trkpt lat="46.1249514" lon="13.603242"><ele>586.25</ele><time>2026-05-02T09:06:55.149Z</time></trkpt><trkpt lat="46.1249401" lon="13.6034051"><ele>586.0</ele><time>2026-05-02T09:06:56.148Z</time></trkpt><trkpt lat="46.1249362" lon="13.6035564"><ele>587.3333333333334</ele><time>2026-05-02T09:06:57.148Z</time></trkpt><trkpt lat="46.1249512" lon="13.603697"><ele>588.6666666666667</ele><time>2026-05-02T09:06:58.148Z</time></trkpt><trkpt lat="46.1249931" lon="13.6038065"><ele>590.0</ele><time>2026-05-02T09:06:59.149Z</time></trkpt><trkpt lat="46.1250404" lon="13.6038996"><ele>591.3333333333334</ele><time>2026-05-02T09:07:00.148Z</time></trkpt><trkpt lat="46.125101" lon="13.6039703"><ele>592.6666666666666</ele><time>2026-05-02T09:07:01.148Z</time></trkpt><trkpt lat="46.1251747" lon="13.6040343"><ele>594.0</ele><time>2026-05-02T09:07:02.148Z</time></trkpt><trkpt lat="46.1252405" lon="13.6041033"><ele>594.0</ele><time>2026-05-02T09:07:03.148Z</time></trkpt><trkpt lat="46.1252932" lon="13.6042011"><ele>594.0</ele><time>2026-05-02T09:07:04.148Z</time></trkpt><trkpt lat="46.1253463" lon="13.6042909"><ele>594.0</ele><time>2026-05-02T09:07:05.148Z</time></trkpt><trkpt lat="46.125415" lon="13.6043481"><ele>594.0</ele><time>2026-05-02T09:07:06.148Z</time></trkpt><trkpt lat="46.1254956" lon="13.6043671"><ele>594.0</ele><time>2026-05-02T09:07:07.149Z</time></trkpt><trkpt lat="46.1255707" lon="13.6043879"><ele>594.0</ele><time>2026-05-02T09:07:08.149Z</time></trkpt><trkpt lat="46.1256373" lon="13.6044145"><ele>594.0</ele><time>2026-05-02T09:07:09.148Z</time></trkpt><trkpt lat="46.1257398" lon="13.6044433"><ele>594.0</ele><time>2026-05-02T09:07:11.149Z</time></trkpt><trkpt lat="46.1257914" lon="13.6043611"><ele>594.0</ele><time>2026-05-02T09:07:13.148Z</time></trkpt><trkpt lat="46.1257137" lon="13.6042941"><ele>594.0</ele><time>2026-05-02T09:07:15.148Z</time></trkpt><trkpt lat="46.1256508" lon="13.6042722"><ele>594.0</ele><time>2026-05-02T09:07:16.149Z</time></trkpt><trkpt lat="46.1255812" lon="13.6042365"><ele>594.0</ele><time>2026-05-02T09:07:17.148Z</time></trkpt><trkpt lat="46.1255043" lon="13.6041961"><ele>594.0</ele><time>2026-05-02T09:07:18.148Z</time></trkpt><trkpt lat="46.1254301" lon="13.604111"><ele>594.0</ele><time>2026-05-02T09:07:19.148Z</time></trkpt><trkpt lat="46.1253649" lon="13.6039823"><ele>594.0</ele><time>2026-05-02T09:07:20.148Z</time></trkpt><trkpt lat="46.1253205" lon="13.6038275"><ele>594.0</ele><time>2026-05-02T09:07:21.148Z</time></trkpt><trkpt lat="46.125284" lon="13.6036995"><ele>594.0</ele><time>2026-05-02T09:07:22.149Z</time></trkpt><trkpt lat="46.1252617" lon="13.6035601"><ele>592.4</ele><time>2026-05-02T09:07:23.149Z</time></trkpt><trkpt lat="46.1252629" lon="13.6034072"><ele>590.8</ele><time>2026-05-02T09:07:24.148Z</time></trkpt><trkpt lat="46.1252859" lon="13.6032725"><ele>589.2</ele><time>2026-05-02T09:07:25.149Z</time></trkpt><trkpt lat="46.1253484" lon="13.6031726"><ele>587.6</ele><time>2026-05-02T09:07:26.149Z</time></trkpt><trkpt lat="46.1254207" lon="13.6030776"><ele>586.0</ele><time>2026-05-02T09:07:27.148Z</time></trkpt><trkpt lat="46.1254916" lon="13.6029843"><ele>586.0</ele><time>2026-05-02T09:07:28.148Z</time></trkpt><trkpt lat="46.1255481" lon="13.6028589"><ele>586.0</ele><time>2026-05-02T09:07:29.148Z</time></trkpt><trkpt lat="46.1255766" lon="13.6027224"><ele>586.0</ele><time>2026-05-02T09:07:30.148Z</time></trkpt><trkpt lat="46.125586" lon="13.6025578"><ele>586.0</ele><time>2026-05-02T09:07:31.149Z</time></trkpt><trkpt lat="46.1256149" lon="13.6024065"><ele>586.0</ele><time>2026-05-02T09:07:32.148Z</time></trkpt><trkpt lat="46.1256536" lon="13.6022667"><ele>586.2</ele><time>2026-05-02T09:07:33.148Z</time></trkpt><trkpt lat="46.1257094" lon="13.6021215"><ele>586.4000000000001</ele><time>2026-05-02T09:07:34.149Z</time></trkpt><trkpt lat="46.1257417" lon="13.6019888"><ele>586.6</ele><time>2026-05-02T09:07:35.149Z</time></trkpt><trkpt lat="46.1257666" lon="13.6018713"><ele>586.8000000000001</ele><time>2026-05-02T09:07:36.149Z</time></trkpt><trkpt lat="46.1257479" lon="13.6017552"><ele>587.0</ele><time>2026-05-02T09:07:37.149Z</time></trkpt><trkpt lat="46.1256813" lon="13.6016752"><ele>585.6</ele><time>2026-05-02T09:07:38.148Z</time></trkpt><trkpt lat="46.1256069" lon="13.601606"><ele>584.2</ele><time>2026-05-02T09:07:39.148Z</time></trkpt><trkpt lat="46.1255288" lon="13.6015268"><ele>582.8</ele><time>2026-05-02T09:07:40.148Z</time></trkpt><trkpt lat="46.1254785" lon="13.601414"><ele>581.4</ele><time>2026-05-02T09:07:41.148Z</time></trkpt><trkpt lat="46.1254586" lon="13.6012661"><ele>580.0</ele><time>2026-05-02T09:07:42.148Z</time></trkpt><trkpt lat="46.1254584" lon="13.6011231"><ele>576.4</ele><time>2026-05-02T09:07:43.148Z</time></trkpt><trkpt lat="46.1254857" lon="13.600985"><ele>572.8</ele><time>2026-05-02T09:07:44.149Z</time></trkpt><trkpt lat="46.1255326" lon="13.6008447"><ele>569.2</ele><time>2026-05-02T09:07:45.149Z</time></trkpt><trkpt lat="46.1255879" lon="13.6007044"><ele>565.6</ele><time>2026-05-02T09:07:46.149Z</time></trkpt><trkpt lat="46.1256558" lon="13.6005516"><ele>562.0</ele><time>2026-05-02T09:07:47.149Z</time></trkpt><trkpt lat="46.1257247" lon="13.6003996"><ele>558.6</ele><time>2026-05-02T09:07:48.148Z</time></trkpt><trkpt lat="46.1257865" lon="13.6002518"><ele>555.2</ele><time>2026-05-02T09:07:49.149Z</time></trkpt><trkpt lat="46.1258393" lon="13.6001033"><ele>551.8</ele><time>2026-05-02T09:07:50.148Z</time></trkpt><trkpt lat="46.1258792" lon="13.5999677"><ele>548.4</ele><time>2026-05-02T09:07:51.148Z</time></trkpt><trkpt lat="46.1258831" lon="13.5998461"><ele>545.0</ele><time>2026-05-02T09:07:52.148Z</time></trkpt><trkpt lat="46.1258526" lon="13.5997654"><ele>545.0</ele><time>2026-05-02T09:07:53.149Z</time></trkpt><trkpt lat="46.1257822" lon="13.5996806"><ele>545.0</ele><time>2026-05-02T09:07:54.148Z</time></trkpt><trkpt lat="46.125707" lon="13.5996012"><ele>545.0</ele><time>2026-05-02T09:07:55.149Z</time></trkpt><trkpt lat="46.1256374" lon="13.5995106"><ele>545.0</ele><time>2026-05-02T09:07:56.148Z</time></trkpt><trkpt lat="46.1256044" lon="13.5993859"><ele>545.0</ele><time>2026-05-02T09:07:57.149Z</time></trkpt><trkpt lat="46.1256028" lon="13.5992223"><ele>543.25</ele><time>2026-05-02T09:07:58.148Z</time></trkpt><trkpt lat="46.1256282" lon="13.5990643"><ele>541.5</ele><time>2026-05-02T09:07:59.148Z</time></trkpt><trkpt lat="46.1256524" lon="13.5989056"><ele>539.75</ele><time>2026-05-02T09:08:00.148Z</time></trkpt><trkpt lat="46.1256696" lon="13.5987401"><ele>538.0</ele><time>2026-05-02T09:08:01.149Z</time></trkpt><trkpt lat="46.1256777" lon="13.5985717"><ele>536.0</ele><time>2026-05-02T09:08:02.148Z</time></trkpt><trkpt lat="46.1256833" lon="13.5984007"><ele>534.0</ele><time>2026-05-02T09:08:03.148Z</time></trkpt><trkpt lat="46.1256893" lon="13.598224"><ele>532.0</ele><time>2026-05-02T09:08:04.149Z</time></trkpt><trkpt lat="46.1256973" lon="13.5980566"><ele>530.0</ele><time>2026-05-02T09:08:05.149Z</time></trkpt><trkpt lat="46.1257046" lon="13.5978887"><ele>528.2</ele><time>2026-05-02T09:08:06.149Z</time></trkpt><trkpt lat="46.1257174" lon="13.5977215"><ele>526.4</ele><time>2026-05-02T09:08:07.149Z</time></trkpt><trkpt lat="46.1257243" lon="13.5975675"><ele>524.6</ele><time>2026-05-02T09:08:08.149Z</time></trkpt><trkpt lat="46.125735" lon="13.5974062"><ele>522.8</ele><time>2026-05-02T09:08:09.148Z</time></trkpt><trkpt lat="46.1257454" lon="13.5972457"><ele>521.0</ele><time>2026-05-02T09:08:10.149Z</time></trkpt><trkpt lat="46.1257608" lon="13.5970896"><ele>521.0</ele><time>2026-05-02T09:08:11.149Z</time></trkpt><trkpt lat="46.1257782" lon="13.5969338"><ele>521.0</ele><time>2026-05-02T09:08:12.148Z</time></trkpt><trkpt lat="46.1258053" lon="13.596789"><ele>521.0</ele><time>2026-05-02T09:08:13.148Z</time></trkpt><trkpt lat="46.1258256" lon="13.5966339"><ele>521.0</ele><time>2026-05-02T09:08:14.148Z</time></trkpt><trkpt lat="46.1258444" lon="13.5964865"><ele>521.0</ele><time>2026-05-02T09:08:15.148Z</time></trkpt><trkpt lat="46.1258672" lon="13.5963459"><ele>521.0</ele><time>2026-05-02T09:08:16.148Z</time></trkpt><trkpt lat="46.1258954" lon="13.596216"><ele>521.0</ele><time>2026-05-02T09:08:17.148Z</time></trkpt><trkpt lat="46.1259246" lon="13.5960864"><ele>521.0</ele><time>2026-05-02T09:08:18.149Z</time></trkpt><trkpt lat="46.1259595" lon="13.5959666"><ele>521.0</ele><time>2026-05-02T09:08:19.149Z</time></trkpt><trkpt lat="46.1259973" lon="13.5958542"><ele>521.0</ele><time>2026-05-02T09:08:20.149Z</time></trkpt><trkpt lat="46.1260354" lon="13.5957415"><ele>521.1666666666666</ele><time>2026-05-02T09:08:21.148Z</time></trkpt><trkpt lat="46.1260707" lon="13.5956282"><ele>521.3333333333333</ele><time>2026-05-02T09:08:22.148Z</time></trkpt><trkpt lat="46.1261021" lon="13.5955126"><ele>521.5</ele><time>2026-05-02T09:08:23.148Z</time></trkpt><trkpt lat="46.1261332" lon="13.5954027"><ele>521.6666666666666</ele><time>2026-05-02T09:08:24.148Z</time></trkpt><trkpt lat="46.1261902" lon="13.5952692"><ele>521.8333333333334</ele><time>2026-05-02T09:08:26.148Z</time></trkpt><trkpt lat="46.1262264" lon="13.5951948"><ele>522.0</ele><time>2026-05-02T09:08:28.148Z</time></trkpt><trkpt lat="46.1262736" lon="13.5952742"><ele>522.0</ele><time>2026-05-02T09:08:31.148Z</time></trkpt><trkpt lat="46.1262408" lon="13.5953575"><ele>522.0</ele><time>2026-05-02T09:08:33.149Z</time></trkpt><trkpt lat="46.1262176" lon="13.5954976"><ele>522.0</ele><time>2026-05-02T09:08:35.148Z</time></trkpt><trkpt lat="46.1262076" lon="13.5956933"><ele>522.0</ele><time>2026-05-02T09:08:37.148Z</time></trkpt><trkpt lat="46.1262161" lon="13.5958038"><ele>522.0</ele><time>2026-05-02T09:08:38.148Z</time></trkpt><trkpt lat="46.1262268" lon="13.5959143"><ele>522.0</ele><time>2026-05-02T09:08:39.148Z</time></trkpt><trkpt lat="46.1262387" lon="13.5960345"><ele>522.0</ele><time>2026-05-02T09:08:40.148Z</time></trkpt><trkpt lat="46.1262561" lon="13.596159"><ele>522.0</ele><time>2026-05-02T09:08:41.148Z</time></trkpt><trkpt lat="46.1262633" lon="13.5962898"><ele>522.0</ele><time>2026-05-02T09:08:42.149Z</time></trkpt><trkpt lat="46.1262768" lon="13.5964192"><ele>522.0</ele><time>2026-05-02T09:08:43.148Z</time></trkpt><trkpt lat="46.1262874" lon="13.5965466"><ele>522.0</ele><time>2026-05-02T09:08:44.149Z</time></trkpt><trkpt lat="46.1262895" lon="13.5966728"><ele>521.8333333333334</ele><time>2026-05-02T09:08:45.149Z</time></trkpt><trkpt lat="46.126297" lon="13.596794"><ele>521.6666666666666</ele><time>2026-05-02T09:08:46.148Z</time></trkpt><trkpt lat="46.126307" lon="13.5969032"><ele>521.5</ele><time>2026-05-02T09:08:47.148Z</time></trkpt><trkpt lat="46.1263133" lon="13.597017"><ele>521.3333333333333</ele><time>2026-05-02T09:08:48.149Z</time></trkpt><trkpt lat="46.1263184" lon="13.5971361"><ele>521.1666666666666</ele><time>2026-05-02T09:08:49.148Z</time></trkpt><trkpt lat="46.1263089" lon="13.5972572"><ele>521.0</ele><time>2026-05-02T09:08:50.149Z</time></trkpt><trkpt lat="46.1262921" lon="13.5973692"><ele>521.0</ele><time>2026-05-02T09:08:51.148Z</time></trkpt><trkpt lat="46.126273" lon="13.5974797"><ele>521.0</ele><time>2026-05-02T09:08:52.148Z</time></trkpt><trkpt lat="46.1262563" lon="13.5975911"><ele>521.0</ele><time>2026-05-02T09:08:53.149Z</time></trkpt><trkpt lat="46.1262372" lon="13.5976959"><ele>521.0</ele><time>2026-05-02T09:08:54.148Z</time></trkpt><trkpt lat="46.1262199" lon="13.5977955"><ele>521.0</ele><time>2026-05-02T09:08:55.148Z</time></trkpt><trkpt lat="46.1262102" lon="13.5978919"><ele>521.0</ele><time>2026-05-02T09:08:56.149Z</time></trkpt><trkpt lat="46.1262363" lon="13.5980797"><ele>521.8333333333333</ele><time>2026-05-02T09:08:58.148Z</time></trkpt><trkpt lat="46.1262795" lon="13.5981896"><ele>522.6666666666666</ele><time>2026-05-02T09:08:59.148Z</time></trkpt><trkpt lat="46.1263118" lon="13.5983168"><ele>523.5</ele><time>2026-05-02T09:09:00.148Z</time></trkpt><trkpt lat="46.1263446" lon="13.5984437"><ele>524.3333333333334</ele><time>2026-05-02T09:09:01.149Z</time></trkpt><trkpt lat="46.1263766" lon="13.5985451"><ele>525.1666666666667</ele><time>2026-05-02T09:09:02.149Z</time></trkpt><trkpt lat="46.1264113" lon="13.5986333"><ele>526.0</ele><time>2026-05-02T09:09:03.148Z</time></trkpt><trkpt lat="46.126472" lon="13.598726"><ele>528.0</ele><time>2026-05-02T09:09:05.149Z</time></trkpt><trkpt lat="46.1265342" lon="13.5987839"><ele>530.0</ele><time>2026-05-02T09:09:06.148Z</time></trkpt><trkpt lat="46.12662" lon="13.5988451"><ele>532.0</ele><time>2026-05-02T09:09:07.149Z</time></trkpt><trkpt lat="46.1266887" lon="13.5988869"><ele>534.0</ele><time>2026-05-02T09:09:08.148Z</time></trkpt><trkpt lat="46.1267832" lon="13.598933"><ele>536.0</ele><time>2026-05-02T09:09:10.149Z</time></trkpt><trkpt lat="46.1269116" lon="13.5989376"><ele>532.0</ele><time>2026-05-02T09:09:12.148Z</time></trkpt><trkpt lat="46.1270284" lon="13.5989745"><ele>528.0</ele><time>2026-05-02T09:09:14.148Z</time></trkpt><trkpt lat="46.1270791" lon="13.5990512"><ele>524.0</ele><time>2026-05-02T09:09:15.148Z</time></trkpt><trkpt lat="46.1271349" lon="13.5991279"><ele>520.0</ele><time>2026-05-02T09:09:16.149Z</time></trkpt><trkpt lat="46.1271672" lon="13.5992185"><ele>516.0</ele><time>2026-05-02T09:09:17.148Z</time></trkpt><trkpt lat="46.1271682" lon="13.5993141"><ele>512.0</ele><time>2026-05-02T09:09:18.148Z</time></trkpt><trkpt lat="46.1271568" lon="13.5994127"><ele>513.0</ele><time>2026-05-02T09:09:19.148Z</time></trkpt><trkpt lat="46.1271474" lon="13.5995304"><ele>514.0</ele><time>2026-05-02T09:09:20.148Z</time></trkpt><trkpt lat="46.1271318" lon="13.599645"><ele>515.0</ele><time>2026-05-02T09:09:21.149Z</time></trkpt><trkpt lat="46.1271074" lon="13.599734"><ele>516.0</ele><time>2026-05-02T09:09:22.149Z</time></trkpt><trkpt lat="46.1270794" lon="13.5998185"><ele>517.0</ele><time>2026-05-02T09:09:23.148Z</time></trkpt><trkpt lat="46.1270465" lon="13.5999039"><ele>518.0</ele><time>2026-05-02T09:09:24.148Z</time></trkpt><trkpt lat="46.1269885" lon="13.6000548"><ele>518.0</ele><time>2026-05-02T09:09:26.148Z</time></trkpt><trkpt lat="46.1269515" lon="13.6002033"><ele>518.0</ele><time>2026-05-02T09:09:28.148Z</time></trkpt><trkpt lat="46.1269842" lon="13.6002913"><ele>518.0</ele><time>2026-05-02T09:09:30.148Z</time></trkpt><trkpt lat="46.1270718" lon="13.6003072"><ele>518.0</ele><time>2026-05-02T09:09:32.148Z</time></trkpt><trkpt lat="46.1271336" lon="13.6002774"><ele>518.0</ele><time>2026-05-02T09:09:33.148Z</time></trkpt><trkpt lat="46.1272216" lon="13.6002073"><ele>518.0</ele><time>2026-05-02T09:09:34.148Z</time></trkpt><trkpt lat="46.127315" lon="13.6001475"><ele>513.8333333333333</ele><time>2026-05-02T09:09:35.149Z</time></trkpt><trkpt lat="46.1273971" lon="13.6001069"><ele>509.66666666666663</ele><time>2026-05-02T09:09:36.148Z</time></trkpt><trkpt lat="46.1274803" lon="13.6000607"><ele>505.5</ele><time>2026-05-02T09:09:37.148Z</time></trkpt><trkpt lat="46.1275696" lon="13.6000122"><ele>501.33333333333337</ele><time>2026-05-02T09:09:38.148Z</time></trkpt><trkpt lat="46.1276532" lon="13.5999818"><ele>497.1666666666667</ele><time>2026-05-02T09:09:39.148Z</time></trkpt><trkpt lat="46.1277389" lon="13.599952"><ele>493.0</ele><time>2026-05-02T09:09:40.149Z</time></trkpt><trkpt lat="46.127819" lon="13.5999268"><ele>493.0</ele><time>2026-05-02T09:09:41.148Z</time></trkpt><trkpt lat="46.1278857" lon="13.5999147"><ele>492.99999999999994</ele><time>2026-05-02T09:09:42.149Z</time></trkpt><trkpt lat="46.1280058" lon="13.5999279"><ele>492.99999999999994</ele><time>2026-05-02T09:09:44.148Z</time></trkpt><trkpt lat="46.1280664" lon="13.6000329"><ele>493.0</ele><time>2026-05-02T09:09:46.149Z</time></trkpt><trkpt lat="46.1280871" lon="13.6002126"><ele>493.0</ele><time>2026-05-02T09:09:48.148Z</time></trkpt><trkpt lat="46.12808" lon="13.6003157"><ele>495.00000000000006</ele><time>2026-05-02T09:09:49.148Z</time></trkpt><trkpt lat="46.128066" lon="13.6004114"><ele>497.0</ele><time>2026-05-02T09:09:50.148Z</time></trkpt><trkpt lat="46.1280487" lon="13.6005125"><ele>499.0</ele><time>2026-05-02T09:09:51.148Z</time></trkpt><trkpt lat="46.1280269" lon="13.6006135"><ele>501.0</ele><time>2026-05-02T09:09:52.148Z</time></trkpt><trkpt lat="46.1279953" lon="13.6007157"><ele>503.00000000000006</ele><time>2026-05-02T09:09:53.149Z</time></trkpt><trkpt lat="46.1279605" lon="13.6008082"><ele>505.0</ele><time>2026-05-02T09:09:54.148Z</time></trkpt><trkpt lat="46.1279109" lon="13.6009562"><ele>505.00000000000006</ele><time>2026-05-02T09:09:56.148Z</time></trkpt><trkpt lat="46.127869" lon="13.6010371"><ele>505.0</ele><time>2026-05-02T09:09:57.148Z</time></trkpt><trkpt lat="46.1278218" lon="13.6011319"><ele>505.0</ele><time>2026-05-02T09:09:58.148Z</time></trkpt><trkpt lat="46.1277783" lon="13.6012346"><ele>505.0</ele><time>2026-05-02T09:09:59.148Z</time></trkpt><trkpt lat="46.1277377" lon="13.6013281"><ele>505.00000000000006</ele><time>2026-05-02T09:10:00.149Z</time></trkpt><trkpt lat="46.1277186" lon="13.6014386"><ele>505.0</ele><time>2026-05-02T09:10:01.149Z</time></trkpt><trkpt lat="46.1277147" lon="13.6015582"><ele>504.8</ele><time>2026-05-02T09:10:02.149Z</time></trkpt><trkpt lat="46.1277155" lon="13.6016804"><ele>504.6</ele><time>2026-05-02T09:10:03.148Z</time></trkpt><trkpt lat="46.1277165" lon="13.6017906"><ele>504.4</ele><time>2026-05-02T09:10:04.148Z</time></trkpt><trkpt lat="46.1277048" lon="13.6019189"><ele>504.2</ele><time>2026-05-02T09:10:06.149Z</time></trkpt><trkpt lat="46.1276295" lon="13.6020699"><ele>504.0</ele><time>2026-05-02T09:10:08.149Z</time></trkpt><trkpt lat="46.127581" lon="13.6021475"><ele>504.0</ele><time>2026-05-02T09:10:09.148Z</time></trkpt><trkpt lat="46.1275711" lon="13.6022706"><ele>504.0</ele><time>2026-05-02T09:10:11.148Z</time></trkpt><trkpt lat="46.1276416" lon="13.6023557"><ele>504.0</ele><time>2026-05-02T09:10:13.148Z</time></trkpt><trkpt lat="46.127772" lon="13.6023479"><ele>504.0</ele><time>2026-05-02T09:10:15.148Z</time></trkpt><trkpt lat="46.1276532" lon="13.5999818"><ele>501.79999999999995</ele><time>2026-05-02T09:09:39.148Z</time></trkpt><trkpt lat="46.1277389" lon="13.599952"><ele>499.59999999999997</ele><time>2026-05-02T09:09:40.149Z</time></trkpt><trkpt lat="46.127819" lon="13.5999268"><ele>497.4</ele><time>2026-05-02T09:09:41.148Z</time></trkpt><trkpt lat="46.1278857" lon="13.5999147"><ele>495.2</ele><time>2026-05-02T09:09:42.149Z</time></trkpt><trkpt lat="46.1280058" lon="13.5999279"><ele>493.0</ele><time>2026-05-02T09:09:44.148Z</time></trkpt><trkpt lat="46.1280664" lon="13.6000329"><ele>493.00000000000006</ele><time>2026-05-02T09:09:46.149Z</time></trkpt><trkpt lat="46.1280871" lon="13.6002126"><ele>493.0</ele><time>2026-05-02T09:09:48.148Z</time></trkpt><trkpt lat="46.12808" lon="13.6003157"><ele>493.0</ele><time>2026-05-02T09:09:49.148Z</time></trkpt><trkpt lat="46.128066" lon="13.6004114"><ele>493.0</ele><time>2026-05-02T09:09:50.148Z</time></trkpt><trkpt lat="46.1280487" lon="13.6005125"><ele>493.00000000000006</ele><time>2026-05-02T09:09:51.148Z</time></trkpt><trkpt lat="46.1280269" lon="13.6006135"><ele>493.0</ele><time>2026-05-02T09:09:52.148Z</time></trkpt><trkpt lat="46.1279953" lon="13.6007157"><ele>494.50000000000006</ele><time>2026-05-02T09:09:53.149Z</time></trkpt><trkpt lat="46.1279605" lon="13.6008082"><ele>496.0</ele><time>2026-05-02T09:09:54.148Z</time></trkpt><trkpt lat="46.1279109" lon="13.6009562"><ele>497.5</ele><time>2026-05-02T09:09:56.148Z</time></trkpt><trkpt lat="46.127869" lon="13.6010371"><ele>499.0</ele><time>2026-05-02T09:09:57.148Z</time></trkpt><trkpt lat="46.1278218" lon="13.6011319"><ele>500.50000000000006</ele><time>2026-05-02T09:09:58.148Z</time></trkpt><trkpt lat="46.1277783" lon="13.6012346"><ele>502.0</ele><time>2026-05-02T09:09:59.148Z</time></trkpt><trkpt lat="46.1277377" lon="13.6013281"><ele>502.00000000000006</ele><time>2026-05-02T09:10:00.149Z</time></trkpt><trkpt lat="46.1277186" lon="13.6014386"><ele>502.0</ele><time>2026-05-02T09:10:01.149Z</time></trkpt><trkpt lat="46.1277147" lon="13.6015582"><ele>502.0</ele><time>2026-05-02T09:10:02.149Z</time></trkpt><trkpt lat="46.1277155" lon="13.6016804"><ele>502.0</ele><time>2026-05-02T09:10:03.148Z</time></trkpt><trkpt lat="46.1277165" lon="13.6017906"><ele>502.00000000000006</ele><time>2026-05-02T09:10:04.148Z</time></trkpt><trkpt lat="46.1277048" lon="13.6019189"><ele>502.0</ele><time>2026-05-02T09:10:06.149Z</time></trkpt><trkpt lat="46.1276295" lon="13.6020699"><ele>502.33333333333337</ele><time>2026-05-02T09:10:08.149Z</time></trkpt><trkpt lat="46.127581" lon="13.6021475"><ele>502.6666666666667</ele><time>2026-05-02T09:10:09.148Z</time></trkpt><trkpt lat="46.1275711" lon="13.6022706"><ele>503.0</ele><time>2026-05-02T09:10:11.148Z</time></trkpt><trkpt lat="46.1276416" lon="13.6023557"><ele>503.33333333333337</ele><time>2026-05-02T09:10:13.148Z</time></trkpt><trkpt lat="46.127772" lon="13.6023479"><ele>503.6666666666667</ele><time>2026-05-02T09:10:15.148Z</time></trkpt><trkpt lat="46.1278373" lon="13.6023559"><ele>504.0</ele><time>2026-05-02T09:10:16.148Z</time></trkpt><trkpt lat="46.1279576" lon="13.6023913"><ele>504.0</ele><time>2026-05-02T09:10:18.148Z</time></trkpt><trkpt lat="46.1280308" lon="13.6024219"><ele>504.0</ele><time>2026-05-02T09:10:19.149Z</time></trkpt><trkpt lat="46.1280994" lon="13.6024504"><ele>504.0</ele><time>2026-05-02T09:10:20.148Z</time></trkpt><trkpt lat="46.1281741" lon="13.602497"><ele>504.0</ele><time>2026-05-02T09:10:21.148Z</time></trkpt><trkpt lat="46.1282384" lon="13.602541"><ele>504.0</ele><time>2026-05-02T09:10:22.149Z</time></trkpt><trkpt lat="46.1283004" lon="13.6025755"><ele>504.0</ele><time>2026-05-02T09:10:23.148Z</time></trkpt><trkpt lat="46.1283669" lon="13.602608"><ele>504.0</ele><time>2026-05-02T09:10:24.148Z</time></trkpt><trkpt lat="46.1284389" lon="13.602635"><ele>500.8333333333333</ele><time>2026-05-02T09:10:25.148Z</time></trkpt><trkpt lat="46.1285047" lon="13.6026499"><ele>497.66666666666663</ele><time>2026-05-02T09:10:26.149Z</time></trkpt><trkpt lat="46.128585" lon="13.6026577"><ele>494.5</ele><time>2026-05-02T09:10:27.148Z</time></trkpt><trkpt lat="46.1286679" lon="13.6026659"><ele>491.3333333333333</ele><time>2026-05-02T09:10:28.148Z</time></trkpt><trkpt lat="46.1287442" lon="13.602661"><ele>488.16666666666663</ele><time>2026-05-02T09:10:29.149Z</time></trkpt><trkpt lat="46.1288186" lon="13.6026286"><ele>485.0</ele><time>2026-05-02T09:10:30.148Z</time></trkpt><trkpt lat="46.1288956" lon="13.6026094"><ele>485.0</ele><time>2026-05-02T09:10:31.149Z</time></trkpt><trkpt lat="46.1289642" lon="13.6026016"><ele>485.0</ele><time>2026-05-02T09:10:32.148Z</time></trkpt><trkpt lat="46.1290319" lon="13.6026027"><ele>485.0</ele><time>2026-05-02T09:10:33.147Z</time></trkpt><trkpt lat="46.1291441" lon="13.6026276"><ele>485.0</ele><time>2026-05-02T09:10:35.147Z</time></trkpt><trkpt lat="46.1292133" lon="13.6027311"><ele>485.0</ele><time>2026-05-02T09:10:37.148Z</time></trkpt><trkpt lat="46.1292777" lon="13.6028585"><ele>488.16666666666663</ele><time>2026-05-02T09:10:39.147Z</time></trkpt><trkpt lat="46.1293844" lon="13.602929"><ele>491.3333333333333</ele><time>2026-05-02T09:10:41.147Z</time></trkpt><trkpt lat="46.1294504" lon="13.6029566"><ele>494.5</ele><time>2026-05-02T09:10:42.147Z</time></trkpt><trkpt lat="46.1295175" lon="13.6029981"><ele>497.66666666666663</ele><time>2026-05-02T09:10:43.147Z</time></trkpt><trkpt lat="46.1295937" lon="13.6030343"><ele>500.8333333333333</ele><time>2026-05-02T09:10:44.148Z</time></trkpt><trkpt lat="46.1296702" lon="13.6030606"><ele>504.0</ele><time>2026-05-02T09:10:45.147Z</time></trkpt><trkpt lat="46.1297495" lon="13.6030863"><ele>504.0</ele><time>2026-05-02T09:10:46.147Z</time></trkpt><trkpt lat="46.1298325" lon="13.6031135"><ele>504.0</ele><time>2026-05-02T09:10:47.148Z</time></trkpt><trkpt lat="46.1299" lon="13.6031371"><ele>504.0</ele><time>2026-05-02T09:10:48.147Z</time></trkpt><trkpt lat="46.1300155" lon="13.6032067"><ele>504.0</ele><time>2026-05-02T09:10:50.148Z</time></trkpt><trkpt lat="46.13007" lon="13.6032611"><ele>504.0</ele><time>2026-05-02T09:10:51.148Z</time></trkpt><trkpt lat="46.1301462" lon="13.6033566"><ele>504.0</ele><time>2026-05-02T09:10:53.147Z</time></trkpt><trkpt lat="46.1301675" lon="13.6034978"><ele>500.6666666666667</ele><time>2026-05-02T09:10:55.148Z</time></trkpt><trkpt lat="46.1301561" lon="13.6035958"><ele>497.33333333333337</ele><time>2026-05-02T09:10:56.147Z</time></trkpt><trkpt lat="46.1301303" lon="13.6036982"><ele>494.0</ele><time>2026-05-02T09:10:57.147Z</time></trkpt><trkpt lat="46.1300925" lon="13.6038186"><ele>490.6666666666667</ele><time>2026-05-02T09:10:58.148Z</time></trkpt><trkpt lat="46.1300476" lon="13.6039423"><ele>487.33333333333337</ele><time>2026-05-02T09:10:59.147Z</time></trkpt><trkpt lat="46.1300105" lon="13.6040594"><ele>484.0</ele><time>2026-05-02T09:11:00.147Z</time></trkpt><trkpt lat="46.1299806" lon="13.6041606"><ele>484.00000000000006</ele><time>2026-05-02T09:11:01.147Z</time></trkpt><trkpt lat="46.129954" lon="13.6042586"><ele>484.0</ele><time>2026-05-02T09:11:02.147Z</time></trkpt><trkpt lat="46.1299254" lon="13.6043715"><ele>484.0</ele><time>2026-05-02T09:11:03.147Z</time></trkpt><trkpt lat="46.1298969" lon="13.6044887"><ele>484.0</ele><time>2026-05-02T09:11:04.148Z</time></trkpt><trkpt lat="46.1298717" lon="13.6045981"><ele>484.00000000000006</ele><time>2026-05-02T09:11:05.147Z</time></trkpt><trkpt lat="46.1298535" lon="13.604707"><ele>484.0</ele><time>2026-05-02T09:11:06.147Z</time></trkpt><trkpt lat="46.1298289" lon="13.6048119"><ele>487.6666666666667</ele><time>2026-05-02T09:11:07.147Z</time></trkpt><trkpt lat="46.1298008" lon="13.6049303"><ele>491.33333333333337</ele><time>2026-05-02T09:11:08.147Z</time></trkpt><trkpt lat="46.1297679" lon="13.6050351"><ele>495.0</ele><time>2026-05-02T09:11:09.147Z</time></trkpt><trkpt lat="46.1297404" lon="13.6051223"><ele>498.66666666666663</ele><time>2026-05-02T09:11:10.148Z</time></trkpt><trkpt lat="46.1296891" lon="13.6052849"><ele>502.3333333333333</ele><time>2026-05-02T09:11:12.147Z</time></trkpt><trkpt lat="46.1296493" lon="13.6053758"><ele>506.0</ele><time>2026-05-02T09:11:13.147Z</time></trkpt><trkpt lat="46.1295977" lon="13.6054737"><ele>505.99999999999994</ele><time>2026-05-02T09:11:14.148Z</time></trkpt><trkpt lat="46.12955" lon="13.605567"><ele>506.0</ele><time>2026-05-02T09:11:15.148Z</time></trkpt><trkpt lat="46.1295097" lon="13.6056582"><ele>506.0</ele><time>2026-05-02T09:11:16.148Z</time></trkpt><trkpt lat="46.1294705" lon="13.6057523"><ele>506.0</ele><time>2026-05-02T09:11:17.148Z</time></trkpt><trkpt lat="46.1294262" lon="13.6058502"><ele>505.99999999999994</ele><time>2026-05-02T09:11:18.148Z</time></trkpt><trkpt lat="46.1293618" lon="13.6059944"><ele>506.0</ele><time>2026-05-02T09:11:20.148Z</time></trkpt><trkpt lat="46.1293242" lon="13.6061661"><ele>502.8</ele><time>2026-05-02T09:11:22.147Z</time></trkpt><trkpt lat="46.1293113" lon="13.6062676"><ele>499.6</ele><time>2026-05-02T09:11:23.147Z</time></trkpt><trkpt lat="46.1293009" lon="13.606379"><ele>496.4</ele><time>2026-05-02T09:11:24.148Z</time></trkpt><trkpt lat="46.129299" lon="13.6064767"><ele>493.2</ele><time>2026-05-02T09:11:25.147Z</time></trkpt><trkpt lat="46.1293022" lon="13.6066652"><ele>490.0</ele><time>2026-05-02T09:11:27.147Z</time></trkpt><trkpt lat="46.1293192" lon="13.6068188"><ele>490.0</ele><time>2026-05-02T09:11:29.147Z</time></trkpt><trkpt lat="46.1293267" lon="13.6069311"><ele>490.0</ele><time>2026-05-02T09:11:31.148Z</time></trkpt><trkpt lat="46.1292983" lon="13.6070617"><ele>490.0</ele><time>2026-05-02T09:11:33.147Z</time></trkpt><trkpt lat="46.1292628" lon="13.6071997"><ele>490.0</ele><time>2026-05-02T09:11:35.147Z</time></trkpt><trkpt lat="46.1292078" lon="13.6074016"><ele>490.0</ele><time>2026-05-02T09:11:37.147Z</time></trkpt><trkpt lat="46.1291629" lon="13.6075"><ele>490.0</ele><time>2026-05-02T09:11:38.147Z</time></trkpt><trkpt lat="46.1291409" lon="13.607604"><ele>490.0</ele><time>2026-05-02T09:11:39.148Z</time></trkpt><trkpt lat="46.1291631" lon="13.6077222"><ele>490.0</ele><time>2026-05-02T09:11:41.147Z</time></trkpt><trkpt lat="46.1296891" lon="13.6052849"><ele>492.6666666666667</ele><time>2026-05-02T09:11:12.147Z</time></trkpt><trkpt lat="46.1296493" lon="13.6053758"><ele>495.33333333333337</ele><time>2026-05-02T09:11:13.147Z</time></trkpt><trkpt lat="46.1295977" lon="13.6054737"><ele>498.0</ele><time>2026-05-02T09:11:14.148Z</time></trkpt><trkpt lat="46.12955" lon="13.605567"><ele>500.66666666666663</ele><time>2026-05-02T09:11:15.148Z</time></trkpt><trkpt lat="46.1295097" lon="13.6056582"><ele>503.3333333333333</ele><time>2026-05-02T09:11:16.148Z</time></trkpt><trkpt lat="46.1294705" lon="13.6057523"><ele>506.0</ele><time>2026-05-02T09:11:17.148Z</time></trkpt><trkpt lat="46.1294262" lon="13.6058502"><ele>506.0</ele><time>2026-05-02T09:11:18.148Z</time></trkpt><trkpt lat="46.1293618" lon="13.6059944"><ele>506.0</ele><time>2026-05-02T09:11:20.148Z</time></trkpt><trkpt lat="46.1293242" lon="13.6061661"><ele>506.0</ele><time>2026-05-02T09:11:22.147Z</time></trkpt><trkpt lat="46.1293113" lon="13.6062676"><ele>506.0</ele><time>2026-05-02T09:11:23.147Z</time></trkpt><trkpt lat="46.1293009" lon="13.606379"><ele>506.0</ele><time>2026-05-02T09:11:24.148Z</time></trkpt><trkpt lat="46.129299" lon="13.6064767"><ele>502.8</ele><time>2026-05-02T09:11:25.147Z</time></trkpt><trkpt lat="46.1293022" lon="13.6066652"><ele>499.6</ele><time>2026-05-02T09:11:27.147Z</time></trkpt><trkpt lat="46.1293192" lon="13.6068188"><ele>496.4</ele><time>2026-05-02T09:11:29.147Z</time></trkpt><trkpt lat="46.1293267" lon="13.6069311"><ele>493.2</ele><time>2026-05-02T09:11:31.148Z</time></trkpt><trkpt lat="46.1292983" lon="13.6070617"><ele>490.0</ele><time>2026-05-02T09:11:33.147Z</time></trkpt><trkpt lat="46.1292628" lon="13.6071997"><ele>490.0</ele><time>2026-05-02T09:11:35.147Z</time></trkpt><trkpt lat="46.1292078" lon="13.6074016"><ele>490.0</ele><time>2026-05-02T09:11:37.147Z</time></trkpt><trkpt lat="46.1291629" lon="13.6075"><ele>490.0</ele><time>2026-05-02T09:11:38.147Z</time></trkpt><trkpt lat="46.1291409" lon="13.607604"><ele>490.0</ele><time>2026-05-02T09:11:39.148Z</time></trkpt><trkpt lat="46.1291631" lon="13.6077222"><ele>490.0</ele><time>2026-05-02T09:11:41.147Z</time></trkpt><trkpt lat="46.1292379" lon="13.6077512"><ele>490.00000000000006</ele><time>2026-05-02T09:11:43.148Z</time></trkpt><trkpt lat="46.1293469" lon="13.6076804"><ele>490.0</ele><time>2026-05-02T09:11:45.148Z</time></trkpt><trkpt lat="46.1294011" lon="13.6076293"><ele>490.0</ele><time>2026-05-02T09:11:46.147Z</time></trkpt><trkpt lat="46.1294602" lon="13.6075846"><ele>490.0</ele><time>2026-05-02T09:11:47.148Z</time></trkpt><trkpt lat="46.1295259" lon="13.6075606"><ele>490.00000000000006</ele><time>2026-05-02T09:11:48.148Z</time></trkpt><trkpt lat="46.1296066" lon="13.6075419"><ele>490.0</ele><time>2026-05-02T09:11:49.148Z</time></trkpt><trkpt lat="46.129688" lon="13.6075282"><ele>490.00000000000006</ele><time>2026-05-02T09:11:50.147Z</time></trkpt><trkpt lat="46.1297591" lon="13.6075207"><ele>490.0</ele><time>2026-05-02T09:11:51.147Z</time></trkpt><trkpt lat="46.1298794" lon="13.6075424"><ele>490.0</ele><time>2026-05-02T09:11:53.148Z</time></trkpt><trkpt lat="46.1299526" lon="13.6075618"><ele>490.0</ele><time>2026-05-02T09:11:54.148Z</time></trkpt><trkpt lat="46.1300331" lon="13.6075993"><ele>490.00000000000006</ele><time>2026-05-02T09:11:55.147Z</time></trkpt><trkpt lat="46.130103" lon="13.6076272"><ele>490.0</ele><time>2026-05-02T09:11:56.148Z</time></trkpt><trkpt lat="46.1301754" lon="13.6076455"><ele>491.4</ele><time>2026-05-02T09:11:57.147Z</time></trkpt><trkpt lat="46.1302773" lon="13.6077021"><ele>492.8</ele><time>2026-05-02T09:11:59.147Z</time></trkpt><trkpt lat="46.130334" lon="13.607808"><ele>494.20000000000005</ele><time>2026-05-02T09:12:01.148Z</time></trkpt><trkpt lat="46.1303602" lon="13.6079947"><ele>495.6</ele><time>2026-05-02T09:12:03.147Z</time></trkpt><trkpt lat="46.130368" lon="13.608111"><ele>497.0</ele><time>2026-05-02T09:12:04.148Z</time></trkpt><trkpt lat="46.1303628" lon="13.6082127"><ele>497.0</ele><time>2026-05-02T09:12:05.148Z</time></trkpt><trkpt lat="46.1303506" lon="13.6083784"><ele>497.00000000000006</ele><time>2026-05-02T09:12:07.148Z</time></trkpt><trkpt lat="46.1303318" lon="13.6084667"><ele>497.00000000000006</ele><time>2026-05-02T09:12:08.147Z</time></trkpt><trkpt lat="46.1302929" lon="13.6086364"><ele>497.0</ele><time>2026-05-02T09:12:10.147Z</time></trkpt><trkpt lat="46.1302578" lon="13.6088118"><ele>497.0</ele><time>2026-05-02T09:12:12.148Z</time></trkpt><trkpt lat="46.1302244" lon="13.6089577"><ele>498.3333333333333</ele><time>2026-05-02T09:12:14.147Z</time></trkpt><trkpt lat="46.1301885" lon="13.6090922"><ele>499.66666666666663</ele><time>2026-05-02T09:12:16.148Z</time></trkpt><trkpt lat="46.1301499" lon="13.6091823"><ele>501.0</ele><time>2026-05-02T09:12:17.148Z</time></trkpt><trkpt lat="46.1301236" lon="13.6093068"><ele>502.33333333333337</ele><time>2026-05-02T09:12:19.148Z</time></trkpt><trkpt lat="46.1301652" lon="13.6094165"><ele>503.6666666666667</ele><time>2026-05-02T09:12:21.147Z</time></trkpt><trkpt lat="46.1302428" lon="13.6094266"><ele>505.0</ele><time>2026-05-02T09:12:23.147Z</time></trkpt><trkpt lat="46.1303229" lon="13.609381"><ele>505.00000000000006</ele><time>2026-05-02T09:12:25.147Z</time></trkpt><trkpt lat="46.1303947" lon="13.6093591"><ele>505.0</ele><time>2026-05-02T09:12:26.147Z</time></trkpt><trkpt lat="46.1304697" lon="13.6093365"><ele>505.0</ele><time>2026-05-02T09:12:27.148Z</time></trkpt><trkpt lat="46.1305329" lon="13.6093197"><ele>505.0</ele><time>2026-05-02T09:12:28.148Z</time></trkpt><trkpt lat="46.1305996" lon="13.6093114"><ele>505.00000000000006</ele><time>2026-05-02T09:12:29.147Z</time></trkpt><trkpt lat="46.1307167" lon="13.6092889"><ele>505.0</ele><time>2026-05-02T09:12:31.148Z</time></trkpt><trkpt lat="46.1307886" lon="13.6092807"><ele>507.6</ele><time>2026-05-02T09:12:32.148Z</time></trkpt><trkpt lat="46.1308542" lon="13.6093011"><ele>510.2</ele><time>2026-05-02T09:12:33.147Z</time></trkpt><trkpt lat="46.1309469" lon="13.6093771"><ele>512.8</ele><time>2026-05-02T09:12:35.147Z</time></trkpt><trkpt lat="46.1310227" lon="13.6094891"><ele>515.4</ele><time>2026-05-02T09:12:37.147Z</time></trkpt><trkpt lat="46.1311218" lon="13.6095315"><ele>518.0</ele><time>2026-05-02T09:12:39.147Z</time></trkpt><trkpt lat="46.1312182" lon="13.6094585"><ele>511.0</ele><time>2026-05-02T09:12:41.147Z</time></trkpt><trkpt lat="46.1312622" lon="13.6093731"><ele>503.99999999999994</ele><time>2026-05-02T09:12:42.147Z</time></trkpt><trkpt lat="46.1312884" lon="13.609284"><ele>496.99999999999994</ele><time>2026-05-02T09:12:43.147Z</time></trkpt><trkpt lat="46.1313278" lon="13.6090762"><ele>490.0</ele><time>2026-05-02T09:12:45.147Z</time></trkpt><trkpt lat="46.131347" lon="13.6089633"><ele>483.0</ele><time>2026-05-02T09:12:46.147Z</time></trkpt><trkpt lat="46.1313806" lon="13.6088551"><ele>483.0</ele><time>2026-05-02T09:12:47.148Z</time></trkpt><trkpt lat="46.1314182" lon="13.6087484"><ele>483.0</ele><time>2026-05-02T09:12:48.147Z</time></trkpt><trkpt lat="46.1314529" lon="13.6086619"><ele>483.0</ele><time>2026-05-02T09:12:49.148Z</time></trkpt><trkpt lat="46.1314965" lon="13.6085712"><ele>483.0</ele><time>2026-05-02T09:12:50.148Z</time></trkpt><trkpt lat="46.1315387" lon="13.6084775"><ele>483.0</ele><time>2026-05-02T09:12:51.147Z</time></trkpt><trkpt lat="46.1315799" lon="13.6084024"><ele>483.0</ele><time>2026-05-02T09:12:52.147Z</time></trkpt><trkpt lat="46.131625" lon="13.6083358"><ele>483.0</ele><time>2026-05-02T09:12:53.148Z</time></trkpt><trkpt lat="46.131672" lon="13.6082563"><ele>483.3333333333333</ele><time>2026-05-02T09:12:54.148Z</time></trkpt><trkpt lat="46.1317218" lon="13.6081663"><ele>483.66666666666663</ele><time>2026-05-02T09:12:55.147Z</time></trkpt><trkpt lat="46.1317708" lon="13.6080715"><ele>484.0</ele><time>2026-05-02T09:12:56.147Z</time></trkpt><trkpt lat="46.1318082" lon="13.607979"><ele>484.3333333333333</ele><time>2026-05-02T09:12:57.147Z</time></trkpt><trkpt lat="46.1318412" lon="13.6078652"><ele>484.66666666666663</ele><time>2026-05-02T09:12:58.148Z</time></trkpt><trkpt lat="46.1318809" lon="13.6077483"><ele>485.0</ele><time>2026-05-02T09:12:59.147Z</time></trkpt><trkpt lat="46.1319218" lon="13.60765"><ele>480.8333333333333</ele><time>2026-05-02T09:13:00.147Z</time></trkpt><trkpt lat="46.1319658" lon="13.6075543"><ele>476.66666666666663</ele><time>2026-05-02T09:13:01.147Z</time></trkpt><trkpt lat="46.132005" lon="13.607473"><ele>472.5</ele><time>2026-05-02T09:13:02.147Z</time></trkpt><trkpt lat="46.1320694" lon="13.6073659"><ele>468.33333333333337</ele><time>2026-05-02T09:13:04.147Z</time></trkpt><trkpt lat="46.1321291" lon="13.6073122"><ele>464.1666666666667</ele><time>2026-05-02T09:13:06.147Z</time></trkpt><trkpt lat="46.1321968" lon="13.6073242"><ele>460.0</ele><time>2026-05-02T09:13:08.148Z</time></trkpt><trkpt lat="46.1323166" lon="13.6074205"><ele>467.4</ele><time>2026-05-02T09:13:10.148Z</time></trkpt><trkpt lat="46.1323903" lon="13.6074811"><ele>474.8</ele><time>2026-05-02T09:13:11.147Z</time></trkpt><trkpt lat="46.1324986" lon="13.6074889"><ele>482.20000000000005</ele><time>2026-05-02T09:13:13.147Z</time></trkpt><trkpt lat="46.1325553" lon="13.6074096"><ele>489.6</ele><time>2026-05-02T09:13:15.147Z</time></trkpt><trkpt lat="46.1326182" lon="13.6072187"><ele>497.0</ele><time>2026-05-02T09:13:17.148Z</time></trkpt><trkpt lat="46.132662" lon="13.6071094"><ele>496.99999999999994</ele><time>2026-05-02T09:13:18.147Z</time></trkpt><trkpt lat="46.1327167" lon="13.6070048"><ele>497.0</ele><time>2026-05-02T09:13:19.147Z</time></trkpt><trkpt lat="46.1327697" lon="13.6068848"><ele>497.0</ele><time>2026-05-02T09:13:20.147Z</time></trkpt><trkpt lat="46.1328186" lon="13.6067901"><ele>497.0</ele><time>2026-05-02T09:13:21.147Z</time></trkpt><trkpt lat="46.1328557" lon="13.606708"><ele>496.99999999999994</ele><time>2026-05-02T09:13:22.148Z</time></trkpt><trkpt lat="46.1329232" lon="13.6066313"><ele>497.0</ele><time>2026-05-02T09:13:24.147Z</time></trkpt><trkpt lat="46.1329956" lon="13.606623"><ele>494.40000000000003</ele><time>2026-05-02T09:13:26.147Z</time></trkpt><trkpt lat="46.1330915" lon="13.6066607"><ele>491.80000000000007</ele><time>2026-05-02T09:13:28.147Z</time></trkpt><trkpt lat="46.1331834" lon="13.6067252"><ele>489.2</ele><time>2026-05-02T09:13:29.148Z</time></trkpt><trkpt lat="46.1332688" lon="13.6067654"><ele>486.6</ele><time>2026-05-02T09:13:30.147Z</time></trkpt><trkpt lat="46.1333549" lon="13.606796"><ele>484.0</ele><time>2026-05-02T09:13:31.147Z</time></trkpt><trkpt lat="46.1334426" lon="13.6068197"><ele>484.00000000000006</ele><time>2026-05-02T09:13:32.148Z</time></trkpt><trkpt lat="46.1335254" lon="13.6068315"><ele>484.0</ele><time>2026-05-02T09:13:33.148Z</time></trkpt><trkpt lat="46.1335998" lon="13.6068485"><ele>484.0</ele><time>2026-05-02T09:13:34.147Z</time></trkpt><trkpt lat="46.1336622" lon="13.6068705"><ele>484.0</ele><time>2026-05-02T09:13:35.147Z</time></trkpt><trkpt lat="46.1337701" lon="13.6069213"><ele>484.00000000000006</ele><time>2026-05-02T09:13:37.147Z</time></trkpt><trkpt lat="46.1338328" lon="13.6069374"><ele>484.0</ele><time>2026-05-02T09:13:38.147Z</time></trkpt><trkpt lat="46.1339016" lon="13.6069447"><ele>484.0</ele><time>2026-05-02T09:13:39.148Z</time></trkpt><trkpt lat="46.133972" lon="13.6069517"><ele>483.99999999999994</ele><time>2026-05-02T09:13:40.147Z</time></trkpt><trkpt lat="46.1340452" lon="13.606958"><ele>484.0</ele><time>2026-05-02T09:13:41.148Z</time></trkpt><trkpt lat="46.1341145" lon="13.6069692"><ele>484.0</ele><time>2026-05-02T09:13:42.147Z</time></trkpt><trkpt lat="46.1341855" lon="13.6069815"><ele>483.99999999999994</ele><time>2026-05-02T09:13:43.148Z</time></trkpt><trkpt lat="46.1342582" lon="13.6069846"><ele>484.0</ele><time>2026-05-02T09:13:44.148Z</time></trkpt><trkpt lat="46.1343219" lon="13.6069792"><ele>484.0</ele><time>2026-05-02T09:13:45.147Z</time></trkpt><trkpt lat="46.1343886" lon="13.6069827"><ele>490.6</ele><time>2026-05-02T09:13:46.148Z</time></trkpt><trkpt lat="46.1344815" lon="13.6070168"><ele>497.2</ele><time>2026-05-02T09:13:48.147Z</time></trkpt><trkpt lat="46.1346005" lon="13.6070899"><ele>503.80000000000007</ele><time>2026-05-02T09:13:50.147Z</time></trkpt><trkpt lat="46.1346661" lon="13.6071353"><ele>510.40000000000003</ele><time>2026-05-02T09:13:51.147Z</time></trkpt><trkpt lat="46.1347384" lon="13.6072597"><ele>517.0</ele><time>2026-05-02T09:13:53.147Z</time></trkpt><trkpt lat="46.1347742" lon="13.607335"><ele>517.0</ele><time>2026-05-02T09:13:54.147Z</time></trkpt><trkpt lat="46.1348819" lon="13.607423"><ele>517.0</ele><time>2026-05-02T09:13:56.148Z</time></trkpt><trkpt lat="46.1349621" lon="13.6074513"><ele>517.0</ele><time>2026-05-02T09:13:57.147Z</time></trkpt><trkpt lat="46.1350371" lon="13.6074862"><ele>517.0</ele><time>2026-05-02T09:13:58.147Z</time></trkpt><trkpt lat="46.1351285" lon="13.6076017"><ele>517.0</ele><time>2026-05-02T09:14:00.147Z</time></trkpt><trkpt lat="46.1351694" lon="13.6076876"><ele>518.7142857142858</ele><time>2026-05-02T09:14:01.148Z</time></trkpt><trkpt lat="46.1352094" lon="13.607779"><ele>520.4285714285714</ele><time>2026-05-02T09:14:02.148Z</time></trkpt><trkpt lat="46.1352504" lon="13.6078599"><ele>522.1428571428571</ele><time>2026-05-02T09:14:03.148Z</time></trkpt><trkpt lat="46.1352983" lon="13.6079273"><ele>523.8571428571429</ele><time>2026-05-02T09:14:04.148Z</time></trkpt><trkpt lat="46.1353553" lon="13.6079818"><ele>525.5714285714286</ele><time>2026-05-02T09:14:05.148Z</time></trkpt><trkpt lat="46.1354282" lon="13.6080413"><ele>527.2857142857143</ele><time>2026-05-02T09:14:06.147Z</time></trkpt><trkpt lat="46.1354934" lon="13.6081106"><ele>529.0</ele><time>2026-05-02T09:14:07.147Z</time></trkpt><trkpt lat="46.1355572" lon="13.6081759"><ele>529.0</ele><time>2026-05-02T09:14:08.147Z</time></trkpt><trkpt lat="46.1356154" lon="13.6082196"><ele>529.0</ele><time>2026-05-02T09:14:09.147Z</time></trkpt><trkpt lat="46.1356785" lon="13.608241"><ele>529.0</ele><time>2026-05-02T09:14:10.148Z</time></trkpt><trkpt lat="46.1357985" lon="13.6082422"><ele>529.0</ele><time>2026-05-02T09:14:12.147Z</time></trkpt><trkpt lat="46.1358578" lon="13.6083132"><ele>529.0</ele><time>2026-05-02T09:14:14.148Z</time></trkpt><trkpt lat="46.1358931" lon="13.6084622"><ele>529.0</ele><time>2026-05-02T09:14:16.148Z</time></trkpt><trkpt lat="46.1359014" lon="13.6085676"><ele>521.4</ele><time>2026-05-02T09:14:17.147Z</time></trkpt><trkpt lat="46.1359018" lon="13.6086731"><ele>513.8</ele><time>2026-05-02T09:14:18.147Z</time></trkpt><trkpt lat="46.1358834" lon="13.6087834"><ele>506.20000000000005</ele><time>2026-05-02T09:14:19.147Z</time></trkpt><trkpt lat="46.1358389" lon="13.6089069"><ele>498.6</ele><time>2026-05-02T09:14:20.148Z</time></trkpt><trkpt lat="46.1357828" lon="13.6090313"><ele>491.0</ele><time>2026-05-02T09:14:21.147Z</time></trkpt><trkpt lat="46.1357276" lon="13.6091572"><ele>497.66666666666663</ele><time>2026-05-02T09:14:22.147Z</time></trkpt><trkpt lat="46.135684" lon="13.6092725"><ele>504.3333333333333</ele><time>2026-05-02T09:14:23.147Z</time></trkpt><trkpt lat="46.1356524" lon="13.6093713"><ele>511.0</ele><time>2026-05-02T09:14:24.148Z</time></trkpt><trkpt lat="46.1356211" lon="13.609463"><ele>517.6666666666666</ele><time>2026-05-02T09:14:25.147Z</time></trkpt><trkpt lat="46.135588" lon="13.6095672"><ele>524.3333333333334</ele><time>2026-05-02T09:14:26.147Z</time></trkpt><trkpt lat="46.1355557" lon="13.609684"><ele>531.0</ele><time>2026-05-02T09:14:27.147Z</time></trkpt><trkpt lat="46.1355245" lon="13.6097968"><ele>531.0</ele><time>2026-05-02T09:14:28.147Z</time></trkpt><trkpt lat="46.1354965" lon="13.609902"><ele>531.0</ele><time>2026-05-02T09:14:29.148Z</time></trkpt><trkpt lat="46.1354834" lon="13.6100004"><ele>531.0</ele><time>2026-05-02T09:14:30.146Z</time></trkpt><trkpt lat="46.135447" lon="13.6101596"><ele>531.0</ele><time>2026-05-02T09:14:32.146Z</time></trkpt><trkpt lat="46.1354584" lon="13.6102806"><ele>531.0</ele><time>2026-05-02T09:14:34.146Z</time></trkpt><trkpt lat="46.1355331" lon="13.6103482"><ele>531.0</ele><time>2026-05-02T09:14:36.147Z</time></trkpt><trkpt lat="46.1356415" lon="13.6103485"><ele>531.8333333333334</ele><time>2026-05-02T09:14:39.146Z</time></trkpt><trkpt lat="46.1357024" lon="13.6103751"><ele>532.6666666666666</ele><time>2026-05-02T09:14:40.147Z</time></trkpt><trkpt lat="46.1357647" lon="13.6104323"><ele>533.5</ele><time>2026-05-02T09:14:41.147Z</time></trkpt><trkpt lat="46.1358283" lon="13.6104885"><ele>534.3333333333333</ele><time>2026-05-02T09:14:42.147Z</time></trkpt><trkpt lat="46.1359143" lon="13.610556"><ele>535.1666666666666</ele><time>2026-05-02T09:14:44.146Z</time></trkpt><trkpt lat="46.1359666" lon="13.6106705"><ele>536.0</ele><time>2026-05-02T09:14:46.147Z</time></trkpt><trkpt lat="46.1360056" lon="13.6108067"><ele>532.0</ele><time>2026-05-02T09:14:48.146Z</time></trkpt><trkpt lat="46.1359954" lon="13.6109692"><ele>528.0</ele><time>2026-05-02T09:14:50.146Z</time></trkpt><trkpt lat="46.1359899" lon="13.6110682"><ele>524.0</ele><time>2026-05-02T09:14:51.146Z</time></trkpt><trkpt lat="46.1359746" lon="13.6111603"><ele>520.0</ele><time>2026-05-02T09:14:52.146Z</time></trkpt><trkpt lat="46.1359443" lon="13.6112928"><ele>516.0</ele><time>2026-05-02T09:14:54.146Z</time></trkpt><trkpt lat="46.136023" lon="13.6114464"><ele>516.0</ele><time>2026-05-02T09:14:56.146Z</time></trkpt><trkpt lat="46.1360779" lon="13.6115169"><ele>516.0</ele><time>2026-05-02T09:14:57.147Z</time></trkpt><trkpt lat="46.1361238" lon="13.6115815"><ele>516.0</ele><time>2026-05-02T09:14:58.146Z</time></trkpt><trkpt lat="46.136155" lon="13.6117048"><ele>516.0</ele><time>2026-05-02T09:15:00.146Z</time></trkpt><trkpt lat="46.136114" lon="13.6118105"><ele>516.0</ele><time>2026-05-02T09:15:02.146Z</time></trkpt><trkpt lat="46.1360267" lon="13.611905"><ele>516.0</ele><time>2026-05-02T09:15:03.147Z</time></trkpt><trkpt lat="46.1359359" lon="13.6119792"><ele>516.8333333333334</ele><time>2026-05-02T09:15:04.146Z</time></trkpt><trkpt lat="46.1358598" lon="13.6120516"><ele>517.6666666666666</ele><time>2026-05-02T09:15:05.146Z</time></trkpt><trkpt lat="46.1357949" lon="13.6121311"><ele>518.5</ele><time>2026-05-02T09:15:06.146Z</time></trkpt><trkpt lat="46.1357518" lon="13.6122012"><ele>519.3333333333333</ele><time>2026-05-02T09:15:07.147Z</time></trkpt><trkpt lat="46.1357111" lon="13.6122734"><ele>520.1666666666666</ele><time>2026-05-02T09:15:08.146Z</time></trkpt><trkpt lat="46.1356766" lon="13.6124112"><ele>521.0</ele><time>2026-05-02T09:15:10.146Z</time></trkpt><trkpt lat="46.1357806" lon="13.6124393"><ele>521.0</ele><time>2026-05-02T09:15:13.146Z</time></trkpt><trkpt lat="46.1358425" lon="13.6124155"><ele>521.0</ele><time>2026-05-02T09:15:14.147Z</time></trkpt><trkpt lat="46.1359871" lon="13.6124331"><ele>521.0</ele><time>2026-05-02T09:15:16.147Z</time></trkpt><trkpt lat="46.1360675" lon="13.612462"><ele>521.0</ele><time>2026-05-02T09:15:17.146Z</time></trkpt><trkpt lat="46.1361284" lon="13.6125076"><ele>521.0</ele><time>2026-05-02T09:15:18.147Z</time></trkpt><trkpt lat="46.1361905" lon="13.6125511"><ele>521.0</ele><time>2026-05-02T09:15:19.146Z</time></trkpt><trkpt lat="46.1362407" lon="13.6126072"><ele>521.0</ele><time>2026-05-02T09:15:20.146Z</time></trkpt><trkpt lat="46.1363019" lon="13.6127525"><ele>521.0</ele><time>2026-05-02T09:15:22.146Z</time></trkpt><trkpt lat="46.1363391" lon="13.6129231"><ele>521.0</ele><time>2026-05-02T09:15:24.146Z</time></trkpt><trkpt lat="46.136346" lon="13.6130357"><ele>521.0</ele><time>2026-05-02T09:15:25.147Z</time></trkpt><trkpt lat="46.1363494" lon="13.6131396"><ele>521.0</ele><time>2026-05-02T09:15:26.146Z</time></trkpt><trkpt lat="46.1363606" lon="13.6132305"><ele>520.4</ele><time>2026-05-02T09:15:27.147Z</time></trkpt><trkpt lat="46.1363906" lon="13.6133694"><ele>519.8</ele><time>2026-05-02T09:15:29.146Z</time></trkpt><trkpt lat="46.1364356" lon="13.6135011"><ele>519.1999999999999</ele><time>2026-05-02T09:15:31.147Z</time></trkpt><trkpt lat="46.1364935" lon="13.6135588"><ele>518.6</ele><time>2026-05-02T09:15:34.146Z</time></trkpt><trkpt lat="46.1365589" lon="13.6134758"><ele>518.0</ele><time>2026-05-02T09:15:58.146Z</time></trkpt><trkpt lat="46.1366343" lon="13.6133647"><ele>518.0</ele><time>2026-05-02T09:16:00.146Z</time></trkpt><trkpt lat="46.1366964" lon="13.6132322"><ele>518.0</ele><time>2026-05-02T09:16:02.147Z</time></trkpt><trkpt lat="46.1367387" lon="13.6131498"><ele>518.0</ele><time>2026-05-02T09:16:03.147Z</time></trkpt><trkpt lat="46.1367919" lon="13.6130124"><ele>518.0</ele><time>2026-05-02T09:16:05.147Z</time></trkpt><trkpt lat="46.136844" lon="13.6128592"><ele>518.0</ele><time>2026-05-02T09:16:07.147Z</time></trkpt><trkpt lat="46.136865" lon="13.6127663"><ele>515.5</ele><time>2026-05-02T09:16:08.146Z</time></trkpt><trkpt lat="46.1368886" lon="13.6126682"><ele>513.0</ele><time>2026-05-02T09:16:09.147Z</time></trkpt><trkpt lat="46.136901" lon="13.6125755"><ele>510.5</ele><time>2026-05-02T09:16:10.146Z</time></trkpt><trkpt lat="46.1369244" lon="13.6124861"><ele>508.0</ele><time>2026-05-02T09:16:11.146Z</time></trkpt><trkpt lat="46.1369575" lon="13.612404"><ele>505.49999999999994</ele><time>2026-05-02T09:16:12.147Z</time></trkpt><trkpt lat="46.1370316" lon="13.6122734"><ele>503.0</ele><time>2026-05-02T09:16:14.146Z</time></trkpt><trkpt lat="46.1370804" lon="13.6122118"><ele>502.99999999999994</ele><time>2026-05-02T09:16:15.146Z</time></trkpt><trkpt lat="46.1371368" lon="13.6121528"><ele>503.0</ele><time>2026-05-02T09:16:16.147Z</time></trkpt><trkpt lat="46.1371954" lon="13.6120999"><ele>503.0</ele><time>2026-05-02T09:16:17.146Z</time></trkpt><trkpt lat="46.1372882" lon="13.6120286"><ele>503.0</ele><time>2026-05-02T09:16:19.146Z</time></trkpt><trkpt lat="46.1373699" lon="13.6119482"><ele>502.99999999999994</ele><time>2026-05-02T09:16:21.147Z</time></trkpt><trkpt lat="46.1373926" lon="13.6118412"><ele>503.0</ele><time>2026-05-02T09:16:23.146Z</time></trkpt><trkpt lat="46.1373893" lon="13.611747"><ele>501.14285714285717</ele><time>2026-05-02T09:16:24.147Z</time></trkpt><trkpt lat="46.1373696" lon="13.6116438"><ele>499.28571428571433</ele><time>2026-05-02T09:16:25.146Z</time></trkpt><trkpt lat="46.1373512" lon="13.6115378"><ele>497.42857142857144</ele><time>2026-05-02T09:16:26.146Z</time></trkpt><trkpt lat="46.1373282" lon="13.6114329"><ele>495.57142857142856</ele><time>2026-05-02T09:16:27.146Z</time></trkpt><trkpt lat="46.1373112" lon="13.6113368"><ele>493.7142857142857</ele><time>2026-05-02T09:16:28.146Z</time></trkpt><trkpt lat="46.1372917" lon="13.6112457"><ele>491.8571428571429</ele><time>2026-05-02T09:16:29.146Z</time></trkpt><trkpt lat="46.1372819" lon="13.6111557"><ele>490.0</ele><time>2026-05-02T09:16:30.146Z</time></trkpt><trkpt lat="46.1372772" lon="13.611055"><ele>487.7142857142857</ele><time>2026-05-02T09:16:31.146Z</time></trkpt><trkpt lat="46.1372719" lon="13.6109442"><ele>485.42857142857144</ele><time>2026-05-02T09:16:32.147Z</time></trkpt><trkpt lat="46.1372685" lon="13.6108333"><ele>483.1428571428571</ele><time>2026-05-02T09:16:33.147Z</time></trkpt><trkpt lat="46.137269" lon="13.6107292"><ele>480.85714285714283</ele><time>2026-05-02T09:16:34.146Z</time></trkpt><trkpt lat="46.1372665" lon="13.6106274"><ele>478.57142857142856</ele><time>2026-05-02T09:16:35.146Z</time></trkpt><trkpt lat="46.1372684" lon="13.6105331"><ele>476.2857142857142</ele><time>2026-05-02T09:16:36.146Z</time></trkpt><trkpt lat="46.1372698" lon="13.6104395"><ele>473.99999999999994</ele><time>2026-05-02T09:16:37.147Z</time></trkpt><trkpt lat="46.1372732" lon="13.6103468"><ele>475.6666666666667</ele><time>2026-05-02T09:16:38.146Z</time></trkpt><trkpt lat="46.1372847" lon="13.6102485"><ele>477.33333333333337</ele><time>2026-05-02T09:16:39.147Z</time></trkpt><trkpt lat="46.1373005" lon="13.6101479"><ele>479.0</ele><time>2026-05-02T09:16:40.147Z</time></trkpt><trkpt lat="46.1373267" lon="13.6100497"><ele>480.6666666666667</ele><time>2026-05-02T09:16:41.147Z</time></trkpt><trkpt lat="46.137367" lon="13.609943"><ele>482.33333333333337</ele><time>2026-05-02T09:16:42.147Z</time></trkpt><trkpt lat="46.1374119" lon="13.6098334"><ele>484.0</ele><time>2026-05-02T09:16:43.147Z</time></trkpt><trkpt lat="46.1374543" lon="13.6097225"><ele>484.00000000000006</ele><time>2026-05-02T09:16:44.146Z</time></trkpt><trkpt lat="46.1375107" lon="13.6096311"><ele>484.0</ele><time>2026-05-02T09:16:45.146Z</time></trkpt><trkpt lat="46.1375663" lon="13.6095619"><ele>484.0</ele><time>2026-05-02T09:16:46.146Z</time></trkpt><trkpt lat="46.1376174" lon="13.6094738"><ele>484.0</ele><time>2026-05-02T09:16:47.146Z</time></trkpt><trkpt lat="46.1376627" lon="13.6093912"><ele>484.00000000000006</ele><time>2026-05-02T09:16:48.146Z</time></trkpt><trkpt lat="46.1377141" lon="13.6093138"><ele>484.0</ele><time>2026-05-02T09:16:49.147Z</time></trkpt><trkpt lat="46.1377685" lon="13.6092236"><ele>480.0</ele><time>2026-05-02T09:16:50.146Z</time></trkpt><trkpt lat="46.137831" lon="13.609108"><ele>476.0</ele><time>2026-05-02T09:16:51.146Z</time></trkpt><trkpt lat="46.1378888" lon="13.6090136"><ele>472.0</ele><time>2026-05-02T09:16:52.147Z</time></trkpt><trkpt lat="46.1379364" lon="13.6089267"><ele>468.0</ele><time>2026-05-02T09:16:53.147Z</time></trkpt><trkpt lat="46.1380164" lon="13.608819"><ele>464.0</ele><time>2026-05-02T09:16:55.146Z</time></trkpt><trkpt lat="46.1380997" lon="13.6087847"><ele>464.0</ele><time>2026-05-02T09:16:57.146Z</time></trkpt><trkpt lat="46.1381921" lon="13.608851"><ele>464.0</ele><time>2026-05-02T09:16:59.147Z</time></trkpt><trkpt lat="46.1383532" lon="13.6090328"><ele>464.0</ele><time>2026-05-02T09:17:02.146Z</time></trkpt><trkpt lat="46.1384124" lon="13.6091099"><ele>464.0</ele><time>2026-05-02T09:17:03.146Z</time></trkpt><trkpt lat="46.1384813" lon="13.609214"><ele>469.3333333333333</ele><time>2026-05-02T09:17:04.146Z</time></trkpt><trkpt lat="46.1385583" lon="13.6092955"><ele>474.66666666666663</ele><time>2026-05-02T09:17:05.146Z</time></trkpt><trkpt lat="46.1386369" lon="13.6093778"><ele>480.0</ele><time>2026-05-02T09:17:06.146Z</time></trkpt><trkpt lat="46.1387149" lon="13.6094428"><ele>485.33333333333337</ele><time>2026-05-02T09:17:07.147Z</time></trkpt><trkpt lat="46.1387808" lon="13.6095095"><ele>490.6666666666667</ele><time>2026-05-02T09:17:08.146Z</time></trkpt><trkpt lat="46.1388454" lon="13.6095746"><ele>496.0</ele><time>2026-05-02T09:17:09.146Z</time></trkpt><trkpt lat="46.1389127" lon="13.6096437"><ele>497.0</ele><time>2026-05-02T09:17:10.146Z</time></trkpt><trkpt lat="46.138973" lon="13.6097092"><ele>498.0</ele><time>2026-05-02T09:17:11.146Z</time></trkpt><trkpt lat="46.1390851" lon="13.60983"><ele>499.0</ele><time>2026-05-02T09:17:13.146Z</time></trkpt><trkpt lat="46.1391683" lon="13.6099387"><ele>500.0</ele><time>2026-05-02T09:17:15.147Z</time></trkpt><trkpt lat="46.1391866" lon="13.6100354"><ele>501.0</ele><time>2026-05-02T09:17:17.146Z</time></trkpt><trkpt lat="46.1391771" lon="13.6101867"><ele>501.0</ele><time>2026-05-02T09:17:19.147Z</time></trkpt><trkpt lat="46.1391679" lon="13.6102825"><ele>501.0</ele><time>2026-05-02T09:17:20.146Z</time></trkpt><trkpt lat="46.139156" lon="13.610377"><ele>501.0</ele><time>2026-05-02T09:17:21.147Z</time></trkpt><trkpt lat="46.1391294" lon="13.6104709"><ele>501.0</ele><time>2026-05-02T09:17:22.146Z</time></trkpt><trkpt lat="46.1391124" lon="13.6105814"><ele>501.0</ele><time>2026-05-02T09:17:23.147Z</time></trkpt><trkpt lat="46.1391009" lon="13.6106833"><ele>501.0</ele><time>2026-05-02T09:17:24.146Z</time></trkpt><trkpt lat="46.1390835" lon="13.6107755"><ele>501.0</ele><time>2026-05-02T09:17:25.146Z</time></trkpt><trkpt lat="46.139065" lon="13.6108833"><ele>506.4</ele><time>2026-05-02T09:17:26.147Z</time></trkpt><trkpt lat="46.1390381" lon="13.6109877"><ele>511.8</ele><time>2026-05-02T09:17:27.147Z</time></trkpt><trkpt lat="46.1390222" lon="13.6111304"><ele>517.1999999999999</ele><time>2026-05-02T09:17:29.146Z</time></trkpt><trkpt lat="46.139056" lon="13.6112581"><ele>522.6</ele><time>2026-05-02T09:17:31.146Z</time></trkpt><trkpt lat="46.1391276" lon="13.6113779"><ele>528.0</ele><time>2026-05-02T09:17:33.146Z</time></trkpt><trkpt lat="46.1392286" lon="13.6114498"><ele>528.0</ele><time>2026-05-02T09:17:35.146Z</time></trkpt><trkpt lat="46.1393542" lon="13.6114798"><ele>528.0</ele><time>2026-05-02T09:17:37.147Z</time></trkpt><trkpt lat="46.1394183" lon="13.6114979"><ele>528.0</ele><time>2026-05-02T09:17:38.146Z</time></trkpt><trkpt lat="46.1395198" lon="13.6114995"><ele>528.0</ele><time>2026-05-02T09:17:40.146Z</time></trkpt><trkpt lat="46.1396421" lon="13.6114875"><ele>528.0</ele><time>2026-05-02T09:17:42.146Z</time></trkpt><trkpt lat="46.139752" lon="13.6114881"><ele>528.0</ele><time>2026-05-02T09:17:44.147Z</time></trkpt><trkpt lat="46.139846" lon="13.6115483"><ele>528.0</ele><time>2026-05-02T09:17:46.146Z</time></trkpt><trkpt lat="46.1399195" lon="13.6116725"><ele>528.0</ele><time>2026-05-02T09:17:48.147Z</time></trkpt><trkpt lat="46.1399452" lon="13.6117981"><ele>528.0</ele><time>2026-05-02T09:17:50.146Z</time></trkpt><trkpt lat="46.1399602" lon="13.6119049"><ele>528.0</ele><time>2026-05-02T09:17:52.146Z</time></trkpt><trkpt lat="46.1399806" lon="13.6120077"><ele>529.0</ele><time>2026-05-02T09:17:54.146Z</time></trkpt><trkpt lat="46.1400584" lon="13.6121807"><ele>530.0</ele><time>2026-05-02T09:17:57.147Z</time></trkpt><trkpt lat="46.1400977" lon="13.6122655"><ele>531.0</ele><time>2026-05-02T09:17:58.146Z</time></trkpt><trkpt lat="46.1401345" lon="13.6123636"><ele>532.0</ele><time>2026-05-02T09:17:59.147Z</time></trkpt><trkpt lat="46.1401638" lon="13.6124495"><ele>533.0</ele><time>2026-05-02T09:18:00.146Z</time></trkpt><trkpt lat="46.1402027" lon="13.6125821"><ele>533.0</ele><time>2026-05-02T09:18:02.147Z</time></trkpt><trkpt lat="46.1402231" lon="13.6126697"><ele>533.0</ele><time>2026-05-02T09:18:03.146Z</time></trkpt><trkpt lat="46.1402568" lon="13.6128298"><ele>533.0</ele><time>2026-05-02T09:18:05.147Z</time></trkpt><trkpt lat="46.1403016" lon="13.6129561"><ele>533.0</ele><time>2026-05-02T09:18:07.146Z</time></trkpt><trkpt lat="46.140377" lon="13.6130742"><ele>533.0</ele><time>2026-05-02T09:18:09.147Z</time></trkpt><trkpt lat="46.1404554" lon="13.6132074"><ele>535.5</ele><time>2026-05-02T09:18:11.146Z</time></trkpt><trkpt lat="46.1404874" lon="13.6133054"><ele>538.0</ele><time>2026-05-02T09:18:12.146Z</time></trkpt><trkpt lat="46.1405202" lon="13.6134423"><ele>540.5</ele><time>2026-05-02T09:18:13.147Z</time></trkpt><trkpt lat="46.140549" lon="13.6135951"><ele>543.0</ele><time>2026-05-02T09:18:14.146Z</time></trkpt><trkpt lat="46.140569" lon="13.6137185"><ele>545.5</ele><time>2026-05-02T09:18:15.146Z</time></trkpt><trkpt lat="46.1405917" lon="13.6138047"><ele>548.0</ele><time>2026-05-02T09:18:16.146Z</time></trkpt><trkpt lat="46.1405749" lon="13.6139076"><ele>548.0</ele><time>2026-05-02T09:18:18.145Z</time></trkpt><trkpt lat="46.140504" lon="13.6139321"><ele>548.0</ele><time>2026-05-02T09:18:20.145Z</time></trkpt><trkpt lat="46.1404633" lon="13.6138541"><ele>548.0</ele><time>2026-05-02T09:18:21.145Z</time></trkpt><trkpt lat="46.1404207" lon="13.6137659"><ele>548.0</ele><time>2026-05-02T09:18:22.146Z</time></trkpt><trkpt lat="46.1403794" lon="13.6136684"><ele>548.0</ele><time>2026-05-02T09:18:23.145Z</time></trkpt><trkpt lat="46.1402874" lon="13.6136385"><ele>548.0</ele><time>2026-05-02T09:18:25.145Z</time></trkpt><trkpt lat="46.1402363" lon="13.6137492"><ele>550.6</ele><time>2026-05-02T09:18:27.145Z</time></trkpt><trkpt lat="46.1402673" lon="13.6139241"><ele>553.1999999999999</ele><time>2026-05-02T09:18:29.145Z</time></trkpt><trkpt lat="46.1403407" lon="13.614044"><ele>555.8</ele><time>2026-05-02T09:18:30.145Z</time></trkpt><trkpt lat="46.1403933" lon="13.6141579"><ele>558.4</ele><time>2026-05-02T09:18:31.145Z</time></trkpt><trkpt lat="46.140434" lon="13.6142652"><ele>561.0</ele><time>2026-05-02T09:18:32.145Z</time></trkpt><trkpt lat="46.1404632" lon="13.6143597"><ele>561.0</ele><time>2026-05-02T09:18:33.145Z</time></trkpt><trkpt lat="46.1404921" lon="13.6144724"><ele>561.0</ele><time>2026-05-02T09:18:34.146Z</time></trkpt><trkpt lat="46.1405003" lon="13.6145848"><ele>561.0</ele><time>2026-05-02T09:18:35.146Z</time></trkpt><trkpt lat="46.1404956" lon="13.6147451"><ele>561.0</ele><time>2026-05-02T09:18:37.146Z</time></trkpt><trkpt lat="46.1404367" lon="13.6148293"><ele>561.0</ele><time>2026-05-02T09:18:39.145Z</time></trkpt><trkpt lat="46.1403279" lon="13.6147713"><ele>561.0</ele><time>2026-05-02T09:18:41.146Z</time></trkpt><trkpt lat="46.1402688" lon="13.6147077"><ele>561.0</ele><time>2026-05-02T09:18:42.146Z</time></trkpt><trkpt lat="46.1401706" lon="13.6146315"><ele>561.0</ele><time>2026-05-02T09:18:44.145Z</time></trkpt><trkpt lat="46.1400959" lon="13.6145305"><ele>561.0</ele><time>2026-05-02T09:18:46.145Z</time></trkpt><trkpt lat="46.1400604" lon="13.6144522"><ele>561.0</ele><time>2026-05-02T09:18:47.146Z</time></trkpt><trkpt lat="46.140027" lon="13.6143714"><ele>561.0</ele><time>2026-05-02T09:18:48.146Z</time></trkpt><trkpt lat="46.1399796" lon="13.6142917"><ele>561.0</ele><time>2026-05-02T09:18:49.146Z</time></trkpt><trkpt lat="46.1399166" lon="13.6142125"><ele>561.0</ele><time>2026-05-02T09:18:50.145Z</time></trkpt><trkpt lat="46.1398566" lon="13.6141471"><ele>561.0</ele><time>2026-05-02T09:18:51.146Z</time></trkpt><trkpt lat="46.1398073" lon="13.6140662"><ele>561.0</ele><time>2026-05-02T09:18:52.146Z</time></trkpt><trkpt lat="46.1397753" lon="13.6139668"><ele>561.0</ele><time>2026-05-02T09:18:53.145Z</time></trkpt><trkpt lat="46.1397339" lon="13.6138246"><ele>561.0</ele><time>2026-05-02T09:18:55.145Z</time></trkpt><trkpt lat="46.1396149" lon="13.6137666"><ele>561.6</ele><time>2026-05-02T09:18:57.145Z</time></trkpt><trkpt lat="46.1395477" lon="13.6137436"><ele>562.2</ele><time>2026-05-02T09:18:58.145Z</time></trkpt><trkpt lat="46.1394339" lon="13.6136919"><ele>562.8</ele><time>2026-05-02T09:19:00.145Z</time></trkpt><trkpt lat="46.1393555" lon="13.6135965"><ele>563.4</ele><time>2026-05-02T09:19:02.145Z</time></trkpt><trkpt lat="46.1392965" lon="13.6134751"><ele>564.0</ele><time>2026-05-02T09:19:04.145Z</time></trkpt><trkpt lat="46.1392264" lon="13.6134173"><ele>564.0</ele><time>2026-05-02T09:19:06.146Z</time></trkpt><trkpt lat="46.1391623" lon="13.6133841"><ele>564.0</ele><time>2026-05-02T09:19:08.145Z</time></trkpt><trkpt lat="46.139066" lon="13.613468"><ele>564.0</ele><time>2026-05-02T09:19:10.145Z</time></trkpt><trkpt lat="46.1389737" lon="13.6135628"><ele>564.0</ele><time>2026-05-02T09:19:12.145Z</time></trkpt><trkpt lat="46.1388911" lon="13.6136679"><ele>564.0</ele><time>2026-05-02T09:19:14.145Z</time></trkpt><trkpt lat="46.1388147" lon="13.613818"><ele>565.3333333333334</ele><time>2026-05-02T09:19:16.145Z</time></trkpt><trkpt lat="46.138777" lon="13.6139136"><ele>566.6666666666666</ele><time>2026-05-02T09:19:17.145Z</time></trkpt><trkpt lat="46.138738" lon="13.6140041"><ele>568.0</ele><time>2026-05-02T09:19:18.145Z</time></trkpt><trkpt lat="46.1386883" lon="13.6140953"><ele>569.3333333333333</ele><time>2026-05-02T09:19:19.145Z</time></trkpt><trkpt lat="46.138632" lon="13.6141719"><ele>570.6666666666666</ele><time>2026-05-02T09:19:20.145Z</time></trkpt><trkpt lat="46.1385692" lon="13.614245"><ele>572.0</ele><time>2026-05-02T09:19:21.145Z</time></trkpt><trkpt lat="46.1385045" lon="13.6143144"><ele>572.0</ele><time>2026-05-02T09:19:22.146Z</time></trkpt><trkpt lat="46.1384299" lon="13.6143691"><ele>572.0</ele><time>2026-05-02T09:19:23.145Z</time></trkpt><trkpt lat="46.1383578" lon="13.6144097"><ele>572.0</ele><time>2026-05-02T09:19:24.145Z</time></trkpt><trkpt lat="46.1382827" lon="13.6144303"><ele>572.0</ele><time>2026-05-02T09:19:25.145Z</time></trkpt><trkpt lat="46.138212" lon="13.6144351"><ele>572.0</ele><time>2026-05-02T09:19:26.145Z</time></trkpt><trkpt lat="46.1381367" lon="13.6144345"><ele>572.0</ele><time>2026-05-02T09:19:27.145Z</time></trkpt><trkpt lat="46.1380599" lon="13.6144328"><ele>571.8333333333333</ele><time>2026-05-02T09:19:28.145Z</time></trkpt><trkpt lat="46.1379888" lon="13.6144296"><ele>571.6666666666666</ele><time>2026-05-02T09:19:29.146Z</time></trkpt><trkpt lat="46.1379246" lon="13.6144358"><ele>571.5</ele><time>2026-05-02T09:19:30.145Z</time></trkpt><trkpt lat="46.1378623" lon="13.6144692"><ele>571.3333333333334</ele><time>2026-05-02T09:19:31.145Z</time></trkpt><trkpt lat="46.1378047" lon="13.6145335"><ele>571.1666666666667</ele><time>2026-05-02T09:19:32.146Z</time></trkpt><trkpt lat="46.137748" lon="13.6146411"><ele>571.0</ele><time>2026-05-02T09:19:33.145Z</time></trkpt><trkpt lat="46.1377032" lon="13.6147429"><ele>571.0</ele><time>2026-05-02T09:19:34.146Z</time></trkpt><trkpt lat="46.1376609" lon="13.6148552"><ele>571.0</ele><time>2026-05-02T09:19:35.145Z</time></trkpt><trkpt lat="46.1376288" lon="13.614962"><ele>571.0</ele><time>2026-05-02T09:19:36.145Z</time></trkpt><trkpt lat="46.1375979" lon="13.6150705"><ele>571.0</ele><time>2026-05-02T09:19:37.146Z</time></trkpt><trkpt lat="46.1375712" lon="13.6151944"><ele>571.0</ele><time>2026-05-02T09:19:38.145Z</time></trkpt><trkpt lat="46.1375552" lon="13.6153209"><ele>571.0</ele><time>2026-05-02T09:19:39.146Z</time></trkpt><trkpt lat="46.1375453" lon="13.6154336"><ele>574.8</ele><time>2026-05-02T09:19:40.146Z</time></trkpt><trkpt lat="46.1375395" lon="13.6155466"><ele>578.6</ele><time>2026-05-02T09:19:41.145Z</time></trkpt><trkpt lat="46.1375174" lon="13.6156655"><ele>582.4</ele><time>2026-05-02T09:19:42.146Z</time></trkpt><trkpt lat="46.1374661" lon="13.6157913"><ele>586.2</ele><time>2026-05-02T09:19:43.145Z</time></trkpt><trkpt lat="46.1373813" lon="13.6159005"><ele>590.0</ele><time>2026-05-02T09:19:44.145Z</time></trkpt><trkpt lat="46.1372807" lon="13.6159746"><ele>590.0</ele><time>2026-05-02T09:19:45.145Z</time></trkpt><trkpt lat="46.1371647" lon="13.6160126"><ele>590.0</ele><time>2026-05-02T09:19:46.145Z</time></trkpt><trkpt lat="46.1370695" lon="13.6160481"><ele>590.0</ele><time>2026-05-02T09:19:47.146Z</time></trkpt><trkpt lat="46.1369835" lon="13.6161036"><ele>590.0</ele><time>2026-05-02T09:19:48.145Z</time></trkpt><trkpt lat="46.1368907" lon="13.6161505"><ele>590.0</ele><time>2026-05-02T09:19:49.145Z</time></trkpt><trkpt lat="46.1367951" lon="13.6161849"><ele>591.6666666666666</ele><time>2026-05-02T09:19:50.146Z</time></trkpt><trkpt lat="46.1366955" lon="13.6161861"><ele>593.3333333333333</ele><time>2026-05-02T09:19:51.145Z</time></trkpt><trkpt lat="46.1366019" lon="13.616173"><ele>595.0</ele><time>2026-05-02T09:19:52.145Z</time></trkpt><trkpt lat="46.1365149" lon="13.6161596"><ele>596.6666666666666</ele><time>2026-05-02T09:19:53.145Z</time></trkpt><trkpt lat="46.136432" lon="13.6161436"><ele>598.3333333333334</ele><time>2026-05-02T09:19:54.145Z</time></trkpt><trkpt lat="46.1363497" lon="13.6161181"><ele>600.0</ele><time>2026-05-02T09:19:55.146Z</time></trkpt><trkpt lat="46.1362637" lon="13.616063"><ele>600.0</ele><time>2026-05-02T09:19:56.145Z</time></trkpt><trkpt lat="46.1361899" lon="13.6160183"><ele>600.0</ele><time>2026-05-02T09:19:57.145Z</time></trkpt><trkpt lat="46.136129" lon="13.6159793"><ele>600.0</ele><time>2026-05-02T09:19:58.145Z</time></trkpt><trkpt lat="46.1360342" lon="13.6159341"><ele>600.0</ele><time>2026-05-02T09:20:00.145Z</time></trkpt><trkpt lat="46.1359713" lon="13.6159115"><ele>600.0</ele><time>2026-05-02T09:20:02.145Z</time></trkpt><trkpt lat="46.1359927" lon="13.6160327"><ele>600.0</ele><time>2026-05-02T09:20:06.145Z</time></trkpt><trkpt lat="46.1361109" lon="13.6160735"><ele>600.0</ele><time>2026-05-02T09:20:08.146Z</time></trkpt><trkpt lat="46.1361963" lon="13.616113"><ele>600.0</ele><time>2026-05-02T09:20:09.146Z</time></trkpt><trkpt lat="46.1362999" lon="13.6161807"><ele>600.0</ele><time>2026-05-02T09:20:10.145Z</time></trkpt><trkpt lat="46.1364083" lon="13.6162538"><ele>600.0</ele><time>2026-05-02T09:20:11.145Z</time></trkpt><trkpt lat="46.1365338" lon="13.6163141"><ele>605.5</ele><time>2026-05-02T09:20:12.145Z</time></trkpt><trkpt lat="46.1366603" lon="13.6163497"><ele>611.0</ele><time>2026-05-02T09:20:13.145Z</time></trkpt><trkpt lat="46.1367935" lon="13.616368"><ele>616.5</ele><time>2026-05-02T09:20:14.146Z</time></trkpt><trkpt lat="46.1369291" lon="13.6163623"><ele>622.0</ele><time>2026-05-02T09:20:15.146Z</time></trkpt><trkpt lat="46.1370737" lon="13.616344"><ele>622.0</ele><time>2026-05-02T09:20:16.145Z</time></trkpt><trkpt lat="46.1372238" lon="13.6163075"><ele>622.0</ele><time>2026-05-02T09:20:17.146Z</time></trkpt><trkpt lat="46.1373609" lon="13.6162511"><ele>622.0</ele><time>2026-05-02T09:20:18.146Z</time></trkpt><trkpt lat="46.1374867" lon="13.6161819"><ele>622.0</ele><time>2026-05-02T09:20:19.145Z</time></trkpt><trkpt lat="46.1375946" lon="13.6161207"><ele>615.25</ele><time>2026-05-02T09:20:20.145Z</time></trkpt><trkpt lat="46.1376817" lon="13.6160399"><ele>608.5</ele><time>2026-05-02T09:20:21.145Z</time></trkpt><trkpt lat="46.1377608" lon="13.6159171"><ele>601.75</ele><time>2026-05-02T09:20:22.145Z</time></trkpt><trkpt lat="46.1378294" lon="13.6157652"><ele>595.0</ele><time>2026-05-02T09:20:23.146Z</time></trkpt><trkpt lat="46.1379018" lon="13.6156051"><ele>595.0</ele><time>2026-05-02T09:20:24.145Z</time></trkpt><trkpt lat="46.1379664" lon="13.6154479"><ele>595.0</ele><time>2026-05-02T09:20:25.146Z</time></trkpt><trkpt lat="46.1380221" lon="13.6153053"><ele>595.0</ele><time>2026-05-02T09:20:26.145Z</time></trkpt><trkpt lat="46.1380717" lon="13.6151875"><ele>595.0</ele><time>2026-05-02T09:20:27.146Z</time></trkpt><trkpt lat="46.1381479" lon="13.6151056"><ele>595.0</ele><time>2026-05-02T09:20:28.145Z</time></trkpt><trkpt lat="46.138255" lon="13.6150691"><ele>596.5</ele><time>2026-05-02T09:20:29.145Z</time></trkpt><trkpt lat="46.1383802" lon="13.615061"><ele>598.0</ele><time>2026-05-02T09:20:30.145Z</time></trkpt><trkpt lat="46.1385034" lon="13.6150557"><ele>599.5</ele><time>2026-05-02T09:20:31.146Z</time></trkpt><trkpt lat="46.1386254" lon="13.615058"><ele>601.0</ele><time>2026-05-02T09:20:32.145Z</time></trkpt><trkpt lat="46.138743" lon="13.6150541"><ele>601.0</ele><time>2026-05-02T09:20:33.145Z</time></trkpt><trkpt lat="46.138846" lon="13.6150368"><ele>601.0</ele><time>2026-05-02T09:20:34.145Z</time></trkpt><trkpt lat="46.1389358" lon="13.6150161"><ele>601.0</ele><time>2026-05-02T09:20:35.146Z</time></trkpt><trkpt lat="46.1390206" lon="13.6149851"><ele>601.0</ele><time>2026-05-02T09:20:36.145Z</time></trkpt><trkpt lat="46.1390975" lon="13.6149506"><ele>601.0</ele><time>2026-05-02T09:20:37.145Z</time></trkpt><trkpt lat="46.1391803" lon="13.6149684"><ele>601.0</ele><time>2026-05-02T09:20:38.146Z</time></trkpt><trkpt lat="46.1392447" lon="13.6150284"><ele>601.0</ele><time>2026-05-02T09:20:39.145Z</time></trkpt><trkpt lat="46.1392772" lon="13.61515"><ele>601.0</ele><time>2026-05-02T09:20:40.146Z</time></trkpt><trkpt lat="46.1393055" lon="13.615292"><ele>601.0</ele><time>2026-05-02T09:20:41.145Z</time></trkpt><trkpt lat="46.1393146" lon="13.6154743"><ele>601.0</ele><time>2026-05-02T09:20:42.145Z</time></trkpt><trkpt lat="46.1393148" lon="13.615664"><ele>603.0</ele><time>2026-05-02T09:20:43.146Z</time></trkpt><trkpt lat="46.1393126" lon="13.6158309"><ele>605.0</ele><time>2026-05-02T09:20:44.146Z</time></trkpt><trkpt lat="46.1393114" lon="13.6159936"><ele>607.0</ele><time>2026-05-02T09:20:45.145Z</time></trkpt><trkpt lat="46.1393298" lon="13.6161577"><ele>609.0</ele><time>2026-05-02T09:20:46.145Z</time></trkpt><trkpt lat="46.1393644" lon="13.6163163"><ele>610.5</ele><time>2026-05-02T09:20:47.145Z</time></trkpt><trkpt lat="46.1394" lon="13.6164448"><ele>612.0</ele><time>2026-05-02T09:20:48.146Z</time></trkpt><trkpt lat="46.1394424" lon="13.6165548"><ele>613.5</ele><time>2026-05-02T09:20:49.145Z</time></trkpt><trkpt lat="46.1394867" lon="13.6166346"><ele>615.0</ele><time>2026-05-02T09:20:50.145Z</time></trkpt><trkpt lat="46.139563" lon="13.6166549"><ele>616.5</ele><time>2026-05-02T09:20:51.145Z</time></trkpt><trkpt lat="46.1396546" lon="13.6166255"><ele>618.0</ele><time>2026-05-02T09:20:52.146Z</time></trkpt><trkpt lat="46.1397467" lon="13.6165947"><ele>618.0</ele><time>2026-05-02T09:20:53.145Z</time></trkpt><trkpt lat="46.1398526" lon="13.6165681"><ele>618.0</ele><time>2026-05-02T09:20:54.145Z</time></trkpt><trkpt lat="46.1399687" lon="13.616558"><ele>618.0</ele><time>2026-05-02T09:20:55.146Z</time></trkpt><trkpt lat="46.1400752" lon="13.6165599"><ele>618.0</ele><time>2026-05-02T09:20:56.145Z</time></trkpt><trkpt lat="46.1401713" lon="13.6165848"><ele>618.0</ele><time>2026-05-02T09:20:57.145Z</time></trkpt><trkpt lat="46.1402549" lon="13.6166162"><ele>619.1999999999999</ele><time>2026-05-02T09:20:58.145Z</time></trkpt><trkpt lat="46.1403236" lon="13.6166827"><ele>620.4</ele><time>2026-05-02T09:20:59.145Z</time></trkpt><trkpt lat="46.1403905" lon="13.6167927"><ele>621.5999999999999</ele><time>2026-05-02T09:21:00.146Z</time></trkpt><trkpt lat="46.1404534" lon="13.6169226"><ele>622.8</ele><time>2026-05-02T09:21:01.145Z</time></trkpt><trkpt lat="46.1405154" lon="13.6170612"><ele>624.0</ele><time>2026-05-02T09:21:02.145Z</time></trkpt><trkpt lat="46.1405705" lon="13.6171663"><ele>624.0</ele><time>2026-05-02T09:21:03.145Z</time></trkpt><trkpt lat="46.1406054" lon="13.6172795"><ele>624.0</ele><time>2026-05-02T09:21:04.145Z</time></trkpt><trkpt lat="46.1406345" lon="13.6173919"><ele>624.0</ele><time>2026-05-02T09:21:05.145Z</time></trkpt><trkpt lat="46.1406662" lon="13.6174794"><ele>624.0</ele><time>2026-05-02T09:21:06.146Z</time></trkpt><trkpt lat="46.140783" lon="13.6174604"><ele>624.0</ele><time>2026-05-02T09:21:08.146Z</time></trkpt><trkpt lat="46.1408592" lon="13.6173789"><ele>622.2</ele><time>2026-05-02T09:21:09.145Z</time></trkpt><trkpt lat="46.1409126" lon="13.6172618"><ele>620.4</ele><time>2026-05-02T09:21:10.145Z</time></trkpt><trkpt lat="46.1409724" lon="13.6171521"><ele>618.6</ele><time>2026-05-02T09:21:11.145Z</time></trkpt><trkpt lat="46.1410427" lon="13.6170593"><ele>616.8</ele><time>2026-05-02T09:21:12.146Z</time></trkpt><trkpt lat="46.1411443" lon="13.6170163"><ele>615.0</ele><time>2026-05-02T09:21:13.145Z</time></trkpt><trkpt lat="46.1412499" lon="13.6170225"><ele>615.0</ele><time>2026-05-02T09:21:14.146Z</time></trkpt><trkpt lat="46.1413494" lon="13.6170578"><ele>615.0</ele><time>2026-05-02T09:21:15.146Z</time></trkpt><trkpt lat="46.1414371" lon="13.6170906"><ele>615.0</ele><time>2026-05-02T09:21:16.145Z</time></trkpt><trkpt lat="46.1415253" lon="13.6170651"><ele>615.0</ele><time>2026-05-02T09:21:17.145Z</time></trkpt><trkpt lat="46.1416027" lon="13.6169972"><ele>615.0</ele><time>2026-05-02T09:21:18.145Z</time></trkpt><trkpt lat="46.1416716" lon="13.6168963"><ele>613.0</ele><time>2026-05-02T09:21:19.146Z</time></trkpt><trkpt lat="46.1417173" lon="13.6167603"><ele>611.0</ele><time>2026-05-02T09:21:20.146Z</time></trkpt><trkpt lat="46.1417589" lon="13.6166299"><ele>609.0</ele><time>2026-05-02T09:21:21.145Z</time></trkpt><trkpt lat="46.1418009" lon="13.6165025"><ele>607.0</ele><time>2026-05-02T09:21:22.145Z</time></trkpt><trkpt lat="46.1418401" lon="13.6163743"><ele>605.0</ele><time>2026-05-02T09:21:23.146Z</time></trkpt><trkpt lat="46.141875" lon="13.6162511"><ele>603.3333333333333</ele><time>2026-05-02T09:21:24.145Z</time></trkpt><trkpt lat="46.1419144" lon="13.6161369"><ele>601.6666666666666</ele><time>2026-05-02T09:21:25.146Z</time></trkpt><trkpt lat="46.1419557" lon="13.616026"><ele>600.0</ele><time>2026-05-02T09:21:26.146Z</time></trkpt><trkpt lat="46.1420149" lon="13.6159342"><ele>598.3333333333334</ele><time>2026-05-02T09:21:27.145Z</time></trkpt><trkpt lat="46.1420887" lon="13.6158548"><ele>596.6666666666667</ele><time>2026-05-02T09:21:28.145Z</time></trkpt><trkpt lat="46.1421707" lon="13.6157879"><ele>595.0</ele><time>2026-05-02T09:21:29.145Z</time></trkpt><trkpt lat="46.142258" lon="13.6157192"><ele>595.0</ele><time>2026-05-02T09:21:30.145Z</time></trkpt><trkpt lat="46.1423531" lon="13.6156564"><ele>595.0</ele><time>2026-05-02T09:21:31.146Z</time></trkpt><trkpt lat="46.1424472" lon="13.615591"><ele>595.0</ele><time>2026-05-02T09:21:32.145Z</time></trkpt><trkpt lat="46.1425439" lon="13.6155193"><ele>595.0</ele><time>2026-05-02T09:21:33.145Z</time></trkpt><trkpt lat="46.1426342" lon="13.6154475"><ele>595.0</ele><time>2026-05-02T09:21:34.145Z</time></trkpt><trkpt lat="46.1427191" lon="13.6153749"><ele>594.3333333333334</ele><time>2026-05-02T09:21:35.145Z</time></trkpt><trkpt lat="46.1427977" lon="13.615311"><ele>593.6666666666667</ele><time>2026-05-02T09:21:36.145Z</time></trkpt><trkpt lat="46.1428688" lon="13.6152655"><ele>593.0</ele><time>2026-05-02T09:21:37.146Z</time></trkpt><trkpt lat="46.1429367" lon="13.6152375"><ele>592.3333333333334</ele><time>2026-05-02T09:21:38.145Z</time></trkpt><trkpt lat="46.1429999" lon="13.6152363"><ele>591.6666666666666</ele><time>2026-05-02T09:21:39.145Z</time></trkpt><trkpt lat="46.1430897" lon="13.6152863"><ele>591.0</ele><time>2026-05-02T09:21:41.145Z</time></trkpt><trkpt lat="46.1431602" lon="13.6153633"><ele>593.8333333333334</ele><time>2026-05-02T09:21:43.145Z</time></trkpt><trkpt lat="46.1432307" lon="13.6155039"><ele>596.6666666666666</ele><time>2026-05-02T09:21:45.145Z</time></trkpt><trkpt lat="46.1432419" lon="13.6156136"><ele>599.5</ele><time>2026-05-02T09:21:46.145Z</time></trkpt><trkpt lat="46.1432367" lon="13.6157246"><ele>602.3333333333333</ele><time>2026-05-02T09:21:47.145Z</time></trkpt><trkpt lat="46.1432176" lon="13.6158378"><ele>605.1666666666666</ele><time>2026-05-02T09:21:48.146Z</time></trkpt><trkpt lat="46.1432047" lon="13.6159654"><ele>608.0</ele><time>2026-05-02T09:21:49.146Z</time></trkpt><trkpt lat="46.1432033" lon="13.6161"><ele>608.6</ele><time>2026-05-02T09:21:50.145Z</time></trkpt><trkpt lat="46.1432196" lon="13.6162495"><ele>609.1999999999999</ele><time>2026-05-02T09:21:51.145Z</time></trkpt><trkpt lat="46.1432604" lon="13.6163982"><ele>609.8</ele><time>2026-05-02T09:21:52.146Z</time></trkpt><trkpt lat="46.1433199" lon="13.616516"><ele>610.4</ele><time>2026-05-02T09:21:53.146Z</time></trkpt><trkpt lat="46.1433786" lon="13.616632"><ele>611.0</ele><time>2026-05-02T09:21:54.145Z</time></trkpt><trkpt lat="46.1434107" lon="13.6167409"><ele>611.0</ele><time>2026-05-02T09:21:55.145Z</time></trkpt><trkpt lat="46.1434197" lon="13.6168827"><ele>611.0</ele><time>2026-05-02T09:21:56.145Z</time></trkpt><trkpt lat="46.1433814" lon="13.6170474"><ele>611.0</ele><time>2026-05-02T09:21:57.145Z</time></trkpt><trkpt lat="46.1433193" lon="13.6172223"><ele>611.0</ele><time>2026-05-02T09:21:58.146Z</time></trkpt><trkpt lat="46.1432579" lon="13.6173952"><ele>615.75</ele><time>2026-05-02T09:21:59.146Z</time></trkpt><trkpt lat="46.1432026" lon="13.6175706"><ele>620.5</ele><time>2026-05-02T09:22:00.145Z</time></trkpt><trkpt lat="46.1431466" lon="13.6177325"><ele>625.25</ele><time>2026-05-02T09:22:01.146Z</time></trkpt><trkpt lat="46.1430991" lon="13.6178866"><ele>630.0</ele><time>2026-05-02T09:22:02.145Z</time></trkpt><trkpt lat="46.1430495" lon="13.6180386"><ele>631.2</ele><time>2026-05-02T09:22:03.145Z</time></trkpt><trkpt lat="46.1430035" lon="13.6181848"><ele>632.4</ele><time>2026-05-02T09:22:04.146Z</time></trkpt><trkpt lat="46.1429683" lon="13.6183326"><ele>633.6</ele><time>2026-05-02T09:22:05.145Z</time></trkpt><trkpt lat="46.142967" lon="13.6184776"><ele>634.8</ele><time>2026-05-02T09:22:06.146Z</time></trkpt><trkpt lat="46.1429941" lon="13.6186279"><ele>636.0</ele><time>2026-05-02T09:22:07.145Z</time></trkpt><trkpt lat="46.143036" lon="13.6187524"><ele>637.2</ele><time>2026-05-02T09:22:08.145Z</time></trkpt><trkpt lat="46.1430698" lon="13.6188836"><ele>638.4000000000001</ele><time>2026-05-02T09:22:09.146Z</time></trkpt><trkpt lat="46.1430929" lon="13.6190177"><ele>639.6</ele><time>2026-05-02T09:22:10.145Z</time></trkpt><trkpt lat="46.1431039" lon="13.6191669"><ele>640.8000000000001</ele><time>2026-05-02T09:22:11.146Z</time></trkpt><trkpt lat="46.1431079" lon="13.6193204"><ele>642.0</ele><time>2026-05-02T09:22:12.145Z</time></trkpt><trkpt lat="46.1431115" lon="13.6194733"><ele>640.0</ele><time>2026-05-02T09:22:13.145Z</time></trkpt><trkpt lat="46.1431087" lon="13.6196318"><ele>638.0</ele><time>2026-05-02T09:22:14.144Z</time></trkpt><trkpt lat="46.1430958" lon="13.619797"><ele>636.0</ele><time>2026-05-02T09:22:15.144Z</time></trkpt><trkpt lat="46.1430675" lon="13.6199696"><ele>634.0</ele><time>2026-05-02T09:22:16.145Z</time></trkpt><trkpt lat="46.143026" lon="13.6201367"><ele>634.0</ele><time>2026-05-02T09:22:17.144Z</time></trkpt><trkpt lat="46.1429755" lon="13.6203111"><ele>634.0</ele><time>2026-05-02T09:22:18.145Z</time></trkpt><trkpt lat="46.1429252" lon="13.6204906"><ele>634.0</ele><time>2026-05-02T09:22:19.144Z</time></trkpt><trkpt lat="46.1428768" lon="13.6206569"><ele>634.0</ele><time>2026-05-02T09:22:20.144Z</time></trkpt><trkpt lat="46.1428362" lon="13.6208176"><ele>632.0</ele><time>2026-05-02T09:22:21.144Z</time></trkpt><trkpt lat="46.1428074" lon="13.6209795"><ele>630.0</ele><time>2026-05-02T09:22:22.144Z</time></trkpt><trkpt lat="46.142799" lon="13.6211443"><ele>628.0</ele><time>2026-05-02T09:22:23.144Z</time></trkpt><trkpt lat="46.1428205" lon="13.6213027"><ele>626.0</ele><time>2026-05-02T09:22:24.144Z</time></trkpt><trkpt lat="46.1428644" lon="13.6214422"><ele>624.0</ele><time>2026-05-02T09:22:25.144Z</time></trkpt><trkpt lat="46.1429324" lon="13.6215904"><ele>620.8</ele><time>2026-05-02T09:22:26.144Z</time></trkpt><trkpt lat="46.14302" lon="13.6217126"><ele>617.5999999999999</ele><time>2026-05-02T09:22:27.145Z</time></trkpt><trkpt lat="46.1431068" lon="13.6218239"><ele>614.4</ele><time>2026-05-02T09:22:28.144Z</time></trkpt><trkpt lat="46.1431877" lon="13.6219238"><ele>611.1999999999999</ele><time>2026-05-02T09:22:29.144Z</time></trkpt><trkpt lat="46.1432496" lon="13.6220136"><ele>608.0</ele><time>2026-05-02T09:22:30.144Z</time></trkpt><trkpt lat="46.1432827" lon="13.622113"><ele>605.75</ele><time>2026-05-02T09:22:31.145Z</time></trkpt><trkpt lat="46.1432798" lon="13.6222651"><ele>603.5</ele><time>2026-05-02T09:22:32.145Z</time></trkpt><trkpt lat="46.1432492" lon="13.6224202"><ele>601.25</ele><time>2026-05-02T09:22:33.144Z</time></trkpt><trkpt lat="46.1432017" lon="13.6225844"><ele>599.0</ele><time>2026-05-02T09:22:34.145Z</time></trkpt><trkpt lat="46.1431878" lon="13.6227662"><ele>598.2</ele><time>2026-05-02T09:22:35.144Z</time></trkpt><trkpt lat="46.1432159" lon="13.6229378"><ele>597.4</ele><time>2026-05-02T09:22:36.144Z</time></trkpt><trkpt lat="46.1432556" lon="13.6230895"><ele>596.6</ele><time>2026-05-02T09:22:37.145Z</time></trkpt><trkpt lat="46.1432927" lon="13.6232185"><ele>595.8</ele><time>2026-05-02T09:22:38.145Z</time></trkpt><trkpt lat="46.1433366" lon="13.6233344"><ele>595.0</ele><time>2026-05-02T09:22:39.145Z</time></trkpt><trkpt lat="46.1433965" lon="13.6234422"><ele>595.0</ele><time>2026-05-02T09:22:40.145Z</time></trkpt><trkpt lat="46.143479" lon="13.6235339"><ele>595.0</ele><time>2026-05-02T09:22:41.144Z</time></trkpt><trkpt lat="46.1435694" lon="13.6235902"><ele>595.0</ele><time>2026-05-02T09:22:42.144Z</time></trkpt><trkpt lat="46.1436485" lon="13.6236562"><ele>595.0</ele><time>2026-05-02T09:22:43.145Z</time></trkpt><trkpt lat="46.1437208" lon="13.6237505"><ele>595.0</ele><time>2026-05-02T09:22:44.145Z</time></trkpt><trkpt lat="46.1437842" lon="13.623882"><ele>594.0</ele><time>2026-05-02T09:22:45.144Z</time></trkpt><trkpt lat="46.1438417" lon="13.6240224"><ele>593.0</ele><time>2026-05-02T09:22:46.144Z</time></trkpt><trkpt lat="46.1438908" lon="13.6241413"><ele>592.0</ele><time>2026-05-02T09:22:47.144Z</time></trkpt><trkpt lat="46.1439368" lon="13.6243157"><ele>591.0</ele><time>2026-05-02T09:22:49.145Z</time></trkpt><trkpt lat="46.1439529" lon="13.6244059"><ele>590.0</ele><time>2026-05-02T09:22:50.145Z</time></trkpt><trkpt lat="46.1439825" lon="13.624537"><ele>587.8</ele><time>2026-05-02T09:22:52.144Z</time></trkpt><trkpt lat="46.144033" lon="13.6246234"><ele>585.6</ele><time>2026-05-02T09:22:56.145Z</time></trkpt><trkpt lat="46.1439468" lon="13.6246517"><ele>583.4</ele><time>2026-05-02T09:23:02.144Z</time></trkpt><trkpt lat="46.1438509" lon="13.6245713"><ele>581.2</ele><time>2026-05-02T09:23:04.144Z</time></trkpt><trkpt lat="46.1437831" lon="13.6245137"><ele>579.0</ele><time>2026-05-02T09:23:06.144Z</time></trkpt><trkpt lat="46.1438164" lon="13.6246545"><ele>579.0</ele><time>2026-05-02T09:23:11.144Z</time></trkpt><trkpt lat="46.1438973" lon="13.6247541"><ele>579.0</ele><time>2026-05-02T09:23:13.144Z</time></trkpt><trkpt lat="46.1439477" lon="13.6248238"><ele>579.0</ele><time>2026-05-02T09:23:14.145Z</time></trkpt><trkpt lat="46.1440048" lon="13.6249126"><ele>579.0</ele><time>2026-05-02T09:23:15.145Z</time></trkpt><trkpt lat="46.1440576" lon="13.6250149"><ele>579.0</ele><time>2026-05-02T09:23:16.145Z</time></trkpt><trkpt lat="46.1440967" lon="13.6251115"><ele>579.0</ele><time>2026-05-02T09:23:17.145Z</time></trkpt><trkpt lat="46.14413" lon="13.6252129"><ele>584.2</ele><time>2026-05-02T09:23:18.144Z</time></trkpt><trkpt lat="46.1441563" lon="13.6253251"><ele>589.4</ele><time>2026-05-02T09:23:19.144Z</time></trkpt><trkpt lat="46.1441683" lon="13.6254473"><ele>594.6</ele><time>2026-05-02T09:23:20.145Z</time></trkpt><trkpt lat="46.1441944" lon="13.6255777"><ele>599.8</ele><time>2026-05-02T09:23:21.144Z</time></trkpt><trkpt lat="46.1442203" lon="13.6257187"><ele>605.0</ele><time>2026-05-02T09:23:22.144Z</time></trkpt><trkpt lat="46.1442419" lon="13.6258671"><ele>605.0</ele><time>2026-05-02T09:23:23.145Z</time></trkpt><trkpt lat="46.1442603" lon="13.6260084"><ele>605.0</ele><time>2026-05-02T09:23:24.144Z</time></trkpt><trkpt lat="46.1442751" lon="13.626152"><ele>605.0</ele><time>2026-05-02T09:23:25.145Z</time></trkpt><trkpt lat="46.1442929" lon="13.6262997"><ele>605.0</ele><time>2026-05-02T09:23:26.144Z</time></trkpt><trkpt lat="46.1443048" lon="13.6264452"><ele>605.0</ele><time>2026-05-02T09:23:27.144Z</time></trkpt><trkpt lat="46.1443108" lon="13.6266004"><ele>605.0</ele><time>2026-05-02T09:23:28.144Z</time></trkpt><trkpt lat="46.1443206" lon="13.6267366"><ele>605.0</ele><time>2026-05-02T09:23:29.144Z</time></trkpt><trkpt lat="46.1443308" lon="13.6268689"><ele>605.0</ele><time>2026-05-02T09:23:30.144Z</time></trkpt><trkpt lat="46.1443341" lon="13.6269949"><ele>605.0</ele><time>2026-05-02T09:23:31.144Z</time></trkpt><trkpt lat="46.1443499" lon="13.6271184"><ele>605.0</ele><time>2026-05-02T09:23:32.144Z</time></trkpt><trkpt lat="46.1443759" lon="13.6272071"><ele>605.0</ele><time>2026-05-02T09:23:33.145Z</time></trkpt><trkpt lat="46.1444488" lon="13.627356"><ele>604.3333333333333</ele><time>2026-05-02T09:23:35.144Z</time></trkpt><trkpt lat="46.1445036" lon="13.6274398"><ele>603.6666666666666</ele><time>2026-05-02T09:23:36.144Z</time></trkpt><trkpt lat="46.1445656" lon="13.6275594"><ele>603.0</ele><time>2026-05-02T09:23:37.144Z</time></trkpt><trkpt lat="46.1446154" lon="13.6276414"><ele>602.3333333333334</ele><time>2026-05-02T09:23:38.144Z</time></trkpt><trkpt lat="46.1446768" lon="13.6277224"><ele>601.6666666666667</ele><time>2026-05-02T09:23:39.145Z</time></trkpt><trkpt lat="46.1447386" lon="13.6277909"><ele>601.0</ele><time>2026-05-02T09:23:40.144Z</time></trkpt><trkpt lat="46.1448099" lon="13.627831"><ele>601.6666666666667</ele><time>2026-05-02T09:23:41.145Z</time></trkpt><trkpt lat="46.1448989" lon="13.6278567"><ele>602.3333333333334</ele><time>2026-05-02T09:23:42.144Z</time></trkpt><trkpt lat="46.144983" lon="13.6278863"><ele>603.0</ele><time>2026-05-02T09:23:43.144Z</time></trkpt><trkpt lat="46.1450585" lon="13.6279196"><ele>603.6666666666666</ele><time>2026-05-02T09:23:44.144Z</time></trkpt><trkpt lat="46.1451178" lon="13.6279775"><ele>604.3333333333333</ele><time>2026-05-02T09:23:45.144Z</time></trkpt><trkpt lat="46.1451686" lon="13.6280661"><ele>605.0</ele><time>2026-05-02T09:23:46.145Z</time></trkpt><trkpt lat="46.1452165" lon="13.6281729"><ele>605.0</ele><time>2026-05-02T09:23:47.144Z</time></trkpt><trkpt lat="46.1452596" lon="13.6282825"><ele>605.0</ele><time>2026-05-02T09:23:48.144Z</time></trkpt><trkpt lat="46.1453029" lon="13.6283759"><ele>605.0</ele><time>2026-05-02T09:23:49.145Z</time></trkpt><trkpt lat="46.1453548" lon="13.6284448"><ele>605.0</ele><time>2026-05-02T09:23:50.144Z</time></trkpt><trkpt lat="46.1454144" lon="13.6285208"><ele>605.0</ele><time>2026-05-02T09:23:51.144Z</time></trkpt><trkpt lat="46.1454837" lon="13.6285991"><ele>605.0</ele><time>2026-05-02T09:23:52.144Z</time></trkpt><trkpt lat="46.1455539" lon="13.6286804"><ele>602.0</ele><time>2026-05-02T09:23:53.144Z</time></trkpt><trkpt lat="46.1456234" lon="13.628744"><ele>599.0</ele><time>2026-05-02T09:23:54.145Z</time></trkpt><trkpt lat="46.1456882" lon="13.6287933"><ele>596.0</ele><time>2026-05-02T09:23:55.144Z</time></trkpt><trkpt lat="46.1457736" lon="13.6288809"><ele>593.0</ele><time>2026-05-02T09:23:57.144Z</time></trkpt><trkpt lat="46.1458326" lon="13.6289996"><ele>590.0</ele><time>2026-05-02T09:23:59.144Z</time></trkpt><trkpt lat="46.1458196" lon="13.6291642"><ele>589.6</ele><time>2026-05-02T09:24:01.144Z</time></trkpt><trkpt lat="46.1457786" lon="13.6292744"><ele>589.2</ele><time>2026-05-02T09:24:02.145Z</time></trkpt><trkpt lat="46.1457264" lon="13.6294252"><ele>588.8</ele><time>2026-05-02T09:24:03.144Z</time></trkpt><trkpt lat="46.1456754" lon="13.6295723"><ele>588.4</ele><time>2026-05-02T09:24:04.144Z</time></trkpt><trkpt lat="46.1456415" lon="13.6297177"><ele>588.0</ele><time>2026-05-02T09:24:05.144Z</time></trkpt><trkpt lat="46.145613" lon="13.6298609"><ele>588.0</ele><time>2026-05-02T09:24:06.145Z</time></trkpt><trkpt lat="46.1455776" lon="13.6299921"><ele>588.0</ele><time>2026-05-02T09:24:07.144Z</time></trkpt><trkpt lat="46.1455235" lon="13.6301182"><ele>588.0</ele><time>2026-05-02T09:24:08.145Z</time></trkpt><trkpt lat="46.1454563" lon="13.6302396"><ele>588.0</ele><time>2026-05-02T09:24:09.145Z</time></trkpt><trkpt lat="46.1453926" lon="13.6303427"><ele>588.0</ele><time>2026-05-02T09:24:10.145Z</time></trkpt><trkpt lat="46.1453218" lon="13.630451"><ele>591.0</ele><time>2026-05-02T09:24:11.144Z</time></trkpt><trkpt lat="46.1452631" lon="13.6305545"><ele>594.0</ele><time>2026-05-02T09:24:12.145Z</time></trkpt><trkpt lat="46.1452266" lon="13.6306511"><ele>597.0</ele><time>2026-05-02T09:24:13.144Z</time></trkpt><trkpt lat="46.1451798" lon="13.6307986"><ele>600.0</ele><time>2026-05-02T09:24:15.145Z</time></trkpt><trkpt lat="46.1452142" lon="13.6309303"><ele>603.0</ele><time>2026-05-02T09:24:17.145Z</time></trkpt><trkpt lat="46.145257" lon="13.6310162"><ele>603.0</ele><time>2026-05-02T09:24:18.144Z</time></trkpt><trkpt lat="46.1452948" lon="13.6310995"><ele>603.0</ele><time>2026-05-02T09:24:19.145Z</time></trkpt><trkpt lat="46.1453676" lon="13.6312062"><ele>603.0</ele><time>2026-05-02T09:24:21.144Z</time></trkpt><trkpt lat="46.1454339" lon="13.6312804"><ele>603.0</ele><time>2026-05-02T09:24:22.144Z</time></trkpt><trkpt lat="46.145503" lon="13.6313616"><ele>603.0</ele><time>2026-05-02T09:24:23.145Z</time></trkpt><trkpt lat="46.1455586" lon="13.6314364"><ele>603.0</ele><time>2026-05-02T09:24:24.144Z</time></trkpt><trkpt lat="46.1456814" lon="13.6315366"><ele>606.1666666666666</ele><time>2026-05-02T09:24:26.145Z</time></trkpt><trkpt lat="46.1457575" lon="13.631575"><ele>609.3333333333334</ele><time>2026-05-02T09:24:27.144Z</time></trkpt><trkpt lat="46.1458298" lon="13.6316079"><ele>612.5</ele><time>2026-05-02T09:24:28.144Z</time></trkpt><trkpt lat="46.1458994" lon="13.6316377"><ele>615.6666666666667</ele><time>2026-05-02T09:24:29.145Z</time></trkpt><trkpt lat="46.1459645" lon="13.6316722"><ele>618.8333333333334</ele><time>2026-05-02T09:24:30.144Z</time></trkpt><trkpt lat="46.146027" lon="13.6317093"><ele>622.0</ele><time>2026-05-02T09:24:31.145Z</time></trkpt><trkpt lat="46.1461287" lon="13.631748"><ele>622.0</ele><time>2026-05-02T09:24:33.145Z</time></trkpt><trkpt lat="46.1462028" lon="13.6317659"><ele>622.0</ele><time>2026-05-02T09:24:35.144Z</time></trkpt><trkpt lat="46.1462434" lon="13.6318408"><ele>622.0</ele><time>2026-05-02T09:24:37.144Z</time></trkpt><trkpt lat="46.1462325" lon="13.6319376"><ele>622.0</ele><time>2026-05-02T09:24:39.144Z</time></trkpt><trkpt lat="46.1461403" lon="13.6320978"><ele>622.0</ele><time>2026-05-02T09:24:41.144Z</time></trkpt><trkpt lat="46.1460835" lon="13.6321989"><ele>622.0</ele><time>2026-05-02T09:24:42.144Z</time></trkpt><trkpt lat="46.1460299" lon="13.6323093"><ele>623.6</ele><time>2026-05-02T09:24:43.145Z</time></trkpt><trkpt lat="46.1459851" lon="13.6324226"><ele>625.2</ele><time>2026-05-02T09:24:44.145Z</time></trkpt><trkpt lat="46.1459443" lon="13.6325472"><ele>626.8</ele><time>2026-05-02T09:24:45.144Z</time></trkpt><trkpt lat="46.1459037" lon="13.6326735"><ele>628.4</ele><time>2026-05-02T09:24:46.144Z</time></trkpt><trkpt lat="46.1458724" lon="13.6327965"><ele>630.0</ele><time>2026-05-02T09:24:47.145Z</time></trkpt><trkpt lat="46.1458408" lon="13.6329132"><ele>630.0</ele><time>2026-05-02T09:24:48.144Z</time></trkpt><trkpt lat="46.1458009" lon="13.6330095"><ele>630.0</ele><time>2026-05-02T09:24:49.144Z</time></trkpt><trkpt lat="46.145759" lon="13.6331197"><ele>630.0</ele><time>2026-05-02T09:24:50.145Z</time></trkpt><trkpt lat="46.1457045" lon="13.6332372"><ele>630.0</ele><time>2026-05-02T09:24:51.144Z</time></trkpt><trkpt lat="46.1456347" lon="13.633343"><ele>630.0</ele><time>2026-05-02T09:24:52.144Z</time></trkpt><trkpt lat="46.1455692" lon="13.6334621"><ele>624.3333333333334</ele><time>2026-05-02T09:24:53.144Z</time></trkpt><trkpt lat="46.1455163" lon="13.6335885"><ele>618.6666666666666</ele><time>2026-05-02T09:24:54.144Z</time></trkpt><trkpt lat="46.1454735" lon="13.6336999"><ele>613.0</ele><time>2026-05-02T09:24:55.144Z</time></trkpt><trkpt lat="46.145437" lon="13.6338051"><ele>607.3333333333333</ele><time>2026-05-02T09:24:56.145Z</time></trkpt><trkpt lat="46.1453909" lon="13.6339004"><ele>601.6666666666666</ele><time>2026-05-02T09:24:57.144Z</time></trkpt><trkpt lat="46.1453278" lon="13.633981"><ele>596.0</ele><time>2026-05-02T09:24:58.144Z</time></trkpt><trkpt lat="46.1452434" lon="13.6340728"><ele>596.0</ele><time>2026-05-02T09:24:59.144Z</time></trkpt><trkpt lat="46.1451706" lon="13.6341676"><ele>596.0</ele><time>2026-05-02T09:25:00.145Z</time></trkpt><trkpt lat="46.1451182" lon="13.6342566"><ele>596.0</ele><time>2026-05-02T09:25:01.144Z</time></trkpt><trkpt lat="46.1450795" lon="13.6343483"><ele>596.0</ele><time>2026-05-02T09:25:02.144Z</time></trkpt><trkpt lat="46.145041" lon="13.6344868"><ele>596.0</ele><time>2026-05-02T09:25:04.144Z</time></trkpt><trkpt lat="46.1450551" lon="13.6345866"><ele>596.0</ele><time>2026-05-02T09:25:05.144Z</time></trkpt><trkpt lat="46.145082" lon="13.6346893"><ele>595.0</ele><time>2026-05-02T09:25:06.145Z</time></trkpt><trkpt lat="46.1451273" lon="13.6347822"><ele>594.0</ele><time>2026-05-02T09:25:07.144Z</time></trkpt><trkpt lat="46.1452165" lon="13.6349096"><ele>593.0</ele><time>2026-05-02T09:25:09.145Z</time></trkpt><trkpt lat="46.1452821" lon="13.6349618"><ele>592.0</ele><time>2026-05-02T09:25:10.145Z</time></trkpt><trkpt lat="46.1453628" lon="13.6349928"><ele>591.0</ele><time>2026-05-02T09:25:11.144Z</time></trkpt><trkpt lat="46.145455" lon="13.6350249"><ele>591.0</ele><time>2026-05-02T09:25:12.144Z</time></trkpt><trkpt lat="46.1455534" lon="13.6350597"><ele>591.0</ele><time>2026-05-02T09:25:13.144Z</time></trkpt><trkpt lat="46.1456441" lon="13.6351001"><ele>591.0</ele><time>2026-05-02T09:25:14.144Z</time></trkpt><trkpt lat="46.1457266" lon="13.6351218"><ele>591.0</ele><time>2026-05-02T09:25:15.144Z</time></trkpt><trkpt lat="46.1457931" lon="13.6351578"><ele>591.0</ele><time>2026-05-02T09:25:16.145Z</time></trkpt><trkpt lat="46.1458931" lon="13.6352421"><ele>593.5</ele><time>2026-05-02T09:25:18.145Z</time></trkpt><trkpt lat="46.1459453" lon="13.6353026"><ele>596.0</ele><time>2026-05-02T09:25:19.145Z</time></trkpt><trkpt lat="46.146" lon="13.6353829"><ele>598.5</ele><time>2026-05-02T09:25:20.145Z</time></trkpt><trkpt lat="46.1460515" lon="13.6354573"><ele>601.0</ele><time>2026-05-02T09:25:21.145Z</time></trkpt><trkpt lat="46.1461099" lon="13.6355765"><ele>603.5</ele><time>2026-05-02T09:25:23.145Z</time></trkpt><trkpt lat="46.1461325" lon="13.6356983"><ele>606.0</ele><time>2026-05-02T09:25:25.144Z</time></trkpt><trkpt lat="46.1461501" lon="13.6358188"><ele>606.0</ele><time>2026-05-02T09:25:27.144Z</time></trkpt><trkpt lat="46.1461177" lon="13.6359524"><ele>606.0</ele><time>2026-05-02T09:25:29.144Z</time></trkpt><trkpt lat="46.1460459" lon="13.6360772"><ele>606.0</ele><time>2026-05-02T09:25:31.144Z</time></trkpt><trkpt lat="46.1459596" lon="13.6361881"><ele>606.0</ele><time>2026-05-02T09:25:33.144Z</time></trkpt><trkpt lat="46.145915" lon="13.6362572"><ele>606.0</ele><time>2026-05-02T09:25:34.144Z</time></trkpt><trkpt lat="46.1458735" lon="13.6363263"><ele>607.5</ele><time>2026-05-02T09:25:35.144Z</time></trkpt><trkpt lat="46.1458417" lon="13.6364256"><ele>609.0</ele><time>2026-05-02T09:25:36.144Z</time></trkpt><trkpt lat="46.1458064" lon="13.636538"><ele>610.5</ele><time>2026-05-02T09:25:37.144Z</time></trkpt><trkpt lat="46.1457737" lon="13.6366402"><ele>612.0</ele><time>2026-05-02T09:25:38.144Z</time></trkpt><trkpt lat="46.1457348" lon="13.6367352"><ele>613.5</ele><time>2026-05-02T09:25:39.145Z</time></trkpt><trkpt lat="46.1456898" lon="13.6368256"><ele>615.0</ele><time>2026-05-02T09:25:40.144Z</time></trkpt><trkpt lat="46.1456257" lon="13.6369114"><ele>610.1666666666666</ele><time>2026-05-02T09:25:41.144Z</time></trkpt><trkpt lat="46.1455573" lon="13.637004"><ele>605.3333333333334</ele><time>2026-05-02T09:25:42.144Z</time></trkpt><trkpt lat="46.1454969" lon="13.6371043"><ele>600.5</ele><time>2026-05-02T09:25:43.144Z</time></trkpt><trkpt lat="46.1454498" lon="13.6371986"><ele>595.6666666666667</ele><time>2026-05-02T09:25:44.144Z</time></trkpt><trkpt lat="46.1454159" lon="13.6372967"><ele>590.8333333333334</ele><time>2026-05-02T09:25:45.144Z</time></trkpt><trkpt lat="46.1453919" lon="13.6373937"><ele>586.0</ele><time>2026-05-02T09:25:46.145Z</time></trkpt><trkpt lat="46.1453663" lon="13.6374996"><ele>586.0</ele><time>2026-05-02T09:25:47.145Z</time></trkpt><trkpt lat="46.1453403" lon="13.6376133"><ele>586.0</ele><time>2026-05-02T09:25:48.144Z</time></trkpt><trkpt lat="46.1453112" lon="13.637717"><ele>586.0</ele><time>2026-05-02T09:25:49.144Z</time></trkpt><trkpt lat="46.1452899" lon="13.6378211"><ele>586.0</ele><time>2026-05-02T09:25:50.144Z</time></trkpt><trkpt lat="46.1452708" lon="13.6379201"><ele>586.0</ele><time>2026-05-02T09:25:51.144Z</time></trkpt><trkpt lat="46.1452527" lon="13.6380121"><ele>586.0</ele><time>2026-05-02T09:25:52.145Z</time></trkpt><trkpt lat="46.1452141" lon="13.6381657"><ele>587.8</ele><time>2026-05-02T09:25:54.145Z</time></trkpt><trkpt lat="46.145141" lon="13.6382766"><ele>589.6</ele><time>2026-05-02T09:25:56.144Z</time></trkpt><trkpt lat="46.1450454" lon="13.6382869"><ele>591.4</ele><time>2026-05-02T09:25:58.144Z</time></trkpt><trkpt lat="46.1449113" lon="13.6382738"><ele>593.2</ele><time>2026-05-02T09:26:00.144Z</time></trkpt><trkpt lat="46.1448209" lon="13.6382624"><ele>595.0</ele><time>2026-05-02T09:26:01.145Z</time></trkpt><trkpt lat="46.1447311" lon="13.6382388"><ele>595.0</ele><time>2026-05-02T09:26:02.144Z</time></trkpt><trkpt lat="46.1446518" lon="13.638231"><ele>595.0</ele><time>2026-05-02T09:26:03.145Z</time></trkpt><trkpt lat="46.1445677" lon="13.6382188"><ele>595.0</ele><time>2026-05-02T09:26:04.144Z</time></trkpt><trkpt lat="46.1444934" lon="13.6381917"><ele>595.0</ele><time>2026-05-02T09:26:05.144Z</time></trkpt><trkpt lat="46.1444245" lon="13.6381541"><ele>595.0</ele><time>2026-05-02T09:26:06.145Z</time></trkpt><trkpt lat="46.144342" lon="13.6381308"><ele>595.0</ele><time>2026-05-02T09:26:07.144Z</time></trkpt><trkpt lat="46.1442561" lon="13.6381212"><ele>595.0</ele><time>2026-05-02T09:26:08.144Z</time></trkpt><trkpt lat="46.1441766" lon="13.6381302"><ele>595.0</ele><time>2026-05-02T09:26:09.145Z</time></trkpt><trkpt lat="46.1441021" lon="13.6381535"><ele>595.0</ele><time>2026-05-02T09:26:10.143Z</time></trkpt><trkpt lat="46.1440345" lon="13.6381918"><ele>595.0</ele><time>2026-05-02T09:26:11.143Z</time></trkpt><trkpt lat="46.1439646" lon="13.6382588"><ele>595.0</ele><time>2026-05-02T09:26:12.143Z</time></trkpt><trkpt lat="46.1438885" lon="13.6383281"><ele>595.0</ele><time>2026-05-02T09:26:13.144Z</time></trkpt><trkpt lat="46.1438089" lon="13.6383785"><ele>593.6</ele><time>2026-05-02T09:26:14.143Z</time></trkpt><trkpt lat="46.1437366" lon="13.6384127"><ele>592.2</ele><time>2026-05-02T09:26:15.143Z</time></trkpt><trkpt lat="46.143675" lon="13.6384476"><ele>590.8</ele><time>2026-05-02T09:26:16.143Z</time></trkpt><trkpt lat="46.1435635" lon="13.6385219"><ele>589.4</ele><time>2026-05-02T09:26:18.143Z</time></trkpt><trkpt lat="46.1434449" lon="13.6385025"><ele>588.0</ele><time>2026-05-02T09:26:20.143Z</time></trkpt><trkpt lat="46.1433701" lon="13.6384832"><ele>588.0</ele><time>2026-05-02T09:26:21.143Z</time></trkpt><trkpt lat="46.1432827" lon="13.6384635"><ele>588.0</ele><time>2026-05-02T09:26:22.143Z</time></trkpt><trkpt lat="46.1431938" lon="13.6384385"><ele>588.0</ele><time>2026-05-02T09:26:23.144Z</time></trkpt><trkpt lat="46.1431041" lon="13.6384133"><ele>588.0</ele><time>2026-05-02T09:26:24.144Z</time></trkpt><trkpt lat="46.1430156" lon="13.6383866"><ele>588.0</ele><time>2026-05-02T09:26:25.144Z</time></trkpt><trkpt lat="46.1429327" lon="13.6383714"><ele>588.0</ele><time>2026-05-02T09:26:26.143Z</time></trkpt><trkpt lat="46.1428492" lon="13.6383714"><ele>588.0</ele><time>2026-05-02T09:26:27.143Z</time></trkpt><trkpt lat="46.1427631" lon="13.6383681"><ele>588.0</ele><time>2026-05-02T09:26:28.144Z</time></trkpt><trkpt lat="46.1426865" lon="13.6383672"><ele>588.0</ele><time>2026-05-02T09:26:29.143Z</time></trkpt><trkpt lat="46.142619" lon="13.6383723"><ele>588.0</ele><time>2026-05-02T09:26:30.144Z</time></trkpt><trkpt lat="46.1425563" lon="13.6383836"><ele>588.0</ele><time>2026-05-02T09:26:31.143Z</time></trkpt><trkpt lat="46.1424686" lon="13.6384642"><ele>588.0</ele><time>2026-05-02T09:26:33.144Z</time></trkpt><trkpt lat="46.1423736" lon="13.6385585"><ele>586.8333333333334</ele><time>2026-05-02T09:26:35.144Z</time></trkpt><trkpt lat="46.1422542" lon="13.6386263"><ele>585.6666666666666</ele><time>2026-05-02T09:26:37.143Z</time></trkpt><trkpt lat="46.1421852" lon="13.6386414"><ele>584.5</ele><time>2026-05-02T09:26:38.144Z</time></trkpt><trkpt lat="46.1421137" lon="13.6386488"><ele>583.3333333333333</ele><time>2026-05-02T09:26:39.143Z</time></trkpt><trkpt lat="46.1420359" lon="13.6386674"><ele>582.1666666666666</ele><time>2026-05-02T09:26:40.143Z</time></trkpt><trkpt lat="46.1419574" lon="13.6386783"><ele>581.0</ele><time>2026-05-02T09:26:41.143Z</time></trkpt><trkpt lat="46.1418797" lon="13.6387115"><ele>581.0</ele><time>2026-05-02T09:26:42.143Z</time></trkpt><trkpt lat="46.1418055" lon="13.6387364"><ele>581.0</ele><time>2026-05-02T09:26:43.143Z</time></trkpt><trkpt lat="46.1417327" lon="13.6387743"><ele>581.0</ele><time>2026-05-02T09:26:44.143Z</time></trkpt><trkpt lat="46.1416548" lon="13.6388109"><ele>581.0</ele><time>2026-05-02T09:26:45.143Z</time></trkpt><trkpt lat="46.1415889" lon="13.6388341"><ele>581.0</ele><time>2026-05-02T09:26:46.143Z</time></trkpt><trkpt lat="46.1414716" lon="13.6388702"><ele>581.0</ele><time>2026-05-02T09:26:48.144Z</time></trkpt><trkpt lat="46.141411" lon="13.6389722"><ele>578.4</ele><time>2026-05-02T09:26:50.144Z</time></trkpt><trkpt lat="46.1413986" lon="13.6391245"><ele>575.8</ele><time>2026-05-02T09:26:52.143Z</time></trkpt><trkpt lat="46.1414529" lon="13.6392999"><ele>573.1999999999999</ele><time>2026-05-02T09:26:54.143Z</time></trkpt><trkpt lat="46.1414969" lon="13.6394195"><ele>570.6</ele><time>2026-05-02T09:26:55.144Z</time></trkpt><trkpt lat="46.1415325" lon="13.6395456"><ele>568.0</ele><time>2026-05-02T09:26:56.143Z</time></trkpt><trkpt lat="46.1415494" lon="13.6396436"><ele>568.0</ele><time>2026-05-02T09:26:57.144Z</time></trkpt><trkpt lat="46.1415573" lon="13.6397407"><ele>568.0</ele><time>2026-05-02T09:26:58.143Z</time></trkpt><trkpt lat="46.1416004" lon="13.6398926"><ele>568.0</ele><time>2026-05-02T09:27:00.144Z</time></trkpt><trkpt lat="46.1416458" lon="13.6399704"><ele>568.0</ele><time>2026-05-02T09:27:01.144Z</time></trkpt><trkpt lat="46.1416979" lon="13.6400524"><ele>568.0</ele><time>2026-05-02T09:27:02.143Z</time></trkpt><trkpt lat="46.1417885" lon="13.6401673"><ele>568.0</ele><time>2026-05-02T09:27:04.143Z</time></trkpt><trkpt lat="46.1418341" lon="13.6402305"><ele>568.0</ele><time>2026-05-02T09:27:05.143Z</time></trkpt><trkpt lat="46.141862" lon="13.6403853"><ele>568.0</ele><time>2026-05-02T09:27:07.143Z</time></trkpt><trkpt lat="46.1418837" lon="13.6404904"><ele>568.0</ele><time>2026-05-02T09:27:09.143Z</time></trkpt><trkpt lat="46.1418198" lon="13.6405494"><ele>568.0</ele><time>2026-05-02T09:27:12.144Z</time></trkpt><trkpt lat="46.1417994" lon="13.6404212"><ele>568.0</ele><time>2026-05-02T09:27:14.143Z</time></trkpt><trkpt lat="46.1417748" lon="13.6403329"><ele>568.0</ele><time>2026-05-02T09:27:15.143Z</time></trkpt><trkpt lat="46.1417277" lon="13.640261"><ele>568.0</ele><time>2026-05-02T09:27:16.144Z</time></trkpt><trkpt lat="46.1416645" lon="13.6402129"><ele>568.0</ele><time>2026-05-02T09:27:17.143Z</time></trkpt><trkpt lat="46.1415479" lon="13.6401574"><ele>568.0</ele><time>2026-05-02T09:27:19.143Z</time></trkpt><trkpt lat="46.141487" lon="13.6401334"><ele>568.0</ele><time>2026-05-02T09:27:20.144Z</time></trkpt><trkpt lat="46.1413963" lon="13.640074"><ele>568.0</ele><time>2026-05-02T09:27:22.143Z</time></trkpt><trkpt lat="46.141357" lon="13.6399772"><ele>560.4</ele><time>2026-05-02T09:27:24.143Z</time></trkpt><trkpt lat="46.141347" lon="13.6398717"><ele>552.8</ele><time>2026-05-02T09:27:25.143Z</time></trkpt><trkpt lat="46.1412874" lon="13.6397408"><ele>545.2</ele><time>2026-05-02T09:27:27.144Z</time></trkpt><trkpt lat="46.1411657" lon="13.6396472"><ele>537.6</ele><time>2026-05-02T09:27:29.144Z</time></trkpt><trkpt lat="46.1410942" lon="13.6395951"><ele>530.0</ele><time>2026-05-02T09:27:30.144Z</time></trkpt><trkpt lat="46.1410291" lon="13.6395388"><ele>530.0</ele><time>2026-05-02T09:27:31.144Z</time></trkpt><trkpt lat="46.1409587" lon="13.6394838"><ele>530.0</ele><time>2026-05-02T09:27:32.143Z</time></trkpt><trkpt lat="46.1408895" lon="13.6394313"><ele>530.0</ele><time>2026-05-02T09:27:33.143Z</time></trkpt><trkpt lat="46.1408302" lon="13.6393942"><ele>530.0</ele><time>2026-05-02T09:27:34.144Z</time></trkpt><trkpt lat="46.1407153" lon="13.6393253"><ele>530.0</ele><time>2026-05-02T09:27:36.143Z</time></trkpt><trkpt lat="46.1406507" lon="13.6392939"><ele>530.0</ele><time>2026-05-02T09:27:37.144Z</time></trkpt><trkpt lat="46.1405833" lon="13.639271"><ele>531.3333333333333</ele><time>2026-05-02T09:27:38.144Z</time></trkpt><trkpt lat="46.1405173" lon="13.6392639"><ele>532.6666666666666</ele><time>2026-05-02T09:27:39.144Z</time></trkpt><trkpt lat="46.1404446" lon="13.6392512"><ele>534.0</ele><time>2026-05-02T09:27:40.143Z</time></trkpt><trkpt lat="46.1403745" lon="13.6392481"><ele>535.3333333333334</ele><time>2026-05-02T09:27:41.144Z</time></trkpt><trkpt lat="46.1403091" lon="13.6392381"><ele>536.6666666666667</ele><time>2026-05-02T09:27:42.143Z</time></trkpt><trkpt lat="46.1402013" lon="13.6392356"><ele>538.0</ele><time>2026-05-02T09:27:44.143Z</time></trkpt><trkpt lat="46.1401902" lon="13.639342"><ele>538.0</ele><time>2026-05-02T09:27:47.144Z</time></trkpt><trkpt lat="46.1402576" lon="13.6393818"><ele>538.0</ele><time>2026-05-02T09:27:49.143Z</time></trkpt><trkpt lat="46.1403549" lon="13.6394273"><ele>538.0</ele><time>2026-05-02T09:27:51.144Z</time></trkpt><trkpt lat="46.1404589" lon="13.6394948"><ele>538.0</ele><time>2026-05-02T09:27:53.144Z</time></trkpt><trkpt lat="46.140567" lon="13.6395907"><ele>538.0</ele><time>2026-05-02T09:27:55.143Z</time></trkpt><trkpt lat="46.1406252" lon="13.6396525"><ele>536.6666666666667</ele><time>2026-05-02T09:27:56.143Z</time></trkpt><trkpt lat="46.1406724" lon="13.6397159"><ele>535.3333333333334</ele><time>2026-05-02T09:27:57.144Z</time></trkpt><trkpt lat="46.1407259" lon="13.6397869"><ele>534.0</ele><time>2026-05-02T09:27:58.143Z</time></trkpt><trkpt lat="46.140776" lon="13.6398461"><ele>532.6666666666666</ele><time>2026-05-02T09:27:59.144Z</time></trkpt><trkpt lat="46.1408651" lon="13.6399445"><ele>531.3333333333333</ele><time>2026-05-02T09:28:01.143Z</time></trkpt><trkpt lat="46.1409395" lon="13.6400506"><ele>530.0</ele><time>2026-05-02T09:28:03.144Z</time></trkpt><trkpt lat="46.1409745" lon="13.6401446"><ele>530.0</ele><time>2026-05-02T09:28:05.144Z</time></trkpt><trkpt lat="46.1409249" lon="13.6402762"><ele>530.0</ele><time>2026-05-02T09:28:07.143Z</time></trkpt><trkpt lat="46.1408705" lon="13.6404213"><ele>530.0</ele><time>2026-05-02T09:28:09.143Z</time></trkpt><trkpt lat="46.1408651" lon="13.6405823"><ele>530.0</ele><time>2026-05-02T09:28:11.143Z</time></trkpt><trkpt lat="46.1409005" lon="13.6407153"><ele>530.0</ele><time>2026-05-02T09:28:13.143Z</time></trkpt><trkpt lat="46.1409934" lon="13.6407675"><ele>526.3333333333333</ele><time>2026-05-02T09:28:15.144Z</time></trkpt><trkpt lat="46.1410685" lon="13.6407899"><ele>522.6666666666666</ele><time>2026-05-02T09:28:16.144Z</time></trkpt><trkpt lat="46.1411327" lon="13.640823"><ele>519.0</ele><time>2026-05-02T09:28:17.143Z</time></trkpt><trkpt lat="46.1412143" lon="13.6408909"><ele>515.3333333333334</ele><time>2026-05-02T09:28:19.144Z</time></trkpt><trkpt lat="46.1412334" lon="13.6409991"><ele>511.6666666666667</ele><time>2026-05-02T09:28:21.143Z</time></trkpt><trkpt lat="46.1411682" lon="13.6411645"><ele>508.0</ele><time>2026-05-02T09:28:23.143Z</time></trkpt><trkpt lat="46.1411233" lon="13.6412653"><ele>505.33333333333337</ele><time>2026-05-02T09:28:24.144Z</time></trkpt><trkpt lat="46.1411067" lon="13.6413861"><ele>502.6666666666667</ele><time>2026-05-02T09:28:25.143Z</time></trkpt><trkpt lat="46.1410977" lon="13.6415051"><ele>500.0</ele><time>2026-05-02T09:28:26.144Z</time></trkpt><trkpt lat="46.1410897" lon="13.6416174"><ele>497.33333333333337</ele><time>2026-05-02T09:28:27.143Z</time></trkpt><trkpt lat="46.1410775" lon="13.6417234"><ele>494.6666666666667</ele><time>2026-05-02T09:28:28.144Z</time></trkpt><trkpt lat="46.1410686" lon="13.6418464"><ele>492.0</ele><time>2026-05-02T09:28:29.143Z</time></trkpt><trkpt lat="46.1410579" lon="13.6419608"><ele>492.1428571428572</ele><time>2026-05-02T09:28:30.143Z</time></trkpt><trkpt lat="46.1410443" lon="13.6420637"><ele>492.28571428571433</ele><time>2026-05-02T09:28:31.143Z</time></trkpt><trkpt lat="46.1410271" lon="13.6421699"><ele>492.42857142857144</ele><time>2026-05-02T09:28:32.143Z</time></trkpt><trkpt lat="46.1410127" lon="13.6422662"><ele>492.5714285714286</ele><time>2026-05-02T09:28:33.143Z</time></trkpt><trkpt lat="46.140995" lon="13.6423676"><ele>492.7142857142858</ele><time>2026-05-02T09:28:34.143Z</time></trkpt><trkpt lat="46.1409751" lon="13.6424793"><ele>492.85714285714283</ele><time>2026-05-02T09:28:35.143Z</time></trkpt><trkpt lat="46.1409426" lon="13.6425617"><ele>493.0</ele><time>2026-05-02T09:28:36.144Z</time></trkpt><trkpt lat="46.1409295" lon="13.642692"><ele>490.00000000000006</ele><time>2026-05-02T09:28:38.143Z</time></trkpt><trkpt lat="46.1409615" lon="13.6428244"><ele>487.0</ele><time>2026-05-02T09:28:40.144Z</time></trkpt><trkpt lat="46.141032" lon="13.6429319"><ele>484.0</ele><time>2026-05-02T09:28:42.144Z</time></trkpt><trkpt lat="46.1410962" lon="13.6429541"><ele>481.0</ele><time>2026-05-02T09:28:44.143Z</time></trkpt><trkpt lat="46.1412065" lon="13.6429723"><ele>478.00000000000006</ele><time>2026-05-02T09:28:46.143Z</time></trkpt><trkpt lat="46.1412749" lon="13.6429774"><ele>475.0</ele><time>2026-05-02T09:28:47.144Z</time></trkpt><trkpt lat="46.1413451" lon="13.6429798"><ele>475.0</ele><time>2026-05-02T09:28:48.143Z</time></trkpt><trkpt lat="46.1414113" lon="13.642978"><ele>475.0</ele><time>2026-05-02T09:28:49.143Z</time></trkpt><trkpt lat="46.1414745" lon="13.6429756"><ele>475.0</ele><time>2026-05-02T09:28:50.144Z</time></trkpt><trkpt lat="46.1415914" lon="13.642978"><ele>475.0</ele><time>2026-05-02T09:28:52.144Z</time></trkpt><trkpt lat="46.1417064" lon="13.643036"><ele>475.0</ele><time>2026-05-02T09:28:54.143Z</time></trkpt><trkpt lat="46.141816" lon="13.643059"><ele>478.4</ele><time>2026-05-02T09:28:56.143Z</time></trkpt><trkpt lat="46.1419252" lon="13.6430734"><ele>481.8</ele><time>2026-05-02T09:28:58.144Z</time></trkpt><trkpt lat="46.1420217" lon="13.6431182"><ele>485.20000000000005</ele><time>2026-05-02T09:29:00.143Z</time></trkpt><trkpt lat="46.1421128" lon="13.6431872"><ele>488.6</ele><time>2026-05-02T09:29:02.144Z</time></trkpt><trkpt lat="46.1422001" lon="13.6432807"><ele>492.0</ele><time>2026-05-02T09:29:04.144Z</time></trkpt><trkpt lat="46.1422757" lon="13.6433755"><ele>492.0</ele><time>2026-05-02T09:29:06.143Z</time></trkpt><trkpt lat="46.1422988" lon="13.6434654"><ele>492.00000000000006</ele><time>2026-05-02T09:29:08.144Z</time></trkpt><trkpt lat="46.1422642" lon="13.6436555"><ele>492.00000000000006</ele><time>2026-05-02T09:29:10.143Z</time></trkpt><trkpt lat="46.1422431" lon="13.6437886"><ele>492.0</ele><time>2026-05-02T09:29:11.143Z</time></trkpt><trkpt lat="46.1422384" lon="13.6439337"><ele>492.0</ele><time>2026-05-02T09:29:12.144Z</time></trkpt><trkpt lat="46.1422506" lon="13.6440667"><ele>486.8333333333333</ele><time>2026-05-02T09:29:13.143Z</time></trkpt><trkpt lat="46.142255" lon="13.6441884"><ele>481.66666666666663</ele><time>2026-05-02T09:29:14.143Z</time></trkpt><trkpt lat="46.1422581" lon="13.6443092"><ele>476.5</ele><time>2026-05-02T09:29:15.144Z</time></trkpt><trkpt lat="46.1422478" lon="13.644423"><ele>471.3333333333333</ele><time>2026-05-02T09:29:16.143Z</time></trkpt><trkpt lat="46.1422246" lon="13.6445288"><ele>466.16666666666663</ele><time>2026-05-02T09:29:17.143Z</time></trkpt><trkpt lat="46.1421811" lon="13.6446854"><ele>461.0</ele><time>2026-05-02T09:29:19.143Z</time></trkpt><trkpt lat="46.1421479" lon="13.6448299"><ele>457.20000000000005</ele><time>2026-05-02T09:29:21.144Z</time></trkpt><trkpt lat="46.1421114" lon="13.6449656"><ele>453.40000000000003</ele><time>2026-05-02T09:29:23.143Z</time></trkpt><trkpt lat="46.1421073" lon="13.6450963"><ele>449.6</ele><time>2026-05-02T09:29:25.143Z</time></trkpt><trkpt lat="46.1421747" lon="13.6452302"><ele>445.8</ele><time>2026-05-02T09:29:27.144Z</time></trkpt><trkpt lat="46.1422589" lon="13.6453272"><ele>442.0</ele><time>2026-05-02T09:29:29.143Z</time></trkpt><trkpt lat="46.1423418" lon="13.6453811"><ele>443.8</ele><time>2026-05-02T09:29:31.143Z</time></trkpt><trkpt lat="46.1424434" lon="13.6454204"><ele>445.6</ele><time>2026-05-02T09:29:33.143Z</time></trkpt><trkpt lat="46.1425513" lon="13.6454583"><ele>447.40000000000003</ele><time>2026-05-02T09:29:35.143Z</time></trkpt><trkpt lat="46.1426573" lon="13.6454893"><ele>449.20000000000005</ele><time>2026-05-02T09:29:37.143Z</time></trkpt><trkpt lat="46.1427238" lon="13.645528"><ele>451.0</ele><time>2026-05-02T09:29:39.144Z</time></trkpt><trkpt lat="46.142776" lon="13.6456541"><ele>451.0</ele><time>2026-05-02T09:29:41.143Z</time></trkpt><trkpt lat="46.1428021" lon="13.6457824"><ele>451.0</ele><time>2026-05-02T09:29:42.144Z</time></trkpt><trkpt lat="46.1428309" lon="13.6459137"><ele>451.0</ele><time>2026-05-02T09:29:43.144Z</time></trkpt><trkpt lat="46.1428585" lon="13.6459987"><ele>451.0</ele><time>2026-05-02T09:29:44.143Z</time></trkpt><trkpt lat="46.1429066" lon="13.6461395"><ele>451.0</ele><time>2026-05-02T09:29:46.143Z</time></trkpt><trkpt lat="46.1429874" lon="13.646228"><ele>446.6666666666667</ele><time>2026-05-02T09:29:48.143Z</time></trkpt><trkpt lat="46.1430986" lon="13.646238"><ele>442.33333333333337</ele><time>2026-05-02T09:29:50.143Z</time></trkpt><trkpt lat="46.1431554" lon="13.6462848"><ele>438.0</ele><time>2026-05-02T09:29:52.143Z</time></trkpt><trkpt lat="46.1430894" lon="13.6463853"><ele>433.66666666666663</ele><time>2026-05-02T09:29:55.144Z</time></trkpt><trkpt lat="46.1430261" lon="13.6463813"><ele>429.3333333333333</ele><time>2026-05-02T09:29:56.143Z</time></trkpt><trkpt lat="46.1429593" lon="13.6463702"><ele>425.0</ele><time>2026-05-02T09:29:57.143Z</time></trkpt><trkpt lat="46.1428481" lon="13.6463549"><ele>425.0</ele><time>2026-05-02T09:29:59.144Z</time></trkpt><trkpt lat="46.1427562" lon="13.6462978"><ele>425.0</ele><time>2026-05-02T09:30:01.143Z</time></trkpt><trkpt lat="46.1427065" lon="13.6462255"><ele>425.0</ele><time>2026-05-02T09:30:02.143Z</time></trkpt><trkpt lat="46.1426613" lon="13.6461283"><ele>425.0</ele><time>2026-05-02T09:30:03.144Z</time></trkpt><trkpt lat="46.1425775" lon="13.6460033"><ele>425.0</ele><time>2026-05-02T09:30:05.143Z</time></trkpt><trkpt lat="46.1425" lon="13.6459052"><ele>425.42857142857144</ele><time>2026-05-02T09:30:07.143Z</time></trkpt><trkpt lat="46.1424262" lon="13.6459168"><ele>425.85714285714283</ele><time>2026-05-02T09:30:09.143Z</time></trkpt><trkpt lat="46.1423544" lon="13.6459537"><ele>426.28571428571433</ele><time>2026-05-02T09:30:10.143Z</time></trkpt><trkpt lat="46.1422809" lon="13.6459965"><ele>426.7142857142857</ele><time>2026-05-02T09:30:11.143Z</time></trkpt><trkpt lat="46.1422104" lon="13.6460262"><ele>427.14285714285717</ele><time>2026-05-02T09:30:12.144Z</time></trkpt><trkpt lat="46.1421455" lon="13.6460545"><ele>427.5714285714286</ele><time>2026-05-02T09:30:13.143Z</time></trkpt><trkpt lat="46.1420756" lon="13.6460692"><ele>428.0</ele><time>2026-05-02T09:30:14.143Z</time></trkpt><trkpt lat="46.1420066" lon="13.6460734"><ele>427.99999999999994</ele><time>2026-05-02T09:30:15.143Z</time></trkpt><trkpt lat="46.1419423" lon="13.6460664"><ele>428.0</ele><time>2026-05-02T09:30:16.142Z</time></trkpt><trkpt lat="46.1418179" lon="13.6460056"><ele>428.0</ele><time>2026-05-02T09:30:18.143Z</time></trkpt><trkpt lat="46.1417671" lon="13.64595"><ele>428.0</ele><time>2026-05-02T09:30:19.142Z</time></trkpt><trkpt lat="46.1417111" lon="13.6458947"><ele>427.99999999999994</ele><time>2026-05-02T09:30:20.142Z</time></trkpt><trkpt lat="46.1416145" lon="13.6458016"><ele>428.0</ele><time>2026-05-02T09:30:22.142Z</time></trkpt><trkpt lat="46.1415539" lon="13.6457182"><ele>428.0</ele><time>2026-05-02T09:30:24.143Z</time></trkpt><trkpt lat="46.1416184" lon="13.6458328"><ele>427.99999999999994</ele><time>2026-05-02T09:30:30.142Z</time></trkpt><trkpt lat="46.1416968" lon="13.6459459"><ele>427.99999999999994</ele><time>2026-05-02T09:30:32.143Z</time></trkpt><trkpt lat="46.1417605" lon="13.6460909"><ele>428.0</ele><time>2026-05-02T09:30:34.142Z</time></trkpt><trkpt lat="46.1417848" lon="13.6461814"><ele>428.0</ele><time>2026-05-02T09:30:35.142Z</time></trkpt><trkpt lat="46.1418122" lon="13.6462725"><ele>422.59999999999997</ele><time>2026-05-02T09:30:36.143Z</time></trkpt><trkpt lat="46.141887" lon="13.6464048"><ele>417.19999999999993</ele><time>2026-05-02T09:30:38.142Z</time></trkpt><trkpt lat="46.1419369" lon="13.6464722"><ele>411.8</ele><time>2026-05-02T09:30:39.142Z</time></trkpt><trkpt lat="46.1420369" lon="13.64654"><ele>406.4</ele><time>2026-05-02T09:30:41.142Z</time></trkpt><trkpt lat="46.1421505" lon="13.6465637"><ele>401.0</ele><time>2026-05-02T09:30:43.143Z</time></trkpt><trkpt lat="46.1422516" lon="13.646622"><ele>401.0</ele><time>2026-05-02T09:30:45.142Z</time></trkpt><trkpt lat="46.1423187" lon="13.6467309"><ele>401.0</ele><time>2026-05-02T09:30:47.142Z</time></trkpt><trkpt lat="46.142328" lon="13.6468703"><ele>401.0</ele><time>2026-05-02T09:30:49.142Z</time></trkpt><trkpt lat="46.1423341" lon="13.6470236"><ele>401.0</ele><time>2026-05-02T09:30:51.143Z</time></trkpt><trkpt lat="46.1423719" lon="13.6471702"><ele>401.0</ele><time>2026-05-02T09:30:53.142Z</time></trkpt><trkpt lat="46.1424648" lon="13.6472157"><ele>400.8333333333333</ele><time>2026-05-02T09:30:55.142Z</time></trkpt><trkpt lat="46.142571" lon="13.6472402"><ele>400.66666666666663</ele><time>2026-05-02T09:30:57.142Z</time></trkpt><trkpt lat="46.1426388" lon="13.6472602"><ele>400.5</ele><time>2026-05-02T09:30:58.142Z</time></trkpt><trkpt lat="46.1427036" lon="13.6472902"><ele>400.33333333333337</ele><time>2026-05-02T09:30:59.142Z</time></trkpt><trkpt lat="46.1427659" lon="13.6473127"><ele>400.1666666666667</ele><time>2026-05-02T09:31:00.142Z</time></trkpt><trkpt lat="46.1428665" lon="13.647347"><ele>400.0</ele><time>2026-05-02T09:31:02.143Z</time></trkpt><trkpt lat="46.1429553" lon="13.6474476"><ele>400.00000000000006</ele><time>2026-05-02T09:31:04.142Z</time></trkpt><trkpt lat="46.1429589" lon="13.647577"><ele>400.0</ele><time>2026-05-02T09:31:06.143Z</time></trkpt><trkpt lat="46.1429989" lon="13.6477154"><ele>400.0</ele><time>2026-05-02T09:31:08.142Z</time></trkpt><trkpt lat="46.1430403" lon="13.6478059"><ele>400.0</ele><time>2026-05-02T09:31:09.143Z</time></trkpt><trkpt lat="46.143077" lon="13.6478918"><ele>400.00000000000006</ele><time>2026-05-02T09:31:10.143Z</time></trkpt><trkpt lat="46.1431076" lon="13.6479754"><ele>400.0</ele><time>2026-05-02T09:31:11.142Z</time></trkpt><trkpt lat="46.1431779" lon="13.6481373"><ele>399.2</ele><time>2026-05-02T09:31:13.142Z</time></trkpt><trkpt lat="46.1432601" lon="13.64824"><ele>398.4</ele><time>2026-05-02T09:31:15.142Z</time></trkpt><trkpt lat="46.1433672" lon="13.6482959"><ele>397.6</ele><time>2026-05-02T09:31:17.142Z</time></trkpt><trkpt lat="46.1434525" lon="13.6483727"><ele>396.8</ele><time>2026-05-02T09:31:19.143Z</time></trkpt><trkpt lat="46.1434658" lon="13.6485124"><ele>396.0</ele><time>2026-05-02T09:31:21.142Z</time></trkpt><trkpt lat="46.1434439" lon="13.6486688"><ele>394.6</ele><time>2026-05-02T09:31:23.142Z</time></trkpt><trkpt lat="46.143476" lon="13.6488196"><ele>393.20000000000005</ele><time>2026-05-02T09:31:25.142Z</time></trkpt><trkpt lat="46.1435686" lon="13.6489259"><ele>391.79999999999995</ele><time>2026-05-02T09:31:27.142Z</time></trkpt><trkpt lat="46.1436796" lon="13.6489873"><ele>390.4</ele><time>2026-05-02T09:31:29.143Z</time></trkpt><trkpt lat="46.143764" lon="13.6490338"><ele>389.0</ele><time>2026-05-02T09:31:30.142Z</time></trkpt><trkpt lat="46.1438441" lon="13.6490642"><ele>388.99999999999994</ele><time>2026-05-02T09:31:31.142Z</time></trkpt><trkpt lat="46.1439268" lon="13.649086"><ele>389.0</ele><time>2026-05-02T09:31:32.142Z</time></trkpt><trkpt lat="46.144009" lon="13.6490869"><ele>389.0</ele><time>2026-05-02T09:31:33.142Z</time></trkpt><trkpt lat="46.1440969" lon="13.6490906"><ele>389.0</ele><time>2026-05-02T09:31:34.142Z</time></trkpt><trkpt lat="46.1441903" lon="13.6490874"><ele>388.99999999999994</ele><time>2026-05-02T09:31:35.143Z</time></trkpt><trkpt lat="46.1442826" lon="13.6490792"><ele>389.0</ele><time>2026-05-02T09:31:36.142Z</time></trkpt><trkpt lat="46.1443667" lon="13.6490803"><ele>389.99999999999994</ele><time>2026-05-02T09:31:37.143Z</time></trkpt><trkpt lat="46.1444558" lon="13.6490982"><ele>391.0</ele><time>2026-05-02T09:31:38.142Z</time></trkpt><trkpt lat="46.1445407" lon="13.6491361"><ele>392.0</ele><time>2026-05-02T09:31:39.142Z</time></trkpt><trkpt lat="46.1446146" lon="13.6491573"><ele>393.0</ele><time>2026-05-02T09:31:40.142Z</time></trkpt><trkpt lat="46.1446873" lon="13.6491706"><ele>393.99999999999994</ele><time>2026-05-02T09:31:41.143Z</time></trkpt><trkpt lat="46.1447549" lon="13.6491939"><ele>395.0</ele><time>2026-05-02T09:31:42.142Z</time></trkpt><trkpt lat="46.144821" lon="13.6492335"><ele>395.2</ele><time>2026-05-02T09:31:43.142Z</time></trkpt><trkpt lat="46.1449223" lon="13.6493135"><ele>395.4</ele><time>2026-05-02T09:31:45.143Z</time></trkpt><trkpt lat="46.1450287" lon="13.6494066"><ele>395.6</ele><time>2026-05-02T09:31:47.142Z</time></trkpt><trkpt lat="46.1450867" lon="13.6494632"><ele>395.8</ele><time>2026-05-02T09:31:48.142Z</time></trkpt><trkpt lat="46.1451435" lon="13.6495198"><ele>396.0</ele><time>2026-05-02T09:31:49.142Z</time></trkpt><trkpt lat="46.1452121" lon="13.6495513"><ele>396.0</ele><time>2026-05-02T09:31:50.142Z</time></trkpt><trkpt lat="46.1452838" lon="13.6495702"><ele>396.0</ele><time>2026-05-02T09:31:51.142Z</time></trkpt><trkpt lat="46.1453496" lon="13.6496112"><ele>396.0</ele><time>2026-05-02T09:31:52.143Z</time></trkpt><trkpt lat="46.1454151" lon="13.6496689"><ele>396.0</ele><time>2026-05-02T09:31:53.142Z</time></trkpt><trkpt lat="46.1454856" lon="13.6497369"><ele>396.0</ele><time>2026-05-02T09:31:54.143Z</time></trkpt><trkpt lat="46.1455469" lon="13.6498052"><ele>396.0</ele><time>2026-05-02T09:31:55.142Z</time></trkpt><trkpt lat="46.1456012" lon="13.6498809"><ele>396.0</ele><time>2026-05-02T09:31:56.142Z</time></trkpt><trkpt lat="46.1456809" lon="13.6500114"><ele>396.0</ele><time>2026-05-02T09:31:58.143Z</time></trkpt><trkpt lat="46.145761" lon="13.650132"><ele>396.0</ele><time>2026-05-02T09:32:00.142Z</time></trkpt><trkpt lat="46.1458507" lon="13.6502638"><ele>396.0</ele><time>2026-05-02T09:32:02.142Z</time></trkpt><trkpt lat="46.1458974" lon="13.6503555"><ele>396.0</ele><time>2026-05-02T09:32:03.142Z</time></trkpt><trkpt lat="46.1459541" lon="13.6504319"><ele>397.0</ele><time>2026-05-02T09:32:04.142Z</time></trkpt><trkpt lat="46.1460305" lon="13.6504838"><ele>398.0</ele><time>2026-05-02T09:32:05.143Z</time></trkpt><trkpt lat="46.1461034" lon="13.6505356"><ele>399.0</ele><time>2026-05-02T09:32:06.142Z</time></trkpt><trkpt lat="46.1461732" lon="13.650587"><ele>400.0</ele><time>2026-05-02T09:32:07.142Z</time></trkpt><trkpt lat="46.1462455" lon="13.6506206"><ele>401.0</ele><time>2026-05-02T09:32:08.142Z</time></trkpt><trkpt lat="46.146303" lon="13.6506703"><ele>402.0</ele><time>2026-05-02T09:32:09.143Z</time></trkpt><trkpt lat="46.146383" lon="13.650757"><ele>402.0</ele><time>2026-05-02T09:32:11.142Z</time></trkpt><trkpt lat="46.1464326" lon="13.6509035"><ele>402.0</ele><time>2026-05-02T09:32:13.143Z</time></trkpt><trkpt lat="46.1465219" lon="13.6510212"><ele>402.0</ele><time>2026-05-02T09:32:15.143Z</time></trkpt><trkpt lat="46.1466541" lon="13.6510893"><ele>402.0</ele><time>2026-05-02T09:32:17.143Z</time></trkpt><trkpt lat="46.1467412" lon="13.6511335"><ele>404.0</ele><time>2026-05-02T09:32:18.143Z</time></trkpt><trkpt lat="46.1468317" lon="13.6511816"><ele>406.0</ele><time>2026-05-02T09:32:19.142Z</time></trkpt><trkpt lat="46.1469176" lon="13.6512213"><ele>408.0</ele><time>2026-05-02T09:32:20.142Z</time></trkpt><trkpt lat="46.1469849" lon="13.6512646"><ele>410.0</ele><time>2026-05-02T09:32:21.142Z</time></trkpt><trkpt lat="46.1470559" lon="13.6513277"><ele>412.0</ele><time>2026-05-02T09:32:22.142Z</time></trkpt><trkpt lat="46.1471395" lon="13.6514118"><ele>414.0</ele><time>2026-05-02T09:32:23.142Z</time></trkpt><trkpt lat="46.1472194" lon="13.6515092"><ele>414.0</ele><time>2026-05-02T09:32:24.142Z</time></trkpt><trkpt lat="46.1472884" lon="13.651593"><ele>414.0</ele><time>2026-05-02T09:32:25.142Z</time></trkpt><trkpt lat="46.1473482" lon="13.6516875"><ele>414.0</ele><time>2026-05-02T09:32:26.143Z</time></trkpt><trkpt lat="46.1473919" lon="13.6517667"><ele>414.0</ele><time>2026-05-02T09:32:27.142Z</time></trkpt><trkpt lat="46.1474369" lon="13.6518392"><ele>414.0</ele><time>2026-05-02T09:32:28.143Z</time></trkpt><trkpt lat="46.1475476" lon="13.6519352"><ele>414.0</ele><time>2026-05-02T09:32:30.143Z</time></trkpt><trkpt lat="46.147619" lon="13.6519768"><ele>413.79999999999995</ele><time>2026-05-02T09:32:31.142Z</time></trkpt><trkpt lat="46.147695" lon="13.652032"><ele>413.59999999999997</ele><time>2026-05-02T09:32:32.142Z</time></trkpt><trkpt lat="46.1477669" lon="13.6520991"><ele>413.4</ele><time>2026-05-02T09:32:33.142Z</time></trkpt><trkpt lat="46.1478487" lon="13.6521393"><ele>413.2</ele><time>2026-05-02T09:32:34.142Z</time></trkpt><trkpt lat="46.1479464" lon="13.6521851"><ele>413.0</ele><time>2026-05-02T09:32:35.143Z</time></trkpt><trkpt lat="46.1480435" lon="13.6522229"><ele>413.0</ele><time>2026-05-02T09:32:36.142Z</time></trkpt><trkpt lat="46.1481329" lon="13.6522651"><ele>413.0</ele><time>2026-05-02T09:32:37.142Z</time></trkpt><trkpt lat="46.1482211" lon="13.6522692"><ele>413.0</ele><time>2026-05-02T09:32:38.143Z</time></trkpt><trkpt lat="46.148314" lon="13.6522712"><ele>413.0</ele><time>2026-05-02T09:32:39.143Z</time></trkpt><trkpt lat="46.1484055" lon="13.6522565"><ele>413.0</ele><time>2026-05-02T09:32:40.142Z</time></trkpt><trkpt lat="46.1484998" lon="13.6522586"><ele>412.79999999999995</ele><time>2026-05-02T09:32:41.143Z</time></trkpt><trkpt lat="46.1485793" lon="13.6522406"><ele>412.6</ele><time>2026-05-02T09:32:42.142Z</time></trkpt><trkpt lat="46.148647" lon="13.652216"><ele>412.4</ele><time>2026-05-02T09:32:43.142Z</time></trkpt><trkpt lat="46.1487102" lon="13.6522013"><ele>412.20000000000005</ele><time>2026-05-02T09:32:44.142Z</time></trkpt><trkpt lat="46.1488102" lon="13.6521484"><ele>412.0</ele><time>2026-05-02T09:32:46.142Z</time></trkpt><trkpt lat="46.1488657" lon="13.6519658"><ele>414.00000000000006</ele><time>2026-05-02T09:32:48.143Z</time></trkpt><trkpt lat="46.1488894" lon="13.6518659"><ele>416.0</ele><time>2026-05-02T09:32:49.142Z</time></trkpt><trkpt lat="46.1489152" lon="13.6517712"><ele>418.0</ele><time>2026-05-02T09:32:50.142Z</time></trkpt><trkpt lat="46.1489607" lon="13.6516721"><ele>420.0</ele><time>2026-05-02T09:32:51.142Z</time></trkpt><trkpt lat="46.1490214" lon="13.6515812"><ele>422.00000000000006</ele><time>2026-05-02T09:32:52.142Z</time></trkpt><trkpt lat="46.1490817" lon="13.651516"><ele>424.0</ele><time>2026-05-02T09:32:53.142Z</time></trkpt><trkpt lat="46.1491314" lon="13.6514505"><ele>424.00000000000006</ele><time>2026-05-02T09:32:54.142Z</time></trkpt><trkpt lat="46.149182" lon="13.6513842"><ele>424.0</ele><time>2026-05-02T09:32:55.143Z</time></trkpt><trkpt lat="46.1492339" lon="13.6513303"><ele>424.0</ele><time>2026-05-02T09:32:56.143Z</time></trkpt><trkpt lat="46.1493376" lon="13.651266"><ele>424.0</ele><time>2026-05-02T09:32:58.142Z</time></trkpt><trkpt lat="46.1494583" lon="13.6512492"><ele>424.00000000000006</ele><time>2026-05-02T09:33:00.142Z</time></trkpt><trkpt lat="46.1495328" lon="13.6512787"><ele>424.0</ele><time>2026-05-02T09:33:02.143Z</time></trkpt><trkpt lat="46.1495416" lon="13.6513831"><ele>424.0</ele><time>2026-05-02T09:33:04.142Z</time></trkpt><trkpt lat="46.149494" lon="13.651527"><ele>424.0</ele><time>2026-05-02T09:33:06.142Z</time></trkpt><trkpt lat="46.1494507" lon="13.6516883"><ele>424.0</ele><time>2026-05-02T09:33:08.142Z</time></trkpt><trkpt lat="46.1494256" lon="13.6517744"><ele>424.0</ele><time>2026-05-02T09:33:09.142Z</time></trkpt><trkpt lat="46.1494042" lon="13.651876"><ele>424.0</ele><time>2026-05-02T09:33:10.142Z</time></trkpt><trkpt lat="46.1493797" lon="13.6520043"><ele>421.6666666666667</ele><time>2026-05-02T09:33:11.142Z</time></trkpt><trkpt lat="46.1493632" lon="13.6521175"><ele>419.33333333333337</ele><time>2026-05-02T09:33:12.142Z</time></trkpt><trkpt lat="46.1493479" lon="13.6522235"><ele>417.0</ele><time>2026-05-02T09:33:13.142Z</time></trkpt><trkpt lat="46.1493528" lon="13.6523299"><ele>414.66666666666663</ele><time>2026-05-02T09:33:14.143Z</time></trkpt><trkpt lat="46.1493666" lon="13.6524283"><ele>412.3333333333333</ele><time>2026-05-02T09:33:15.142Z</time></trkpt><trkpt lat="46.149442" lon="13.6525487"><ele>410.0</ele><time>2026-05-02T09:33:17.143Z</time></trkpt><trkpt lat="46.1495003" lon="13.6526007"><ele>410.0</ele><time>2026-05-02T09:33:18.142Z</time></trkpt><trkpt lat="46.1495772" lon="13.6526413"><ele>410.0</ele><time>2026-05-02T09:33:19.142Z</time></trkpt><trkpt lat="46.1496708" lon="13.652683"><ele>410.0</ele><time>2026-05-02T09:33:20.142Z</time></trkpt><trkpt lat="46.1497644" lon="13.652741"><ele>410.0</ele><time>2026-05-02T09:33:21.142Z</time></trkpt><trkpt lat="46.1498539" lon="13.6528065"><ele>410.0</ele><time>2026-05-02T09:33:22.142Z</time></trkpt><trkpt lat="46.1499336" lon="13.6528824"><ele>412.99999999999994</ele><time>2026-05-02T09:33:23.142Z</time></trkpt><trkpt lat="46.149998" lon="13.6529334"><ele>416.0</ele><time>2026-05-02T09:33:24.142Z</time></trkpt><trkpt lat="46.1500764" lon="13.6529827"><ele>419.0</ele><time>2026-05-02T09:33:25.143Z</time></trkpt><trkpt lat="46.1501622" lon="13.6530304"><ele>422.0</ele><time>2026-05-02T09:33:26.143Z</time></trkpt><trkpt lat="46.1502409" lon="13.653075"><ele>424.99999999999994</ele><time>2026-05-02T09:33:27.142Z</time></trkpt><trkpt lat="46.1503222" lon="13.653122"><ele>428.0</ele><time>2026-05-02T09:33:28.143Z</time></trkpt><trkpt lat="46.1504006" lon="13.6531724"><ele>427.99999999999994</ele><time>2026-05-02T09:33:29.143Z</time></trkpt><trkpt lat="46.1504732" lon="13.6532237"><ele>428.0</ele><time>2026-05-02T09:33:30.142Z</time></trkpt><trkpt lat="46.1505409" lon="13.6532573"><ele>428.0</ele><time>2026-05-02T09:33:31.143Z</time></trkpt><trkpt lat="46.150606" lon="13.6532723"><ele>428.0</ele><time>2026-05-02T09:33:32.143Z</time></trkpt><trkpt lat="46.1507243" lon="13.6533395"><ele>427.99999999999994</ele><time>2026-05-02T09:33:34.142Z</time></trkpt><trkpt lat="46.1507941" lon="13.6533997"><ele>428.0</ele><time>2026-05-02T09:33:35.142Z</time></trkpt><trkpt lat="46.150853" lon="13.6534656"><ele>427.0</ele><time>2026-05-02T09:33:36.143Z</time></trkpt><trkpt lat="46.1509799" lon="13.6535331"><ele>425.99999999999994</ele><time>2026-05-02T09:33:38.142Z</time></trkpt><trkpt lat="46.1510534" lon="13.6535703"><ele>425.0</ele><time>2026-05-02T09:33:39.142Z</time></trkpt><trkpt lat="46.1511155" lon="13.6536174"><ele>424.0</ele><time>2026-05-02T09:33:40.142Z</time></trkpt><trkpt lat="46.1511636" lon="13.6536782"><ele>423.0</ele><time>2026-05-02T09:33:41.143Z</time></trkpt><trkpt lat="46.1512561" lon="13.6537777"><ele>423.0</ele><time>2026-05-02T09:33:43.142Z</time></trkpt><trkpt lat="46.151352" lon="13.6537544"><ele>423.0</ele><time>2026-05-02T09:33:45.142Z</time></trkpt><trkpt lat="46.151473" lon="13.6537324"><ele>423.0</ele><time>2026-05-02T09:33:47.142Z</time></trkpt><trkpt lat="46.1515911" lon="13.653762"><ele>423.0</ele><time>2026-05-02T09:33:49.142Z</time></trkpt><trkpt lat="46.1516269" lon="13.6539065"><ele>423.0</ele><time>2026-05-02T09:33:51.143Z</time></trkpt><trkpt lat="46.151675" lon="13.6540359"><ele>424.0</ele><time>2026-05-02T09:33:53.142Z</time></trkpt><trkpt lat="46.1517549" lon="13.6541019"><ele>425.0</ele><time>2026-05-02T09:33:55.142Z</time></trkpt><trkpt lat="46.1518787" lon="13.6541274"><ele>425.99999999999994</ele><time>2026-05-02T09:33:57.142Z</time></trkpt><trkpt lat="46.1519916" lon="13.6540965"><ele>427.0</ele><time>2026-05-02T09:33:59.142Z</time></trkpt><trkpt lat="46.1520489" lon="13.6540538"><ele>428.0</ele><time>2026-05-02T09:34:00.142Z</time></trkpt><trkpt lat="46.1521075" lon="13.6540151"><ele>427.99999999999994</ele><time>2026-05-02T09:34:01.142Z</time></trkpt><trkpt lat="46.1521708" lon="13.6540067"><ele>428.0</ele><time>2026-05-02T09:34:02.142Z</time></trkpt><trkpt lat="46.1522422" lon="13.6540197"><ele>428.0</ele><time>2026-05-02T09:34:03.142Z</time></trkpt><trkpt lat="46.152318" lon="13.6540248"><ele>428.0</ele><time>2026-05-02T09:34:04.142Z</time></trkpt><trkpt lat="46.1524134" lon="13.6540121"><ele>427.99999999999994</ele><time>2026-05-02T09:34:05.143Z</time></trkpt><trkpt lat="46.1525065" lon="13.654"><ele>428.0</ele><time>2026-05-02T09:34:06.142Z</time></trkpt><trkpt lat="46.152587" lon="13.653983"><ele>429.49999999999994</ele><time>2026-05-02T09:34:07.143Z</time></trkpt><trkpt lat="46.1526582" lon="13.6539553"><ele>431.0</ele><time>2026-05-02T09:34:08.143Z</time></trkpt><trkpt lat="46.152746" lon="13.6539346"><ele>432.5</ele><time>2026-05-02T09:34:09.143Z</time></trkpt><trkpt lat="46.1528483" lon="13.6539372"><ele>434.0</ele><time>2026-05-02T09:34:10.143Z</time></trkpt><trkpt lat="46.1529319" lon="13.6539499"><ele>435.49999999999994</ele><time>2026-05-02T09:34:11.142Z</time></trkpt><trkpt lat="46.152997" lon="13.6539529"><ele>437.0</ele><time>2026-05-02T09:34:12.143Z</time></trkpt><trkpt lat="46.1531234" lon="13.6539205"><ele>437.0</ele><time>2026-05-02T09:34:14.141Z</time></trkpt><trkpt lat="46.1531927" lon="13.6538494"><ele>437.00000000000006</ele><time>2026-05-02T09:34:15.141Z</time></trkpt><trkpt lat="46.1532765" lon="13.6537706"><ele>437.00000000000006</ele><time>2026-05-02T09:34:16.141Z</time></trkpt><trkpt lat="46.1533678" lon="13.6536737"><ele>437.0</ele><time>2026-05-02T09:34:17.142Z</time></trkpt><trkpt lat="46.1534384" lon="13.6536048"><ele>437.0</ele><time>2026-05-02T09:34:18.141Z</time></trkpt><trkpt lat="46.1535409" lon="13.6535594"><ele>437.8</ele><time>2026-05-02T09:34:20.141Z</time></trkpt><trkpt lat="46.1536222" lon="13.6536334"><ele>438.6</ele><time>2026-05-02T09:34:22.142Z</time></trkpt><trkpt lat="46.1536732" lon="13.6538183"><ele>439.40000000000003</ele><time>2026-05-02T09:34:24.141Z</time></trkpt><trkpt lat="46.1536989" lon="13.6539139"><ele>440.20000000000005</ele><time>2026-05-02T09:34:25.142Z</time></trkpt><trkpt lat="46.153764" lon="13.6540022"><ele>441.0</ele><time>2026-05-02T09:34:27.142Z</time></trkpt><trkpt lat="46.153886" lon="13.654026"><ele>441.0</ele><time>2026-05-02T09:34:29.141Z</time></trkpt><trkpt lat="46.1539927" lon="13.6540427"><ele>441.0</ele><time>2026-05-02T09:34:30.141Z</time></trkpt><trkpt lat="46.1540968" lon="13.6540558"><ele>441.0</ele><time>2026-05-02T09:34:31.141Z</time></trkpt><trkpt lat="46.1541789" lon="13.6540689"><ele>441.0</ele><time>2026-05-02T09:34:32.142Z</time></trkpt><trkpt lat="46.1542523" lon="13.6540936"><ele>441.0</ele><time>2026-05-02T09:34:33.141Z</time></trkpt><trkpt lat="46.1543263" lon="13.6541334"><ele>441.0</ele><time>2026-05-02T09:34:34.141Z</time></trkpt><trkpt lat="46.1543961" lon="13.6541649"><ele>442.6</ele><time>2026-05-02T09:34:35.141Z</time></trkpt><trkpt lat="46.1545237" lon="13.6542129"><ele>444.20000000000005</ele><time>2026-05-02T09:34:37.141Z</time></trkpt><trkpt lat="46.1546127" lon="13.6542626"><ele>445.79999999999995</ele><time>2026-05-02T09:34:38.141Z</time></trkpt><trkpt lat="46.1546951" lon="13.6543244"><ele>447.4</ele><time>2026-05-02T09:34:39.141Z</time></trkpt><trkpt lat="46.154781" lon="13.6543962"><ele>449.0</ele><time>2026-05-02T09:34:40.142Z</time></trkpt><trkpt lat="46.1548697" lon="13.6544819"><ele>446.49999999999994</ele><time>2026-05-02T09:34:41.141Z</time></trkpt><trkpt lat="46.1549451" lon="13.6545736"><ele>444.0</ele><time>2026-05-02T09:34:42.141Z</time></trkpt><trkpt lat="46.1550092" lon="13.6546559"><ele>441.5</ele><time>2026-05-02T09:34:43.142Z</time></trkpt><trkpt lat="46.1550775" lon="13.654727"><ele>439.0</ele><time>2026-05-02T09:34:44.142Z</time></trkpt><trkpt lat="46.1551406" lon="13.6547777"><ele>436.49999999999994</ele><time>2026-05-02T09:34:45.141Z</time></trkpt><trkpt lat="46.1552058" lon="13.6548187"><ele>434.0</ele><time>2026-05-02T09:34:46.141Z</time></trkpt><trkpt lat="46.1552709" lon="13.6548448"><ele>434.0</ele><time>2026-05-02T09:34:47.141Z</time></trkpt><trkpt lat="46.1553629" lon="13.6548417"><ele>434.0</ele><time>2026-05-02T09:34:49.141Z</time></trkpt><trkpt lat="46.1554503" lon="13.6547585"><ele>434.0</ele><time>2026-05-02T09:34:51.142Z</time></trkpt><trkpt lat="46.1554942" lon="13.6546223"><ele>434.0</ele><time>2026-05-02T09:34:53.141Z</time></trkpt><trkpt lat="46.1555502" lon="13.654541"><ele>434.0</ele><time>2026-05-02T09:34:55.141Z</time></trkpt><trkpt lat="46.1556353" lon="13.6546487"><ele>434.0</ele><time>2026-05-02T09:34:58.142Z</time></trkpt><trkpt lat="46.1556621" lon="13.65474"><ele>434.0</ele><time>2026-05-02T09:34:59.141Z</time></trkpt><trkpt lat="46.1557346" lon="13.6548589"><ele>434.0</ele><time>2026-05-02T09:35:01.141Z</time></trkpt><trkpt lat="46.1558277" lon="13.6548638"><ele>434.0</ele><time>2026-05-02T09:35:03.141Z</time></trkpt><trkpt lat="46.1559053" lon="13.6548233"><ele>434.0</ele><time>2026-05-02T09:35:05.141Z</time></trkpt><trkpt lat="46.1560002" lon="13.6547726"><ele>434.8333333333333</ele><time>2026-05-02T09:35:07.141Z</time></trkpt><trkpt lat="46.1561024" lon="13.6546875"><ele>435.66666666666663</ele><time>2026-05-02T09:35:09.141Z</time></trkpt><trkpt lat="46.1561551" lon="13.6546239"><ele>436.5</ele><time>2026-05-02T09:35:10.142Z</time></trkpt><trkpt lat="46.1562165" lon="13.6545576"><ele>437.33333333333337</ele><time>2026-05-02T09:35:11.142Z</time></trkpt><trkpt lat="46.1562882" lon="13.6544818"><ele>438.1666666666667</ele><time>2026-05-02T09:35:12.142Z</time></trkpt><trkpt lat="46.1563641" lon="13.654413"><ele>439.0</ele><time>2026-05-02T09:35:13.141Z</time></trkpt><trkpt lat="46.1564398" lon="13.6543338"><ele>443.79999999999995</ele><time>2026-05-02T09:35:14.141Z</time></trkpt><trkpt lat="46.1565085" lon="13.654268"><ele>448.59999999999997</ele><time>2026-05-02T09:35:15.142Z</time></trkpt><trkpt lat="46.1565728" lon="13.6541898"><ele>453.4</ele><time>2026-05-02T09:35:16.141Z</time></trkpt><trkpt lat="46.1566255" lon="13.65414"><ele>458.2</ele><time>2026-05-02T09:35:17.141Z</time></trkpt><trkpt lat="46.1567237" lon="13.6540779"><ele>463.0</ele><time>2026-05-02T09:35:19.142Z</time></trkpt><trkpt lat="46.1568476" lon="13.6540729"><ele>463.0</ele><time>2026-05-02T09:35:21.141Z</time></trkpt><trkpt lat="46.1569339" lon="13.6540583"><ele>462.99999999999994</ele><time>2026-05-02T09:35:22.141Z</time></trkpt><trkpt lat="46.157054" lon="13.6540089"><ele>462.99999999999994</ele><time>2026-05-02T09:35:23.141Z</time></trkpt><trkpt lat="46.1571582" lon="13.6539727"><ele>463.0</ele><time>2026-05-02T09:35:24.141Z</time></trkpt><trkpt lat="46.1572394" lon="13.6539356"><ele>463.0</ele><time>2026-05-02T09:35:25.141Z</time></trkpt><trkpt lat="46.1573053" lon="13.6538796"><ele>460.83333333333337</ele><time>2026-05-02T09:35:26.141Z</time></trkpt><trkpt lat="46.1573699" lon="13.6538263"><ele>458.6666666666667</ele><time>2026-05-02T09:35:27.141Z</time></trkpt><trkpt lat="46.1574386" lon="13.6537768"><ele>456.5</ele><time>2026-05-02T09:35:28.141Z</time></trkpt><trkpt lat="46.1575167" lon="13.6537344"><ele>454.33333333333337</ele><time>2026-05-02T09:35:29.141Z</time></trkpt><trkpt lat="46.1575993" lon="13.6536642"><ele>452.1666666666667</ele><time>2026-05-02T09:35:30.141Z</time></trkpt><trkpt lat="46.1576774" lon="13.6536044"><ele>450.0</ele><time>2026-05-02T09:35:31.142Z</time></trkpt><trkpt lat="46.1577548" lon="13.6535452"><ele>457.0</ele><time>2026-05-02T09:35:32.141Z</time></trkpt><trkpt lat="46.1578357" lon="13.6534865"><ele>464.0</ele><time>2026-05-02T09:35:33.141Z</time></trkpt><trkpt lat="46.1579134" lon="13.6534355"><ele>471.0</ele><time>2026-05-02T09:35:34.141Z</time></trkpt><trkpt lat="46.1579915" lon="13.6533736"><ele>478.0</ele><time>2026-05-02T09:35:35.141Z</time></trkpt><trkpt lat="46.1580838" lon="13.6533273"><ele>485.0</ele><time>2026-05-02T09:35:37.141Z</time></trkpt><trkpt lat="46.1581678" lon="13.6532747"><ele>483.4</ele><time>2026-05-02T09:35:39.142Z</time></trkpt><trkpt lat="46.1582394" lon="13.65323"><ele>481.8</ele><time>2026-05-02T09:35:41.142Z</time></trkpt><trkpt lat="46.1583123" lon="13.6531304"><ele>480.20000000000005</ele><time>2026-05-02T09:35:43.142Z</time></trkpt><trkpt lat="46.1583729" lon="13.6530108"><ele>478.6</ele><time>2026-05-02T09:35:45.142Z</time></trkpt><trkpt lat="46.1584098" lon="13.6528911"><ele>477.0</ele><time>2026-05-02T09:35:47.141Z</time></trkpt><trkpt lat="46.1583984" lon="13.6527178"><ele>477.0</ele><time>2026-05-02T09:35:49.141Z</time></trkpt><trkpt lat="46.1584132" lon="13.6525831"><ele>477.0</ele><time>2026-05-02T09:35:51.142Z</time></trkpt><trkpt lat="46.1584859" lon="13.6525395"><ele>477.0</ele><time>2026-05-02T09:35:54.142Z</time></trkpt><trkpt lat="46.1585479" lon="13.6525987"><ele>477.0</ele><time>2026-05-02T09:35:56.141Z</time></trkpt><trkpt lat="46.1586387" lon="13.6527461"><ele>477.0</ele><time>2026-05-02T09:35:58.142Z</time></trkpt><trkpt lat="46.1586688" lon="13.6528265"><ele>477.0</ele><time>2026-05-02T09:35:59.141Z</time></trkpt><trkpt lat="46.1587243" lon="13.6529688"><ele>473.6666666666667</ele><time>2026-05-02T09:36:01.141Z</time></trkpt><trkpt lat="46.1587762" lon="13.6530528"><ele>470.33333333333337</ele><time>2026-05-02T09:36:03.142Z</time></trkpt><trkpt lat="46.1588712" lon="13.6531075"><ele>467.0</ele><time>2026-05-02T09:36:05.142Z</time></trkpt><trkpt lat="46.1589502" lon="13.6531223"><ele>463.6666666666667</ele><time>2026-05-02T09:36:06.142Z</time></trkpt><trkpt lat="46.1590179" lon="13.6531227"><ele>460.33333333333337</ele><time>2026-05-02T09:36:07.142Z</time></trkpt><trkpt lat="46.159098" lon="13.6531998"><ele>457.0</ele><time>2026-05-02T09:36:09.142Z</time></trkpt><trkpt lat="46.1591517" lon="13.6532712"><ele>456.4285714285715</ele><time>2026-05-02T09:36:10.141Z</time></trkpt><trkpt lat="46.1592066" lon="13.6533397"><ele>455.8571428571429</ele><time>2026-05-02T09:36:11.141Z</time></trkpt><trkpt lat="46.1592597" lon="13.6534098"><ele>455.2857142857143</ele><time>2026-05-02T09:36:12.141Z</time></trkpt><trkpt lat="46.1593134" lon="13.6534602"><ele>454.7142857142857</ele><time>2026-05-02T09:36:13.141Z</time></trkpt><trkpt lat="46.1593719" lon="13.6535097"><ele>454.1428571428571</ele><time>2026-05-02T09:36:14.141Z</time></trkpt><trkpt lat="46.1594417" lon="13.6535464"><ele>453.5714285714285</ele><time>2026-05-02T09:36:15.141Z</time></trkpt><trkpt lat="46.1595178" lon="13.6535619"><ele>452.99999999999994</ele><time>2026-05-02T09:36:16.142Z</time></trkpt><trkpt lat="46.1595995" lon="13.6535774"><ele>453.0</ele><time>2026-05-02T09:36:17.141Z</time></trkpt><trkpt lat="46.15968" lon="13.6535851"><ele>452.99999999999994</ele><time>2026-05-02T09:36:18.142Z</time></trkpt><trkpt lat="46.1597765" lon="13.6535732"><ele>452.99999999999994</ele><time>2026-05-02T09:36:19.142Z</time></trkpt><trkpt lat="46.1598795" lon="13.6535554"><ele>453.0</ele><time>2026-05-02T09:36:20.141Z</time></trkpt><trkpt lat="46.1600014" lon="13.6535147"><ele>453.0</ele><time>2026-05-02T09:36:21.142Z</time></trkpt><trkpt lat="46.1601387" lon="13.6534744"><ele>453.59999999999997</ele><time>2026-05-02T09:36:22.141Z</time></trkpt><trkpt lat="46.1602673" lon="13.6534385"><ele>454.19999999999993</ele><time>2026-05-02T09:36:23.142Z</time></trkpt><trkpt lat="46.1603791" lon="13.6534122"><ele>454.8</ele><time>2026-05-02T09:36:24.141Z</time></trkpt><trkpt lat="46.1604692" lon="13.6533936"><ele>455.4</ele><time>2026-05-02T09:36:25.141Z</time></trkpt><trkpt lat="46.1605542" lon="13.6533664"><ele>456.0</ele><time>2026-05-02T09:36:26.141Z</time></trkpt><trkpt lat="46.1606418" lon="13.653352"><ele>457.6</ele><time>2026-05-02T09:36:27.142Z</time></trkpt><trkpt lat="46.1607191" lon="13.6533178"><ele>459.20000000000005</ele><time>2026-05-02T09:36:28.141Z</time></trkpt><trkpt lat="46.1608339" lon="13.653334"><ele>460.79999999999995</ele><time>2026-05-02T09:36:30.141Z</time></trkpt><trkpt lat="46.1609015" lon="13.6533589"><ele>462.4</ele><time>2026-05-02T09:36:31.142Z</time></trkpt><trkpt lat="46.1610159" lon="13.6534014"><ele>464.0</ele><time>2026-05-02T09:36:33.141Z</time></trkpt><trkpt lat="46.1611242" lon="13.6534179"><ele>463.99999999999994</ele><time>2026-05-02T09:36:35.142Z</time></trkpt><trkpt lat="46.1612179" lon="13.653431"><ele>464.0</ele><time>2026-05-02T09:36:37.141Z</time></trkpt><trkpt lat="46.1613038" lon="13.6534385"><ele>464.0</ele><time>2026-05-02T09:36:39.141Z</time></trkpt><trkpt lat="46.1613781" lon="13.6534011"><ele>464.0</ele><time>2026-05-02T09:36:41.142Z</time></trkpt><trkpt lat="46.1614505" lon="13.6533502"><ele>463.99999999999994</ele><time>2026-05-02T09:36:43.141Z</time></trkpt><trkpt lat="46.1615317" lon="13.653304"><ele>464.0</ele><time>2026-05-02T09:36:46.141Z</time></trkpt><trkpt lat="46.161596" lon="13.6533287"><ele>463.99999999999994</ele><time>2026-05-02T09:36:48.142Z</time></trkpt><trkpt lat="46.1616568" lon="13.6534102"><ele>464.0</ele><time>2026-05-02T09:36:50.141Z</time></trkpt><trkpt lat="46.1617281" lon="13.6534557"><ele>464.0</ele><time>2026-05-02T09:37:08.141Z</time></trkpt><trkpt lat="46.1617941" lon="13.6533887"><ele>464.0</ele><time>2026-05-02T09:37:11.141Z</time></trkpt><trkpt lat="46.1618333" lon="13.6532867"><ele>463.99999999999994</ele><time>2026-05-02T09:37:29.141Z</time></trkpt><trkpt lat="46.1619136" lon="13.6531613"><ele>464.0</ele><time>2026-05-02T09:37:31.141Z</time></trkpt><trkpt lat="46.1619735" lon="13.6531216"><ele>463.99999999999994</ele><time>2026-05-02T09:37:32.141Z</time></trkpt><trkpt lat="46.1620514" lon="13.6530869"><ele>464.0</ele><time>2026-05-02T09:37:33.141Z</time></trkpt><trkpt lat="46.162124" lon="13.6530351"><ele>464.0</ele><time>2026-05-02T09:37:34.141Z</time></trkpt><trkpt lat="46.1621842" lon="13.6529753"><ele>464.0</ele><time>2026-05-02T09:37:35.141Z</time></trkpt><trkpt lat="46.1622402" lon="13.6529185"><ele>463.99999999999994</ele><time>2026-05-02T09:37:36.141Z</time></trkpt><trkpt lat="46.1623142" lon="13.6528444"><ele>464.0</ele><time>2026-05-02T09:37:38.142Z</time></trkpt><trkpt lat="46.1623911" lon="13.6527694"><ele>464.99999999999994</ele><time>2026-05-02T09:37:40.141Z</time></trkpt><trkpt lat="46.1624465" lon="13.6526372"><ele>466.0</ele><time>2026-05-02T09:37:42.142Z</time></trkpt><trkpt lat="46.162485" lon="13.6525256"><ele>467.0</ele><time>2026-05-02T09:37:44.141Z</time></trkpt><trkpt lat="46.1625059" lon="13.6524054"><ele>468.0</ele><time>2026-05-02T09:37:47.142Z</time></trkpt><trkpt lat="46.1625205" lon="13.6523074"><ele>468.99999999999994</ele><time>2026-05-02T09:37:51.141Z</time></trkpt><trkpt lat="46.1625781" lon="13.6522368"><ele>470.0</ele><time>2026-05-02T09:38:21.14Z</time></trkpt><trkpt lat="46.1625762" lon="13.652119"><ele>470.0</ele><time>2026-05-02T09:38:23.14Z</time></trkpt><trkpt lat="46.1626067" lon="13.6520348"><ele>470.0</ele><time>2026-05-02T09:38:24.14Z</time></trkpt><trkpt lat="46.1626739" lon="13.6519751"><ele>470.0</ele><time>2026-05-02T09:38:26.14Z</time></trkpt><trkpt lat="46.1627736" lon="13.6519152"><ele>470.0</ele><time>2026-05-02T09:38:28.14Z</time></trkpt><trkpt lat="46.1628788" lon="13.6518056"><ele>470.0</ele><time>2026-05-02T09:38:30.14Z</time></trkpt><trkpt lat="46.1629535" lon="13.65167"><ele>473.99999999999994</ele><time>2026-05-02T09:38:32.14Z</time></trkpt><trkpt lat="46.1629825" lon="13.6515814"><ele>478.0</ele><time>2026-05-02T09:38:33.141Z</time></trkpt><trkpt lat="46.1630164" lon="13.6515015"><ele>482.0</ele><time>2026-05-02T09:38:34.141Z</time></trkpt><trkpt lat="46.1630532" lon="13.6514201"><ele>486.0</ele><time>2026-05-02T09:38:35.141Z</time></trkpt><trkpt lat="46.1630867" lon="13.6513355"><ele>489.99999999999994</ele><time>2026-05-02T09:38:36.141Z</time></trkpt><trkpt lat="46.1631132" lon="13.6512488"><ele>494.0</ele><time>2026-05-02T09:38:37.14Z</time></trkpt><trkpt lat="46.1631524" lon="13.6510884"><ele>493.3333333333333</ele><time>2026-05-02T09:38:39.14Z</time></trkpt><trkpt lat="46.1632031" lon="13.6509488"><ele>492.66666666666663</ele><time>2026-05-02T09:38:41.14Z</time></trkpt><trkpt lat="46.1632976" lon="13.650875"><ele>492.0</ele><time>2026-05-02T09:38:43.141Z</time></trkpt><trkpt lat="46.1633593" lon="13.6508418"><ele>491.33333333333337</ele><time>2026-05-02T09:38:44.141Z</time></trkpt><trkpt lat="46.1634236" lon="13.6508151"><ele>490.6666666666667</ele><time>2026-05-02T09:38:45.14Z</time></trkpt><trkpt lat="46.1634951" lon="13.6507759"><ele>490.0</ele><time>2026-05-02T09:38:46.14Z</time></trkpt><trkpt lat="46.1635714" lon="13.6507288"><ele>490.00000000000006</ele><time>2026-05-02T09:38:47.141Z</time></trkpt><trkpt lat="46.1636475" lon="13.6506713"><ele>490.0</ele><time>2026-05-02T09:38:48.14Z</time></trkpt><trkpt lat="46.1637219" lon="13.6506145"><ele>490.0</ele><time>2026-05-02T09:38:49.141Z</time></trkpt><trkpt lat="46.1637995" lon="13.6505595"><ele>490.0</ele><time>2026-05-02T09:38:50.141Z</time></trkpt><trkpt lat="46.1638858" lon="13.6504829"><ele>490.00000000000006</ele><time>2026-05-02T09:38:52.14Z</time></trkpt><trkpt lat="46.1639209" lon="13.6504019"><ele>490.0</ele><time>2026-05-02T09:38:54.14Z</time></trkpt><trkpt lat="46.1638237" lon="13.6503822"><ele>490.0</ele><time>2026-05-02T09:38:57.141Z</time></trkpt><trkpt lat="46.163721" lon="13.6504354"><ele>490.0</ele><time>2026-05-02T09:38:59.141Z</time></trkpt><trkpt lat="46.1636227" lon="13.6504486"><ele>490.0</ele><time>2026-05-02T09:39:01.14Z</time></trkpt><trkpt lat="46.1634854" lon="13.6504345"><ele>490.0</ele><time>2026-05-02T09:39:03.14Z</time></trkpt><trkpt lat="46.1633976" lon="13.6504235"><ele>490.0</ele><time>2026-05-02T09:39:04.14Z</time></trkpt><trkpt lat="46.1633189" lon="13.6504315"><ele>490.00000000000006</ele><time>2026-05-02T09:39:05.14Z</time></trkpt><trkpt lat="46.1632507" lon="13.6504461"><ele>490.0</ele><time>2026-05-02T09:39:06.141Z</time></trkpt><trkpt lat="46.1631829" lon="13.6504679"><ele>490.0</ele><time>2026-05-02T09:39:07.14Z</time></trkpt><trkpt lat="46.1631107" lon="13.6504901"><ele>490.0</ele><time>2026-05-02T09:39:08.141Z</time></trkpt><trkpt lat="46.1630302" lon="13.6505211"><ele>490.00000000000006</ele><time>2026-05-02T09:39:09.14Z</time></trkpt><trkpt lat="46.1629491" lon="13.6505854"><ele>490.0</ele><time>2026-05-02T09:39:10.141Z</time></trkpt><trkpt lat="46.1628713" lon="13.6506536"><ele>496.8</ele><time>2026-05-02T09:39:11.141Z</time></trkpt><trkpt lat="46.16281" lon="13.6507052"><ele>503.6</ele><time>2026-05-02T09:39:12.14Z</time></trkpt><trkpt lat="46.1627506" lon="13.6507405"><ele>510.4</ele><time>2026-05-02T09:39:13.141Z</time></trkpt><trkpt lat="46.1626459" lon="13.6507647"><ele>517.2</ele><time>2026-05-02T09:39:15.141Z</time></trkpt><trkpt lat="46.1625488" lon="13.6507698"><ele>524.0</ele><time>2026-05-02T09:39:17.14Z</time></trkpt><trkpt lat="46.1624371" lon="13.6507534"><ele>525.1666666666666</ele><time>2026-05-02T09:39:19.14Z</time></trkpt><trkpt lat="46.1623302" lon="13.650753"><ele>526.3333333333333</ele><time>2026-05-02T09:39:21.14Z</time></trkpt><trkpt lat="46.1622606" lon="13.6507586"><ele>527.5</ele><time>2026-05-02T09:39:23.141Z</time></trkpt><trkpt lat="46.1622075" lon="13.6508325"><ele>528.6666666666666</ele><time>2026-05-02T09:39:25.14Z</time></trkpt><trkpt lat="46.1621722" lon="13.6509391"><ele>529.8333333333334</ele><time>2026-05-02T09:39:27.14Z</time></trkpt><trkpt lat="46.1621214" lon="13.6510701"><ele>531.0</ele><time>2026-05-02T09:39:29.14Z</time></trkpt><trkpt lat="46.1620691" lon="13.6511608"><ele>531.0</ele><time>2026-05-02T09:39:31.141Z</time></trkpt><trkpt lat="46.1619877" lon="13.6512228"><ele>531.0</ele><time>2026-05-02T09:39:33.14Z</time></trkpt><trkpt lat="46.1618877" lon="13.6512853"><ele>531.0</ele><time>2026-05-02T09:39:35.14Z</time></trkpt><trkpt lat="46.1617857" lon="13.6513496"><ele>531.0</ele><time>2026-05-02T09:39:37.14Z</time></trkpt><trkpt lat="46.1617253" lon="13.651385"><ele>531.0</ele><time>2026-05-02T09:39:38.14Z</time></trkpt><trkpt lat="46.1616045" lon="13.6514548"><ele>531.0</ele><time>2026-05-02T09:39:40.141Z</time></trkpt><trkpt lat="46.161533" lon="13.6514885"><ele>531.0</ele><time>2026-05-02T09:39:41.14Z</time></trkpt><trkpt lat="46.1614179" lon="13.6515615"><ele>531.0</ele><time>2026-05-02T09:39:43.14Z</time></trkpt><trkpt lat="46.1613072" lon="13.6515878"><ele>531.0</ele><time>2026-05-02T09:39:45.14Z</time></trkpt><trkpt lat="46.1612244" lon="13.6515668"><ele>531.0</ele><time>2026-05-02T09:39:47.14Z</time></trkpt><trkpt lat="46.1611501" lon="13.6514804"><ele>531.6666666666666</ele><time>2026-05-02T09:39:49.141Z</time></trkpt><trkpt lat="46.1611031" lon="13.6514044"><ele>532.3333333333334</ele><time>2026-05-02T09:39:50.14Z</time></trkpt><trkpt lat="46.1610425" lon="13.6513551"><ele>533.0</ele><time>2026-05-02T09:39:51.14Z</time></trkpt><trkpt lat="46.1609675" lon="13.6512604"><ele>533.6666666666667</ele><time>2026-05-02T09:39:53.14Z</time></trkpt><trkpt lat="46.1609132" lon="13.6511667"><ele>534.3333333333334</ele><time>2026-05-02T09:39:55.14Z</time></trkpt><trkpt lat="46.1608703" lon="13.6510185"><ele>535.0</ele><time>2026-05-02T09:39:57.14Z</time></trkpt><trkpt lat="46.1607905" lon="13.6509184"><ele>539.3333333333334</ele><time>2026-05-02T09:39:59.14Z</time></trkpt><trkpt lat="46.1606802" lon="13.6508664"><ele>543.6666666666667</ele><time>2026-05-02T09:40:01.14Z</time></trkpt><trkpt lat="46.1605674" lon="13.6508107"><ele>548.0</ele><time>2026-05-02T09:40:03.141Z</time></trkpt><trkpt lat="46.1605122" lon="13.650751"><ele>552.3333333333334</ele><time>2026-05-02T09:40:04.14Z</time></trkpt><trkpt lat="46.1604534" lon="13.6506839"><ele>556.6666666666666</ele><time>2026-05-02T09:40:05.14Z</time></trkpt><trkpt lat="46.1604027" lon="13.6506273"><ele>561.0</ele><time>2026-05-02T09:40:06.141Z</time></trkpt><trkpt lat="46.1603273" lon="13.6505207"><ele>561.0</ele><time>2026-05-02T09:40:08.14Z</time></trkpt><trkpt lat="46.160267" lon="13.650372"><ele>561.0</ele><time>2026-05-02T09:40:10.14Z</time></trkpt><trkpt lat="46.1602272" lon="13.6502881"><ele>561.0</ele><time>2026-05-02T09:40:11.14Z</time></trkpt><trkpt lat="46.1427036" lon="13.6472902"><ele>528.8</ele><time>2026-05-02T09:30:59.142Z</time></trkpt><trkpt lat="46.1427659" lon="13.6473127"><ele>496.6</ele><time>2026-05-02T09:31:00.142Z</time></trkpt><trkpt lat="46.1428665" lon="13.647347"><ele>464.4</ele><time>2026-05-02T09:31:02.143Z</time></trkpt><trkpt lat="46.1429553" lon="13.6474476"><ele>432.2</ele><time>2026-05-02T09:31:04.142Z</time></trkpt><trkpt lat="46.1429589" lon="13.647577"><ele>400.0</ele><time>2026-05-02T09:31:06.143Z</time></trkpt><trkpt lat="46.1429989" lon="13.6477154"><ele>399.2</ele><time>2026-05-02T09:31:08.142Z</time></trkpt><trkpt lat="46.1430403" lon="13.6478059"><ele>398.4</ele><time>2026-05-02T09:31:09.143Z</time></trkpt><trkpt lat="46.143077" lon="13.6478918"><ele>397.6</ele><time>2026-05-02T09:31:10.143Z</time></trkpt><trkpt lat="46.1431076" lon="13.6479754"><ele>396.8</ele><time>2026-05-02T09:31:11.142Z</time></trkpt><trkpt lat="46.1431779" lon="13.6481373"><ele>396.0</ele><time>2026-05-02T09:31:13.142Z</time></trkpt><trkpt lat="46.1432601" lon="13.64824"><ele>396.0</ele><time>2026-05-02T09:31:15.142Z</time></trkpt><trkpt lat="46.1433672" lon="13.6482959"><ele>396.0</ele><time>2026-05-02T09:31:17.142Z</time></trkpt><trkpt lat="46.1434525" lon="13.6483727"><ele>396.0</ele><time>2026-05-02T09:31:19.143Z</time></trkpt><trkpt lat="46.1434658" lon="13.6485124"><ele>396.0</ele><time>2026-05-02T09:31:21.142Z</time></trkpt><trkpt lat="46.1434439" lon="13.6486688"><ele>396.0</ele><time>2026-05-02T09:31:23.142Z</time></trkpt><trkpt lat="46.143476" lon="13.6488196"><ele>394.6</ele><time>2026-05-02T09:31:25.142Z</time></trkpt><trkpt lat="46.1435686" lon="13.6489259"><ele>393.20000000000005</ele><time>2026-05-02T09:31:27.142Z</time></trkpt><trkpt lat="46.1436796" lon="13.6489873"><ele>391.79999999999995</ele><time>2026-05-02T09:31:29.143Z</time></trkpt><trkpt lat="46.143764" lon="13.6490338"><ele>390.4</ele><time>2026-05-02T09:31:30.142Z</time></trkpt><trkpt lat="46.1438441" lon="13.6490642"><ele>389.0</ele><time>2026-05-02T09:31:31.142Z</time></trkpt><trkpt lat="46.1439268" lon="13.649086"><ele>388.99999999999994</ele><time>2026-05-02T09:31:32.142Z</time></trkpt><trkpt lat="46.144009" lon="13.6490869"><ele>389.0</ele><time>2026-05-02T09:31:33.142Z</time></trkpt><trkpt lat="46.1440969" lon="13.6490906"><ele>389.0</ele><time>2026-05-02T09:31:34.142Z</time></trkpt><trkpt lat="46.1441903" lon="13.6490874"><ele>389.0</ele><time>2026-05-02T09:31:35.143Z</time></trkpt><trkpt lat="46.1442826" lon="13.6490792"><ele>388.99999999999994</ele><time>2026-05-02T09:31:36.142Z</time></trkpt><trkpt lat="46.1443667" lon="13.6490803"><ele>389.0</ele><time>2026-05-02T09:31:37.143Z</time></trkpt><trkpt lat="46.1444558" lon="13.6490982"><ele>389.99999999999994</ele><time>2026-05-02T09:31:38.142Z</time></trkpt><trkpt lat="46.1445407" lon="13.6491361"><ele>391.0</ele><time>2026-05-02T09:31:39.142Z</time></trkpt><trkpt lat="46.1446146" lon="13.6491573"><ele>392.0</ele><time>2026-05-02T09:31:40.142Z</time></trkpt><trkpt lat="46.1446873" lon="13.6491706"><ele>393.0</ele><time>2026-05-02T09:31:41.143Z</time></trkpt><trkpt lat="46.1447549" lon="13.6491939"><ele>393.99999999999994</ele><time>2026-05-02T09:31:42.142Z</time></trkpt><trkpt lat="46.144821" lon="13.6492335"><ele>395.0</ele><time>2026-05-02T09:31:43.142Z</time></trkpt><trkpt lat="46.1449223" lon="13.6493135"><ele>395.16666666666663</ele><time>2026-05-02T09:31:45.143Z</time></trkpt><trkpt lat="46.1450287" lon="13.6494066"><ele>395.3333333333333</ele><time>2026-05-02T09:31:47.142Z</time></trkpt><trkpt lat="46.1450867" lon="13.6494632"><ele>395.5</ele><time>2026-05-02T09:31:48.142Z</time></trkpt><trkpt lat="46.1451435" lon="13.6495198"><ele>395.66666666666663</ele><time>2026-05-02T09:31:49.142Z</time></trkpt><trkpt lat="46.1452121" lon="13.6495513"><ele>395.8333333333333</ele><time>2026-05-02T09:31:50.142Z</time></trkpt><trkpt lat="46.1452838" lon="13.6495702"><ele>396.0</ele><time>2026-05-02T09:31:51.142Z</time></trkpt><trkpt lat="46.1453496" lon="13.6496112"><ele>396.0</ele><time>2026-05-02T09:31:52.143Z</time></trkpt><trkpt lat="46.1454151" lon="13.6496689"><ele>396.0</ele><time>2026-05-02T09:31:53.142Z</time></trkpt><trkpt lat="46.1454856" lon="13.6497369"><ele>396.0</ele><time>2026-05-02T09:31:54.143Z</time></trkpt><trkpt lat="46.1455469" lon="13.6498052"><ele>396.0</ele><time>2026-05-02T09:31:55.142Z</time></trkpt><trkpt lat="46.1456012" lon="13.6498809"><ele>396.0</ele><time>2026-05-02T09:31:56.142Z</time></trkpt><trkpt lat="46.1456809" lon="13.6500114"><ele>396.0</ele><time>2026-05-02T09:31:58.143Z</time></trkpt><trkpt lat="46.145761" lon="13.650132"><ele>397.20000000000005</ele><time>2026-05-02T09:32:00.142Z</time></trkpt><trkpt lat="46.1458507" lon="13.6502638"><ele>398.40000000000003</ele><time>2026-05-02T09:32:02.142Z</time></trkpt><trkpt lat="46.1458974" lon="13.6503555"><ele>399.6</ele><time>2026-05-02T09:32:03.142Z</time></trkpt><trkpt lat="46.1459541" lon="13.6504319"><ele>400.8</ele><time>2026-05-02T09:32:04.142Z</time></trkpt><trkpt lat="46.1460305" lon="13.6504838"><ele>402.0</ele><time>2026-05-02T09:32:05.143Z</time></trkpt><trkpt lat="46.1461034" lon="13.6505356"><ele>402.0</ele><time>2026-05-02T09:32:06.142Z</time></trkpt><trkpt lat="46.1461732" lon="13.650587"><ele>402.0</ele><time>2026-05-02T09:32:07.142Z</time></trkpt><trkpt lat="46.1462455" lon="13.6506206"><ele>402.0</ele><time>2026-05-02T09:32:08.142Z</time></trkpt><trkpt lat="46.146303" lon="13.6506703"><ele>402.0</ele><time>2026-05-02T09:32:09.143Z</time></trkpt><trkpt lat="46.146383" lon="13.650757"><ele>402.0</ele><time>2026-05-02T09:32:11.142Z</time></trkpt><trkpt lat="46.1464326" lon="13.6509035"><ele>402.0</ele><time>2026-05-02T09:32:13.143Z</time></trkpt><trkpt lat="46.1465219" lon="13.6510212"><ele>404.40000000000003</ele><time>2026-05-02T09:32:15.143Z</time></trkpt><trkpt lat="46.1466541" lon="13.6510893"><ele>406.8</ele><time>2026-05-02T09:32:17.143Z</time></trkpt><trkpt lat="46.1467412" lon="13.6511335"><ele>409.2</ele><time>2026-05-02T09:32:18.143Z</time></trkpt><trkpt lat="46.1468317" lon="13.6511816"><ele>411.6</ele><time>2026-05-02T09:32:19.142Z</time></trkpt><trkpt lat="46.1469176" lon="13.6512213"><ele>414.0</ele><time>2026-05-02T09:32:20.142Z</time></trkpt><trkpt lat="46.1469849" lon="13.6512646"><ele>414.0</ele><time>2026-05-02T09:32:21.142Z</time></trkpt><trkpt lat="46.1470559" lon="13.6513277"><ele>414.0</ele><time>2026-05-02T09:32:22.142Z</time></trkpt><trkpt lat="46.1471395" lon="13.6514118"><ele>414.0</ele><time>2026-05-02T09:32:23.142Z</time></trkpt><trkpt lat="46.1472194" lon="13.6515092"><ele>414.0</ele><time>2026-05-02T09:32:24.142Z</time></trkpt><trkpt lat="46.1472884" lon="13.651593"><ele>414.0</ele><time>2026-05-02T09:32:25.142Z</time></trkpt><trkpt lat="46.1473482" lon="13.6516875"><ele>413.8333333333333</ele><time>2026-05-02T09:32:26.143Z</time></trkpt><trkpt lat="46.1473919" lon="13.6517667"><ele>413.66666666666663</ele><time>2026-05-02T09:32:27.142Z</time></trkpt><trkpt lat="46.1474369" lon="13.6518392"><ele>413.5</ele><time>2026-05-02T09:32:28.143Z</time></trkpt><trkpt lat="46.1475476" lon="13.6519352"><ele>413.3333333333333</ele><time>2026-05-02T09:32:30.143Z</time></trkpt><trkpt lat="46.147619" lon="13.6519768"><ele>413.16666666666663</ele><time>2026-05-02T09:32:31.142Z</time></trkpt><trkpt lat="46.147695" lon="13.652032"><ele>413.0</ele><time>2026-05-02T09:32:32.142Z</time></trkpt><trkpt lat="46.1477669" lon="13.6520991"><ele>413.0</ele><time>2026-05-02T09:32:33.142Z</time></trkpt><trkpt lat="46.1478487" lon="13.6521393"><ele>413.0</ele><time>2026-05-02T09:32:34.142Z</time></trkpt><trkpt lat="46.1479464" lon="13.6521851"><ele>413.0</ele><time>2026-05-02T09:32:35.143Z</time></trkpt><trkpt lat="46.1480435" lon="13.6522229"><ele>413.0</ele><time>2026-05-02T09:32:36.142Z</time></trkpt><trkpt lat="46.1481329" lon="13.6522651"><ele>413.0</ele><time>2026-05-02T09:32:37.142Z</time></trkpt><trkpt lat="46.1482211" lon="13.6522692"><ele>412.8333333333333</ele><time>2026-05-02T09:32:38.143Z</time></trkpt><trkpt lat="46.148314" lon="13.6522712"><ele>412.66666666666663</ele><time>2026-05-02T09:32:39.143Z</time></trkpt><trkpt lat="46.1484055" lon="13.6522565"><ele>412.5</ele><time>2026-05-02T09:32:40.142Z</time></trkpt><trkpt lat="46.1484998" lon="13.6522586"><ele>412.33333333333337</ele><time>2026-05-02T09:32:41.143Z</time></trkpt><trkpt lat="46.1485793" lon="13.6522406"><ele>412.1666666666667</ele><time>2026-05-02T09:32:42.142Z</time></trkpt><trkpt lat="46.148647" lon="13.652216"><ele>412.0</ele><time>2026-05-02T09:32:43.142Z</time></trkpt><trkpt lat="46.1487102" lon="13.6522013"><ele>412.0</ele><time>2026-05-02T09:32:44.142Z</time></trkpt><trkpt lat="46.1488102" lon="13.6521484"><ele>412.0</ele><time>2026-05-02T09:32:46.142Z</time></trkpt><trkpt lat="46.1488657" lon="13.6519658"><ele>412.0</ele><time>2026-05-02T09:32:48.143Z</time></trkpt><trkpt lat="46.1488894" lon="13.6518659"><ele>412.0</ele><time>2026-05-02T09:32:49.142Z</time></trkpt><trkpt lat="46.1489152" lon="13.6517712"><ele>412.0</ele><time>2026-05-02T09:32:50.142Z</time></trkpt><trkpt lat="46.1489607" lon="13.6516721"><ele>414.00000000000006</ele><time>2026-05-02T09:32:51.142Z</time></trkpt><trkpt lat="46.1490214" lon="13.6515812"><ele>416.0</ele><time>2026-05-02T09:32:52.142Z</time></trkpt><trkpt lat="46.1490817" lon="13.651516"><ele>418.0</ele><time>2026-05-02T09:32:53.142Z</time></trkpt><trkpt lat="46.1491314" lon="13.6514505"><ele>420.0</ele><time>2026-05-02T09:32:54.142Z</time></trkpt><trkpt lat="46.149182" lon="13.6513842"><ele>422.00000000000006</ele><time>2026-05-02T09:32:55.143Z</time></trkpt><trkpt lat="46.1492339" lon="13.6513303"><ele>424.0</ele><time>2026-05-02T09:32:56.143Z</time></trkpt><trkpt lat="46.1493376" lon="13.651266"><ele>424.0</ele><time>2026-05-02T09:32:58.142Z</time></trkpt><trkpt lat="46.1494583" lon="13.6512492"><ele>424.0</ele><time>2026-05-02T09:33:00.142Z</time></trkpt><trkpt lat="46.1495328" lon="13.6512787"><ele>424.0</ele><time>2026-05-02T09:33:02.143Z</time></trkpt><trkpt lat="46.1495416" lon="13.6513831"><ele>424.0</ele><time>2026-05-02T09:33:04.142Z</time></trkpt><trkpt lat="46.149494" lon="13.651527"><ele>424.0</ele><time>2026-05-02T09:33:06.142Z</time></trkpt><trkpt lat="46.1494507" lon="13.6516883"><ele>424.00000000000006</ele><time>2026-05-02T09:33:08.142Z</time></trkpt><trkpt lat="46.1494256" lon="13.6517744"><ele>424.0</ele><time>2026-05-02T09:33:09.142Z</time></trkpt><trkpt lat="46.1494042" lon="13.651876"><ele>424.0</ele><time>2026-05-02T09:33:10.142Z</time></trkpt><trkpt lat="46.1493797" lon="13.6520043"><ele>424.0</ele><time>2026-05-02T09:33:11.142Z</time></trkpt><trkpt lat="46.1493632" lon="13.6521175"><ele>424.00000000000006</ele><time>2026-05-02T09:33:12.142Z</time></trkpt><trkpt lat="46.1493479" lon="13.6522235"><ele>424.0</ele><time>2026-05-02T09:33:13.142Z</time></trkpt><trkpt lat="46.1493528" lon="13.6523299"><ele>421.6666666666667</ele><time>2026-05-02T09:33:14.143Z</time></trkpt><trkpt lat="46.1493666" lon="13.6524283"><ele>419.33333333333337</ele><time>2026-05-02T09:33:15.142Z</time></trkpt><trkpt lat="46.149442" lon="13.6525487"><ele>417.0</ele><time>2026-05-02T09:33:17.143Z</time></trkpt><trkpt lat="46.1495003" lon="13.6526007"><ele>414.66666666666663</ele><time>2026-05-02T09:33:18.142Z</time></trkpt><trkpt lat="46.1495772" lon="13.6526413"><ele>412.3333333333333</ele><time>2026-05-02T09:33:19.142Z</time></trkpt><trkpt lat="46.1496708" lon="13.652683"><ele>410.0</ele><time>2026-05-02T09:33:20.142Z</time></trkpt><trkpt lat="46.1497644" lon="13.652741"><ele>411.16666666666663</ele><time>2026-05-02T09:33:21.142Z</time></trkpt><trkpt lat="46.1498539" lon="13.6528065"><ele>412.3333333333333</ele><time>2026-05-02T09:33:22.142Z</time></trkpt><trkpt lat="46.1499336" lon="13.6528824"><ele>413.5</ele><time>2026-05-02T09:33:23.142Z</time></trkpt><trkpt lat="46.149998" lon="13.6529334"><ele>414.66666666666663</ele><time>2026-05-02T09:33:24.142Z</time></trkpt><trkpt lat="46.1500764" lon="13.6529827"><ele>415.8333333333333</ele><time>2026-05-02T09:33:25.143Z</time></trkpt><trkpt lat="46.1501622" lon="13.6530304"><ele>417.0</ele><time>2026-05-02T09:33:26.143Z</time></trkpt><trkpt lat="46.1502409" lon="13.653075"><ele>418.8333333333333</ele><time>2026-05-02T09:33:27.142Z</time></trkpt><trkpt lat="46.1503222" lon="13.653122"><ele>420.66666666666663</ele><time>2026-05-02T09:33:28.143Z</time></trkpt><trkpt lat="46.1504006" lon="13.6531724"><ele>422.5</ele><time>2026-05-02T09:33:29.143Z</time></trkpt><trkpt lat="46.1504732" lon="13.6532237"><ele>424.3333333333333</ele><time>2026-05-02T09:33:30.142Z</time></trkpt><trkpt lat="46.1505409" lon="13.6532573"><ele>426.16666666666663</ele><time>2026-05-02T09:33:31.143Z</time></trkpt><trkpt lat="46.150606" lon="13.6532723"><ele>428.0</ele><time>2026-05-02T09:33:32.143Z</time></trkpt><trkpt lat="46.1507243" lon="13.6533395"><ele>427.16666666666663</ele><time>2026-05-02T09:33:34.142Z</time></trkpt><trkpt lat="46.1507941" lon="13.6533997"><ele>426.3333333333333</ele><time>2026-05-02T09:33:35.142Z</time></trkpt><trkpt lat="46.150853" lon="13.6534656"><ele>425.5</ele><time>2026-05-02T09:33:36.143Z</time></trkpt><trkpt lat="46.1509799" lon="13.6535331"><ele>424.66666666666663</ele><time>2026-05-02T09:33:38.142Z</time></trkpt><trkpt lat="46.1510534" lon="13.6535703"><ele>423.8333333333333</ele><time>2026-05-02T09:33:39.142Z</time></trkpt><trkpt lat="46.1511155" lon="13.6536174"><ele>423.0</ele><time>2026-05-02T09:33:40.142Z</time></trkpt><trkpt lat="46.1511636" lon="13.6536782"><ele>423.0</ele><time>2026-05-02T09:33:41.143Z</time></trkpt><trkpt lat="46.1512561" lon="13.6537777"><ele>423.0</ele><time>2026-05-02T09:33:43.142Z</time></trkpt><trkpt lat="46.151352" lon="13.6537544"><ele>423.0</ele><time>2026-05-02T09:33:45.142Z</time></trkpt><trkpt lat="46.151473" lon="13.6537324"><ele>423.0</ele><time>2026-05-02T09:33:47.142Z</time></trkpt><trkpt lat="46.1515911" lon="13.653762"><ele>424.0</ele><time>2026-05-02T09:33:49.142Z</time></trkpt><trkpt lat="46.1516269" lon="13.6539065"><ele>425.0</ele><time>2026-05-02T09:33:51.143Z</time></trkpt><trkpt lat="46.151675" lon="13.6540359"><ele>425.99999999999994</ele><time>2026-05-02T09:33:53.142Z</time></trkpt><trkpt lat="46.1517549" lon="13.6541019"><ele>427.0</ele><time>2026-05-02T09:33:55.142Z</time></trkpt><trkpt lat="46.1518787" lon="13.6541274"><ele>428.0</ele><time>2026-05-02T09:33:57.142Z</time></trkpt><trkpt lat="46.1519916" lon="13.6540965"><ele>428.00000000000006</ele><time>2026-05-02T09:33:59.142Z</time></trkpt><trkpt lat="46.1520489" lon="13.6540538"><ele>428.0</ele><time>2026-05-02T09:34:00.142Z</time></trkpt><trkpt lat="46.1521075" lon="13.6540151"><ele>428.0</ele><time>2026-05-02T09:34:01.142Z</time></trkpt><trkpt lat="46.1521708" lon="13.6540067"><ele>428.0</ele><time>2026-05-02T09:34:02.142Z</time></trkpt><trkpt lat="46.1522422" lon="13.6540197"><ele>428.0</ele><time>2026-05-02T09:34:03.142Z</time></trkpt><trkpt lat="46.152318" lon="13.6540248"><ele>428.00000000000006</ele><time>2026-05-02T09:34:04.142Z</time></trkpt><trkpt lat="46.1524134" lon="13.6540121"><ele>428.0</ele><time>2026-05-02T09:34:05.143Z</time></trkpt><trkpt lat="46.1525065" lon="13.654"><ele>429.49999999999994</ele><time>2026-05-02T09:34:06.142Z</time></trkpt><trkpt lat="46.152587" lon="13.653983"><ele>431.0</ele><time>2026-05-02T09:34:07.143Z</time></trkpt><trkpt lat="46.1526582" lon="13.6539553"><ele>432.5</ele><time>2026-05-02T09:34:08.143Z</time></trkpt><trkpt lat="46.152746" lon="13.6539346"><ele>434.0</ele><time>2026-05-02T09:34:09.143Z</time></trkpt><trkpt lat="46.1528483" lon="13.6539372"><ele>435.49999999999994</ele><time>2026-05-02T09:34:10.143Z</time></trkpt><trkpt lat="46.1529319" lon="13.6539499"><ele>437.0</ele><time>2026-05-02T09:34:11.142Z</time></trkpt><trkpt lat="46.152997" lon="13.6539529"><ele>437.0</ele><time>2026-05-02T09:34:12.143Z</time></trkpt><trkpt lat="46.1531234" lon="13.6539205"><ele>437.00000000000006</ele><time>2026-05-02T09:34:14.141Z</time></trkpt><trkpt lat="46.1531927" lon="13.6538494"><ele>437.00000000000006</ele><time>2026-05-02T09:34:15.141Z</time></trkpt><trkpt lat="46.1532765" lon="13.6537706"><ele>437.0</ele><time>2026-05-02T09:34:16.141Z</time></trkpt><trkpt lat="46.1533678" lon="13.6536737"><ele>437.0</ele><time>2026-05-02T09:34:17.142Z</time></trkpt><trkpt lat="46.1534384" lon="13.6536048"><ele>437.8</ele><time>2026-05-02T09:34:18.141Z</time></trkpt><trkpt lat="46.1535409" lon="13.6535594"><ele>438.6</ele><time>2026-05-02T09:34:20.141Z</time></trkpt><trkpt lat="46.1536222" lon="13.6536334"><ele>439.40000000000003</ele><time>2026-05-02T09:34:22.142Z</time></trkpt><trkpt lat="46.1536732" lon="13.6538183"><ele>440.20000000000005</ele><time>2026-05-02T09:34:24.141Z</time></trkpt><trkpt lat="46.1536989" lon="13.6539139"><ele>441.0</ele><time>2026-05-02T09:34:25.142Z</time></trkpt><trkpt lat="46.153764" lon="13.6540022"><ele>441.0</ele><time>2026-05-02T09:34:27.142Z</time></trkpt><trkpt lat="46.153886" lon="13.654026"><ele>441.0</ele><time>2026-05-02T09:34:29.141Z</time></trkpt><trkpt lat="46.1539927" lon="13.6540427"><ele>441.0</ele><time>2026-05-02T09:34:30.141Z</time></trkpt><trkpt lat="46.1540968" lon="13.6540558"><ele>441.0</ele><time>2026-05-02T09:34:31.141Z</time></trkpt><trkpt lat="46.1541789" lon="13.6540689"><ele>441.0</ele><time>2026-05-02T09:34:32.142Z</time></trkpt><trkpt lat="46.1542523" lon="13.6540936"><ele>442.6</ele><time>2026-05-02T09:34:33.141Z</time></trkpt><trkpt lat="46.1543263" lon="13.6541334"><ele>444.20000000000005</ele><time>2026-05-02T09:34:34.141Z</time></trkpt><trkpt lat="46.1543961" lon="13.6541649"><ele>445.79999999999995</ele><time>2026-05-02T09:34:35.141Z</time></trkpt><trkpt lat="46.1545237" lon="13.6542129"><ele>447.4</ele><time>2026-05-02T09:34:37.141Z</time></trkpt><trkpt lat="46.1546127" lon="13.6542626"><ele>449.0</ele><time>2026-05-02T09:34:38.141Z</time></trkpt><trkpt lat="46.1546951" lon="13.6543244"><ele>449.0</ele><time>2026-05-02T09:34:39.141Z</time></trkpt><trkpt lat="46.154781" lon="13.6543962"><ele>449.0</ele><time>2026-05-02T09:34:40.142Z</time></trkpt><trkpt lat="46.1548697" lon="13.6544819"><ele>449.0</ele><time>2026-05-02T09:34:41.141Z</time></trkpt><trkpt lat="46.1549451" lon="13.6545736"><ele>449.0</ele><time>2026-05-02T09:34:42.141Z</time></trkpt><trkpt lat="46.1550092" lon="13.6546559"><ele>449.0</ele><time>2026-05-02T09:34:43.142Z</time></trkpt><trkpt lat="46.1550775" lon="13.654727"><ele>446.49999999999994</ele><time>2026-05-02T09:34:44.142Z</time></trkpt><trkpt lat="46.1551406" lon="13.6547777"><ele>444.0</ele><time>2026-05-02T09:34:45.141Z</time></trkpt><trkpt lat="46.1552058" lon="13.6548187"><ele>441.5</ele><time>2026-05-02T09:34:46.141Z</time></trkpt><trkpt lat="46.1552709" lon="13.6548448"><ele>439.0</ele><time>2026-05-02T09:34:47.141Z</time></trkpt><trkpt lat="46.1553629" lon="13.6548417"><ele>436.49999999999994</ele><time>2026-05-02T09:34:49.141Z</time></trkpt><trkpt lat="46.1554503" lon="13.6547585"><ele>434.0</ele><time>2026-05-02T09:34:51.142Z</time></trkpt><trkpt lat="46.1554942" lon="13.6546223"><ele>434.0</ele><time>2026-05-02T09:34:53.141Z</time></trkpt><trkpt lat="46.1555502" lon="13.654541"><ele>434.0</ele><time>2026-05-02T09:34:55.141Z</time></trkpt><trkpt lat="46.1556353" lon="13.6546487"><ele>434.0</ele><time>2026-05-02T09:34:58.142Z</time></trkpt><trkpt lat="46.1556621" lon="13.65474"><ele>434.0</ele><time>2026-05-02T09:34:59.141Z</time></trkpt><trkpt lat="46.1557346" lon="13.6548589"><ele>434.0</ele><time>2026-05-02T09:35:01.141Z</time></trkpt><trkpt lat="46.1558277" lon="13.6548638"><ele>434.8333333333333</ele><time>2026-05-02T09:35:03.141Z</time></trkpt><trkpt lat="46.1559053" lon="13.6548233"><ele>435.66666666666663</ele><time>2026-05-02T09:35:05.141Z</time></trkpt><trkpt lat="46.1560002" lon="13.6547726"><ele>436.5</ele><time>2026-05-02T09:35:07.141Z</time></trkpt><trkpt lat="46.1561024" lon="13.6546875"><ele>437.33333333333337</ele><time>2026-05-02T09:35:09.141Z</time></trkpt><trkpt lat="46.1561551" lon="13.6546239"><ele>438.1666666666667</ele><time>2026-05-02T09:35:10.142Z</time></trkpt><trkpt lat="46.1562165" lon="13.6545576"><ele>439.0</ele><time>2026-05-02T09:35:11.142Z</time></trkpt><trkpt lat="46.1562882" lon="13.6544818"><ele>443.00000000000006</ele><time>2026-05-02T09:35:12.142Z</time></trkpt><trkpt lat="46.1563641" lon="13.654413"><ele>447.0</ele><time>2026-05-02T09:35:13.141Z</time></trkpt><trkpt lat="46.1564398" lon="13.6543338"><ele>451.0</ele><time>2026-05-02T09:35:14.141Z</time></trkpt><trkpt lat="46.1565085" lon="13.654268"><ele>455.0</ele><time>2026-05-02T09:35:15.142Z</time></trkpt><trkpt lat="46.1565728" lon="13.6541898"><ele>459.00000000000006</ele><time>2026-05-02T09:35:16.141Z</time></trkpt><trkpt lat="46.1566255" lon="13.65414"><ele>463.0</ele><time>2026-05-02T09:35:17.141Z</time></trkpt><trkpt lat="46.1567237" lon="13.6540779"><ele>463.0</ele><time>2026-05-02T09:35:19.142Z</time></trkpt><trkpt lat="46.1568476" lon="13.6540729"><ele>462.99999999999994</ele><time>2026-05-02T09:35:21.141Z</time></trkpt><trkpt lat="46.1569339" lon="13.6540583"><ele>462.99999999999994</ele><time>2026-05-02T09:35:22.141Z</time></trkpt><trkpt lat="46.157054" lon="13.6540089"><ele>463.0</ele><time>2026-05-02T09:35:23.141Z</time></trkpt><trkpt lat="46.1571582" lon="13.6539727"><ele>463.0</ele><time>2026-05-02T09:35:24.141Z</time></trkpt><trkpt lat="46.1572394" lon="13.6539356"><ele>463.00000000000006</ele><time>2026-05-02T09:35:25.141Z</time></trkpt><trkpt lat="46.1573053" lon="13.6538796"><ele>463.0</ele><time>2026-05-02T09:35:26.141Z</time></trkpt><trkpt lat="46.1573699" lon="13.6538263"><ele>463.0</ele><time>2026-05-02T09:35:27.141Z</time></trkpt><trkpt lat="46.1574386" lon="13.6537768"><ele>463.0</ele><time>2026-05-02T09:35:28.141Z</time></trkpt><trkpt lat="46.1575167" lon="13.6537344"><ele>463.00000000000006</ele><time>2026-05-02T09:35:29.141Z</time></trkpt><trkpt lat="46.1575993" lon="13.6536642"><ele>463.0</ele><time>2026-05-02T09:35:30.141Z</time></trkpt><trkpt lat="46.1576774" lon="13.6536044"><ele>467.4</ele><time>2026-05-02T09:35:31.142Z</time></trkpt><trkpt lat="46.1577548" lon="13.6535452"><ele>471.79999999999995</ele><time>2026-05-02T09:35:32.141Z</time></trkpt><trkpt lat="46.1578357" lon="13.6534865"><ele>476.2</ele><time>2026-05-02T09:35:33.141Z</time></trkpt><trkpt lat="46.1579134" lon="13.6534355"><ele>480.6</ele><time>2026-05-02T09:35:34.141Z</time></trkpt><trkpt lat="46.1579915" lon="13.6533736"><ele>485.0</ele><time>2026-05-02T09:35:35.141Z</time></trkpt><trkpt lat="46.1580838" lon="13.6533273"><ele>485.0</ele><time>2026-05-02T09:35:37.141Z</time></trkpt><trkpt lat="46.1581678" lon="13.6532747"><ele>485.0</ele><time>2026-05-02T09:35:39.142Z</time></trkpt><trkpt lat="46.1582394" lon="13.65323"><ele>485.0</ele><time>2026-05-02T09:35:41.142Z</time></trkpt><trkpt lat="46.1583123" lon="13.6531304"><ele>485.0</ele><time>2026-05-02T09:35:43.142Z</time></trkpt><trkpt lat="46.1583729" lon="13.6530108"><ele>485.0</ele><time>2026-05-02T09:35:45.142Z</time></trkpt><trkpt lat="46.1584098" lon="13.6528911"><ele>483.4</ele><time>2026-05-02T09:35:47.141Z</time></trkpt><trkpt lat="46.1583984" lon="13.6527178"><ele>481.8</ele><time>2026-05-02T09:35:49.141Z</time></trkpt><trkpt lat="46.1584132" lon="13.6525831"><ele>480.20000000000005</ele><time>2026-05-02T09:35:51.142Z</time></trkpt><trkpt lat="46.1584859" lon="13.6525395"><ele>478.6</ele><time>2026-05-02T09:35:54.142Z</time></trkpt><trkpt lat="46.1585479" lon="13.6525987"><ele>477.0</ele><time>2026-05-02T09:35:56.141Z</time></trkpt><trkpt lat="46.1586387" lon="13.6527461"><ele>473.6666666666667</ele><time>2026-05-02T09:35:58.142Z</time></trkpt><trkpt lat="46.1586688" lon="13.6528265"><ele>470.33333333333337</ele><time>2026-05-02T09:35:59.141Z</time></trkpt><trkpt lat="46.1587243" lon="13.6529688"><ele>467.0</ele><time>2026-05-02T09:36:01.141Z</time></trkpt><trkpt lat="46.1587762" lon="13.6530528"><ele>463.6666666666667</ele><time>2026-05-02T09:36:03.142Z</time></trkpt><trkpt lat="46.1588712" lon="13.6531075"><ele>460.33333333333337</ele><time>2026-05-02T09:36:05.142Z</time></trkpt><trkpt lat="46.1589502" lon="13.6531223"><ele>457.0</ele><time>2026-05-02T09:36:06.142Z</time></trkpt><trkpt lat="46.1590179" lon="13.6531227"><ele>456.4285714285715</ele><time>2026-05-02T09:36:07.142Z</time></trkpt><trkpt lat="46.159098" lon="13.6531998"><ele>455.8571428571429</ele><time>2026-05-02T09:36:09.142Z</time></trkpt><trkpt lat="46.1591517" lon="13.6532712"><ele>455.2857142857143</ele><time>2026-05-02T09:36:10.141Z</time></trkpt><trkpt lat="46.1592066" lon="13.6533397"><ele>454.7142857142857</ele><time>2026-05-02T09:36:11.141Z</time></trkpt><trkpt lat="46.1592597" lon="13.6534098"><ele>454.1428571428571</ele><time>2026-05-02T09:36:12.141Z</time></trkpt><trkpt lat="46.1593134" lon="13.6534602"><ele>453.5714285714285</ele><time>2026-05-02T09:36:13.141Z</time></trkpt><trkpt lat="46.1593719" lon="13.6535097"><ele>452.99999999999994</ele><time>2026-05-02T09:36:14.141Z</time></trkpt><trkpt lat="46.1594417" lon="13.6535464"><ele>453.0</ele><time>2026-05-02T09:36:15.141Z</time></trkpt><trkpt lat="46.1595178" lon="13.6535619"><ele>453.0</ele><time>2026-05-02T09:36:16.142Z</time></trkpt><trkpt lat="46.1595995" lon="13.6535774"><ele>453.0</ele><time>2026-05-02T09:36:17.141Z</time></trkpt><trkpt lat="46.15968" lon="13.6535851"><ele>453.0</ele><time>2026-05-02T09:36:18.142Z</time></trkpt><trkpt lat="46.1597765" lon="13.6535732"><ele>453.0</ele><time>2026-05-02T09:36:19.142Z</time></trkpt><trkpt lat="46.1598795" lon="13.6535554"><ele>453.0</ele><time>2026-05-02T09:36:20.141Z</time></trkpt><trkpt lat="46.1600014" lon="13.6535147"><ele>453.75</ele><time>2026-05-02T09:36:21.142Z</time></trkpt><trkpt lat="46.1601387" lon="13.6534744"><ele>454.5</ele><time>2026-05-02T09:36:22.141Z</time></trkpt><trkpt lat="46.1602673" lon="13.6534385"><ele>455.25</ele><time>2026-05-02T09:36:23.142Z</time></trkpt><trkpt lat="46.1603791" lon="13.6534122"><ele>456.0</ele><time>2026-05-02T09:36:24.141Z</time></trkpt><trkpt lat="46.1604692" lon="13.6533936"><ele>456.0</ele><time>2026-05-02T09:36:25.141Z</time></trkpt><trkpt lat="46.1605542" lon="13.6533664"><ele>456.0</ele><time>2026-05-02T09:36:26.141Z</time></trkpt><trkpt lat="46.1606418" lon="13.653352"><ele>456.0</ele><time>2026-05-02T09:36:27.142Z</time></trkpt><trkpt lat="46.1607191" lon="13.6533178"><ele>456.0</ele><time>2026-05-02T09:36:28.141Z</time></trkpt><trkpt lat="46.1608339" lon="13.653334"><ele>456.0</ele><time>2026-05-02T09:36:30.141Z</time></trkpt><trkpt lat="46.1609015" lon="13.6533589"><ele>456.0</ele><time>2026-05-02T09:36:31.142Z</time></trkpt><trkpt lat="46.1610159" lon="13.6534014"><ele>457.3333333333333</ele><time>2026-05-02T09:36:33.141Z</time></trkpt><trkpt lat="46.1611242" lon="13.6534179"><ele>458.66666666666663</ele><time>2026-05-02T09:36:35.142Z</time></trkpt><trkpt lat="46.1612179" lon="13.653431"><ele>460.0</ele><time>2026-05-02T09:36:37.141Z</time></trkpt><trkpt lat="46.1613038" lon="13.6534385"><ele>461.3333333333333</ele><time>2026-05-02T09:36:39.141Z</time></trkpt><trkpt lat="46.1613781" lon="13.6534011"><ele>462.66666666666663</ele><time>2026-05-02T09:36:41.142Z</time></trkpt><trkpt lat="46.1614505" lon="13.6533502"><ele>464.0</ele><time>2026-05-02T09:36:43.141Z</time></trkpt><trkpt lat="46.1615317" lon="13.653304"><ele>463.99999999999994</ele><time>2026-05-02T09:36:46.141Z</time></trkpt><trkpt lat="46.161596" lon="13.6533287"><ele>464.0</ele><time>2026-05-02T09:36:48.142Z</time></trkpt><trkpt lat="46.1616568" lon="13.6534102"><ele>464.0</ele><time>2026-05-02T09:36:50.141Z</time></trkpt><trkpt lat="46.1617281" lon="13.6534557"><ele>464.0</ele><time>2026-05-02T09:37:08.141Z</time></trkpt><trkpt lat="46.1617941" lon="13.6533887"><ele>463.99999999999994</ele><time>2026-05-02T09:37:11.141Z</time></trkpt><trkpt lat="46.1618333" lon="13.6532867"><ele>464.0</ele><time>2026-05-02T09:37:29.141Z</time></trkpt><trkpt lat="46.1619136" lon="13.6531613"><ele>463.99999999999994</ele><time>2026-05-02T09:37:31.141Z</time></trkpt><trkpt lat="46.1619735" lon="13.6531216"><ele>464.0</ele><time>2026-05-02T09:37:32.141Z</time></trkpt><trkpt lat="46.1620514" lon="13.6530869"><ele>464.0</ele><time>2026-05-02T09:37:33.141Z</time></trkpt><trkpt lat="46.162124" lon="13.6530351"><ele>464.0</ele><time>2026-05-02T09:37:34.141Z</time></trkpt><trkpt lat="46.1621842" lon="13.6529753"><ele>463.99999999999994</ele><time>2026-05-02T09:37:35.141Z</time></trkpt><trkpt lat="46.1622402" lon="13.6529185"><ele>464.0</ele><time>2026-05-02T09:37:36.141Z</time></trkpt><trkpt lat="46.1623142" lon="13.6528444"><ele>464.99999999999994</ele><time>2026-05-02T09:37:38.142Z</time></trkpt><trkpt lat="46.1623911" lon="13.6527694"><ele>466.0</ele><time>2026-05-02T09:37:40.141Z</time></trkpt><trkpt lat="46.1624465" lon="13.6526372"><ele>467.0</ele><time>2026-05-02T09:37:42.142Z</time></trkpt><trkpt lat="46.162485" lon="13.6525256"><ele>468.0</ele><time>2026-05-02T09:37:44.141Z</time></trkpt><trkpt lat="46.1625059" lon="13.6524054"><ele>468.99999999999994</ele><time>2026-05-02T09:37:47.142Z</time></trkpt><trkpt lat="46.1625205" lon="13.6523074"><ele>470.0</ele><time>2026-05-02T09:37:51.141Z</time></trkpt><trkpt lat="46.1625781" lon="13.6522368"><ele>470.0</ele><time>2026-05-02T09:38:21.14Z</time></trkpt><trkpt lat="46.1625762" lon="13.652119"><ele>470.0</ele><time>2026-05-02T09:38:23.14Z</time></trkpt><trkpt lat="46.1626067" lon="13.6520348"><ele>470.0</ele><time>2026-05-02T09:38:24.14Z</time></trkpt><trkpt lat="46.1626739" lon="13.6519751"><ele>470.0</ele><time>2026-05-02T09:38:26.14Z</time></trkpt><trkpt lat="46.1627736" lon="13.6519152"><ele>470.0</ele><time>2026-05-02T09:38:28.14Z</time></trkpt><trkpt lat="46.1628788" lon="13.6518056"><ele>473.99999999999994</ele><time>2026-05-02T09:38:30.14Z</time></trkpt><trkpt lat="46.1629535" lon="13.65167"><ele>478.0</ele><time>2026-05-02T09:38:32.14Z</time></trkpt><trkpt lat="46.1629825" lon="13.6515814"><ele>482.0</ele><time>2026-05-02T09:38:33.141Z</time></trkpt><trkpt lat="46.1630164" lon="13.6515015"><ele>486.0</ele><time>2026-05-02T09:38:34.141Z</time></trkpt><trkpt lat="46.1630532" lon="13.6514201"><ele>489.99999999999994</ele><time>2026-05-02T09:38:35.141Z</time></trkpt><trkpt lat="46.1630867" lon="13.6513355"><ele>494.0</ele><time>2026-05-02T09:38:36.141Z</time></trkpt><trkpt lat="46.1631132" lon="13.6512488"><ele>493.2</ele><time>2026-05-02T09:38:37.14Z</time></trkpt><trkpt lat="46.1631524" lon="13.6510884"><ele>492.4</ele><time>2026-05-02T09:38:39.14Z</time></trkpt><trkpt lat="46.1632031" lon="13.6509488"><ele>491.6</ele><time>2026-05-02T09:38:41.14Z</time></trkpt><trkpt lat="46.1632976" lon="13.650875"><ele>490.8</ele><time>2026-05-02T09:38:43.141Z</time></trkpt><trkpt lat="46.1633593" lon="13.6508418"><ele>490.0</ele><time>2026-05-02T09:38:44.141Z</time></trkpt><trkpt lat="46.1634236" lon="13.6508151"><ele>490.00000000000006</ele><time>2026-05-02T09:38:45.14Z</time></trkpt><trkpt lat="46.1634951" lon="13.6507759"><ele>490.0</ele><time>2026-05-02T09:38:46.14Z</time></trkpt><trkpt lat="46.1635714" lon="13.6507288"><ele>490.0</ele><time>2026-05-02T09:38:47.141Z</time></trkpt><trkpt lat="46.1636475" lon="13.6506713"><ele>490.0</ele><time>2026-05-02T09:38:48.14Z</time></trkpt><trkpt lat="46.1637219" lon="13.6506145"><ele>490.00000000000006</ele><time>2026-05-02T09:38:49.141Z</time></trkpt><trkpt lat="46.1637995" lon="13.6505595"><ele>490.0</ele><time>2026-05-02T09:38:50.141Z</time></trkpt><trkpt lat="46.1638858" lon="13.6504829"><ele>490.0</ele><time>2026-05-02T09:38:52.14Z</time></trkpt><trkpt lat="46.1639209" lon="13.6504019"><ele>490.0</ele><time>2026-05-02T09:38:54.14Z</time></trkpt><trkpt lat="46.1638237" lon="13.6503822"><ele>490.0</ele><time>2026-05-02T09:38:57.141Z</time></trkpt><trkpt lat="46.163721" lon="13.6504354"><ele>490.0</ele><time>2026-05-02T09:38:59.141Z</time></trkpt><trkpt lat="46.1636227" lon="13.6504486"><ele>490.0</ele><time>2026-05-02T09:39:01.14Z</time></trkpt><trkpt lat="46.1634854" lon="13.6504345"><ele>490.00000000000006</ele><time>2026-05-02T09:39:03.14Z</time></trkpt><trkpt lat="46.1633976" lon="13.6504235"><ele>490.0</ele><time>2026-05-02T09:39:04.14Z</time></trkpt><trkpt lat="46.1633189" lon="13.6504315"><ele>490.0</ele><time>2026-05-02T09:39:05.14Z</time></trkpt><trkpt lat="46.1632507" lon="13.6504461"><ele>490.0</ele><time>2026-05-02T09:39:06.141Z</time></trkpt><trkpt lat="46.1631829" lon="13.6504679"><ele>490.00000000000006</ele><time>2026-05-02T09:39:07.14Z</time></trkpt><trkpt lat="46.1631107" lon="13.6504901"><ele>490.0</ele><time>2026-05-02T09:39:08.141Z</time></trkpt><trkpt lat="46.1630302" lon="13.6505211"><ele>495.6666666666667</ele><time>2026-05-02T09:39:09.14Z</time></trkpt><trkpt lat="46.1629491" lon="13.6505854"><ele>501.33333333333337</ele><time>2026-05-02T09:39:10.141Z</time></trkpt><trkpt lat="46.1628713" lon="13.6506536"><ele>507.0</ele><time>2026-05-02T09:39:11.141Z</time></trkpt><trkpt lat="46.16281" lon="13.6507052"><ele>512.6666666666666</ele><time>2026-05-02T09:39:12.14Z</time></trkpt><trkpt lat="46.1627506" lon="13.6507405"><ele>518.3333333333333</ele><time>2026-05-02T09:39:13.141Z</time></trkpt><trkpt lat="46.1626459" lon="13.6507647"><ele>524.0</ele><time>2026-05-02T09:39:15.141Z</time></trkpt><trkpt lat="46.1625488" lon="13.6507698"><ele>524.0</ele><time>2026-05-02T09:39:17.14Z</time></trkpt><trkpt lat="46.1624371" lon="13.6507534"><ele>524.0</ele><time>2026-05-02T09:39:19.14Z</time></trkpt><trkpt lat="46.1623302" lon="13.650753"><ele>524.0</ele><time>2026-05-02T09:39:21.14Z</time></trkpt><trkpt lat="46.1622606" lon="13.6507586"><ele>524.0</ele><time>2026-05-02T09:39:23.141Z</time></trkpt><trkpt lat="46.1622075" lon="13.6508325"><ele>524.0</ele><time>2026-05-02T09:39:25.14Z</time></trkpt><trkpt lat="46.1621722" lon="13.6509391"><ele>524.0</ele><time>2026-05-02T09:39:27.14Z</time></trkpt><trkpt lat="46.1621214" lon="13.6510701"><ele>525.4</ele><time>2026-05-02T09:39:29.14Z</time></trkpt><trkpt lat="46.1620691" lon="13.6511608"><ele>526.8</ele><time>2026-05-02T09:39:31.141Z</time></trkpt><trkpt lat="46.1619877" lon="13.6512228"><ele>528.2</ele><time>2026-05-02T09:39:33.14Z</time></trkpt><trkpt lat="46.1618877" lon="13.6512853"><ele>529.6</ele><time>2026-05-02T09:39:35.14Z</time></trkpt><trkpt lat="46.1617857" lon="13.6513496"><ele>531.0</ele><time>2026-05-02T09:39:37.14Z</time></trkpt><trkpt lat="46.1617253" lon="13.651385"><ele>531.0</ele><time>2026-05-02T09:39:38.14Z</time></trkpt><trkpt lat="46.1616045" lon="13.6514548"><ele>531.0</ele><time>2026-05-02T09:39:40.141Z</time></trkpt><trkpt lat="46.161533" lon="13.6514885"><ele>531.0</ele><time>2026-05-02T09:39:41.14Z</time></trkpt><trkpt lat="46.1614179" lon="13.6515615"><ele>531.0</ele><time>2026-05-02T09:39:43.14Z</time></trkpt><trkpt lat="46.1613072" lon="13.6515878"><ele>531.0</ele><time>2026-05-02T09:39:45.14Z</time></trkpt><trkpt lat="46.1612244" lon="13.6515668"><ele>531.6666666666666</ele><time>2026-05-02T09:39:47.14Z</time></trkpt><trkpt lat="46.1611501" lon="13.6514804"><ele>532.3333333333334</ele><time>2026-05-02T09:39:49.141Z</time></trkpt><trkpt lat="46.1611031" lon="13.6514044"><ele>533.0</ele><time>2026-05-02T09:39:50.14Z</time></trkpt><trkpt lat="46.1610425" lon="13.6513551"><ele>533.6666666666667</ele><time>2026-05-02T09:39:51.14Z</time></trkpt><trkpt lat="46.1609675" lon="13.6512604"><ele>534.3333333333334</ele><time>2026-05-02T09:39:53.14Z</time></trkpt><trkpt lat="46.1609132" lon="13.6511667"><ele>535.0</ele><time>2026-05-02T09:39:55.14Z</time></trkpt><trkpt lat="46.1608703" lon="13.6510185"><ele>540.2</ele><time>2026-05-02T09:39:57.14Z</time></trkpt><trkpt lat="46.1607905" lon="13.6509184"><ele>545.4</ele><time>2026-05-02T09:39:59.14Z</time></trkpt><trkpt lat="46.1606802" lon="13.6508664"><ele>550.6</ele><time>2026-05-02T09:40:01.14Z</time></trkpt><trkpt lat="46.1605674" lon="13.6508107"><ele>555.8</ele><time>2026-05-02T09:40:03.141Z</time></trkpt><trkpt lat="46.1605122" lon="13.650751"><ele>561.0</ele><time>2026-05-02T09:40:04.14Z</time></trkpt><trkpt lat="46.1604534" lon="13.6506839"><ele>561.0</ele><time>2026-05-02T09:40:05.14Z</time></trkpt><trkpt lat="46.1604027" lon="13.6506273"><ele>561.0</ele><time>2026-05-02T09:40:06.141Z</time></trkpt><trkpt lat="46.1603273" lon="13.6505207"><ele>561.0</ele><time>2026-05-02T09:40:08.14Z</time></trkpt><trkpt lat="46.160267" lon="13.650372"><ele>561.0</ele><time>2026-05-02T09:40:10.14Z</time></trkpt><trkpt lat="46.1602272" lon="13.6502881"><ele>561.0</ele><time>2026-05-02T09:40:11.14Z</time></trkpt><trkpt lat="46.1601595" lon="13.6502041"><ele>561.0</ele><time>2026-05-02T09:40:13.14Z</time></trkpt><trkpt lat="46.1600957" lon="13.6501918"><ele>561.0</ele><time>2026-05-02T09:40:15.14Z</time></trkpt><trkpt lat="46.1600186" lon="13.650248"><ele>561.0</ele><time>2026-05-02T09:40:17.141Z</time></trkpt><trkpt lat="46.1599094" lon="13.6503285"><ele>561.0</ele><time>2026-05-02T09:40:19.14Z</time></trkpt><trkpt lat="46.1598396" lon="13.6503813"><ele>561.0</ele><time>2026-05-02T09:40:20.14Z</time></trkpt><trkpt lat="46.1597493" lon="13.6504599"><ele>561.0</ele><time>2026-05-02T09:40:21.141Z</time></trkpt><trkpt lat="46.1596435" lon="13.6505456"><ele>558.4</ele><time>2026-05-02T09:40:22.14Z</time></trkpt><trkpt lat="46.159548" lon="13.6506263"><ele>555.8</ele><time>2026-05-02T09:40:23.141Z</time></trkpt><trkpt lat="46.1594644" lon="13.6506889"><ele>553.1999999999999</ele><time>2026-05-02T09:40:24.14Z</time></trkpt><trkpt lat="46.1594033" lon="13.6507217"><ele>550.6</ele><time>2026-05-02T09:40:25.14Z</time></trkpt><trkpt lat="46.1593011" lon="13.6507499"><ele>548.0</ele><time>2026-05-02T09:40:27.14Z</time></trkpt><trkpt lat="46.1592086" lon="13.6506867"><ele>548.0</ele><time>2026-05-02T09:40:29.141Z</time></trkpt><trkpt lat="46.1591448" lon="13.6505969"><ele>548.0</ele><time>2026-05-02T09:40:31.141Z</time></trkpt><trkpt lat="46.1591349" lon="13.6504308"><ele>548.0</ele><time>2026-05-02T09:40:33.14Z</time></trkpt><trkpt lat="46.1591375" lon="13.6502651"><ele>548.0</ele><time>2026-05-02T09:40:35.14Z</time></trkpt><trkpt lat="46.1590468" lon="13.6501296"><ele>547.1999999999999</ele><time>2026-05-02T09:40:37.14Z</time></trkpt><trkpt lat="46.1589753" lon="13.650046"><ele>546.4</ele><time>2026-05-02T09:40:38.141Z</time></trkpt><trkpt lat="46.1589174" lon="13.6499676"><ele>545.5999999999999</ele><time>2026-05-02T09:40:39.14Z</time></trkpt><trkpt lat="46.1588479" lon="13.6498274"><ele>544.8</ele><time>2026-05-02T09:40:41.14Z</time></trkpt><trkpt lat="46.1588262" lon="13.6496471"><ele>544.0</ele><time>2026-05-02T09:40:43.141Z</time></trkpt><trkpt lat="46.1588155" lon="13.6495327"><ele>548.0</ele><time>2026-05-02T09:40:44.14Z</time></trkpt><trkpt lat="46.1587883" lon="13.6494497"><ele>552.0</ele><time>2026-05-02T09:40:45.14Z</time></trkpt><trkpt lat="46.158742" lon="13.6493174"><ele>556.0</ele><time>2026-05-02T09:40:47.14Z</time></trkpt><trkpt lat="46.1587053" lon="13.6492215"><ele>560.0</ele><time>2026-05-02T09:40:48.141Z</time></trkpt><trkpt lat="46.1587143" lon="13.6491254"><ele>564.0</ele><time>2026-05-02T09:40:49.14Z</time></trkpt><trkpt lat="46.1587443" lon="13.6490398"><ele>568.0</ele><time>2026-05-02T09:40:50.14Z</time></trkpt><trkpt lat="46.1587732" lon="13.6489078"><ele>568.0</ele><time>2026-05-02T09:40:52.141Z</time></trkpt><trkpt lat="46.1587253" lon="13.6487777"><ele>568.0</ele><time>2026-05-02T09:40:54.14Z</time></trkpt><trkpt lat="46.1586381" lon="13.6486734"><ele>568.0</ele><time>2026-05-02T09:40:56.14Z</time></trkpt><trkpt lat="46.1585427" lon="13.6485803"><ele>568.0</ele><time>2026-05-02T09:40:58.14Z</time></trkpt><trkpt lat="46.1584793" lon="13.6485236"><ele>568.0</ele><time>2026-05-02T09:40:59.141Z</time></trkpt><trkpt lat="46.1584144" lon="13.6484777"><ele>571.5</ele><time>2026-05-02T09:41:00.14Z</time></trkpt><trkpt lat="46.1583518" lon="13.6484355"><ele>575.0</ele><time>2026-05-02T09:41:01.141Z</time></trkpt><trkpt lat="46.1582529" lon="13.6483601"><ele>578.5</ele><time>2026-05-02T09:41:03.14Z</time></trkpt><trkpt lat="46.1582026" lon="13.6482999"><ele>582.0</ele><time>2026-05-02T09:41:04.14Z</time></trkpt><trkpt lat="46.1581562" lon="13.6482311"><ele>585.5</ele><time>2026-05-02T09:41:05.141Z</time></trkpt><trkpt lat="46.1581266" lon="13.6481491"><ele>589.0</ele><time>2026-05-02T09:41:06.14Z</time></trkpt><trkpt lat="46.1581207" lon="13.648026"><ele>589.0</ele><time>2026-05-02T09:41:08.14Z</time></trkpt><trkpt lat="46.1581475" lon="13.6478445"><ele>589.0</ele><time>2026-05-02T09:41:10.14Z</time></trkpt><trkpt lat="46.1581579" lon="13.6477452"><ele>589.0</ele><time>2026-05-02T09:41:11.14Z</time></trkpt><trkpt lat="46.1582087" lon="13.647587"><ele>589.0</ele><time>2026-05-02T09:41:13.14Z</time></trkpt><trkpt lat="46.1582655" lon="13.647503"><ele>589.0</ele><time>2026-05-02T09:41:14.141Z</time></trkpt><trkpt lat="46.1583097" lon="13.6473797"><ele>592.4</ele><time>2026-05-02T09:41:16.141Z</time></trkpt><trkpt lat="46.158231" lon="13.6472585"><ele>595.8</ele><time>2026-05-02T09:41:19.14Z</time></trkpt><trkpt lat="46.1581641" lon="13.6472308"><ele>599.2</ele><time>2026-05-02T09:41:20.141Z</time></trkpt><trkpt lat="46.158073" lon="13.6471816"><ele>602.6</ele><time>2026-05-02T09:41:22.14Z</time></trkpt><trkpt lat="46.1579999" lon="13.6470656"><ele>606.0</ele><time>2026-05-02T09:41:24.141Z</time></trkpt><trkpt lat="46.1579242" lon="13.6470857"><ele>606.0</ele><time>2026-05-02T09:41:26.141Z</time></trkpt><trkpt lat="46.1578457" lon="13.6472054"><ele>606.0</ele><time>2026-05-02T09:41:28.14Z</time></trkpt><trkpt lat="46.157804" lon="13.6472888"><ele>606.0</ele><time>2026-05-02T09:41:29.141Z</time></trkpt><trkpt lat="46.157733" lon="13.6473945"><ele>606.0</ele><time>2026-05-02T09:41:31.14Z</time></trkpt><trkpt lat="46.1576353" lon="13.6474489"><ele>606.0</ele><time>2026-05-02T09:41:33.141Z</time></trkpt><trkpt lat="46.1575378" lon="13.647418"><ele>606.0</ele><time>2026-05-02T09:41:35.14Z</time></trkpt><trkpt lat="46.157465" lon="13.6472995"><ele>606.0</ele><time>2026-05-02T09:41:37.14Z</time></trkpt><trkpt lat="46.1574274" lon="13.6472032"><ele>606.0</ele><time>2026-05-02T09:41:38.14Z</time></trkpt><trkpt lat="46.1573688" lon="13.6470553"><ele>606.0</ele><time>2026-05-02T09:41:40.14Z</time></trkpt><trkpt lat="46.1573083" lon="13.646819"><ele>610.4</ele><time>2026-05-02T09:41:42.14Z</time></trkpt><trkpt lat="46.1572337" lon="13.6466886"><ele>614.8</ele><time>2026-05-02T09:41:44.14Z</time></trkpt><trkpt lat="46.1571651" lon="13.6467015"><ele>619.1999999999999</ele><time>2026-05-02T09:41:46.141Z</time></trkpt><trkpt lat="46.1570992" lon="13.6467724"><ele>623.6</ele><time>2026-05-02T09:41:48.141Z</time></trkpt><trkpt lat="46.15703" lon="13.6468708"><ele>628.0</ele><time>2026-05-02T09:41:50.14Z</time></trkpt><trkpt lat="46.1569556" lon="13.6469846"><ele>628.0</ele><time>2026-05-02T09:41:52.14Z</time></trkpt><trkpt lat="46.1568829" lon="13.6470998"><ele>628.0</ele><time>2026-05-02T09:41:54.141Z</time></trkpt><trkpt lat="46.1568347" lon="13.6471645"><ele>628.0</ele><time>2026-05-02T09:41:55.141Z</time></trkpt><trkpt lat="46.1567493" lon="13.647257"><ele>628.0</ele><time>2026-05-02T09:41:57.141Z</time></trkpt><trkpt lat="46.1566746" lon="13.6473182"><ele>628.0</ele><time>2026-05-02T09:41:59.14Z</time></trkpt><trkpt lat="46.1565814" lon="13.6473908"><ele>626.6666666666667</ele><time>2026-05-02T09:42:01.14Z</time></trkpt><trkpt lat="46.1565303" lon="13.6475003"><ele>625.3333333333334</ele><time>2026-05-02T09:42:03.14Z</time></trkpt><trkpt lat="46.1565152" lon="13.647639"><ele>624.0</ele><time>2026-05-02T09:42:05.14Z</time></trkpt><trkpt lat="46.1564826" lon="13.6477227"><ele>622.6666666666666</ele><time>2026-05-02T09:42:07.141Z</time></trkpt><trkpt lat="46.1564202" lon="13.6476955"><ele>621.3333333333333</ele><time>2026-05-02T09:42:10.14Z</time></trkpt><trkpt lat="46.1564119" lon="13.6475934"><ele>620.0</ele><time>2026-05-02T09:42:12.139Z</time></trkpt><trkpt lat="46.1564188" lon="13.6474392"><ele>620.0</ele><time>2026-05-02T09:42:14.14Z</time></trkpt><trkpt lat="46.1564344" lon="13.6473274"><ele>620.0</ele><time>2026-05-02T09:42:16.14Z</time></trkpt><trkpt lat="46.156474" lon="13.6471968"><ele>620.0</ele><time>2026-05-02T09:42:18.139Z</time></trkpt><trkpt lat="46.1565165" lon="13.6470378"><ele>620.0</ele><time>2026-05-02T09:42:20.139Z</time></trkpt><trkpt lat="46.1565387" lon="13.6469176"><ele>620.0</ele><time>2026-05-02T09:42:22.139Z</time></trkpt><trkpt lat="46.1565951" lon="13.6468498"><ele>622.3333333333333</ele><time>2026-05-02T09:42:50.14Z</time></trkpt><trkpt lat="46.1566787" lon="13.6467335"><ele>624.6666666666666</ele><time>2026-05-02T09:42:52.139Z</time></trkpt><trkpt lat="46.1567214" lon="13.6466525"><ele>627.0</ele><time>2026-05-02T09:42:53.14Z</time></trkpt><trkpt lat="46.1567736" lon="13.6465015"><ele>629.3333333333334</ele><time>2026-05-02T09:42:55.139Z</time></trkpt><trkpt lat="46.1567966" lon="13.6464152"><ele>631.6666666666667</ele><time>2026-05-02T09:42:56.139Z</time></trkpt><trkpt lat="46.1568193" lon="13.6463288"><ele>634.0</ele><time>2026-05-02T09:42:57.14Z</time></trkpt><trkpt lat="46.1568826" lon="13.6462309"><ele>635.8</ele><time>2026-05-02T09:42:58.139Z</time></trkpt><trkpt lat="46.1569376" lon="13.6460787"><ele>637.5999999999999</ele><time>2026-05-02T09:43:00.139Z</time></trkpt><trkpt lat="46.1570034" lon="13.6459176"><ele>639.4</ele><time>2026-05-02T09:43:02.139Z</time></trkpt><trkpt lat="46.1570371" lon="13.645826"><ele>641.1999999999999</ele><time>2026-05-02T09:43:03.139Z</time></trkpt><trkpt lat="46.1570903" lon="13.6457321"><ele>643.0</ele><time>2026-05-02T09:43:05.14Z</time></trkpt><trkpt lat="46.1571576" lon="13.6456677"><ele>643.0</ele><time>2026-05-02T09:43:07.139Z</time></trkpt><trkpt lat="46.1572293" lon="13.6456236"><ele>643.0</ele><time>2026-05-02T09:43:09.14Z</time></trkpt><trkpt lat="46.1573334" lon="13.64568"><ele>643.0</ele><time>2026-05-02T09:43:11.139Z</time></trkpt><trkpt lat="46.1573935" lon="13.6457198"><ele>643.0</ele><time>2026-05-02T09:43:12.139Z</time></trkpt><trkpt lat="46.1574574" lon="13.6457529"><ele>643.0</ele><time>2026-05-02T09:43:13.14Z</time></trkpt><trkpt lat="46.1575168" lon="13.6457894"><ele>643.0</ele><time>2026-05-02T09:43:14.139Z</time></trkpt><trkpt lat="46.157622" lon="13.6458139"><ele>644.1666666666667</ele><time>2026-05-02T09:43:16.139Z</time></trkpt><trkpt lat="46.1577337" lon="13.6457598"><ele>645.3333333333334</ele><time>2026-05-02T09:43:18.14Z</time></trkpt><trkpt lat="46.1577948" lon="13.645716"><ele>646.5</ele><time>2026-05-02T09:43:19.14Z</time></trkpt><trkpt lat="46.1578511" lon="13.6456589"><ele>647.6666666666666</ele><time>2026-05-02T09:43:20.139Z</time></trkpt><trkpt lat="46.1579222" lon="13.6456072"><ele>648.8333333333333</ele><time>2026-05-02T09:43:21.139Z</time></trkpt><trkpt lat="46.1579923" lon="13.6455825"><ele>650.0</ele><time>2026-05-02T09:43:22.139Z</time></trkpt><trkpt lat="46.1580598" lon="13.6455789"><ele>650.0</ele><time>2026-05-02T09:43:23.139Z</time></trkpt><trkpt lat="46.1581543" lon="13.6456072"><ele>650.0</ele><time>2026-05-02T09:43:25.139Z</time></trkpt><trkpt lat="46.1582219" lon="13.6456462"><ele>650.0</ele><time>2026-05-02T09:43:27.139Z</time></trkpt><trkpt lat="46.1582847" lon="13.6456382"><ele>650.0</ele><time>2026-05-02T09:43:41.14Z</time></trkpt><trkpt lat="46.1582434" lon="13.6455447"><ele>650.0</ele><time>2026-05-02T09:43:47.14Z</time></trkpt><trkpt lat="46.1582737" lon="13.6454539"><ele>650.0</ele><time>2026-05-02T09:43:50.139Z</time></trkpt><trkpt lat="46.1583672" lon="13.6455003"><ele>650.0</ele><time>2026-05-02T09:43:52.139Z</time></trkpt><trkpt lat="46.1584929" lon="13.6454957"><ele>650.0</ele><time>2026-05-02T09:43:54.139Z</time></trkpt><trkpt lat="46.1585729" lon="13.6454827"><ele>650.0</ele><time>2026-05-02T09:43:55.139Z</time></trkpt><trkpt lat="46.1586526" lon="13.6454557"><ele>650.0</ele><time>2026-05-02T09:43:56.139Z</time></trkpt><trkpt lat="46.1587287" lon="13.6454107"><ele>650.0</ele><time>2026-05-02T09:43:57.139Z</time></trkpt><trkpt lat="46.1587984" lon="13.6453402"><ele>650.2</ele><time>2026-05-02T09:43:58.14Z</time></trkpt><trkpt lat="46.1588721" lon="13.6452376"><ele>650.4</ele><time>2026-05-02T09:43:59.139Z</time></trkpt><trkpt lat="46.1589384" lon="13.6451317"><ele>650.5999999999999</ele><time>2026-05-02T09:44:00.139Z</time></trkpt><trkpt lat="46.158995" lon="13.645033"><ele>650.8</ele><time>2026-05-02T09:44:01.14Z</time></trkpt><trkpt lat="46.1590632" lon="13.6449581"><ele>651.0</ele><time>2026-05-02T09:44:02.14Z</time></trkpt><trkpt lat="46.1591438" lon="13.6449406"><ele>654.5</ele><time>2026-05-02T09:44:03.139Z</time></trkpt><trkpt lat="46.1592336" lon="13.6449851"><ele>658.0</ele><time>2026-05-02T09:44:04.139Z</time></trkpt><trkpt lat="46.159344" lon="13.6450557"><ele>661.5</ele><time>2026-05-02T09:44:05.139Z</time></trkpt><trkpt lat="46.1594571" lon="13.6450993"><ele>665.0</ele><time>2026-05-02T09:44:06.139Z</time></trkpt><trkpt lat="46.1595974" lon="13.6451151"><ele>665.0</ele><time>2026-05-02T09:44:07.139Z</time></trkpt><trkpt lat="46.1597437" lon="13.6451501"><ele>665.0</ele><time>2026-05-02T09:44:08.139Z</time></trkpt><trkpt lat="46.1598754" lon="13.6452018"><ele>665.0</ele><time>2026-05-02T09:44:09.139Z</time></trkpt><trkpt lat="46.1599987" lon="13.6452601"><ele>665.0</ele><time>2026-05-02T09:44:10.139Z</time></trkpt><trkpt lat="46.1601195" lon="13.6453204"><ele>673.5</ele><time>2026-05-02T09:44:11.139Z</time></trkpt><trkpt lat="46.1602421" lon="13.6453568"><ele>682.0</ele><time>2026-05-02T09:44:12.139Z</time></trkpt><trkpt lat="46.1603808" lon="13.6453756"><ele>690.5</ele><time>2026-05-02T09:44:13.139Z</time></trkpt><trkpt lat="46.1605158" lon="13.6453489"><ele>699.0</ele><time>2026-05-02T09:44:14.14Z</time></trkpt><trkpt lat="46.1606384" lon="13.6453094"><ele>696.75</ele><time>2026-05-02T09:44:15.14Z</time></trkpt><trkpt lat="46.1607483" lon="13.6452372"><ele>694.5</ele><time>2026-05-02T09:44:16.14Z</time></trkpt><trkpt lat="46.1608304" lon="13.6451132"><ele>692.25</ele><time>2026-05-02T09:44:17.14Z</time></trkpt><trkpt lat="46.1609076" lon="13.6449589"><ele>690.0</ele><time>2026-05-02T09:44:18.139Z</time></trkpt><trkpt lat="46.1609985" lon="13.6448381"><ele>690.0</ele><time>2026-05-02T09:44:19.14Z</time></trkpt><trkpt lat="46.1611064" lon="13.6447404"><ele>690.0</ele><time>2026-05-02T09:44:20.139Z</time></trkpt><trkpt lat="46.1612183" lon="13.6446646"><ele>690.0</ele><time>2026-05-02T09:44:21.14Z</time></trkpt><trkpt lat="46.1613363" lon="13.6445786"><ele>690.0</ele><time>2026-05-02T09:44:22.139Z</time></trkpt><trkpt lat="46.1614451" lon="13.6444986"><ele>689.75</ele><time>2026-05-02T09:44:23.139Z</time></trkpt><trkpt lat="46.1615436" lon="13.6443995"><ele>689.5</ele><time>2026-05-02T09:44:24.139Z</time></trkpt><trkpt lat="46.1616513" lon="13.6443139"><ele>689.25</ele><time>2026-05-02T09:44:25.14Z</time></trkpt><trkpt lat="46.1617618" lon="13.6442441"><ele>689.0</ele><time>2026-05-02T09:44:26.139Z</time></trkpt><trkpt lat="46.1618736" lon="13.6441901"><ele>689.0</ele><time>2026-05-02T09:44:27.139Z</time></trkpt><trkpt lat="46.1619577" lon="13.6440867"><ele>689.0</ele><time>2026-05-02T09:44:28.14Z</time></trkpt><trkpt lat="46.1620147" lon="13.6439445"><ele>689.0</ele><time>2026-05-02T09:44:29.139Z</time></trkpt><trkpt lat="46.1620579" lon="13.6437909"><ele>689.0</ele><time>2026-05-02T09:44:30.14Z</time></trkpt><trkpt lat="46.1620883" lon="13.6436188"><ele>684.8000000000001</ele><time>2026-05-02T09:44:31.139Z</time></trkpt><trkpt lat="46.1621232" lon="13.6434492"><ele>680.6</ele><time>2026-05-02T09:44:32.139Z</time></trkpt><trkpt lat="46.1621635" lon="13.6433022"><ele>676.4</ele><time>2026-05-02T09:44:33.14Z</time></trkpt><trkpt lat="46.1622261" lon="13.6431736"><ele>672.2</ele><time>2026-05-02T09:44:34.14Z</time></trkpt><trkpt lat="46.1623049" lon="13.6430714"><ele>668.0</ele><time>2026-05-02T09:44:35.14Z</time></trkpt><trkpt lat="46.1624087" lon="13.642992"><ele>674.5</ele><time>2026-05-02T09:44:36.139Z</time></trkpt><trkpt lat="46.1625199" lon="13.6429168"><ele>681.0</ele><time>2026-05-02T09:44:37.14Z</time></trkpt><trkpt lat="46.1626165" lon="13.642829"><ele>687.5</ele><time>2026-05-02T09:44:38.14Z</time></trkpt><trkpt lat="46.1626978" lon="13.6427061"><ele>694.0</ele><time>2026-05-02T09:44:39.139Z</time></trkpt><trkpt lat="46.1627774" lon="13.6425648"><ele>694.0</ele><time>2026-05-02T09:44:40.139Z</time></trkpt><trkpt lat="46.1628525" lon="13.6424275"><ele>694.0</ele><time>2026-05-02T09:44:41.139Z</time></trkpt><trkpt lat="46.1629236" lon="13.642288"><ele>694.0</ele><time>2026-05-02T09:44:42.14Z</time></trkpt><trkpt lat="46.1629908" lon="13.6421739"><ele>694.0</ele><time>2026-05-02T09:44:43.14Z</time></trkpt><trkpt lat="46.1630538" lon="13.6420798"><ele>694.0</ele><time>2026-05-02T09:44:44.139Z</time></trkpt><trkpt lat="46.1631276" lon="13.642038"><ele>700.0</ele><time>2026-05-02T09:44:45.139Z</time></trkpt><trkpt lat="46.1632044" lon="13.6420543"><ele>706.0</ele><time>2026-05-02T09:44:46.139Z</time></trkpt><trkpt lat="46.1632864" lon="13.6421129"><ele>712.0</ele><time>2026-05-02T09:44:47.139Z</time></trkpt><trkpt lat="46.163366" lon="13.6421948"><ele>718.0</ele><time>2026-05-02T09:44:48.139Z</time></trkpt><trkpt lat="46.1634397" lon="13.6422978"><ele>724.0</ele><time>2026-05-02T09:44:49.139Z</time></trkpt><trkpt lat="46.1634914" lon="13.6424063"><ele>724.0</ele><time>2026-05-02T09:44:50.14Z</time></trkpt><trkpt lat="46.1635361" lon="13.6425418"><ele>724.0</ele><time>2026-05-02T09:44:51.14Z</time></trkpt><trkpt lat="46.1635976" lon="13.6426767"><ele>724.0</ele><time>2026-05-02T09:44:52.139Z</time></trkpt><trkpt lat="46.1636791" lon="13.6427911"><ele>724.0</ele><time>2026-05-02T09:44:53.139Z</time></trkpt><trkpt lat="46.1637814" lon="13.6428748"><ele>724.0</ele><time>2026-05-02T09:44:54.14Z</time></trkpt><trkpt lat="46.1638992" lon="13.642928"><ele>725.0</ele><time>2026-05-02T09:44:55.139Z</time></trkpt><trkpt lat="46.1640212" lon="13.6429537"><ele>726.0</ele><time>2026-05-02T09:44:56.139Z</time></trkpt><trkpt lat="46.1641593" lon="13.6429544"><ele>727.0</ele><time>2026-05-02T09:44:57.139Z</time></trkpt><trkpt lat="46.1643034" lon="13.6429237"><ele>728.0</ele><time>2026-05-02T09:44:58.14Z</time></trkpt><trkpt lat="46.1644541" lon="13.6428623"><ele>727.6666666666666</ele><time>2026-05-02T09:44:59.139Z</time></trkpt><trkpt lat="46.1645897" lon="13.642778"><ele>727.3333333333334</ele><time>2026-05-02T09:45:00.139Z</time></trkpt><trkpt lat="46.1647286" lon="13.6426787"><ele>727.0</ele><time>2026-05-02T09:45:01.139Z</time></trkpt><trkpt lat="46.1648639" lon="13.6425711"><ele>727.0</ele><time>2026-05-02T09:45:02.14Z</time></trkpt><trkpt lat="46.1649867" lon="13.6424446"><ele>727.0</ele><time>2026-05-02T09:45:03.14Z</time></trkpt><trkpt lat="46.1651019" lon="13.6423178"><ele>727.0</ele><time>2026-05-02T09:45:04.139Z</time></trkpt><trkpt lat="46.1651997" lon="13.642187"><ele>727.0</ele><time>2026-05-02T09:45:05.14Z</time></trkpt><trkpt lat="46.1652767" lon="13.6420682"><ele>727.0</ele><time>2026-05-02T09:45:06.14Z</time></trkpt><trkpt lat="46.1653495" lon="13.6419864"><ele>727.0</ele><time>2026-05-02T09:45:07.14Z</time></trkpt><trkpt lat="46.1654397" lon="13.6419565"><ele>727.0</ele><time>2026-05-02T09:45:08.139Z</time></trkpt><trkpt lat="46.1655359" lon="13.6419765"><ele>727.0</ele><time>2026-05-02T09:45:09.14Z</time></trkpt><trkpt lat="46.1656573" lon="13.6420168"><ele>727.0</ele><time>2026-05-02T09:45:10.14Z</time></trkpt><trkpt lat="46.1657872" lon="13.6420344"><ele>726.6666666666667</ele><time>2026-05-02T09:45:11.14Z</time></trkpt><trkpt lat="46.1659374" lon="13.6420163"><ele>726.3333333333334</ele><time>2026-05-02T09:45:12.139Z</time></trkpt><trkpt lat="46.1660853" lon="13.6419594"><ele>726.0</ele><time>2026-05-02T09:45:13.14Z</time></trkpt><trkpt lat="46.1662253" lon="13.6418846"><ele>726.75</ele><time>2026-05-02T09:45:14.139Z</time></trkpt><trkpt lat="46.1663474" lon="13.6418182"><ele>727.5</ele><time>2026-05-02T09:45:15.14Z</time></trkpt><trkpt lat="46.1664624" lon="13.6417601"><ele>728.25</ele><time>2026-05-02T09:45:16.139Z</time></trkpt><trkpt lat="46.1665623" lon="13.6416772"><ele>729.0</ele><time>2026-05-02T09:45:17.14Z</time></trkpt><trkpt lat="46.166648" lon="13.6415614"><ele>729.0</ele><time>2026-05-02T09:45:18.139Z</time></trkpt><trkpt lat="46.1667223" lon="13.6414172"><ele>729.0</ele><time>2026-05-02T09:45:19.14Z</time></trkpt><trkpt lat="46.1667874" lon="13.6412331"><ele>729.0</ele><time>2026-05-02T09:45:20.139Z</time></trkpt><trkpt lat="46.1668466" lon="13.6410369"><ele>729.0</ele><time>2026-05-02T09:45:21.14Z</time></trkpt><trkpt lat="46.1668771" lon="13.6408283"><ele>729.0</ele><time>2026-05-02T09:45:22.14Z</time></trkpt><trkpt lat="46.1668948" lon="13.6406119"><ele>729.0</ele><time>2026-05-02T09:45:23.139Z</time></trkpt><trkpt lat="46.1669124" lon="13.6404091"><ele>729.0</ele><time>2026-05-02T09:45:24.14Z</time></trkpt><trkpt lat="46.1669297" lon="13.6402196"><ele>729.0</ele><time>2026-05-02T09:45:25.139Z</time></trkpt><trkpt lat="46.1669567" lon="13.6400626"><ele>729.1666666666666</ele><time>2026-05-02T09:45:26.139Z</time></trkpt><trkpt lat="46.1669978" lon="13.6399574"><ele>729.3333333333334</ele><time>2026-05-02T09:45:27.14Z</time></trkpt><trkpt lat="46.1670698" lon="13.6399089"><ele>729.5</ele><time>2026-05-02T09:45:28.139Z</time></trkpt><trkpt lat="46.1671511" lon="13.6399129"><ele>729.6666666666667</ele><time>2026-05-02T09:45:29.14Z</time></trkpt><trkpt lat="46.167219" lon="13.6399792"><ele>729.8333333333334</ele><time>2026-05-02T09:45:30.139Z</time></trkpt><trkpt lat="46.167307" lon="13.6400491"><ele>730.0</ele><time>2026-05-02T09:45:31.14Z</time></trkpt><trkpt lat="46.1674176" lon="13.6401208"><ele>730.0</ele><time>2026-05-02T09:45:32.14Z</time></trkpt><trkpt lat="46.1675308" lon="13.6401715"><ele>730.0</ele><time>2026-05-02T09:45:33.14Z</time></trkpt><trkpt lat="46.1676331" lon="13.6402273"><ele>730.0</ele><time>2026-05-02T09:45:34.139Z</time></trkpt><trkpt lat="46.167745" lon="13.6403207"><ele>730.0</ele><time>2026-05-02T09:45:35.139Z</time></trkpt><trkpt lat="46.1678563" lon="13.6404579"><ele>726.0</ele><time>2026-05-02T09:45:36.139Z</time></trkpt><trkpt lat="46.1679728" lon="13.640602"><ele>722.0</ele><time>2026-05-02T09:45:37.14Z</time></trkpt><trkpt lat="46.1681046" lon="13.6407204"><ele>718.0</ele><time>2026-05-02T09:45:38.139Z</time></trkpt><trkpt lat="46.1682399" lon="13.6408215"><ele>718.0</ele><time>2026-05-02T09:45:39.139Z</time></trkpt><trkpt lat="46.1683671" lon="13.6409194"><ele>718.0</ele><time>2026-05-02T09:45:40.139Z</time></trkpt><trkpt lat="46.1684891" lon="13.6410339"><ele>718.0</ele><time>2026-05-02T09:45:41.14Z</time></trkpt><trkpt lat="46.1686043" lon="13.6411661"><ele>718.0</ele><time>2026-05-02T09:45:42.139Z</time></trkpt><trkpt lat="46.1687054" lon="13.6412941"><ele>719.25</ele><time>2026-05-02T09:45:43.139Z</time></trkpt><trkpt lat="46.1687915" lon="13.6414443"><ele>720.5</ele><time>2026-05-02T09:45:44.14Z</time></trkpt><trkpt lat="46.1688566" lon="13.6416077"><ele>721.75</ele><time>2026-05-02T09:45:45.139Z</time></trkpt><trkpt lat="46.168904" lon="13.6417736"><ele>723.0</ele><time>2026-05-02T09:45:46.14Z</time></trkpt><trkpt lat="46.1689475" lon="13.6419207"><ele>717.25</ele><time>2026-05-02T09:45:47.14Z</time></trkpt><trkpt lat="46.1690196" lon="13.6420537"><ele>711.5</ele><time>2026-05-02T09:45:48.139Z</time></trkpt><trkpt lat="46.1691238" lon="13.6421315"><ele>705.75</ele><time>2026-05-02T09:45:49.139Z</time></trkpt><trkpt lat="46.1692351" lon="13.642175"><ele>700.0</ele><time>2026-05-02T09:45:50.139Z</time></trkpt><trkpt lat="46.1693747" lon="13.6421979"><ele>700.0</ele><time>2026-05-02T09:45:51.14Z</time></trkpt><trkpt lat="46.1695248" lon="13.6421929"><ele>700.0</ele><time>2026-05-02T09:45:52.139Z</time></trkpt><trkpt lat="46.1696933" lon="13.6421857"><ele>700.0</ele><time>2026-05-02T09:45:53.14Z</time></trkpt><trkpt lat="46.169847" lon="13.6421713"><ele>705.5</ele><time>2026-05-02T09:45:54.14Z</time></trkpt><trkpt lat="46.1699926" lon="13.642142"><ele>711.0</ele><time>2026-05-02T09:45:55.14Z</time></trkpt><trkpt lat="46.1701228" lon="13.6421007"><ele>716.5</ele><time>2026-05-02T09:45:56.139Z</time></trkpt><trkpt lat="46.1702474" lon="13.6420352"><ele>722.0</ele><time>2026-05-02T09:45:57.139Z</time></trkpt><trkpt lat="46.1703624" lon="13.6419667"><ele>721.5</ele><time>2026-05-02T09:45:58.139Z</time></trkpt><trkpt lat="46.1704725" lon="13.6419099"><ele>721.0</ele><time>2026-05-02T09:45:59.139Z</time></trkpt><trkpt lat="46.1705883" lon="13.6418717"><ele>720.5</ele><time>2026-05-02T09:46:00.139Z</time></trkpt><trkpt lat="46.1707196" lon="13.6418747"><ele>720.0</ele><time>2026-05-02T09:46:01.139Z</time></trkpt><trkpt lat="46.1708465" lon="13.6418913"><ele>720.0</ele><time>2026-05-02T09:46:02.139Z</time></trkpt><trkpt lat="46.1709831" lon="13.6418917"><ele>720.0</ele><time>2026-05-02T09:46:03.139Z</time></trkpt><trkpt lat="46.1711199" lon="13.6418816"><ele>720.0</ele><time>2026-05-02T09:46:04.139Z</time></trkpt><trkpt lat="46.1712516" lon="13.6418547"><ele>720.0</ele><time>2026-05-02T09:46:05.139Z</time></trkpt><trkpt lat="46.171376" lon="13.6418155"><ele>720.0</ele><time>2026-05-02T09:46:06.139Z</time></trkpt><trkpt lat="46.171484" lon="13.641754"><ele>720.0</ele><time>2026-05-02T09:46:07.139Z</time></trkpt><trkpt lat="46.1715977" lon="13.6416807"><ele>720.0</ele><time>2026-05-02T09:46:08.139Z</time></trkpt><trkpt lat="46.1717085" lon="13.641625"><ele>720.0</ele><time>2026-05-02T09:46:09.14Z</time></trkpt><trkpt lat="46.1718163" lon="13.6416094"><ele>723.0</ele><time>2026-05-02T09:46:10.139Z</time></trkpt><trkpt lat="46.1719185" lon="13.6416345"><ele>726.0</ele><time>2026-05-02T09:46:11.14Z</time></trkpt><trkpt lat="46.1720106" lon="13.6416793"><ele>729.0</ele><time>2026-05-02T09:46:12.14Z</time></trkpt><trkpt lat="46.1721083" lon="13.641753"><ele>732.0</ele><time>2026-05-02T09:46:13.14Z</time></trkpt><trkpt lat="46.1722089" lon="13.6418001"><ele>735.0</ele><time>2026-05-02T09:46:14.139Z</time></trkpt><trkpt lat="46.172324" lon="13.6417916"><ele>737.75</ele><time>2026-05-02T09:46:15.139Z</time></trkpt><trkpt lat="46.1724631" lon="13.6417244"><ele>740.5</ele><time>2026-05-02T09:46:16.14Z</time></trkpt><trkpt lat="46.1725933" lon="13.6416615"><ele>743.25</ele><time>2026-05-02T09:46:17.139Z</time></trkpt><trkpt lat="46.1727135" lon="13.6416269"><ele>746.0</ele><time>2026-05-02T09:46:18.139Z</time></trkpt><trkpt lat="46.1728225" lon="13.6416081"><ele>746.0</ele><time>2026-05-02T09:46:19.139Z</time></trkpt><trkpt lat="46.1729316" lon="13.641607"><ele>746.0</ele><time>2026-05-02T09:46:20.14Z</time></trkpt><trkpt lat="46.1730468" lon="13.6416563"><ele>746.0</ele><time>2026-05-02T09:46:21.14Z</time></trkpt><trkpt lat="46.1731717" lon="13.6416745"><ele>746.0</ele><time>2026-05-02T09:46:22.139Z</time></trkpt><trkpt lat="46.1733009" lon="13.6416718"><ele>748.5</ele><time>2026-05-02T09:46:23.14Z</time></trkpt><trkpt lat="46.1734309" lon="13.641656"><ele>751.0</ele><time>2026-05-02T09:46:24.14Z</time></trkpt><trkpt lat="46.1735545" lon="13.6416353"><ele>753.5</ele><time>2026-05-02T09:46:25.14Z</time></trkpt><trkpt lat="46.1736742" lon="13.6416093"><ele>756.0</ele><time>2026-05-02T09:46:26.139Z</time></trkpt><trkpt lat="46.1737975" lon="13.6415715"><ele>756.0</ele><time>2026-05-02T09:46:27.14Z</time></trkpt><trkpt lat="46.1739106" lon="13.6415153"><ele>756.0</ele><time>2026-05-02T09:46:28.14Z</time></trkpt><trkpt lat="46.1740267" lon="13.6414715"><ele>756.0</ele><time>2026-05-02T09:46:29.139Z</time></trkpt><trkpt lat="46.1741361" lon="13.6414374"><ele>756.0</ele><time>2026-05-02T09:46:30.14Z</time></trkpt><trkpt lat="46.174235" lon="13.6414167"><ele>757.0</ele><time>2026-05-02T09:46:31.14Z</time></trkpt><trkpt lat="46.1743245" lon="13.641441"><ele>758.0</ele><time>2026-05-02T09:46:32.14Z</time></trkpt><trkpt lat="46.1743692" lon="13.6415223"><ele>759.0</ele><time>2026-05-02T09:46:33.14Z</time></trkpt><trkpt lat="46.1743977" lon="13.6416151"><ele>760.0</ele><time>2026-05-02T09:46:34.139Z</time></trkpt><trkpt lat="46.1743991" lon="13.6417564"><ele>761.0</ele><time>2026-05-02T09:46:35.139Z</time></trkpt><trkpt lat="46.1743742" lon="13.641916"><ele>762.0</ele><time>2026-05-02T09:46:36.14Z</time></trkpt><trkpt lat="46.1743323" lon="13.6420837"><ele>764.75</ele><time>2026-05-02T09:46:37.138Z</time></trkpt><trkpt lat="46.1742867" lon="13.6422614"><ele>767.5</ele><time>2026-05-02T09:46:38.138Z</time></trkpt><trkpt lat="46.1742353" lon="13.6424322"><ele>770.25</ele><time>2026-05-02T09:46:39.138Z</time></trkpt><trkpt lat="46.1741828" lon="13.6426043"><ele>773.0</ele><time>2026-05-02T09:46:40.138Z</time></trkpt><trkpt lat="46.1741342" lon="13.642782"><ele>773.0</ele><time>2026-05-02T09:46:41.138Z</time></trkpt><trkpt lat="46.1740854" lon="13.6429904"><ele>773.0</ele><time>2026-05-02T09:46:42.138Z</time></trkpt><trkpt lat="46.1740428" lon="13.6431921"><ele>773.0</ele><time>2026-05-02T09:46:43.138Z</time></trkpt><trkpt lat="46.1740121" lon="13.6433801"><ele>773.0</ele><time>2026-05-02T09:46:44.138Z</time></trkpt><trkpt lat="46.17398" lon="13.6435873"><ele>779.75</ele><time>2026-05-02T09:46:45.138Z</time></trkpt><trkpt lat="46.1739541" lon="13.6437964"><ele>786.5</ele><time>2026-05-02T09:46:46.139Z</time></trkpt><trkpt lat="46.1739285" lon="13.6440005"><ele>793.25</ele><time>2026-05-02T09:46:47.139Z</time></trkpt><trkpt lat="46.1739027" lon="13.644208"><ele>800.0</ele><time>2026-05-02T09:46:48.138Z</time></trkpt><trkpt lat="46.1738796" lon="13.6444083"><ele>793.5</ele><time>2026-05-02T09:46:49.139Z</time></trkpt><trkpt lat="46.1738559" lon="13.6446038"><ele>787.0</ele><time>2026-05-02T09:46:50.139Z</time></trkpt><trkpt lat="46.1738331" lon="13.6447921"><ele>780.5</ele><time>2026-05-02T09:46:51.138Z</time></trkpt><trkpt lat="46.1738163" lon="13.644986"><ele>774.0</ele><time>2026-05-02T09:46:52.138Z</time></trkpt><trkpt lat="46.1738063" lon="13.645169"><ele>769.25</ele><time>2026-05-02T09:46:53.138Z</time></trkpt><trkpt lat="46.1738106" lon="13.6453688"><ele>764.5</ele><time>2026-05-02T09:46:54.139Z</time></trkpt><trkpt lat="46.1738112" lon="13.6455669"><ele>759.75</ele><time>2026-05-02T09:46:55.138Z</time></trkpt><trkpt lat="46.1738185" lon="13.6457622"><ele>755.0</ele><time>2026-05-02T09:46:56.138Z</time></trkpt><trkpt lat="46.1738339" lon="13.6459544"><ele>755.0</ele><time>2026-05-02T09:46:57.138Z</time></trkpt><trkpt lat="46.1738687" lon="13.6461265"><ele>755.0</ele><time>2026-05-02T09:46:58.138Z</time></trkpt><trkpt lat="46.1739346" lon="13.6462865"><ele>755.0</ele><time>2026-05-02T09:46:59.139Z</time></trkpt><trkpt lat="46.1740264" lon="13.6464517"><ele>755.0</ele><time>2026-05-02T09:47:00.138Z</time></trkpt><trkpt lat="46.174125" lon="13.6466233"><ele>755.5</ele><time>2026-05-02T09:47:01.139Z</time></trkpt><trkpt lat="46.1742141" lon="13.6468044"><ele>756.0</ele><time>2026-05-02T09:47:02.138Z</time></trkpt><trkpt lat="46.174295" lon="13.6469661"><ele>756.5</ele><time>2026-05-02T09:47:03.138Z</time></trkpt><trkpt lat="46.174368" lon="13.6471272"><ele>757.0</ele><time>2026-05-02T09:47:04.138Z</time></trkpt><trkpt lat="46.1744229" lon="13.6472873"><ele>755.4000000000001</ele><time>2026-05-02T09:47:05.138Z</time></trkpt><trkpt lat="46.1744814" lon="13.6474327"><ele>753.8000000000001</ele><time>2026-05-02T09:47:06.139Z</time></trkpt><trkpt lat="46.1745454" lon="13.6475536"><ele>752.2</ele><time>2026-05-02T09:47:07.138Z</time></trkpt><trkpt lat="46.1746253" lon="13.647663"><ele>750.6</ele><time>2026-05-02T09:47:08.139Z</time></trkpt><trkpt lat="46.1747177" lon="13.6477435"><ele>749.0</ele><time>2026-05-02T09:47:09.138Z</time></trkpt><trkpt lat="46.1748204" lon="13.6477841"><ele>750.0</ele><time>2026-05-02T09:47:10.139Z</time></trkpt><trkpt lat="46.1749362" lon="13.6478076"><ele>751.0</ele><time>2026-05-02T09:47:11.139Z</time></trkpt><trkpt lat="46.1750586" lon="13.6478193"><ele>752.0</ele><time>2026-05-02T09:47:12.139Z</time></trkpt><trkpt lat="46.1751815" lon="13.6478036"><ele>753.0</ele><time>2026-05-02T09:47:13.139Z</time></trkpt><trkpt lat="46.1753119" lon="13.6477804"><ele>753.0</ele><time>2026-05-02T09:47:14.139Z</time></trkpt><trkpt lat="46.1754455" lon="13.6477575"><ele>753.0</ele><time>2026-05-02T09:47:15.138Z</time></trkpt><trkpt lat="46.1756021" lon="13.6477355"><ele>753.0</ele><time>2026-05-02T09:47:16.138Z</time></trkpt><trkpt lat="46.1757518" lon="13.6476675"><ele>753.0</ele><time>2026-05-02T09:47:17.139Z</time></trkpt><trkpt lat="46.1758864" lon="13.6475852"><ele>754.75</ele><time>2026-05-02T09:47:18.138Z</time></trkpt><trkpt lat="46.1760103" lon="13.6475048"><ele>756.5</ele><time>2026-05-02T09:47:19.138Z</time></trkpt><trkpt lat="46.176135" lon="13.6474431"><ele>758.25</ele><time>2026-05-02T09:47:20.139Z</time></trkpt><trkpt lat="46.1762712" lon="13.6473982"><ele>760.0</ele><time>2026-05-02T09:47:21.138Z</time></trkpt><trkpt lat="46.1764003" lon="13.647377"><ele>760.0</ele><time>2026-05-02T09:47:22.138Z</time></trkpt><trkpt lat="46.1765154" lon="13.6473708"><ele>760.0</ele><time>2026-05-02T09:47:23.138Z</time></trkpt><trkpt lat="46.1766281" lon="13.6473805"><ele>760.0</ele><time>2026-05-02T09:47:24.138Z</time></trkpt><trkpt lat="46.1767558" lon="13.6474242"><ele>760.0</ele><time>2026-05-02T09:47:25.138Z</time></trkpt><trkpt lat="46.1768949" lon="13.6474964"><ele>763.25</ele><time>2026-05-02T09:47:26.138Z</time></trkpt><trkpt lat="46.1770162" lon="13.6475546"><ele>766.5</ele><time>2026-05-02T09:47:27.139Z</time></trkpt><trkpt lat="46.1771401" lon="13.647608"><ele>769.75</ele><time>2026-05-02T09:47:28.139Z</time></trkpt><trkpt lat="46.177278" lon="13.6476622"><ele>773.0</ele><time>2026-05-02T09:47:29.138Z</time></trkpt><trkpt lat="46.1774188" lon="13.6476754"><ele>774.5</ele><time>2026-05-02T09:47:30.139Z</time></trkpt><trkpt lat="46.1775546" lon="13.6476362"><ele>776.0</ele><time>2026-05-02T09:47:31.139Z</time></trkpt><trkpt lat="46.1776769" lon="13.6476001"><ele>777.5</ele><time>2026-05-02T09:47:32.138Z</time></trkpt><trkpt lat="46.1777734" lon="13.6475515"><ele>779.0</ele><time>2026-05-02T09:47:33.139Z</time></trkpt><trkpt lat="46.1778612" lon="13.6474999"><ele>779.0</ele><time>2026-05-02T09:47:34.138Z</time></trkpt><trkpt lat="46.1779431" lon="13.6474361"><ele>779.0</ele><time>2026-05-02T09:47:35.138Z</time></trkpt><trkpt lat="46.1780231" lon="13.6473663"><ele>779.0</ele><time>2026-05-02T09:47:36.139Z</time></trkpt><trkpt lat="46.17811" lon="13.6473009"><ele>779.0</ele><time>2026-05-02T09:47:37.139Z</time></trkpt><trkpt lat="46.1782044" lon="13.6472792"><ele>779.0</ele><time>2026-05-02T09:47:38.138Z</time></trkpt><trkpt lat="46.178298" lon="13.6473044"><ele>781.4000000000001</ele><time>2026-05-02T09:47:39.138Z</time></trkpt><trkpt lat="46.1783937" lon="13.6473426"><ele>783.8</ele><time>2026-05-02T09:47:40.138Z</time></trkpt><trkpt lat="46.1784965" lon="13.6473503"><ele>786.2</ele><time>2026-05-02T09:47:41.138Z</time></trkpt><trkpt lat="46.1786004" lon="13.6473601"><ele>788.5999999999999</ele><time>2026-05-02T09:47:42.138Z</time></trkpt><trkpt lat="46.1786805" lon="13.6473978"><ele>791.0</ele><time>2026-05-02T09:47:43.139Z</time></trkpt><trkpt lat="46.1787497" lon="13.6474728"><ele>791.0</ele><time>2026-05-02T09:47:44.139Z</time></trkpt><trkpt lat="46.1787862" lon="13.6475643"><ele>791.0</ele><time>2026-05-02T09:47:45.139Z</time></trkpt><trkpt lat="46.1788156" lon="13.6476822"><ele>791.0</ele><time>2026-05-02T09:47:46.139Z</time></trkpt><trkpt lat="46.1788428" lon="13.6478196"><ele>791.0</ele><time>2026-05-02T09:47:47.138Z</time></trkpt><trkpt lat="46.178863" lon="13.6479646"><ele>791.0</ele><time>2026-05-02T09:47:48.139Z</time></trkpt><trkpt lat="46.1788791" lon="13.6481239"><ele>794.25</ele><time>2026-05-02T09:47:49.139Z</time></trkpt><trkpt lat="46.1788979" lon="13.6482928"><ele>797.5</ele><time>2026-05-02T09:47:50.138Z</time></trkpt><trkpt lat="46.1789233" lon="13.6484761"><ele>800.75</ele><time>2026-05-02T09:47:51.138Z</time></trkpt><trkpt lat="46.1789764" lon="13.6486683"><ele>804.0</ele><time>2026-05-02T09:47:52.138Z</time></trkpt><trkpt lat="46.179043" lon="13.6488461"><ele>804.0</ele><time>2026-05-02T09:47:53.138Z</time></trkpt><trkpt lat="46.179101" lon="13.6490405"><ele>804.0</ele><time>2026-05-02T09:47:54.138Z</time></trkpt><trkpt lat="46.1791376" lon="13.6492449"><ele>804.0</ele><time>2026-05-02T09:47:55.138Z</time></trkpt><trkpt lat="46.1791654" lon="13.6494488"><ele>804.0</ele><time>2026-05-02T09:47:56.138Z</time></trkpt><trkpt lat="46.1791872" lon="13.6496476"><ele>807.75</ele><time>2026-05-02T09:47:57.139Z</time></trkpt><trkpt lat="46.1792078" lon="13.6498597"><ele>811.5</ele><time>2026-05-02T09:47:58.138Z</time></trkpt><trkpt lat="46.1792316" lon="13.6500601"><ele>815.25</ele><time>2026-05-02T09:47:59.138Z</time></trkpt><trkpt lat="46.1792621" lon="13.6502276"><ele>819.0</ele><time>2026-05-02T09:48:00.139Z</time></trkpt><trkpt lat="46.179284" lon="13.6503866"><ele>820.0</ele><time>2026-05-02T09:48:01.138Z</time></trkpt><trkpt lat="46.179294" lon="13.6505231"><ele>821.0</ele><time>2026-05-02T09:48:02.139Z</time></trkpt><trkpt lat="46.1792977" lon="13.650635"><ele>822.0</ele><time>2026-05-02T09:48:03.138Z</time></trkpt><trkpt lat="46.1793037" lon="13.6507438"><ele>823.0</ele><time>2026-05-02T09:48:04.138Z</time></trkpt><trkpt lat="46.1793056" lon="13.6508538"><ele>824.0</ele><time>2026-05-02T09:48:05.138Z</time></trkpt><trkpt lat="46.1792964" lon="13.6509783"><ele>825.0</ele><time>2026-05-02T09:48:06.138Z</time></trkpt><trkpt lat="46.1792762" lon="13.6510989"><ele>825.6</ele><time>2026-05-02T09:48:07.138Z</time></trkpt><trkpt lat="46.1792582" lon="13.651231"><ele>826.2</ele><time>2026-05-02T09:48:08.138Z</time></trkpt><trkpt lat="46.1792417" lon="13.651363"><ele>826.8</ele><time>2026-05-02T09:48:09.138Z</time></trkpt><trkpt lat="46.1792295" lon="13.6514982"><ele>827.4</ele><time>2026-05-02T09:48:10.138Z</time></trkpt><trkpt lat="46.1792111" lon="13.6516269"><ele>828.0</ele><time>2026-05-02T09:48:11.138Z</time></trkpt><trkpt lat="46.1791992" lon="13.6517708"><ele>828.0</ele><time>2026-05-02T09:48:12.138Z</time></trkpt><trkpt lat="46.1792186" lon="13.651911"><ele>828.0</ele><time>2026-05-02T09:48:13.139Z</time></trkpt><trkpt lat="46.1792493" lon="13.6520524"><ele>828.0</ele><time>2026-05-02T09:48:14.139Z</time></trkpt><trkpt lat="46.179279" lon="13.6522"><ele>828.0</ele><time>2026-05-02T09:48:15.138Z</time></trkpt><trkpt lat="46.1793168" lon="13.6523346"><ele>828.0</ele><time>2026-05-02T09:48:16.138Z</time></trkpt><trkpt lat="46.1793851" lon="13.6524661"><ele>830.0</ele><time>2026-05-02T09:48:17.138Z</time></trkpt><trkpt lat="46.1794687" lon="13.6525793"><ele>832.0</ele><time>2026-05-02T09:48:18.138Z</time></trkpt><trkpt lat="46.1795452" lon="13.6526867"><ele>834.0</ele><time>2026-05-02T09:48:19.138Z</time></trkpt><trkpt lat="46.1796081" lon="13.6528055"><ele>836.0</ele><time>2026-05-02T09:48:20.138Z</time></trkpt><trkpt lat="46.1796586" lon="13.6529401"><ele>838.0</ele><time>2026-05-02T09:48:21.138Z</time></trkpt><trkpt lat="46.1796809" lon="13.6530659"><ele>840.3333333333333</ele><time>2026-05-02T09:48:22.138Z</time></trkpt><trkpt lat="46.1797096" lon="13.6531671"><ele>842.6666666666666</ele><time>2026-05-02T09:48:23.138Z</time></trkpt><trkpt lat="46.1797491" lon="13.6532518"><ele>845.0</ele><time>2026-05-02T09:48:24.138Z</time></trkpt><trkpt lat="46.179807" lon="13.6532959"><ele>847.3333333333333</ele><time>2026-05-02T09:48:25.138Z</time></trkpt><trkpt lat="46.179885" lon="13.6533081"><ele>849.6666666666666</ele><time>2026-05-02T09:48:26.138Z</time></trkpt><trkpt lat="46.1799659" lon="13.653282"><ele>852.0</ele><time>2026-05-02T09:48:27.138Z</time></trkpt><trkpt lat="46.180041" lon="13.6532419"><ele>846.3333333333334</ele><time>2026-05-02T09:48:28.139Z</time></trkpt><trkpt lat="46.1801164" lon="13.653225"><ele>840.6666666666667</ele><time>2026-05-02T09:48:29.138Z</time></trkpt><trkpt lat="46.1801884" lon="13.653245"><ele>835.0</ele><time>2026-05-02T09:48:30.139Z</time></trkpt><trkpt lat="46.1802543" lon="13.6532755"><ele>829.3333333333334</ele><time>2026-05-02T09:48:31.138Z</time></trkpt><trkpt lat="46.1803844" lon="13.6533116"><ele>823.6666666666667</ele><time>2026-05-02T09:48:33.138Z</time></trkpt><trkpt lat="46.1804521" lon="13.6533148"><ele>818.0</ele><time>2026-05-02T09:48:34.138Z</time></trkpt><trkpt lat="46.1805235" lon="13.6532819"><ele>818.0000000000001</ele><time>2026-05-02T09:48:35.139Z</time></trkpt><trkpt lat="46.1805831" lon="13.6532143"><ele>818.0</ele><time>2026-05-02T09:48:36.138Z</time></trkpt><trkpt lat="46.1806336" lon="13.653115"><ele>818.0</ele><time>2026-05-02T09:48:37.138Z</time></trkpt><trkpt lat="46.1806758" lon="13.6530053"><ele>818.0</ele><time>2026-05-02T09:48:38.138Z</time></trkpt><trkpt lat="46.1807097" lon="13.6528841"><ele>818.0000000000001</ele><time>2026-05-02T09:48:39.138Z</time></trkpt><trkpt lat="46.1807432" lon="13.6527595"><ele>818.0</ele><time>2026-05-02T09:48:40.139Z</time></trkpt><trkpt lat="46.1807727" lon="13.6526393"><ele>817.8</ele><time>2026-05-02T09:48:41.139Z</time></trkpt><trkpt lat="46.1807961" lon="13.6524963"><ele>817.5999999999999</ele><time>2026-05-02T09:48:42.139Z</time></trkpt><trkpt lat="46.1808179" lon="13.6523453"><ele>817.4000000000001</ele><time>2026-05-02T09:48:43.138Z</time></trkpt><trkpt lat="46.1808391" lon="13.6521793"><ele>817.2</ele><time>2026-05-02T09:48:44.139Z</time></trkpt><trkpt lat="46.1808662" lon="13.6520291"><ele>817.0</ele><time>2026-05-02T09:48:45.138Z</time></trkpt><trkpt lat="46.1808895" lon="13.6518742"><ele>813.0</ele><time>2026-05-02T09:48:46.139Z</time></trkpt><trkpt lat="46.180916" lon="13.6517125"><ele>809.0</ele><time>2026-05-02T09:48:47.138Z</time></trkpt><trkpt lat="46.1809584" lon="13.651535"><ele>805.0</ele><time>2026-05-02T09:48:48.138Z</time></trkpt><trkpt lat="46.181018" lon="13.6513522"><ele>801.0</ele><time>2026-05-02T09:48:49.139Z</time></trkpt><trkpt lat="46.1810763" lon="13.6511633"><ele>796.0</ele><time>2026-05-02T09:48:50.138Z</time></trkpt><trkpt lat="46.1811429" lon="13.6509787"><ele>791.0</ele><time>2026-05-02T09:48:51.138Z</time></trkpt><trkpt lat="46.1811925" lon="13.6507852"><ele>786.0</ele><time>2026-05-02T09:48:52.138Z</time></trkpt><trkpt lat="46.1812342" lon="13.6505933"><ele>781.0</ele><time>2026-05-02T09:48:53.139Z</time></trkpt><trkpt lat="46.1812786" lon="13.6504012"><ele>777.75</ele><time>2026-05-02T09:48:54.138Z</time></trkpt><trkpt lat="46.181326" lon="13.6502143"><ele>774.5</ele><time>2026-05-02T09:48:55.138Z</time></trkpt><trkpt lat="46.1813624" lon="13.6500317"><ele>771.25</ele><time>2026-05-02T09:48:56.139Z</time></trkpt><trkpt lat="46.1813916" lon="13.6498478"><ele>768.0</ele><time>2026-05-02T09:48:57.139Z</time></trkpt><trkpt lat="46.1814182" lon="13.6496656"><ele>768.0</ele><time>2026-05-02T09:48:58.139Z</time></trkpt><trkpt lat="46.1814476" lon="13.6494852"><ele>768.0</ele><time>2026-05-02T09:48:59.138Z</time></trkpt><trkpt lat="46.181481" lon="13.6493131"><ele>768.0</ele><time>2026-05-02T09:49:00.138Z</time></trkpt><trkpt lat="46.1815128" lon="13.6491442"><ele>768.0</ele><time>2026-05-02T09:49:01.138Z</time></trkpt><trkpt lat="46.1815401" lon="13.648977"><ele>772.75</ele><time>2026-05-02T09:49:02.139Z</time></trkpt><trkpt lat="46.1815699" lon="13.6488169"><ele>777.5</ele><time>2026-05-02T09:49:03.138Z</time></trkpt><trkpt lat="46.1816038" lon="13.648661"><ele>782.25</ele><time>2026-05-02T09:49:04.138Z</time></trkpt><trkpt lat="46.1816322" lon="13.6484954"><ele>787.0</ele><time>2026-05-02T09:49:05.139Z</time></trkpt><trkpt lat="46.1816551" lon="13.6483142"><ele>787.0</ele><time>2026-05-02T09:49:06.138Z</time></trkpt><trkpt lat="46.1816808" lon="13.6481348"><ele>787.0</ele><time>2026-05-02T09:49:07.138Z</time></trkpt><trkpt lat="46.1816977" lon="13.6479547"><ele>787.0</ele><time>2026-05-02T09:49:08.139Z</time></trkpt><trkpt lat="46.1817211" lon="13.647776"><ele>787.0</ele><time>2026-05-02T09:49:09.139Z</time></trkpt><trkpt lat="46.1817512" lon="13.647602"><ele>783.25</ele><time>2026-05-02T09:49:10.139Z</time></trkpt><trkpt lat="46.1818017" lon="13.6474332"><ele>779.5</ele><time>2026-05-02T09:49:11.138Z</time></trkpt><trkpt lat="46.1818422" lon="13.6472563"><ele>775.75</ele><time>2026-05-02T09:49:12.138Z</time></trkpt><trkpt lat="46.1818594" lon="13.6470787"><ele>772.0</ele><time>2026-05-02T09:49:13.138Z</time></trkpt><trkpt lat="46.1818707" lon="13.6468902"><ele>768.75</ele><time>2026-05-02T09:49:14.138Z</time></trkpt><trkpt lat="46.1818826" lon="13.6467079"><ele>765.5</ele><time>2026-05-02T09:49:15.138Z</time></trkpt><trkpt lat="46.1819022" lon="13.6465388"><ele>762.25</ele><time>2026-05-02T09:49:16.138Z</time></trkpt><trkpt lat="46.1819356" lon="13.6463831"><ele>759.0</ele><time>2026-05-02T09:49:17.138Z</time></trkpt><trkpt lat="46.1819835" lon="13.6462444"><ele>754.25</ele><time>2026-05-02T09:49:18.138Z</time></trkpt><trkpt lat="46.1820524" lon="13.6461166"><ele>749.5</ele><time>2026-05-02T09:49:19.138Z</time></trkpt><trkpt lat="46.1821255" lon="13.6459821"><ele>744.75</ele><time>2026-05-02T09:49:20.138Z</time></trkpt><trkpt lat="46.1822008" lon="13.6458332"><ele>740.0</ele><time>2026-05-02T09:49:21.138Z</time></trkpt><trkpt lat="46.1822567" lon="13.6456549"><ele>740.0</ele><time>2026-05-02T09:49:22.138Z</time></trkpt><trkpt lat="46.1823144" lon="13.6454868"><ele>740.0</ele><time>2026-05-02T09:49:23.138Z</time></trkpt><trkpt lat="46.1823643" lon="13.645305"><ele>740.0</ele><time>2026-05-02T09:49:24.138Z</time></trkpt><trkpt lat="46.1824174" lon="13.6451381"><ele>740.0</ele><time>2026-05-02T09:49:25.139Z</time></trkpt><trkpt lat="46.1824829" lon="13.6449787"><ele>740.25</ele><time>2026-05-02T09:49:26.138Z</time></trkpt><trkpt lat="46.1825664" lon="13.6448369"><ele>740.5</ele><time>2026-05-02T09:49:27.138Z</time></trkpt><trkpt lat="46.1826494" lon="13.644703"><ele>740.75</ele><time>2026-05-02T09:49:28.138Z</time></trkpt><trkpt lat="46.1827253" lon="13.6445781"><ele>741.0</ele><time>2026-05-02T09:49:29.138Z</time></trkpt><trkpt lat="46.182785" lon="13.6444484"><ele>741.0</ele><time>2026-05-02T09:49:30.139Z</time></trkpt><trkpt lat="46.1828244" lon="13.6442969"><ele>741.0</ele><time>2026-05-02T09:49:31.139Z</time></trkpt><trkpt lat="46.1828312" lon="13.6441509"><ele>741.0</ele><time>2026-05-02T09:49:32.139Z</time></trkpt><trkpt lat="46.1828082" lon="13.6439956"><ele>741.0</ele><time>2026-05-02T09:49:33.139Z</time></trkpt><trkpt lat="46.1827811" lon="13.643836"><ele>741.0</ele><time>2026-05-02T09:49:34.138Z</time></trkpt><trkpt lat="46.1827613" lon="13.6436811"><ele>740.0</ele><time>2026-05-02T09:49:35.138Z</time></trkpt><trkpt lat="46.1827438" lon="13.6435515"><ele>739.0</ele><time>2026-05-02T09:49:36.139Z</time></trkpt><trkpt lat="46.1827239" lon="13.6434254"><ele>738.0</ele><time>2026-05-02T09:49:37.138Z</time></trkpt><trkpt lat="46.1827064" lon="13.6432969"><ele>737.0</ele><time>2026-05-02T09:49:38.138Z</time></trkpt><trkpt lat="46.182704" lon="13.6431547"><ele>736.0</ele><time>2026-05-02T09:49:39.138Z</time></trkpt><trkpt lat="46.1827031" lon="13.6429945"><ele>736.0</ele><time>2026-05-02T09:49:40.138Z</time></trkpt><trkpt lat="46.1827102" lon="13.642835"><ele>736.0</ele><time>2026-05-02T09:49:41.138Z</time></trkpt><trkpt lat="46.1827285" lon="13.6426883"><ele>736.0</ele><time>2026-05-02T09:49:42.138Z</time></trkpt><trkpt lat="46.182758" lon="13.6425643"><ele>736.0</ele><time>2026-05-02T09:49:43.138Z</time></trkpt><trkpt lat="46.1828069" lon="13.6424509"><ele>736.0</ele><time>2026-05-02T09:49:44.139Z</time></trkpt><trkpt lat="46.1828684" lon="13.6423526"><ele>736.0</ele><time>2026-05-02T09:49:45.138Z</time></trkpt><trkpt lat="46.1829498" lon="13.6422724"><ele>736.0</ele><time>2026-05-02T09:49:46.138Z</time></trkpt><trkpt lat="46.1830482" lon="13.6421968"><ele>736.0</ele><time>2026-05-02T09:49:47.139Z</time></trkpt><trkpt lat="46.1831466" lon="13.6421218"><ele>736.0</ele><time>2026-05-02T09:49:48.138Z</time></trkpt><trkpt lat="46.1832495" lon="13.6420642"><ele>736.0</ele><time>2026-05-02T09:49:49.139Z</time></trkpt><trkpt lat="46.1833449" lon="13.6420125"><ele>738.0</ele><time>2026-05-02T09:49:50.139Z</time></trkpt><trkpt lat="46.1834383" lon="13.6419676"><ele>740.0</ele><time>2026-05-02T09:49:51.138Z</time></trkpt><trkpt lat="46.1835148" lon="13.6419143"><ele>742.0</ele><time>2026-05-02T09:49:52.138Z</time></trkpt><trkpt lat="46.1835708" lon="13.6418208"><ele>744.0</ele><time>2026-05-02T09:49:53.138Z</time></trkpt><trkpt lat="46.1836053" lon="13.6416776"><ele>746.0</ele><time>2026-05-02T09:49:54.138Z</time></trkpt><trkpt lat="46.1836127" lon="13.6415329"><ele>746.0</ele><time>2026-05-02T09:49:55.139Z</time></trkpt><trkpt lat="46.18359" lon="13.6413758"><ele>746.0</ele><time>2026-05-02T09:49:56.138Z</time></trkpt><trkpt lat="46.1835824" lon="13.6412104"><ele>746.0</ele><time>2026-05-02T09:49:57.139Z</time></trkpt><trkpt lat="46.1835976" lon="13.6410463"><ele>746.0</ele><time>2026-05-02T09:49:58.138Z</time></trkpt><trkpt lat="46.1836335" lon="13.6408819"><ele>742.0</ele><time>2026-05-02T09:49:59.138Z</time></trkpt><trkpt lat="46.1836689" lon="13.6407122"><ele>738.0</ele><time>2026-05-02T09:50:00.139Z</time></trkpt><trkpt lat="46.1836888" lon="13.6405335"><ele>734.0</ele><time>2026-05-02T09:50:01.139Z</time></trkpt><trkpt lat="46.1836788" lon="13.6403599"><ele>730.0</ele><time>2026-05-02T09:50:02.138Z</time></trkpt><trkpt lat="46.1836269" lon="13.6401721"><ele>728.75</ele><time>2026-05-02T09:50:03.138Z</time></trkpt><trkpt lat="46.1835656" lon="13.6399764"><ele>727.5</ele><time>2026-05-02T09:50:04.139Z</time></trkpt><trkpt lat="46.1835297" lon="13.6397682"><ele>726.25</ele><time>2026-05-02T09:50:05.139Z</time></trkpt><trkpt lat="46.1834946" lon="13.6395687"><ele>725.0</ele><time>2026-05-02T09:50:06.139Z</time></trkpt><trkpt lat="46.1834604" lon="13.6393899"><ele>724.2</ele><time>2026-05-02T09:50:07.139Z</time></trkpt><trkpt lat="46.1834342" lon="13.6392338"><ele>723.4</ele><time>2026-05-02T09:50:08.139Z</time></trkpt><trkpt lat="46.1834101" lon="13.6390909"><ele>722.5999999999999</ele><time>2026-05-02T09:50:09.139Z</time></trkpt><trkpt lat="46.1834052" lon="13.6389572"><ele>721.8</ele><time>2026-05-02T09:50:10.138Z</time></trkpt><trkpt lat="46.1834326" lon="13.6388474"><ele>721.0</ele><time>2026-05-02T09:50:11.139Z</time></trkpt><trkpt lat="46.1834855" lon="13.6387617"><ele>721.0</ele><time>2026-05-02T09:50:12.139Z</time></trkpt><trkpt lat="46.1835547" lon="13.6386947"><ele>721.0</ele><time>2026-05-02T09:50:13.138Z</time></trkpt><trkpt lat="46.1836168" lon="13.6386415"><ele>721.0</ele><time>2026-05-02T09:50:14.137Z</time></trkpt><trkpt lat="46.1836907" lon="13.6386151"><ele>721.0</ele><time>2026-05-02T09:50:15.137Z</time></trkpt><trkpt lat="46.1837891" lon="13.6385333"><ele>721.0</ele><time>2026-05-02T09:50:17.137Z</time></trkpt><trkpt lat="46.1838117" lon="13.638441"><ele>721.0</ele><time>2026-05-02T09:50:18.137Z</time></trkpt><trkpt lat="46.1838183" lon="13.6383188"><ele>719.4</ele><time>2026-05-02T09:50:19.138Z</time></trkpt><trkpt lat="46.1838176" lon="13.6381871"><ele>717.8</ele><time>2026-05-02T09:50:20.138Z</time></trkpt><trkpt lat="46.1838172" lon="13.6380454"><ele>716.1999999999999</ele><time>2026-05-02T09:50:21.137Z</time></trkpt><trkpt lat="46.1838232" lon="13.6378937"><ele>714.5999999999999</ele><time>2026-05-02T09:50:22.138Z</time></trkpt><trkpt lat="46.1838314" lon="13.6377559"><ele>713.0</ele><time>2026-05-02T09:50:23.138Z</time></trkpt><trkpt lat="46.1838308" lon="13.6376193"><ele>712.8</ele><time>2026-05-02T09:50:24.137Z</time></trkpt><trkpt lat="46.1837971" lon="13.6374922"><ele>712.5999999999999</ele><time>2026-05-02T09:50:25.138Z</time></trkpt><trkpt lat="46.1837519" lon="13.6373692"><ele>712.4000000000001</ele><time>2026-05-02T09:50:26.138Z</time></trkpt><trkpt lat="46.1837298" lon="13.6372344"><ele>712.2</ele><time>2026-05-02T09:50:27.138Z</time></trkpt><trkpt lat="46.1837358" lon="13.6370774"><ele>712.0</ele><time>2026-05-02T09:50:28.138Z</time></trkpt><trkpt lat="46.1837332" lon="13.6368934"><ele>712.0</ele><time>2026-05-02T09:50:29.138Z</time></trkpt><trkpt lat="46.18371" lon="13.6367146"><ele>712.0</ele><time>2026-05-02T09:50:30.137Z</time></trkpt><trkpt lat="46.1836783" lon="13.6365427"><ele>712.0</ele><time>2026-05-02T09:50:31.137Z</time></trkpt><trkpt lat="46.1836295" lon="13.6363868"><ele>712.0</ele><time>2026-05-02T09:50:32.138Z</time></trkpt><trkpt lat="46.1835844" lon="13.6362506"><ele>713.3333333333334</ele><time>2026-05-02T09:50:33.137Z</time></trkpt><trkpt lat="46.18355" lon="13.6361252"><ele>714.6666666666667</ele><time>2026-05-02T09:50:34.137Z</time></trkpt><trkpt lat="46.1835456" lon="13.6360081"><ele>716.0</ele><time>2026-05-02T09:50:35.138Z</time></trkpt><trkpt lat="46.1835623" lon="13.6358944"><ele>717.3333333333334</ele><time>2026-05-02T09:50:36.137Z</time></trkpt><trkpt lat="46.1836051" lon="13.6357923"><ele>718.6666666666666</ele><time>2026-05-02T09:50:37.138Z</time></trkpt><trkpt lat="46.1836651" lon="13.6357196"><ele>720.0</ele><time>2026-05-02T09:50:38.138Z</time></trkpt><trkpt lat="46.1837411" lon="13.6356648"><ele>720.0</ele><time>2026-05-02T09:50:39.137Z</time></trkpt><trkpt lat="46.1838277" lon="13.6356192"><ele>720.0</ele><time>2026-05-02T09:50:40.137Z</time></trkpt><trkpt lat="46.183912" lon="13.6355632"><ele>720.0</ele><time>2026-05-02T09:50:41.138Z</time></trkpt><trkpt lat="46.1839974" lon="13.6355036"><ele>720.0</ele><time>2026-05-02T09:50:42.137Z</time></trkpt><trkpt lat="46.1840776" lon="13.63545"><ele>720.0</ele><time>2026-05-02T09:50:43.137Z</time></trkpt><trkpt lat="46.1841489" lon="13.6353902"><ele>721.8333333333334</ele><time>2026-05-02T09:50:44.138Z</time></trkpt><trkpt lat="46.1842152" lon="13.6353119"><ele>723.6666666666666</ele><time>2026-05-02T09:50:45.138Z</time></trkpt><trkpt lat="46.1842698" lon="13.6352112"><ele>725.5</ele><time>2026-05-02T09:50:46.138Z</time></trkpt><trkpt lat="46.1843288" lon="13.6351185"><ele>727.3333333333333</ele><time>2026-05-02T09:50:47.138Z</time></trkpt><trkpt lat="46.1843876" lon="13.6350429"><ele>729.1666666666666</ele><time>2026-05-02T09:50:48.137Z</time></trkpt><trkpt lat="46.1844409" lon="13.6349609"><ele>731.0</ele><time>2026-05-02T09:50:49.138Z</time></trkpt><trkpt lat="46.1844774" lon="13.6348529"><ele>731.0</ele><time>2026-05-02T09:50:50.138Z</time></trkpt><trkpt lat="46.1844849" lon="13.6347287"><ele>731.0</ele><time>2026-05-02T09:50:51.138Z</time></trkpt><trkpt lat="46.1844847" lon="13.6345979"><ele>731.0</ele><time>2026-05-02T09:50:52.138Z</time></trkpt><trkpt lat="46.1844665" lon="13.6344751"><ele>731.0</ele><time>2026-05-02T09:50:53.137Z</time></trkpt><trkpt lat="46.1844218" lon="13.6343506"><ele>731.0</ele><time>2026-05-02T09:50:54.137Z</time></trkpt><trkpt lat="46.1843626" lon="13.6342552"><ele>729.8333333333333</ele><time>2026-05-02T09:50:55.137Z</time></trkpt><trkpt lat="46.1843024" lon="13.6341573"><ele>728.6666666666666</ele><time>2026-05-02T09:50:56.137Z</time></trkpt><trkpt lat="46.1842446" lon="13.6340621"><ele>727.5</ele><time>2026-05-02T09:50:57.138Z</time></trkpt><trkpt lat="46.1842046" lon="13.6339591"><ele>726.3333333333334</ele><time>2026-05-02T09:50:58.137Z</time></trkpt><trkpt lat="46.1841884" lon="13.6338258"><ele>725.1666666666667</ele><time>2026-05-02T09:50:59.138Z</time></trkpt><trkpt lat="46.184195" lon="13.6336879"><ele>724.0</ele><time>2026-05-02T09:51:00.138Z</time></trkpt><trkpt lat="46.1842162" lon="13.6335185"><ele>724.0</ele><time>2026-05-02T09:51:01.137Z</time></trkpt><trkpt lat="46.1842129" lon="13.6333464"><ele>724.0</ele><time>2026-05-02T09:51:02.137Z</time></trkpt><trkpt lat="46.1841886" lon="13.6331896"><ele>724.0</ele><time>2026-05-02T09:51:03.137Z</time></trkpt><trkpt lat="46.1841622" lon="13.6330522"><ele>724.0</ele><time>2026-05-02T09:51:04.138Z</time></trkpt><trkpt lat="46.1841644" lon="13.6329179"><ele>724.0</ele><time>2026-05-02T09:51:05.138Z</time></trkpt><trkpt lat="46.1841846" lon="13.632792"><ele>722.6</ele><time>2026-05-02T09:51:06.137Z</time></trkpt><trkpt lat="46.1842231" lon="13.6326701"><ele>721.2</ele><time>2026-05-02T09:51:07.137Z</time></trkpt><trkpt lat="46.1842569" lon="13.632539"><ele>719.8000000000001</ele><time>2026-05-02T09:51:08.138Z</time></trkpt><trkpt lat="46.1842909" lon="13.6324041"><ele>718.4000000000001</ele><time>2026-05-02T09:51:09.138Z</time></trkpt><trkpt lat="46.1843114" lon="13.632269"><ele>717.0</ele><time>2026-05-02T09:51:10.138Z</time></trkpt><trkpt lat="46.1843247" lon="13.6321339"><ele>717.0</ele><time>2026-05-02T09:51:11.137Z</time></trkpt><trkpt lat="46.1843134" lon="13.6320136"><ele>717.0</ele><time>2026-05-02T09:51:12.137Z</time></trkpt><trkpt lat="46.1842697" lon="13.6319108"><ele>717.0</ele><time>2026-05-02T09:51:13.137Z</time></trkpt><trkpt lat="46.1842009" lon="13.6318197"><ele>717.0</ele><time>2026-05-02T09:51:14.137Z</time></trkpt><trkpt lat="46.184115" lon="13.6317191"><ele>717.0</ele><time>2026-05-02T09:51:15.137Z</time></trkpt><trkpt lat="46.1840196" lon="13.6316187"><ele>711.5</ele><time>2026-05-02T09:51:16.138Z</time></trkpt><trkpt lat="46.1839061" lon="13.6315064"><ele>706.0</ele><time>2026-05-02T09:51:17.138Z</time></trkpt><trkpt lat="46.1838088" lon="13.6314334"><ele>700.5</ele><time>2026-05-02T09:51:18.137Z</time></trkpt><trkpt lat="46.1837043" lon="13.6313903"><ele>695.0</ele><time>2026-05-02T09:51:19.138Z</time></trkpt><trkpt lat="46.1836065" lon="13.6313408"><ele>695.0</ele><time>2026-05-02T09:51:20.137Z</time></trkpt><trkpt lat="46.1835134" lon="13.6312806"><ele>695.0</ele><time>2026-05-02T09:51:21.137Z</time></trkpt><trkpt lat="46.18344" lon="13.6312086"><ele>695.0</ele><time>2026-05-02T09:51:22.138Z</time></trkpt><trkpt lat="46.1833755" lon="13.631105"><ele>695.0</ele><time>2026-05-02T09:51:23.137Z</time></trkpt><trkpt lat="46.1833266" lon="13.6309707"><ele>695.0</ele><time>2026-05-02T09:51:24.137Z</time></trkpt><trkpt lat="46.1832718" lon="13.6308172"><ele>693.8</ele><time>2026-05-02T09:51:25.138Z</time></trkpt><trkpt lat="46.1832182" lon="13.6306508"><ele>692.6</ele><time>2026-05-02T09:51:26.137Z</time></trkpt><trkpt lat="46.1831784" lon="13.6305074"><ele>691.4000000000001</ele><time>2026-05-02T09:51:27.137Z</time></trkpt><trkpt lat="46.1831553" lon="13.6303702"><ele>690.2</ele><time>2026-05-02T09:51:28.137Z</time></trkpt><trkpt lat="46.183155" lon="13.6302253"><ele>689.0</ele><time>2026-05-02T09:51:29.137Z</time></trkpt><trkpt lat="46.1831748" lon="13.6300708"><ele>699.0</ele><time>2026-05-02T09:51:30.137Z</time></trkpt><trkpt lat="46.1832108" lon="13.6299284"><ele>709.0</ele><time>2026-05-02T09:51:31.138Z</time></trkpt><trkpt lat="46.1832589" lon="13.629783"><ele>719.0</ele><time>2026-05-02T09:51:32.137Z</time></trkpt><trkpt lat="46.1832999" lon="13.6296382"><ele>729.0</ele><time>2026-05-02T09:51:33.137Z</time></trkpt><trkpt lat="46.183326" lon="13.6294904"><ele>739.0</ele><time>2026-05-02T09:51:34.137Z</time></trkpt><trkpt lat="46.1833373" lon="13.6293493"><ele>739.1666666666667</ele><time>2026-05-02T09:51:35.137Z</time></trkpt><trkpt lat="46.1833404" lon="13.6292163"><ele>739.3333333333334</ele><time>2026-05-02T09:51:36.137Z</time></trkpt><trkpt lat="46.1833425" lon="13.6291093"><ele>739.5</ele><time>2026-05-02T09:51:37.137Z</time></trkpt><trkpt lat="46.1833327" lon="13.6289933"><ele>739.6666666666666</ele><time>2026-05-02T09:51:38.137Z</time></trkpt><trkpt lat="46.1833057" lon="13.6288751"><ele>739.8333333333333</ele><time>2026-05-02T09:51:39.138Z</time></trkpt><trkpt lat="46.1832727" lon="13.6287527"><ele>740.0</ele><time>2026-05-02T09:51:40.137Z</time></trkpt><trkpt lat="46.1832353" lon="13.6286235"><ele>741.6</ele><time>2026-05-02T09:51:41.137Z</time></trkpt><trkpt lat="46.1831981" lon="13.6284889"><ele>743.2</ele><time>2026-05-02T09:51:42.137Z</time></trkpt><trkpt lat="46.183161" lon="13.6283421"><ele>744.8</ele><time>2026-05-02T09:51:43.137Z</time></trkpt><trkpt lat="46.1831221" lon="13.6282042"><ele>746.4</ele><time>2026-05-02T09:51:44.138Z</time></trkpt><trkpt lat="46.1830781" lon="13.6280753"><ele>748.0</ele><time>2026-05-02T09:51:45.138Z</time></trkpt><trkpt lat="46.1830225" lon="13.6279532"><ele>747.3333333333334</ele><time>2026-05-02T09:51:46.138Z</time></trkpt><trkpt lat="46.1829654" lon="13.6278356"><ele>746.6666666666667</ele><time>2026-05-02T09:51:47.137Z</time></trkpt><trkpt lat="46.1829149" lon="13.6277222"><ele>746.0</ele><time>2026-05-02T09:51:48.137Z</time></trkpt><trkpt lat="46.1828631" lon="13.6276201"><ele>745.3333333333334</ele><time>2026-05-02T09:51:49.138Z</time></trkpt><trkpt lat="46.1828067" lon="13.6275277"><ele>744.6666666666666</ele><time>2026-05-02T09:51:50.137Z</time></trkpt><trkpt lat="46.1827545" lon="13.6274544"><ele>744.0</ele><time>2026-05-02T09:51:51.137Z</time></trkpt><trkpt lat="46.1826893" lon="13.6274186"><ele>744.0</ele><time>2026-05-02T09:51:52.137Z</time></trkpt><trkpt lat="46.1826058" lon="13.6274097"><ele>744.0</ele><time>2026-05-02T09:51:53.137Z</time></trkpt><trkpt lat="46.1825237" lon="13.6274403"><ele>744.0</ele><time>2026-05-02T09:51:54.138Z</time></trkpt><trkpt lat="46.1824448" lon="13.6274912"><ele>744.0</ele><time>2026-05-02T09:51:55.138Z</time></trkpt><trkpt lat="46.1823689" lon="13.6275648"><ele>744.0</ele><time>2026-05-02T09:51:56.138Z</time></trkpt><trkpt lat="46.1822947" lon="13.6276509"><ele>744.0</ele><time>2026-05-02T09:51:57.137Z</time></trkpt><trkpt lat="46.1822145" lon="13.6277267"><ele>742.0</ele><time>2026-05-02T09:51:58.137Z</time></trkpt><trkpt lat="46.1821312" lon="13.6278068"><ele>740.0</ele><time>2026-05-02T09:51:59.138Z</time></trkpt><trkpt lat="46.1820456" lon="13.6278951"><ele>738.0</ele><time>2026-05-02T09:52:00.137Z</time></trkpt><trkpt lat="46.1819597" lon="13.6279909"><ele>736.0</ele><time>2026-05-02T09:52:01.138Z</time></trkpt><trkpt lat="46.1818593" lon="13.6280875"><ele>734.0</ele><time>2026-05-02T09:52:02.138Z</time></trkpt><trkpt lat="46.181765" lon="13.6281836"><ele>734.0</ele><time>2026-05-02T09:52:03.137Z</time></trkpt><trkpt lat="46.1816794" lon="13.6282785"><ele>734.0</ele><time>2026-05-02T09:52:04.137Z</time></trkpt><trkpt lat="46.1815953" lon="13.628376"><ele>734.0</ele><time>2026-05-02T09:52:05.137Z</time></trkpt><trkpt lat="46.1815198" lon="13.6284782"><ele>734.0</ele><time>2026-05-02T09:52:06.137Z</time></trkpt><trkpt lat="46.1814427" lon="13.628571"><ele>734.0</ele><time>2026-05-02T09:52:07.138Z</time></trkpt><trkpt lat="46.1813765" lon="13.6286574"><ele>728.8333333333333</ele><time>2026-05-02T09:52:08.138Z</time></trkpt><trkpt lat="46.1813118" lon="13.628742"><ele>723.6666666666666</ele><time>2026-05-02T09:52:09.138Z</time></trkpt><trkpt lat="46.1812396" lon="13.6288098"><ele>718.5</ele><time>2026-05-02T09:52:10.137Z</time></trkpt><trkpt lat="46.181168" lon="13.6288575"><ele>713.3333333333334</ele><time>2026-05-02T09:52:11.138Z</time></trkpt><trkpt lat="46.1811041" lon="13.6288828"><ele>708.1666666666667</ele><time>2026-05-02T09:52:12.138Z</time></trkpt><trkpt lat="46.1810085" lon="13.6288155"><ele>703.0</ele><time>2026-05-02T09:52:14.137Z</time></trkpt><trkpt lat="46.1809898" lon="13.6287042"><ele>703.0</ele><time>2026-05-02T09:52:15.137Z</time></trkpt><trkpt lat="46.1809659" lon="13.6285783"><ele>703.0</ele><time>2026-05-02T09:52:16.137Z</time></trkpt><trkpt lat="46.180929" lon="13.6284857"><ele>703.0</ele><time>2026-05-02T09:52:17.137Z</time></trkpt><trkpt lat="46.1808576" lon="13.6283957"><ele>703.0</ele><time>2026-05-02T09:52:18.138Z</time></trkpt><trkpt lat="46.1807683" lon="13.6283421"><ele>703.0</ele><time>2026-05-02T09:52:19.137Z</time></trkpt><trkpt lat="46.1806962" lon="13.6283239"><ele>703.0</ele><time>2026-05-02T09:52:20.138Z</time></trkpt><trkpt lat="46.1805761" lon="13.628293"><ele>703.0</ele><time>2026-05-02T09:52:22.137Z</time></trkpt><trkpt lat="46.1805137" lon="13.6282542"><ele>703.0</ele><time>2026-05-02T09:52:23.137Z</time></trkpt><trkpt lat="46.1804507" lon="13.6281994"><ele>703.0</ele><time>2026-05-02T09:52:24.137Z</time></trkpt><trkpt lat="46.1803774" lon="13.6281282"><ele>703.0</ele><time>2026-05-02T09:52:25.137Z</time></trkpt><trkpt lat="46.1802962" lon="13.628064"><ele>703.0</ele><time>2026-05-02T09:52:26.138Z</time></trkpt><trkpt lat="46.1802048" lon="13.6280428"><ele>703.0</ele><time>2026-05-02T09:52:27.137Z</time></trkpt><trkpt lat="46.1801247" lon="13.6280451"><ele>703.0</ele><time>2026-05-02T09:52:28.137Z</time></trkpt><trkpt lat="46.180061" lon="13.628022"><ele>703.0</ele><time>2026-05-02T09:52:29.137Z</time></trkpt><trkpt lat="46.1800018" lon="13.6279605"><ele>703.0</ele><time>2026-05-02T09:52:30.137Z</time></trkpt><trkpt lat="46.179949" lon="13.627849"><ele>703.0</ele><time>2026-05-02T09:52:31.138Z</time></trkpt><trkpt lat="46.1798996" lon="13.6277108"><ele>703.0</ele><time>2026-05-02T09:52:32.137Z</time></trkpt><trkpt lat="46.1798605" lon="13.6275574"><ele>704.4</ele><time>2026-05-02T09:52:33.137Z</time></trkpt><trkpt lat="46.1798321" lon="13.6274215"><ele>705.8</ele><time>2026-05-02T09:52:34.138Z</time></trkpt><trkpt lat="46.1797987" lon="13.627316"><ele>707.2</ele><time>2026-05-02T09:52:35.137Z</time></trkpt><trkpt lat="46.1797527" lon="13.6272196"><ele>708.6</ele><time>2026-05-02T09:52:36.137Z</time></trkpt><trkpt lat="46.1796829" lon="13.6271259"><ele>710.0</ele><time>2026-05-02T09:52:37.137Z</time></trkpt><trkpt lat="46.1795852" lon="13.6270574"><ele>710.0</ele><time>2026-05-02T09:52:38.137Z</time></trkpt><trkpt lat="46.1794892" lon="13.6270163"><ele>710.0</ele><time>2026-05-02T09:52:39.137Z</time></trkpt><trkpt lat="46.1794019" lon="13.6269959"><ele>710.0</ele><time>2026-05-02T09:52:40.138Z</time></trkpt><trkpt lat="46.1793098" lon="13.6269666"><ele>710.0</ele><time>2026-05-02T09:52:41.137Z</time></trkpt><trkpt lat="46.179213" lon="13.6269599"><ele>710.0</ele><time>2026-05-02T09:52:42.137Z</time></trkpt><trkpt lat="46.1791215" lon="13.6269869"><ele>710.0</ele><time>2026-05-02T09:52:43.137Z</time></trkpt><trkpt lat="46.1790371" lon="13.6270307"><ele>710.0</ele><time>2026-05-02T09:52:44.137Z</time></trkpt><trkpt lat="46.1789588" lon="13.6270462"><ele>710.0</ele><time>2026-05-02T09:52:45.137Z</time></trkpt><trkpt lat="46.1788934" lon="13.6270176"><ele>710.0</ele><time>2026-05-02T09:52:46.137Z</time></trkpt><trkpt lat="46.1788371" lon="13.6268899"><ele>710.0</ele><time>2026-05-02T09:52:48.138Z</time></trkpt><trkpt lat="46.1788531" lon="13.6266964"><ele>705.0</ele><time>2026-05-02T09:52:50.137Z</time></trkpt><trkpt lat="46.1788758" lon="13.6265485"><ele>700.0</ele><time>2026-05-02T09:52:51.138Z</time></trkpt><trkpt lat="46.1789001" lon="13.6263834"><ele>695.0</ele><time>2026-05-02T09:52:52.137Z</time></trkpt><trkpt lat="46.1789112" lon="13.6262217"><ele>690.0</ele><time>2026-05-02T09:52:53.138Z</time></trkpt><trkpt lat="46.1789139" lon="13.626071"><ele>685.0</ele><time>2026-05-02T09:52:54.137Z</time></trkpt><trkpt lat="46.1789167" lon="13.6259208"><ele>685.0</ele><time>2026-05-02T09:52:55.138Z</time></trkpt><trkpt lat="46.1789343" lon="13.6257831"><ele>685.0</ele><time>2026-05-02T09:52:56.138Z</time></trkpt><trkpt lat="46.1789573" lon="13.6256643"><ele>685.0</ele><time>2026-05-02T09:52:57.137Z</time></trkpt><trkpt lat="46.1789643" lon="13.6255448"><ele>685.0</ele><time>2026-05-02T09:52:58.138Z</time></trkpt><trkpt lat="46.1789402" lon="13.6254523"><ele>685.0</ele><time>2026-05-02T09:52:59.137Z</time></trkpt><trkpt lat="46.1788945" lon="13.6253539"><ele>685.0</ele><time>2026-05-02T09:53:00.137Z</time></trkpt><trkpt lat="46.1788268" lon="13.6252605"><ele>690.0</ele><time>2026-05-02T09:53:01.137Z</time></trkpt><trkpt lat="46.1787457" lon="13.6251771"><ele>695.0</ele><time>2026-05-02T09:53:02.137Z</time></trkpt><trkpt lat="46.1786607" lon="13.6251115"><ele>700.0</ele><time>2026-05-02T09:53:03.138Z</time></trkpt><trkpt lat="46.1785745" lon="13.6250794"><ele>705.0</ele><time>2026-05-02T09:53:04.137Z</time></trkpt><trkpt lat="46.1784852" lon="13.6251042"><ele>710.0</ele><time>2026-05-02T09:53:05.137Z</time></trkpt><trkpt lat="46.1783979" lon="13.6251211"><ele>710.0</ele><time>2026-05-02T09:53:06.137Z</time></trkpt><trkpt lat="46.1783055" lon="13.6251076"><ele>710.0</ele><time>2026-05-02T09:53:07.137Z</time></trkpt><trkpt lat="46.178217" lon="13.6250647"><ele>710.0</ele><time>2026-05-02T09:53:08.137Z</time></trkpt><trkpt lat="46.1781468" lon="13.6250076"><ele>710.0</ele><time>2026-05-02T09:53:09.137Z</time></trkpt><trkpt lat="46.1780716" lon="13.624854"><ele>710.0</ele><time>2026-05-02T09:53:11.137Z</time></trkpt><trkpt lat="46.178061" lon="13.6247456"><ele>709.1666666666666</ele><time>2026-05-02T09:53:12.137Z</time></trkpt><trkpt lat="46.1780425" lon="13.6246544"><ele>708.3333333333333</ele><time>2026-05-02T09:53:13.138Z</time></trkpt><trkpt lat="46.1780159" lon="13.6245313"><ele>707.5</ele><time>2026-05-02T09:53:14.138Z</time></trkpt><trkpt lat="46.1779731" lon="13.6244243"><ele>706.6666666666666</ele><time>2026-05-02T09:53:15.138Z</time></trkpt><trkpt lat="46.1779205" lon="13.6243433"><ele>705.8333333333334</ele><time>2026-05-02T09:53:16.137Z</time></trkpt><trkpt lat="46.1778641" lon="13.6242897"><ele>705.0</ele><time>2026-05-02T09:53:17.138Z</time></trkpt><trkpt lat="46.1777831" lon="13.624256"><ele>705.0</ele><time>2026-05-02T09:53:18.138Z</time></trkpt><trkpt lat="46.1777022" lon="13.6242487"><ele>705.0</ele><time>2026-05-02T09:53:19.137Z</time></trkpt><trkpt lat="46.1776292" lon="13.6242621"><ele>705.0</ele><time>2026-05-02T09:53:20.137Z</time></trkpt><trkpt lat="46.1775522" lon="13.6242693"><ele>705.0</ele><time>2026-05-02T09:53:21.138Z</time></trkpt><trkpt lat="46.1774706" lon="13.6242577"><ele>705.0</ele><time>2026-05-02T09:53:22.138Z</time></trkpt><trkpt lat="46.1773944" lon="13.624225"><ele>705.0</ele><time>2026-05-02T09:53:23.137Z</time></trkpt><trkpt lat="46.1773121" lon="13.624184"><ele>700.4</ele><time>2026-05-02T09:53:24.137Z</time></trkpt><trkpt lat="46.17723" lon="13.6241272"><ele>695.8</ele><time>2026-05-02T09:53:25.137Z</time></trkpt><trkpt lat="46.1771654" lon="13.6240471"><ele>691.2</ele><time>2026-05-02T09:53:26.137Z</time></trkpt><trkpt lat="46.1771052" lon="13.6239453"><ele>686.6</ele><time>2026-05-02T09:53:27.137Z</time></trkpt><trkpt lat="46.1770526" lon="13.6238397"><ele>682.0</ele><time>2026-05-02T09:53:28.138Z</time></trkpt><trkpt lat="46.1770019" lon="13.6237262"><ele>682.0</ele><time>2026-05-02T09:53:29.137Z</time></trkpt><trkpt lat="46.1769404" lon="13.6236517"><ele>682.0</ele><time>2026-05-02T09:53:30.138Z</time></trkpt><trkpt lat="46.1768663" lon="13.6236579"><ele>682.0</ele><time>2026-05-02T09:53:31.137Z</time></trkpt><trkpt lat="46.176775" lon="13.6236821"><ele>682.0</ele><time>2026-05-02T09:53:32.137Z</time></trkpt><trkpt lat="46.1766919" lon="13.6236922"><ele>682.0</ele><time>2026-05-02T09:53:33.138Z</time></trkpt><trkpt lat="46.1766155" lon="13.6236741"><ele>682.0</ele><time>2026-05-02T09:53:34.137Z</time></trkpt><trkpt lat="46.1765473" lon="13.6236378"><ele>680.8</ele><time>2026-05-02T09:53:35.137Z</time></trkpt><trkpt lat="46.1764947" lon="13.6235645"><ele>679.6</ele><time>2026-05-02T09:53:36.137Z</time></trkpt><trkpt lat="46.1764304" lon="13.6234813"><ele>678.4</ele><time>2026-05-02T09:53:37.138Z</time></trkpt><trkpt lat="46.1763709" lon="13.6233758"><ele>677.1999999999999</ele><time>2026-05-02T09:53:38.137Z</time></trkpt><trkpt lat="46.1763058" lon="13.623266"><ele>676.0</ele><time>2026-05-02T09:53:39.137Z</time></trkpt><trkpt lat="46.176244" lon="13.6231519"><ele>676.0</ele><time>2026-05-02T09:53:40.138Z</time></trkpt><trkpt lat="46.1761888" lon="13.6230517"><ele>676.0</ele><time>2026-05-02T09:53:41.138Z</time></trkpt><trkpt lat="46.176144" lon="13.622945"><ele>676.0</ele><time>2026-05-02T09:53:42.138Z</time></trkpt><trkpt lat="46.1760915" lon="13.6228448"><ele>676.0</ele><time>2026-05-02T09:53:43.137Z</time></trkpt><trkpt lat="46.1760217" lon="13.6227656"><ele>676.0</ele><time>2026-05-02T09:53:44.137Z</time></trkpt><trkpt lat="46.1759268" lon="13.6227102"><ele>677.5999999999999</ele><time>2026-05-02T09:53:45.137Z</time></trkpt><trkpt lat="46.1758333" lon="13.6226708"><ele>679.2</ele><time>2026-05-02T09:53:46.138Z</time></trkpt><trkpt lat="46.1757352" lon="13.6226507"><ele>680.8</ele><time>2026-05-02T09:53:47.137Z</time></trkpt><trkpt lat="46.1756438" lon="13.6226569"><ele>682.4000000000001</ele><time>2026-05-02T09:53:48.137Z</time></trkpt><trkpt lat="46.1755397" lon="13.622689"><ele>684.0</ele><time>2026-05-02T09:53:49.137Z</time></trkpt><trkpt lat="46.1754397" lon="13.6226973"><ele>684.0</ele><time>2026-05-02T09:53:50.137Z</time></trkpt><trkpt lat="46.1753386" lon="13.6226863"><ele>684.0</ele><time>2026-05-02T09:53:51.137Z</time></trkpt><trkpt lat="46.1752512" lon="13.6226681"><ele>684.0</ele><time>2026-05-02T09:53:52.138Z</time></trkpt><trkpt lat="46.1751663" lon="13.6226743"><ele>684.0</ele><time>2026-05-02T09:53:53.138Z</time></trkpt><trkpt lat="46.1750888" lon="13.6226845"><ele>684.0</ele><time>2026-05-02T09:53:54.137Z</time></trkpt><trkpt lat="46.1749777" lon="13.6226394"><ele>684.0</ele><time>2026-05-02T09:53:56.137Z</time></trkpt><trkpt lat="46.1749456" lon="13.6224931"><ele>684.0</ele><time>2026-05-02T09:53:58.137Z</time></trkpt><trkpt lat="46.1749904" lon="13.6223713"><ele>684.0</ele><time>2026-05-02T09:54:00.137Z</time></trkpt><trkpt lat="46.1750505" lon="13.6222876"><ele>684.0</ele><time>2026-05-02T09:54:01.138Z</time></trkpt><trkpt lat="46.175093" lon="13.6221527"><ele>684.0</ele><time>2026-05-02T09:54:02.137Z</time></trkpt><trkpt lat="46.175122" lon="13.6220449"><ele>682.3333333333334</ele><time>2026-05-02T09:54:03.137Z</time></trkpt><trkpt lat="46.1751456" lon="13.6219386"><ele>680.6666666666666</ele><time>2026-05-02T09:54:04.137Z</time></trkpt><trkpt lat="46.1751698" lon="13.6218313"><ele>679.0</ele><time>2026-05-02T09:54:05.138Z</time></trkpt><trkpt lat="46.1752095" lon="13.6217379"><ele>677.3333333333333</ele><time>2026-05-02T09:54:06.137Z</time></trkpt><trkpt lat="46.175259" lon="13.6216585"><ele>675.6666666666666</ele><time>2026-05-02T09:54:07.137Z</time></trkpt><trkpt lat="46.1753217" lon="13.6215891"><ele>674.0</ele><time>2026-05-02T09:54:08.137Z</time></trkpt><trkpt lat="46.1753779" lon="13.6215222"><ele>674.0</ele><time>2026-05-02T09:54:09.137Z</time></trkpt><trkpt lat="46.175414" lon="13.6214225"><ele>674.0</ele><time>2026-05-02T09:54:10.137Z</time></trkpt><trkpt lat="46.1754202" lon="13.6213179"><ele>674.0</ele><time>2026-05-02T09:54:11.136Z</time></trkpt><trkpt lat="46.1753831" lon="13.6211956"><ele>674.0</ele><time>2026-05-02T09:54:12.136Z</time></trkpt><trkpt lat="46.1753182" lon="13.6210844"><ele>674.0</ele><time>2026-05-02T09:54:13.136Z</time></trkpt><trkpt lat="46.1752526" lon="13.6209738"><ele>674.0</ele><time>2026-05-02T09:54:14.136Z</time></trkpt><trkpt lat="46.1751831" lon="13.6208638"><ele>673.8000000000001</ele><time>2026-05-02T09:54:15.136Z</time></trkpt><trkpt lat="46.1751115" lon="13.620765"><ele>673.6</ele><time>2026-05-02T09:54:16.136Z</time></trkpt><trkpt lat="46.1750357" lon="13.6206728"><ele>673.4</ele><time>2026-05-02T09:54:17.137Z</time></trkpt><trkpt lat="46.1749643" lon="13.6205861"><ele>673.2</ele><time>2026-05-02T09:54:18.136Z</time></trkpt><trkpt lat="46.1749034" lon="13.6204943"><ele>673.0</ele><time>2026-05-02T09:54:19.136Z</time></trkpt><trkpt lat="46.1748632" lon="13.6203898"><ele>663.1999999999999</ele><time>2026-05-02T09:54:20.136Z</time></trkpt><trkpt lat="46.1748312" lon="13.6202663"><ele>653.4</ele><time>2026-05-02T09:54:21.137Z</time></trkpt><trkpt lat="46.1748087" lon="13.620128"><ele>643.5999999999999</ele><time>2026-05-02T09:54:22.136Z</time></trkpt><trkpt lat="46.1747987" lon="13.6199866"><ele>633.8</ele><time>2026-05-02T09:54:23.137Z</time></trkpt><trkpt lat="46.1747995" lon="13.619845"><ele>624.0</ele><time>2026-05-02T09:54:24.136Z</time></trkpt><trkpt lat="46.1748158" lon="13.6197088"><ele>624.0</ele><time>2026-05-02T09:54:25.136Z</time></trkpt><trkpt lat="46.1748436" lon="13.6195696"><ele>624.0</ele><time>2026-05-02T09:54:26.136Z</time></trkpt><trkpt lat="46.174857" lon="13.6194277"><ele>624.0</ele><time>2026-05-02T09:54:27.137Z</time></trkpt><trkpt lat="46.1748636" lon="13.6192786"><ele>624.0</ele><time>2026-05-02T09:54:28.137Z</time></trkpt><trkpt lat="46.1748657" lon="13.6191327"><ele>624.0</ele><time>2026-05-02T09:54:29.136Z</time></trkpt><trkpt lat="46.1748847" lon="13.6189839"><ele>634.25</ele><time>2026-05-02T09:54:30.137Z</time></trkpt><trkpt lat="46.174927" lon="13.6188252"><ele>644.5</ele><time>2026-05-02T09:54:31.137Z</time></trkpt><trkpt lat="46.1749513" lon="13.6186648"><ele>654.75</ele><time>2026-05-02T09:54:32.136Z</time></trkpt><trkpt lat="46.1749619" lon="13.6184987"><ele>665.0</ele><time>2026-05-02T09:54:33.136Z</time></trkpt><trkpt lat="46.17495" lon="13.618344"><ele>665.0</ele><time>2026-05-02T09:54:34.136Z</time></trkpt><trkpt lat="46.1749187" lon="13.6182081"><ele>665.0</ele><time>2026-05-02T09:54:35.136Z</time></trkpt><trkpt lat="46.1748702" lon="13.6180784"><ele>665.0</ele><time>2026-05-02T09:54:36.136Z</time></trkpt><trkpt lat="46.1748095" lon="13.6179725"><ele>665.0</ele><time>2026-05-02T09:54:37.136Z</time></trkpt><trkpt lat="46.174756" lon="13.6178372"><ele>665.0</ele><time>2026-05-02T09:54:38.137Z</time></trkpt><trkpt lat="46.1747214" lon="13.6176649"><ele>654.5</ele><time>2026-05-02T09:54:39.137Z</time></trkpt><trkpt lat="46.174691" lon="13.6174858"><ele>644.0</ele><time>2026-05-02T09:54:40.136Z</time></trkpt><trkpt lat="46.1746578" lon="13.6173183"><ele>633.5</ele><time>2026-05-02T09:54:41.136Z</time></trkpt><trkpt lat="46.1746277" lon="13.6171537"><ele>623.0</ele><time>2026-05-02T09:54:42.137Z</time></trkpt><trkpt lat="46.1745899" lon="13.6170086"><ele>626.5999999999999</ele><time>2026-05-02T09:54:43.136Z</time></trkpt><trkpt lat="46.1745407" lon="13.6168742"><ele>630.1999999999999</ele><time>2026-05-02T09:54:44.137Z</time></trkpt><trkpt lat="46.1744729" lon="13.6167685"><ele>633.8</ele><time>2026-05-02T09:54:45.137Z</time></trkpt><trkpt lat="46.1744009" lon="13.6166788"><ele>637.4</ele><time>2026-05-02T09:54:46.137Z</time></trkpt><trkpt lat="46.1743278" lon="13.6165941"><ele>641.0</ele><time>2026-05-02T09:54:47.136Z</time></trkpt><trkpt lat="46.1742557" lon="13.6165153"><ele>641.0</ele><time>2026-05-02T09:54:48.136Z</time></trkpt><trkpt lat="46.174187" lon="13.6164409"><ele>641.0</ele><time>2026-05-02T09:54:49.136Z</time></trkpt><trkpt lat="46.1741165" lon="13.6163665"><ele>641.0</ele><time>2026-05-02T09:54:50.137Z</time></trkpt><trkpt lat="46.1740425" lon="13.6162918"><ele>641.0</ele><time>2026-05-02T09:54:51.137Z</time></trkpt><trkpt lat="46.1739759" lon="13.6162003"><ele>641.0</ele><time>2026-05-02T09:54:52.137Z</time></trkpt><trkpt lat="46.1739093" lon="13.6160964"><ele>640.4</ele><time>2026-05-02T09:54:53.137Z</time></trkpt><trkpt lat="46.1738428" lon="13.6159901"><ele>639.8</ele><time>2026-05-02T09:54:54.136Z</time></trkpt><trkpt lat="46.1737808" lon="13.615886"><ele>639.1999999999999</ele><time>2026-05-02T09:54:55.137Z</time></trkpt><trkpt lat="46.1737142" lon="13.6157946"><ele>638.5999999999999</ele><time>2026-05-02T09:54:56.137Z</time></trkpt><trkpt lat="46.1736359" lon="13.6157187"><ele>638.0</ele><time>2026-05-02T09:54:57.136Z</time></trkpt><trkpt lat="46.17356" lon="13.6156426"><ele>638.0</ele><time>2026-05-02T09:54:58.136Z</time></trkpt><trkpt lat="46.1734879" lon="13.6155545"><ele>638.0</ele><time>2026-05-02T09:54:59.136Z</time></trkpt><trkpt lat="46.1734312" lon="13.6154369"><ele>638.0</ele><time>2026-05-02T09:55:00.136Z</time></trkpt><trkpt lat="46.1733786" lon="13.61531"><ele>638.0</ele><time>2026-05-02T09:55:01.137Z</time></trkpt><trkpt lat="46.1733315" lon="13.6151467"><ele>638.0</ele><time>2026-05-02T09:55:02.137Z</time></trkpt><trkpt lat="46.1732842" lon="13.6149771"><ele>636.25</ele><time>2026-05-02T09:55:03.136Z</time></trkpt><trkpt lat="46.1732409" lon="13.6148022"><ele>634.5</ele><time>2026-05-02T09:55:04.137Z</time></trkpt><trkpt lat="46.1731975" lon="13.6146158"><ele>632.75</ele><time>2026-05-02T09:55:05.136Z</time></trkpt><trkpt lat="46.1731502" lon="13.61441"><ele>631.0</ele><time>2026-05-02T09:55:06.136Z</time></trkpt><trkpt lat="46.1731002" lon="13.6142019"><ele>623.25</ele><time>2026-05-02T09:55:07.136Z</time></trkpt><trkpt lat="46.173039" lon="13.6139959"><ele>615.5</ele><time>2026-05-02T09:55:08.137Z</time></trkpt><trkpt lat="46.1729769" lon="13.6137968"><ele>607.75</ele><time>2026-05-02T09:55:09.137Z</time></trkpt><trkpt lat="46.1729164" lon="13.613614"><ele>600.0</ele><time>2026-05-02T09:55:10.137Z</time></trkpt><trkpt lat="46.1728595" lon="13.6134663"><ele>600.0</ele><time>2026-05-02T09:55:11.136Z</time></trkpt><trkpt lat="46.1727964" lon="13.6133315"><ele>600.0</ele><time>2026-05-02T09:55:12.136Z</time></trkpt><trkpt lat="46.1727421" lon="13.6131961"><ele>600.0</ele><time>2026-05-02T09:55:13.136Z</time></trkpt><trkpt lat="46.1726908" lon="13.6130618"><ele>600.0</ele><time>2026-05-02T09:55:14.137Z</time></trkpt><trkpt lat="46.172633" lon="13.6129417"><ele>600.0</ele><time>2026-05-02T09:55:15.136Z</time></trkpt><trkpt lat="46.1725721" lon="13.6128248"><ele>601.6666666666666</ele><time>2026-05-02T09:55:16.136Z</time></trkpt><trkpt lat="46.1725142" lon="13.6127244"><ele>603.3333333333334</ele><time>2026-05-02T09:55:17.136Z</time></trkpt><trkpt lat="46.1724617" lon="13.612635"><ele>605.0</ele><time>2026-05-02T09:55:18.136Z</time></trkpt><trkpt lat="46.1724104" lon="13.6125711"><ele>606.6666666666667</ele><time>2026-05-02T09:55:19.136Z</time></trkpt><trkpt lat="46.172338" lon="13.6125506"><ele>608.3333333333334</ele><time>2026-05-02T09:55:21.136Z</time></trkpt><trkpt lat="46.1722649" lon="13.6125651"><ele>610.0</ele><time>2026-05-02T09:55:23.137Z</time></trkpt><trkpt lat="46.1721636" lon="13.6125194"><ele>610.0</ele><time>2026-05-02T09:55:25.137Z</time></trkpt><trkpt lat="46.172058" lon="13.612471"><ele>610.0</ele><time>2026-05-02T09:55:27.136Z</time></trkpt><trkpt lat="46.1719391" lon="13.6124261"><ele>610.0</ele><time>2026-05-02T09:55:29.137Z</time></trkpt><trkpt lat="46.1718186" lon="13.6124188"><ele>610.0</ele><time>2026-05-02T09:55:31.136Z</time></trkpt><trkpt lat="46.1717546" lon="13.6124361"><ele>610.0</ele><time>2026-05-02T09:55:32.137Z</time></trkpt><trkpt lat="46.171692" lon="13.6124728"><ele>610.0</ele><time>2026-05-02T09:55:33.136Z</time></trkpt><trkpt lat="46.1716281" lon="13.6125233"><ele>610.0</ele><time>2026-05-02T09:55:34.137Z</time></trkpt><trkpt lat="46.1715689" lon="13.6125682"><ele>610.0</ele><time>2026-05-02T09:55:35.137Z</time></trkpt><trkpt lat="46.171501" lon="13.6125935"><ele>610.0</ele><time>2026-05-02T09:55:36.136Z</time></trkpt><trkpt lat="46.1713871" lon="13.6126505"><ele>610.0</ele><time>2026-05-02T09:55:38.137Z</time></trkpt><trkpt lat="46.1712839" lon="13.6127114"><ele>610.0</ele><time>2026-05-02T09:55:40.136Z</time></trkpt><trkpt lat="46.1711993" lon="13.6127688"><ele>610.4</ele><time>2026-05-02T09:55:42.136Z</time></trkpt><trkpt lat="46.1710909" lon="13.6127935"><ele>610.8</ele><time>2026-05-02T09:55:44.136Z</time></trkpt><trkpt lat="46.1709813" lon="13.6128048"><ele>611.2</ele><time>2026-05-02T09:55:46.136Z</time></trkpt><trkpt lat="46.1709227" lon="13.6128401"><ele>611.6</ele><time>2026-05-02T09:55:47.136Z</time></trkpt><trkpt lat="46.1708167" lon="13.612863"><ele>612.0</ele><time>2026-05-02T09:55:49.136Z</time></trkpt><trkpt lat="46.1707098" lon="13.6128604"><ele>603.8000000000001</ele><time>2026-05-02T09:55:51.137Z</time></trkpt><trkpt lat="46.1706018" lon="13.6128758"><ele>595.6</ele><time>2026-05-02T09:55:53.137Z</time></trkpt><trkpt lat="46.1704691" lon="13.6129076"><ele>587.4000000000001</ele><time>2026-05-02T09:55:55.136Z</time></trkpt><trkpt lat="46.1703972" lon="13.6129264"><ele>579.2</ele><time>2026-05-02T09:55:56.137Z</time></trkpt><trkpt lat="46.1703297" lon="13.6129408"><ele>571.0</ele><time>2026-05-02T09:55:57.136Z</time></trkpt><trkpt lat="46.1702102" lon="13.6129277"><ele>571.0</ele><time>2026-05-02T09:55:59.136Z</time></trkpt><trkpt lat="46.170092" lon="13.6128819"><ele>571.0</ele><time>2026-05-02T09:56:01.136Z</time></trkpt><trkpt lat="46.1700351" lon="13.6128414"><ele>571.0</ele><time>2026-05-02T09:56:02.137Z</time></trkpt><trkpt lat="46.1699267" lon="13.6127832"><ele>571.0</ele><time>2026-05-02T09:56:04.136Z</time></trkpt><trkpt lat="46.1698115" lon="13.6127573"><ele>571.0</ele><time>2026-05-02T09:56:06.137Z</time></trkpt><trkpt lat="46.1696872" lon="13.6127687"><ele>574.6</ele><time>2026-05-02T09:56:08.136Z</time></trkpt><trkpt lat="46.1695645" lon="13.6128029"><ele>578.2</ele><time>2026-05-02T09:56:10.136Z</time></trkpt><trkpt lat="46.1694991" lon="13.6128091"><ele>581.8</ele><time>2026-05-02T09:56:11.137Z</time></trkpt><trkpt lat="46.1693775" lon="13.6128173"><ele>585.4</ele><time>2026-05-02T09:56:13.137Z</time></trkpt><trkpt lat="46.1692688" lon="13.6127872"><ele>589.0</ele><time>2026-05-02T09:56:15.137Z</time></trkpt><trkpt lat="46.1692072" lon="13.6127573"><ele>589.0</ele><time>2026-05-02T09:56:16.136Z</time></trkpt><trkpt lat="46.1691236" lon="13.6126531"><ele>589.0</ele><time>2026-05-02T09:56:18.136Z</time></trkpt><trkpt lat="46.1690246" lon="13.6125578"><ele>589.0</ele><time>2026-05-02T09:56:20.137Z</time></trkpt><trkpt lat="46.1689131" lon="13.6125155"><ele>589.0</ele><time>2026-05-02T09:56:22.136Z</time></trkpt><trkpt lat="46.1687917" lon="13.6124916"><ele>590.0</ele><time>2026-05-02T09:56:24.137Z</time></trkpt><trkpt lat="46.1686875" lon="13.6124759"><ele>591.0</ele><time>2026-05-02T09:56:26.136Z</time></trkpt><trkpt lat="46.1685831" lon="13.612528"><ele>592.0</ele><time>2026-05-02T09:56:28.136Z</time></trkpt><trkpt lat="46.1684937" lon="13.6126436"><ele>593.0</ele><time>2026-05-02T09:56:30.136Z</time></trkpt><trkpt lat="46.1684069" lon="13.6127687"><ele>588.6</ele><time>2026-05-02T09:56:32.136Z</time></trkpt><trkpt lat="46.1683571" lon="13.6128417"><ele>584.1999999999999</ele><time>2026-05-02T09:56:33.137Z</time></trkpt><trkpt lat="46.1683159" lon="13.6129213"><ele>579.8</ele><time>2026-05-02T09:56:34.136Z</time></trkpt><trkpt lat="46.1682316" lon="13.6130415"><ele>575.4</ele><time>2026-05-02T09:56:36.137Z</time></trkpt><trkpt lat="46.1681646" lon="13.6131623"><ele>571.0</ele><time>2026-05-02T09:56:38.136Z</time></trkpt><trkpt lat="46.1680934" lon="13.6132862"><ele>571.0</ele><time>2026-05-02T09:56:40.136Z</time></trkpt><trkpt lat="46.1679946" lon="13.613363"><ele>571.0</ele><time>2026-05-02T09:56:42.136Z</time></trkpt><trkpt lat="46.1678922" lon="13.613433"><ele>571.0</ele><time>2026-05-02T09:56:44.136Z</time></trkpt><trkpt lat="46.1678211" lon="13.6135822"><ele>571.0</ele><time>2026-05-02T09:56:46.137Z</time></trkpt><trkpt lat="46.1677865" lon="13.6136595"><ele>571.0</ele><time>2026-05-02T09:56:47.137Z</time></trkpt><trkpt lat="46.1677033" lon="13.6137318"><ele>571.0</ele><time>2026-05-02T09:56:49.136Z</time></trkpt><trkpt lat="46.1676189" lon="13.6137147"><ele>571.0</ele><time>2026-05-02T09:56:51.136Z</time></trkpt><trkpt lat="46.1675342" lon="13.6136661"><ele>571.0</ele><time>2026-05-02T09:56:53.137Z</time></trkpt><trkpt lat="46.1674533" lon="13.6136409"><ele>571.0</ele><time>2026-05-02T09:56:55.137Z</time></trkpt><trkpt lat="46.1673663" lon="13.6136248"><ele>571.0</ele><time>2026-05-02T09:56:57.137Z</time></trkpt><trkpt lat="46.1672839" lon="13.61369"><ele>571.0</ele><time>2026-05-02T09:56:59.136Z</time></trkpt><trkpt lat="46.1672213" lon="13.6138192"><ele>572.8333333333334</ele><time>2026-05-02T09:57:01.136Z</time></trkpt><trkpt lat="46.1671757" lon="13.6139409"><ele>574.6666666666667</ele><time>2026-05-02T09:57:03.136Z</time></trkpt><trkpt lat="46.1671526" lon="13.6140995"><ele>576.5</ele><time>2026-05-02T09:57:05.136Z</time></trkpt><trkpt lat="46.1671392" lon="13.6142035"><ele>578.3333333333334</ele><time>2026-05-02T09:57:06.137Z</time></trkpt><trkpt lat="46.1671352" lon="13.6143023"><ele>580.1666666666666</ele><time>2026-05-02T09:57:07.136Z</time></trkpt><trkpt lat="46.1671297" lon="13.6144024"><ele>582.0</ele><time>2026-05-02T09:57:08.137Z</time></trkpt><trkpt lat="46.1671246" lon="13.6144999"><ele>577.0</ele><time>2026-05-02T09:57:09.136Z</time></trkpt><trkpt lat="46.1671156" lon="13.6146696"><ele>572.0</ele><time>2026-05-02T09:57:11.136Z</time></trkpt><trkpt lat="46.1670949" lon="13.6148062"><ele>567.0</ele><time>2026-05-02T09:57:13.136Z</time></trkpt><trkpt lat="46.1670529" lon="13.6149339"><ele>562.0</ele><time>2026-05-02T09:57:15.137Z</time></trkpt><trkpt lat="46.1670064" lon="13.6150681"><ele>557.0</ele><time>2026-05-02T09:57:17.136Z</time></trkpt><trkpt lat="46.1669594" lon="13.6151947"><ele>557.0</ele><time>2026-05-02T09:57:19.136Z</time></trkpt><trkpt lat="46.1669118" lon="13.6153076"><ele>557.0</ele><time>2026-05-02T09:57:21.137Z</time></trkpt><trkpt lat="46.1668317" lon="13.615402"><ele>557.0</ele><time>2026-05-02T09:57:23.136Z</time></trkpt><trkpt lat="46.1667232" lon="13.6154697"><ele>557.0</ele><time>2026-05-02T09:57:25.137Z</time></trkpt><trkpt lat="46.1666099" lon="13.6155084"><ele>557.0</ele><time>2026-05-02T09:57:27.136Z</time></trkpt><trkpt lat="46.166509" lon="13.6155363"><ele>556.4</ele><time>2026-05-02T09:57:29.137Z</time></trkpt><trkpt lat="46.1664251" lon="13.6156129"><ele>555.8000000000001</ele><time>2026-05-02T09:57:31.137Z</time></trkpt><trkpt lat="46.1663328" lon="13.6157446"><ele>555.2</ele><time>2026-05-02T09:57:33.136Z</time></trkpt><trkpt lat="46.166243" lon="13.6158888"><ele>554.6</ele><time>2026-05-02T09:57:35.137Z</time></trkpt><trkpt lat="46.1662049" lon="13.6159628"><ele>554.0</ele><time>2026-05-02T09:57:36.136Z</time></trkpt><trkpt lat="46.1661709" lon="13.6160424"><ele>548.1666666666666</ele><time>2026-05-02T09:57:37.136Z</time></trkpt><trkpt lat="46.1661027" lon="13.6161958"><ele>542.3333333333333</ele><time>2026-05-02T09:57:39.136Z</time></trkpt><trkpt lat="46.1660594" lon="13.6162754"><ele>536.5</ele><time>2026-05-02T09:57:40.136Z</time></trkpt><trkpt lat="46.166014" lon="13.61635"><ele>530.6666666666666</ele><time>2026-05-02T09:57:41.136Z</time></trkpt><trkpt lat="46.1659612" lon="13.6164105"><ele>524.8333333333334</ele><time>2026-05-02T09:57:42.137Z</time></trkpt><trkpt lat="46.1659102" lon="13.6164781"><ele>519.0</ele><time>2026-05-02T09:57:43.136Z</time></trkpt><trkpt lat="46.1658349" lon="13.6166102"><ele>519.0</ele><time>2026-05-02T09:57:45.136Z</time></trkpt><trkpt lat="46.1657963" lon="13.6166833"><ele>519.0</ele><time>2026-05-02T09:57:46.136Z</time></trkpt><trkpt lat="46.1657514" lon="13.6167622"><ele>519.0</ele><time>2026-05-02T09:57:47.136Z</time></trkpt><trkpt lat="46.1657051" lon="13.6168521"><ele>519.0</ele><time>2026-05-02T09:57:48.137Z</time></trkpt><trkpt lat="46.165658" lon="13.6169402"><ele>519.0</ele><time>2026-05-02T09:57:49.137Z</time></trkpt><trkpt lat="46.165619" lon="13.6170236"><ele>519.0</ele><time>2026-05-02T09:57:50.137Z</time></trkpt><trkpt lat="46.1655769" lon="13.6171818"><ele>517.0</ele><time>2026-05-02T09:57:52.136Z</time></trkpt><trkpt lat="46.1655102" lon="13.6172971"><ele>515.0</ele><time>2026-05-02T09:57:54.137Z</time></trkpt><trkpt lat="46.1654591" lon="13.6173567"><ele>513.0</ele><time>2026-05-02T09:57:55.136Z</time></trkpt><trkpt lat="46.1654119" lon="13.6174216"><ele>511.0</ele><time>2026-05-02T09:57:56.136Z</time></trkpt><trkpt lat="46.165355" lon="13.61748"><ele>509.0</ele><time>2026-05-02T09:57:57.136Z</time></trkpt><trkpt lat="46.1653049" lon="13.6175631"><ele>507.0</ele><time>2026-05-02T09:57:58.136Z</time></trkpt><trkpt lat="46.1652604" lon="13.6176429"><ele>507.0</ele><time>2026-05-02T09:57:59.137Z</time></trkpt><trkpt lat="46.1652161" lon="13.6177141"><ele>507.0</ele><time>2026-05-02T09:58:00.136Z</time></trkpt><trkpt lat="46.1651684" lon="13.6177783"><ele>507.0</ele><time>2026-05-02T09:58:01.136Z</time></trkpt><trkpt lat="46.1651206" lon="13.6178481"><ele>507.0</ele><time>2026-05-02T09:58:02.136Z</time></trkpt><trkpt lat="46.1650361" lon="13.6179696"><ele>507.0</ele><time>2026-05-02T09:58:04.135Z</time></trkpt><trkpt lat="46.1649483" lon="13.6180586"><ele>507.0</ele><time>2026-05-02T09:58:06.135Z</time></trkpt><trkpt lat="46.1648455" lon="13.6181151"><ele>495.8</ele><time>2026-05-02T09:58:08.136Z</time></trkpt><trkpt lat="46.1647433" lon="13.6180761"><ele>484.6</ele><time>2026-05-02T09:58:10.135Z</time></trkpt><trkpt lat="46.1646416" lon="13.6179846"><ele>473.40000000000003</ele><time>2026-05-02T09:58:12.135Z</time></trkpt><trkpt lat="46.1645798" lon="13.6179162"><ele>462.20000000000005</ele><time>2026-05-02T09:58:13.135Z</time></trkpt><trkpt lat="46.1644753" lon="13.6178806"><ele>451.0</ele><time>2026-05-02T09:58:15.135Z</time></trkpt><trkpt lat="46.1643981" lon="13.6178434"><ele>454.33333333333337</ele><time>2026-05-02T09:58:17.135Z</time></trkpt><trkpt lat="46.1643249" lon="13.6178117"><ele>457.6666666666667</ele><time>2026-05-02T09:58:19.135Z</time></trkpt><trkpt lat="46.1642794" lon="13.6177412"><ele>461.0</ele><time>2026-05-02T09:58:21.135Z</time></trkpt><trkpt lat="46.164242" lon="13.617584"><ele>464.33333333333337</ele><time>2026-05-02T09:58:23.136Z</time></trkpt><trkpt lat="46.1642433" lon="13.6174929"><ele>467.6666666666667</ele><time>2026-05-02T09:58:24.135Z</time></trkpt><trkpt lat="46.1642081" lon="13.6173422"><ele>471.0</ele><time>2026-05-02T09:58:26.136Z</time></trkpt><trkpt lat="46.1641616" lon="13.6172791"><ele>471.0</ele><time>2026-05-02T09:58:28.135Z</time></trkpt><trkpt lat="46.1640722" lon="13.6172345"><ele>471.0</ele><time>2026-05-02T09:58:30.136Z</time></trkpt><trkpt lat="46.1640015" lon="13.6171464"><ele>471.0</ele><time>2026-05-02T09:58:32.136Z</time></trkpt><trkpt lat="46.1639301" lon="13.617021"><ele>471.0</ele><time>2026-05-02T09:58:34.135Z</time></trkpt><trkpt lat="46.1638771" lon="13.6168681"><ele>471.0</ele><time>2026-05-02T09:58:36.135Z</time></trkpt><trkpt lat="46.1638202" lon="13.6167391"><ele>469.0</ele><time>2026-05-02T09:58:38.136Z</time></trkpt><trkpt lat="46.1637082" lon="13.6166386"><ele>467.0</ele><time>2026-05-02T09:58:40.135Z</time></trkpt><trkpt lat="46.1636481" lon="13.6165932"><ele>465.0</ele><time>2026-05-02T09:58:41.135Z</time></trkpt><trkpt lat="46.1635858" lon="13.6165636"><ele>463.0</ele><time>2026-05-02T09:58:42.136Z</time></trkpt><trkpt lat="46.1634724" lon="13.6165528"><ele>461.0</ele><time>2026-05-02T09:58:44.135Z</time></trkpt><trkpt lat="46.1633574" lon="13.6165543"><ele>460.99999999999994</ele><time>2026-05-02T09:58:46.135Z</time></trkpt><trkpt lat="46.1632927" lon="13.6165537"><ele>461.0</ele><time>2026-05-02T09:58:47.135Z</time></trkpt><trkpt lat="46.1632276" lon="13.6165494"><ele>461.0</ele><time>2026-05-02T09:58:48.135Z</time></trkpt><trkpt lat="46.1631586" lon="13.6165322"><ele>461.0</ele><time>2026-05-02T09:58:49.135Z</time></trkpt><trkpt lat="46.1630933" lon="13.6165131"><ele>460.99999999999994</ele><time>2026-05-02T09:58:50.135Z</time></trkpt><trkpt lat="46.163027" lon="13.6164957"><ele>461.0</ele><time>2026-05-02T09:58:51.136Z</time></trkpt><trkpt lat="46.1629032" lon="13.6164594"><ele>453.25</ele><time>2026-05-02T09:58:53.135Z</time></trkpt><trkpt lat="46.1627795" lon="13.616431"><ele>445.5</ele><time>2026-05-02T09:58:55.135Z</time></trkpt><trkpt lat="46.1626592" lon="13.616413"><ele>437.75</ele><time>2026-05-02T09:58:57.136Z</time></trkpt><trkpt lat="46.1625433" lon="13.6163638"><ele>430.0</ele><time>2026-05-02T09:58:59.135Z</time></trkpt><trkpt lat="46.1624455" lon="13.6162928"><ele>429.75</ele><time>2026-05-02T09:59:01.135Z</time></trkpt><trkpt lat="46.1623567" lon="13.6161974"><ele>429.5</ele><time>2026-05-02T09:59:03.135Z</time></trkpt><trkpt lat="46.1622543" lon="13.6161337"><ele>429.25</ele><time>2026-05-02T09:59:05.135Z</time></trkpt><trkpt lat="46.1621481" lon="13.6161366"><ele>429.0</ele><time>2026-05-02T09:59:07.135Z</time></trkpt><trkpt lat="46.1620313" lon="13.6160815"><ele>429.0</ele><time>2026-05-02T09:59:09.136Z</time></trkpt><trkpt lat="46.1619228" lon="13.6159894"><ele>429.0</ele><time>2026-05-02T09:59:11.135Z</time></trkpt><trkpt lat="46.1618245" lon="13.6158944"><ele>429.0</ele><time>2026-05-02T09:59:13.135Z</time></trkpt><trkpt lat="46.1617699" lon="13.6158421"><ele>429.0</ele><time>2026-05-02T09:59:14.136Z</time></trkpt><trkpt lat="46.1617136" lon="13.6157912"><ele>429.0</ele><time>2026-05-02T09:59:15.135Z</time></trkpt><trkpt lat="46.1616583" lon="13.6157415"><ele>429.0</ele><time>2026-05-02T09:59:16.135Z</time></trkpt><trkpt lat="46.1615511" lon="13.6156587"><ele>419.2</ele><time>2026-05-02T09:59:18.136Z</time></trkpt><trkpt lat="46.1614504" lon="13.6155519"><ele>409.4</ele><time>2026-05-02T09:59:20.135Z</time></trkpt><trkpt lat="46.1613635" lon="13.6154359"><ele>399.6</ele><time>2026-05-02T09:59:22.135Z</time></trkpt><trkpt lat="46.1612767" lon="13.6153083"><ele>389.8</ele><time>2026-05-02T09:59:24.136Z</time></trkpt><trkpt lat="46.1612327" lon="13.6152334"><ele>380.0</ele><time>2026-05-02T09:59:25.136Z</time></trkpt><trkpt lat="46.1611872" lon="13.6151542"><ele>380.0</ele><time>2026-05-02T09:59:26.135Z</time></trkpt><trkpt lat="46.1611219" lon="13.6150303"><ele>380.0</ele><time>2026-05-02T09:59:28.135Z</time></trkpt><trkpt lat="46.1610922" lon="13.6149411"><ele>380.0</ele><time>2026-05-02T09:59:29.135Z</time></trkpt><trkpt lat="46.1610549" lon="13.6148285"><ele>380.0</ele><time>2026-05-02T09:59:30.135Z</time></trkpt><trkpt lat="46.1610261" lon="13.6147287"><ele>380.0</ele><time>2026-05-02T09:59:31.135Z</time></trkpt><trkpt lat="46.1610006" lon="13.6146395"><ele>380.0</ele><time>2026-05-02T09:59:32.136Z</time></trkpt><trkpt lat="46.1609705" lon="13.6145513"><ele>380.0</ele><time>2026-05-02T09:59:33.136Z</time></trkpt><trkpt lat="46.1609374" lon="13.6144513"><ele>380.0</ele><time>2026-05-02T09:59:34.135Z</time></trkpt><trkpt lat="46.1608985" lon="13.6143508"><ele>380.0</ele><time>2026-05-02T09:59:35.135Z</time></trkpt><trkpt lat="46.1608615" lon="13.6142534"><ele>380.0</ele><time>2026-05-02T09:59:36.136Z</time></trkpt><trkpt lat="46.1608377" lon="13.6141616"><ele>380.0</ele><time>2026-05-02T09:59:37.136Z</time></trkpt><trkpt lat="46.1608149" lon="13.6140716"><ele>380.0</ele><time>2026-05-02T09:59:38.136Z</time></trkpt><trkpt lat="46.1607822" lon="13.6139913"><ele>380.0</ele><time>2026-05-02T09:59:39.135Z</time></trkpt><trkpt lat="46.1607502" lon="13.6139082"><ele>378.6</ele><time>2026-05-02T09:59:40.135Z</time></trkpt><trkpt lat="46.1606814" lon="13.6137864"><ele>377.2</ele><time>2026-05-02T09:59:42.136Z</time></trkpt><trkpt lat="46.1606127" lon="13.6136667"><ele>375.79999999999995</ele><time>2026-05-02T09:59:44.136Z</time></trkpt><trkpt lat="46.1605449" lon="13.613553"><ele>374.4</ele><time>2026-05-02T09:59:46.136Z</time></trkpt><trkpt lat="46.1604599" lon="13.6134388"><ele>373.0</ele><time>2026-05-02T09:59:48.135Z</time></trkpt><trkpt lat="46.1603997" lon="13.613312"><ele>373.0</ele><time>2026-05-02T09:59:50.136Z</time></trkpt><trkpt lat="46.1603302" lon="13.6131982"><ele>373.0</ele><time>2026-05-02T09:59:52.135Z</time></trkpt><trkpt lat="46.1602732" lon="13.6130831"><ele>373.0</ele><time>2026-05-02T09:59:54.135Z</time></trkpt><trkpt lat="46.1602281" lon="13.6129333"><ele>373.0</ele><time>2026-05-02T09:59:56.135Z</time></trkpt><trkpt lat="46.160208" lon="13.6128435"><ele>373.0</ele><time>2026-05-02T09:59:57.136Z</time></trkpt><trkpt lat="46.1601839" lon="13.6127573"><ele>373.0</ele><time>2026-05-02T09:59:58.135Z</time></trkpt><trkpt lat="46.1601654" lon="13.6126537"><ele>376.2</ele><time>2026-05-02T09:59:59.136Z</time></trkpt><trkpt lat="46.1601442" lon="13.6124953"><ele>379.4</ele><time>2026-05-02T10:00:01.136Z</time></trkpt><trkpt lat="46.1601429" lon="13.6123708"><ele>382.59999999999997</ele><time>2026-05-02T10:00:03.136Z</time></trkpt><trkpt lat="46.1601717" lon="13.6122344"><ele>385.79999999999995</ele><time>2026-05-02T10:00:05.135Z</time></trkpt><trkpt lat="46.1602309" lon="13.6121044"><ele>389.0</ele><time>2026-05-02T10:00:07.135Z</time></trkpt><trkpt lat="46.1602119" lon="13.6120086"><ele>390.49999999999994</ele><time>2026-05-02T10:00:09.135Z</time></trkpt><trkpt lat="46.1601235" lon="13.6119235"><ele>392.0</ele><time>2026-05-02T10:00:11.135Z</time></trkpt><trkpt lat="46.1600728" lon="13.6118194"><ele>393.5</ele><time>2026-05-02T10:00:13.135Z</time></trkpt><trkpt lat="46.1600249" lon="13.6117439"><ele>395.0</ele><time>2026-05-02T10:00:14.135Z</time></trkpt><trkpt lat="46.1599827" lon="13.6116619"><ele>396.49999999999994</ele><time>2026-05-02T10:00:15.136Z</time></trkpt><trkpt lat="46.1599395" lon="13.611542"><ele>398.0</ele><time>2026-05-02T10:00:16.136Z</time></trkpt><trkpt lat="46.1599084" lon="13.6114353"><ele>397.99999999999994</ele><time>2026-05-02T10:00:17.135Z</time></trkpt><trkpt lat="46.1598779" lon="13.61134"><ele>398.0</ele><time>2026-05-02T10:00:18.136Z</time></trkpt><trkpt lat="46.1598492" lon="13.61124"><ele>398.0</ele><time>2026-05-02T10:00:19.136Z</time></trkpt><trkpt lat="46.1598206" lon="13.6111399"><ele>398.0</ele><time>2026-05-02T10:00:20.135Z</time></trkpt><trkpt lat="46.1597941" lon="13.611044"><ele>397.99999999999994</ele><time>2026-05-02T10:00:21.135Z</time></trkpt><trkpt lat="46.159766" lon="13.6109246"><ele>398.0</ele><time>2026-05-02T10:00:22.136Z</time></trkpt><trkpt lat="46.1597468" lon="13.610798"><ele>391.3333333333333</ele><time>2026-05-02T10:00:23.135Z</time></trkpt><trkpt lat="46.1597259" lon="13.6106796"><ele>384.66666666666663</ele><time>2026-05-02T10:00:24.136Z</time></trkpt><trkpt lat="46.1597016" lon="13.6105617"><ele>378.0</ele><time>2026-05-02T10:00:25.135Z</time></trkpt><trkpt lat="46.159677" lon="13.6104457"><ele>371.3333333333333</ele><time>2026-05-02T10:00:26.135Z</time></trkpt><trkpt lat="46.1596657" lon="13.6103218"><ele>364.66666666666663</ele><time>2026-05-02T10:00:27.135Z</time></trkpt><trkpt lat="46.1596573" lon="13.6101915"><ele>358.0</ele><time>2026-05-02T10:00:28.136Z</time></trkpt><trkpt lat="46.1596423" lon="13.6100666"><ele>358.3333333333333</ele><time>2026-05-02T10:00:29.135Z</time></trkpt><trkpt lat="46.1596313" lon="13.6099508"><ele>358.66666666666663</ele><time>2026-05-02T10:00:30.135Z</time></trkpt><trkpt lat="46.1596212" lon="13.6098529"><ele>359.0</ele><time>2026-05-02T10:00:31.136Z</time></trkpt><trkpt lat="46.1596115" lon="13.6097425"><ele>359.3333333333333</ele><time>2026-05-02T10:00:32.136Z</time></trkpt><trkpt lat="46.1595967" lon="13.6096346"><ele>359.6666666666667</ele><time>2026-05-02T10:00:33.135Z</time></trkpt><trkpt lat="46.1595777" lon="13.6095308"><ele>360.0</ele><time>2026-05-02T10:00:34.135Z</time></trkpt><trkpt lat="46.1595625" lon="13.6094279"><ele>360.0</ele><time>2026-05-02T10:00:35.135Z</time></trkpt><trkpt lat="46.1595444" lon="13.6093275"><ele>360.0</ele><time>2026-05-02T10:00:36.136Z</time></trkpt><trkpt lat="46.1595236" lon="13.609239"><ele>360.0</ele><time>2026-05-02T10:00:37.135Z</time></trkpt><trkpt lat="46.1595011" lon="13.6091539"><ele>360.0</ele><time>2026-05-02T10:00:38.136Z</time></trkpt><trkpt lat="46.1594663" lon="13.6090591"><ele>360.0</ele><time>2026-05-02T10:00:39.136Z</time></trkpt><trkpt lat="46.159431" lon="13.6089671"><ele>360.0</ele><time>2026-05-02T10:00:40.135Z</time></trkpt><trkpt lat="46.1594039" lon="13.608881"><ele>360.0</ele><time>2026-05-02T10:00:41.135Z</time></trkpt><trkpt lat="46.1593771" lon="13.60879"><ele>360.0</ele><time>2026-05-02T10:00:42.135Z</time></trkpt><trkpt lat="46.1593529" lon="13.6086914"><ele>360.0</ele><time>2026-05-02T10:00:43.135Z</time></trkpt><trkpt lat="46.1593286" lon="13.608603"><ele>360.0</ele><time>2026-05-02T10:00:44.136Z</time></trkpt><trkpt lat="46.1592846" lon="13.6084391"><ele>360.0</ele><time>2026-05-02T10:00:46.136Z</time></trkpt><trkpt lat="46.1592268" lon="13.608278"><ele>360.0</ele><time>2026-05-02T10:00:48.136Z</time></trkpt><trkpt lat="46.159182" lon="13.6081979"><ele>362.0</ele><time>2026-05-02T10:00:49.135Z</time></trkpt><trkpt lat="46.1591409" lon="13.6081094"><ele>364.0</ele><time>2026-05-02T10:00:50.135Z</time></trkpt><trkpt lat="46.1591037" lon="13.6080278"><ele>366.0</ele><time>2026-05-02T10:00:51.135Z</time></trkpt><trkpt lat="46.1590635" lon="13.6079422"><ele>368.0</ele><time>2026-05-02T10:00:52.135Z</time></trkpt><trkpt lat="46.1590228" lon="13.607856"><ele>370.0</ele><time>2026-05-02T10:00:53.135Z</time></trkpt><trkpt lat="46.1589779" lon="13.6077867"><ele>372.0</ele><time>2026-05-02T10:00:54.136Z</time></trkpt><trkpt lat="46.1589311" lon="13.607712"><ele>374.0</ele><time>2026-05-02T10:00:55.135Z</time></trkpt><trkpt lat="46.1588966" lon="13.6076261"><ele>368.1666666666667</ele><time>2026-05-02T10:00:56.135Z</time></trkpt><trkpt lat="46.1588751" lon="13.6075193"><ele>362.33333333333337</ele><time>2026-05-02T10:00:57.135Z</time></trkpt><trkpt lat="46.1588532" lon="13.6074175"><ele>356.5</ele><time>2026-05-02T10:00:58.136Z</time></trkpt><trkpt lat="46.1588426" lon="13.60732"><ele>350.6666666666667</ele><time>2026-05-02T10:00:59.135Z</time></trkpt><trkpt lat="46.1588392" lon="13.6072251"><ele>344.8333333333333</ele><time>2026-05-02T10:01:00.135Z</time></trkpt><trkpt lat="46.1588901" lon="13.6070809"><ele>339.0</ele><time>2026-05-02T10:01:02.136Z</time></trkpt><trkpt lat="46.1589412" lon="13.6069587"><ele>339.0</ele><time>2026-05-02T10:01:04.135Z</time></trkpt><trkpt lat="46.1589326" lon="13.6068271"><ele>339.0</ele><time>2026-05-02T10:01:06.135Z</time></trkpt><trkpt lat="46.1588619" lon="13.6067319"><ele>339.0</ele><time>2026-05-02T10:01:08.135Z</time></trkpt><trkpt lat="46.1587808" lon="13.6066357"><ele>339.0</ele><time>2026-05-02T10:01:10.135Z</time></trkpt><trkpt lat="46.1586993" lon="13.606559"><ele>339.0</ele><time>2026-05-02T10:01:12.135Z</time></trkpt><trkpt lat="46.1587044" lon="13.6066697"><ele>339.0</ele><time>2026-05-02T10:01:16.136Z</time></trkpt><trkpt lat="46.158765" lon="13.6067552"><ele>339.0</ele><time>2026-05-02T10:01:18.136Z</time></trkpt><trkpt lat="46.158794" lon="13.6068706"><ele>339.0</ele><time>2026-05-02T10:01:20.136Z</time></trkpt><trkpt lat="46.1587373" lon="13.6069956"><ele>339.0</ele><time>2026-05-02T10:01:22.135Z</time></trkpt><trkpt lat="46.1586599" lon="13.6071052"><ele>339.0</ele><time>2026-05-02T10:01:24.135Z</time></trkpt><trkpt lat="46.1586174" lon="13.6072296"><ele>337.5</ele><time>2026-05-02T10:01:26.136Z</time></trkpt><trkpt lat="46.1585789" lon="13.6073824"><ele>336.0</ele><time>2026-05-02T10:01:28.135Z</time></trkpt><trkpt lat="46.158563" lon="13.6075522"><ele>334.5</ele><time>2026-05-02T10:01:30.136Z</time></trkpt><trkpt lat="46.1585771" lon="13.607729"><ele>333.0</ele><time>2026-05-02T10:01:32.135Z</time></trkpt><trkpt lat="46.158599" lon="13.6079051"><ele>332.5</ele><time>2026-05-02T10:01:34.135Z</time></trkpt><trkpt lat="46.1586115" lon="13.608014"><ele>332.0</ele><time>2026-05-02T10:01:35.136Z</time></trkpt><trkpt lat="46.1586273" lon="13.6081234"><ele>331.5</ele><time>2026-05-02T10:01:36.135Z</time></trkpt><trkpt lat="46.1586466" lon="13.6082373"><ele>331.0</ele><time>2026-05-02T10:01:37.135Z</time></trkpt><trkpt lat="46.1586692" lon="13.608335"><ele>330.5</ele><time>2026-05-02T10:01:38.135Z</time></trkpt><trkpt lat="46.1586938" lon="13.6084463"><ele>330.0</ele><time>2026-05-02T10:01:39.136Z</time></trkpt><trkpt lat="46.1587231" lon="13.6085656"><ele>327.8333333333333</ele><time>2026-05-02T10:01:40.135Z</time></trkpt><trkpt lat="46.1587481" lon="13.6086776"><ele>325.6666666666667</ele><time>2026-05-02T10:01:41.136Z</time></trkpt><trkpt lat="46.1587684" lon="13.608798"><ele>323.5</ele><time>2026-05-02T10:01:42.135Z</time></trkpt><trkpt lat="46.1587832" lon="13.6089307"><ele>321.33333333333337</ele><time>2026-05-02T10:01:43.136Z</time></trkpt><trkpt lat="46.1587957" lon="13.6090593"><ele>319.1666666666667</ele><time>2026-05-02T10:01:44.136Z</time></trkpt><trkpt lat="46.1588075" lon="13.6091597"><ele>317.0</ele><time>2026-05-02T10:01:45.136Z</time></trkpt><trkpt lat="46.1588216" lon="13.6092499"><ele>317.0</ele><time>2026-05-02T10:01:46.135Z</time></trkpt><trkpt lat="46.1588333" lon="13.6093553"><ele>317.0</ele><time>2026-05-02T10:01:47.135Z</time></trkpt><trkpt lat="46.1588412" lon="13.6094571"><ele>317.0</ele><time>2026-05-02T10:01:48.136Z</time></trkpt><trkpt lat="46.1588482" lon="13.6096302"><ele>317.0</ele><time>2026-05-02T10:01:50.136Z</time></trkpt><trkpt lat="46.1588404" lon="13.6097932"><ele>317.0</ele><time>2026-05-02T10:01:52.136Z</time></trkpt><trkpt lat="46.1588427" lon="13.6098892"><ele>317.0</ele><time>2026-05-02T10:01:53.135Z</time></trkpt><trkpt lat="46.1588492" lon="13.6099963"><ele>316.33333333333337</ele><time>2026-05-02T10:01:54.136Z</time></trkpt><trkpt lat="46.1588556" lon="13.6101014"><ele>315.6666666666667</ele><time>2026-05-02T10:01:55.135Z</time></trkpt><trkpt lat="46.1588556" lon="13.6101969"><ele>315.0</ele><time>2026-05-02T10:01:56.136Z</time></trkpt><trkpt lat="46.1588432" lon="13.6103805"><ele>314.3333333333333</ele><time>2026-05-02T10:01:58.134Z</time></trkpt><trkpt lat="46.1588366" lon="13.6104713"><ele>313.66666666666663</ele><time>2026-05-02T10:01:59.134Z</time></trkpt><trkpt lat="46.1588306" lon="13.6105713"><ele>313.0</ele><time>2026-05-02T10:02:00.135Z</time></trkpt><trkpt lat="46.1588273" lon="13.6106633"><ele>313.0</ele><time>2026-05-02T10:02:01.135Z</time></trkpt><trkpt lat="46.1588293" lon="13.6107551"><ele>313.0</ele><time>2026-05-02T10:02:02.134Z</time></trkpt><trkpt lat="46.1588242" lon="13.610932"><ele>313.0</ele><time>2026-05-02T10:02:04.135Z</time></trkpt><trkpt lat="46.1588186" lon="13.6110976"><ele>313.0</ele><time>2026-05-02T10:02:06.134Z</time></trkpt><trkpt lat="46.1587977" lon="13.611263"><ele>313.0</ele><time>2026-05-02T10:02:08.134Z</time></trkpt><trkpt lat="46.1587693" lon="13.6113553"><ele>313.1428571428571</ele><time>2026-05-02T10:02:09.134Z</time></trkpt><trkpt lat="46.158744" lon="13.6114487"><ele>313.2857142857143</ele><time>2026-05-02T10:02:10.134Z</time></trkpt><trkpt lat="46.1587322" lon="13.6115443"><ele>313.42857142857144</ele><time>2026-05-02T10:02:11.135Z</time></trkpt><trkpt lat="46.158721" lon="13.6116409"><ele>313.57142857142856</ele><time>2026-05-02T10:02:12.134Z</time></trkpt><trkpt lat="46.158715" lon="13.6117366"><ele>313.7142857142857</ele><time>2026-05-02T10:02:13.135Z</time></trkpt><trkpt lat="46.1587115" lon="13.6118456"><ele>313.85714285714283</ele><time>2026-05-02T10:02:14.135Z</time></trkpt><trkpt lat="46.1587077" lon="13.6119417"><ele>314.0</ele><time>2026-05-02T10:02:15.135Z</time></trkpt><trkpt lat="46.1587164" lon="13.6120362"><ele>314.0</ele><time>2026-05-02T10:02:16.134Z</time></trkpt><trkpt lat="46.1587139" lon="13.6121374"><ele>314.0</ele><time>2026-05-02T10:02:17.135Z</time></trkpt><trkpt lat="46.1587148" lon="13.6122437"><ele>314.0</ele><time>2026-05-02T10:02:18.135Z</time></trkpt><trkpt lat="46.158715" lon="13.6123402"><ele>314.0</ele><time>2026-05-02T10:02:19.135Z</time></trkpt><trkpt lat="46.1587525" lon="13.6124683"><ele>314.0</ele><time>2026-05-02T10:02:21.134Z</time></trkpt><trkpt lat="46.1588408" lon="13.6125188"><ele>314.0</ele><time>2026-05-02T10:02:23.135Z</time></trkpt><trkpt lat="46.1589153" lon="13.6125816"><ele>314.0</ele><time>2026-05-02T10:02:25.134Z</time></trkpt><trkpt lat="46.1589329" lon="13.6127063"><ele>314.0</ele><time>2026-05-02T10:02:27.134Z</time></trkpt><trkpt lat="46.1589109" lon="13.6128913"><ele>314.0</ele><time>2026-05-02T10:02:29.134Z</time></trkpt><trkpt lat="46.1589259" lon="13.6129812"><ele>314.0</ele><time>2026-05-02T10:02:30.134Z</time></trkpt><trkpt lat="46.158955" lon="13.6130669"><ele>314.0</ele><time>2026-05-02T10:02:31.135Z</time></trkpt><trkpt lat="46.1589972" lon="13.613162"><ele>314.0</ele><time>2026-05-02T10:02:32.134Z</time></trkpt><trkpt lat="46.1590456" lon="13.6132779"><ele>316.0</ele><time>2026-05-02T10:02:33.135Z</time></trkpt><trkpt lat="46.1591015" lon="13.6133979"><ele>318.0</ele><time>2026-05-02T10:02:34.135Z</time></trkpt><trkpt lat="46.1591416" lon="13.6135035"><ele>320.0</ele><time>2026-05-02T10:02:35.135Z</time></trkpt><trkpt lat="46.1591745" lon="13.6136302"><ele>322.0</ele><time>2026-05-02T10:02:36.134Z</time></trkpt><trkpt lat="46.1592054" lon="13.6137552"><ele>324.0</ele><time>2026-05-02T10:02:37.134Z</time></trkpt><trkpt lat="46.159237" lon="13.6138747"><ele>324.0</ele><time>2026-05-02T10:02:38.134Z</time></trkpt><trkpt lat="46.1592719" lon="13.6139761"><ele>324.0</ele><time>2026-05-02T10:02:39.134Z</time></trkpt><trkpt lat="46.159304" lon="13.6140752"><ele>324.0</ele><time>2026-05-02T10:02:40.134Z</time></trkpt><trkpt lat="46.1593335" lon="13.6141567"><ele>324.0</ele><time>2026-05-02T10:02:41.135Z</time></trkpt><trkpt lat="46.1593743" lon="13.6143277"><ele>324.0</ele><time>2026-05-02T10:02:43.134Z</time></trkpt><trkpt lat="46.1594066" lon="13.6144994"><ele>322.0</ele><time>2026-05-02T10:02:45.135Z</time></trkpt><trkpt lat="46.1594296" lon="13.6145858"><ele>320.0</ele><time>2026-05-02T10:02:46.134Z</time></trkpt><trkpt lat="46.1594719" lon="13.6147554"><ele>318.0</ele><time>2026-05-02T10:02:48.134Z</time></trkpt><trkpt lat="46.1595021" lon="13.6149191"><ele>316.0</ele><time>2026-05-02T10:02:50.135Z</time></trkpt><trkpt lat="46.1595201" lon="13.6150116"><ele>314.0</ele><time>2026-05-02T10:02:51.134Z</time></trkpt><trkpt lat="46.1595245" lon="13.6151981"><ele>313.0</ele><time>2026-05-02T10:02:53.134Z</time></trkpt><trkpt lat="46.1595117" lon="13.6153696"><ele>312.0</ele><time>2026-05-02T10:02:55.135Z</time></trkpt><trkpt lat="46.1594903" lon="13.6155312"><ele>311.0</ele><time>2026-05-02T10:02:57.135Z</time></trkpt><trkpt lat="46.1595283" lon="13.615604"><ele>310.0</ele><time>2026-05-02T10:02:59.134Z</time></trkpt><trkpt lat="46.1595685" lon="13.6156784"><ele>309.0</ele><time>2026-05-02T10:03:01.135Z</time></trkpt><trkpt lat="46.1594931" lon="13.615679"><ele>308.0</ele><time>2026-05-02T10:03:06.134Z</time></trkpt><trkpt lat="46.1593917" lon="13.6156204"><ele>308.0</ele><time>2026-05-02T10:03:08.135Z</time></trkpt><trkpt lat="46.1593182" lon="13.615532"><ele>308.0</ele><time>2026-05-02T10:03:10.134Z</time></trkpt><trkpt lat="46.1592952" lon="13.6154157"><ele>308.0</ele><time>2026-05-02T10:03:11.134Z</time></trkpt><trkpt lat="46.159271" lon="13.615262"><ele>308.0</ele><time>2026-05-02T10:03:12.135Z</time></trkpt><trkpt lat="46.1592524" lon="13.6151225"><ele>308.0</ele><time>2026-05-02T10:03:13.134Z</time></trkpt><trkpt lat="46.159228" lon="13.614965"><ele>309.5</ele><time>2026-05-02T10:03:14.134Z</time></trkpt><trkpt lat="46.1592019" lon="13.6148061"><ele>311.0</ele><time>2026-05-02T10:03:15.134Z</time></trkpt><trkpt lat="46.1591854" lon="13.6146444"><ele>312.5</ele><time>2026-05-02T10:03:16.134Z</time></trkpt><trkpt lat="46.1591543" lon="13.6144773"><ele>314.0</ele><time>2026-05-02T10:03:17.134Z</time></trkpt><trkpt lat="46.1591084" lon="13.6143108"><ele>313.75</ele><time>2026-05-02T10:03:18.135Z</time></trkpt><trkpt lat="46.159053" lon="13.6141489"><ele>313.5</ele><time>2026-05-02T10:03:19.134Z</time></trkpt><trkpt lat="46.1589796" lon="13.6139837"><ele>313.25</ele><time>2026-05-02T10:03:20.134Z</time></trkpt><trkpt lat="46.158892" lon="13.6138161"><ele>313.0</ele><time>2026-05-02T10:03:21.135Z</time></trkpt><trkpt lat="46.1587939" lon="13.6136514"><ele>312.66666666666663</ele><time>2026-05-02T10:03:22.134Z</time></trkpt><trkpt lat="46.1586985" lon="13.6134677"><ele>312.3333333333333</ele><time>2026-05-02T10:03:23.134Z</time></trkpt><trkpt lat="46.1586187" lon="13.613279"><ele>312.0</ele><time>2026-05-02T10:03:24.135Z</time></trkpt><trkpt lat="46.1585368" lon="13.6131054"><ele>312.0</ele><time>2026-05-02T10:03:25.134Z</time></trkpt><trkpt lat="46.1584539" lon="13.6129456"><ele>312.0</ele><time>2026-05-02T10:03:26.135Z</time></trkpt><trkpt lat="46.1583755" lon="13.6127904"><ele>312.0</ele><time>2026-05-02T10:03:27.134Z</time></trkpt><trkpt lat="46.1583097" lon="13.6126313"><ele>312.0</ele><time>2026-05-02T10:03:28.135Z</time></trkpt><trkpt lat="46.1582637" lon="13.612471"><ele>312.5</ele><time>2026-05-02T10:03:29.135Z</time></trkpt><trkpt lat="46.1582246" lon="13.6123052"><ele>313.0</ele><time>2026-05-02T10:03:30.134Z</time></trkpt><trkpt lat="46.1582041" lon="13.6121439"><ele>313.5</ele><time>2026-05-02T10:03:31.135Z</time></trkpt><trkpt lat="46.1581797" lon="13.6119823"><ele>314.0</ele><time>2026-05-02T10:03:32.135Z</time></trkpt><trkpt lat="46.1581514" lon="13.6118145"><ele>313.75</ele><time>2026-05-02T10:03:33.134Z</time></trkpt><trkpt lat="46.1581315" lon="13.6116423"><ele>313.5</ele><time>2026-05-02T10:03:34.134Z</time></trkpt><trkpt lat="46.158136" lon="13.6114669"><ele>313.25</ele><time>2026-05-02T10:03:35.135Z</time></trkpt><trkpt lat="46.1581738" lon="13.6112993"><ele>313.0</ele><time>2026-05-02T10:03:36.134Z</time></trkpt><trkpt lat="46.1582163" lon="13.6111198"><ele>313.0</ele><time>2026-05-02T10:03:37.134Z</time></trkpt><trkpt lat="46.158261" lon="13.6109296"><ele>313.0</ele><time>2026-05-02T10:03:38.134Z</time></trkpt><trkpt lat="46.158304" lon="13.6107406"><ele>313.0</ele><time>2026-05-02T10:03:39.134Z</time></trkpt><trkpt lat="46.1583387" lon="13.6105488"><ele>313.0</ele><time>2026-05-02T10:03:40.134Z</time></trkpt><trkpt lat="46.158359" lon="13.610362"><ele>312.25</ele><time>2026-05-02T10:03:41.134Z</time></trkpt><trkpt lat="46.1583419" lon="13.6102053"><ele>311.5</ele><time>2026-05-02T10:03:42.134Z</time></trkpt><trkpt lat="46.1582923" lon="13.6100628"><ele>310.75</ele><time>2026-05-02T10:03:43.134Z</time></trkpt><trkpt lat="46.1582215" lon="13.6099139"><ele>310.0</ele><time>2026-05-02T10:03:44.134Z</time></trkpt><trkpt lat="46.158132" lon="13.6097953"><ele>311.0</ele><time>2026-05-02T10:03:45.135Z</time></trkpt><trkpt lat="46.1580276" lon="13.6097137"><ele>312.0</ele><time>2026-05-02T10:03:46.134Z</time></trkpt><trkpt lat="46.1579292" lon="13.609669"><ele>313.0</ele><time>2026-05-02T10:03:47.134Z</time></trkpt><trkpt lat="46.157845" lon="13.6096138"><ele>314.0</ele><time>2026-05-02T10:03:48.134Z</time></trkpt><trkpt lat="46.157771" lon="13.6095324"><ele>315.0</ele><time>2026-05-02T10:03:49.135Z</time></trkpt><trkpt lat="46.1577207" lon="13.6093993"><ele>315.0</ele><time>2026-05-02T10:03:50.134Z</time></trkpt><trkpt lat="46.1576896" lon="13.6092393"><ele>315.0</ele><time>2026-05-02T10:03:51.134Z</time></trkpt><trkpt lat="46.1576801" lon="13.6090792"><ele>315.0</ele><time>2026-05-02T10:03:52.135Z</time></trkpt><trkpt lat="46.1576663" lon="13.6089201"><ele>315.0</ele><time>2026-05-02T10:03:53.134Z</time></trkpt><trkpt lat="46.1576558" lon="13.6087717"><ele>315.0</ele><time>2026-05-02T10:03:54.135Z</time></trkpt><trkpt lat="46.1576491" lon="13.6086303"><ele>312.4</ele><time>2026-05-02T10:03:55.134Z</time></trkpt><trkpt lat="46.1576556" lon="13.6084898"><ele>309.8</ele><time>2026-05-02T10:03:56.134Z</time></trkpt><trkpt lat="46.1576768" lon="13.6083392"><ele>307.2</ele><time>2026-05-02T10:03:57.134Z</time></trkpt><trkpt lat="46.1577127" lon="13.6081877"><ele>304.6</ele><time>2026-05-02T10:03:58.134Z</time></trkpt><trkpt lat="46.1577556" lon="13.6080346"><ele>302.0</ele><time>2026-05-02T10:03:59.135Z</time></trkpt><trkpt lat="46.1577921" lon="13.6078907"><ele>300.75</ele><time>2026-05-02T10:04:00.134Z</time></trkpt><trkpt lat="46.1578096" lon="13.6077383"><ele>299.5</ele><time>2026-05-02T10:04:01.134Z</time></trkpt><trkpt lat="46.157789" lon="13.6075787"><ele>298.25</ele><time>2026-05-02T10:04:02.135Z</time></trkpt><trkpt lat="46.1577353" lon="13.6074353"><ele>297.0</ele><time>2026-05-02T10:04:03.135Z</time></trkpt><trkpt lat="46.1576624" lon="13.6073"><ele>297.0</ele><time>2026-05-02T10:04:04.134Z</time></trkpt><trkpt lat="46.1575725" lon="13.6071902"><ele>297.0</ele><time>2026-05-02T10:04:05.134Z</time></trkpt><trkpt lat="46.1574561" lon="13.6071212"><ele>297.0</ele><time>2026-05-02T10:04:06.134Z</time></trkpt><trkpt lat="46.1573352" lon="13.6070397"><ele>297.0</ele><time>2026-05-02T10:04:07.134Z</time></trkpt><trkpt lat="46.1572481" lon="13.6069255"><ele>297.25</ele><time>2026-05-02T10:04:08.134Z</time></trkpt><trkpt lat="46.1571745" lon="13.6067814"><ele>297.5</ele><time>2026-05-02T10:04:09.135Z</time></trkpt><trkpt lat="46.1571312" lon="13.6066029"><ele>297.75</ele><time>2026-05-02T10:04:10.134Z</time></trkpt><trkpt lat="46.1571116" lon="13.6063856"><ele>298.0</ele><time>2026-05-02T10:04:11.134Z</time></trkpt><trkpt lat="46.1570915" lon="13.6061615"><ele>295.0</ele><time>2026-05-02T10:04:12.134Z</time></trkpt><trkpt lat="46.1570676" lon="13.6059573"><ele>292.0</ele><time>2026-05-02T10:04:13.135Z</time></trkpt><trkpt lat="46.1570478" lon="13.6057664"><ele>289.0</ele><time>2026-05-02T10:04:14.135Z</time></trkpt><trkpt lat="46.1570449" lon="13.6055818"><ele>286.0</ele><time>2026-05-02T10:04:15.135Z</time></trkpt><trkpt lat="46.1570559" lon="13.6053922"><ele>285.5</ele><time>2026-05-02T10:04:16.135Z</time></trkpt><trkpt lat="46.1570566" lon="13.6052141"><ele>285.0</ele><time>2026-05-02T10:04:17.134Z</time></trkpt><trkpt lat="46.1570211" lon="13.6050229"><ele>284.5</ele><time>2026-05-02T10:04:18.134Z</time></trkpt><trkpt lat="46.1569494" lon="13.6048577"><ele>284.0</ele><time>2026-05-02T10:04:19.134Z</time></trkpt><trkpt lat="46.1568717" lon="13.6047076"><ele>284.0</ele><time>2026-05-02T10:04:20.135Z</time></trkpt><trkpt lat="46.1568022" lon="13.6045594"><ele>284.0</ele><time>2026-05-02T10:04:21.134Z</time></trkpt><trkpt lat="46.1567561" lon="13.6044044"><ele>284.0</ele><time>2026-05-02T10:04:22.135Z</time></trkpt><trkpt lat="46.1567147" lon="13.60425"><ele>284.0</ele><time>2026-05-02T10:04:23.134Z</time></trkpt><trkpt lat="46.1566724" lon="13.6041046"><ele>284.5</ele><time>2026-05-02T10:04:24.134Z</time></trkpt><trkpt lat="46.1566402" lon="13.6039351"><ele>285.0</ele><time>2026-05-02T10:04:25.135Z</time></trkpt><trkpt lat="46.1566109" lon="13.6037272"><ele>285.5</ele><time>2026-05-02T10:04:26.134Z</time></trkpt><trkpt lat="46.1565916" lon="13.6034895"><ele>286.0</ele><time>2026-05-02T10:04:27.134Z</time></trkpt><trkpt lat="46.1565897" lon="13.603243"><ele>286.3333333333333</ele><time>2026-05-02T10:04:28.134Z</time></trkpt><trkpt lat="46.1565899" lon="13.6029974"><ele>286.6666666666667</ele><time>2026-05-02T10:04:29.135Z</time></trkpt><trkpt lat="46.1565905" lon="13.6027723"><ele>287.0</ele><time>2026-05-02T10:04:30.134Z</time></trkpt><trkpt lat="46.1565888" lon="13.6025672"><ele>287.0</ele><time>2026-05-02T10:04:31.134Z</time></trkpt><trkpt lat="46.1565948" lon="13.6023722"><ele>287.0</ele><time>2026-05-02T10:04:32.135Z</time></trkpt><trkpt lat="46.156627" lon="13.6021826"><ele>287.0</ele><time>2026-05-02T10:04:33.135Z</time></trkpt><trkpt lat="46.1566681" lon="13.601995"><ele>287.0</ele><time>2026-05-02T10:04:34.134Z</time></trkpt><trkpt lat="46.1567185" lon="13.6018068"><ele>285.5</ele><time>2026-05-02T10:04:35.134Z</time></trkpt><trkpt lat="46.1567806" lon="13.6016199"><ele>284.0</ele><time>2026-05-02T10:04:36.134Z</time></trkpt><trkpt lat="46.1568442" lon="13.6014509"><ele>282.5</ele><time>2026-05-02T10:04:37.134Z</time></trkpt><trkpt lat="46.1568977" lon="13.6012895"><ele>281.0</ele><time>2026-05-02T10:04:38.135Z</time></trkpt><trkpt lat="46.1569261" lon="13.6011108"><ele>281.0</ele><time>2026-05-02T10:04:39.135Z</time></trkpt><trkpt lat="46.1569326" lon="13.6009393"><ele>281.0</ele><time>2026-05-02T10:04:40.135Z</time></trkpt><trkpt lat="46.1569212" lon="13.6007533"><ele>281.0</ele><time>2026-05-02T10:04:41.134Z</time></trkpt><trkpt lat="46.1569057" lon="13.600556"><ele>281.0</ele><time>2026-05-02T10:04:42.135Z</time></trkpt><trkpt lat="46.156893" lon="13.6003725"><ele>280.75</ele><time>2026-05-02T10:04:43.134Z</time></trkpt><trkpt lat="46.1568657" lon="13.6001981"><ele>280.5</ele><time>2026-05-02T10:04:44.134Z</time></trkpt><trkpt lat="46.1568016" lon="13.6000271"><ele>280.25</ele><time>2026-05-02T10:04:45.134Z</time></trkpt><trkpt lat="46.1567052" lon="13.5998699"><ele>280.0</ele><time>2026-05-02T10:04:46.134Z</time></trkpt><trkpt lat="46.1566083" lon="13.599746"><ele>285.25</ele><time>2026-05-02T10:04:47.134Z</time></trkpt><trkpt lat="46.1565147" lon="13.5996283"><ele>290.5</ele><time>2026-05-02T10:04:48.134Z</time></trkpt><trkpt lat="46.1564459" lon="13.5994794"><ele>295.75</ele><time>2026-05-02T10:04:49.134Z</time></trkpt><trkpt lat="46.1563944" lon="13.599319"><ele>301.0</ele><time>2026-05-02T10:04:50.135Z</time></trkpt><trkpt lat="46.1563513" lon="13.5991293"><ele>300.25</ele><time>2026-05-02T10:04:51.135Z</time></trkpt><trkpt lat="46.1563112" lon="13.5989274"><ele>299.5</ele><time>2026-05-02T10:04:52.135Z</time></trkpt><trkpt lat="46.1562674" lon="13.5987261"><ele>298.75</ele><time>2026-05-02T10:04:53.135Z</time></trkpt><trkpt lat="46.1562216" lon="13.5985301"><ele>298.0</ele><time>2026-05-02T10:04:54.134Z</time></trkpt><trkpt lat="46.1561896" lon="13.5983392"><ele>298.0</ele><time>2026-05-02T10:04:55.134Z</time></trkpt><trkpt lat="46.1561647" lon="13.5981413"><ele>298.0</ele><time>2026-05-02T10:04:56.134Z</time></trkpt><trkpt lat="46.1561468" lon="13.5979481"><ele>298.0</ele><time>2026-05-02T10:04:57.134Z</time></trkpt><trkpt lat="46.1561301" lon="13.5977456"><ele>298.0</ele><time>2026-05-02T10:04:58.135Z</time></trkpt><trkpt lat="46.1561101" lon="13.5975461"><ele>295.25</ele><time>2026-05-02T10:04:59.135Z</time></trkpt><trkpt lat="46.1560896" lon="13.5973485"><ele>292.5</ele><time>2026-05-02T10:05:00.134Z</time></trkpt><trkpt lat="46.1560809" lon="13.5971486"><ele>289.75</ele><time>2026-05-02T10:05:01.134Z</time></trkpt><trkpt lat="46.1560864" lon="13.5969495"><ele>287.0</ele><time>2026-05-02T10:05:02.134Z</time></trkpt><trkpt lat="46.1560862" lon="13.5967523"><ele>286.5</ele><time>2026-05-02T10:05:03.134Z</time></trkpt><trkpt lat="46.1560556" lon="13.5965582"><ele>286.0</ele><time>2026-05-02T10:05:04.134Z</time></trkpt><trkpt lat="46.1560061" lon="13.5963675"><ele>285.5</ele><time>2026-05-02T10:05:05.135Z</time></trkpt><trkpt lat="46.1559581" lon="13.5961822"><ele>285.0</ele><time>2026-05-02T10:05:06.135Z</time></trkpt><trkpt lat="46.1559204" lon="13.5960025"><ele>283.8</ele><time>2026-05-02T10:05:07.134Z</time></trkpt><trkpt lat="46.1558914" lon="13.5958315"><ele>282.6</ele><time>2026-05-02T10:05:08.134Z</time></trkpt><trkpt lat="46.1558742" lon="13.5956817"><ele>281.4</ele><time>2026-05-02T10:05:09.134Z</time></trkpt><trkpt lat="46.1558805" lon="13.59555"><ele>280.2</ele><time>2026-05-02T10:05:10.134Z</time></trkpt><trkpt lat="46.1558872" lon="13.5954246"><ele>279.0</ele><time>2026-05-02T10:05:11.134Z</time></trkpt><trkpt lat="46.1558966" lon="13.5952884"><ele>277.8</ele><time>2026-05-02T10:05:12.134Z</time></trkpt><trkpt lat="46.155909" lon="13.5951543"><ele>276.59999999999997</ele><time>2026-05-02T10:05:13.134Z</time></trkpt><trkpt lat="46.1559373" lon="13.595019"><ele>275.4</ele><time>2026-05-02T10:05:14.134Z</time></trkpt><trkpt lat="46.155978" lon="13.5948714"><ele>274.2</ele><time>2026-05-02T10:05:15.134Z</time></trkpt><trkpt lat="46.1560343" lon="13.5947577"><ele>273.0</ele><time>2026-05-02T10:05:16.135Z</time></trkpt><trkpt lat="46.1560899" lon="13.5946536"><ele>273.0</ele><time>2026-05-02T10:05:17.135Z</time></trkpt><trkpt lat="46.1561352" lon="13.5945268"><ele>273.0</ele><time>2026-05-02T10:05:18.134Z</time></trkpt><trkpt lat="46.1561644" lon="13.5943803"><ele>273.0</ele><time>2026-05-02T10:05:19.134Z</time></trkpt><trkpt lat="46.1561714" lon="13.5942106"><ele>273.0</ele><time>2026-05-02T10:05:20.134Z</time></trkpt><trkpt lat="46.1561545" lon="13.5940475"><ele>273.0</ele><time>2026-05-02T10:05:21.134Z</time></trkpt><trkpt lat="46.156124" lon="13.5938999"><ele>271.8</ele><time>2026-05-02T10:05:22.134Z</time></trkpt><trkpt lat="46.1560954" lon="13.5937737"><ele>270.6</ele><time>2026-05-02T10:05:23.134Z</time></trkpt><trkpt lat="46.1560678" lon="13.593649"><ele>269.4</ele><time>2026-05-02T10:05:24.134Z</time></trkpt><trkpt lat="46.1560277" lon="13.5935156"><ele>268.2</ele><time>2026-05-02T10:05:25.135Z</time></trkpt><trkpt lat="46.1559834" lon="13.5933707"><ele>267.0</ele><time>2026-05-02T10:05:26.135Z</time></trkpt><trkpt lat="46.1559568" lon="13.5932133"><ele>266.4</ele><time>2026-05-02T10:05:27.135Z</time></trkpt><trkpt lat="46.1559404" lon="13.5930508"><ele>265.79999999999995</ele><time>2026-05-02T10:05:28.134Z</time></trkpt><trkpt lat="46.1559247" lon="13.5929019"><ele>265.2</ele><time>2026-05-02T10:05:29.135Z</time></trkpt><trkpt lat="46.1559117" lon="13.5927574"><ele>264.59999999999997</ele><time>2026-05-02T10:05:30.135Z</time></trkpt><trkpt lat="46.1559002" lon="13.5926112"><ele>264.0</ele><time>2026-05-02T10:05:31.134Z</time></trkpt><trkpt lat="46.1558609" lon="13.5924537"><ele>264.0</ele><time>2026-05-02T10:05:32.134Z</time></trkpt><trkpt lat="46.1558212" lon="13.5922739"><ele>264.0</ele><time>2026-05-02T10:05:33.134Z</time></trkpt><trkpt lat="46.1557758" lon="13.5920828"><ele>264.0</ele><time>2026-05-02T10:05:34.135Z</time></trkpt><trkpt lat="46.1557281" lon="13.5918837"><ele>264.0</ele><time>2026-05-02T10:05:35.134Z</time></trkpt><trkpt lat="46.1556943" lon="13.5916872"><ele>262.25</ele><time>2026-05-02T10:05:36.135Z</time></trkpt><trkpt lat="46.155672" lon="13.591495"><ele>260.5</ele><time>2026-05-02T10:05:37.134Z</time></trkpt><trkpt lat="46.1556569" lon="13.5913037"><ele>258.75</ele><time>2026-05-02T10:05:38.134Z</time></trkpt><trkpt lat="46.1556409" lon="13.5911032"><ele>257.0</ele><time>2026-05-02T10:05:39.134Z</time></trkpt><trkpt lat="46.1556288" lon="13.590891"><ele>256.75</ele><time>2026-05-02T10:05:40.135Z</time></trkpt><trkpt lat="46.155621" lon="13.5906832"><ele>256.5</ele><time>2026-05-02T10:05:41.135Z</time></trkpt><trkpt lat="46.1556129" lon="13.5904751"><ele>256.25</ele><time>2026-05-02T10:05:42.135Z</time></trkpt><trkpt lat="46.1556004" lon="13.5902728"><ele>256.0</ele><time>2026-05-02T10:05:43.134Z</time></trkpt><trkpt lat="46.1555822" lon="13.5900615"><ele>255.33333333333331</ele><time>2026-05-02T10:05:44.134Z</time></trkpt><trkpt lat="46.1555522" lon="13.58985"><ele>254.66666666666669</ele><time>2026-05-02T10:05:45.134Z</time></trkpt><trkpt lat="46.1555087" lon="13.5896421"><ele>254.0</ele><time>2026-05-02T10:05:46.134Z</time></trkpt><trkpt lat="46.1554617" lon="13.5894287"><ele>253.33333333333334</ele><time>2026-05-02T10:05:47.135Z</time></trkpt><trkpt lat="46.1554117" lon="13.5892168"><ele>252.66666666666669</ele><time>2026-05-02T10:05:48.135Z</time></trkpt><trkpt lat="46.1553662" lon="13.5890076"><ele>252.0</ele><time>2026-05-02T10:05:49.135Z</time></trkpt><trkpt lat="46.1553184" lon="13.5888001"><ele>252.25</ele><time>2026-05-02T10:05:50.134Z</time></trkpt><trkpt lat="46.1552716" lon="13.5885993"><ele>252.5</ele><time>2026-05-02T10:05:51.134Z</time></trkpt><trkpt lat="46.1552352" lon="13.5884082"><ele>252.75</ele><time>2026-05-02T10:05:52.134Z</time></trkpt><trkpt lat="46.1552212" lon="13.5882092"><ele>253.0</ele><time>2026-05-02T10:05:53.134Z</time></trkpt><trkpt lat="46.1552318" lon="13.588007"><ele>255.75</ele><time>2026-05-02T10:05:54.135Z</time></trkpt><trkpt lat="46.1552584" lon="13.5877995"><ele>258.5</ele><time>2026-05-02T10:05:55.134Z</time></trkpt><trkpt lat="46.1552925" lon="13.5876046"><ele>261.25</ele><time>2026-05-02T10:05:56.134Z</time></trkpt><trkpt lat="46.1553352" lon="13.5874196"><ele>264.0</ele><time>2026-05-02T10:05:57.135Z</time></trkpt><trkpt lat="46.1553867" lon="13.5872525"><ele>264.0</ele><time>2026-05-02T10:05:58.134Z</time></trkpt><trkpt lat="46.1554457" lon="13.5870911"><ele>264.0</ele><time>2026-05-02T10:05:59.134Z</time></trkpt><trkpt lat="46.1555183" lon="13.5869374"><ele>264.0</ele><time>2026-05-02T10:06:00.135Z</time></trkpt><trkpt lat="46.1556032" lon="13.5867793"><ele>264.0</ele><time>2026-05-02T10:06:01.135Z</time></trkpt><trkpt lat="46.1556944" lon="13.5866158"><ele>261.25</ele><time>2026-05-02T10:06:02.134Z</time></trkpt><trkpt lat="46.1557798" lon="13.5864609"><ele>258.5</ele><time>2026-05-02T10:06:03.135Z</time></trkpt><trkpt lat="46.1558588" lon="13.5863131"><ele>255.75</ele><time>2026-05-02T10:06:04.135Z</time></trkpt><trkpt lat="46.1559365" lon="13.5861682"><ele>253.0</ele><time>2026-05-02T10:06:05.134Z</time></trkpt><trkpt lat="46.1560138" lon="13.5860192"><ele>252.0</ele><time>2026-05-02T10:06:06.134Z</time></trkpt><trkpt lat="46.1560863" lon="13.5858725"><ele>251.0</ele><time>2026-05-02T10:06:07.135Z</time></trkpt><trkpt lat="46.1561507" lon="13.5857369"><ele>250.0</ele><time>2026-05-02T10:06:08.135Z</time></trkpt><trkpt lat="46.1562105" lon="13.5856002"><ele>249.0</ele><time>2026-05-02T10:06:09.134Z</time></trkpt><trkpt lat="46.1562774" lon="13.5854794"><ele>249.0</ele><time>2026-05-02T10:06:10.133Z</time></trkpt><trkpt lat="46.1563541" lon="13.5853551"><ele>249.0</ele><time>2026-05-02T10:06:11.133Z</time></trkpt><trkpt lat="46.1564264" lon="13.585209"><ele>249.0</ele><time>2026-05-02T10:06:12.134Z</time></trkpt><trkpt lat="46.1564797" lon="13.585061"><ele>249.0</ele><time>2026-05-02T10:06:13.133Z</time></trkpt><trkpt lat="46.1565137" lon="13.5849052"><ele>251.2</ele><time>2026-05-02T10:06:14.133Z</time></trkpt><trkpt lat="46.1565624" lon="13.5847513"><ele>253.39999999999998</ele><time>2026-05-02T10:06:15.134Z</time></trkpt><trkpt lat="46.1566276" lon="13.5846113"><ele>255.6</ele><time>2026-05-02T10:06:16.134Z</time></trkpt><trkpt lat="46.1566959" lon="13.5844991"><ele>257.8</ele><time>2026-05-02T10:06:17.133Z</time></trkpt><trkpt lat="46.1567472" lon="13.5843983"><ele>260.0</ele><time>2026-05-02T10:06:18.133Z</time></trkpt><trkpt lat="46.1567774" lon="13.5842751"><ele>260.0</ele><time>2026-05-02T10:06:19.133Z</time></trkpt><trkpt lat="46.1567792" lon="13.5841434"><ele>260.0</ele><time>2026-05-02T10:06:20.133Z</time></trkpt><trkpt lat="46.1567668" lon="13.5839979"><ele>260.0</ele><time>2026-05-02T10:06:21.133Z</time></trkpt><trkpt lat="46.1567645" lon="13.5838465"><ele>260.0</ele><time>2026-05-02T10:06:22.133Z</time></trkpt><trkpt lat="46.1567685" lon="13.5837012"><ele>260.0</ele><time>2026-05-02T10:06:23.133Z</time></trkpt><trkpt lat="46.1567842" lon="13.5835759"><ele>260.4</ele><time>2026-05-02T10:06:24.134Z</time></trkpt><trkpt lat="46.1568029" lon="13.5834733"><ele>260.8</ele><time>2026-05-02T10:06:25.134Z</time></trkpt><trkpt lat="46.1568041" lon="13.5833598"><ele>261.2</ele><time>2026-05-02T10:06:26.133Z</time></trkpt><trkpt lat="46.1567754" lon="13.5832415"><ele>261.6</ele><time>2026-05-02T10:06:27.133Z</time></trkpt><trkpt lat="46.1567432" lon="13.5830926"><ele>262.0</ele><time>2026-05-02T10:06:28.134Z</time></trkpt><trkpt lat="46.1567239" lon="13.5829245"><ele>265.75</ele><time>2026-05-02T10:06:29.133Z</time></trkpt><trkpt lat="46.1566981" lon="13.5827562"><ele>269.5</ele><time>2026-05-02T10:06:30.133Z</time></trkpt><trkpt lat="46.1566581" lon="13.5826051"><ele>273.25</ele><time>2026-05-02T10:06:31.134Z</time></trkpt><trkpt lat="46.1566104" lon="13.5824524"><ele>277.0</ele><time>2026-05-02T10:06:32.133Z</time></trkpt><trkpt lat="46.1565654" lon="13.5822782"><ele>272.25</ele><time>2026-05-02T10:06:33.133Z</time></trkpt><trkpt lat="46.156527" lon="13.5821005"><ele>267.5</ele><time>2026-05-02T10:06:34.133Z</time></trkpt><trkpt lat="46.156486" lon="13.5819382"><ele>262.75</ele><time>2026-05-02T10:06:35.133Z</time></trkpt><trkpt lat="46.1564414" lon="13.5817766"><ele>258.0</ele><time>2026-05-02T10:06:36.134Z</time></trkpt><trkpt lat="46.1563954" lon="13.5816274"><ele>258.0</ele><time>2026-05-02T10:06:37.134Z</time></trkpt><trkpt lat="46.1563525" lon="13.581485"><ele>258.0</ele><time>2026-05-02T10:06:38.133Z</time></trkpt><trkpt lat="46.156326" lon="13.5813679"><ele>258.0</ele><time>2026-05-02T10:06:39.134Z</time></trkpt><trkpt lat="46.1563371" lon="13.581227"><ele>258.0</ele><time>2026-05-02T10:06:41.133Z</time></trkpt><trkpt lat="46.1564389" lon="13.5811365"><ele>258.0</ele><time>2026-05-02T10:06:43.134Z</time></trkpt><trkpt lat="46.1565128" lon="13.5810975"><ele>265.2</ele><time>2026-05-02T10:06:44.133Z</time></trkpt><trkpt lat="46.1565947" lon="13.5810449"><ele>272.4</ele><time>2026-05-02T10:06:45.133Z</time></trkpt><trkpt lat="46.1566786" lon="13.5809691"><ele>279.59999999999997</ele><time>2026-05-02T10:06:46.133Z</time></trkpt><trkpt lat="46.1567665" lon="13.5808872"><ele>286.8</ele><time>2026-05-02T10:06:47.134Z</time></trkpt><trkpt lat="46.1568588" lon="13.5808204"><ele>294.0</ele><time>2026-05-02T10:06:48.133Z</time></trkpt><trkpt lat="46.1569524" lon="13.5807707"><ele>294.0</ele><time>2026-05-02T10:06:49.133Z</time></trkpt><trkpt lat="46.157043" lon="13.5807029"><ele>294.0</ele><time>2026-05-02T10:06:50.134Z</time></trkpt><trkpt lat="46.157117" lon="13.580615"><ele>294.0</ele><time>2026-05-02T10:06:51.133Z</time></trkpt><trkpt lat="46.1571758" lon="13.580522"><ele>294.0</ele><time>2026-05-02T10:06:52.133Z</time></trkpt><trkpt lat="46.1572189" lon="13.5804364"><ele>294.0</ele><time>2026-05-02T10:06:53.134Z</time></trkpt><trkpt lat="46.1572198" lon="13.5803286"><ele>294.0</ele><time>2026-05-02T10:06:55.134Z</time></trkpt><trkpt lat="46.1571688" lon="13.5802722"><ele>294.0</ele><time>2026-05-02T10:06:56.133Z</time></trkpt><trkpt lat="46.1570903" lon="13.5802796"><ele>294.0</ele><time>2026-05-02T10:06:57.133Z</time></trkpt><trkpt lat="46.1570017" lon="13.5803023"><ele>294.0</ele><time>2026-05-02T10:06:58.133Z</time></trkpt><trkpt lat="46.1569129" lon="13.5803397"><ele>294.0</ele><time>2026-05-02T10:06:59.134Z</time></trkpt><trkpt lat="46.1568279" lon="13.5803587"><ele>294.0</ele><time>2026-05-02T10:07:00.134Z</time></trkpt><trkpt lat="46.1567389" lon="13.5803696"><ele>294.0</ele><time>2026-05-02T10:07:01.133Z</time></trkpt><trkpt lat="46.1566436" lon="13.5803735"><ele>294.0</ele><time>2026-05-02T10:07:02.134Z</time></trkpt><trkpt lat="46.1565545" lon="13.5803556"><ele>294.0</ele><time>2026-05-02T10:07:03.134Z</time></trkpt><trkpt lat="46.1564625" lon="13.5803285"><ele>294.0</ele><time>2026-05-02T10:07:04.133Z</time></trkpt><trkpt lat="46.1563666" lon="13.5802981"><ele>294.0</ele><time>2026-05-02T10:07:05.133Z</time></trkpt><trkpt lat="46.156269" lon="13.5802682"><ele>294.0</ele><time>2026-05-02T10:07:06.133Z</time></trkpt><trkpt lat="46.1561813" lon="13.5802257"><ele>293.1666666666667</ele><time>2026-05-02T10:07:07.133Z</time></trkpt><trkpt lat="46.1561157" lon="13.5801754"><ele>292.3333333333333</ele><time>2026-05-02T10:07:08.133Z</time></trkpt><trkpt lat="46.1560729" lon="13.580105"><ele>291.5</ele><time>2026-05-02T10:07:09.133Z</time></trkpt><trkpt lat="46.156049" lon="13.5799843"><ele>290.66666666666663</ele><time>2026-05-02T10:07:10.134Z</time></trkpt><trkpt lat="46.1560449" lon="13.5798558"><ele>289.8333333333333</ele><time>2026-05-02T10:07:11.133Z</time></trkpt><trkpt lat="46.1560566" lon="13.5797107"><ele>289.0</ele><time>2026-05-02T10:07:12.134Z</time></trkpt><trkpt lat="46.1560657" lon="13.5795623"><ele>289.8</ele><time>2026-05-02T10:07:13.133Z</time></trkpt><trkpt lat="46.1560706" lon="13.5794062"><ele>290.59999999999997</ele><time>2026-05-02T10:07:14.134Z</time></trkpt><trkpt lat="46.1560662" lon="13.5792473"><ele>291.4</ele><time>2026-05-02T10:07:15.133Z</time></trkpt><trkpt lat="46.1560493" lon="13.5790912"><ele>292.2</ele><time>2026-05-02T10:07:16.133Z</time></trkpt><trkpt lat="46.1560209" lon="13.5789571"><ele>293.0</ele><time>2026-05-02T10:07:17.133Z</time></trkpt><trkpt lat="46.1559949" lon="13.5788487"><ele>293.0</ele><time>2026-05-02T10:07:18.133Z</time></trkpt><trkpt lat="46.1559821" lon="13.578759"><ele>293.0</ele><time>2026-05-02T10:07:19.133Z</time></trkpt><trkpt lat="46.1560058" lon="13.5785966"><ele>293.0</ele><time>2026-05-02T10:07:21.134Z</time></trkpt><trkpt lat="46.1560468" lon="13.5785111"><ele>293.0</ele><time>2026-05-02T10:07:22.134Z</time></trkpt><trkpt lat="46.1561108" lon="13.5784222"><ele>293.0</ele><time>2026-05-02T10:07:23.133Z</time></trkpt><trkpt lat="46.1561864" lon="13.5783365"><ele>293.0</ele><time>2026-05-02T10:07:24.134Z</time></trkpt><trkpt lat="46.1562731" lon="13.5782407"><ele>292.25</ele><time>2026-05-02T10:07:25.134Z</time></trkpt><trkpt lat="46.1563701" lon="13.5781688"><ele>291.5</ele><time>2026-05-02T10:07:26.133Z</time></trkpt><trkpt lat="46.1564598" lon="13.5780732"><ele>290.75</ele><time>2026-05-02T10:07:27.133Z</time></trkpt><trkpt lat="46.1565459" lon="13.5779632"><ele>290.0</ele><time>2026-05-02T10:07:28.133Z</time></trkpt><trkpt lat="46.1566329" lon="13.5778497"><ele>298.25</ele><time>2026-05-02T10:07:29.134Z</time></trkpt><trkpt lat="46.1567296" lon="13.5777405"><ele>306.5</ele><time>2026-05-02T10:07:30.133Z</time></trkpt><trkpt lat="46.1568223" lon="13.5776359"><ele>314.75</ele><time>2026-05-02T10:07:31.133Z</time></trkpt><trkpt lat="46.1569201" lon="13.5775233"><ele>323.0</ele><time>2026-05-02T10:07:32.133Z</time></trkpt><trkpt lat="46.1570145" lon="13.5774031"><ele>323.0</ele><time>2026-05-02T10:07:33.134Z</time></trkpt><trkpt lat="46.1570903" lon="13.5772941"><ele>323.0</ele><time>2026-05-02T10:07:34.133Z</time></trkpt><trkpt lat="46.1571447" lon="13.5772114"><ele>323.0</ele><time>2026-05-02T10:07:35.133Z</time></trkpt><trkpt lat="46.1572016" lon="13.5770624"><ele>323.0</ele><time>2026-05-02T10:07:37.134Z</time></trkpt><trkpt lat="46.1571932" lon="13.5769562"><ele>323.0</ele><time>2026-05-02T10:07:38.133Z</time></trkpt><trkpt lat="46.1571618" lon="13.576831"><ele>326.2</ele><time>2026-05-02T10:07:39.134Z</time></trkpt><trkpt lat="46.1571232" lon="13.5767254"><ele>329.4</ele><time>2026-05-02T10:07:40.133Z</time></trkpt><trkpt lat="46.1570706" lon="13.5766369"><ele>332.59999999999997</ele><time>2026-05-02T10:07:41.133Z</time></trkpt><trkpt lat="46.1569879" lon="13.5765761"><ele>335.79999999999995</ele><time>2026-05-02T10:07:42.133Z</time></trkpt><trkpt lat="46.156896" lon="13.5765313"><ele>339.0</ele><time>2026-05-02T10:07:43.133Z</time></trkpt><trkpt lat="46.156791" lon="13.5765036"><ele>339.0</ele><time>2026-05-02T10:07:44.133Z</time></trkpt><trkpt lat="46.1566943" lon="13.5764693"><ele>339.0</ele><time>2026-05-02T10:07:45.133Z</time></trkpt><trkpt lat="46.1565916" lon="13.5764533"><ele>339.0</ele><time>2026-05-02T10:07:46.134Z</time></trkpt><trkpt lat="46.1564893" lon="13.576434"><ele>339.0</ele><time>2026-05-02T10:07:47.133Z</time></trkpt><trkpt lat="46.1563885" lon="13.5764051"><ele>339.0</ele><time>2026-05-02T10:07:48.133Z</time></trkpt><trkpt lat="46.1563036" lon="13.5763659"><ele>338.6666666666667</ele><time>2026-05-02T10:07:49.134Z</time></trkpt><trkpt lat="46.1562368" lon="13.5763254"><ele>338.3333333333333</ele><time>2026-05-02T10:07:50.133Z</time></trkpt><trkpt lat="46.1561768" lon="13.5762808"><ele>338.0</ele><time>2026-05-02T10:07:51.133Z</time></trkpt><trkpt lat="46.1561321" lon="13.5762003"><ele>337.66666666666663</ele><time>2026-05-02T10:07:52.133Z</time></trkpt><trkpt lat="46.1561178" lon="13.5760723"><ele>337.3333333333333</ele><time>2026-05-02T10:07:53.133Z</time></trkpt><trkpt lat="46.1561275" lon="13.5759378"><ele>337.0</ele><time>2026-05-02T10:07:54.134Z</time></trkpt><trkpt lat="46.156151" lon="13.5757978"><ele>337.0</ele><time>2026-05-02T10:07:55.134Z</time></trkpt><trkpt lat="46.1561767" lon="13.5756522"><ele>337.0</ele><time>2026-05-02T10:07:56.133Z</time></trkpt><trkpt lat="46.1561902" lon="13.5755169"><ele>337.0</ele><time>2026-05-02T10:07:57.133Z</time></trkpt><trkpt lat="46.1561847" lon="13.5754061"><ele>337.0</ele><time>2026-05-02T10:07:58.133Z</time></trkpt><trkpt lat="46.1561554" lon="13.5753036"><ele>337.0</ele><time>2026-05-02T10:07:59.133Z</time></trkpt><trkpt lat="46.1560962" lon="13.5752321"><ele>337.0</ele><time>2026-05-02T10:08:00.134Z</time></trkpt><trkpt lat="46.1560219" lon="13.5751882"><ele>335.66666666666663</ele><time>2026-05-02T10:08:01.133Z</time></trkpt><trkpt lat="46.1559302" lon="13.5751796"><ele>334.3333333333333</ele><time>2026-05-02T10:08:02.133Z</time></trkpt><trkpt lat="46.1558384" lon="13.5751789"><ele>333.0</ele><time>2026-05-02T10:08:03.133Z</time></trkpt><trkpt lat="46.1557553" lon="13.5751403"><ele>331.6666666666667</ele><time>2026-05-02T10:08:04.134Z</time></trkpt><trkpt lat="46.1556896" lon="13.5750711"><ele>330.33333333333337</ele><time>2026-05-02T10:08:05.134Z</time></trkpt><trkpt lat="46.1556284" lon="13.575004"><ele>329.0</ele><time>2026-05-02T10:08:06.133Z</time></trkpt><trkpt lat="46.1555736" lon="13.5749279"><ele>329.0</ele><time>2026-05-02T10:08:07.134Z</time></trkpt><trkpt lat="46.1555264" lon="13.5748379"><ele>329.0</ele><time>2026-05-02T10:08:08.133Z</time></trkpt><trkpt lat="46.1554904" lon="13.5747236"><ele>329.0</ele><time>2026-05-02T10:08:09.133Z</time></trkpt><trkpt lat="46.1554726" lon="13.5746205"><ele>329.0</ele><time>2026-05-02T10:08:10.134Z</time></trkpt><trkpt lat="46.1554687" lon="13.57452"><ele>329.0</ele><time>2026-05-02T10:08:11.133Z</time></trkpt><trkpt lat="46.155486" lon="13.5744245"><ele>329.0</ele><time>2026-05-02T10:08:12.133Z</time></trkpt><trkpt lat="46.1555164" lon="13.5743244"><ele>329.6666666666667</ele><time>2026-05-02T10:08:13.133Z</time></trkpt><trkpt lat="46.1555409" lon="13.574225"><ele>330.33333333333337</ele><time>2026-05-02T10:08:14.133Z</time></trkpt><trkpt lat="46.1555642" lon="13.5741295"><ele>331.0</ele><time>2026-05-02T10:08:15.133Z</time></trkpt><trkpt lat="46.1555961" lon="13.5740274"><ele>331.6666666666667</ele><time>2026-05-02T10:08:16.133Z</time></trkpt><trkpt lat="46.1556245" lon="13.573923"><ele>332.3333333333333</ele><time>2026-05-02T10:08:17.134Z</time></trkpt><trkpt lat="46.1556559" lon="13.5738081"><ele>333.0</ele><time>2026-05-02T10:08:18.133Z</time></trkpt><trkpt lat="46.1556899" lon="13.5736802"><ele>341.79999999999995</ele><time>2026-05-02T10:08:19.133Z</time></trkpt><trkpt lat="46.1557304" lon="13.5735472"><ele>350.6</ele><time>2026-05-02T10:08:20.134Z</time></trkpt><trkpt lat="46.155772" lon="13.573411"><ele>359.4</ele><time>2026-05-02T10:08:21.134Z</time></trkpt><trkpt lat="46.155821" lon="13.5732724"><ele>368.20000000000005</ele><time>2026-05-02T10:08:22.133Z</time></trkpt><trkpt lat="46.1558674" lon="13.5731228"><ele>377.0</ele><time>2026-05-02T10:08:23.133Z</time></trkpt><trkpt lat="46.155907" lon="13.5729713"><ele>376.25</ele><time>2026-05-02T10:08:24.133Z</time></trkpt><trkpt lat="46.15594" lon="13.5728042"><ele>375.5</ele><time>2026-05-02T10:08:25.133Z</time></trkpt><trkpt lat="46.1559864" lon="13.5726403"><ele>374.75</ele><time>2026-05-02T10:08:26.133Z</time></trkpt><trkpt lat="46.1560323" lon="13.5724789"><ele>374.0</ele><time>2026-05-02T10:08:27.133Z</time></trkpt><trkpt lat="46.1560617" lon="13.5723179"><ele>374.0</ele><time>2026-05-02T10:08:28.133Z</time></trkpt><trkpt lat="46.1560782" lon="13.5721716"><ele>374.0</ele><time>2026-05-02T10:08:29.133Z</time></trkpt><trkpt lat="46.1560895" lon="13.5720502"><ele>374.0</ele><time>2026-05-02T10:08:30.134Z</time></trkpt><trkpt lat="46.1560905" lon="13.5719376"><ele>374.0</ele><time>2026-05-02T10:08:31.133Z</time></trkpt><trkpt lat="46.1560678" lon="13.571846"><ele>374.0</ele><time>2026-05-02T10:08:32.133Z</time></trkpt><trkpt lat="46.1560225" lon="13.5717707"><ele>374.0</ele><time>2026-05-02T10:08:33.133Z</time></trkpt><trkpt lat="46.1559509" lon="13.5717077"><ele>375.1666666666667</ele><time>2026-05-02T10:08:34.133Z</time></trkpt><trkpt lat="46.1558636" lon="13.5716842"><ele>376.33333333333337</ele><time>2026-05-02T10:08:35.133Z</time></trkpt><trkpt lat="46.1557718" lon="13.5716861"><ele>377.5</ele><time>2026-05-02T10:08:36.133Z</time></trkpt><trkpt lat="46.1557005" lon="13.5717033"><ele>378.6666666666667</ele><time>2026-05-02T10:08:37.134Z</time></trkpt><trkpt lat="46.1555907" lon="13.5716843"><ele>379.8333333333333</ele><time>2026-05-02T10:08:39.133Z</time></trkpt><trkpt lat="46.1555743" lon="13.5715813"><ele>381.0</ele><time>2026-05-02T10:08:41.133Z</time></trkpt><trkpt lat="46.1556672" lon="13.5715252"><ele>384.1666666666667</ele><time>2026-05-02T10:08:43.133Z</time></trkpt><trkpt lat="46.1557898" lon="13.5715396"><ele>387.33333333333337</ele><time>2026-05-02T10:08:45.134Z</time></trkpt><trkpt lat="46.1558727" lon="13.5715383"><ele>390.5</ele><time>2026-05-02T10:08:46.133Z</time></trkpt><trkpt lat="46.1559567" lon="13.5715348"><ele>393.6666666666667</ele><time>2026-05-02T10:08:47.133Z</time></trkpt><trkpt lat="46.1560296" lon="13.571534"><ele>396.83333333333337</ele><time>2026-05-02T10:08:48.133Z</time></trkpt><trkpt lat="46.1560972" lon="13.5715516"><ele>400.0</ele><time>2026-05-02T10:08:49.133Z</time></trkpt><trkpt lat="46.156153" lon="13.5716293"><ele>400.00000000000006</ele><time>2026-05-02T10:08:50.133Z</time></trkpt><trkpt lat="46.1561873" lon="13.5717556"><ele>400.0</ele><time>2026-05-02T10:08:51.133Z</time></trkpt><trkpt lat="46.1562134" lon="13.5718707"><ele>400.0</ele><time>2026-05-02T10:08:52.134Z</time></trkpt><trkpt lat="46.1562332" lon="13.5719804"><ele>400.0</ele><time>2026-05-02T10:08:53.133Z</time></trkpt><trkpt lat="46.1562568" lon="13.5720774"><ele>400.00000000000006</ele><time>2026-05-02T10:08:54.133Z</time></trkpt><trkpt lat="46.1562739" lon="13.5721738"><ele>400.0</ele><time>2026-05-02T10:08:55.133Z</time></trkpt><trkpt lat="46.1562886" lon="13.5722718"><ele>400.0</ele><time>2026-05-02T10:08:56.133Z</time></trkpt><trkpt lat="46.1563369" lon="13.5723803"><ele>400.0</ele><time>2026-05-02T10:08:58.133Z</time></trkpt><trkpt lat="46.1564125" lon="13.5723598"><ele>400.0</ele><time>2026-05-02T10:09:00.134Z</time></trkpt><trkpt lat="46.1564091" lon="13.5721721"><ele>400.0</ele><time>2026-05-02T10:09:02.134Z</time></trkpt><trkpt lat="46.1564044" lon="13.5720458"><ele>400.0</ele><time>2026-05-02T10:09:03.133Z</time></trkpt><trkpt lat="46.1564027" lon="13.5719247"><ele>400.00000000000006</ele><time>2026-05-02T10:09:04.133Z</time></trkpt><trkpt lat="46.1563925" lon="13.5718052"><ele>400.0</ele><time>2026-05-02T10:09:05.134Z</time></trkpt><trkpt lat="46.1563757" lon="13.5716896"><ele>400.0</ele><time>2026-05-02T10:09:06.134Z</time></trkpt><trkpt lat="46.1563593" lon="13.571574"><ele>400.0</ele><time>2026-05-02T10:09:07.134Z</time></trkpt><trkpt lat="46.1563426" lon="13.5714568"><ele>400.00000000000006</ele><time>2026-05-02T10:09:08.134Z</time></trkpt><trkpt lat="46.1563261" lon="13.5713557"><ele>400.0</ele><time>2026-05-02T10:09:09.133Z</time></trkpt><trkpt lat="46.1562934" lon="13.5712772"><ele>400.00000000000006</ele><time>2026-05-02T10:09:10.133Z</time></trkpt><trkpt lat="46.1562306" lon="13.5712101"><ele>400.0</ele><time>2026-05-02T10:09:11.134Z</time></trkpt><trkpt lat="46.1561351" lon="13.5711807"><ele>400.0</ele><time>2026-05-02T10:09:12.133Z</time></trkpt><trkpt lat="46.1560338" lon="13.5711731"><ele>400.0</ele><time>2026-05-02T10:09:13.134Z</time></trkpt><trkpt lat="46.15594" lon="13.5711662"><ele>400.00000000000006</ele><time>2026-05-02T10:09:14.133Z</time></trkpt><trkpt lat="46.1558628" lon="13.5711654"><ele>400.0</ele><time>2026-05-02T10:09:15.133Z</time></trkpt><trkpt lat="46.1557935" lon="13.5711562"><ele>403.33333333333337</ele><time>2026-05-02T10:09:16.133Z</time></trkpt><trkpt lat="46.1557288" lon="13.5711256"><ele>406.6666666666667</ele><time>2026-05-02T10:09:17.133Z</time></trkpt><trkpt lat="46.1556575" lon="13.5710716"><ele>410.0</ele><time>2026-05-02T10:09:18.133Z</time></trkpt><trkpt lat="46.155577" lon="13.5709931"><ele>413.33333333333337</ele><time>2026-05-02T10:09:19.134Z</time></trkpt><trkpt lat="46.1554943" lon="13.5709211"><ele>416.6666666666667</ele><time>2026-05-02T10:09:20.134Z</time></trkpt><trkpt lat="46.1554004" lon="13.5708704"><ele>420.0</ele><time>2026-05-02T10:09:21.134Z</time></trkpt><trkpt lat="46.1553015" lon="13.5708498"><ele>420.0</ele><time>2026-05-02T10:09:22.133Z</time></trkpt><trkpt lat="46.1552032" lon="13.5708337"><ele>420.0</ele><time>2026-05-02T10:09:23.133Z</time></trkpt><trkpt lat="46.1551103" lon="13.570799"><ele>420.0</ele><time>2026-05-02T10:09:24.133Z</time></trkpt><trkpt lat="46.1550226" lon="13.5707473"><ele>420.0</ele><time>2026-05-02T10:09:25.134Z</time></trkpt><trkpt lat="46.1549384" lon="13.5706776"><ele>420.0</ele><time>2026-05-02T10:09:26.133Z</time></trkpt><trkpt lat="46.1548587" lon="13.5706"><ele>420.0</ele><time>2026-05-02T10:09:27.134Z</time></trkpt><trkpt lat="46.1547912" lon="13.5705312"><ele>420.0</ele><time>2026-05-02T10:09:28.134Z</time></trkpt><trkpt lat="46.1547118" lon="13.5704244"><ele>420.0</ele><time>2026-05-02T10:09:30.134Z</time></trkpt><trkpt lat="46.1547419" lon="13.5703292"><ele>420.0</ele><time>2026-05-02T10:09:32.133Z</time></trkpt><trkpt lat="46.1548265" lon="13.5703654"><ele>420.0</ele><time>2026-05-02T10:09:34.133Z</time></trkpt><trkpt lat="46.1549292" lon="13.5704776"><ele>420.0</ele><time>2026-05-02T10:09:36.133Z</time></trkpt><trkpt lat="46.1550038" lon="13.5705149"><ele>420.0</ele><time>2026-05-02T10:09:37.134Z</time></trkpt><trkpt lat="46.1550923" lon="13.5705503"><ele>420.0</ele><time>2026-05-02T10:09:38.133Z</time></trkpt><trkpt lat="46.1551804" lon="13.5705757"><ele>420.0</ele><time>2026-05-02T10:09:39.133Z</time></trkpt><trkpt lat="46.1552772" lon="13.570569"><ele>420.0</ele><time>2026-05-02T10:09:40.134Z</time></trkpt><trkpt lat="46.1553778" lon="13.5705327"><ele>420.0</ele><time>2026-05-02T10:09:41.133Z</time></trkpt><trkpt lat="46.1554842" lon="13.5704917"><ele>420.0</ele><time>2026-05-02T10:09:42.134Z</time></trkpt><trkpt lat="46.155592" lon="13.5704827"><ele>420.0</ele><time>2026-05-02T10:09:43.133Z</time></trkpt><trkpt lat="46.155701" lon="13.5704903"><ele>420.0</ele><time>2026-05-02T10:09:44.133Z</time></trkpt><trkpt lat="46.1558026" lon="13.5705053"><ele>420.0</ele><time>2026-05-02T10:09:45.133Z</time></trkpt><trkpt lat="46.1559065" lon="13.5705161"><ele>422.1666666666667</ele><time>2026-05-02T10:09:46.133Z</time></trkpt><trkpt lat="46.1560148" lon="13.5705237"><ele>424.33333333333337</ele><time>2026-05-02T10:09:47.133Z</time></trkpt><trkpt lat="46.1561132" lon="13.5705345"><ele>426.5</ele><time>2026-05-02T10:09:48.133Z</time></trkpt><trkpt lat="46.1561935" lon="13.5705556"><ele>428.6666666666667</ele><time>2026-05-02T10:09:49.133Z</time></trkpt><trkpt lat="46.1562605" lon="13.5705718"><ele>430.83333333333337</ele><time>2026-05-02T10:09:50.133Z</time></trkpt><trkpt lat="46.1563407" lon="13.5705493"><ele>433.0</ele><time>2026-05-02T10:09:52.134Z</time></trkpt><trkpt lat="46.1562976" lon="13.5704337"><ele>433.0</ele><time>2026-05-02T10:09:54.133Z</time></trkpt><trkpt lat="46.1562191" lon="13.5704033"><ele>432.99999999999994</ele><time>2026-05-02T10:09:55.133Z</time></trkpt><trkpt lat="46.1561146" lon="13.5703981"><ele>432.99999999999994</ele><time>2026-05-02T10:09:56.133Z</time></trkpt><trkpt lat="46.1560046" lon="13.5703775"><ele>433.0</ele><time>2026-05-02T10:09:57.134Z</time></trkpt><trkpt lat="46.1559046" lon="13.5703349"><ele>433.0</ele><time>2026-05-02T10:09:58.133Z</time></trkpt><trkpt lat="46.1558019" lon="13.5702913"><ele>434.59999999999997</ele><time>2026-05-02T10:09:59.133Z</time></trkpt><trkpt lat="46.1556977" lon="13.5702473"><ele>436.19999999999993</ele><time>2026-05-02T10:10:00.134Z</time></trkpt><trkpt lat="46.1556039" lon="13.5702081"><ele>437.8</ele><time>2026-05-02T10:10:01.133Z</time></trkpt><trkpt lat="46.1555171" lon="13.570175"><ele>439.4</ele><time>2026-05-02T10:10:02.133Z</time></trkpt><trkpt lat="46.1554396" lon="13.5701458"><ele>441.0</ele><time>2026-05-02T10:10:03.133Z</time></trkpt><trkpt lat="46.1553539" lon="13.5700893"><ele>441.0</ele><time>2026-05-02T10:10:05.133Z</time></trkpt><trkpt lat="46.1553243" lon="13.5700085"><ele>441.0</ele><time>2026-05-02T10:10:07.132Z</time></trkpt><trkpt lat="46.1553453" lon="13.5698961"><ele>441.0</ele><time>2026-05-02T10:10:09.132Z</time></trkpt><trkpt lat="46.1553892" lon="13.5697427"><ele>441.0</ele><time>2026-05-02T10:10:11.132Z</time></trkpt><trkpt lat="46.1554498" lon="13.5696079"><ele>441.0</ele><time>2026-05-02T10:10:13.132Z</time></trkpt><trkpt lat="46.1555341" lon="13.5694758"><ele>444.5</ele><time>2026-05-02T10:10:15.133Z</time></trkpt><trkpt lat="46.1556324" lon="13.5693644"><ele>448.0</ele><time>2026-05-02T10:10:17.132Z</time></trkpt><trkpt lat="46.1556858" lon="13.5692908"><ele>451.5</ele><time>2026-05-02T10:10:18.133Z</time></trkpt><trkpt lat="46.1557348" lon="13.5692024"><ele>455.0</ele><time>2026-05-02T10:10:19.132Z</time></trkpt><trkpt lat="46.1557911" lon="13.569115"><ele>458.5</ele><time>2026-05-02T10:10:20.133Z</time></trkpt><trkpt lat="46.1558509" lon="13.5690313"><ele>462.0</ele><time>2026-05-02T10:10:21.132Z</time></trkpt><trkpt lat="46.1559066" lon="13.5689471"><ele>462.0</ele><time>2026-05-02T10:10:22.133Z</time></trkpt><trkpt lat="46.1559578" lon="13.5688767"><ele>462.0</ele><time>2026-05-02T10:10:23.133Z</time></trkpt><trkpt lat="46.1560031" lon="13.5688071"><ele>462.0</ele><time>2026-05-02T10:10:24.132Z</time></trkpt><trkpt lat="46.1560511" lon="13.5687435"><ele>462.0</ele><time>2026-05-02T10:10:25.132Z</time></trkpt><trkpt lat="46.1561366" lon="13.568637"><ele>462.0</ele><time>2026-05-02T10:10:27.132Z</time></trkpt><trkpt lat="46.1561864" lon="13.5685712"><ele>462.0</ele><time>2026-05-02T10:10:28.132Z</time></trkpt><trkpt lat="46.1562362" lon="13.5684985"><ele>458.85714285714283</ele><time>2026-05-02T10:10:29.133Z</time></trkpt><trkpt lat="46.15628" lon="13.5684184"><ele>455.7142857142857</ele><time>2026-05-02T10:10:30.132Z</time></trkpt><trkpt lat="46.1563208" lon="13.5683476"><ele>452.57142857142856</ele><time>2026-05-02T10:10:31.133Z</time></trkpt><trkpt lat="46.1563548" lon="13.568268"><ele>449.42857142857144</ele><time>2026-05-02T10:10:32.132Z</time></trkpt><trkpt lat="46.1563931" lon="13.5681801"><ele>446.2857142857143</ele><time>2026-05-02T10:10:33.133Z</time></trkpt><trkpt lat="46.1564345" lon="13.568098"><ele>443.1428571428571</ele><time>2026-05-02T10:10:34.132Z</time></trkpt><trkpt lat="46.1564796" lon="13.568012"><ele>440.0</ele><time>2026-05-02T10:10:35.133Z</time></trkpt><trkpt lat="46.1565236" lon="13.5679194"><ele>443.85714285714283</ele><time>2026-05-02T10:10:36.132Z</time></trkpt><trkpt lat="46.1565676" lon="13.5678401"><ele>447.71428571428567</ele><time>2026-05-02T10:10:37.132Z</time></trkpt><trkpt lat="46.1566094" lon="13.5677675"><ele>451.57142857142856</ele><time>2026-05-02T10:10:38.132Z</time></trkpt><trkpt lat="46.1566606" lon="13.567693"><ele>455.4285714285714</ele><time>2026-05-02T10:10:39.132Z</time></trkpt><trkpt lat="46.1567184" lon="13.5676151"><ele>459.2857142857143</ele><time>2026-05-02T10:10:40.132Z</time></trkpt><trkpt lat="46.1567678" lon="13.5675395"><ele>463.14285714285705</ele><time>2026-05-02T10:10:41.132Z</time></trkpt><trkpt lat="46.1568201" lon="13.5674533"><ele>466.99999999999994</ele><time>2026-05-02T10:10:42.133Z</time></trkpt><trkpt lat="46.1568742" lon="13.567348"><ele>466.99999999999994</ele><time>2026-05-02T10:10:43.133Z</time></trkpt><trkpt lat="46.1569292" lon="13.5672472"><ele>467.0</ele><time>2026-05-02T10:10:44.133Z</time></trkpt><trkpt lat="46.1569767" lon="13.5671551"><ele>467.0</ele><time>2026-05-02T10:10:45.132Z</time></trkpt><trkpt lat="46.1570382" lon="13.5670683"><ele>467.0</ele><time>2026-05-02T10:10:46.132Z</time></trkpt><trkpt lat="46.1570921" lon="13.5670017"><ele>466.99999999999994</ele><time>2026-05-02T10:10:47.132Z</time></trkpt><trkpt lat="46.1571429" lon="13.5669377"><ele>467.0</ele><time>2026-05-02T10:10:48.132Z</time></trkpt><trkpt lat="46.1572131" lon="13.5668549"><ele>468.20000000000005</ele><time>2026-05-02T10:10:50.132Z</time></trkpt><trkpt lat="46.1572588" lon="13.5667351"><ele>469.40000000000003</ele><time>2026-05-02T10:10:52.132Z</time></trkpt><trkpt lat="46.1572889" lon="13.566557"><ele>470.59999999999997</ele><time>2026-05-02T10:10:54.133Z</time></trkpt><trkpt lat="46.1573035" lon="13.5664312"><ele>471.79999999999995</ele><time>2026-05-02T10:10:55.132Z</time></trkpt><trkpt lat="46.1573214" lon="13.5663103"><ele>473.0</ele><time>2026-05-02T10:10:56.132Z</time></trkpt><trkpt lat="46.1573557" lon="13.5661396"><ele>472.99999999999994</ele><time>2026-05-02T10:10:58.132Z</time></trkpt><trkpt lat="46.157422" lon="13.5660126"><ele>473.0</ele><time>2026-05-02T10:11:00.132Z</time></trkpt><trkpt lat="46.1574236" lon="13.5658995"><ele>473.0</ele><time>2026-05-02T10:11:02.133Z</time></trkpt><trkpt lat="46.1573671" lon="13.5658364"><ele>473.0</ele><time>2026-05-02T10:11:04.132Z</time></trkpt><trkpt lat="46.1572668" lon="13.5657966"><ele>472.99999999999994</ele><time>2026-05-02T10:11:06.133Z</time></trkpt><trkpt lat="46.1572201" lon="13.565706"><ele>473.0</ele><time>2026-05-02T10:11:08.132Z</time></trkpt><trkpt lat="46.1571944" lon="13.5655417"><ele>472.99999999999994</ele><time>2026-05-02T10:11:10.133Z</time></trkpt><trkpt lat="46.1571737" lon="13.5654477"><ele>473.0</ele><time>2026-05-02T10:11:11.132Z</time></trkpt><trkpt lat="46.1570937" lon="13.5653557"><ele>473.0</ele><time>2026-05-02T10:11:13.133Z</time></trkpt><trkpt lat="46.1570308" lon="13.5653222"><ele>473.0</ele><time>2026-05-02T10:11:14.133Z</time></trkpt><trkpt lat="46.1569676" lon="13.5652705"><ele>472.99999999999994</ele><time>2026-05-02T10:11:15.133Z</time></trkpt><trkpt lat="46.1569082" lon="13.5652113"><ele>473.0</ele><time>2026-05-02T10:11:16.133Z</time></trkpt><trkpt lat="46.1568526" lon="13.5651528"><ele>472.99999999999994</ele><time>2026-05-02T10:11:17.132Z</time></trkpt><trkpt lat="46.1567341" lon="13.5651228"><ele>473.0</ele><time>2026-05-02T10:11:19.132Z</time></trkpt><trkpt lat="46.1566599" lon="13.5651469"><ele>473.0</ele><time>2026-05-02T10:11:20.132Z</time></trkpt><trkpt lat="46.1565781" lon="13.5651715"><ele>473.0</ele><time>2026-05-02T10:11:21.132Z</time></trkpt><trkpt lat="46.1564926" lon="13.5652035"><ele>472.99999999999994</ele><time>2026-05-02T10:11:22.133Z</time></trkpt><trkpt lat="46.1564274" lon="13.565203"><ele>473.0</ele><time>2026-05-02T10:11:23.132Z</time></trkpt><trkpt lat="46.1563445" lon="13.565164"><ele>473.0</ele><time>2026-05-02T10:11:25.132Z</time></trkpt><trkpt lat="46.1562646" lon="13.565064"><ele>472.99999999999994</ele><time>2026-05-02T10:11:27.132Z</time></trkpt><trkpt lat="46.156164" lon="13.5649602"><ele>472.99999999999994</ele><time>2026-05-02T10:11:29.132Z</time></trkpt><trkpt lat="46.1561044" lon="13.5649123"><ele>473.0</ele><time>2026-05-02T10:11:30.133Z</time></trkpt><trkpt lat="46.156039" lon="13.56486"><ele>473.0</ele><time>2026-05-02T10:11:31.132Z</time></trkpt><trkpt lat="46.1559246" lon="13.5647923"><ele>472.99999999999994</ele><time>2026-05-02T10:11:33.132Z</time></trkpt><trkpt lat="46.1558572" lon="13.5647385"><ele>473.0</ele><time>2026-05-02T10:11:34.133Z</time></trkpt><trkpt lat="46.1557966" lon="13.5646814"><ele>473.0</ele><time>2026-05-02T10:11:35.132Z</time></trkpt><trkpt lat="46.1557242" lon="13.5645577"><ele>473.0</ele><time>2026-05-02T10:11:37.133Z</time></trkpt><trkpt lat="46.1557024" lon="13.5644684"><ele>472.99999999999994</ele><time>2026-05-02T10:11:38.133Z</time></trkpt><trkpt lat="46.1556897" lon="13.5643592"><ele>473.0</ele><time>2026-05-02T10:11:39.132Z</time></trkpt><trkpt lat="46.155695" lon="13.5641779"><ele>472.99999999999994</ele><time>2026-05-02T10:11:41.133Z</time></trkpt><trkpt lat="46.1557002" lon="13.5640709"><ele>473.0</ele><time>2026-05-02T10:11:42.132Z</time></trkpt><trkpt lat="46.1557067" lon="13.563968"><ele>473.0</ele><time>2026-05-02T10:11:43.132Z</time></trkpt><trkpt lat="46.1557134" lon="13.5638427"><ele>473.0</ele><time>2026-05-02T10:11:44.132Z</time></trkpt><trkpt lat="46.1557252" lon="13.5637097"><ele>472.99999999999994</ele><time>2026-05-02T10:11:45.133Z</time></trkpt><trkpt lat="46.1557414" lon="13.5635738"><ele>473.0</ele><time>2026-05-02T10:11:46.132Z</time></trkpt><trkpt lat="46.1557491" lon="13.563452"><ele>472.99999999999994</ele><time>2026-05-02T10:11:47.132Z</time></trkpt><trkpt lat="46.1557414" lon="13.5633434"><ele>473.0</ele><time>2026-05-02T10:11:48.132Z</time></trkpt><trkpt lat="46.1557362" lon="13.5632422"><ele>473.0</ele><time>2026-05-02T10:11:49.133Z</time></trkpt><trkpt lat="46.1557317" lon="13.5631491"><ele>473.0</ele><time>2026-05-02T10:11:50.133Z</time></trkpt><trkpt lat="46.1557364" lon="13.5630523"><ele>472.99999999999994</ele><time>2026-05-02T10:11:51.132Z</time></trkpt><trkpt lat="46.1557676" lon="13.5628862"><ele>473.0</ele><time>2026-05-02T10:11:53.132Z</time></trkpt><trkpt lat="46.1557609" lon="13.5626899"><ele>472.99999999999994</ele><time>2026-05-02T10:11:55.132Z</time></trkpt><trkpt lat="46.1557373" lon="13.562599"><ele>473.0</ele><time>2026-05-02T10:11:56.133Z</time></trkpt><trkpt lat="46.1557039" lon="13.5624979"><ele>473.0</ele><time>2026-05-02T10:11:57.133Z</time></trkpt><trkpt lat="46.1556846" lon="13.5623802"><ele>473.0</ele><time>2026-05-02T10:11:58.132Z</time></trkpt><trkpt lat="46.1556588" lon="13.5622929"><ele>472.99999999999994</ele><time>2026-05-02T10:11:59.133Z</time></trkpt><trkpt lat="46.1556334" lon="13.5622041"><ele>473.0</ele><time>2026-05-02T10:12:00.132Z</time></trkpt><trkpt lat="46.1556139" lon="13.5620405"><ele>478.99999999999994</ele><time>2026-05-02T10:12:02.132Z</time></trkpt><trkpt lat="46.1556119" lon="13.5619391"><ele>485.0</ele><time>2026-05-02T10:12:03.133Z</time></trkpt><trkpt lat="46.155613" lon="13.5618067"><ele>491.0</ele><time>2026-05-02T10:12:04.133Z</time></trkpt><trkpt lat="46.1556032" lon="13.5616835"><ele>497.0</ele><time>2026-05-02T10:12:05.133Z</time></trkpt><trkpt lat="46.1555833" lon="13.5615784"><ele>502.99999999999994</ele><time>2026-05-02T10:12:06.132Z</time></trkpt><trkpt lat="46.1555596" lon="13.5614717"><ele>509.0</ele><time>2026-05-02T10:12:07.132Z</time></trkpt><trkpt lat="46.1555443" lon="13.561376"><ele>509.0</ele><time>2026-05-02T10:12:08.132Z</time></trkpt><trkpt lat="46.155533" lon="13.561203"><ele>509.0</ele><time>2026-05-02T10:12:10.132Z</time></trkpt><trkpt lat="46.1554845" lon="13.5610932"><ele>509.0</ele><time>2026-05-02T10:12:13.132Z</time></trkpt><trkpt lat="46.1554249" lon="13.5610504"><ele>509.0</ele><time>2026-05-02T10:12:15.133Z</time></trkpt><trkpt lat="46.1553597" lon="13.5611241"><ele>509.0</ele><time>2026-05-02T10:12:18.132Z</time></trkpt><trkpt lat="46.1552869" lon="13.5612484"><ele>508.99999999999994</ele><time>2026-05-02T10:12:20.133Z</time></trkpt><trkpt lat="46.1552345" lon="13.5613254"><ele>509.0</ele><time>2026-05-02T10:12:21.132Z</time></trkpt><trkpt lat="46.155185" lon="13.5613931"><ele>509.0</ele><time>2026-05-02T10:12:22.132Z</time></trkpt><trkpt lat="46.1550924" lon="13.5614853"><ele>509.0</ele><time>2026-05-02T10:12:24.132Z</time></trkpt><trkpt lat="46.1549902" lon="13.5615794"><ele>508.99999999999994</ele><time>2026-05-02T10:12:26.132Z</time></trkpt><trkpt lat="46.1549283" lon="13.5616183"><ele>509.0</ele><time>2026-05-02T10:12:27.132Z</time></trkpt><trkpt lat="46.154863" lon="13.56164"><ele>509.8333333333333</ele><time>2026-05-02T10:12:28.132Z</time></trkpt><trkpt lat="46.1547509" lon="13.5616583"><ele>510.66666666666663</ele><time>2026-05-02T10:12:30.133Z</time></trkpt><trkpt lat="46.154689" lon="13.5616872"><ele>511.5</ele><time>2026-05-02T10:12:31.133Z</time></trkpt><trkpt lat="46.1546287" lon="13.5617245"><ele>512.3333333333334</ele><time>2026-05-02T10:12:32.132Z</time></trkpt><trkpt lat="46.1545615" lon="13.5617689"><ele>513.1666666666667</ele><time>2026-05-02T10:12:33.133Z</time></trkpt><trkpt lat="46.1544925" lon="13.5618208"><ele>514.0</ele><time>2026-05-02T10:12:34.133Z</time></trkpt><trkpt lat="46.1544171" lon="13.5618658"><ele>514.0</ele><time>2026-05-02T10:12:35.132Z</time></trkpt><trkpt lat="46.1543464" lon="13.5619134"><ele>514.0</ele><time>2026-05-02T10:12:36.132Z</time></trkpt><trkpt lat="46.1542295" lon="13.5619902"><ele>514.0</ele><time>2026-05-02T10:12:38.133Z</time></trkpt><trkpt lat="46.1541214" lon="13.5620617"><ele>514.0</ele><time>2026-05-02T10:12:40.133Z</time></trkpt><trkpt lat="46.154013" lon="13.5621606"><ele>507.4</ele><time>2026-05-02T10:12:42.132Z</time></trkpt><trkpt lat="46.1539257" lon="13.562252"><ele>500.79999999999995</ele><time>2026-05-02T10:12:44.132Z</time></trkpt><trkpt lat="46.1538144" lon="13.562356"><ele>494.20000000000005</ele><time>2026-05-02T10:12:46.133Z</time></trkpt><trkpt lat="46.1537555" lon="13.5624042"><ele>487.6</ele><time>2026-05-02T10:12:47.132Z</time></trkpt><trkpt lat="46.1536992" lon="13.5624519"><ele>481.0</ele><time>2026-05-02T10:12:48.132Z</time></trkpt><trkpt lat="46.1535951" lon="13.5625344"><ele>481.00000000000006</ele><time>2026-05-02T10:12:50.132Z</time></trkpt><trkpt lat="46.1534998" lon="13.5625871"><ele>481.0</ele><time>2026-05-02T10:12:52.132Z</time></trkpt><trkpt lat="46.1533887" lon="13.5626185"><ele>481.0</ele><time>2026-05-02T10:12:54.133Z</time></trkpt><trkpt lat="46.1533224" lon="13.5626216"><ele>481.0</ele><time>2026-05-02T10:12:55.133Z</time></trkpt><trkpt lat="46.153241" lon="13.5626189"><ele>481.00000000000006</ele><time>2026-05-02T10:12:56.133Z</time></trkpt><trkpt lat="46.1531601" lon="13.5626136"><ele>481.0</ele><time>2026-05-02T10:12:57.132Z</time></trkpt><trkpt lat="46.1530902" lon="13.5626118"><ele>480.99999999999994</ele><time>2026-05-02T10:12:58.132Z</time></trkpt><trkpt lat="46.1530188" lon="13.5625999"><ele>481.0</ele><time>2026-05-02T10:12:59.133Z</time></trkpt><trkpt lat="46.1529465" lon="13.562582"><ele>480.99999999999994</ele><time>2026-05-02T10:13:00.132Z</time></trkpt><trkpt lat="46.1528781" lon="13.5625469"><ele>480.99999999999994</ele><time>2026-05-02T10:13:01.132Z</time></trkpt><trkpt lat="46.1528117" lon="13.5625053"><ele>481.0</ele><time>2026-05-02T10:13:02.132Z</time></trkpt><trkpt lat="46.1527472" lon="13.5624639"><ele>480.99999999999994</ele><time>2026-05-02T10:13:03.132Z</time></trkpt><trkpt lat="46.1526836" lon="13.5624041"><ele>480.99999999999994</ele><time>2026-05-02T10:13:04.132Z</time></trkpt><trkpt lat="46.1526147" lon="13.5623302"><ele>449.6666666666667</ele><time>2026-05-02T10:13:05.132Z</time></trkpt><trkpt lat="46.1525438" lon="13.5622593"><ele>418.33333333333337</ele><time>2026-05-02T10:13:06.133Z</time></trkpt><trkpt lat="46.1524878" lon="13.5621836"><ele>387.0</ele><time>2026-05-02T10:13:07.133Z</time></trkpt><trkpt lat="46.1524407" lon="13.5621039"><ele>355.6666666666667</ele><time>2026-05-02T10:13:08.132Z</time></trkpt><trkpt lat="46.1523985" lon="13.5620211"><ele>324.33333333333337</ele><time>2026-05-02T10:13:09.133Z</time></trkpt><trkpt lat="46.1523385" lon="13.5618628"><ele>293.0</ele><time>2026-05-02T10:13:11.132Z</time></trkpt><trkpt lat="46.1523086" lon="13.5617585"><ele>290.0</ele><time>2026-05-02T10:13:12.133Z</time></trkpt><trkpt lat="46.1522806" lon="13.5616623"><ele>287.0</ele><time>2026-05-02T10:13:13.133Z</time></trkpt><trkpt lat="46.1522539" lon="13.5615692"><ele>284.0</ele><time>2026-05-02T10:13:14.132Z</time></trkpt><trkpt lat="46.152229" lon="13.5614133"><ele>281.0</ele><time>2026-05-02T10:13:16.133Z</time></trkpt><trkpt lat="46.1522072" lon="13.5612904"><ele>278.0</ele><time>2026-05-02T10:13:18.132Z</time></trkpt><trkpt lat="46.1521861" lon="13.5611352"><ele>288.2</ele><time>2026-05-02T10:13:20.132Z</time></trkpt><trkpt lat="46.1521558" lon="13.5609634"><ele>298.4</ele><time>2026-05-02T10:13:22.132Z</time></trkpt><trkpt lat="46.1521358" lon="13.5608672"><ele>308.59999999999997</ele><time>2026-05-02T10:13:23.132Z</time></trkpt><trkpt lat="46.1521155" lon="13.5606833"><ele>318.8</ele><time>2026-05-02T10:13:25.133Z</time></trkpt><trkpt lat="46.1521217" lon="13.5605826"><ele>329.0</ele><time>2026-05-02T10:13:26.132Z</time></trkpt><trkpt lat="46.1521231" lon="13.5604889"><ele>329.0</ele><time>2026-05-02T10:13:27.132Z</time></trkpt><trkpt lat="46.1521232" lon="13.5603813"><ele>329.0</ele><time>2026-05-02T10:13:28.132Z</time></trkpt><trkpt lat="46.1521164" lon="13.5602601"><ele>329.0</ele><time>2026-05-02T10:13:29.133Z</time></trkpt><trkpt lat="46.1520993" lon="13.5601268"><ele>329.0</ele><time>2026-05-02T10:13:30.133Z</time></trkpt><trkpt lat="46.1520815" lon="13.5599946"><ele>329.0</ele><time>2026-05-02T10:13:31.133Z</time></trkpt><trkpt lat="46.1520673" lon="13.559857"><ele>329.0</ele><time>2026-05-02T10:13:32.132Z</time></trkpt><trkpt lat="46.1520481" lon="13.5597271"><ele>336.0</ele><time>2026-05-02T10:13:33.132Z</time></trkpt><trkpt lat="46.1520277" lon="13.5596251"><ele>343.0</ele><time>2026-05-02T10:13:34.133Z</time></trkpt><trkpt lat="46.1520144" lon="13.5595238"><ele>350.0</ele><time>2026-05-02T10:13:35.133Z</time></trkpt><trkpt lat="46.152008" lon="13.5594029"><ele>357.0</ele><time>2026-05-02T10:13:36.132Z</time></trkpt><trkpt lat="46.1520074" lon="13.5592743"><ele>364.0</ele><time>2026-05-02T10:13:37.132Z</time></trkpt><trkpt lat="46.1520049" lon="13.5591467"><ele>371.0</ele><time>2026-05-02T10:13:38.133Z</time></trkpt><trkpt lat="46.152007" lon="13.5590364"><ele>379.6</ele><time>2026-05-02T10:13:39.133Z</time></trkpt><trkpt lat="46.1520294" lon="13.5588749"><ele>388.20000000000005</ele><time>2026-05-02T10:13:41.132Z</time></trkpt><trkpt lat="46.1520676" lon="13.5587631"><ele>396.79999999999995</ele><time>2026-05-02T10:13:42.132Z</time></trkpt><trkpt lat="46.1521166" lon="13.5586081"><ele>405.4</ele><time>2026-05-02T10:13:43.132Z</time></trkpt><trkpt lat="46.1521646" lon="13.5584512"><ele>414.0</ele><time>2026-05-02T10:13:44.132Z</time></trkpt><trkpt lat="46.1522032" lon="13.5583149"><ele>414.0</ele><time>2026-05-02T10:13:45.133Z</time></trkpt><trkpt lat="46.1522385" lon="13.5581976"><ele>414.0</ele><time>2026-05-02T10:13:46.133Z</time></trkpt><trkpt lat="46.1522673" lon="13.5581004"><ele>414.0</ele><time>2026-05-02T10:13:47.133Z</time></trkpt><trkpt lat="46.1522974" lon="13.5580164"><ele>414.0</ele><time>2026-05-02T10:13:48.132Z</time></trkpt><trkpt lat="46.152319" lon="13.5578892"><ele>414.0</ele><time>2026-05-02T10:13:50.132Z</time></trkpt><trkpt lat="46.1522957" lon="13.5577517"><ele>414.0</ele><time>2026-05-02T10:13:52.133Z</time></trkpt><trkpt lat="46.1522451" lon="13.5576075"><ele>414.00000000000006</ele><time>2026-05-02T10:13:54.132Z</time></trkpt><trkpt lat="46.1521896" lon="13.5575109"><ele>414.0</ele><time>2026-05-02T10:13:55.132Z</time></trkpt><trkpt lat="46.1521361" lon="13.5574291"><ele>414.0</ele><time>2026-05-02T10:13:56.132Z</time></trkpt><trkpt lat="46.1520917" lon="13.5573514"><ele>414.0</ele><time>2026-05-02T10:13:57.132Z</time></trkpt><trkpt lat="46.152043" lon="13.5572778"><ele>414.0</ele><time>2026-05-02T10:13:58.133Z</time></trkpt><trkpt lat="46.1519933" lon="13.5572053"><ele>414.00000000000006</ele><time>2026-05-02T10:13:59.132Z</time></trkpt><trkpt lat="46.1519447" lon="13.557131"><ele>414.0</ele><time>2026-05-02T10:14:00.132Z</time></trkpt><trkpt lat="46.1519043" lon="13.5570517"><ele>419.6666666666667</ele><time>2026-05-02T10:14:01.132Z</time></trkpt><trkpt lat="46.1518709" lon="13.556964"><ele>425.33333333333337</ele><time>2026-05-02T10:14:02.133Z</time></trkpt><trkpt lat="46.1518453" lon="13.5568662"><ele>431.0</ele><time>2026-05-02T10:14:03.131Z</time></trkpt><trkpt lat="46.1518255" lon="13.5567679"><ele>436.6666666666667</ele><time>2026-05-02T10:14:04.131Z</time></trkpt><trkpt lat="46.1518087" lon="13.5566631"><ele>442.33333333333337</ele><time>2026-05-02T10:14:05.131Z</time></trkpt><trkpt lat="46.1517885" lon="13.556546"><ele>448.0</ele><time>2026-05-02T10:14:06.131Z</time></trkpt><trkpt lat="46.1517664" lon="13.5564266"><ele>448.00000000000006</ele><time>2026-05-02T10:14:07.131Z</time></trkpt><trkpt lat="46.1517431" lon="13.5563095"><ele>448.0</ele><time>2026-05-02T10:14:08.131Z</time></trkpt><trkpt lat="46.1517237" lon="13.5561927"><ele>448.0</ele><time>2026-05-02T10:14:09.131Z</time></trkpt><trkpt lat="46.1517044" lon="13.5560774"><ele>448.0</ele><time>2026-05-02T10:14:10.131Z</time></trkpt><trkpt lat="46.1516864" lon="13.5559693"><ele>448.00000000000006</ele><time>2026-05-02T10:14:11.132Z</time></trkpt><trkpt lat="46.1516744" lon="13.5558735"><ele>448.0</ele><time>2026-05-02T10:14:12.131Z</time></trkpt><trkpt lat="46.1516666" lon="13.5557796"><ele>445.83333333333337</ele><time>2026-05-02T10:14:13.132Z</time></trkpt><trkpt lat="46.1516587" lon="13.5555896"><ele>443.6666666666667</ele><time>2026-05-02T10:14:15.132Z</time></trkpt><trkpt lat="46.1516696" lon="13.5554975"><ele>441.5</ele><time>2026-05-02T10:14:16.131Z</time></trkpt><trkpt lat="46.1516881" lon="13.5554084"><ele>439.33333333333337</ele><time>2026-05-02T10:14:17.131Z</time></trkpt><trkpt lat="46.1517197" lon="13.5553228"><ele>437.1666666666667</ele><time>2026-05-02T10:14:18.131Z</time></trkpt><trkpt lat="46.1517728" lon="13.5552527"><ele>435.0</ele><time>2026-05-02T10:14:19.131Z</time></trkpt><trkpt lat="46.1518286" lon="13.5551732"><ele>433.8</ele><time>2026-05-02T10:14:20.131Z</time></trkpt><trkpt lat="46.1518791" lon="13.5550936"><ele>432.6</ele><time>2026-05-02T10:14:21.131Z</time></trkpt><trkpt lat="46.1519238" lon="13.5549846"><ele>431.4</ele><time>2026-05-02T10:14:22.131Z</time></trkpt><trkpt lat="46.1519597" lon="13.5548582"><ele>430.2</ele><time>2026-05-02T10:14:23.132Z</time></trkpt><trkpt lat="46.1519974" lon="13.5547256"><ele>429.0</ele><time>2026-05-02T10:14:24.132Z</time></trkpt><trkpt lat="46.1520378" lon="13.5545937"><ele>426.0</ele><time>2026-05-02T10:14:25.131Z</time></trkpt><trkpt lat="46.1520718" lon="13.5544552"><ele>423.0</ele><time>2026-05-02T10:14:26.131Z</time></trkpt><trkpt lat="46.1520995" lon="13.5543231"><ele>420.0</ele><time>2026-05-02T10:14:27.131Z</time></trkpt><trkpt lat="46.1521281" lon="13.5542024"><ele>417.0</ele><time>2026-05-02T10:14:28.132Z</time></trkpt><trkpt lat="46.152151" lon="13.5540915"><ele>414.0</ele><time>2026-05-02T10:14:29.131Z</time></trkpt><trkpt lat="46.1521724" lon="13.5539833"><ele>411.0</ele><time>2026-05-02T10:14:30.132Z</time></trkpt><trkpt lat="46.1521988" lon="13.5538829"><ele>411.0</ele><time>2026-05-02T10:14:31.132Z</time></trkpt><trkpt lat="46.152236" lon="13.5537922"><ele>411.0</ele><time>2026-05-02T10:14:32.132Z</time></trkpt><trkpt lat="46.1522792" lon="13.5536981"><ele>411.0</ele><time>2026-05-02T10:14:33.131Z</time></trkpt><trkpt lat="46.1523407" lon="13.5535975"><ele>411.0</ele><time>2026-05-02T10:14:34.132Z</time></trkpt><trkpt lat="46.1523855" lon="13.5534944"><ele>411.0</ele><time>2026-05-02T10:14:35.132Z</time></trkpt><trkpt lat="46.1524324" lon="13.5534032"><ele>411.0</ele><time>2026-05-02T10:14:36.131Z</time></trkpt><trkpt lat="46.1524801" lon="13.5533252"><ele>413.20000000000005</ele><time>2026-05-02T10:14:37.131Z</time></trkpt><trkpt lat="46.1525713" lon="13.5532461"><ele>415.40000000000003</ele><time>2026-05-02T10:14:39.131Z</time></trkpt><trkpt lat="46.1526668" lon="13.5531806"><ele>417.6</ele><time>2026-05-02T10:14:41.132Z</time></trkpt><trkpt lat="46.152668" lon="13.5530384"><ele>419.8</ele><time>2026-05-02T10:14:43.132Z</time></trkpt><trkpt lat="46.1526391" lon="13.552939"><ele>422.0</ele><time>2026-05-02T10:14:44.132Z</time></trkpt><trkpt lat="46.152623" lon="13.5528463"><ele>422.0</ele><time>2026-05-02T10:14:45.132Z</time></trkpt><trkpt lat="46.1526017" lon="13.5526648"><ele>422.0</ele><time>2026-05-02T10:14:47.131Z</time></trkpt><trkpt lat="46.1526344" lon="13.5524955"><ele>422.0</ele><time>2026-05-02T10:14:49.131Z</time></trkpt><trkpt lat="46.1526843" lon="13.5524049"><ele>422.0</ele><time>2026-05-02T10:14:50.132Z</time></trkpt><trkpt lat="46.1527256" lon="13.5523101"><ele>422.0</ele><time>2026-05-02T10:14:51.131Z</time></trkpt><trkpt lat="46.1527255" lon="13.5521753"><ele>420.20000000000005</ele><time>2026-05-02T10:14:53.131Z</time></trkpt><trkpt lat="46.1526193" lon="13.5520287"><ele>418.4</ele><time>2026-05-02T10:14:55.131Z</time></trkpt><trkpt lat="46.1525585" lon="13.551933"><ele>416.6</ele><time>2026-05-02T10:14:56.132Z</time></trkpt><trkpt lat="46.1525204" lon="13.5518419"><ele>414.79999999999995</ele><time>2026-05-02T10:14:57.131Z</time></trkpt><trkpt lat="46.1525056" lon="13.5517424"><ele>413.0</ele><time>2026-05-02T10:14:58.131Z</time></trkpt><trkpt lat="46.152466" lon="13.5515826"><ele>413.0</ele><time>2026-05-02T10:15:00.131Z</time></trkpt><trkpt lat="46.1523963" lon="13.5514741"><ele>413.0</ele><time>2026-05-02T10:15:02.132Z</time></trkpt><trkpt lat="46.1522767" lon="13.5514301"><ele>413.0</ele><time>2026-05-02T10:15:04.131Z</time></trkpt><trkpt lat="46.1522164" lon="13.5513713"><ele>413.0</ele><time>2026-05-02T10:15:05.131Z</time></trkpt><trkpt lat="46.1521509" lon="13.5513"><ele>413.0</ele><time>2026-05-02T10:15:06.132Z</time></trkpt><trkpt lat="46.1520865" lon="13.5512241"><ele>414.0</ele><time>2026-05-02T10:15:07.132Z</time></trkpt><trkpt lat="46.1520021" lon="13.5511109"><ele>415.0</ele><time>2026-05-02T10:15:09.131Z</time></trkpt><trkpt lat="46.151941" lon="13.5509783"><ele>416.0</ele><time>2026-05-02T10:15:11.131Z</time></trkpt><trkpt lat="46.1518736" lon="13.5508701"><ele>417.0</ele><time>2026-05-02T10:15:13.131Z</time></trkpt><trkpt lat="46.1517961" lon="13.5508594"><ele>418.0</ele><time>2026-05-02T10:15:15.131Z</time></trkpt><trkpt lat="46.1517012" lon="13.5509144"><ele>418.00000000000006</ele><time>2026-05-02T10:15:17.131Z</time></trkpt><trkpt lat="46.1515921" lon="13.5509727"><ele>418.0</ele><time>2026-05-02T10:15:19.132Z</time></trkpt><trkpt lat="46.1514811" lon="13.55092"><ele>418.0</ele><time>2026-05-02T10:15:21.132Z</time></trkpt><trkpt lat="46.1514198" lon="13.5508857"><ele>418.0</ele><time>2026-05-02T10:15:22.131Z</time></trkpt><trkpt lat="46.1513576" lon="13.5508437"><ele>418.00000000000006</ele><time>2026-05-02T10:15:23.131Z</time></trkpt><trkpt lat="46.1512927" lon="13.5508007"><ele>418.0</ele><time>2026-05-02T10:15:24.131Z</time></trkpt><trkpt lat="46.1512313" lon="13.5507566"><ele>413.79999999999995</ele><time>2026-05-02T10:15:25.131Z</time></trkpt><trkpt lat="46.1511077" lon="13.5507287"><ele>409.6</ele><time>2026-05-02T10:15:27.132Z</time></trkpt><trkpt lat="46.1510426" lon="13.5507197"><ele>405.4</ele><time>2026-05-02T10:15:28.131Z</time></trkpt><trkpt lat="46.1509255" lon="13.5507048"><ele>401.20000000000005</ele><time>2026-05-02T10:15:30.131Z</time></trkpt><trkpt lat="46.1508585" lon="13.5507043"><ele>397.0</ele><time>2026-05-02T10:15:31.131Z</time></trkpt><trkpt lat="46.150745" lon="13.5506578"><ele>389.75</ele><time>2026-05-02T10:15:33.131Z</time></trkpt><trkpt lat="46.1506688" lon="13.5505384"><ele>382.5</ele><time>2026-05-02T10:15:35.132Z</time></trkpt><trkpt lat="46.1506279" lon="13.5504047"><ele>375.25</ele><time>2026-05-02T10:15:37.131Z</time></trkpt><trkpt lat="46.1506064" lon="13.5502552"><ele>368.0</ele><time>2026-05-02T10:15:39.131Z</time></trkpt><trkpt lat="46.1506293" lon="13.5500672"><ele>368.0</ele><time>2026-05-02T10:15:41.131Z</time></trkpt><trkpt lat="46.1506617" lon="13.5499401"><ele>368.0</ele><time>2026-05-02T10:15:42.132Z</time></trkpt><trkpt lat="46.1506865" lon="13.549834"><ele>368.0</ele><time>2026-05-02T10:15:43.131Z</time></trkpt><trkpt lat="46.1507012" lon="13.549716"><ele>368.0</ele><time>2026-05-02T10:15:44.132Z</time></trkpt><trkpt lat="46.1507236" lon="13.5496087"><ele>368.0</ele><time>2026-05-02T10:15:45.131Z</time></trkpt><trkpt lat="46.1507383" lon="13.5495146"><ele>368.0</ele><time>2026-05-02T10:15:46.131Z</time></trkpt><trkpt lat="46.1507626" lon="13.5494168"><ele>372.83333333333337</ele><time>2026-05-02T10:15:47.131Z</time></trkpt><trkpt lat="46.150794" lon="13.5493054"><ele>377.6666666666667</ele><time>2026-05-02T10:15:48.131Z</time></trkpt><trkpt lat="46.1508312" lon="13.5491974"><ele>382.5</ele><time>2026-05-02T10:15:49.132Z</time></trkpt><trkpt lat="46.1508608" lon="13.5490943"><ele>387.33333333333337</ele><time>2026-05-02T10:15:50.132Z</time></trkpt><trkpt lat="46.1508896" lon="13.5489999"><ele>392.1666666666667</ele><time>2026-05-02T10:15:51.132Z</time></trkpt><trkpt lat="46.1509405" lon="13.5488535"><ele>397.0</ele><time>2026-05-02T10:15:53.131Z</time></trkpt><trkpt lat="46.1509351" lon="13.5486846"><ele>397.00000000000006</ele><time>2026-05-02T10:15:55.131Z</time></trkpt><trkpt lat="46.150861" lon="13.5485178"><ele>397.0</ele><time>2026-05-02T10:15:57.132Z</time></trkpt><trkpt lat="46.1508171" lon="13.5484142"><ele>397.0</ele><time>2026-05-02T10:15:58.131Z</time></trkpt><trkpt lat="46.1507886" lon="13.548324"><ele>397.0</ele><time>2026-05-02T10:15:59.132Z</time></trkpt><trkpt lat="46.1507702" lon="13.5482226"><ele>397.00000000000006</ele><time>2026-05-02T10:16:00.131Z</time></trkpt><trkpt lat="46.1507537" lon="13.5481289"><ele>397.0</ele><time>2026-05-02T10:16:01.131Z</time></trkpt><trkpt lat="46.1507485" lon="13.5480194"><ele>397.00000000000006</ele><time>2026-05-02T10:16:02.132Z</time></trkpt><trkpt lat="46.1507475" lon="13.5479183"><ele>397.0</ele><time>2026-05-02T10:16:03.131Z</time></trkpt><trkpt lat="46.1507653" lon="13.5478112"><ele>397.0</ele><time>2026-05-02T10:16:04.131Z</time></trkpt><trkpt lat="46.1507825" lon="13.5476926"><ele>397.0</ele><time>2026-05-02T10:16:05.132Z</time></trkpt><trkpt lat="46.1508099" lon="13.5475776"><ele>397.00000000000006</ele><time>2026-05-02T10:16:06.131Z</time></trkpt><trkpt lat="46.150846" lon="13.547466"><ele>397.0</ele><time>2026-05-02T10:16:07.131Z</time></trkpt><trkpt lat="46.1508853" lon="13.5473354"><ele>397.40000000000003</ele><time>2026-05-02T10:16:08.132Z</time></trkpt><trkpt lat="46.1509268" lon="13.5472128"><ele>397.8</ele><time>2026-05-02T10:16:09.131Z</time></trkpt><trkpt lat="46.1509623" lon="13.5470881"><ele>398.2</ele><time>2026-05-02T10:16:10.131Z</time></trkpt><trkpt lat="46.1509927" lon="13.5469712"><ele>398.6</ele><time>2026-05-02T10:16:11.131Z</time></trkpt><trkpt lat="46.151021" lon="13.5468472"><ele>399.0</ele><time>2026-05-02T10:16:12.131Z</time></trkpt><trkpt lat="46.1510446" lon="13.546725"><ele>399.6</ele><time>2026-05-02T10:16:13.131Z</time></trkpt><trkpt lat="46.1510408" lon="13.5466032"><ele>400.2</ele><time>2026-05-02T10:16:15.131Z</time></trkpt><trkpt lat="46.1509327" lon="13.5465674"><ele>400.8</ele><time>2026-05-02T10:16:18.131Z</time></trkpt><trkpt lat="46.1508526" lon="13.5465993"><ele>401.40000000000003</ele><time>2026-05-02T10:16:19.132Z</time></trkpt><trkpt lat="46.1507633" lon="13.5466517"><ele>402.0</ele><time>2026-05-02T10:16:20.131Z</time></trkpt><trkpt lat="46.1506687" lon="13.5466874"><ele>400.6</ele><time>2026-05-02T10:16:21.131Z</time></trkpt><trkpt lat="46.1505699" lon="13.5467065"><ele>399.20000000000005</ele><time>2026-05-02T10:16:22.131Z</time></trkpt><trkpt lat="46.1504693" lon="13.5467151"><ele>397.8</ele><time>2026-05-02T10:16:23.131Z</time></trkpt><trkpt lat="46.1503884" lon="13.5467164"><ele>396.4</ele><time>2026-05-02T10:16:24.132Z</time></trkpt><trkpt lat="46.150313" lon="13.5467108"><ele>395.0</ele><time>2026-05-02T10:16:25.132Z</time></trkpt><trkpt lat="46.1501972" lon="13.5467058"><ele>394.99999999999994</ele><time>2026-05-02T10:16:27.132Z</time></trkpt><trkpt lat="46.150141" lon="13.5466392"><ele>395.0</ele><time>2026-05-02T10:16:29.132Z</time></trkpt><trkpt lat="46.150143" lon="13.5465052"><ele>395.0</ele><time>2026-05-02T10:16:31.131Z</time></trkpt><trkpt lat="46.1501438" lon="13.5463917"><ele>395.0</ele><time>2026-05-02T10:16:32.131Z</time></trkpt><trkpt lat="46.1501457" lon="13.5462694"><ele>394.99999999999994</ele><time>2026-05-02T10:16:33.132Z</time></trkpt><trkpt lat="46.1501389" lon="13.5461597"><ele>395.0</ele><time>2026-05-02T10:16:34.132Z</time></trkpt><trkpt lat="46.1501322" lon="13.5460092"><ele>399.8</ele><time>2026-05-02T10:16:36.131Z</time></trkpt><trkpt lat="46.1500704" lon="13.5459273"><ele>404.6</ele><time>2026-05-02T10:16:38.131Z</time></trkpt><trkpt lat="46.149954" lon="13.5459232"><ele>409.4</ele><time>2026-05-02T10:16:40.131Z</time></trkpt><trkpt lat="46.1498512" lon="13.5460088"><ele>414.2</ele><time>2026-05-02T10:16:42.131Z</time></trkpt><trkpt lat="46.1498066" lon="13.5460894"><ele>419.0</ele><time>2026-05-02T10:16:43.131Z</time></trkpt><trkpt lat="46.1497673" lon="13.546175"><ele>419.79999999999995</ele><time>2026-05-02T10:16:44.131Z</time></trkpt><trkpt lat="46.1496988" lon="13.5463012"><ele>420.59999999999997</ele><time>2026-05-02T10:16:46.131Z</time></trkpt><trkpt lat="46.1496188" lon="13.5464312"><ele>421.4</ele><time>2026-05-02T10:16:48.131Z</time></trkpt><trkpt lat="46.1495198" lon="13.5464849"><ele>422.2</ele><time>2026-05-02T10:16:50.131Z</time></trkpt><trkpt lat="46.1494612" lon="13.5465467"><ele>423.0</ele><time>2026-05-02T10:16:52.131Z</time></trkpt><trkpt lat="46.1494528" lon="13.5466372"><ele>423.0</ele><time>2026-05-02T10:16:53.131Z</time></trkpt><trkpt lat="46.1494512" lon="13.546756"><ele>423.0</ele><time>2026-05-02T10:16:54.132Z</time></trkpt><trkpt lat="46.1494383" lon="13.5468511"><ele>423.0</ele><time>2026-05-02T10:16:55.131Z</time></trkpt><trkpt lat="46.1494087" lon="13.5469634"><ele>423.0</ele><time>2026-05-02T10:16:56.131Z</time></trkpt><trkpt lat="46.1493778" lon="13.5470648"><ele>423.0</ele><time>2026-05-02T10:16:57.131Z</time></trkpt><trkpt lat="46.1493427" lon="13.5471736"><ele>423.0</ele><time>2026-05-02T10:16:58.131Z</time></trkpt><trkpt lat="46.1492948" lon="13.547267"><ele>421.0</ele><time>2026-05-02T10:16:59.132Z</time></trkpt><trkpt lat="46.1492337" lon="13.547355"><ele>419.0</ele><time>2026-05-02T10:17:00.132Z</time></trkpt><trkpt lat="46.1491662" lon="13.5474389"><ele>417.0</ele><time>2026-05-02T10:17:01.132Z</time></trkpt><trkpt lat="46.1491038" lon="13.5475197"><ele>415.0</ele><time>2026-05-02T10:17:02.131Z</time></trkpt><trkpt lat="46.149047" lon="13.5475867"><ele>413.0</ele><time>2026-05-02T10:17:03.132Z</time></trkpt><trkpt lat="46.148988" lon="13.5476444"><ele>411.0</ele><time>2026-05-02T10:17:04.131Z</time></trkpt><trkpt lat="46.1488749" lon="13.5477107"><ele>411.0</ele><time>2026-05-02T10:17:06.132Z</time></trkpt><trkpt lat="46.1487424" lon="13.5476766"><ele>411.0</ele><time>2026-05-02T10:17:08.131Z</time></trkpt><trkpt lat="46.1486637" lon="13.5476304"><ele>411.0</ele><time>2026-05-02T10:17:09.132Z</time></trkpt><trkpt lat="46.1485962" lon="13.5475833"><ele>411.0</ele><time>2026-05-02T10:17:10.131Z</time></trkpt><trkpt lat="46.1485312" lon="13.5475483"><ele>411.0</ele><time>2026-05-02T10:17:11.132Z</time></trkpt><trkpt lat="46.1484705" lon="13.5475222"><ele>411.0</ele><time>2026-05-02T10:17:12.131Z</time></trkpt><trkpt lat="46.1484037" lon="13.5475231"><ele>411.0</ele><time>2026-05-02T10:17:13.132Z</time></trkpt><trkpt lat="46.1483333" lon="13.5475442"><ele>411.0</ele><time>2026-05-02T10:17:14.131Z</time></trkpt><trkpt lat="46.1482538" lon="13.5475895"><ele>411.0</ele><time>2026-05-02T10:17:15.131Z</time></trkpt><trkpt lat="46.1481718" lon="13.547649"><ele>411.0</ele><time>2026-05-02T10:17:16.131Z</time></trkpt><trkpt lat="46.1481047" lon="13.5476868"><ele>411.0</ele><time>2026-05-02T10:17:17.131Z</time></trkpt><trkpt lat="46.1480301" lon="13.5477196"><ele>411.0</ele><time>2026-05-02T10:17:18.131Z</time></trkpt><trkpt lat="46.1479484" lon="13.5477494"><ele>408.2857142857143</ele><time>2026-05-02T10:17:19.131Z</time></trkpt><trkpt lat="46.1478699" lon="13.5477534"><ele>405.57142857142856</ele><time>2026-05-02T10:17:20.131Z</time></trkpt><trkpt lat="46.1477883" lon="13.5477567"><ele>402.8571428571429</ele><time>2026-05-02T10:17:21.131Z</time></trkpt><trkpt lat="46.1477127" lon="13.547762"><ele>400.1428571428571</ele><time>2026-05-02T10:17:22.131Z</time></trkpt><trkpt lat="46.1476429" lon="13.5477368"><ele>397.42857142857144</ele><time>2026-05-02T10:17:23.131Z</time></trkpt><trkpt lat="46.147582" lon="13.5476877"><ele>394.7142857142857</ele><time>2026-05-02T10:17:24.131Z</time></trkpt><trkpt lat="46.1475315" lon="13.5476224"><ele>392.0</ele><time>2026-05-02T10:17:25.131Z</time></trkpt><trkpt lat="46.1474999" lon="13.5475373"><ele>392.0</ele><time>2026-05-02T10:17:26.132Z</time></trkpt><trkpt lat="46.1474387" lon="13.547351"><ele>392.0</ele><time>2026-05-02T10:17:28.131Z</time></trkpt><trkpt lat="46.1473914" lon="13.5472581"><ele>392.0</ele><time>2026-05-02T10:17:29.131Z</time></trkpt><trkpt lat="46.1473228" lon="13.5472112"><ele>392.0</ele><time>2026-05-02T10:17:30.131Z</time></trkpt><trkpt lat="46.1472403" lon="13.5472077"><ele>392.0</ele><time>2026-05-02T10:17:31.132Z</time></trkpt><trkpt lat="46.1471531" lon="13.5471941"><ele>386.99999999999994</ele><time>2026-05-02T10:17:32.131Z</time></trkpt><trkpt lat="46.1470912" lon="13.5471723"><ele>382.0</ele><time>2026-05-02T10:17:33.131Z</time></trkpt><trkpt lat="46.1470395" lon="13.5471176"><ele>377.0</ele><time>2026-05-02T10:17:34.132Z</time></trkpt><trkpt lat="46.1469932" lon="13.546967"><ele>372.0</ele><time>2026-05-02T10:17:36.132Z</time></trkpt><trkpt lat="46.1469825" lon="13.5468772"><ele>367.0</ele><time>2026-05-02T10:17:37.131Z</time></trkpt><trkpt lat="46.1469817" lon="13.5466812"><ele>362.0</ele><time>2026-05-02T10:17:39.132Z</time></trkpt><trkpt lat="46.1470055" lon="13.5465831"><ele>360.6666666666667</ele><time>2026-05-02T10:17:40.132Z</time></trkpt><trkpt lat="46.147027" lon="13.5464771"><ele>359.33333333333337</ele><time>2026-05-02T10:17:41.131Z</time></trkpt><trkpt lat="46.1470451" lon="13.546381"><ele>358.0</ele><time>2026-05-02T10:17:42.132Z</time></trkpt><trkpt lat="46.1470609" lon="13.5462919"><ele>356.6666666666667</ele><time>2026-05-02T10:17:43.131Z</time></trkpt><trkpt lat="46.1470627" lon="13.5461256"><ele>355.3333333333333</ele><time>2026-05-02T10:17:45.132Z</time></trkpt><trkpt lat="46.1469819" lon="13.5460409"><ele>354.0</ele><time>2026-05-02T10:17:47.132Z</time></trkpt><trkpt lat="46.1469129" lon="13.5460118"><ele>354.0</ele><time>2026-05-02T10:17:48.132Z</time></trkpt><trkpt lat="46.1468424" lon="13.545975"><ele>354.0</ele><time>2026-05-02T10:17:49.131Z</time></trkpt><trkpt lat="46.1467568" lon="13.5459043"><ele>354.0</ele><time>2026-05-02T10:17:50.132Z</time></trkpt><trkpt lat="46.1466673" lon="13.545834"><ele>354.0</ele><time>2026-05-02T10:17:51.132Z</time></trkpt><trkpt lat="46.146576" lon="13.5457827"><ele>354.0</ele><time>2026-05-02T10:17:52.132Z</time></trkpt><trkpt lat="46.1465014" lon="13.5457319"><ele>354.0</ele><time>2026-05-02T10:17:53.131Z</time></trkpt><trkpt lat="46.1464479" lon="13.54568"><ele>354.0</ele><time>2026-05-02T10:17:54.132Z</time></trkpt><trkpt lat="46.1463647" lon="13.5455494"><ele>354.0</ele><time>2026-05-02T10:17:56.132Z</time></trkpt><trkpt lat="46.1463404" lon="13.5454575"><ele>354.0</ele><time>2026-05-02T10:17:57.131Z</time></trkpt><trkpt lat="46.1463342" lon="13.545348"><ele>354.0</ele><time>2026-05-02T10:17:58.131Z</time></trkpt><trkpt lat="46.1463391" lon="13.5452429"><ele>354.0</ele><time>2026-05-02T10:17:59.132Z</time></trkpt><trkpt lat="46.1463376" lon="13.5451272"><ele>354.0</ele><time>2026-05-02T10:18:00.131Z</time></trkpt><trkpt lat="46.1463271" lon="13.5450233"><ele>354.0</ele><time>2026-05-02T10:18:01.132Z</time></trkpt><trkpt lat="46.1463062" lon="13.5449295"><ele>354.0</ele><time>2026-05-02T10:18:02.131Z</time></trkpt><trkpt lat="46.1462291" lon="13.5447863"><ele>354.0</ele><time>2026-05-02T10:18:04.131Z</time></trkpt><trkpt lat="46.1461766" lon="13.5447298"><ele>354.0</ele><time>2026-05-02T10:18:05.131Z</time></trkpt><trkpt lat="46.1461187" lon="13.5446772"><ele>354.0</ele><time>2026-05-02T10:18:06.131Z</time></trkpt><trkpt lat="46.1460689" lon="13.5446035"><ele>358.5</ele><time>2026-05-02T10:18:07.132Z</time></trkpt><trkpt lat="46.1460329" lon="13.5445169"><ele>363.0</ele><time>2026-05-02T10:18:08.132Z</time></trkpt><trkpt lat="46.1460136" lon="13.5444112"><ele>367.5</ele><time>2026-05-02T10:18:09.132Z</time></trkpt><trkpt lat="46.1460101" lon="13.5442928"><ele>372.0</ele><time>2026-05-02T10:18:10.131Z</time></trkpt><trkpt lat="46.1459656" lon="13.544136"><ele>376.5</ele><time>2026-05-02T10:18:12.131Z</time></trkpt><trkpt lat="46.1459183" lon="13.5440591"><ele>381.0</ele><time>2026-05-02T10:18:13.13Z</time></trkpt><trkpt lat="46.1458628" lon="13.5439693"><ele>381.0</ele><time>2026-05-02T10:18:14.131Z</time></trkpt><trkpt lat="46.1458099" lon="13.5438782"><ele>381.0</ele><time>2026-05-02T10:18:15.13Z</time></trkpt><trkpt lat="46.1457524" lon="13.5437815"><ele>381.0</ele><time>2026-05-02T10:18:16.131Z</time></trkpt><trkpt lat="46.1456976" lon="13.5436797"><ele>381.0</ele><time>2026-05-02T10:18:17.13Z</time></trkpt><trkpt lat="46.1456503" lon="13.543575"><ele>381.0</ele><time>2026-05-02T10:18:18.13Z</time></trkpt><trkpt lat="46.1456117" lon="13.5434809"><ele>381.0</ele><time>2026-05-02T10:18:19.13Z</time></trkpt><trkpt lat="46.1455793" lon="13.5433977"><ele>371.20000000000005</ele><time>2026-05-02T10:18:20.13Z</time></trkpt><trkpt lat="46.1455389" lon="13.5432517"><ele>361.40000000000003</ele><time>2026-05-02T10:18:22.13Z</time></trkpt><trkpt lat="46.1455557" lon="13.5430766"><ele>351.6</ele><time>2026-05-02T10:18:24.13Z</time></trkpt><trkpt lat="46.1455507" lon="13.5429209"><ele>341.8</ele><time>2026-05-02T10:18:26.13Z</time></trkpt><trkpt lat="46.1455663" lon="13.5427644"><ele>332.0</ele><time>2026-05-02T10:18:28.13Z</time></trkpt><trkpt lat="46.145635" lon="13.5426314"><ele>331.8</ele><time>2026-05-02T10:18:30.131Z</time></trkpt><trkpt lat="46.1457189" lon="13.5425171"><ele>331.6</ele><time>2026-05-02T10:18:32.13Z</time></trkpt><trkpt lat="46.1458026" lon="13.5424159"><ele>331.40000000000003</ele><time>2026-05-02T10:18:34.13Z</time></trkpt><trkpt lat="46.1457926" lon="13.5423006"><ele>331.20000000000005</ele><time>2026-05-02T10:18:36.13Z</time></trkpt><trkpt lat="46.1457231" lon="13.5421887"><ele>331.0</ele><time>2026-05-02T10:18:38.13Z</time></trkpt><trkpt lat="46.1456955" lon="13.5420496"><ele>332.6</ele><time>2026-05-02T10:18:40.131Z</time></trkpt><trkpt lat="46.1457078" lon="13.541851"><ele>334.20000000000005</ele><time>2026-05-02T10:18:42.13Z</time></trkpt><trkpt lat="46.1457006" lon="13.5417556"><ele>335.79999999999995</ele><time>2026-05-02T10:18:43.131Z</time></trkpt><trkpt lat="46.1456464" lon="13.5416036"><ele>337.4</ele><time>2026-05-02T10:18:45.13Z</time></trkpt><trkpt lat="46.1456014" lon="13.5415174"><ele>339.0</ele><time>2026-05-02T10:18:46.131Z</time></trkpt><trkpt lat="46.1455615" lon="13.5414337"><ele>339.0</ele><time>2026-05-02T10:18:47.13Z</time></trkpt><trkpt lat="46.1455265" lon="13.5413459"><ele>339.0</ele><time>2026-05-02T10:18:48.13Z</time></trkpt><trkpt lat="46.1454898" lon="13.5412496"><ele>339.0</ele><time>2026-05-02T10:18:49.131Z</time></trkpt><trkpt lat="46.1454166" lon="13.541138"><ele>339.0</ele><time>2026-05-02T10:18:51.13Z</time></trkpt><trkpt lat="46.1453258" lon="13.5411066"><ele>339.0</ele><time>2026-05-02T10:18:53.13Z</time></trkpt><trkpt lat="46.14526" lon="13.5410397"><ele>339.0</ele><time>2026-05-02T10:18:55.13Z</time></trkpt><trkpt lat="46.1452113" lon="13.5408972"><ele>339.0</ele><time>2026-05-02T10:18:57.13Z</time></trkpt><trkpt lat="46.145176" lon="13.5408064"><ele>339.0</ele><time>2026-05-02T10:18:58.13Z</time></trkpt><trkpt lat="46.1451308" lon="13.5407245"><ele>339.0</ele><time>2026-05-02T10:18:59.13Z</time></trkpt><trkpt lat="46.1451011" lon="13.5406362"><ele>339.0</ele><time>2026-05-02T10:19:00.13Z</time></trkpt><trkpt lat="46.1450784" lon="13.5405477"><ele>339.0</ele><time>2026-05-02T10:19:01.13Z</time></trkpt><trkpt lat="46.1450644" lon="13.5404274"><ele>339.0</ele><time>2026-05-02T10:19:02.13Z</time></trkpt><trkpt lat="46.1450488" lon="13.5402881"><ele>339.0</ele><time>2026-05-02T10:19:03.131Z</time></trkpt><trkpt lat="46.145022" lon="13.540153"><ele>339.0</ele><time>2026-05-02T10:19:04.131Z</time></trkpt><trkpt lat="46.1449991" lon="13.5400048"><ele>339.0</ele><time>2026-05-02T10:19:05.131Z</time></trkpt><trkpt lat="46.1449742" lon="13.5398598"><ele>339.0</ele><time>2026-05-02T10:19:06.131Z</time></trkpt><trkpt lat="46.1449379" lon="13.5397051"><ele>339.0</ele><time>2026-05-02T10:19:07.13Z</time></trkpt><trkpt lat="46.1448909" lon="13.5395575"><ele>339.0</ele><time>2026-05-02T10:19:08.13Z</time></trkpt><trkpt lat="46.1448289" lon="13.5394094"><ele>339.0</ele><time>2026-05-02T10:19:09.13Z</time></trkpt><trkpt lat="46.1447788" lon="13.5392604"><ele>339.0</ele><time>2026-05-02T10:19:10.131Z</time></trkpt><trkpt lat="46.1447361" lon="13.5390978"><ele>339.0</ele><time>2026-05-02T10:19:11.13Z</time></trkpt><trkpt lat="46.144691" lon="13.5389475"><ele>339.0</ele><time>2026-05-02T10:19:12.13Z</time></trkpt><trkpt lat="46.1446348" lon="13.5387994"><ele>339.0</ele><time>2026-05-02T10:19:13.131Z</time></trkpt><trkpt lat="46.1445717" lon="13.5386772"><ele>339.0</ele><time>2026-05-02T10:19:14.13Z</time></trkpt><trkpt lat="46.1444708" lon="13.538586"><ele>339.0</ele><time>2026-05-02T10:19:15.13Z</time></trkpt><trkpt lat="46.1443539" lon="13.5385176"><ele>348.25</ele><time>2026-05-02T10:19:16.131Z</time></trkpt><trkpt lat="46.1442347" lon="13.5384757"><ele>357.5</ele><time>2026-05-02T10:19:17.13Z</time></trkpt><trkpt lat="46.1441127" lon="13.5384341"><ele>366.75</ele><time>2026-05-02T10:19:18.13Z</time></trkpt><trkpt lat="46.1439927" lon="13.5383821"><ele>376.0</ele><time>2026-05-02T10:19:19.13Z</time></trkpt><trkpt lat="46.1438792" lon="13.5383161"><ele>376.0</ele><time>2026-05-02T10:19:20.131Z</time></trkpt><trkpt lat="46.1437656" lon="13.5382453"><ele>376.0</ele><time>2026-05-02T10:19:21.131Z</time></trkpt><trkpt lat="46.1436511" lon="13.538175"><ele>376.0</ele><time>2026-05-02T10:19:22.131Z</time></trkpt><trkpt lat="46.1435347" lon="13.5381177"><ele>376.0</ele><time>2026-05-02T10:19:23.13Z</time></trkpt><trkpt lat="46.1434213" lon="13.5380796"><ele>376.0</ele><time>2026-05-02T10:19:24.13Z</time></trkpt><trkpt lat="46.1433229" lon="13.5380369"><ele>376.0</ele><time>2026-05-02T10:19:25.131Z</time></trkpt><trkpt lat="46.1432427" lon="13.5379949"><ele>376.0</ele><time>2026-05-02T10:19:26.13Z</time></trkpt><trkpt lat="46.1431713" lon="13.537936"><ele>376.0</ele><time>2026-05-02T10:19:27.13Z</time></trkpt><trkpt lat="46.1431233" lon="13.5378502"><ele>376.0</ele><time>2026-05-02T10:19:28.13Z</time></trkpt><trkpt lat="46.1430974" lon="13.5377402"><ele>376.0</ele><time>2026-05-02T10:19:29.13Z</time></trkpt><trkpt lat="46.1431071" lon="13.5376344"><ele>376.0</ele><time>2026-05-02T10:19:30.131Z</time></trkpt><trkpt lat="46.1431042" lon="13.5375243"><ele>376.0</ele><time>2026-05-02T10:19:31.13Z</time></trkpt><trkpt lat="46.1431058" lon="13.5373751"><ele>376.0</ele><time>2026-05-02T10:19:33.13Z</time></trkpt><trkpt lat="46.1431755" lon="13.5373273"><ele>376.0</ele><time>2026-05-02T10:19:35.131Z</time></trkpt><trkpt lat="46.1432302" lon="13.5374657"><ele>376.0</ele><time>2026-05-02T10:19:37.13Z</time></trkpt><trkpt lat="46.1432628" lon="13.5376131"><ele>387.5</ele><time>2026-05-02T10:19:39.13Z</time></trkpt><trkpt lat="46.1433383" lon="13.5376191"><ele>399.0</ele><time>2026-05-02T10:19:41.13Z</time></trkpt><trkpt lat="46.14335" lon="13.5374867"><ele>410.5</ele><time>2026-05-02T10:19:43.13Z</time></trkpt><trkpt lat="46.1433404" lon="13.5373934"><ele>422.0</ele><time>2026-05-02T10:19:44.13Z</time></trkpt><trkpt lat="46.1433017" lon="13.5372107"><ele>433.50000000000006</ele><time>2026-05-02T10:19:46.13Z</time></trkpt><trkpt lat="46.143274" lon="13.5371079"><ele>445.0</ele><time>2026-05-02T10:19:47.13Z</time></trkpt><trkpt lat="46.1432325" lon="13.5370133"><ele>440.4</ele><time>2026-05-02T10:19:48.131Z</time></trkpt><trkpt lat="46.1431614" lon="13.5369323"><ele>435.8</ele><time>2026-05-02T10:19:49.13Z</time></trkpt><trkpt lat="46.1430774" lon="13.5368648"><ele>431.20000000000005</ele><time>2026-05-02T10:19:50.13Z</time></trkpt><trkpt lat="46.1429849" lon="13.5368045"><ele>426.6</ele><time>2026-05-02T10:19:51.13Z</time></trkpt><trkpt lat="46.1429004" lon="13.5367303"><ele>422.0</ele><time>2026-05-02T10:19:52.131Z</time></trkpt><trkpt lat="46.1428109" lon="13.5366482"><ele>422.0</ele><time>2026-05-02T10:19:53.13Z</time></trkpt><trkpt lat="46.1427141" lon="13.5365747"><ele>422.0</ele><time>2026-05-02T10:19:54.13Z</time></trkpt><trkpt lat="46.1426159" lon="13.536502"><ele>422.0</ele><time>2026-05-02T10:19:55.13Z</time></trkpt><trkpt lat="46.1425375" lon="13.5364295"><ele>422.0</ele><time>2026-05-02T10:19:56.131Z</time></trkpt><trkpt lat="46.1424796" lon="13.5363315"><ele>422.0</ele><time>2026-05-02T10:19:57.131Z</time></trkpt><trkpt lat="46.1424363" lon="13.5362182"><ele>420.8</ele><time>2026-05-02T10:19:58.13Z</time></trkpt><trkpt lat="46.1423918" lon="13.5360832"><ele>419.6</ele><time>2026-05-02T10:19:59.131Z</time></trkpt><trkpt lat="46.1423362" lon="13.5359706"><ele>418.40000000000003</ele><time>2026-05-02T10:20:00.13Z</time></trkpt><trkpt lat="46.1422864" lon="13.5358617"><ele>417.20000000000005</ele><time>2026-05-02T10:20:01.131Z</time></trkpt><trkpt lat="46.1422379" lon="13.5357504"><ele>416.0</ele><time>2026-05-02T10:20:02.13Z</time></trkpt><trkpt lat="46.1422049" lon="13.5356306"><ele>416.0</ele><time>2026-05-02T10:20:03.131Z</time></trkpt><trkpt lat="46.1421895" lon="13.5354989"><ele>416.0</ele><time>2026-05-02T10:20:04.13Z</time></trkpt><trkpt lat="46.1421791" lon="13.5353636"><ele>416.0</ele><time>2026-05-02T10:20:05.13Z</time></trkpt><trkpt lat="46.1421681" lon="13.5352311"><ele>416.0</ele><time>2026-05-02T10:20:06.13Z</time></trkpt><trkpt lat="46.1421574" lon="13.535092"><ele>416.0</ele><time>2026-05-02T10:20:07.13Z</time></trkpt><trkpt lat="46.1421493" lon="13.5349384"><ele>418.20000000000005</ele><time>2026-05-02T10:20:08.131Z</time></trkpt><trkpt lat="46.1421447" lon="13.534788"><ele>420.40000000000003</ele><time>2026-05-02T10:20:09.131Z</time></trkpt><trkpt lat="46.1421444" lon="13.5346485"><ele>422.6</ele><time>2026-05-02T10:20:10.131Z</time></trkpt><trkpt lat="46.142146" lon="13.5345502"><ele>424.8</ele><time>2026-05-02T10:20:11.131Z</time></trkpt><trkpt lat="46.1421318" lon="13.5344222"><ele>427.0</ele><time>2026-05-02T10:20:13.13Z</time></trkpt><trkpt lat="46.1421045" lon="13.5342749"><ele>429.33333333333337</ele><time>2026-05-02T10:20:15.13Z</time></trkpt><trkpt lat="46.1420625" lon="13.5342006"><ele>431.6666666666667</ele><time>2026-05-02T10:20:16.131Z</time></trkpt><trkpt lat="46.1420071" lon="13.5341449"><ele>434.0</ele><time>2026-05-02T10:20:17.13Z</time></trkpt><trkpt lat="46.1418972" lon="13.5340767"><ele>436.33333333333337</ele><time>2026-05-02T10:20:19.131Z</time></trkpt><trkpt lat="46.1417869" lon="13.534009"><ele>438.6666666666667</ele><time>2026-05-02T10:20:21.131Z</time></trkpt><trkpt lat="46.1417288" lon="13.5339655"><ele>441.0</ele><time>2026-05-02T10:20:22.13Z</time></trkpt><trkpt lat="46.1416733" lon="13.5339216"><ele>441.0</ele><time>2026-05-02T10:20:23.13Z</time></trkpt><trkpt lat="46.1416161" lon="13.5338807"><ele>441.0</ele><time>2026-05-02T10:20:24.13Z</time></trkpt><trkpt lat="46.1415564" lon="13.5338282"><ele>441.0</ele><time>2026-05-02T10:20:25.13Z</time></trkpt><trkpt lat="46.1415078" lon="13.5337502"><ele>441.0</ele><time>2026-05-02T10:20:26.13Z</time></trkpt><trkpt lat="46.141456" lon="13.533648"><ele>441.0</ele><time>2026-05-02T10:20:27.13Z</time></trkpt><trkpt lat="46.1414138" lon="13.5335509"><ele>441.0</ele><time>2026-05-02T10:20:28.131Z</time></trkpt><trkpt lat="46.1413829" lon="13.5334627"><ele>441.0</ele><time>2026-05-02T10:20:29.13Z</time></trkpt><trkpt lat="46.1413566" lon="13.533373"><ele>441.0</ele><time>2026-05-02T10:20:30.131Z</time></trkpt><trkpt lat="46.141327" lon="13.5332717"><ele>441.0</ele><time>2026-05-02T10:20:31.131Z</time></trkpt><trkpt lat="46.1412796" lon="13.5331762"><ele>441.0</ele><time>2026-05-02T10:20:32.131Z</time></trkpt><trkpt lat="46.141217" lon="13.5330836"><ele>441.0</ele><time>2026-05-02T10:20:33.131Z</time></trkpt><trkpt lat="46.1411454" lon="13.5329967"><ele>441.0</ele><time>2026-05-02T10:20:34.131Z</time></trkpt><trkpt lat="46.1410815" lon="13.5329144"><ele>441.0</ele><time>2026-05-02T10:20:35.13Z</time></trkpt><trkpt lat="46.1410109" lon="13.5328374"><ele>441.0</ele><time>2026-05-02T10:20:36.131Z</time></trkpt><trkpt lat="46.1409486" lon="13.5327635"><ele>441.0</ele><time>2026-05-02T10:20:37.13Z</time></trkpt><trkpt lat="46.1408897" lon="13.5326837"><ele>441.0</ele><time>2026-05-02T10:20:38.131Z</time></trkpt><trkpt lat="46.1408464" lon="13.5326108"><ele>441.0</ele><time>2026-05-02T10:20:39.131Z</time></trkpt><trkpt lat="46.140808" lon="13.5325253"><ele>441.0</ele><time>2026-05-02T10:20:40.13Z</time></trkpt><trkpt lat="46.1407743" lon="13.5324188"><ele>441.0</ele><time>2026-05-02T10:20:41.131Z</time></trkpt><trkpt lat="46.1407418" lon="13.5322982"><ele>441.0</ele><time>2026-05-02T10:20:42.131Z</time></trkpt><trkpt lat="46.1407117" lon="13.532175"><ele>441.0</ele><time>2026-05-02T10:20:43.131Z</time></trkpt><trkpt lat="46.1406831" lon="13.5320418"><ele>441.0</ele><time>2026-05-02T10:20:44.13Z</time></trkpt><trkpt lat="46.1406557" lon="13.5319096"><ele>441.0</ele><time>2026-05-02T10:20:45.13Z</time></trkpt><trkpt lat="46.1406215" lon="13.5317835"><ele>441.0</ele><time>2026-05-02T10:20:46.131Z</time></trkpt><trkpt lat="46.1406018" lon="13.5316675"><ele>441.0</ele><time>2026-05-02T10:20:47.13Z</time></trkpt><trkpt lat="46.1405874" lon="13.5315563"><ele>441.0</ele><time>2026-05-02T10:20:48.13Z</time></trkpt><trkpt lat="46.140566" lon="13.5314697"><ele>441.0</ele><time>2026-05-02T10:20:49.13Z</time></trkpt><trkpt lat="46.1404888" lon="13.5313507"><ele>441.0</ele><time>2026-05-02T10:20:51.13Z</time></trkpt><trkpt lat="46.1404269" lon="13.5313033"><ele>441.0</ele><time>2026-05-02T10:20:52.131Z</time></trkpt><trkpt lat="46.1403461" lon="13.531239"><ele>441.0</ele><time>2026-05-02T10:20:53.13Z</time></trkpt><trkpt lat="46.1402679" lon="13.5311647"><ele>441.0</ele><time>2026-05-02T10:20:54.13Z</time></trkpt><trkpt lat="46.1401996" lon="13.5311021"><ele>441.0</ele><time>2026-05-02T10:20:55.13Z</time></trkpt><trkpt lat="46.14014" lon="13.5310227"><ele>441.0</ele><time>2026-05-02T10:20:56.13Z</time></trkpt><trkpt lat="46.1400701" lon="13.5309465"><ele>441.0</ele><time>2026-05-02T10:20:57.13Z</time></trkpt><trkpt lat="46.1400055" lon="13.5308544"><ele>441.0</ele><time>2026-05-02T10:20:58.131Z</time></trkpt><trkpt lat="46.1399706" lon="13.5307339"><ele>441.0</ele><time>2026-05-02T10:20:59.13Z</time></trkpt><trkpt lat="46.1399367" lon="13.5306372"><ele>438.8333333333333</ele><time>2026-05-02T10:21:00.13Z</time></trkpt><trkpt lat="46.1399108" lon="13.5305422"><ele>436.66666666666663</ele><time>2026-05-02T10:21:01.13Z</time></trkpt><trkpt lat="46.1398828" lon="13.5304329"><ele>434.5</ele><time>2026-05-02T10:21:02.13Z</time></trkpt><trkpt lat="46.1398533" lon="13.53032"><ele>432.3333333333333</ele><time>2026-05-02T10:21:03.13Z</time></trkpt><trkpt lat="46.1398293" lon="13.5302082"><ele>430.16666666666663</ele><time>2026-05-02T10:21:04.13Z</time></trkpt><trkpt lat="46.1398131" lon="13.5301098"><ele>428.0</ele><time>2026-05-02T10:21:05.131Z</time></trkpt><trkpt lat="46.1397469" lon="13.5300088"><ele>437.4</ele><time>2026-05-02T10:21:07.131Z</time></trkpt><trkpt lat="46.1396856" lon="13.5299695"><ele>446.79999999999995</ele><time>2026-05-02T10:21:08.13Z</time></trkpt><trkpt lat="46.1395404" lon="13.5299544"><ele>456.2</ele><time>2026-05-02T10:21:10.13Z</time></trkpt><trkpt lat="46.1394505" lon="13.5299633"><ele>465.6</ele><time>2026-05-02T10:21:11.13Z</time></trkpt><trkpt lat="46.1393674" lon="13.5299766"><ele>475.0</ele><time>2026-05-02T10:21:12.13Z</time></trkpt><trkpt lat="46.1392943" lon="13.52997"><ele>475.00000000000006</ele><time>2026-05-02T10:21:13.13Z</time></trkpt><trkpt lat="46.1392233" lon="13.5299636"><ele>475.0</ele><time>2026-05-02T10:21:14.13Z</time></trkpt><trkpt lat="46.1391539" lon="13.5299491"><ele>475.0</ele><time>2026-05-02T10:21:15.13Z</time></trkpt><trkpt lat="46.1390379" lon="13.529968"><ele>475.0</ele><time>2026-05-02T10:21:17.131Z</time></trkpt><trkpt lat="46.1389605" lon="13.5300067"><ele>475.00000000000006</ele><time>2026-05-02T10:21:18.13Z</time></trkpt><trkpt lat="46.138864" lon="13.5300409"><ele>475.0</ele><time>2026-05-02T10:21:19.13Z</time></trkpt><trkpt lat="46.1387717" lon="13.5300635"><ele>476.1666666666667</ele><time>2026-05-02T10:21:20.131Z</time></trkpt><trkpt lat="46.1386837" lon="13.5300968"><ele>477.33333333333337</ele><time>2026-05-02T10:21:21.13Z</time></trkpt><trkpt lat="46.1385966" lon="13.5301318"><ele>478.5</ele><time>2026-05-02T10:21:22.13Z</time></trkpt><trkpt lat="46.1385132" lon="13.5301711"><ele>479.66666666666663</ele><time>2026-05-02T10:21:23.131Z</time></trkpt><trkpt lat="46.1384298" lon="13.530206"><ele>480.8333333333333</ele><time>2026-05-02T10:21:24.13Z</time></trkpt><trkpt lat="46.138344" lon="13.5302347"><ele>482.0</ele><time>2026-05-02T10:21:25.13Z</time></trkpt><trkpt lat="46.1382622" lon="13.5302699"><ele>484.16666666666663</ele><time>2026-05-02T10:21:26.13Z</time></trkpt><trkpt lat="46.1381786" lon="13.530294"><ele>486.3333333333333</ele><time>2026-05-02T10:21:27.13Z</time></trkpt><trkpt lat="46.1380955" lon="13.5303176"><ele>488.5</ele><time>2026-05-02T10:21:28.13Z</time></trkpt><trkpt lat="46.1380192" lon="13.5303457"><ele>490.66666666666663</ele><time>2026-05-02T10:21:29.13Z</time></trkpt><trkpt lat="46.1379452" lon="13.5303711"><ele>492.8333333333333</ele><time>2026-05-02T10:21:30.131Z</time></trkpt><trkpt lat="46.1378731" lon="13.5303993"><ele>495.0</ele><time>2026-05-02T10:21:31.13Z</time></trkpt><trkpt lat="46.1378071" lon="13.5304201"><ele>495.0</ele><time>2026-05-02T10:21:32.13Z</time></trkpt><trkpt lat="46.1377413" lon="13.53043"><ele>495.0</ele><time>2026-05-02T10:21:33.13Z</time></trkpt><trkpt lat="46.1376697" lon="13.5304334"><ele>495.0</ele><time>2026-05-02T10:21:34.131Z</time></trkpt><trkpt lat="46.1375344" lon="13.5303807"><ele>495.0</ele><time>2026-05-02T10:21:36.13Z</time></trkpt><trkpt lat="46.1374467" lon="13.530322"><ele>495.0</ele><time>2026-05-02T10:21:37.131Z</time></trkpt><trkpt lat="46.1373634" lon="13.5302739"><ele>495.0</ele><time>2026-05-02T10:21:38.13Z</time></trkpt><trkpt lat="46.1372899" lon="13.5302224"><ele>495.0</ele><time>2026-05-02T10:21:39.131Z</time></trkpt><trkpt lat="46.1372168" lon="13.5301676"><ele>495.0</ele><time>2026-05-02T10:21:40.131Z</time></trkpt><trkpt lat="46.1371363" lon="13.5301219"><ele>495.0</ele><time>2026-05-02T10:21:41.131Z</time></trkpt><trkpt lat="46.1370578" lon="13.5300979"><ele>495.0</ele><time>2026-05-02T10:21:42.13Z</time></trkpt><trkpt lat="46.1369854" lon="13.5300864"><ele>495.0</ele><time>2026-05-02T10:21:43.131Z</time></trkpt><trkpt lat="46.1369213" lon="13.5300814"><ele>494.99999999999994</ele><time>2026-05-02T10:21:44.13Z</time></trkpt><trkpt lat="46.1368514" lon="13.5300694"><ele>495.0</ele><time>2026-05-02T10:21:45.13Z</time></trkpt><trkpt lat="46.136778" lon="13.5300404"><ele>494.99999999999994</ele><time>2026-05-02T10:21:46.13Z</time></trkpt><trkpt lat="46.1367065" lon="13.5300114"><ele>494.99999999999994</ele><time>2026-05-02T10:21:47.13Z</time></trkpt><trkpt lat="46.1366401" lon="13.5299791"><ele>495.0</ele><time>2026-05-02T10:21:48.131Z</time></trkpt><trkpt lat="46.1365743" lon="13.5299347"><ele>494.99999999999994</ele><time>2026-05-02T10:21:49.131Z</time></trkpt><trkpt lat="46.1365144" lon="13.5298862"><ele>494.99999999999994</ele><time>2026-05-02T10:21:50.13Z</time></trkpt><trkpt lat="46.1364598" lon="13.5298366"><ele>495.0</ele><time>2026-05-02T10:21:51.131Z</time></trkpt><trkpt lat="46.1364132" lon="13.5297717"><ele>495.0</ele><time>2026-05-02T10:21:52.13Z</time></trkpt><trkpt lat="46.1363676" lon="13.5296925"><ele>495.0</ele><time>2026-05-02T10:21:53.13Z</time></trkpt><trkpt lat="46.1363282" lon="13.5296182"><ele>495.0</ele><time>2026-05-02T10:21:54.13Z</time></trkpt><trkpt lat="46.1362372" lon="13.5294785"><ele>495.0</ele><time>2026-05-02T10:21:56.131Z</time></trkpt><trkpt lat="46.1361806" lon="13.5294076"><ele>495.0</ele><time>2026-05-02T10:21:57.131Z</time></trkpt><trkpt lat="46.1361365" lon="13.5293304"><ele>487.6</ele><time>2026-05-02T10:21:58.13Z</time></trkpt><trkpt lat="46.1360969" lon="13.5291852"><ele>480.2</ele><time>2026-05-02T10:22:00.13Z</time></trkpt><trkpt lat="46.1360923" lon="13.5290178"><ele>472.79999999999995</ele><time>2026-05-02T10:22:02.13Z</time></trkpt><trkpt lat="46.136082" lon="13.5289238"><ele>465.4</ele><time>2026-05-02T10:22:03.13Z</time></trkpt><trkpt lat="46.1360389" lon="13.5287623"><ele>458.0</ele><time>2026-05-02T10:22:05.13Z</time></trkpt><trkpt lat="46.1360092" lon="13.5286698"><ele>457.99999999999994</ele><time>2026-05-02T10:22:06.13Z</time></trkpt><trkpt lat="46.135977" lon="13.5285835"><ele>458.0</ele><time>2026-05-02T10:22:07.129Z</time></trkpt><trkpt lat="46.1359463" lon="13.5284971"><ele>458.0</ele><time>2026-05-02T10:22:08.129Z</time></trkpt><trkpt lat="46.1358926" lon="13.5283301"><ele>458.0</ele><time>2026-05-02T10:22:10.13Z</time></trkpt><trkpt lat="46.1358589" lon="13.5282448"><ele>457.99999999999994</ele><time>2026-05-02T10:22:11.129Z</time></trkpt><trkpt lat="46.1358192" lon="13.5281682"><ele>458.0</ele><time>2026-05-02T10:22:12.129Z</time></trkpt><trkpt lat="46.1357727" lon="13.5280987"><ele>453.57142857142856</ele><time>2026-05-02T10:22:13.129Z</time></trkpt><trkpt lat="46.1357178" lon="13.5280134"><ele>449.14285714285717</ele><time>2026-05-02T10:22:14.129Z</time></trkpt><trkpt lat="46.1356724" lon="13.5279366"><ele>444.7142857142857</ele><time>2026-05-02T10:22:15.13Z</time></trkpt><trkpt lat="46.1356214" lon="13.5278651"><ele>440.2857142857143</ele><time>2026-05-02T10:22:16.129Z</time></trkpt><trkpt lat="46.1355724" lon="13.5277906"><ele>435.8571428571429</ele><time>2026-05-02T10:22:17.129Z</time></trkpt><trkpt lat="46.1355245" lon="13.5277179"><ele>431.42857142857144</ele><time>2026-05-02T10:22:18.129Z</time></trkpt><trkpt lat="46.1354802" lon="13.5276474"><ele>427.0</ele><time>2026-05-02T10:22:19.129Z</time></trkpt><trkpt lat="46.1354365" lon="13.5275637"><ele>427.0</ele><time>2026-05-02T10:22:20.129Z</time></trkpt><trkpt lat="46.1353883" lon="13.5274876"><ele>427.0</ele><time>2026-05-02T10:22:21.129Z</time></trkpt><trkpt lat="46.1353387" lon="13.5274296"><ele>427.0</ele><time>2026-05-02T10:22:22.129Z</time></trkpt><trkpt lat="46.1352832" lon="13.5273568"><ele>427.0</ele><time>2026-05-02T10:22:23.13Z</time></trkpt><trkpt lat="46.1352337" lon="13.5272877"><ele>427.0</ele><time>2026-05-02T10:22:24.13Z</time></trkpt><trkpt lat="46.1351802" lon="13.5272151"><ele>427.0</ele><time>2026-05-02T10:22:25.13Z</time></trkpt><trkpt lat="46.1351322" lon="13.5271542"><ele>427.0</ele><time>2026-05-02T10:22:26.129Z</time></trkpt><trkpt lat="46.1350459" lon="13.5270554"><ele>428.00000000000006</ele><time>2026-05-02T10:22:28.129Z</time></trkpt><trkpt lat="46.1350086" lon="13.526976"><ele>429.0</ele><time>2026-05-02T10:22:29.13Z</time></trkpt><trkpt lat="46.1349776" lon="13.5268873"><ele>430.0</ele><time>2026-05-02T10:22:30.129Z</time></trkpt><trkpt lat="46.1349118" lon="13.526773"><ele>431.0</ele><time>2026-05-02T10:22:32.129Z</time></trkpt><trkpt lat="46.1348623" lon="13.5267142"><ele>432.00000000000006</ele><time>2026-05-02T10:22:33.13Z</time></trkpt><trkpt lat="46.1347545" lon="13.5266899"><ele>433.0</ele><time>2026-05-02T10:22:35.129Z</time></trkpt><trkpt lat="46.1346787" lon="13.5267147"><ele>433.00000000000006</ele><time>2026-05-02T10:22:36.129Z</time></trkpt><trkpt lat="46.1346197" lon="13.526757"><ele>433.0</ele><time>2026-05-02T10:22:37.13Z</time></trkpt><trkpt lat="46.1345283" lon="13.5268612"><ele>433.0</ele><time>2026-05-02T10:22:39.13Z</time></trkpt><trkpt lat="46.1344702" lon="13.5268964"><ele>433.0</ele><time>2026-05-02T10:22:40.129Z</time></trkpt><trkpt lat="46.1344012" lon="13.5269283"><ele>433.00000000000006</ele><time>2026-05-02T10:22:41.129Z</time></trkpt><trkpt lat="46.1343191" lon="13.5269613"><ele>433.0</ele><time>2026-05-02T10:22:42.129Z</time></trkpt><trkpt lat="46.1342501" lon="13.5269893"><ele>433.00000000000006</ele><time>2026-05-02T10:22:43.129Z</time></trkpt><trkpt lat="46.134186" lon="13.5270144"><ele>433.0</ele><time>2026-05-02T10:22:44.129Z</time></trkpt><trkpt lat="46.1340782" lon="13.5270691"><ele>433.0</ele><time>2026-05-02T10:22:46.129Z</time></trkpt><trkpt lat="46.1340083" lon="13.5271121"><ele>433.0</ele><time>2026-05-02T10:22:48.129Z</time></trkpt><trkpt lat="46.1339278" lon="13.5270713"><ele>433.00000000000006</ele><time>2026-05-02T10:22:50.13Z</time></trkpt><trkpt lat="46.1338505" lon="13.5269924"><ele>433.0</ele><time>2026-05-02T10:22:52.13Z</time></trkpt><trkpt lat="46.133763" lon="13.5268861"><ele>431.83333333333337</ele><time>2026-05-02T10:22:54.129Z</time></trkpt><trkpt lat="46.1337182" lon="13.5268056"><ele>430.6666666666667</ele><time>2026-05-02T10:22:55.13Z</time></trkpt><trkpt lat="46.1336772" lon="13.5267016"><ele>429.5</ele><time>2026-05-02T10:22:56.129Z</time></trkpt><trkpt lat="46.1336317" lon="13.5266018"><ele>428.33333333333337</ele><time>2026-05-02T10:22:57.129Z</time></trkpt><trkpt lat="46.1335836" lon="13.5265043"><ele>427.1666666666667</ele><time>2026-05-02T10:22:58.13Z</time></trkpt><trkpt lat="46.1335366" lon="13.5264138"><ele>426.0</ele><time>2026-05-02T10:22:59.129Z</time></trkpt><trkpt lat="46.1334952" lon="13.5263277"><ele>425.6666666666667</ele><time>2026-05-02T10:23:00.129Z</time></trkpt><trkpt lat="46.1334547" lon="13.5262246"><ele>425.33333333333337</ele><time>2026-05-02T10:23:01.13Z</time></trkpt><trkpt lat="46.1334036" lon="13.5261197"><ele>425.0</ele><time>2026-05-02T10:23:02.129Z</time></trkpt><trkpt lat="46.1333492" lon="13.5260049"><ele>424.6666666666667</ele><time>2026-05-02T10:23:03.129Z</time></trkpt><trkpt lat="46.1333024" lon="13.5259097"><ele>424.33333333333337</ele><time>2026-05-02T10:23:04.129Z</time></trkpt><trkpt lat="46.1332447" lon="13.5258098"><ele>424.0</ele><time>2026-05-02T10:23:05.129Z</time></trkpt><trkpt lat="46.1331833" lon="13.5257024"><ele>420.79999999999995</ele><time>2026-05-02T10:23:06.129Z</time></trkpt><trkpt lat="46.1331175" lon="13.5255936"><ele>417.59999999999997</ele><time>2026-05-02T10:23:07.129Z</time></trkpt><trkpt lat="46.1330459" lon="13.5254883"><ele>414.4</ele><time>2026-05-02T10:23:08.13Z</time></trkpt><trkpt lat="46.1329712" lon="13.5253917"><ele>411.2</ele><time>2026-05-02T10:23:09.129Z</time></trkpt><trkpt lat="46.1329115" lon="13.525313"><ele>408.0</ele><time>2026-05-02T10:23:10.129Z</time></trkpt><trkpt lat="46.1328294" lon="13.5251922"><ele>408.0</ele><time>2026-05-02T10:23:12.13Z</time></trkpt><trkpt lat="46.1327801" lon="13.5250836"><ele>408.0</ele><time>2026-05-02T10:23:14.129Z</time></trkpt><trkpt lat="46.1327543" lon="13.5249028"><ele>408.0</ele><time>2026-05-02T10:23:16.129Z</time></trkpt><trkpt lat="46.132735" lon="13.5247947"><ele>408.0</ele><time>2026-05-02T10:23:17.129Z</time></trkpt><trkpt lat="46.1327096" lon="13.5246904"><ele>408.0</ele><time>2026-05-02T10:23:18.13Z</time></trkpt><trkpt lat="46.1326863" lon="13.5246045"><ele>408.0</ele><time>2026-05-02T10:23:19.129Z</time></trkpt><trkpt lat="46.1326722" lon="13.5244897"><ele>409.8333333333333</ele><time>2026-05-02T10:23:20.13Z</time></trkpt><trkpt lat="46.1326672" lon="13.5243754"><ele>411.66666666666663</ele><time>2026-05-02T10:23:21.13Z</time></trkpt><trkpt lat="46.1326571" lon="13.5242809"><ele>413.5</ele><time>2026-05-02T10:23:22.129Z</time></trkpt><trkpt lat="46.1326498" lon="13.5241891"><ele>415.3333333333333</ele><time>2026-05-02T10:23:23.129Z</time></trkpt><trkpt lat="46.1326418" lon="13.5240849"><ele>417.16666666666663</ele><time>2026-05-02T10:23:24.13Z</time></trkpt><trkpt lat="46.1326811" lon="13.5239387"><ele>419.0</ele><time>2026-05-02T10:23:26.129Z</time></trkpt><trkpt lat="46.1327679" lon="13.5238204"><ele>418.0</ele><time>2026-05-02T10:23:28.13Z</time></trkpt><trkpt lat="46.1327816" lon="13.5236967"><ele>417.0</ele><time>2026-05-02T10:23:30.129Z</time></trkpt><trkpt lat="46.1326798" lon="13.5235414"><ele>416.0</ele><time>2026-05-02T10:23:32.13Z</time></trkpt><trkpt lat="46.1326057" lon="13.5234392"><ele>415.0</ele><time>2026-05-02T10:23:33.129Z</time></trkpt><trkpt lat="46.132555" lon="13.5233244"><ele>414.0</ele><time>2026-05-02T10:23:34.129Z</time></trkpt><trkpt lat="46.1325112" lon="13.5232042"><ele>414.0</ele><time>2026-05-02T10:23:35.129Z</time></trkpt><trkpt lat="46.132478" lon="13.523086"><ele>414.0</ele><time>2026-05-02T10:23:36.129Z</time></trkpt><trkpt lat="46.1324446" lon="13.5229805"><ele>414.0</ele><time>2026-05-02T10:23:37.13Z</time></trkpt><trkpt lat="46.1324023" lon="13.5228874"><ele>414.0</ele><time>2026-05-02T10:23:38.13Z</time></trkpt><trkpt lat="46.1323535" lon="13.522793"><ele>414.0</ele><time>2026-05-02T10:23:39.13Z</time></trkpt><trkpt lat="46.1322964" lon="13.5226988"><ele>414.0</ele><time>2026-05-02T10:23:40.129Z</time></trkpt><trkpt lat="46.1322419" lon="13.5226063"><ele>410.2</ele><time>2026-05-02T10:23:41.129Z</time></trkpt><trkpt lat="46.1321871" lon="13.5225153"><ele>406.4</ele><time>2026-05-02T10:23:42.13Z</time></trkpt><trkpt lat="46.1321305" lon="13.5224122"><ele>402.6</ele><time>2026-05-02T10:23:43.13Z</time></trkpt><trkpt lat="46.1320739" lon="13.5223115"><ele>398.8</ele><time>2026-05-02T10:23:44.129Z</time></trkpt><trkpt lat="46.13202" lon="13.5222009"><ele>395.0</ele><time>2026-05-02T10:23:45.13Z</time></trkpt><trkpt lat="46.1319678" lon="13.5220923"><ele>393.66666666666663</ele><time>2026-05-02T10:23:46.129Z</time></trkpt><trkpt lat="46.131916" lon="13.5219805"><ele>392.3333333333333</ele><time>2026-05-02T10:23:47.129Z</time></trkpt><trkpt lat="46.1318742" lon="13.5218675"><ele>391.0</ele><time>2026-05-02T10:23:48.129Z</time></trkpt><trkpt lat="46.1318444" lon="13.5217634"><ele>389.66666666666663</ele><time>2026-05-02T10:23:49.13Z</time></trkpt><trkpt lat="46.1318249" lon="13.5216756"><ele>388.3333333333333</ele><time>2026-05-02T10:23:50.129Z</time></trkpt><trkpt lat="46.1317728" lon="13.5215651"><ele>387.0</ele><time>2026-05-02T10:23:52.129Z</time></trkpt><trkpt lat="46.1316628" lon="13.521473"><ele>387.0</ele><time>2026-05-02T10:23:54.13Z</time></trkpt><trkpt lat="46.1315657" lon="13.5214262"><ele>387.0</ele><time>2026-05-02T10:23:55.13Z</time></trkpt><trkpt lat="46.1314676" lon="13.5213936"><ele>387.0</ele><time>2026-05-02T10:23:56.13Z</time></trkpt><trkpt lat="46.1313772" lon="13.5213648"><ele>387.0</ele><time>2026-05-02T10:23:57.129Z</time></trkpt><trkpt lat="46.1312914" lon="13.5213513"><ele>387.0</ele><time>2026-05-02T10:23:58.129Z</time></trkpt><trkpt lat="46.1312048" lon="13.5213417"><ele>386.6</ele><time>2026-05-02T10:23:59.129Z</time></trkpt><trkpt lat="46.1311172" lon="13.5213481"><ele>386.20000000000005</ele><time>2026-05-02T10:24:00.129Z</time></trkpt><trkpt lat="46.1310183" lon="13.5213761"><ele>385.8</ele><time>2026-05-02T10:24:01.129Z</time></trkpt><trkpt lat="46.1309057" lon="13.5214059"><ele>385.4</ele><time>2026-05-02T10:24:02.129Z</time></trkpt><trkpt lat="46.1307932" lon="13.5214247"><ele>385.0</ele><time>2026-05-02T10:24:03.129Z</time></trkpt><trkpt lat="46.1306782" lon="13.5214227"><ele>382.8</ele><time>2026-05-02T10:24:04.129Z</time></trkpt><trkpt lat="46.1305569" lon="13.5213874"><ele>380.6</ele><time>2026-05-02T10:24:05.129Z</time></trkpt><trkpt lat="46.1304444" lon="13.5213362"><ele>378.4</ele><time>2026-05-02T10:24:06.13Z</time></trkpt><trkpt lat="46.1303471" lon="13.5212979"><ele>376.2</ele><time>2026-05-02T10:24:07.129Z</time></trkpt><trkpt lat="46.1302683" lon="13.5212575"><ele>374.0</ele><time>2026-05-02T10:24:08.129Z</time></trkpt><trkpt lat="46.1301908" lon="13.5212192"><ele>374.0</ele><time>2026-05-02T10:24:09.129Z</time></trkpt><trkpt lat="46.1301213" lon="13.5211796"><ele>374.0</ele><time>2026-05-02T10:24:10.13Z</time></trkpt><trkpt lat="46.1300513" lon="13.5211261"><ele>374.0</ele><time>2026-05-02T10:24:11.129Z</time></trkpt><trkpt lat="46.1299911" lon="13.5210669"><ele>374.0</ele><time>2026-05-02T10:24:12.129Z</time></trkpt><trkpt lat="46.1299406" lon="13.5210058"><ele>374.0</ele><time>2026-05-02T10:24:13.129Z</time></trkpt><trkpt lat="46.1298527" lon="13.5209036"><ele>374.0</ele><time>2026-05-02T10:24:15.129Z</time></trkpt><trkpt lat="46.1298662" lon="13.5207829"><ele>374.0</ele><time>2026-05-02T10:24:17.129Z</time></trkpt><trkpt lat="46.1299322" lon="13.5207044"><ele>374.0</ele><time>2026-05-02T10:24:19.129Z</time></trkpt><trkpt lat="46.130007" lon="13.5206364"><ele>374.0</ele><time>2026-05-02T10:24:21.129Z</time></trkpt><trkpt lat="46.1300724" lon="13.5205947"><ele>374.0</ele><time>2026-05-02T10:24:23.13Z</time></trkpt><trkpt lat="46.1301618" lon="13.5205567"><ele>374.0</ele><time>2026-05-02T10:24:25.129Z</time></trkpt><trkpt lat="46.1302507" lon="13.5205384"><ele>374.0</ele><time>2026-05-02T10:24:27.13Z</time></trkpt><trkpt lat="46.1303328" lon="13.5205609"><ele>374.0</ele><time>2026-05-02T10:24:29.13Z</time></trkpt><trkpt lat="46.1303936" lon="13.5206105"><ele>374.0</ele><time>2026-05-02T10:24:31.129Z</time></trkpt><trkpt lat="46.1304538" lon="13.5206551"><ele>374.0</ele><time>2026-05-02T10:24:33.13Z</time></trkpt><trkpt lat="46.1305182" lon="13.5206697"><ele>374.0</ele><time>2026-05-02T10:24:35.13Z</time></trkpt><trkpt lat="46.1305833" lon="13.5206428"><ele>374.0</ele><time>2026-05-02T10:24:37.129Z</time></trkpt><trkpt lat="46.1306589" lon="13.5205736"><ele>374.0</ele><time>2026-05-02T10:24:40.13Z</time></trkpt><trkpt lat="46.1307389" lon="13.5204772"><ele>381.0</ele><time>2026-05-02T10:24:43.13Z</time></trkpt><trkpt lat="46.1308082" lon="13.5204244"><ele>381.0</ele><time>2026-05-02T10:24:45.129Z</time></trkpt><trkpt lat="46.1308316" lon="13.520335"><ele>373.0</ele><time>2026-05-02T10:24:49.129Z</time></trkpt><trkpt lat="46.1307428" lon="13.5203779"><ele>373.0</ele><time>2026-05-02T10:24:52.129Z</time></trkpt><trkpt lat="46.1306858" lon="13.5204264"><ele>374.0</ele><time>2026-05-02T10:24:54.129Z</time></trkpt><trkpt lat="46.1306465" lon="13.5205069"><ele>374.0</ele><time>2026-05-02T10:24:58.13Z</time></trkpt></trkseg><trkseg><trkpt lat="46.1306593" lon="13.5205849"><ele>374.0</ele><time>2026-05-02T11:32:57.145Z</time></trkpt><trkpt lat="46.1305774" lon="13.5206331"><ele>374.0</ele><time>2026-05-02T11:33:07.145Z</time></trkpt><trkpt lat="46.130491" lon="13.5206331"><ele>374.0</ele><time>2026-05-02T11:33:09.145Z</time></trkpt><trkpt lat="46.1303886" lon="13.5205891"><ele>374.0</ele><time>2026-05-02T11:33:11.145Z</time></trkpt><trkpt lat="46.1303267" lon="13.5205491"><ele>374.0</ele><time>2026-05-02T11:33:12.146Z</time></trkpt><trkpt lat="46.1302029" lon="13.5205116"><ele>374.0</ele><time>2026-05-02T11:33:14.145Z</time></trkpt><trkpt lat="46.1301337" lon="13.5205274"><ele>374.0</ele><time>2026-05-02T11:33:15.146Z</time></trkpt><trkpt lat="46.130064" lon="13.5205694"><ele>374.0</ele><time>2026-05-02T11:33:16.145Z</time></trkpt><trkpt lat="46.1299976" lon="13.5206141"><ele>374.0</ele><time>2026-05-02T11:33:17.146Z</time></trkpt><trkpt lat="46.1299403" lon="13.5206715"><ele>374.0</ele><time>2026-05-02T11:33:18.145Z</time></trkpt><trkpt lat="46.1298619" lon="13.5207605"><ele>374.0</ele><time>2026-05-02T11:33:20.146Z</time></trkpt><trkpt lat="46.1297787" lon="13.5207924"><ele>372.2</ele><time>2026-05-02T11:33:22.145Z</time></trkpt><trkpt lat="46.1296865" lon="13.5207387"><ele>370.4</ele><time>2026-05-02T11:33:24.145Z</time></trkpt><trkpt lat="46.1295726" lon="13.5206362"><ele>368.6</ele><time>2026-05-02T11:33:26.145Z</time></trkpt><trkpt lat="46.1295102" lon="13.5205794"><ele>366.8</ele><time>2026-05-02T11:33:27.145Z</time></trkpt><trkpt lat="46.1294461" lon="13.5205134"><ele>365.0</ele><time>2026-05-02T11:33:28.145Z</time></trkpt><trkpt lat="46.1293815" lon="13.5204287"><ele>364.8</ele><time>2026-05-02T11:33:29.145Z</time></trkpt><trkpt lat="46.1293124" lon="13.5203372"><ele>364.6</ele><time>2026-05-02T11:33:30.145Z</time></trkpt><trkpt lat="46.129239" lon="13.5202377"><ele>364.4</ele><time>2026-05-02T11:33:31.146Z</time></trkpt><trkpt lat="46.1291686" lon="13.5201224"><ele>364.2</ele><time>2026-05-02T11:33:32.146Z</time></trkpt><trkpt lat="46.1290953" lon="13.5200075"><ele>364.0</ele><time>2026-05-02T11:33:33.145Z</time></trkpt><trkpt lat="46.129027" lon="13.5198843"><ele>364.0</ele><time>2026-05-02T11:33:34.145Z</time></trkpt><trkpt lat="46.128949" lon="13.5197743"><ele>364.0</ele><time>2026-05-02T11:33:35.145Z</time></trkpt><trkpt lat="46.1288413" lon="13.519696"><ele>364.0</ele><time>2026-05-02T11:33:36.145Z</time></trkpt><trkpt lat="46.1287281" lon="13.5196652"><ele>364.0</ele><time>2026-05-02T11:33:37.145Z</time></trkpt><trkpt lat="46.1285975" lon="13.5196518"><ele>364.0</ele><time>2026-05-02T11:33:38.145Z</time></trkpt><trkpt lat="46.1284666" lon="13.5196413"><ele>364.0</ele><time>2026-05-02T11:33:39.145Z</time></trkpt><trkpt lat="46.1283439" lon="13.5196355"><ele>364.0</ele><time>2026-05-02T11:33:40.145Z</time></trkpt><trkpt lat="46.1282207" lon="13.5196349"><ele>364.0</ele><time>2026-05-02T11:33:41.145Z</time></trkpt><trkpt lat="46.1280886" lon="13.5196343"><ele>362.25</ele><time>2026-05-02T11:33:42.145Z</time></trkpt><trkpt lat="46.1279712" lon="13.5196035"><ele>360.5</ele><time>2026-05-02T11:33:43.145Z</time></trkpt><trkpt lat="46.1278619" lon="13.5195424"><ele>358.75</ele><time>2026-05-02T11:33:44.145Z</time></trkpt><trkpt lat="46.1277385" lon="13.519454"><ele>357.0</ele><time>2026-05-02T11:33:45.145Z</time></trkpt><trkpt lat="46.1276224" lon="13.5193472"><ele>357.0</ele><time>2026-05-02T11:33:46.146Z</time></trkpt><trkpt lat="46.1275059" lon="13.5192254"><ele>357.0</ele><time>2026-05-02T11:33:47.145Z</time></trkpt><trkpt lat="46.1273923" lon="13.5191065"><ele>357.0</ele><time>2026-05-02T11:33:48.145Z</time></trkpt><trkpt lat="46.1272817" lon="13.5189928"><ele>357.0</ele><time>2026-05-02T11:33:49.145Z</time></trkpt><trkpt lat="46.1271796" lon="13.5188672"><ele>356.25</ele><time>2026-05-02T11:33:50.146Z</time></trkpt><trkpt lat="46.1270812" lon="13.5187428"><ele>355.5</ele><time>2026-05-02T11:33:51.145Z</time></trkpt><trkpt lat="46.1269982" lon="13.5186211"><ele>354.75</ele><time>2026-05-02T11:33:52.145Z</time></trkpt><trkpt lat="46.126925" lon="13.5184907"><ele>354.0</ele><time>2026-05-02T11:33:53.145Z</time></trkpt><trkpt lat="46.126856" lon="13.5183702"><ele>354.0</ele><time>2026-05-02T11:33:54.145Z</time></trkpt><trkpt lat="46.1267692" lon="13.5182852"><ele>354.0</ele><time>2026-05-02T11:33:55.145Z</time></trkpt><trkpt lat="46.1266668" lon="13.5182424"><ele>354.0</ele><time>2026-05-02T11:33:56.145Z</time></trkpt><trkpt lat="46.1265618" lon="13.5182104"><ele>354.0</ele><time>2026-05-02T11:33:57.145Z</time></trkpt><trkpt lat="46.1264523" lon="13.5181739"><ele>354.0</ele><time>2026-05-02T11:33:58.146Z</time></trkpt><trkpt lat="46.1263434" lon="13.518134"><ele>351.75</ele><time>2026-05-02T11:33:59.145Z</time></trkpt><trkpt lat="46.1262312" lon="13.5181119"><ele>349.5</ele><time>2026-05-02T11:34:00.145Z</time></trkpt><trkpt lat="46.126124" lon="13.5181318"><ele>347.25</ele><time>2026-05-02T11:34:01.145Z</time></trkpt><trkpt lat="46.126025" lon="13.5181999"><ele>345.0</ele><time>2026-05-02T11:34:02.146Z</time></trkpt><trkpt lat="46.1259291" lon="13.5183045"><ele>345.0</ele><time>2026-05-02T11:34:03.145Z</time></trkpt><trkpt lat="46.1258223" lon="13.5184313"><ele>345.0</ele><time>2026-05-02T11:34:04.146Z</time></trkpt><trkpt lat="46.1257206" lon="13.5185362"><ele>345.0</ele><time>2026-05-02T11:34:05.146Z</time></trkpt><trkpt lat="46.1256106" lon="13.5186117"><ele>345.0</ele><time>2026-05-02T11:34:06.146Z</time></trkpt><trkpt lat="46.1254938" lon="13.5186678"><ele>345.5</ele><time>2026-05-02T11:34:07.145Z</time></trkpt><trkpt lat="46.125359" lon="13.5186993"><ele>346.0</ele><time>2026-05-02T11:34:08.145Z</time></trkpt><trkpt lat="46.1252148" lon="13.5187208"><ele>346.5</ele><time>2026-05-02T11:34:09.145Z</time></trkpt><trkpt lat="46.1250678" lon="13.5187412"><ele>347.0</ele><time>2026-05-02T11:34:10.146Z</time></trkpt><trkpt lat="46.1249243" lon="13.5187849"><ele>339.5</ele><time>2026-05-02T11:34:11.145Z</time></trkpt><trkpt lat="46.1247861" lon="13.5188349"><ele>332.0</ele><time>2026-05-02T11:34:12.146Z</time></trkpt><trkpt lat="46.1246465" lon="13.5188726"><ele>324.5</ele><time>2026-05-02T11:34:13.146Z</time></trkpt><trkpt lat="46.1245043" lon="13.5189046"><ele>317.0</ele><time>2026-05-02T11:34:14.145Z</time></trkpt><trkpt lat="46.1243651" lon="13.518934"><ele>317.0</ele><time>2026-05-02T11:34:15.145Z</time></trkpt><trkpt lat="46.1242295" lon="13.5189633"><ele>317.0</ele><time>2026-05-02T11:34:16.145Z</time></trkpt><trkpt lat="46.124092" lon="13.518994"><ele>317.0</ele><time>2026-05-02T11:34:17.145Z</time></trkpt><trkpt lat="46.1239502" lon="13.5190083"><ele>317.0</ele><time>2026-05-02T11:34:18.145Z</time></trkpt><trkpt lat="46.1237991" lon="13.5190267"><ele>315.0</ele><time>2026-05-02T11:34:19.145Z</time></trkpt><trkpt lat="46.1236566" lon="13.5190126"><ele>313.0</ele><time>2026-05-02T11:34:20.145Z</time></trkpt><trkpt lat="46.1235129" lon="13.5189871"><ele>311.0</ele><time>2026-05-02T11:34:21.146Z</time></trkpt><trkpt lat="46.1233708" lon="13.5189564"><ele>309.0</ele><time>2026-05-02T11:34:22.146Z</time></trkpt><trkpt lat="46.1232354" lon="13.5188853"><ele>308.0</ele><time>2026-05-02T11:34:23.145Z</time></trkpt><trkpt lat="46.1230987" lon="13.5187773"><ele>307.0</ele><time>2026-05-02T11:34:24.146Z</time></trkpt><trkpt lat="46.1229597" lon="13.5186646"><ele>306.0</ele><time>2026-05-02T11:34:25.146Z</time></trkpt><trkpt lat="46.1228239" lon="13.518565"><ele>306.0</ele><time>2026-05-02T11:34:26.145Z</time></trkpt><trkpt lat="46.1226896" lon="13.5184687"><ele>306.0</ele><time>2026-05-02T11:34:27.145Z</time></trkpt><trkpt lat="46.1225572" lon="13.5183815"><ele>306.0</ele><time>2026-05-02T11:34:28.145Z</time></trkpt><trkpt lat="46.1224196" lon="13.5183077"><ele>306.0</ele><time>2026-05-02T11:34:29.145Z</time></trkpt><trkpt lat="46.1222953" lon="13.5182049"><ele>303.25</ele><time>2026-05-02T11:34:30.146Z</time></trkpt><trkpt lat="46.1221802" lon="13.5180786"><ele>300.5</ele><time>2026-05-02T11:34:31.145Z</time></trkpt><trkpt lat="46.1220732" lon="13.5179498"><ele>297.75</ele><time>2026-05-02T11:34:32.145Z</time></trkpt><trkpt lat="46.1219738" lon="13.5178113"><ele>295.0</ele><time>2026-05-02T11:34:33.144Z</time></trkpt><trkpt lat="46.121877" lon="13.5176609"><ele>295.0</ele><time>2026-05-02T11:34:34.145Z</time></trkpt><trkpt lat="46.1217882" lon="13.5174857"><ele>295.0</ele><time>2026-05-02T11:34:35.144Z</time></trkpt><trkpt lat="46.1217018" lon="13.517296"><ele>295.0</ele><time>2026-05-02T11:34:36.145Z</time></trkpt><trkpt lat="46.1216187" lon="13.5171072"><ele>283.0</ele><time>2026-05-02T11:34:37.145Z</time></trkpt><trkpt lat="46.1215402" lon="13.5169309"><ele>271.0</ele><time>2026-05-02T11:34:38.144Z</time></trkpt><trkpt lat="46.1214714" lon="13.5167638"><ele>259.0</ele><time>2026-05-02T11:34:39.144Z</time></trkpt><trkpt lat="46.1214223" lon="13.5165863"><ele>247.0</ele><time>2026-05-02T11:34:40.144Z</time></trkpt><trkpt lat="46.1214029" lon="13.5163944"><ele>247.0</ele><time>2026-05-02T11:34:41.144Z</time></trkpt><trkpt lat="46.1214103" lon="13.5161807"><ele>247.0</ele><time>2026-05-02T11:34:42.145Z</time></trkpt><trkpt lat="46.1214177" lon="13.5159511"><ele>247.0</ele><time>2026-05-02T11:34:43.144Z</time></trkpt><trkpt lat="46.1214328" lon="13.5157187"><ele>247.0</ele><time>2026-05-02T11:34:44.145Z</time></trkpt><trkpt lat="46.1214455" lon="13.5154879"><ele>247.0</ele><time>2026-05-02T11:34:45.145Z</time></trkpt><trkpt lat="46.1214518" lon="13.515256"><ele>247.0</ele><time>2026-05-02T11:34:46.144Z</time></trkpt><trkpt lat="46.1214482" lon="13.5150232"><ele>246.25</ele><time>2026-05-02T11:34:47.145Z</time></trkpt><trkpt lat="46.1214297" lon="13.5147964"><ele>245.5</ele><time>2026-05-02T11:34:48.144Z</time></trkpt><trkpt lat="46.1214162" lon="13.514585"><ele>244.75</ele><time>2026-05-02T11:34:49.144Z</time></trkpt><trkpt lat="46.1213994" lon="13.5143888"><ele>244.0</ele><time>2026-05-02T11:34:50.144Z</time></trkpt><trkpt lat="46.1213776" lon="13.5142182"><ele>244.0</ele><time>2026-05-02T11:34:51.144Z</time></trkpt><trkpt lat="46.1213364" lon="13.5140743"><ele>243.99999999999997</ele><time>2026-05-02T11:34:52.145Z</time></trkpt><trkpt lat="46.1212663" lon="13.5139603"><ele>243.99999999999997</ele><time>2026-05-02T11:34:53.145Z</time></trkpt><trkpt lat="46.1211767" lon="13.5138768"><ele>244.0</ele><time>2026-05-02T11:34:54.144Z</time></trkpt><trkpt lat="46.1210884" lon="13.5137978"><ele>244.0</ele><time>2026-05-02T11:34:55.145Z</time></trkpt><trkpt lat="46.121013" lon="13.5137039"><ele>247.25</ele><time>2026-05-02T11:34:56.144Z</time></trkpt><trkpt lat="46.1209602" lon="13.5135721"><ele>250.5</ele><time>2026-05-02T11:34:57.144Z</time></trkpt><trkpt lat="46.1209151" lon="13.5134112"><ele>253.75</ele><time>2026-05-02T11:34:58.144Z</time></trkpt><trkpt lat="46.1208739" lon="13.5132388"><ele>257.0</ele><time>2026-05-02T11:34:59.144Z</time></trkpt><trkpt lat="46.1208389" lon="13.5130615"><ele>257.75</ele><time>2026-05-02T11:35:00.145Z</time></trkpt><trkpt lat="46.1208094" lon="13.5128796"><ele>258.5</ele><time>2026-05-02T11:35:01.144Z</time></trkpt><trkpt lat="46.1207866" lon="13.5126906"><ele>259.25</ele><time>2026-05-02T11:35:02.144Z</time></trkpt><trkpt lat="46.1207711" lon="13.5124983"><ele>260.0</ele><time>2026-05-02T11:35:03.144Z</time></trkpt><trkpt lat="46.1207555" lon="13.5123038"><ele>260.0</ele><time>2026-05-02T11:35:04.145Z</time></trkpt><trkpt lat="46.1207339" lon="13.5121104"><ele>260.0</ele><time>2026-05-02T11:35:05.144Z</time></trkpt><trkpt lat="46.1206885" lon="13.5119229"><ele>260.0</ele><time>2026-05-02T11:35:06.144Z</time></trkpt><trkpt lat="46.1206226" lon="13.5117379"><ele>260.0</ele><time>2026-05-02T11:35:07.144Z</time></trkpt><trkpt lat="46.12056" lon="13.5115449"><ele>249.0</ele><time>2026-05-02T11:35:08.144Z</time></trkpt><trkpt lat="46.120516" lon="13.5113479"><ele>238.0</ele><time>2026-05-02T11:35:09.144Z</time></trkpt><trkpt lat="46.1204722" lon="13.5111579"><ele>227.0</ele><time>2026-05-02T11:35:10.145Z</time></trkpt><trkpt lat="46.1204068" lon="13.510988"><ele>216.0</ele><time>2026-05-02T11:35:11.145Z</time></trkpt><trkpt lat="46.1203144" lon="13.510852"><ele>216.0</ele><time>2026-05-02T11:35:12.144Z</time></trkpt><trkpt lat="46.1202171" lon="13.5107181"><ele>216.0</ele><time>2026-05-02T11:35:13.144Z</time></trkpt><trkpt lat="46.1201627" lon="13.5105402"><ele>216.0</ele><time>2026-05-02T11:35:14.144Z</time></trkpt><trkpt lat="46.1201061" lon="13.5103757"><ele>216.0</ele><time>2026-05-02T11:35:15.145Z</time></trkpt><trkpt lat="46.1200239" lon="13.5102296"><ele>216.66666666666666</ele><time>2026-05-02T11:35:16.145Z</time></trkpt><trkpt lat="46.1199543" lon="13.5101104"><ele>217.33333333333331</ele><time>2026-05-02T11:35:17.145Z</time></trkpt><trkpt lat="46.1198998" lon="13.5099911"><ele>218.0</ele><time>2026-05-02T11:35:18.145Z</time></trkpt><trkpt lat="46.1198652" lon="13.5098912"><ele>218.66666666666666</ele><time>2026-05-02T11:35:19.145Z</time></trkpt><trkpt lat="46.1198117" lon="13.5098209"><ele>219.33333333333331</ele><time>2026-05-02T11:35:20.144Z</time></trkpt><trkpt lat="46.1197382" lon="13.5098279"><ele>220.0</ele><time>2026-05-02T11:35:21.144Z</time></trkpt><trkpt lat="46.1197708" lon="13.5099755"><ele>220.0</ele><time>2026-05-02T11:35:23.144Z</time></trkpt><trkpt lat="46.119828" lon="13.5100921"><ele>220.0</ele><time>2026-05-02T11:35:24.145Z</time></trkpt><trkpt lat="46.1198731" lon="13.5102479"><ele>220.0</ele><time>2026-05-02T11:35:25.144Z</time></trkpt><trkpt lat="46.1198986" lon="13.5104208"><ele>220.0</ele><time>2026-05-02T11:35:26.144Z</time></trkpt><trkpt lat="46.1199255" lon="13.5106047"><ele>219.0</ele><time>2026-05-02T11:35:27.145Z</time></trkpt><trkpt lat="46.1199608" lon="13.5107952"><ele>218.0</ele><time>2026-05-02T11:35:28.145Z</time></trkpt><trkpt lat="46.1199962" lon="13.5109957"><ele>217.0</ele><time>2026-05-02T11:35:29.144Z</time></trkpt><trkpt lat="46.1200232" lon="13.5111903"><ele>216.0</ele><time>2026-05-02T11:35:30.144Z</time></trkpt><trkpt lat="46.1200409" lon="13.5113883"><ele>215.5</ele><time>2026-05-02T11:35:31.145Z</time></trkpt><trkpt lat="46.1200518" lon="13.5115719"><ele>215.0</ele><time>2026-05-02T11:35:32.145Z</time></trkpt><trkpt lat="46.1200335" lon="13.5117465"><ele>214.5</ele><time>2026-05-02T11:35:33.145Z</time></trkpt><trkpt lat="46.1199859" lon="13.5118935"><ele>214.0</ele><time>2026-05-02T11:35:34.144Z</time></trkpt><trkpt lat="46.1199116" lon="13.512045"><ele>205.75</ele><time>2026-05-02T11:35:35.144Z</time></trkpt><trkpt lat="46.1198504" lon="13.5122055"><ele>197.5</ele><time>2026-05-02T11:35:36.144Z</time></trkpt><trkpt lat="46.1198319" lon="13.5123832"><ele>189.25</ele><time>2026-05-02T11:35:37.144Z</time></trkpt><trkpt lat="46.1198203" lon="13.5125698"><ele>181.0</ele><time>2026-05-02T11:35:38.144Z</time></trkpt><trkpt lat="46.1198045" lon="13.5127432"><ele>181.0</ele><time>2026-05-02T11:35:39.145Z</time></trkpt><trkpt lat="46.119784" lon="13.5128801"><ele>181.0</ele><time>2026-05-02T11:35:40.144Z</time></trkpt><trkpt lat="46.1197601" lon="13.5129886"><ele>181.0</ele><time>2026-05-02T11:35:41.144Z</time></trkpt><trkpt lat="46.1197142" lon="13.5130533"><ele>181.0</ele><time>2026-05-02T11:35:42.144Z</time></trkpt><trkpt lat="46.1196529" lon="13.5130818"><ele>181.0</ele><time>2026-05-02T11:35:43.144Z</time></trkpt><trkpt lat="46.1196257" lon="13.5129363"><ele>181.0</ele><time>2026-05-02T11:35:45.144Z</time></trkpt><trkpt lat="46.1196539" lon="13.5128058"><ele>181.0</ele><time>2026-05-02T11:35:46.144Z</time></trkpt><trkpt lat="46.1196553" lon="13.5126565"><ele>181.0</ele><time>2026-05-02T11:35:47.144Z</time></trkpt><trkpt lat="46.1196388" lon="13.5124793"><ele>181.0</ele><time>2026-05-02T11:35:48.145Z</time></trkpt><trkpt lat="46.1196139" lon="13.5123029"><ele>181.0</ele><time>2026-05-02T11:35:49.144Z</time></trkpt><trkpt lat="46.1196021" lon="13.5121273"><ele>181.0</ele><time>2026-05-02T11:35:50.144Z</time></trkpt><trkpt lat="46.1195983" lon="13.5119622"><ele>181.0</ele><time>2026-05-02T11:35:51.144Z</time></trkpt><trkpt lat="46.1195937" lon="13.5117938"><ele>181.0</ele><time>2026-05-02T11:35:52.145Z</time></trkpt><trkpt lat="46.1195509" lon="13.5116337"><ele>181.0</ele><time>2026-05-02T11:35:53.144Z</time></trkpt><trkpt lat="46.1194867" lon="13.5114762"><ele>181.0</ele><time>2026-05-02T11:35:54.144Z</time></trkpt><trkpt lat="46.1194217" lon="13.5113221"><ele>181.0</ele><time>2026-05-02T11:35:55.144Z</time></trkpt><trkpt lat="46.1193703" lon="13.5111895"><ele>181.0</ele><time>2026-05-02T11:35:56.144Z</time></trkpt><trkpt lat="46.1193098" lon="13.5110706"><ele>181.0</ele><time>2026-05-02T11:35:57.144Z</time></trkpt><trkpt lat="46.1192426" lon="13.51098"><ele>181.0</ele><time>2026-05-02T11:35:58.144Z</time></trkpt><trkpt lat="46.1191438" lon="13.5109588"><ele>180.0</ele><time>2026-05-02T11:35:59.145Z</time></trkpt><trkpt lat="46.1190291" lon="13.5109709"><ele>179.0</ele><time>2026-05-02T11:36:00.144Z</time></trkpt><trkpt lat="46.1189075" lon="13.5109875"><ele>178.0</ele><time>2026-05-02T11:36:01.144Z</time></trkpt><trkpt lat="46.1187853" lon="13.5110329"><ele>177.0</ele><time>2026-05-02T11:36:02.144Z</time></trkpt><trkpt lat="46.1186716" lon="13.5110683"><ele>177.0</ele><time>2026-05-02T11:36:03.145Z</time></trkpt><trkpt lat="46.1185533" lon="13.5111058"><ele>177.0</ele><time>2026-05-02T11:36:04.144Z</time></trkpt><trkpt lat="46.1184464" lon="13.5111483"><ele>177.0</ele><time>2026-05-02T11:36:05.144Z</time></trkpt><trkpt lat="46.1183397" lon="13.5111863"><ele>177.0</ele><time>2026-05-02T11:36:06.144Z</time></trkpt><trkpt lat="46.1182285" lon="13.5112137"><ele>174.39999999999998</ele><time>2026-05-02T11:36:07.144Z</time></trkpt><trkpt lat="46.1181229" lon="13.5112079"><ele>171.79999999999998</ele><time>2026-05-02T11:36:08.144Z</time></trkpt><trkpt lat="46.118015" lon="13.5111791"><ele>169.2</ele><time>2026-05-02T11:36:09.144Z</time></trkpt><trkpt lat="46.1179122" lon="13.511157"><ele>166.6</ele><time>2026-05-02T11:36:10.144Z</time></trkpt><trkpt lat="46.1178137" lon="13.5111377"><ele>164.0</ele><time>2026-05-02T11:36:11.145Z</time></trkpt><trkpt lat="46.117721" lon="13.51112"><ele>164.0</ele><time>2026-05-02T11:36:12.145Z</time></trkpt><trkpt lat="46.1176374" lon="13.5111017"><ele>164.0</ele><time>2026-05-02T11:36:13.144Z</time></trkpt><trkpt lat="46.1175414" lon="13.5110838"><ele>164.0</ele><time>2026-05-02T11:36:15.144Z</time></trkpt><trkpt lat="46.1174552" lon="13.5109981"><ele>164.0</ele><time>2026-05-02T11:36:27.144Z</time></trkpt><trkpt lat="46.1174062" lon="13.5108051"><ele>164.0</ele><time>2026-05-02T11:36:29.145Z</time></trkpt><trkpt lat="46.1173787" lon="13.5106813"><ele>161.75</ele><time>2026-05-02T11:36:30.144Z</time></trkpt><trkpt lat="46.1173398" lon="13.5105355"><ele>159.5</ele><time>2026-05-02T11:36:31.145Z</time></trkpt><trkpt lat="46.1172958" lon="13.510385"><ele>157.25</ele><time>2026-05-02T11:36:32.144Z</time></trkpt><trkpt lat="46.1172507" lon="13.5102249"><ele>155.0</ele><time>2026-05-02T11:36:33.145Z</time></trkpt><trkpt lat="46.1172007" lon="13.5100569"><ele>155.0</ele><time>2026-05-02T11:36:34.144Z</time></trkpt><trkpt lat="46.1171497" lon="13.5098836"><ele>155.0</ele><time>2026-05-02T11:36:35.144Z</time></trkpt><trkpt lat="46.1170966" lon="13.5097142"><ele>155.0</ele><time>2026-05-02T11:36:36.144Z</time></trkpt><trkpt lat="46.1170415" lon="13.509538"><ele>155.0</ele><time>2026-05-02T11:36:37.144Z</time></trkpt><trkpt lat="46.1169925" lon="13.5093592"><ele>154.75</ele><time>2026-05-02T11:36:38.145Z</time></trkpt><trkpt lat="46.1169456" lon="13.5091651"><ele>154.5</ele><time>2026-05-02T11:36:39.145Z</time></trkpt><trkpt lat="46.1168906" lon="13.5089714"><ele>154.25</ele><time>2026-05-02T11:36:40.144Z</time></trkpt><trkpt lat="46.1168464" lon="13.5087822"><ele>154.0</ele><time>2026-05-02T11:36:41.145Z</time></trkpt><trkpt lat="46.1168002" lon="13.5085891"><ele>153.75</ele><time>2026-05-02T11:36:42.145Z</time></trkpt><trkpt lat="46.1167627" lon="13.5083955"><ele>153.5</ele><time>2026-05-02T11:36:43.145Z</time></trkpt><trkpt lat="46.1167277" lon="13.5082073"><ele>153.25</ele><time>2026-05-02T11:36:44.144Z</time></trkpt><trkpt lat="46.1166896" lon="13.5080084"><ele>153.0</ele><time>2026-05-02T11:36:45.144Z</time></trkpt><trkpt lat="46.1166368" lon="13.5078074"><ele>150.66666666666666</ele><time>2026-05-02T11:36:46.145Z</time></trkpt><trkpt lat="46.1165618" lon="13.5076091"><ele>148.33333333333331</ele><time>2026-05-02T11:36:47.145Z</time></trkpt><trkpt lat="46.1164682" lon="13.5074183"><ele>146.0</ele><time>2026-05-02T11:36:48.145Z</time></trkpt><trkpt lat="46.1163644" lon="13.5072482"><ele>146.0</ele><time>2026-05-02T11:36:49.144Z</time></trkpt><trkpt lat="46.1162501" lon="13.5070925"><ele>146.0</ele><time>2026-05-02T11:36:50.145Z</time></trkpt><trkpt lat="46.1161375" lon="13.5069367"><ele>146.0</ele><time>2026-05-02T11:36:51.145Z</time></trkpt><trkpt lat="46.1160168" lon="13.5067806"><ele>146.33333333333331</ele><time>2026-05-02T11:36:52.144Z</time></trkpt><trkpt lat="46.1159047" lon="13.5066242"><ele>146.66666666666666</ele><time>2026-05-02T11:36:53.144Z</time></trkpt><trkpt lat="46.1158078" lon="13.5064565"><ele>147.0</ele><time>2026-05-02T11:36:54.144Z</time></trkpt><trkpt lat="46.1157246" lon="13.5062882"><ele>146.25</ele><time>2026-05-02T11:36:55.144Z</time></trkpt><trkpt lat="46.115655" lon="13.5061207"><ele>145.5</ele><time>2026-05-02T11:36:56.145Z</time></trkpt><trkpt lat="46.1156009" lon="13.5059521"><ele>144.75</ele><time>2026-05-02T11:36:57.144Z</time></trkpt><trkpt lat="46.1155586" lon="13.5057939"><ele>144.0</ele><time>2026-05-02T11:36:58.144Z</time></trkpt><trkpt lat="46.1155389" lon="13.5056326"><ele>144.0</ele><time>2026-05-02T11:36:59.145Z</time></trkpt><trkpt lat="46.1155359" lon="13.5054832"><ele>144.0</ele><time>2026-05-02T11:37:00.144Z</time></trkpt><trkpt lat="46.1155255" lon="13.5053454"><ele>144.0</ele><time>2026-05-02T11:37:01.145Z</time></trkpt><trkpt lat="46.1155244" lon="13.5052316"><ele>144.0</ele><time>2026-05-02T11:37:02.145Z</time></trkpt><trkpt lat="46.115516" lon="13.5051325"><ele>144.0</ele><time>2026-05-02T11:37:03.144Z</time></trkpt><trkpt lat="46.1155084" lon="13.505035"><ele>144.0</ele><time>2026-05-02T11:37:04.144Z</time></trkpt><trkpt lat="46.1154706" lon="13.5048967"><ele>144.16666666666666</ele><time>2026-05-02T11:37:06.145Z</time></trkpt><trkpt lat="46.1154072" lon="13.5049125"><ele>144.33333333333334</ele><time>2026-05-02T11:37:08.145Z</time></trkpt><trkpt lat="46.1153799" lon="13.5050242"><ele>144.5</ele><time>2026-05-02T11:37:11.145Z</time></trkpt><trkpt lat="46.1153845" lon="13.5051152"><ele>144.66666666666669</ele><time>2026-05-02T11:37:33.145Z</time></trkpt><trkpt lat="46.1153891" lon="13.5053165"><ele>144.83333333333334</ele><time>2026-05-02T11:44:24.143Z</time></trkpt><trkpt lat="46.1154557" lon="13.5053396"><ele>145.0</ele><time>2026-05-02T11:44:44.142Z</time></trkpt><trkpt lat="46.1154963" lon="13.5052634"><ele>145.0</ele><time>2026-05-02T11:44:52.142Z</time></trkpt><trkpt lat="46.1154961" lon="13.5050948"><ele>145.0</ele><time>2026-05-02T11:44:54.142Z</time></trkpt><trkpt lat="46.1154927" lon="13.5049872"><ele>145.0</ele><time>2026-05-02T11:44:55.143Z</time></trkpt><trkpt lat="46.1154842" lon="13.5048602"><ele>145.0</ele><time>2026-05-02T11:44:56.143Z</time></trkpt><trkpt lat="46.1154716" lon="13.5047233"><ele>145.0</ele><time>2026-05-02T11:44:57.142Z</time></trkpt><trkpt lat="46.115457" lon="13.5045653"><ele>144.5</ele><time>2026-05-02T11:44:58.142Z</time></trkpt><trkpt lat="46.1154412" lon="13.5043935"><ele>144.0</ele><time>2026-05-02T11:44:59.142Z</time></trkpt><trkpt lat="46.1154203" lon="13.5042152"><ele>143.5</ele><time>2026-05-02T11:45:00.142Z</time></trkpt><trkpt lat="46.1153976" lon="13.5040327"><ele>143.0</ele><time>2026-05-02T11:45:01.143Z</time></trkpt><trkpt lat="46.11537" lon="13.5038426"><ele>143.0</ele><time>2026-05-02T11:45:02.143Z</time></trkpt><trkpt lat="46.1153348" lon="13.5036448"><ele>143.0</ele><time>2026-05-02T11:45:03.142Z</time></trkpt><trkpt lat="46.1152907" lon="13.5034434"><ele>143.0</ele><time>2026-05-02T11:45:04.143Z</time></trkpt><trkpt lat="46.115246" lon="13.5032411"><ele>143.0</ele><time>2026-05-02T11:45:05.142Z</time></trkpt><trkpt lat="46.1151965" lon="13.5030292"><ele>144.0</ele><time>2026-05-02T11:45:06.142Z</time></trkpt><trkpt lat="46.115145" lon="13.5028205"><ele>145.0</ele><time>2026-05-02T11:45:07.143Z</time></trkpt><trkpt lat="46.115095" lon="13.5026018"><ele>146.0</ele><time>2026-05-02T11:45:08.143Z</time></trkpt><trkpt lat="46.1150439" lon="13.5023873"><ele>146.0</ele><time>2026-05-02T11:45:09.142Z</time></trkpt><trkpt lat="46.1149919" lon="13.5021741"><ele>146.0</ele><time>2026-05-02T11:45:10.142Z</time></trkpt><trkpt lat="46.1149454" lon="13.5019622"><ele>146.0</ele><time>2026-05-02T11:45:11.142Z</time></trkpt><trkpt lat="46.1149248" lon="13.5017435"><ele>145.66666666666666</ele><time>2026-05-02T11:45:12.143Z</time></trkpt><trkpt lat="46.1149326" lon="13.5015183"><ele>145.33333333333334</ele><time>2026-05-02T11:45:13.143Z</time></trkpt><trkpt lat="46.1149644" lon="13.5012946"><ele>145.0</ele><time>2026-05-02T11:45:14.142Z</time></trkpt><trkpt lat="46.1150121" lon="13.5010779"><ele>145.0</ele><time>2026-05-02T11:45:15.142Z</time></trkpt><trkpt lat="46.1150794" lon="13.5008618"><ele>145.0</ele><time>2026-05-02T11:45:16.142Z</time></trkpt><trkpt lat="46.115164" lon="13.5006484"><ele>145.0</ele><time>2026-05-02T11:45:17.143Z</time></trkpt><trkpt lat="46.1152503" lon="13.5004402"><ele>145.33333333333334</ele><time>2026-05-02T11:45:18.142Z</time></trkpt><trkpt lat="46.1153367" lon="13.5002286"><ele>145.66666666666666</ele><time>2026-05-02T11:45:19.142Z</time></trkpt><trkpt lat="46.1154203" lon="13.5000119"><ele>146.0</ele><time>2026-05-02T11:45:20.142Z</time></trkpt><trkpt lat="46.1155007" lon="13.4997956"><ele>145.33333333333331</ele><time>2026-05-02T11:45:21.142Z</time></trkpt><trkpt lat="46.1155788" lon="13.4995763"><ele>144.66666666666666</ele><time>2026-05-02T11:45:22.142Z</time></trkpt><trkpt lat="46.1156517" lon="13.4993472"><ele>144.0</ele><time>2026-05-02T11:45:23.143Z</time></trkpt><trkpt lat="46.1157156" lon="13.4991064"><ele>143.33333333333334</ele><time>2026-05-02T11:45:24.142Z</time></trkpt><trkpt lat="46.1157826" lon="13.4988562"><ele>142.66666666666669</ele><time>2026-05-02T11:45:25.143Z</time></trkpt><trkpt lat="46.1158542" lon="13.4986038"><ele>142.0</ele><time>2026-05-02T11:45:26.142Z</time></trkpt><trkpt lat="46.1159341" lon="13.4983527"><ele>142.0</ele><time>2026-05-02T11:45:27.142Z</time></trkpt><trkpt lat="46.1160147" lon="13.4981009"><ele>142.0</ele><time>2026-05-02T11:45:28.142Z</time></trkpt><trkpt lat="46.1161049" lon="13.4978533"><ele>142.0</ele><time>2026-05-02T11:45:29.143Z</time></trkpt><trkpt lat="46.1162142" lon="13.4976518"><ele>140.66666666666669</ele><time>2026-05-02T11:45:30.142Z</time></trkpt><trkpt lat="46.1163359" lon="13.4974395"><ele>139.33333333333334</ele><time>2026-05-02T11:45:31.142Z</time></trkpt><trkpt lat="46.1164657" lon="13.497238"><ele>138.0</ele><time>2026-05-02T11:45:32.142Z</time></trkpt><trkpt lat="46.1166054" lon="13.4970478"><ele>138.0</ele><time>2026-05-02T11:45:33.143Z</time></trkpt><trkpt lat="46.1167543" lon="13.4968777"><ele>138.0</ele><time>2026-05-02T11:45:34.143Z</time></trkpt><trkpt lat="46.1169106" lon="13.4967296"><ele>138.0</ele><time>2026-05-02T11:45:35.143Z</time></trkpt><trkpt lat="46.1170722" lon="13.4965995"><ele>138.0</ele><time>2026-05-02T11:45:36.143Z</time></trkpt><trkpt lat="46.1172368" lon="13.4964843"><ele>138.0</ele><time>2026-05-02T11:45:37.142Z</time></trkpt><trkpt lat="46.1173972" lon="13.4963681"><ele>138.0</ele><time>2026-05-02T11:45:38.142Z</time></trkpt><trkpt lat="46.117548" lon="13.4962559"><ele>139.0</ele><time>2026-05-02T11:45:39.142Z</time></trkpt><trkpt lat="46.1176949" lon="13.4961304"><ele>140.0</ele><time>2026-05-02T11:45:40.143Z</time></trkpt><trkpt lat="46.1178248" lon="13.4959723"><ele>141.0</ele><time>2026-05-02T11:45:41.142Z</time></trkpt><trkpt lat="46.117928" lon="13.49573"><ele>141.0</ele><time>2026-05-02T11:45:42.143Z</time></trkpt><trkpt lat="46.1180035" lon="13.4955001"><ele>141.0</ele><time>2026-05-02T11:45:43.143Z</time></trkpt><trkpt lat="46.1181119" lon="13.4953138"><ele>141.0</ele><time>2026-05-02T11:45:44.142Z</time></trkpt><trkpt lat="46.1182152" lon="13.4951327"><ele>142.0</ele><time>2026-05-02T11:45:45.142Z</time></trkpt><trkpt lat="46.1183179" lon="13.4949567"><ele>143.0</ele><time>2026-05-02T11:45:46.142Z</time></trkpt><trkpt lat="46.1184169" lon="13.4947758"><ele>144.0</ele><time>2026-05-02T11:45:47.142Z</time></trkpt><trkpt lat="46.1185242" lon="13.4946196"><ele>144.25</ele><time>2026-05-02T11:45:48.142Z</time></trkpt><trkpt lat="46.1186256" lon="13.4944709"><ele>144.5</ele><time>2026-05-02T11:45:49.142Z</time></trkpt><trkpt lat="46.1187225" lon="13.4943337"><ele>144.75</ele><time>2026-05-02T11:45:50.142Z</time></trkpt><trkpt lat="46.1188124" lon="13.494201"><ele>145.0</ele><time>2026-05-02T11:45:51.142Z</time></trkpt><trkpt lat="46.1188956" lon="13.4940753"><ele>145.0</ele><time>2026-05-02T11:45:52.142Z</time></trkpt><trkpt lat="46.1189725" lon="13.4939575"><ele>145.0</ele><time>2026-05-02T11:45:53.143Z</time></trkpt><trkpt lat="46.1190537" lon="13.4938531"><ele>145.0</ele><time>2026-05-02T11:45:54.142Z</time></trkpt><trkpt lat="46.1191331" lon="13.4937493"><ele>145.0</ele><time>2026-05-02T11:45:55.143Z</time></trkpt><trkpt lat="46.119215" lon="13.4936318"><ele>145.0</ele><time>2026-05-02T11:45:56.142Z</time></trkpt><trkpt lat="46.1192975" lon="13.4935022"><ele>146.4</ele><time>2026-05-02T11:45:57.143Z</time></trkpt><trkpt lat="46.1193732" lon="13.4933634"><ele>147.8</ele><time>2026-05-02T11:45:58.142Z</time></trkpt><trkpt lat="46.1194408" lon="13.4932193"><ele>149.2</ele><time>2026-05-02T11:45:59.142Z</time></trkpt><trkpt lat="46.1195055" lon="13.4931491"><ele>150.6</ele><time>2026-05-02T11:46:00.143Z</time></trkpt><trkpt lat="46.1195772" lon="13.4930994"><ele>152.0</ele><time>2026-05-02T11:46:01.143Z</time></trkpt><trkpt lat="46.1197117" lon="13.49307"><ele>152.0</ele><time>2026-05-02T11:46:03.143Z</time></trkpt><trkpt lat="46.1197788" lon="13.4930549"><ele>152.0</ele><time>2026-05-02T11:46:04.143Z</time></trkpt><trkpt lat="46.1198535" lon="13.4930462"><ele>152.0</ele><time>2026-05-02T11:46:06.143Z</time></trkpt><trkpt lat="46.1199529" lon="13.4930756"><ele>152.0</ele><time>2026-05-02T11:46:10.142Z</time></trkpt><trkpt lat="46.1200326" lon="13.4931203"><ele>152.0</ele><time>2026-05-02T11:46:13.142Z</time></trkpt><trkpt lat="46.1201339" lon="13.4931711"><ele>152.0</ele><time>2026-05-02T11:46:15.142Z</time></trkpt><trkpt lat="46.1202826" lon="13.4932463"><ele>150.5</ele><time>2026-05-02T11:46:17.142Z</time></trkpt><trkpt lat="46.120373" lon="13.4932971"><ele>149.0</ele><time>2026-05-02T11:46:18.142Z</time></trkpt><trkpt lat="46.1224488" lon="13.4953586"><ele>149.5</ele><time>2026-05-02T11:46:19.142Z</time></trkpt><trkpt lat="46.1225831" lon="13.4954554"><ele>150.0</ele><time>2026-05-02T11:46:20.142Z</time></trkpt><trkpt lat="46.122713" lon="13.4955459"><ele>150.5</ele><time>2026-05-02T11:46:21.143Z</time></trkpt><trkpt lat="46.12284" lon="13.4956339"><ele>151.0</ele><time>2026-05-02T11:46:22.143Z</time></trkpt><trkpt lat="46.1229701" lon="13.4957125"><ele>151.0</ele><time>2026-05-02T11:46:23.142Z</time></trkpt><trkpt lat="46.1231099" lon="13.4957918"><ele>151.0</ele><time>2026-05-02T11:46:24.143Z</time></trkpt><trkpt lat="46.1232604" lon="13.4958779"><ele>151.0</ele><time>2026-05-02T11:46:25.141Z</time></trkpt><trkpt lat="46.1234173" lon="13.4959618"><ele>153.0</ele><time>2026-05-02T11:46:26.142Z</time></trkpt><trkpt lat="46.1235817" lon="13.4960347"><ele>155.0</ele><time>2026-05-02T11:46:27.142Z</time></trkpt><trkpt lat="46.1237495" lon="13.4960942"><ele>157.0</ele><time>2026-05-02T11:46:28.141Z</time></trkpt><trkpt lat="46.1239193" lon="13.4961555"><ele>155.33333333333334</ele><time>2026-05-02T11:46:29.141Z</time></trkpt><trkpt lat="46.1240863" lon="13.4962131"><ele>153.66666666666666</ele><time>2026-05-02T11:46:30.142Z</time></trkpt><trkpt lat="46.1242548" lon="13.4962641"><ele>152.0</ele><time>2026-05-02T11:46:31.141Z</time></trkpt><trkpt lat="46.1244192" lon="13.4962936"><ele>152.0</ele><time>2026-05-02T11:46:32.141Z</time></trkpt><trkpt lat="46.1245875" lon="13.4963073"><ele>152.0</ele><time>2026-05-02T11:46:33.142Z</time></trkpt><trkpt lat="46.1247522" lon="13.4962993"><ele>152.0</ele><time>2026-05-02T11:46:34.142Z</time></trkpt><trkpt lat="46.1249495" lon="13.4962547"><ele>159.0</ele><time>2026-05-02T11:46:35.141Z</time></trkpt><trkpt lat="46.1251102" lon="13.4962288"><ele>166.0</ele><time>2026-05-02T11:46:36.141Z</time></trkpt><trkpt lat="46.1252596" lon="13.4962056"><ele>173.0</ele><time>2026-05-02T11:46:37.142Z</time></trkpt><trkpt lat="46.1254033" lon="13.4961951"><ele>173.0</ele><time>2026-05-02T11:46:38.142Z</time></trkpt><trkpt lat="46.125541" lon="13.4962004"><ele>173.0</ele><time>2026-05-02T11:46:39.142Z</time></trkpt><trkpt lat="46.1256821" lon="13.4962238"><ele>173.0</ele><time>2026-05-02T11:46:40.142Z</time></trkpt><trkpt lat="46.1258152" lon="13.4962553"><ele>173.0</ele><time>2026-05-02T11:46:41.142Z</time></trkpt><trkpt lat="46.1259406" lon="13.4963013"><ele>167.5</ele><time>2026-05-02T11:46:42.141Z</time></trkpt><trkpt lat="46.1260584" lon="13.4963601"><ele>162.0</ele><time>2026-05-02T11:46:43.141Z</time></trkpt><trkpt lat="46.1261775" lon="13.4964278"><ele>156.5</ele><time>2026-05-02T11:46:44.141Z</time></trkpt><trkpt lat="46.1262848" lon="13.4964922"><ele>151.0</ele><time>2026-05-02T11:46:45.141Z</time></trkpt><trkpt lat="46.1263765" lon="13.4965552"><ele>151.0</ele><time>2026-05-02T11:46:46.142Z</time></trkpt><trkpt lat="46.1264549" lon="13.4966137"><ele>151.0</ele><time>2026-05-02T11:46:47.142Z</time></trkpt><trkpt lat="46.1265248" lon="13.4966505"><ele>151.0</ele><time>2026-05-02T11:46:48.142Z</time></trkpt><trkpt lat="46.1266421" lon="13.4966195"><ele>151.0</ele><time>2026-05-02T11:46:50.142Z</time></trkpt><trkpt lat="46.1267408" lon="13.4964954"><ele>151.0</ele><time>2026-05-02T11:46:52.142Z</time></trkpt><trkpt lat="46.1268125" lon="13.4964209"><ele>152.6</ele><time>2026-05-02T11:46:53.142Z</time></trkpt><trkpt lat="46.126896" lon="13.4963445"><ele>154.2</ele><time>2026-05-02T11:46:54.141Z</time></trkpt><trkpt lat="46.1269816" lon="13.4962676"><ele>155.8</ele><time>2026-05-02T11:46:55.141Z</time></trkpt><trkpt lat="46.1270678" lon="13.4961849"><ele>157.4</ele><time>2026-05-02T11:46:56.141Z</time></trkpt><trkpt lat="46.1271573" lon="13.4961114"><ele>159.0</ele><time>2026-05-02T11:46:57.141Z</time></trkpt><trkpt lat="46.1272393" lon="13.4960258"><ele>159.8</ele><time>2026-05-02T11:46:58.142Z</time></trkpt><trkpt lat="46.1273148" lon="13.495945"><ele>160.60000000000002</ele><time>2026-05-02T11:46:59.141Z</time></trkpt><trkpt lat="46.1273987" lon="13.4958766"><ele>161.4</ele><time>2026-05-02T11:47:00.141Z</time></trkpt><trkpt lat="46.1274864" lon="13.4958294"><ele>162.20000000000002</ele><time>2026-05-02T11:47:01.141Z</time></trkpt><trkpt lat="46.1275735" lon="13.4958012"><ele>163.0</ele><time>2026-05-02T11:47:02.141Z</time></trkpt><trkpt lat="46.1276568" lon="13.4957857"><ele>163.0</ele><time>2026-05-02T11:47:03.142Z</time></trkpt><trkpt lat="46.127752" lon="13.4957728"><ele>163.0</ele><time>2026-05-02T11:47:04.141Z</time></trkpt><trkpt lat="46.1278388" lon="13.4957683"><ele>163.0</ele><time>2026-05-02T11:47:05.141Z</time></trkpt><trkpt lat="46.1279412" lon="13.495765"><ele>163.0</ele><time>2026-05-02T11:47:06.141Z</time></trkpt><trkpt lat="46.1280294" lon="13.4957606"><ele>163.0</ele><time>2026-05-02T11:47:07.141Z</time></trkpt><trkpt lat="46.1281087" lon="13.4957374"><ele>163.0</ele><time>2026-05-02T11:47:08.142Z</time></trkpt><trkpt lat="46.1282011" lon="13.4957031"><ele>163.0</ele><time>2026-05-02T11:47:09.141Z</time></trkpt><trkpt lat="46.1282881" lon="13.495663"><ele>163.0</ele><time>2026-05-02T11:47:10.141Z</time></trkpt><trkpt lat="46.1283726" lon="13.4956259"><ele>163.0</ele><time>2026-05-02T11:47:11.141Z</time></trkpt><trkpt lat="46.1284635" lon="13.4955891"><ele>163.0</ele><time>2026-05-02T11:47:12.141Z</time></trkpt><trkpt lat="46.1285509" lon="13.4955627"><ele>163.8</ele><time>2026-05-02T11:47:13.141Z</time></trkpt><trkpt lat="46.1286493" lon="13.4955388"><ele>164.60000000000002</ele><time>2026-05-02T11:47:14.142Z</time></trkpt><trkpt lat="46.1287502" lon="13.4955194"><ele>165.39999999999998</ele><time>2026-05-02T11:47:15.141Z</time></trkpt><trkpt lat="46.1288557" lon="13.4955095"><ele>166.2</ele><time>2026-05-02T11:47:16.142Z</time></trkpt><trkpt lat="46.1289603" lon="13.4955104"><ele>167.0</ele><time>2026-05-02T11:47:17.142Z</time></trkpt><trkpt lat="46.1290605" lon="13.495519"><ele>167.2</ele><time>2026-05-02T11:47:18.142Z</time></trkpt><trkpt lat="46.1291633" lon="13.4955163"><ele>167.39999999999998</ele><time>2026-05-02T11:47:19.141Z</time></trkpt><trkpt lat="46.1292605" lon="13.4955225"><ele>167.60000000000002</ele><time>2026-05-02T11:47:20.142Z</time></trkpt><trkpt lat="46.1293544" lon="13.4955389"><ele>167.8</ele><time>2026-05-02T11:47:21.142Z</time></trkpt><trkpt lat="46.1294329" lon="13.4955678"><ele>168.0</ele><time>2026-05-02T11:47:22.141Z</time></trkpt><trkpt lat="46.1295067" lon="13.4956101"><ele>168.0</ele><time>2026-05-02T11:47:23.142Z</time></trkpt><trkpt lat="46.1295785" lon="13.4956761"><ele>168.0</ele><time>2026-05-02T11:47:24.141Z</time></trkpt><trkpt lat="46.129643" lon="13.4957334"><ele>168.0</ele><time>2026-05-02T11:47:25.141Z</time></trkpt><trkpt lat="46.1297032" lon="13.4957728"><ele>168.0</ele><time>2026-05-02T11:47:26.141Z</time></trkpt><trkpt lat="46.1297742" lon="13.4957931"><ele>168.0</ele><time>2026-05-02T11:47:27.142Z</time></trkpt><trkpt lat="46.1298432" lon="13.4957993"><ele>168.0</ele><time>2026-05-02T11:47:28.141Z</time></trkpt><trkpt lat="46.1299062" lon="13.4957847"><ele>168.0</ele><time>2026-05-02T11:47:29.141Z</time></trkpt><trkpt lat="46.1300203" lon="13.4956911"><ele>168.8</ele><time>2026-05-02T11:47:31.142Z</time></trkpt><trkpt lat="46.1300695" lon="13.4956254"><ele>169.60000000000002</ele><time>2026-05-02T11:47:32.142Z</time></trkpt><trkpt lat="46.130123" lon="13.4955483"><ele>170.39999999999998</ele><time>2026-05-02T11:47:33.141Z</time></trkpt><trkpt lat="46.1302274" lon="13.4954707"><ele>171.2</ele><time>2026-05-02T11:47:35.141Z</time></trkpt><trkpt lat="46.1303716" lon="13.4954703"><ele>172.0</ele><time>2026-05-02T11:47:37.142Z</time></trkpt><trkpt lat="46.1304553" lon="13.4954643"><ele>172.0</ele><time>2026-05-02T11:47:38.142Z</time></trkpt><trkpt lat="46.1305497" lon="13.4954536"><ele>172.0</ele><time>2026-05-02T11:47:39.141Z</time></trkpt><trkpt lat="46.1306296" lon="13.4954577"><ele>172.0</ele><time>2026-05-02T11:47:40.141Z</time></trkpt><trkpt lat="46.1307385" lon="13.4955129"><ele>172.0</ele><time>2026-05-02T11:47:42.141Z</time></trkpt><trkpt lat="46.1308293" lon="13.4956138"><ele>172.0</ele><time>2026-05-02T11:47:44.142Z</time></trkpt><trkpt lat="46.1309196" lon="13.4957203"><ele>173.0</ele><time>2026-05-02T11:47:46.141Z</time></trkpt><trkpt lat="46.1309941" lon="13.4958471"><ele>174.0</ele><time>2026-05-02T11:47:48.142Z</time></trkpt><trkpt lat="46.1310561" lon="13.4959598"><ele>175.0</ele><time>2026-05-02T11:47:50.142Z</time></trkpt><trkpt lat="46.1311586" lon="13.4960211"><ele>176.0</ele><time>2026-05-02T11:47:52.142Z</time></trkpt><trkpt lat="46.1312174" lon="13.496063"><ele>177.0</ele><time>2026-05-02T11:47:53.141Z</time></trkpt><trkpt lat="46.1312811" lon="13.4960909"><ele>177.0</ele><time>2026-05-02T11:47:54.141Z</time></trkpt><trkpt lat="46.1313476" lon="13.4961145"><ele>177.0</ele><time>2026-05-02T11:47:55.141Z</time></trkpt><trkpt lat="46.1314105" lon="13.496119"><ele>177.0</ele><time>2026-05-02T11:47:56.141Z</time></trkpt><trkpt lat="46.1314776" lon="13.4961202"><ele>177.0</ele><time>2026-05-02T11:47:57.141Z</time></trkpt><trkpt lat="46.131583" lon="13.4961295"><ele>177.0</ele><time>2026-05-02T11:47:59.142Z</time></trkpt><trkpt lat="46.1316639" lon="13.4961293"><ele>177.0</ele><time>2026-05-02T11:48:11.141Z</time></trkpt><trkpt lat="46.1317594" lon="13.4960745"><ele>177.33333333333334</ele><time>2026-05-02T11:48:13.141Z</time></trkpt><trkpt lat="46.1318346" lon="13.4959392"><ele>177.66666666666666</ele><time>2026-05-02T11:48:15.142Z</time></trkpt><trkpt lat="46.1318817" lon="13.4958514"><ele>178.0</ele><time>2026-05-02T11:48:16.141Z</time></trkpt><trkpt lat="46.1319237" lon="13.4957502"><ele>178.33333333333331</ele><time>2026-05-02T11:48:17.141Z</time></trkpt><trkpt lat="46.1319632" lon="13.4956472"><ele>178.66666666666666</ele><time>2026-05-02T11:48:18.142Z</time></trkpt><trkpt lat="46.1319917" lon="13.4955553"><ele>179.0</ele><time>2026-05-02T11:48:19.141Z</time></trkpt><trkpt lat="46.1319679" lon="13.4954166"><ele>182.0</ele><time>2026-05-02T11:48:21.141Z</time></trkpt><trkpt lat="46.1318383" lon="13.4953401"><ele>185.0</ele><time>2026-05-02T11:48:23.141Z</time></trkpt><trkpt lat="46.1317425" lon="13.495319"><ele>188.0</ele><time>2026-05-02T11:48:24.141Z</time></trkpt><trkpt lat="46.1316504" lon="13.4953099"><ele>191.0</ele><time>2026-05-02T11:48:25.141Z</time></trkpt><trkpt lat="46.1315603" lon="13.4952847"><ele>194.0</ele><time>2026-05-02T11:48:26.141Z</time></trkpt><trkpt lat="46.1314623" lon="13.4952636"><ele>194.00000000000003</ele><time>2026-05-02T11:48:27.141Z</time></trkpt><trkpt lat="46.1313703" lon="13.4952785"><ele>194.0</ele><time>2026-05-02T11:48:28.142Z</time></trkpt><trkpt lat="46.1312876" lon="13.4953087"><ele>194.0</ele><time>2026-05-02T11:48:29.142Z</time></trkpt><trkpt lat="46.1312151" lon="13.4953121"><ele>194.0</ele><time>2026-05-02T11:48:30.142Z</time></trkpt><trkpt lat="46.1311535" lon="13.4952759"><ele>194.00000000000003</ele><time>2026-05-02T11:48:31.141Z</time></trkpt><trkpt lat="46.1310885" lon="13.4951895"><ele>194.0</ele><time>2026-05-02T11:48:32.142Z</time></trkpt><trkpt lat="46.1310322" lon="13.4950914"><ele>194.0</ele><time>2026-05-02T11:48:33.141Z</time></trkpt><trkpt lat="46.1309808" lon="13.4949907"><ele>194.0</ele><time>2026-05-02T11:48:34.141Z</time></trkpt><trkpt lat="46.1309098" lon="13.4948844"><ele>194.0</ele><time>2026-05-02T11:48:35.142Z</time></trkpt><trkpt lat="46.1308345" lon="13.4948126"><ele>194.0</ele><time>2026-05-02T11:48:36.141Z</time></trkpt><trkpt lat="46.1307365" lon="13.4947789"><ele>194.0</ele><time>2026-05-02T11:48:37.141Z</time></trkpt><trkpt lat="46.1306406" lon="13.4947745"><ele>193.0</ele><time>2026-05-02T11:48:38.142Z</time></trkpt><trkpt lat="46.1305448" lon="13.4947888"><ele>192.0</ele><time>2026-05-02T11:48:39.142Z</time></trkpt><trkpt lat="46.1304493" lon="13.4948058"><ele>191.0</ele><time>2026-05-02T11:48:40.141Z</time></trkpt><trkpt lat="46.1303715" lon="13.4948187"><ele>190.0</ele><time>2026-05-02T11:48:41.141Z</time></trkpt><trkpt lat="46.1302672" lon="13.4947523"><ele>189.0</ele><time>2026-05-02T11:48:43.141Z</time></trkpt><trkpt lat="46.1302554" lon="13.4945634"><ele>192.33333333333334</ele><time>2026-05-02T11:48:45.141Z</time></trkpt><trkpt lat="46.1302511" lon="13.4944536"><ele>195.66666666666669</ele><time>2026-05-02T11:48:46.142Z</time></trkpt><trkpt lat="46.1302222" lon="13.4943424"><ele>199.0</ele><time>2026-05-02T11:48:47.141Z</time></trkpt><trkpt lat="46.1301841" lon="13.4942207"><ele>202.33333333333334</ele><time>2026-05-02T11:48:48.142Z</time></trkpt><trkpt lat="46.1301183" lon="13.4941369"><ele>205.66666666666669</ele><time>2026-05-02T11:48:49.142Z</time></trkpt><trkpt lat="46.1300394" lon="13.4940772"><ele>209.0</ele><time>2026-05-02T11:48:50.142Z</time></trkpt><trkpt lat="46.1299297" lon="13.4940652"><ele>209.16666666666669</ele><time>2026-05-02T11:48:51.141Z</time></trkpt><trkpt lat="46.1298273" lon="13.4940814"><ele>209.33333333333334</ele><time>2026-05-02T11:48:52.142Z</time></trkpt><trkpt lat="46.1297282" lon="13.4940906"><ele>209.5</ele><time>2026-05-02T11:48:53.141Z</time></trkpt><trkpt lat="46.1296552" lon="13.494091"><ele>209.66666666666669</ele><time>2026-05-02T11:48:54.141Z</time></trkpt><trkpt lat="46.1296066" lon="13.4940309"><ele>209.83333333333334</ele><time>2026-05-02T11:48:56.142Z</time></trkpt><trkpt lat="46.1296568" lon="13.4939273"><ele>210.0</ele><time>2026-05-02T11:48:58.141Z</time></trkpt><trkpt lat="46.1297886" lon="13.4938542"><ele>210.0</ele><time>2026-05-02T11:49:00.141Z</time></trkpt><trkpt lat="46.1298595" lon="13.4938116"><ele>210.0</ele><time>2026-05-02T11:49:01.141Z</time></trkpt><trkpt lat="46.1299369" lon="13.4937746"><ele>210.0</ele><time>2026-05-02T11:49:02.142Z</time></trkpt><trkpt lat="46.1300258" lon="13.4937256"><ele>210.0</ele><time>2026-05-02T11:49:03.141Z</time></trkpt><trkpt lat="46.1301229" lon="13.4936896"><ele>210.0</ele><time>2026-05-02T11:49:04.141Z</time></trkpt><trkpt lat="46.1302207" lon="13.4936787"><ele>213.33333333333334</ele><time>2026-05-02T11:49:05.141Z</time></trkpt><trkpt lat="46.1303122" lon="13.4936843"><ele>216.66666666666669</ele><time>2026-05-02T11:49:06.142Z</time></trkpt><trkpt lat="46.1303956" lon="13.4936977"><ele>220.0</ele><time>2026-05-02T11:49:07.142Z</time></trkpt><trkpt lat="46.130465" lon="13.4936811"><ele>223.33333333333334</ele><time>2026-05-02T11:49:08.142Z</time></trkpt><trkpt lat="46.1305178" lon="13.4936263"><ele>226.66666666666669</ele><time>2026-05-02T11:49:09.141Z</time></trkpt><trkpt lat="46.1305615" lon="13.4935398"><ele>230.0</ele><time>2026-05-02T11:49:10.141Z</time></trkpt><trkpt lat="46.130594" lon="13.4934373"><ele>230.0</ele><time>2026-05-02T11:49:11.142Z</time></trkpt><trkpt lat="46.1306159" lon="13.4933366"><ele>230.0</ele><time>2026-05-02T11:49:12.141Z</time></trkpt><trkpt lat="46.1306582" lon="13.4931768"><ele>230.0</ele><time>2026-05-02T11:49:14.141Z</time></trkpt><trkpt lat="46.130694" lon="13.4930076"><ele>230.0</ele><time>2026-05-02T11:49:16.141Z</time></trkpt><trkpt lat="46.1307428" lon="13.4928714"><ele>230.0</ele><time>2026-05-02T11:49:18.141Z</time></trkpt><trkpt lat="46.1308196" lon="13.4928245"><ele>229.0</ele><time>2026-05-02T11:49:20.142Z</time></trkpt><trkpt lat="46.1308985" lon="13.4928003"><ele>228.0</ele><time>2026-05-02T11:49:22.141Z</time></trkpt><trkpt lat="46.131006" lon="13.4927601"><ele>227.0</ele><time>2026-05-02T11:49:24.142Z</time></trkpt><trkpt lat="46.1310629" lon="13.4927203"><ele>226.0</ele><time>2026-05-02T11:49:25.141Z</time></trkpt><trkpt lat="46.1311598" lon="13.492623"><ele>225.0</ele><time>2026-05-02T11:49:27.141Z</time></trkpt><trkpt lat="46.1312636" lon="13.4925665"><ele>225.0</ele><time>2026-05-02T11:49:29.141Z</time></trkpt><trkpt lat="46.1313474" lon="13.4925919"><ele>225.0</ele><time>2026-05-02T11:49:31.142Z</time></trkpt><trkpt lat="46.1314376" lon="13.4926939"><ele>225.0</ele><time>2026-05-02T11:49:33.141Z</time></trkpt><trkpt lat="46.13149" lon="13.4927574"><ele>225.0</ele><time>2026-05-02T11:49:34.141Z</time></trkpt><trkpt lat="46.1315521" lon="13.4928336"><ele>225.0</ele><time>2026-05-02T11:49:35.141Z</time></trkpt><trkpt lat="46.1316127" lon="13.49291"><ele>225.0</ele><time>2026-05-02T11:49:36.142Z</time></trkpt><trkpt lat="46.1316736" lon="13.4929895"><ele>227.83333333333334</ele><time>2026-05-02T11:49:37.142Z</time></trkpt><trkpt lat="46.1317347" lon="13.4930601"><ele>230.66666666666669</ele><time>2026-05-02T11:49:38.141Z</time></trkpt><trkpt lat="46.1318021" lon="13.4931313"><ele>233.5</ele><time>2026-05-02T11:49:39.141Z</time></trkpt><trkpt lat="46.1318602" lon="13.493199"><ele>236.33333333333334</ele><time>2026-05-02T11:49:40.141Z</time></trkpt><trkpt lat="46.1319719" lon="13.493261"><ele>239.16666666666669</ele><time>2026-05-02T11:49:42.142Z</time></trkpt><trkpt lat="46.1320387" lon="13.4932915"><ele>242.0</ele><time>2026-05-02T11:49:43.142Z</time></trkpt><trkpt lat="46.1321139" lon="13.4933157"><ele>242.0</ele><time>2026-05-02T11:49:44.141Z</time></trkpt><trkpt lat="46.1321813" lon="13.4933267"><ele>242.0</ele><time>2026-05-02T11:49:45.141Z</time></trkpt><trkpt lat="46.132252" lon="13.4933542"><ele>242.0</ele><time>2026-05-02T11:49:46.141Z</time></trkpt><trkpt lat="46.1323592" lon="13.4934247"><ele>242.0</ele><time>2026-05-02T11:49:48.141Z</time></trkpt><trkpt lat="46.1324513" lon="13.493565"><ele>242.0</ele><time>2026-05-02T11:49:50.142Z</time></trkpt><trkpt lat="46.1325144" lon="13.4936629"><ele>239.0</ele><time>2026-05-02T11:49:51.141Z</time></trkpt><trkpt lat="46.1325814" lon="13.4937573"><ele>236.0</ele><time>2026-05-02T11:49:52.142Z</time></trkpt><trkpt lat="46.132655" lon="13.49385"><ele>233.0</ele><time>2026-05-02T11:49:53.142Z</time></trkpt><trkpt lat="46.1327301" lon="13.49395"><ele>230.0</ele><time>2026-05-02T11:49:54.141Z</time></trkpt><trkpt lat="46.132802" lon="13.4940469"><ele>227.0</ele><time>2026-05-02T11:49:55.141Z</time></trkpt><trkpt lat="46.132875" lon="13.4941326"><ele>227.0</ele><time>2026-05-02T11:49:56.141Z</time></trkpt><trkpt lat="46.1329404" lon="13.4942153"><ele>227.00000000000003</ele><time>2026-05-02T11:49:57.141Z</time></trkpt><trkpt lat="46.1330023" lon="13.494301"><ele>227.0</ele><time>2026-05-02T11:49:58.141Z</time></trkpt><trkpt lat="46.1330578" lon="13.4943683"><ele>227.0</ele><time>2026-05-02T11:49:59.142Z</time></trkpt><trkpt lat="46.1331154" lon="13.4944177"><ele>227.00000000000003</ele><time>2026-05-02T11:50:00.141Z</time></trkpt><trkpt lat="46.1331772" lon="13.4944614"><ele>227.0</ele><time>2026-05-02T11:50:01.141Z</time></trkpt><trkpt lat="46.1332322" lon="13.4945177"><ele>227.0</ele><time>2026-05-02T11:50:02.141Z</time></trkpt><trkpt lat="46.1332847" lon="13.4946613"><ele>230.14285714285717</ele><time>2026-05-02T11:50:04.141Z</time></trkpt><trkpt lat="46.133303" lon="13.4947582"><ele>233.2857142857143</ele><time>2026-05-02T11:50:05.142Z</time></trkpt><trkpt lat="46.1333174" lon="13.4948582"><ele>236.42857142857144</ele><time>2026-05-02T11:50:06.141Z</time></trkpt><trkpt lat="46.1333366" lon="13.4949538"><ele>239.57142857142856</ele><time>2026-05-02T11:50:07.142Z</time></trkpt><trkpt lat="46.1333622" lon="13.4950549"><ele>242.7142857142857</ele><time>2026-05-02T11:50:08.142Z</time></trkpt><trkpt lat="46.133393" lon="13.4951453"><ele>245.85714285714283</ele><time>2026-05-02T11:50:09.141Z</time></trkpt><trkpt lat="46.1334333" lon="13.4952242"><ele>249.0</ele><time>2026-05-02T11:50:10.141Z</time></trkpt><trkpt lat="46.1334848" lon="13.4953004"><ele>249.0</ele><time>2026-05-02T11:50:11.141Z</time></trkpt><trkpt lat="46.133546" lon="13.4953791"><ele>249.0</ele><time>2026-05-02T11:50:12.141Z</time></trkpt><trkpt lat="46.1336009" lon="13.4954523"><ele>249.0</ele><time>2026-05-02T11:50:13.142Z</time></trkpt><trkpt lat="46.133644" lon="13.4955336"><ele>249.0</ele><time>2026-05-02T11:50:14.141Z</time></trkpt><trkpt lat="46.1336694" lon="13.4956222"><ele>249.0</ele><time>2026-05-02T11:50:15.141Z</time></trkpt><trkpt lat="46.1336766" lon="13.4958165"><ele>249.0</ele><time>2026-05-02T11:50:17.142Z</time></trkpt><trkpt lat="46.1336842" lon="13.4959384"><ele>247.5</ele><time>2026-05-02T11:50:18.142Z</time></trkpt><trkpt lat="46.1337066" lon="13.4960678"><ele>246.0</ele><time>2026-05-02T11:50:19.141Z</time></trkpt><trkpt lat="46.1337382" lon="13.4961972"><ele>244.5</ele><time>2026-05-02T11:50:20.141Z</time></trkpt><trkpt lat="46.1337749" lon="13.4962991"><ele>243.0</ele><time>2026-05-02T11:50:21.142Z</time></trkpt><trkpt lat="46.133806" lon="13.4964097"><ele>241.5</ele><time>2026-05-02T11:50:22.141Z</time></trkpt><trkpt lat="46.1338227" lon="13.4965162"><ele>240.0</ele><time>2026-05-02T11:50:23.142Z</time></trkpt><trkpt lat="46.1338332" lon="13.4966082"><ele>238.66666666666666</ele><time>2026-05-02T11:50:24.142Z</time></trkpt><trkpt lat="46.1338287" lon="13.4967707"><ele>237.33333333333331</ele><time>2026-05-02T11:50:26.142Z</time></trkpt><trkpt lat="46.133833" lon="13.4968614"><ele>236.0</ele><time>2026-05-02T11:50:27.141Z</time></trkpt><trkpt lat="46.1338479" lon="13.4969574"><ele>234.66666666666666</ele><time>2026-05-02T11:50:28.141Z</time></trkpt><trkpt lat="46.1338761" lon="13.4970589"><ele>233.33333333333331</ele><time>2026-05-02T11:50:29.141Z</time></trkpt><trkpt lat="46.1339149" lon="13.4971681"><ele>232.0</ele><time>2026-05-02T11:50:30.142Z</time></trkpt><trkpt lat="46.1339648" lon="13.4972757"><ele>230.8</ele><time>2026-05-02T11:50:31.142Z</time></trkpt><trkpt lat="46.1340183" lon="13.4973851"><ele>229.6</ele><time>2026-05-02T11:50:32.142Z</time></trkpt><trkpt lat="46.1340771" lon="13.4974829"><ele>228.40000000000003</ele><time>2026-05-02T11:50:33.141Z</time></trkpt><trkpt lat="46.134135" lon="13.4975829"><ele>227.20000000000002</ele><time>2026-05-02T11:50:34.141Z</time></trkpt><trkpt lat="46.1341995" lon="13.4976822"><ele>226.0</ele><time>2026-05-02T11:50:35.141Z</time></trkpt><trkpt lat="46.1342609" lon="13.4977807"><ele>227.60000000000002</ele><time>2026-05-02T11:50:36.141Z</time></trkpt><trkpt lat="46.1343222" lon="13.4978777"><ele>229.20000000000002</ele><time>2026-05-02T11:50:37.141Z</time></trkpt><trkpt lat="46.1343923" lon="13.4979706"><ele>230.79999999999998</ele><time>2026-05-02T11:50:38.142Z</time></trkpt><trkpt lat="46.1344625" lon="13.4980631"><ele>232.39999999999998</ele><time>2026-05-02T11:50:39.141Z</time></trkpt><trkpt lat="46.1345306" lon="13.4981437"><ele>234.0</ele><time>2026-05-02T11:50:40.141Z</time></trkpt><trkpt lat="46.1345985" lon="13.4982059"><ele>234.0</ele><time>2026-05-02T11:50:41.141Z</time></trkpt><trkpt lat="46.1346756" lon="13.4982689"><ele>234.0</ele><time>2026-05-02T11:50:42.142Z</time></trkpt><trkpt lat="46.1347525" lon="13.4983061"><ele>234.0</ele><time>2026-05-02T11:50:43.142Z</time></trkpt><trkpt lat="46.1348363" lon="13.498323"><ele>234.0</ele><time>2026-05-02T11:50:44.141Z</time></trkpt><trkpt lat="46.1349118" lon="13.4983468"><ele>234.0</ele><time>2026-05-02T11:50:45.141Z</time></trkpt><trkpt lat="46.1349819" lon="13.4983648"><ele>234.0</ele><time>2026-05-02T11:50:46.141Z</time></trkpt><trkpt lat="46.1350628" lon="13.4983766"><ele>234.0</ele><time>2026-05-02T11:50:47.14Z</time></trkpt><trkpt lat="46.1351343" lon="13.4983829"><ele>234.0</ele><time>2026-05-02T11:50:48.141Z</time></trkpt><trkpt lat="46.1352313" lon="13.4984034"><ele>234.0</ele><time>2026-05-02T11:50:50.14Z</time></trkpt><trkpt lat="46.1353012" lon="13.4984755"><ele>234.0</ele><time>2026-05-02T11:50:52.14Z</time></trkpt><trkpt lat="46.135332" lon="13.49857"><ele>234.0</ele><time>2026-05-02T11:50:54.14Z</time></trkpt><trkpt lat="46.1353476" lon="13.498737"><ele>234.0</ele><time>2026-05-02T11:50:56.14Z</time></trkpt><trkpt lat="46.1353737" lon="13.498902"><ele>234.0</ele><time>2026-05-02T11:50:58.141Z</time></trkpt><trkpt lat="46.1354096" lon="13.4989769"><ele>234.0</ele><time>2026-05-02T11:50:59.141Z</time></trkpt><trkpt lat="46.1354572" lon="13.4990556"><ele>234.0</ele><time>2026-05-02T11:51:00.141Z</time></trkpt><trkpt lat="46.1355126" lon="13.4991449"><ele>234.0</ele><time>2026-05-02T11:51:01.14Z</time></trkpt><trkpt lat="46.1355775" lon="13.4992374"><ele>234.0</ele><time>2026-05-02T11:51:02.14Z</time></trkpt><trkpt lat="46.1356452" lon="13.4993116"><ele>234.0</ele><time>2026-05-02T11:51:03.141Z</time></trkpt><trkpt lat="46.1356966" lon="13.4993856"><ele>234.0</ele><time>2026-05-02T11:51:04.14Z</time></trkpt><trkpt lat="46.1357543" lon="13.4994535"><ele>234.00000000000003</ele><time>2026-05-02T11:51:05.14Z</time></trkpt><trkpt lat="46.13582" lon="13.4995223"><ele>234.0</ele><time>2026-05-02T11:51:06.14Z</time></trkpt><trkpt lat="46.1358786" lon="13.4995912"><ele>234.0</ele><time>2026-05-02T11:51:07.14Z</time></trkpt><trkpt lat="46.1359381" lon="13.4996475"><ele>234.00000000000003</ele><time>2026-05-02T11:51:08.141Z</time></trkpt><trkpt lat="46.1359994" lon="13.4996869"><ele>234.0</ele><time>2026-05-02T11:51:09.14Z</time></trkpt><trkpt lat="46.1360715" lon="13.4996967"><ele>234.0</ele><time>2026-05-02T11:51:10.14Z</time></trkpt><trkpt lat="46.1361383" lon="13.4996821"><ele>234.0</ele><time>2026-05-02T11:51:11.141Z</time></trkpt><trkpt lat="46.1362137" lon="13.499665"><ele>234.0</ele><time>2026-05-02T11:51:12.14Z</time></trkpt><trkpt lat="46.1362956" lon="13.4996493"><ele>234.0</ele><time>2026-05-02T11:51:13.141Z</time></trkpt><trkpt lat="46.1363635" lon="13.4996294"><ele>234.0</ele><time>2026-05-02T11:51:14.14Z</time></trkpt><trkpt lat="46.1364543" lon="13.4995757"><ele>234.0</ele><time>2026-05-02T11:51:16.14Z</time></trkpt><trkpt lat="46.1365512" lon="13.4996018"><ele>234.0</ele><time>2026-05-02T11:51:19.141Z</time></trkpt><trkpt lat="46.1366044" lon="13.4996525"><ele>234.66666666666666</ele><time>2026-05-02T11:51:20.141Z</time></trkpt><trkpt lat="46.1367206" lon="13.4996923"><ele>235.33333333333331</ele><time>2026-05-02T11:51:22.141Z</time></trkpt><trkpt lat="46.1367929" lon="13.4997057"><ele>236.0</ele><time>2026-05-02T11:51:23.14Z</time></trkpt><trkpt lat="46.1368612" lon="13.499715"><ele>236.66666666666666</ele><time>2026-05-02T11:51:24.141Z</time></trkpt><trkpt lat="46.136929" lon="13.499739"><ele>237.33333333333331</ele><time>2026-05-02T11:51:25.141Z</time></trkpt><trkpt lat="46.1369923" lon="13.4997647"><ele>238.0</ele><time>2026-05-02T11:51:26.141Z</time></trkpt><trkpt lat="46.1370575" lon="13.4998145"><ele>237.99999999999997</ele><time>2026-05-02T11:51:27.14Z</time></trkpt><trkpt lat="46.137127" lon="13.4998714"><ele>238.0</ele><time>2026-05-02T11:51:28.14Z</time></trkpt><trkpt lat="46.1371994" lon="13.4999375"><ele>238.0</ele><time>2026-05-02T11:51:29.14Z</time></trkpt><trkpt lat="46.1372699" lon="13.4999888"><ele>238.0</ele><time>2026-05-02T11:51:30.14Z</time></trkpt><trkpt lat="46.1373435" lon="13.5000419"><ele>237.99999999999997</ele><time>2026-05-02T11:51:31.14Z</time></trkpt><trkpt lat="46.1374142" lon="13.5000852"><ele>238.0</ele><time>2026-05-02T11:51:32.14Z</time></trkpt><trkpt lat="46.1374863" lon="13.5001304"><ele>237.99999999999997</ele><time>2026-05-02T11:51:33.14Z</time></trkpt><trkpt lat="46.1375457" lon="13.5001776"><ele>238.0</ele><time>2026-05-02T11:51:34.14Z</time></trkpt><trkpt lat="46.1376414" lon="13.5002732"><ele>238.0</ele><time>2026-05-02T11:51:36.14Z</time></trkpt><trkpt lat="46.1377005" lon="13.5003807"><ele>238.0</ele><time>2026-05-02T11:51:38.141Z</time></trkpt><trkpt lat="46.1377258" lon="13.50048"><ele>237.99999999999997</ele><time>2026-05-02T11:51:39.14Z</time></trkpt><trkpt lat="46.1377468" lon="13.500576"><ele>238.0</ele><time>2026-05-02T11:51:40.141Z</time></trkpt><trkpt lat="46.1377745" lon="13.5006625"><ele>238.0</ele><time>2026-05-02T11:51:41.14Z</time></trkpt><trkpt lat="46.1378027" lon="13.5007617"><ele>238.0</ele><time>2026-05-02T11:51:42.14Z</time></trkpt><trkpt lat="46.1378574" lon="13.5009103"><ele>238.0</ele><time>2026-05-02T11:51:44.14Z</time></trkpt><trkpt lat="46.1379442" lon="13.5010328"><ele>238.0</ele><time>2026-05-02T11:51:46.141Z</time></trkpt><trkpt lat="46.13799" lon="13.50111"><ele>238.0</ele><time>2026-05-02T11:51:47.14Z</time></trkpt><trkpt lat="46.1380357" lon="13.5011845"><ele>236.60000000000002</ele><time>2026-05-02T11:51:48.141Z</time></trkpt><trkpt lat="46.1380796" lon="13.5012625"><ele>235.20000000000002</ele><time>2026-05-02T11:51:49.14Z</time></trkpt><trkpt lat="46.1381267" lon="13.5013253"><ele>233.8</ele><time>2026-05-02T11:51:50.141Z</time></trkpt><trkpt lat="46.1382161" lon="13.5014326"><ele>232.4</ele><time>2026-05-02T11:51:52.14Z</time></trkpt><trkpt lat="46.1383148" lon="13.5015016"><ele>231.0</ele><time>2026-05-02T11:51:54.14Z</time></trkpt><trkpt lat="46.1384328" lon="13.5015399"><ele>236.16666666666666</ele><time>2026-05-02T11:51:56.14Z</time></trkpt><trkpt lat="46.1384971" lon="13.5015687"><ele>241.33333333333331</ele><time>2026-05-02T11:51:57.14Z</time></trkpt><trkpt lat="46.1386067" lon="13.5016329"><ele>246.5</ele><time>2026-05-02T11:51:59.141Z</time></trkpt><trkpt lat="46.138662" lon="13.5016867"><ele>251.66666666666666</ele><time>2026-05-02T11:52:00.14Z</time></trkpt><trkpt lat="46.1387162" lon="13.501761"><ele>256.8333333333333</ele><time>2026-05-02T11:52:01.14Z</time></trkpt><trkpt lat="46.1387598" lon="13.5018358"><ele>262.0</ele><time>2026-05-02T11:52:02.14Z</time></trkpt><trkpt lat="46.138828" lon="13.5019375"><ele>262.0</ele><time>2026-05-02T11:52:04.141Z</time></trkpt><trkpt lat="46.1389004" lon="13.5020806"><ele>262.0</ele><time>2026-05-02T11:52:06.141Z</time></trkpt><trkpt lat="46.13894" lon="13.5021617"><ele>262.0</ele><time>2026-05-02T11:52:07.141Z</time></trkpt><trkpt lat="46.1389841" lon="13.502239"><ele>262.0</ele><time>2026-05-02T11:52:08.14Z</time></trkpt><trkpt lat="46.1390399" lon="13.5023926"><ele>262.0</ele><time>2026-05-02T11:52:10.14Z</time></trkpt><trkpt lat="46.1390685" lon="13.5024792"><ele>262.0</ele><time>2026-05-02T11:52:11.14Z</time></trkpt><trkpt lat="46.1391047" lon="13.5025711"><ele>264.3333333333333</ele><time>2026-05-02T11:52:12.14Z</time></trkpt><trkpt lat="46.1391449" lon="13.5026514"><ele>266.66666666666663</ele><time>2026-05-02T11:52:13.14Z</time></trkpt><trkpt lat="46.1392435" lon="13.5027497"><ele>269.0</ele><time>2026-05-02T11:52:15.141Z</time></trkpt><trkpt lat="46.1393076" lon="13.5027815"><ele>271.3333333333333</ele><time>2026-05-02T11:52:16.14Z</time></trkpt><trkpt lat="46.1393758" lon="13.5028058"><ele>273.6666666666667</ele><time>2026-05-02T11:52:17.141Z</time></trkpt><trkpt lat="46.1394442" lon="13.5028143"><ele>276.0</ele><time>2026-05-02T11:52:18.14Z</time></trkpt><trkpt lat="46.1395179" lon="13.5028142"><ele>276.0</ele><time>2026-05-02T11:52:19.14Z</time></trkpt><trkpt lat="46.139588" lon="13.502819"><ele>276.0</ele><time>2026-05-02T11:52:20.141Z</time></trkpt><trkpt lat="46.139668" lon="13.5028119"><ele>276.0</ele><time>2026-05-02T11:52:21.14Z</time></trkpt><trkpt lat="46.1397441" lon="13.5028015"><ele>276.0</ele><time>2026-05-02T11:52:22.14Z</time></trkpt><trkpt lat="46.1398183" lon="13.5028003"><ele>276.0</ele><time>2026-05-02T11:52:23.14Z</time></trkpt><trkpt lat="46.1399016" lon="13.5027919"><ele>276.0</ele><time>2026-05-02T11:52:24.14Z</time></trkpt><trkpt lat="46.1399866" lon="13.502778"><ele>279.3333333333333</ele><time>2026-05-02T11:52:25.14Z</time></trkpt><trkpt lat="46.1400623" lon="13.5027672"><ele>282.6666666666667</ele><time>2026-05-02T11:52:26.141Z</time></trkpt><trkpt lat="46.1401468" lon="13.5027563"><ele>286.0</ele><time>2026-05-02T11:52:27.14Z</time></trkpt><trkpt lat="46.1402263" lon="13.5027507"><ele>289.33333333333337</ele><time>2026-05-02T11:52:28.141Z</time></trkpt><trkpt lat="46.1403102" lon="13.50274"><ele>292.6666666666667</ele><time>2026-05-02T11:52:29.141Z</time></trkpt><trkpt lat="46.1403982" lon="13.5027354"><ele>296.0</ele><time>2026-05-02T11:52:30.14Z</time></trkpt><trkpt lat="46.1404757" lon="13.5027242"><ele>296.0</ele><time>2026-05-02T11:52:31.141Z</time></trkpt><trkpt lat="46.1405605" lon="13.5027023"><ele>296.0</ele><time>2026-05-02T11:52:32.141Z</time></trkpt><trkpt lat="46.1406407" lon="13.5026772"><ele>296.0</ele><time>2026-05-02T11:52:33.141Z</time></trkpt><trkpt lat="46.1407179" lon="13.5026558"><ele>296.0</ele><time>2026-05-02T11:52:34.141Z</time></trkpt><trkpt lat="46.140787" lon="13.5026448"><ele>296.0</ele><time>2026-05-02T11:52:35.141Z</time></trkpt><trkpt lat="46.1408863" lon="13.5025959"><ele>296.0</ele><time>2026-05-02T11:52:37.14Z</time></trkpt><trkpt lat="46.1409929" lon="13.5024988"><ele>296.40000000000003</ele><time>2026-05-02T11:52:39.14Z</time></trkpt><trkpt lat="46.1410747" lon="13.5024892"><ele>296.8</ele><time>2026-05-02T11:52:41.141Z</time></trkpt><trkpt lat="46.1411617" lon="13.5025589"><ele>297.20000000000005</ele><time>2026-05-02T11:52:43.14Z</time></trkpt><trkpt lat="46.141266" lon="13.5025986"><ele>297.6</ele><time>2026-05-02T11:52:45.14Z</time></trkpt><trkpt lat="46.1413775" lon="13.5026011"><ele>298.0</ele><time>2026-05-02T11:52:47.14Z</time></trkpt><trkpt lat="46.1414966" lon="13.5026045"><ele>299.66666666666663</ele><time>2026-05-02T11:52:49.141Z</time></trkpt><trkpt lat="46.1415627" lon="13.5026112"><ele>301.3333333333333</ele><time>2026-05-02T11:52:50.14Z</time></trkpt><trkpt lat="46.1416805" lon="13.5026368"><ele>303.0</ele><time>2026-05-02T11:52:52.14Z</time></trkpt><trkpt lat="46.1417996" lon="13.5026479"><ele>304.6666666666667</ele><time>2026-05-02T11:52:54.14Z</time></trkpt><trkpt lat="46.1418654" lon="13.5026448"><ele>306.33333333333337</ele><time>2026-05-02T11:52:55.14Z</time></trkpt><trkpt lat="46.1419383" lon="13.5026365"><ele>308.0</ele><time>2026-05-02T11:52:56.14Z</time></trkpt><trkpt lat="46.1420125" lon="13.5026175"><ele>308.0</ele><time>2026-05-02T11:52:57.141Z</time></trkpt><trkpt lat="46.1420829" lon="13.5025881"><ele>308.0</ele><time>2026-05-02T11:52:58.14Z</time></trkpt><trkpt lat="46.1421529" lon="13.502578"><ele>308.0</ele><time>2026-05-02T11:52:59.14Z</time></trkpt><trkpt lat="46.1422761" lon="13.5025809"><ele>308.0</ele><time>2026-05-02T11:53:01.14Z</time></trkpt><trkpt lat="46.1423651" lon="13.502577"><ele>308.0</ele><time>2026-05-02T11:53:02.141Z</time></trkpt><trkpt lat="46.1424488" lon="13.5025647"><ele>308.0</ele><time>2026-05-02T11:53:03.141Z</time></trkpt><trkpt lat="46.1425196" lon="13.5025427"><ele>309.5</ele><time>2026-05-02T11:53:04.14Z</time></trkpt><trkpt lat="46.1425852" lon="13.5025259"><ele>311.0</ele><time>2026-05-02T11:53:05.141Z</time></trkpt><trkpt lat="46.1426787" lon="13.5025158"><ele>312.5</ele><time>2026-05-02T11:53:07.14Z</time></trkpt><trkpt lat="46.1427499" lon="13.5024853"><ele>314.0</ele><time>2026-05-02T11:53:09.14Z</time></trkpt><trkpt lat="46.1427753" lon="13.5023815"><ele>315.5</ele><time>2026-05-02T11:53:12.14Z</time></trkpt><trkpt lat="46.1427022" lon="13.5022647"><ele>317.0</ele><time>2026-05-02T11:53:14.14Z</time></trkpt><trkpt lat="46.1426312" lon="13.5021683"><ele>317.0</ele><time>2026-05-02T11:53:16.141Z</time></trkpt><trkpt lat="46.1426672" lon="13.5020861"><ele>317.0</ele><time>2026-05-02T11:53:20.141Z</time></trkpt><trkpt lat="46.1427746" lon="13.5021035"><ele>317.0</ele><time>2026-05-02T11:53:25.14Z</time></trkpt><trkpt lat="46.1428582" lon="13.5020295"><ele>317.0</ele><time>2026-05-02T11:53:27.14Z</time></trkpt><trkpt lat="46.1429364" lon="13.5019826"><ele>317.0</ele><time>2026-05-02T11:53:29.14Z</time></trkpt><trkpt lat="46.1430445" lon="13.5020002"><ele>317.0</ele><time>2026-05-02T11:53:31.141Z</time></trkpt><trkpt lat="46.1431076" lon="13.5020321"><ele>317.0</ele><time>2026-05-02T11:53:32.14Z</time></trkpt><trkpt lat="46.1431644" lon="13.5020715"><ele>317.0</ele><time>2026-05-02T11:53:33.14Z</time></trkpt><trkpt lat="46.1432118" lon="13.5021637"><ele>317.0</ele><time>2026-05-02T11:53:35.14Z</time></trkpt><trkpt lat="46.1432407" lon="13.5023198"><ele>317.0</ele><time>2026-05-02T11:53:37.141Z</time></trkpt><trkpt lat="46.1432635" lon="13.5024134"><ele>317.0</ele><time>2026-05-02T11:53:38.141Z</time></trkpt><trkpt lat="46.1432998" lon="13.5024925"><ele>318.6666666666667</ele><time>2026-05-02T11:53:39.141Z</time></trkpt><trkpt lat="46.1433348" lon="13.5025683"><ele>320.33333333333337</ele><time>2026-05-02T11:53:40.14Z</time></trkpt><trkpt lat="46.1433667" lon="13.5026475"><ele>322.0</ele><time>2026-05-02T11:53:41.14Z</time></trkpt><trkpt lat="46.1434317" lon="13.5028013"><ele>323.6666666666667</ele><time>2026-05-02T11:53:43.14Z</time></trkpt><trkpt lat="46.143468" lon="13.5028782"><ele>325.3333333333333</ele><time>2026-05-02T11:53:44.14Z</time></trkpt><trkpt lat="46.1435037" lon="13.5029604"><ele>327.0</ele><time>2026-05-02T11:53:45.14Z</time></trkpt><trkpt lat="46.1435424" lon="13.5030406"><ele>327.0</ele><time>2026-05-02T11:53:46.141Z</time></trkpt><trkpt lat="46.1435919" lon="13.5031186"><ele>327.0</ele><time>2026-05-02T11:53:47.14Z</time></trkpt><trkpt lat="46.1436407" lon="13.503197"><ele>327.0</ele><time>2026-05-02T11:53:48.141Z</time></trkpt><trkpt lat="46.1436908" lon="13.5032665"><ele>327.0</ele><time>2026-05-02T11:53:49.14Z</time></trkpt><trkpt lat="46.1437463" lon="13.5033303"><ele>327.0</ele><time>2026-05-02T11:53:50.14Z</time></trkpt><trkpt lat="46.1438086" lon="13.5033959"><ele>327.0</ele><time>2026-05-02T11:53:51.141Z</time></trkpt><trkpt lat="46.1438589" lon="13.5034558"><ele>327.0</ele><time>2026-05-02T11:53:52.14Z</time></trkpt><trkpt lat="46.1439249" lon="13.5034961"><ele>327.0</ele><time>2026-05-02T11:53:54.14Z</time></trkpt><trkpt lat="46.1439616" lon="13.503368"><ele>327.0</ele><time>2026-05-02T11:53:57.14Z</time></trkpt><trkpt lat="46.1439217" lon="13.5032415"><ele>327.0</ele><time>2026-05-02T11:53:59.14Z</time></trkpt><trkpt lat="46.1439124" lon="13.503146"><ele>327.0</ele><time>2026-05-02T11:54:01.14Z</time></trkpt><trkpt lat="46.1439215" lon="13.5030357"><ele>327.0</ele><time>2026-05-02T11:54:03.141Z</time></trkpt><trkpt lat="46.1439449" lon="13.5028719"><ele>328.1666666666667</ele><time>2026-05-02T11:54:05.14Z</time></trkpt><trkpt lat="46.1439774" lon="13.5027016"><ele>329.3333333333333</ele><time>2026-05-02T11:54:07.14Z</time></trkpt><trkpt lat="46.1440037" lon="13.5026071"><ele>330.5</ele><time>2026-05-02T11:54:08.141Z</time></trkpt><trkpt lat="46.1440401" lon="13.502511"><ele>331.66666666666663</ele><time>2026-05-02T11:54:09.141Z</time></trkpt><trkpt lat="46.1440725" lon="13.5024305"><ele>332.8333333333333</ele><time>2026-05-02T11:54:10.14Z</time></trkpt><trkpt lat="46.1441346" lon="13.5022933"><ele>334.0</ele><time>2026-05-02T11:54:12.14Z</time></trkpt><trkpt lat="46.1442209" lon="13.5021901"><ele>338.2</ele><time>2026-05-02T11:54:14.141Z</time></trkpt><trkpt lat="46.1443367" lon="13.5021372"><ele>342.4</ele><time>2026-05-02T11:54:16.141Z</time></trkpt><trkpt lat="46.1444023" lon="13.5021373"><ele>346.6</ele><time>2026-05-02T11:54:17.141Z</time></trkpt><trkpt lat="46.1445133" lon="13.5021568"><ele>350.8</ele><time>2026-05-02T11:54:19.14Z</time></trkpt><trkpt lat="46.1446089" lon="13.5022272"><ele>355.0</ele><time>2026-05-02T11:54:21.141Z</time></trkpt><trkpt lat="46.1446902" lon="13.5023502"><ele>355.0</ele><time>2026-05-02T11:54:23.141Z</time></trkpt><trkpt lat="46.1447888" lon="13.502416"><ele>355.0</ele><time>2026-05-02T11:54:25.141Z</time></trkpt><trkpt lat="46.1448662" lon="13.5024515"><ele>355.0</ele><time>2026-05-02T11:54:26.14Z</time></trkpt><trkpt lat="46.1449463" lon="13.502471"><ele>355.0</ele><time>2026-05-02T11:54:27.14Z</time></trkpt><trkpt lat="46.145009" lon="13.5024927"><ele>355.0</ele><time>2026-05-02T11:54:28.14Z</time></trkpt><trkpt lat="46.1450729" lon="13.5025054"><ele>355.0</ele><time>2026-05-02T11:54:29.141Z</time></trkpt><trkpt lat="46.1451449" lon="13.5024534"><ele>354.3333333333333</ele><time>2026-05-02T11:54:31.14Z</time></trkpt><trkpt lat="46.1452443" lon="13.5023502"><ele>353.66666666666663</ele><time>2026-05-02T11:54:33.14Z</time></trkpt><trkpt lat="46.1453051" lon="13.5022796"><ele>353.0</ele><time>2026-05-02T11:54:34.14Z</time></trkpt><trkpt lat="46.1453563" lon="13.5022169"><ele>352.3333333333333</ele><time>2026-05-02T11:54:35.14Z</time></trkpt><trkpt lat="46.1454027" lon="13.502154"><ele>351.6666666666667</ele><time>2026-05-02T11:54:36.141Z</time></trkpt><trkpt lat="46.1454934" lon="13.5020817"><ele>351.0</ele><time>2026-05-02T11:54:38.141Z</time></trkpt><trkpt lat="46.1455951" lon="13.5020364"><ele>351.0</ele><time>2026-05-02T11:54:40.141Z</time></trkpt><trkpt lat="46.1456717" lon="13.5020421"><ele>351.0</ele><time>2026-05-02T11:54:41.141Z</time></trkpt><trkpt lat="46.1457552" lon="13.5020429"><ele>351.0</ele><time>2026-05-02T11:54:42.14Z</time></trkpt><trkpt lat="46.1458698" lon="13.502045"><ele>351.0</ele><time>2026-05-02T11:54:44.141Z</time></trkpt><trkpt lat="46.1459808" lon="13.5020286"><ele>351.0</ele><time>2026-05-02T11:54:46.14Z</time></trkpt><trkpt lat="46.1460619" lon="13.5020496"><ele>357.4</ele><time>2026-05-02T11:54:48.139Z</time></trkpt><trkpt lat="46.1461642" lon="13.5021481"><ele>363.8</ele><time>2026-05-02T11:54:50.139Z</time></trkpt><trkpt lat="46.146221" lon="13.5022155"><ele>370.2</ele><time>2026-05-02T11:54:51.139Z</time></trkpt><trkpt lat="46.1463039" lon="13.5022972"><ele>376.59999999999997</ele><time>2026-05-02T11:54:53.139Z</time></trkpt><trkpt lat="46.1464235" lon="13.5023284"><ele>383.0</ele><time>2026-05-02T11:54:55.139Z</time></trkpt><trkpt lat="46.1465353" lon="13.5023129"><ele>384.1666666666667</ele><time>2026-05-02T11:54:57.139Z</time></trkpt><trkpt lat="46.1466273" lon="13.5022949"><ele>385.33333333333337</ele><time>2026-05-02T11:54:59.139Z</time></trkpt><trkpt lat="46.1467304" lon="13.5023332"><ele>386.5</ele><time>2026-05-02T11:55:01.139Z</time></trkpt><trkpt lat="46.1467902" lon="13.5023713"><ele>387.6666666666667</ele><time>2026-05-02T11:55:02.139Z</time></trkpt><trkpt lat="46.1468593" lon="13.5024214"><ele>388.8333333333333</ele><time>2026-05-02T11:55:03.14Z</time></trkpt><trkpt lat="46.1469243" lon="13.5024776"><ele>390.0</ele><time>2026-05-02T11:55:04.139Z</time></trkpt><trkpt lat="46.1470227" lon="13.5025646"><ele>390.0</ele><time>2026-05-02T11:55:06.139Z</time></trkpt><trkpt lat="46.1470828" lon="13.5026324"><ele>390.0</ele><time>2026-05-02T11:55:07.139Z</time></trkpt><trkpt lat="46.1471375" lon="13.5027079"><ele>390.0</ele><time>2026-05-02T11:55:08.139Z</time></trkpt><trkpt lat="46.1471839" lon="13.5027709"><ele>390.0</ele><time>2026-05-02T11:55:09.14Z</time></trkpt><trkpt lat="46.1472636" lon="13.5028345"><ele>390.0</ele><time>2026-05-02T11:55:11.139Z</time></trkpt><trkpt lat="46.1473641" lon="13.5028279"><ele>390.0</ele><time>2026-05-02T11:55:13.14Z</time></trkpt><trkpt lat="46.1474263" lon="13.5028132"><ele>390.6666666666667</ele><time>2026-05-02T11:55:14.14Z</time></trkpt><trkpt lat="46.1474949" lon="13.5028148"><ele>391.33333333333337</ele><time>2026-05-02T11:55:15.139Z</time></trkpt><trkpt lat="46.1475627" lon="13.5028278"><ele>392.0</ele><time>2026-05-02T11:55:16.139Z</time></trkpt><trkpt lat="46.1476679" lon="13.5028273"><ele>392.6666666666667</ele><time>2026-05-02T11:55:18.14Z</time></trkpt><trkpt lat="46.1477609" lon="13.5027436"><ele>393.33333333333337</ele><time>2026-05-02T11:55:20.139Z</time></trkpt><trkpt lat="46.1478192" lon="13.5026817"><ele>394.0</ele><time>2026-05-02T11:55:21.14Z</time></trkpt><trkpt lat="46.1478849" lon="13.502617"><ele>394.00000000000006</ele><time>2026-05-02T11:55:22.139Z</time></trkpt><trkpt lat="46.1479529" lon="13.5025638"><ele>394.0</ele><time>2026-05-02T11:55:23.14Z</time></trkpt><trkpt lat="46.1480252" lon="13.5025097"><ele>394.0</ele><time>2026-05-02T11:55:24.139Z</time></trkpt><trkpt lat="46.1480906" lon="13.5024577"><ele>394.0</ele><time>2026-05-02T11:55:25.14Z</time></trkpt><trkpt lat="46.1481544" lon="13.5024062"><ele>394.00000000000006</ele><time>2026-05-02T11:55:26.139Z</time></trkpt><trkpt lat="46.1482215" lon="13.5023615"><ele>394.0</ele><time>2026-05-02T11:55:27.139Z</time></trkpt><trkpt lat="46.1483318" lon="13.5023038"><ele>394.33333333333337</ele><time>2026-05-02T11:55:29.139Z</time></trkpt><trkpt lat="46.1484291" lon="13.5022456"><ele>394.6666666666667</ele><time>2026-05-02T11:55:31.14Z</time></trkpt><trkpt lat="46.1485177" lon="13.5021124"><ele>395.0</ele><time>2026-05-02T11:55:33.139Z</time></trkpt><trkpt lat="46.1485587" lon="13.5020322"><ele>395.33333333333337</ele><time>2026-05-02T11:55:34.14Z</time></trkpt><trkpt lat="46.14861" lon="13.5019647"><ele>395.6666666666667</ele><time>2026-05-02T11:55:35.139Z</time></trkpt><trkpt lat="46.1486677" lon="13.5019003"><ele>396.0</ele><time>2026-05-02T11:55:36.139Z</time></trkpt><trkpt lat="46.1487322" lon="13.5018373"><ele>396.0</ele><time>2026-05-02T11:55:37.139Z</time></trkpt><trkpt lat="46.1488002" lon="13.5017783"><ele>396.0</ele><time>2026-05-02T11:55:38.139Z</time></trkpt><trkpt lat="46.1488554" lon="13.5017292"><ele>396.0</ele><time>2026-05-02T11:55:39.14Z</time></trkpt><trkpt lat="46.1489346" lon="13.5016426"><ele>396.0</ele><time>2026-05-02T11:55:41.14Z</time></trkpt><trkpt lat="46.1490239" lon="13.5015523"><ele>396.0</ele><time>2026-05-02T11:55:43.14Z</time></trkpt><trkpt lat="46.1491212" lon="13.5014768"><ele>399.6</ele><time>2026-05-02T11:55:45.14Z</time></trkpt><trkpt lat="46.1492385" lon="13.5014528"><ele>403.20000000000005</ele><time>2026-05-02T11:55:47.14Z</time></trkpt><trkpt lat="46.1493022" lon="13.5014556"><ele>406.79999999999995</ele><time>2026-05-02T11:55:48.139Z</time></trkpt><trkpt lat="46.1494224" lon="13.5015132"><ele>410.4</ele><time>2026-05-02T11:55:50.139Z</time></trkpt><trkpt lat="46.1494886" lon="13.5015598"><ele>414.0</ele><time>2026-05-02T11:55:51.139Z</time></trkpt><trkpt lat="46.1495499" lon="13.5016117"><ele>414.0</ele><time>2026-05-02T11:55:52.139Z</time></trkpt><trkpt lat="46.1496413" lon="13.5016951"><ele>414.0</ele><time>2026-05-02T11:55:54.14Z</time></trkpt><trkpt lat="46.1497522" lon="13.5017275"><ele>414.0</ele><time>2026-05-02T11:55:56.14Z</time></trkpt><trkpt lat="46.1498257" lon="13.501727"><ele>414.0</ele><time>2026-05-02T11:55:57.139Z</time></trkpt><trkpt lat="46.1499051" lon="13.5017342"><ele>414.0</ele><time>2026-05-02T11:55:58.139Z</time></trkpt><trkpt lat="46.1499752" lon="13.5017463"><ele>414.0</ele><time>2026-05-02T11:55:59.139Z</time></trkpt><trkpt lat="46.1500915" lon="13.5018209"><ele>415.3333333333333</ele><time>2026-05-02T11:56:01.139Z</time></trkpt><trkpt lat="46.1502101" lon="13.5018783"><ele>416.66666666666663</ele><time>2026-05-02T11:56:03.139Z</time></trkpt><trkpt lat="46.150288" lon="13.501895"><ele>418.0</ele><time>2026-05-02T11:56:04.139Z</time></trkpt><trkpt lat="46.150366" lon="13.5019122"><ele>419.3333333333333</ele><time>2026-05-02T11:56:05.139Z</time></trkpt><trkpt lat="46.1504379" lon="13.5019368"><ele>420.66666666666663</ele><time>2026-05-02T11:56:06.139Z</time></trkpt><trkpt lat="46.1505145" lon="13.5019551"><ele>422.0</ele><time>2026-05-02T11:56:07.139Z</time></trkpt><trkpt lat="46.15058" lon="13.5019655"><ele>421.99999999999994</ele><time>2026-05-02T11:56:08.139Z</time></trkpt><trkpt lat="46.1506433" lon="13.5019754"><ele>422.0</ele><time>2026-05-02T11:56:09.14Z</time></trkpt><trkpt lat="46.1507409" lon="13.5019708"><ele>422.0</ele><time>2026-05-02T11:56:11.139Z</time></trkpt><trkpt lat="46.1508101" lon="13.5019131"><ele>422.0</ele><time>2026-05-02T11:56:13.14Z</time></trkpt><trkpt lat="46.1508331" lon="13.5017798"><ele>421.99999999999994</ele><time>2026-05-02T11:56:15.139Z</time></trkpt><trkpt lat="46.1508593" lon="13.5016517"><ele>422.0</ele><time>2026-05-02T11:56:17.14Z</time></trkpt><trkpt lat="46.1508921" lon="13.5015519"><ele>421.20000000000005</ele><time>2026-05-02T11:56:19.139Z</time></trkpt><trkpt lat="46.1509378" lon="13.5014192"><ele>420.4</ele><time>2026-05-02T11:56:21.139Z</time></trkpt><trkpt lat="46.1509832" lon="13.5013079"><ele>419.6</ele><time>2026-05-02T11:56:23.139Z</time></trkpt><trkpt lat="46.1510636" lon="13.5012448"><ele>418.79999999999995</ele><time>2026-05-02T11:56:25.139Z</time></trkpt><trkpt lat="46.1511505" lon="13.5012281"><ele>418.0</ele><time>2026-05-02T11:56:27.14Z</time></trkpt><trkpt lat="46.1512356" lon="13.5012551"><ele>418.0</ele><time>2026-05-02T11:56:29.139Z</time></trkpt><trkpt lat="46.1513337" lon="13.5013042"><ele>418.0</ele><time>2026-05-02T11:56:31.139Z</time></trkpt><trkpt lat="46.1514011" lon="13.5012354"><ele>418.0</ele><time>2026-05-02T11:56:33.139Z</time></trkpt><trkpt lat="46.1514488" lon="13.5011032"><ele>418.0</ele><time>2026-05-02T11:56:35.139Z</time></trkpt><trkpt lat="46.1514698" lon="13.5010163"><ele>418.0</ele><time>2026-05-02T11:56:36.14Z</time></trkpt><trkpt lat="46.1515129" lon="13.5008541"><ele>422.83333333333337</ele><time>2026-05-02T11:56:38.139Z</time></trkpt><trkpt lat="46.1515517" lon="13.5007297"><ele>427.6666666666667</ele><time>2026-05-02T11:56:40.139Z</time></trkpt><trkpt lat="46.1516235" lon="13.5006675"><ele>432.5</ele><time>2026-05-02T11:56:42.139Z</time></trkpt><trkpt lat="46.1516915" lon="13.5006666"><ele>437.33333333333337</ele><time>2026-05-02T11:56:44.139Z</time></trkpt><trkpt lat="46.1518038" lon="13.5007143"><ele>442.1666666666667</ele><time>2026-05-02T11:56:46.14Z</time></trkpt><trkpt lat="46.1518658" lon="13.5007305"><ele>447.0</ele><time>2026-05-02T11:56:47.139Z</time></trkpt><trkpt lat="46.1519357" lon="13.5007218"><ele>447.0</ele><time>2026-05-02T11:56:48.139Z</time></trkpt><trkpt lat="46.1520076" lon="13.5007108"><ele>447.00000000000006</ele><time>2026-05-02T11:56:49.139Z</time></trkpt><trkpt lat="46.1520825" lon="13.5007044"><ele>447.00000000000006</ele><time>2026-05-02T11:56:50.139Z</time></trkpt><trkpt lat="46.1521896" lon="13.5007016"><ele>447.0</ele><time>2026-05-02T11:56:52.14Z</time></trkpt><trkpt lat="46.1523137" lon="13.5007344"><ele>447.0</ele><time>2026-05-02T11:56:54.139Z</time></trkpt><trkpt lat="46.152439" lon="13.5007385"><ele>449.0</ele><time>2026-05-02T11:56:56.139Z</time></trkpt><trkpt lat="46.1525035" lon="13.5007399"><ele>451.0</ele><time>2026-05-02T11:56:57.139Z</time></trkpt><trkpt lat="46.1525664" lon="13.5007495"><ele>453.0</ele><time>2026-05-02T11:56:58.139Z</time></trkpt><trkpt lat="46.1526301" lon="13.5007558"><ele>455.0</ele><time>2026-05-02T11:56:59.14Z</time></trkpt><trkpt lat="46.152696" lon="13.5007739"><ele>457.00000000000006</ele><time>2026-05-02T11:57:00.14Z</time></trkpt><trkpt lat="46.1527553" lon="13.5008066"><ele>459.0</ele><time>2026-05-02T11:57:01.139Z</time></trkpt><trkpt lat="46.1528218" lon="13.5008556"><ele>461.0</ele><time>2026-05-02T11:57:02.139Z</time></trkpt><trkpt lat="46.1528814" lon="13.500908"><ele>461.0</ele><time>2026-05-02T11:57:03.139Z</time></trkpt><trkpt lat="46.1529342" lon="13.5009985"><ele>461.0</ele><time>2026-05-02T11:57:04.14Z</time></trkpt><trkpt lat="46.1529784" lon="13.5010823"><ele>461.0</ele><time>2026-05-02T11:57:05.14Z</time></trkpt><trkpt lat="46.1530745" lon="13.5012042"><ele>461.0</ele><time>2026-05-02T11:57:07.139Z</time></trkpt><trkpt lat="46.1531339" lon="13.5012504"><ele>461.0</ele><time>2026-05-02T11:57:08.139Z</time></trkpt><trkpt lat="46.1532519" lon="13.5013091"><ele>463.20000000000005</ele><time>2026-05-02T11:57:10.139Z</time></trkpt><trkpt lat="46.1533948" lon="13.5013045"><ele>465.40000000000003</ele><time>2026-05-02T11:57:12.139Z</time></trkpt><trkpt lat="46.1534764" lon="13.5012789"><ele>467.6</ele><time>2026-05-02T11:57:13.139Z</time></trkpt><trkpt lat="46.153552" lon="13.5012473"><ele>469.8</ele><time>2026-05-02T11:57:14.14Z</time></trkpt><trkpt lat="46.1536234" lon="13.5012194"><ele>472.0</ele><time>2026-05-02T11:57:15.14Z</time></trkpt><trkpt lat="46.1536924" lon="13.5011922"><ele>468.33333333333337</ele><time>2026-05-02T11:57:16.139Z</time></trkpt><trkpt lat="46.1537554" lon="13.5011849"><ele>464.6666666666667</ele><time>2026-05-02T11:57:17.139Z</time></trkpt><trkpt lat="46.1538417" lon="13.5011573"><ele>461.0</ele><time>2026-05-02T11:57:19.139Z</time></trkpt><trkpt lat="46.1539177" lon="13.5011283"><ele>457.33333333333337</ele><time>2026-05-02T11:57:20.139Z</time></trkpt><trkpt lat="46.1539966" lon="13.5010856"><ele>453.6666666666667</ele><time>2026-05-02T11:57:21.14Z</time></trkpt><trkpt lat="46.1540625" lon="13.50104"><ele>450.0</ele><time>2026-05-02T11:57:22.14Z</time></trkpt><trkpt lat="46.1541177" lon="13.5009921"><ele>449.4</ele><time>2026-05-02T11:57:23.14Z</time></trkpt><trkpt lat="46.1541747" lon="13.500951"><ele>448.8</ele><time>2026-05-02T11:57:24.139Z</time></trkpt><trkpt lat="46.1542796" lon="13.5008906"><ele>448.20000000000005</ele><time>2026-05-02T11:57:26.14Z</time></trkpt><trkpt lat="46.1543688" lon="13.5008308"><ele>447.6</ele><time>2026-05-02T11:57:28.14Z</time></trkpt><trkpt lat="46.1544682" lon="13.5007575"><ele>447.0</ele><time>2026-05-02T11:57:30.139Z</time></trkpt><trkpt lat="46.1545618" lon="13.5007469"><ele>447.0</ele><time>2026-05-02T11:57:32.139Z</time></trkpt><trkpt lat="46.1546706" lon="13.5008443"><ele>447.00000000000006</ele><time>2026-05-02T11:57:34.139Z</time></trkpt><trkpt lat="46.1547505" lon="13.5009626"><ele>447.00000000000006</ele><time>2026-05-02T11:57:36.14Z</time></trkpt><trkpt lat="46.1547834" lon="13.501141"><ele>447.0</ele><time>2026-05-02T11:57:38.14Z</time></trkpt><trkpt lat="46.1547973" lon="13.5012491"><ele>447.0</ele><time>2026-05-02T11:57:39.14Z</time></trkpt><trkpt lat="46.154817" lon="13.5013507"><ele>447.2857142857142</ele><time>2026-05-02T11:57:40.14Z</time></trkpt><trkpt lat="46.1548409" lon="13.5014552"><ele>447.57142857142856</ele><time>2026-05-02T11:57:41.139Z</time></trkpt><trkpt lat="46.1548598" lon="13.5015613"><ele>447.85714285714283</ele><time>2026-05-02T11:57:42.139Z</time></trkpt><trkpt lat="46.1548825" lon="13.5016684"><ele>448.1428571428571</ele><time>2026-05-02T11:57:43.14Z</time></trkpt><trkpt lat="46.1549069" lon="13.501759"><ele>448.4285714285714</ele><time>2026-05-02T11:57:44.14Z</time></trkpt><trkpt lat="46.1549446" lon="13.5018338"><ele>448.71428571428567</ele><time>2026-05-02T11:57:45.14Z</time></trkpt><trkpt lat="46.1549965" lon="13.5019022"><ele>449.0</ele><time>2026-05-02T11:57:46.14Z</time></trkpt><trkpt lat="46.1550573" lon="13.501937"><ele>449.0</ele><time>2026-05-02T11:57:47.139Z</time></trkpt><trkpt lat="46.1551656" lon="13.5019352"><ele>449.0</ele><time>2026-05-02T11:57:49.14Z</time></trkpt><trkpt lat="46.1552227" lon="13.5018781"><ele>449.0</ele><time>2026-05-02T11:57:50.14Z</time></trkpt><trkpt lat="46.1552876" lon="13.5018321"><ele>449.0</ele><time>2026-05-02T11:57:51.14Z</time></trkpt><trkpt lat="46.1554241" lon="13.5018003"><ele>449.0</ele><time>2026-05-02T11:57:53.14Z</time></trkpt><trkpt lat="46.1555061" lon="13.5017894"><ele>448.99999999999994</ele><time>2026-05-02T11:57:54.14Z</time></trkpt><trkpt lat="46.1555789" lon="13.5017512"><ele>449.0</ele><time>2026-05-02T11:57:55.14Z</time></trkpt><trkpt lat="46.1556418" lon="13.5016988"><ele>449.0</ele><time>2026-05-02T11:57:56.139Z</time></trkpt><trkpt lat="46.1557538" lon="13.5016638"><ele>449.0</ele><time>2026-05-02T11:57:58.139Z</time></trkpt><trkpt lat="46.1558172" lon="13.501683"><ele>448.99999999999994</ele><time>2026-05-02T11:57:59.139Z</time></trkpt><trkpt lat="46.1558953" lon="13.5017135"><ele>449.0</ele><time>2026-05-02T11:58:00.14Z</time></trkpt><trkpt lat="46.1559704" lon="13.501743"><ele>446.99999999999994</ele><time>2026-05-02T11:58:01.14Z</time></trkpt><trkpt lat="46.1560404" lon="13.5017822"><ele>445.0</ele><time>2026-05-02T11:58:02.139Z</time></trkpt><trkpt lat="46.1561158" lon="13.5018344"><ele>443.0</ele><time>2026-05-02T11:58:03.139Z</time></trkpt><trkpt lat="46.1562001" lon="13.5018873"><ele>441.0</ele><time>2026-05-02T11:58:04.14Z</time></trkpt><trkpt lat="46.1562748" lon="13.5019326"><ele>438.99999999999994</ele><time>2026-05-02T11:58:05.139Z</time></trkpt><trkpt lat="46.1563376" lon="13.5019684"><ele>437.0</ele><time>2026-05-02T11:58:06.139Z</time></trkpt><trkpt lat="46.1564398" lon="13.5020169"><ele>436.99999999999994</ele><time>2026-05-02T11:58:08.139Z</time></trkpt><trkpt lat="46.1565165" lon="13.5020302"><ele>437.0</ele><time>2026-05-02T11:58:10.139Z</time></trkpt><trkpt lat="46.156599" lon="13.5020337"><ele>437.0</ele><time>2026-05-02T11:58:16.139Z</time></trkpt><trkpt lat="46.1567093" lon="13.5019633"><ele>437.0</ele><time>2026-05-02T11:58:18.139Z</time></trkpt><trkpt lat="46.1567598" lon="13.5018914"><ele>436.99999999999994</ele><time>2026-05-02T11:58:19.139Z</time></trkpt><trkpt lat="46.1568235" lon="13.501814"><ele>437.0</ele><time>2026-05-02T11:58:20.14Z</time></trkpt><trkpt lat="46.1568999" lon="13.5017035"><ele>437.0</ele><time>2026-05-02T11:58:21.14Z</time></trkpt><trkpt lat="46.1569829" lon="13.5015976"><ele>437.00000000000006</ele><time>2026-05-02T11:58:22.14Z</time></trkpt><trkpt lat="46.157068" lon="13.5015085"><ele>437.00000000000006</ele><time>2026-05-02T11:58:23.14Z</time></trkpt><trkpt lat="46.1571589" lon="13.5014221"><ele>437.0</ele><time>2026-05-02T11:58:24.139Z</time></trkpt><trkpt lat="46.1572535" lon="13.5013528"><ele>437.0</ele><time>2026-05-02T11:58:25.139Z</time></trkpt><trkpt lat="46.1573466" lon="13.5012842"><ele>438.3333333333333</ele><time>2026-05-02T11:58:26.14Z</time></trkpt><trkpt lat="46.1574306" lon="13.5012083"><ele>439.66666666666663</ele><time>2026-05-02T11:58:27.139Z</time></trkpt><trkpt lat="46.157508" lon="13.5011284"><ele>441.0</ele><time>2026-05-02T11:58:28.139Z</time></trkpt><trkpt lat="46.1575863" lon="13.501065"><ele>442.33333333333337</ele><time>2026-05-02T11:58:29.14Z</time></trkpt><trkpt lat="46.1576627" lon="13.5010289"><ele>443.6666666666667</ele><time>2026-05-02T11:58:30.139Z</time></trkpt><trkpt lat="46.1577393" lon="13.5010404"><ele>445.0</ele><time>2026-05-02T11:58:31.139Z</time></trkpt><trkpt lat="46.1578059" lon="13.5011139"><ele>445.00000000000006</ele><time>2026-05-02T11:58:32.139Z</time></trkpt><trkpt lat="46.1578512" lon="13.5012178"><ele>445.0</ele><time>2026-05-02T11:58:33.14Z</time></trkpt><trkpt lat="46.1578821" lon="13.5013354"><ele>445.0</ele><time>2026-05-02T11:58:34.14Z</time></trkpt><trkpt lat="46.1579018" lon="13.5014307"><ele>445.0</ele><time>2026-05-02T11:58:35.139Z</time></trkpt><trkpt lat="46.1579516" lon="13.501537"><ele>445.00000000000006</ele><time>2026-05-02T11:58:37.138Z</time></trkpt><trkpt lat="46.1579727" lon="13.5016443"><ele>445.0</ele><time>2026-05-02T11:58:41.138Z</time></trkpt><trkpt lat="46.1580375" lon="13.501643"><ele>448.0</ele><time>2026-05-02T11:58:45.139Z</time></trkpt><trkpt lat="46.1581221" lon="13.5016068"><ele>451.0</ele><time>2026-05-02T11:58:47.138Z</time></trkpt><trkpt lat="46.158228" lon="13.5015337"><ele>454.0</ele><time>2026-05-02T11:58:49.139Z</time></trkpt><trkpt lat="46.1583381" lon="13.5014591"><ele>457.0</ele><time>2026-05-02T11:58:51.139Z</time></trkpt><trkpt lat="46.1584074" lon="13.5014703"><ele>460.0</ele><time>2026-05-02T11:58:52.138Z</time></trkpt><trkpt lat="46.1584859" lon="13.5015053"><ele>460.83333333333337</ele><time>2026-05-02T11:58:53.139Z</time></trkpt><trkpt lat="46.1585607" lon="13.5015493"><ele>461.6666666666667</ele><time>2026-05-02T11:58:54.139Z</time></trkpt><trkpt lat="46.1586266" lon="13.5015825"><ele>462.5</ele><time>2026-05-02T11:58:55.139Z</time></trkpt><trkpt lat="46.1586933" lon="13.5016034"><ele>463.33333333333337</ele><time>2026-05-02T11:58:56.139Z</time></trkpt><trkpt lat="46.1587731" lon="13.5016048"><ele>464.1666666666667</ele><time>2026-05-02T11:58:57.138Z</time></trkpt><trkpt lat="46.1588589" lon="13.5015945"><ele>465.0</ele><time>2026-05-02T11:58:58.138Z</time></trkpt><trkpt lat="46.158936" lon="13.5015757"><ele>465.0</ele><time>2026-05-02T11:58:59.138Z</time></trkpt><trkpt lat="46.1590023" lon="13.5015369"><ele>465.0</ele><time>2026-05-02T11:59:00.139Z</time></trkpt><trkpt lat="46.159071" lon="13.5014767"><ele>465.0</ele><time>2026-05-02T11:59:01.139Z</time></trkpt><trkpt lat="46.1591344" lon="13.5014115"><ele>465.0</ele><time>2026-05-02T11:59:02.138Z</time></trkpt><trkpt lat="46.1591928" lon="13.5013339"><ele>465.0</ele><time>2026-05-02T11:59:03.138Z</time></trkpt><trkpt lat="46.159253" lon="13.5012481"><ele>465.0</ele><time>2026-05-02T11:59:04.138Z</time></trkpt><trkpt lat="46.1593131" lon="13.5011605"><ele>465.3333333333333</ele><time>2026-05-02T11:59:05.139Z</time></trkpt><trkpt lat="46.1593802" lon="13.5010823"><ele>465.66666666666663</ele><time>2026-05-02T11:59:06.139Z</time></trkpt><trkpt lat="46.1594431" lon="13.5010049"><ele>466.0</ele><time>2026-05-02T11:59:07.139Z</time></trkpt><trkpt lat="46.1595102" lon="13.5009245"><ele>466.3333333333333</ele><time>2026-05-02T11:59:08.139Z</time></trkpt><trkpt lat="46.1595824" lon="13.5008462"><ele>466.66666666666663</ele><time>2026-05-02T11:59:09.139Z</time></trkpt><trkpt lat="46.1596485" lon="13.5007687"><ele>467.0</ele><time>2026-05-02T11:59:10.139Z</time></trkpt><trkpt lat="46.1597231" lon="13.5007027"><ele>466.99999999999994</ele><time>2026-05-02T11:59:11.138Z</time></trkpt><trkpt lat="46.1598038" lon="13.5006392"><ele>467.0</ele><time>2026-05-02T11:59:12.138Z</time></trkpt><trkpt lat="46.1598811" lon="13.5005938"><ele>467.0</ele><time>2026-05-02T11:59:13.138Z</time></trkpt><trkpt lat="46.1599628" lon="13.5005484"><ele>467.0</ele><time>2026-05-02T11:59:14.139Z</time></trkpt><trkpt lat="46.1600484" lon="13.5004941"><ele>466.99999999999994</ele><time>2026-05-02T11:59:15.138Z</time></trkpt><trkpt lat="46.1601295" lon="13.5004403"><ele>467.0</ele><time>2026-05-02T11:59:16.138Z</time></trkpt><trkpt lat="46.1602034" lon="13.5003863"><ele>467.99999999999994</ele><time>2026-05-02T11:59:17.138Z</time></trkpt><trkpt lat="46.160273" lon="13.5003332"><ele>469.0</ele><time>2026-05-02T11:59:18.138Z</time></trkpt><trkpt lat="46.160342" lon="13.5002828"><ele>470.0</ele><time>2026-05-02T11:59:19.138Z</time></trkpt><trkpt lat="46.160405" lon="13.5002363"><ele>471.0</ele><time>2026-05-02T11:59:20.138Z</time></trkpt><trkpt lat="46.1604588" lon="13.5001773"><ele>471.99999999999994</ele><time>2026-05-02T11:59:21.138Z</time></trkpt><trkpt lat="46.1605263" lon="13.5000899"><ele>473.0</ele><time>2026-05-02T11:59:22.139Z</time></trkpt><trkpt lat="46.1605874" lon="13.4999906"><ele>473.0</ele><time>2026-05-02T11:59:23.138Z</time></trkpt><trkpt lat="46.1606502" lon="13.4998908"><ele>472.99999999999994</ele><time>2026-05-02T11:59:24.138Z</time></trkpt><trkpt lat="46.1607147" lon="13.4997784"><ele>472.99999999999994</ele><time>2026-05-02T11:59:25.138Z</time></trkpt><trkpt lat="46.160777" lon="13.4996705"><ele>473.0</ele><time>2026-05-02T11:59:26.138Z</time></trkpt><trkpt lat="46.1608368" lon="13.4995648"><ele>473.0</ele><time>2026-05-02T11:59:27.139Z</time></trkpt><trkpt lat="46.160896" lon="13.4994638"><ele>474.8333333333333</ele><time>2026-05-02T11:59:28.139Z</time></trkpt><trkpt lat="46.1609524" lon="13.4993486"><ele>476.66666666666663</ele><time>2026-05-02T11:59:29.138Z</time></trkpt><trkpt lat="46.161013" lon="13.4992359"><ele>478.5</ele><time>2026-05-02T11:59:30.139Z</time></trkpt><trkpt lat="46.1610742" lon="13.4991321"><ele>480.33333333333337</ele><time>2026-05-02T11:59:31.139Z</time></trkpt><trkpt lat="46.1611263" lon="13.4990434"><ele>482.1666666666667</ele><time>2026-05-02T11:59:32.139Z</time></trkpt><trkpt lat="46.1611757" lon="13.4989647"><ele>484.0</ele><time>2026-05-02T11:59:33.139Z</time></trkpt><trkpt lat="46.1612295" lon="13.4988855"><ele>484.00000000000006</ele><time>2026-05-02T11:59:34.138Z</time></trkpt><trkpt lat="46.1612868" lon="13.498808"><ele>484.0</ele><time>2026-05-02T11:59:35.138Z</time></trkpt><trkpt lat="46.1613604" lon="13.4987244"><ele>484.0</ele><time>2026-05-02T11:59:36.138Z</time></trkpt><trkpt lat="46.1614321" lon="13.4986454"><ele>484.0</ele><time>2026-05-02T11:59:37.138Z</time></trkpt><trkpt lat="46.1615079" lon="13.4985798"><ele>484.00000000000006</ele><time>2026-05-02T11:59:38.138Z</time></trkpt><trkpt lat="46.1615792" lon="13.4985217"><ele>484.0</ele><time>2026-05-02T11:59:39.139Z</time></trkpt><trkpt lat="46.1616353" lon="13.498442"><ele>485.83333333333337</ele><time>2026-05-02T11:59:40.139Z</time></trkpt><trkpt lat="46.1616891" lon="13.4983658"><ele>487.6666666666667</ele><time>2026-05-02T11:59:41.139Z</time></trkpt><trkpt lat="46.1617411" lon="13.4983035"><ele>489.5</ele><time>2026-05-02T11:59:42.138Z</time></trkpt><trkpt lat="46.1618078" lon="13.4982511"><ele>491.33333333333337</ele><time>2026-05-02T11:59:43.139Z</time></trkpt><trkpt lat="46.1618873" lon="13.4982259"><ele>493.1666666666667</ele><time>2026-05-02T11:59:44.138Z</time></trkpt><trkpt lat="46.1619644" lon="13.4981911"><ele>495.0</ele><time>2026-05-02T11:59:45.138Z</time></trkpt><trkpt lat="46.1620389" lon="13.4981739"><ele>495.0</ele><time>2026-05-02T11:59:46.138Z</time></trkpt><trkpt lat="46.16214" lon="13.498182"><ele>495.0</ele><time>2026-05-02T11:59:48.138Z</time></trkpt><trkpt lat="46.1622488" lon="13.4981662"><ele>495.0</ele><time>2026-05-02T11:59:50.139Z</time></trkpt><trkpt lat="46.1623117" lon="13.4981472"><ele>495.0</ele><time>2026-05-02T11:59:51.139Z</time></trkpt><trkpt lat="46.1623786" lon="13.4981309"><ele>495.0</ele><time>2026-05-02T11:59:52.138Z</time></trkpt><trkpt lat="46.1624459" lon="13.4981154"><ele>495.0</ele><time>2026-05-02T11:59:53.139Z</time></trkpt><trkpt lat="46.1625085" lon="13.4981014"><ele>494.3333333333333</ele><time>2026-05-02T11:59:54.138Z</time></trkpt><trkpt lat="46.1626112" lon="13.4980201"><ele>493.66666666666663</ele><time>2026-05-02T11:59:56.138Z</time></trkpt><trkpt lat="46.1626663" lon="13.4979638"><ele>493.0</ele><time>2026-05-02T11:59:57.138Z</time></trkpt><trkpt lat="46.162724" lon="13.497897"><ele>492.3333333333333</ele><time>2026-05-02T11:59:58.139Z</time></trkpt><trkpt lat="46.1627881" lon="13.4978237"><ele>491.66666666666663</ele><time>2026-05-02T11:59:59.138Z</time></trkpt><trkpt lat="46.1628413" lon="13.4977574"><ele>491.0</ele><time>2026-05-02T12:00:00.139Z</time></trkpt><trkpt lat="46.1628956" lon="13.4977114"><ele>491.0</ele><time>2026-05-02T12:00:01.139Z</time></trkpt><trkpt lat="46.1629528" lon="13.497658"><ele>490.99999999999994</ele><time>2026-05-02T12:00:02.139Z</time></trkpt><trkpt lat="46.163015" lon="13.4976062"><ele>491.0</ele><time>2026-05-02T12:00:03.138Z</time></trkpt><trkpt lat="46.1630762" lon="13.4975607"><ele>491.0</ele><time>2026-05-02T12:00:04.138Z</time></trkpt><trkpt lat="46.163144" lon="13.4975102"><ele>490.99999999999994</ele><time>2026-05-02T12:00:05.138Z</time></trkpt><trkpt lat="46.1632077" lon="13.4974501"><ele>491.0</ele><time>2026-05-02T12:00:06.138Z</time></trkpt><trkpt lat="46.1632686" lon="13.497384"><ele>491.0</ele><time>2026-05-02T12:00:07.138Z</time></trkpt><trkpt lat="46.1633337" lon="13.4973208"><ele>492.71428571428567</ele><time>2026-05-02T12:00:08.138Z</time></trkpt><trkpt lat="46.1634087" lon="13.4972566"><ele>494.4285714285714</ele><time>2026-05-02T12:00:09.139Z</time></trkpt><trkpt lat="46.1634687" lon="13.4971934"><ele>496.1428571428571</ele><time>2026-05-02T12:00:10.138Z</time></trkpt><trkpt lat="46.1635177" lon="13.4971287"><ele>497.8571428571429</ele><time>2026-05-02T12:00:11.138Z</time></trkpt><trkpt lat="46.1635685" lon="13.4970681"><ele>499.5714285714286</ele><time>2026-05-02T12:00:12.138Z</time></trkpt><trkpt lat="46.1636261" lon="13.4969983"><ele>501.28571428571433</ele><time>2026-05-02T12:00:13.139Z</time></trkpt><trkpt lat="46.163679" lon="13.4969395"><ele>503.0</ele><time>2026-05-02T12:00:14.139Z</time></trkpt><trkpt lat="46.1637442" lon="13.4968525"><ele>502.99999999999994</ele><time>2026-05-02T12:00:16.138Z</time></trkpt><trkpt lat="46.1638072" lon="13.4969102"><ele>503.0</ele><time>2026-05-02T12:00:19.138Z</time></trkpt><trkpt lat="46.1637613" lon="13.4969877"><ele>503.0</ele><time>2026-05-02T12:00:21.139Z</time></trkpt><trkpt lat="46.1637026" lon="13.4970702"><ele>503.0</ele><time>2026-05-02T12:00:23.138Z</time></trkpt><trkpt lat="46.1636539" lon="13.4971736"><ele>502.99999999999994</ele><time>2026-05-02T12:00:25.138Z</time></trkpt><trkpt lat="46.1635999" lon="13.4973114"><ele>503.0</ele><time>2026-05-02T12:00:27.139Z</time></trkpt><trkpt lat="46.1635636" lon="13.4974021"><ele>506.99999999999994</ele><time>2026-05-02T12:00:28.138Z</time></trkpt><trkpt lat="46.1635249" lon="13.4975091"><ele>511.0</ele><time>2026-05-02T12:00:29.138Z</time></trkpt><trkpt lat="46.1634899" lon="13.4976155"><ele>515.0</ele><time>2026-05-02T12:00:30.139Z</time></trkpt><trkpt lat="46.1634598" lon="13.4977206"><ele>519.0</ele><time>2026-05-02T12:00:31.139Z</time></trkpt><trkpt lat="46.1634333" lon="13.4978057"><ele>523.0</ele><time>2026-05-02T12:00:32.138Z</time></trkpt><trkpt lat="46.1634041" lon="13.4978938"><ele>527.0</ele><time>2026-05-02T12:00:33.138Z</time></trkpt><trkpt lat="46.16335" lon="13.4980458"><ele>525.1428571428572</ele><time>2026-05-02T12:00:35.138Z</time></trkpt><trkpt lat="46.1633275" lon="13.4981307"><ele>523.2857142857143</ele><time>2026-05-02T12:00:36.139Z</time></trkpt><trkpt lat="46.163298" lon="13.4982228"><ele>521.4285714285714</ele><time>2026-05-02T12:00:37.138Z</time></trkpt><trkpt lat="46.1632693" lon="13.4983233"><ele>519.5714285714287</ele><time>2026-05-02T12:00:38.138Z</time></trkpt><trkpt lat="46.163238" lon="13.4984356"><ele>517.7142857142858</ele><time>2026-05-02T12:00:39.139Z</time></trkpt><trkpt lat="46.1631948" lon="13.4985417"><ele>515.8571428571429</ele><time>2026-05-02T12:00:40.138Z</time></trkpt><trkpt lat="46.1631575" lon="13.4986161"><ele>514.0</ele><time>2026-05-02T12:00:41.138Z</time></trkpt><trkpt lat="46.1631164" lon="13.4987462"><ele>518.5</ele><time>2026-05-02T12:00:43.138Z</time></trkpt><trkpt lat="46.1631837" lon="13.498774"><ele>523.0</ele><time>2026-05-02T12:00:46.138Z</time></trkpt><trkpt lat="46.1632509" lon="13.498674"><ele>527.5</ele><time>2026-05-02T12:00:48.138Z</time></trkpt><trkpt lat="46.1633274" lon="13.4985731"><ele>532.0</ele><time>2026-05-02T12:00:50.139Z</time></trkpt><trkpt lat="46.1633775" lon="13.4985142"><ele>536.5</ele><time>2026-05-02T12:00:51.138Z</time></trkpt><trkpt lat="46.1634344" lon="13.498449"><ele>541.0</ele><time>2026-05-02T12:00:52.138Z</time></trkpt><trkpt lat="46.1634986" lon="13.4983859"><ele>542.1666666666667</ele><time>2026-05-02T12:00:53.139Z</time></trkpt><trkpt lat="46.1635717" lon="13.4983155"><ele>543.3333333333334</ele><time>2026-05-02T12:00:54.138Z</time></trkpt><trkpt lat="46.1636369" lon="13.4982382"><ele>544.5</ele><time>2026-05-02T12:00:55.138Z</time></trkpt><trkpt lat="46.1636903" lon="13.4981696"><ele>545.6666666666666</ele><time>2026-05-02T12:00:56.138Z</time></trkpt><trkpt lat="46.1637436" lon="13.4981138"><ele>546.8333333333333</ele><time>2026-05-02T12:00:57.138Z</time></trkpt><trkpt lat="46.1638353" lon="13.4980386"><ele>548.0</ele><time>2026-05-02T12:00:59.139Z</time></trkpt><trkpt lat="46.1639442" lon="13.4979808"><ele>548.0</ele><time>2026-05-02T12:01:01.138Z</time></trkpt><trkpt lat="46.1640031" lon="13.4979375"><ele>548.0</ele><time>2026-05-02T12:01:02.139Z</time></trkpt><trkpt lat="46.1640727" lon="13.4978932"><ele>548.0</ele><time>2026-05-02T12:01:03.139Z</time></trkpt><trkpt lat="46.1641432" lon="13.4978495"><ele>548.0</ele><time>2026-05-02T12:01:04.138Z</time></trkpt><trkpt lat="46.1642103" lon="13.4978154"><ele>548.0</ele><time>2026-05-02T12:01:05.138Z</time></trkpt><trkpt lat="46.1643125" lon="13.4977959"><ele>548.0</ele><time>2026-05-02T12:01:07.138Z</time></trkpt><trkpt lat="46.1644137" lon="13.4978217"><ele>548.4</ele><time>2026-05-02T12:01:09.139Z</time></trkpt><trkpt lat="46.1644864" lon="13.4978921"><ele>548.8</ele><time>2026-05-02T12:01:11.139Z</time></trkpt><trkpt lat="46.1645274" lon="13.4979989"><ele>549.2</ele><time>2026-05-02T12:01:13.139Z</time></trkpt><trkpt lat="46.1645402" lon="13.4981823"><ele>549.6</ele><time>2026-05-02T12:01:15.138Z</time></trkpt><trkpt lat="46.1645204" lon="13.498369"><ele>550.0</ele><time>2026-05-02T12:01:17.139Z</time></trkpt><trkpt lat="46.1644979" lon="13.4984857"><ele>554.0</ele><time>2026-05-02T12:01:18.139Z</time></trkpt><trkpt lat="46.16448" lon="13.4985951"><ele>558.0</ele><time>2026-05-02T12:01:19.139Z</time></trkpt><trkpt lat="46.1644563" lon="13.4986878"><ele>562.0</ele><time>2026-05-02T12:01:20.139Z</time></trkpt><trkpt lat="46.1643919" lon="13.498824"><ele>566.0</ele><time>2026-05-02T12:01:22.138Z</time></trkpt><trkpt lat="46.1642918" lon="13.4989154"><ele>570.0</ele><time>2026-05-02T12:01:24.139Z</time></trkpt><trkpt lat="46.1642161" lon="13.4989742"><ele>570.3333333333334</ele><time>2026-05-02T12:01:25.138Z</time></trkpt><trkpt lat="46.1641467" lon="13.4990385"><ele>570.6666666666666</ele><time>2026-05-02T12:01:26.138Z</time></trkpt><trkpt lat="46.1640858" lon="13.4990891"><ele>571.0</ele><time>2026-05-02T12:01:27.139Z</time></trkpt><trkpt lat="46.1640277" lon="13.4991424"><ele>571.3333333333333</ele><time>2026-05-02T12:01:28.138Z</time></trkpt><trkpt lat="46.1639509" lon="13.4992589"><ele>571.6666666666666</ele><time>2026-05-02T12:01:30.139Z</time></trkpt><trkpt lat="46.1639199" lon="13.4993688"><ele>572.0</ele><time>2026-05-02T12:01:32.138Z</time></trkpt><trkpt lat="46.1639055" lon="13.4995032"><ele>575.25</ele><time>2026-05-02T12:01:34.138Z</time></trkpt><trkpt lat="46.1638882" lon="13.4996771"><ele>578.5</ele><time>2026-05-02T12:01:36.139Z</time></trkpt><trkpt lat="46.163868" lon="13.4998451"><ele>581.75</ele><time>2026-05-02T12:01:38.139Z</time></trkpt><trkpt lat="46.1638154" lon="13.4999982"><ele>585.0</ele><time>2026-05-02T12:01:40.138Z</time></trkpt><trkpt lat="46.1637516" lon="13.5001511"><ele>585.0</ele><time>2026-05-02T12:01:42.138Z</time></trkpt><trkpt lat="46.1636852" lon="13.500298"><ele>585.0</ele><time>2026-05-02T12:01:44.139Z</time></trkpt><trkpt lat="46.1636333" lon="13.5004545"><ele>585.0</ele><time>2026-05-02T12:01:46.139Z</time></trkpt><trkpt lat="46.1636021" lon="13.5005393"><ele>585.0</ele><time>2026-05-02T12:01:47.139Z</time></trkpt><trkpt lat="46.1635724" lon="13.5006285"><ele>585.0</ele><time>2026-05-02T12:01:48.138Z</time></trkpt><trkpt lat="46.1635456" lon="13.5007239"><ele>585.0</ele><time>2026-05-02T12:01:49.138Z</time></trkpt><trkpt lat="46.1635197" lon="13.5008215"><ele>585.0</ele><time>2026-05-02T12:01:50.138Z</time></trkpt><trkpt lat="46.1634916" lon="13.500925"><ele>585.0</ele><time>2026-05-02T12:01:51.138Z</time></trkpt><trkpt lat="46.1634658" lon="13.5010259"><ele>585.0</ele><time>2026-05-02T12:01:52.138Z</time></trkpt><trkpt lat="46.1634424" lon="13.5011292"><ele>585.0</ele><time>2026-05-02T12:01:53.139Z</time></trkpt><trkpt lat="46.1634256" lon="13.5012226"><ele>585.0</ele><time>2026-05-02T12:01:54.138Z</time></trkpt><trkpt lat="46.1634174" lon="13.5013204"><ele>585.0</ele><time>2026-05-02T12:01:55.138Z</time></trkpt><trkpt lat="46.1634198" lon="13.5014178"><ele>585.0</ele><time>2026-05-02T12:01:56.139Z</time></trkpt><trkpt lat="46.16346" lon="13.5015809"><ele>585.1666666666666</ele><time>2026-05-02T12:01:58.139Z</time></trkpt><trkpt lat="46.1634812" lon="13.5016674"><ele>585.3333333333334</ele><time>2026-05-02T12:01:59.138Z</time></trkpt><trkpt lat="46.16351" lon="13.5017621"><ele>585.5</ele><time>2026-05-02T12:02:00.138Z</time></trkpt><trkpt lat="46.1635317" lon="13.5019413"><ele>585.6666666666667</ele><time>2026-05-02T12:02:02.138Z</time></trkpt><trkpt lat="46.1635268" lon="13.5020522"><ele>585.8333333333334</ele><time>2026-05-02T12:02:03.138Z</time></trkpt><trkpt lat="46.163508" lon="13.5021736"><ele>586.0</ele><time>2026-05-02T12:02:04.139Z</time></trkpt><trkpt lat="46.1634907" lon="13.5022979"><ele>585.5</ele><time>2026-05-02T12:02:05.138Z</time></trkpt><trkpt lat="46.1634734" lon="13.5024305"><ele>585.0</ele><time>2026-05-02T12:02:06.139Z</time></trkpt><trkpt lat="46.1634503" lon="13.5025446"><ele>584.5</ele><time>2026-05-02T12:02:07.138Z</time></trkpt><trkpt lat="46.1634292" lon="13.502663"><ele>584.0</ele><time>2026-05-02T12:02:08.138Z</time></trkpt><trkpt lat="46.1634043" lon="13.5027825"><ele>583.5</ele><time>2026-05-02T12:02:09.138Z</time></trkpt><trkpt lat="46.1633994" lon="13.5029104"><ele>583.0</ele><time>2026-05-02T12:02:10.138Z</time></trkpt><trkpt lat="46.1633974" lon="13.5030334"><ele>583.0</ele><time>2026-05-02T12:02:11.138Z</time></trkpt><trkpt lat="46.1633901" lon="13.5031559"><ele>583.0</ele><time>2026-05-02T12:02:12.138Z</time></trkpt><trkpt lat="46.1633842" lon="13.5032822"><ele>583.0</ele><time>2026-05-02T12:02:13.138Z</time></trkpt><trkpt lat="46.1633911" lon="13.5034031"><ele>583.0</ele><time>2026-05-02T12:02:14.139Z</time></trkpt><trkpt lat="46.1634062" lon="13.5035135"><ele>583.0</ele><time>2026-05-02T12:02:15.138Z</time></trkpt><trkpt lat="46.1634219" lon="13.5036286"><ele>583.0</ele><time>2026-05-02T12:02:16.138Z</time></trkpt><trkpt lat="46.1634399" lon="13.5037506"><ele>583.0</ele><time>2026-05-02T12:02:17.138Z</time></trkpt><trkpt lat="46.1634442" lon="13.503875"><ele>583.0</ele><time>2026-05-02T12:02:18.138Z</time></trkpt><trkpt lat="46.1634381" lon="13.5040176"><ele>583.0</ele><time>2026-05-02T12:02:19.139Z</time></trkpt><trkpt lat="46.1634398" lon="13.5041729"><ele>583.0</ele><time>2026-05-02T12:02:20.138Z</time></trkpt><trkpt lat="46.1634424" lon="13.5043255"><ele>583.0</ele><time>2026-05-02T12:02:21.138Z</time></trkpt><trkpt lat="46.1634472" lon="13.5044693"><ele>582.6</ele><time>2026-05-02T12:02:22.138Z</time></trkpt><trkpt lat="46.1634366" lon="13.504603"><ele>582.1999999999999</ele><time>2026-05-02T12:02:23.138Z</time></trkpt><trkpt lat="46.1634149" lon="13.5047494"><ele>581.8</ele><time>2026-05-02T12:02:24.138Z</time></trkpt><trkpt lat="46.163382" lon="13.504911"><ele>581.4</ele><time>2026-05-02T12:02:25.138Z</time></trkpt><trkpt lat="46.1633602" lon="13.5050618"><ele>581.0</ele><time>2026-05-02T12:02:26.139Z</time></trkpt><trkpt lat="46.1633469" lon="13.5052035"><ele>581.0</ele><time>2026-05-02T12:02:27.138Z</time></trkpt><trkpt lat="46.1633404" lon="13.5053298"><ele>581.0</ele><time>2026-05-02T12:02:28.138Z</time></trkpt><trkpt lat="46.1633393" lon="13.5054578"><ele>581.0</ele><time>2026-05-02T12:02:29.138Z</time></trkpt><trkpt lat="46.1633465" lon="13.5055904"><ele>581.0</ele><time>2026-05-02T12:02:30.138Z</time></trkpt><trkpt lat="46.163348" lon="13.5057203"><ele>581.0</ele><time>2026-05-02T12:02:31.138Z</time></trkpt><trkpt lat="46.1633551" lon="13.5058421"><ele>581.0</ele><time>2026-05-02T12:02:32.139Z</time></trkpt><trkpt lat="46.1633938" lon="13.5059635"><ele>581.6</ele><time>2026-05-02T12:02:33.138Z</time></trkpt><trkpt lat="46.163437" lon="13.5060794"><ele>582.2</ele><time>2026-05-02T12:02:34.138Z</time></trkpt><trkpt lat="46.1634646" lon="13.5061929"><ele>582.8</ele><time>2026-05-02T12:02:35.137Z</time></trkpt><trkpt lat="46.1634828" lon="13.5063337"><ele>583.4</ele><time>2026-05-02T12:02:36.138Z</time></trkpt><trkpt lat="46.1634978" lon="13.5064809"><ele>584.0</ele><time>2026-05-02T12:02:37.137Z</time></trkpt><trkpt lat="46.1635135" lon="13.5066149"><ele>585.3333333333333</ele><time>2026-05-02T12:02:38.138Z</time></trkpt><trkpt lat="46.163535" lon="13.5067362"><ele>586.6666666666666</ele><time>2026-05-02T12:02:39.137Z</time></trkpt><trkpt lat="46.1635579" lon="13.5068505"><ele>588.0</ele><time>2026-05-02T12:02:40.138Z</time></trkpt><trkpt lat="46.1635725" lon="13.5069656"><ele>589.3333333333334</ele><time>2026-05-02T12:02:41.137Z</time></trkpt><trkpt lat="46.163587" lon="13.5070794"><ele>590.6666666666667</ele><time>2026-05-02T12:02:42.137Z</time></trkpt><trkpt lat="46.1635961" lon="13.507177"><ele>592.0</ele><time>2026-05-02T12:02:43.137Z</time></trkpt><trkpt lat="46.1636496" lon="13.5073238"><ele>589.8333333333334</ele><time>2026-05-02T12:02:45.137Z</time></trkpt><trkpt lat="46.163712" lon="13.5074318"><ele>587.6666666666667</ele><time>2026-05-02T12:02:47.138Z</time></trkpt><trkpt lat="46.1637673" lon="13.5074811"><ele>585.5</ele><time>2026-05-02T12:02:48.137Z</time></trkpt><trkpt lat="46.1638247" lon="13.5075328"><ele>583.3333333333334</ele><time>2026-05-02T12:02:49.137Z</time></trkpt><trkpt lat="46.1638816" lon="13.5075774"><ele>581.1666666666666</ele><time>2026-05-02T12:02:50.137Z</time></trkpt><trkpt lat="46.1639479" lon="13.5076176"><ele>579.0</ele><time>2026-05-02T12:02:51.137Z</time></trkpt><trkpt lat="46.1640333" lon="13.5076682"><ele>579.0</ele><time>2026-05-02T12:02:52.137Z</time></trkpt><trkpt lat="46.1641161" lon="13.5077129"><ele>579.0</ele><time>2026-05-02T12:02:53.137Z</time></trkpt><trkpt lat="46.1641953" lon="13.5077497"><ele>579.0</ele><time>2026-05-02T12:02:54.137Z</time></trkpt><trkpt lat="46.1642719" lon="13.5077808"><ele>579.0</ele><time>2026-05-02T12:02:55.137Z</time></trkpt><trkpt lat="46.164386" lon="13.5078201"><ele>579.0</ele><time>2026-05-02T12:02:57.138Z</time></trkpt><trkpt lat="46.1644493" lon="13.5078307"><ele>579.0</ele><time>2026-05-02T12:02:58.137Z</time></trkpt><trkpt lat="46.164521" lon="13.5078456"><ele>579.0</ele><time>2026-05-02T12:02:59.138Z</time></trkpt><trkpt lat="46.1645846" lon="13.507868"><ele>579.0</ele><time>2026-05-02T12:03:00.137Z</time></trkpt><trkpt lat="46.1646962" lon="13.5079435"><ele>579.0</ele><time>2026-05-02T12:03:02.137Z</time></trkpt><trkpt lat="46.1647629" lon="13.5079839"><ele>579.0</ele><time>2026-05-02T12:03:03.137Z</time></trkpt><trkpt lat="46.1648693" lon="13.5080268"><ele>579.0</ele><time>2026-05-02T12:03:05.137Z</time></trkpt><trkpt lat="46.1649765" lon="13.5080141"><ele>579.4</ele><time>2026-05-02T12:03:07.137Z</time></trkpt><trkpt lat="46.1651072" lon="13.5079785"><ele>579.8</ele><time>2026-05-02T12:03:09.137Z</time></trkpt><trkpt lat="46.1651862" lon="13.5079395"><ele>580.2</ele><time>2026-05-02T12:03:10.138Z</time></trkpt><trkpt lat="46.1652598" lon="13.5078982"><ele>580.6</ele><time>2026-05-02T12:03:11.138Z</time></trkpt><trkpt lat="46.1653498" lon="13.507864"><ele>581.0</ele><time>2026-05-02T12:03:13.137Z</time></trkpt><trkpt lat="46.1654061" lon="13.5079193"><ele>590.5</ele><time>2026-05-02T12:03:15.137Z</time></trkpt><trkpt lat="46.1654527" lon="13.5080384"><ele>600.0</ele><time>2026-05-02T12:03:17.138Z</time></trkpt><trkpt lat="46.1654641" lon="13.5082529"><ele>609.5</ele><time>2026-05-02T12:03:19.137Z</time></trkpt><trkpt lat="46.1654683" lon="13.5084074"><ele>619.0</ele><time>2026-05-02T12:03:20.138Z</time></trkpt><trkpt lat="46.1654733" lon="13.5085606"><ele>619.0</ele><time>2026-05-02T12:03:21.138Z</time></trkpt><trkpt lat="46.1654735" lon="13.5086887"><ele>619.0</ele><time>2026-05-02T12:03:22.137Z</time></trkpt><trkpt lat="46.1654779" lon="13.5087901"><ele>619.0</ele><time>2026-05-02T12:03:23.137Z</time></trkpt><trkpt lat="46.1655089" lon="13.5089153"><ele>619.0</ele><time>2026-05-02T12:03:25.137Z</time></trkpt><trkpt lat="46.1655798" lon="13.5089829"><ele>619.0</ele><time>2026-05-02T12:03:27.137Z</time></trkpt><trkpt lat="46.1656563" lon="13.5089809"><ele>619.0</ele><time>2026-05-02T12:03:29.137Z</time></trkpt><trkpt lat="46.165712" lon="13.508935"><ele>621.8</ele><time>2026-05-02T12:03:31.137Z</time></trkpt><trkpt lat="46.1657862" lon="13.5088847"><ele>624.5999999999999</ele><time>2026-05-02T12:03:35.137Z</time></trkpt><trkpt lat="46.1658631" lon="13.508824"><ele>627.4</ele><time>2026-05-02T12:03:37.138Z</time></trkpt><trkpt lat="46.1659391" lon="13.5087804"><ele>630.1999999999999</ele><time>2026-05-02T12:03:39.137Z</time></trkpt><trkpt lat="46.1660255" lon="13.5087526"><ele>633.0</ele><time>2026-05-02T12:03:41.137Z</time></trkpt><trkpt lat="46.1661421" lon="13.5087344"><ele>626.0</ele><time>2026-05-02T12:03:43.138Z</time></trkpt><trkpt lat="46.1662616" lon="13.5087212"><ele>619.0</ele><time>2026-05-02T12:03:45.137Z</time></trkpt><trkpt lat="46.1663857" lon="13.5086977"><ele>612.0</ele><time>2026-05-02T12:03:47.137Z</time></trkpt><trkpt lat="46.1664823" lon="13.5086611"><ele>605.0</ele><time>2026-05-02T12:03:49.137Z</time></trkpt><trkpt lat="46.1665793" lon="13.5086134"><ele>598.0</ele><time>2026-05-02T12:03:51.138Z</time></trkpt><trkpt lat="46.1666914" lon="13.5085704"><ele>601.0</ele><time>2026-05-02T12:03:53.137Z</time></trkpt><trkpt lat="46.166797" lon="13.5085423"><ele>604.0</ele><time>2026-05-02T12:03:55.137Z</time></trkpt><trkpt lat="46.1668722" lon="13.5085343"><ele>607.0</ele><time>2026-05-02T12:03:57.137Z</time></trkpt><trkpt lat="46.1669729" lon="13.5086372"><ele>610.0</ele><time>2026-05-02T12:03:59.137Z</time></trkpt><trkpt lat="46.1670222" lon="13.5087035"><ele>613.0</ele><time>2026-05-02T12:04:00.137Z</time></trkpt><trkpt lat="46.1670666" lon="13.5087803"><ele>616.0</ele><time>2026-05-02T12:04:01.138Z</time></trkpt><trkpt lat="46.1671111" lon="13.5088605"><ele>616.0</ele><time>2026-05-02T12:04:02.138Z</time></trkpt><trkpt lat="46.1671446" lon="13.5089392"><ele>616.0</ele><time>2026-05-02T12:04:03.138Z</time></trkpt><trkpt lat="46.167214" lon="13.5090187"><ele>616.0</ele><time>2026-05-02T12:04:05.138Z</time></trkpt><trkpt lat="46.16732" lon="13.508994"><ele>616.0</ele><time>2026-05-02T12:04:07.137Z</time></trkpt><trkpt lat="46.1673801" lon="13.5089634"><ele>616.0</ele><time>2026-05-02T12:04:08.137Z</time></trkpt><trkpt lat="46.1674412" lon="13.5089349"><ele>616.0</ele><time>2026-05-02T12:04:09.137Z</time></trkpt><trkpt lat="46.1675577" lon="13.5089118"><ele>613.2</ele><time>2026-05-02T12:04:11.138Z</time></trkpt><trkpt lat="46.1676645" lon="13.5089065"><ele>610.4000000000001</ele><time>2026-05-02T12:04:13.138Z</time></trkpt><trkpt lat="46.1677992" lon="13.5088548"><ele>607.6</ele><time>2026-05-02T12:04:15.137Z</time></trkpt><trkpt lat="46.1678706" lon="13.5088294"><ele>604.8000000000001</ele><time>2026-05-02T12:04:16.137Z</time></trkpt><trkpt lat="46.1679477" lon="13.5088004"><ele>602.0</ele><time>2026-05-02T12:04:17.137Z</time></trkpt><trkpt lat="46.1680315" lon="13.5087609"><ele>598.3333333333333</ele><time>2026-05-02T12:04:18.137Z</time></trkpt><trkpt lat="46.1681107" lon="13.5087258"><ele>594.6666666666666</ele><time>2026-05-02T12:04:19.137Z</time></trkpt><trkpt lat="46.1681841" lon="13.5086746"><ele>591.0</ele><time>2026-05-02T12:04:20.138Z</time></trkpt><trkpt lat="46.1682586" lon="13.5085964"><ele>587.3333333333334</ele><time>2026-05-02T12:04:21.138Z</time></trkpt><trkpt lat="46.1683322" lon="13.5085016"><ele>583.6666666666667</ele><time>2026-05-02T12:04:22.137Z</time></trkpt><trkpt lat="46.1683953" lon="13.5084126"><ele>580.0</ele><time>2026-05-02T12:04:23.137Z</time></trkpt><trkpt lat="46.1684495" lon="13.5083296"><ele>580.0</ele><time>2026-05-02T12:04:24.137Z</time></trkpt><trkpt lat="46.1685002" lon="13.5082469"><ele>580.0</ele><time>2026-05-02T12:04:25.137Z</time></trkpt><trkpt lat="46.1685502" lon="13.5081591"><ele>580.0</ele><time>2026-05-02T12:04:26.138Z</time></trkpt><trkpt lat="46.1686034" lon="13.5080774"><ele>580.0</ele><time>2026-05-02T12:04:27.137Z</time></trkpt><trkpt lat="46.1686698" lon="13.5079959"><ele>580.0</ele><time>2026-05-02T12:04:28.137Z</time></trkpt><trkpt lat="46.1687407" lon="13.5079263"><ele>580.0</ele><time>2026-05-02T12:04:29.137Z</time></trkpt><trkpt lat="46.1688038" lon="13.5078624"><ele>576.8333333333334</ele><time>2026-05-02T12:04:30.137Z</time></trkpt><trkpt lat="46.1688649" lon="13.507808"><ele>573.6666666666667</ele><time>2026-05-02T12:04:31.138Z</time></trkpt><trkpt lat="46.1689287" lon="13.5077696"><ele>570.5</ele><time>2026-05-02T12:04:32.138Z</time></trkpt><trkpt lat="46.1689958" lon="13.5077352"><ele>567.3333333333334</ele><time>2026-05-02T12:04:33.137Z</time></trkpt><trkpt lat="46.1690582" lon="13.5077121"><ele>564.1666666666666</ele><time>2026-05-02T12:04:34.138Z</time></trkpt><trkpt lat="46.1691711" lon="13.5076931"><ele>561.0</ele><time>2026-05-02T12:04:36.137Z</time></trkpt><trkpt lat="46.1692412" lon="13.5077516"><ele>561.0</ele><time>2026-05-02T12:04:38.137Z</time></trkpt><trkpt lat="46.16927" lon="13.5078982"><ele>561.0</ele><time>2026-05-02T12:04:40.138Z</time></trkpt><trkpt lat="46.1692553" lon="13.5080884"><ele>561.0</ele><time>2026-05-02T12:04:42.138Z</time></trkpt><trkpt lat="46.1692466" lon="13.5081962"><ele>561.0</ele><time>2026-05-02T12:04:43.137Z</time></trkpt><trkpt lat="46.1692376" lon="13.508323"><ele>561.0</ele><time>2026-05-02T12:04:44.138Z</time></trkpt><trkpt lat="46.169236" lon="13.5084307"><ele>564.3333333333334</ele><time>2026-05-02T12:04:45.138Z</time></trkpt><trkpt lat="46.1692514" lon="13.508538"><ele>567.6666666666666</ele><time>2026-05-02T12:04:46.137Z</time></trkpt><trkpt lat="46.1692738" lon="13.5086369"><ele>571.0</ele><time>2026-05-02T12:04:47.137Z</time></trkpt><trkpt lat="46.1692923" lon="13.5087243"><ele>574.3333333333333</ele><time>2026-05-02T12:04:48.137Z</time></trkpt><trkpt lat="46.1693428" lon="13.5088439"><ele>577.6666666666666</ele><time>2026-05-02T12:04:50.137Z</time></trkpt><trkpt lat="46.1694059" lon="13.5089227"><ele>581.0</ele><time>2026-05-02T12:04:52.138Z</time></trkpt><trkpt lat="46.1694596" lon="13.5089887"><ele>579.1666666666666</ele><time>2026-05-02T12:04:53.138Z</time></trkpt><trkpt lat="46.1695298" lon="13.5090618"><ele>577.3333333333333</ele><time>2026-05-02T12:04:54.137Z</time></trkpt><trkpt lat="46.1696036" lon="13.5090905"><ele>575.5</ele><time>2026-05-02T12:04:55.137Z</time></trkpt><trkpt lat="46.1696831" lon="13.5091187"><ele>573.6666666666666</ele><time>2026-05-02T12:04:56.137Z</time></trkpt><trkpt lat="46.1697564" lon="13.509154"><ele>571.8333333333334</ele><time>2026-05-02T12:04:57.138Z</time></trkpt><trkpt lat="46.1698244" lon="13.5092003"><ele>570.0</ele><time>2026-05-02T12:04:58.137Z</time></trkpt><trkpt lat="46.1698803" lon="13.5092537"><ele>570.0</ele><time>2026-05-02T12:04:59.138Z</time></trkpt><trkpt lat="46.1699361" lon="13.5092972"><ele>570.0</ele><time>2026-05-02T12:05:00.137Z</time></trkpt><trkpt lat="46.1700414" lon="13.5093548"><ele>570.0</ele><time>2026-05-02T12:05:02.137Z</time></trkpt><trkpt lat="46.1701039" lon="13.5093682"><ele>570.0</ele><time>2026-05-02T12:05:03.137Z</time></trkpt><trkpt lat="46.1701835" lon="13.5093834"><ele>570.0</ele><time>2026-05-02T12:05:04.137Z</time></trkpt><trkpt lat="46.17027" lon="13.5094063"><ele>570.0</ele><time>2026-05-02T12:05:05.138Z</time></trkpt><trkpt lat="46.170337" lon="13.5094213"><ele>570.0</ele><time>2026-05-02T12:05:06.138Z</time></trkpt><trkpt lat="46.1703995" lon="13.5094633"><ele>570.0</ele><time>2026-05-02T12:05:07.137Z</time></trkpt><trkpt lat="46.1704808" lon="13.5095648"><ele>570.0</ele><time>2026-05-02T12:05:09.137Z</time></trkpt><trkpt lat="46.1705254" lon="13.5096381"><ele>570.0</ele><time>2026-05-02T12:05:10.137Z</time></trkpt><trkpt lat="46.1705776" lon="13.5097254"><ele>570.0</ele><time>2026-05-02T12:05:11.138Z</time></trkpt><trkpt lat="46.1706183" lon="13.5098002"><ele>570.0</ele><time>2026-05-02T12:05:12.137Z</time></trkpt><trkpt lat="46.1706825" lon="13.5098742"><ele>570.8</ele><time>2026-05-02T12:05:14.137Z</time></trkpt><trkpt lat="46.170765" lon="13.5099384"><ele>571.6</ele><time>2026-05-02T12:05:17.138Z</time></trkpt><trkpt lat="46.1708467" lon="13.509908"><ele>572.4</ele><time>2026-05-02T12:05:19.137Z</time></trkpt><trkpt lat="46.1709858" lon="13.50995"><ele>573.2</ele><time>2026-05-02T12:05:21.138Z</time></trkpt><trkpt lat="46.1710836" lon="13.5100087"><ele>574.0</ele><time>2026-05-02T12:05:22.138Z</time></trkpt><trkpt lat="46.1711781" lon="13.5100844"><ele>574.0</ele><time>2026-05-02T12:05:23.137Z</time></trkpt><trkpt lat="46.1712617" lon="13.5101665"><ele>574.0</ele><time>2026-05-02T12:05:24.137Z</time></trkpt><trkpt lat="46.1713366" lon="13.5102397"><ele>574.0</ele><time>2026-05-02T12:05:25.138Z</time></trkpt><trkpt lat="46.171407" lon="13.5103089"><ele>574.0</ele><time>2026-05-02T12:05:26.138Z</time></trkpt><trkpt lat="46.1714568" lon="13.5103686"><ele>574.0</ele><time>2026-05-02T12:05:27.137Z</time></trkpt><trkpt lat="46.1715117" lon="13.5104213"><ele>574.0</ele><time>2026-05-02T12:05:28.137Z</time></trkpt><trkpt lat="46.1716227" lon="13.5104895"><ele>571.5</ele><time>2026-05-02T12:05:30.138Z</time></trkpt><trkpt lat="46.1717428" lon="13.5104949"><ele>569.0</ele><time>2026-05-02T12:05:32.138Z</time></trkpt><trkpt lat="46.1718178" lon="13.510468"><ele>566.5</ele><time>2026-05-02T12:05:33.137Z</time></trkpt><trkpt lat="46.1718939" lon="13.5104352"><ele>564.0</ele><time>2026-05-02T12:05:34.137Z</time></trkpt><trkpt lat="46.1719646" lon="13.5103859"><ele>561.5</ele><time>2026-05-02T12:05:35.137Z</time></trkpt><trkpt lat="46.1720378" lon="13.5103243"><ele>559.0</ele><time>2026-05-02T12:05:36.137Z</time></trkpt><trkpt lat="46.1721206" lon="13.5102621"><ele>559.0</ele><time>2026-05-02T12:05:37.138Z</time></trkpt><trkpt lat="46.1721986" lon="13.5102018"><ele>559.0</ele><time>2026-05-02T12:05:38.137Z</time></trkpt><trkpt lat="46.1722796" lon="13.5101268"><ele>559.0</ele><time>2026-05-02T12:05:39.137Z</time></trkpt><trkpt lat="46.1723603" lon="13.5100555"><ele>559.0</ele><time>2026-05-02T12:05:40.138Z</time></trkpt><trkpt lat="46.1724304" lon="13.5099845"><ele>559.0</ele><time>2026-05-02T12:05:41.138Z</time></trkpt><trkpt lat="46.1724894" lon="13.509927"><ele>559.0</ele><time>2026-05-02T12:05:42.137Z</time></trkpt><trkpt lat="46.1725412" lon="13.5098743"><ele>560.5</ele><time>2026-05-02T12:05:43.137Z</time></trkpt><trkpt lat="46.1726472" lon="13.5098051"><ele>562.0</ele><time>2026-05-02T12:05:45.138Z</time></trkpt><trkpt lat="46.1727119" lon="13.5097983"><ele>563.5</ele><time>2026-05-02T12:05:46.138Z</time></trkpt><trkpt lat="46.1727834" lon="13.509808"><ele>565.0</ele><time>2026-05-02T12:05:47.137Z</time></trkpt><trkpt lat="46.1728587" lon="13.5098078"><ele>566.5</ele><time>2026-05-02T12:05:48.138Z</time></trkpt><trkpt lat="46.1729357" lon="13.5097913"><ele>568.0</ele><time>2026-05-02T12:05:49.137Z</time></trkpt><trkpt lat="46.1730081" lon="13.5097721"><ele>568.0</ele><time>2026-05-02T12:05:50.137Z</time></trkpt><trkpt lat="46.173072" lon="13.5097422"><ele>568.0</ele><time>2026-05-02T12:05:51.138Z</time></trkpt><trkpt lat="46.1731377" lon="13.5097177"><ele>568.0</ele><time>2026-05-02T12:05:52.137Z</time></trkpt><trkpt lat="46.1732" lon="13.5096912"><ele>568.0</ele><time>2026-05-02T12:05:53.138Z</time></trkpt><trkpt lat="46.1732948" lon="13.5096555"><ele>568.0</ele><time>2026-05-02T12:05:55.138Z</time></trkpt><trkpt lat="46.1733684" lon="13.5096011"><ele>568.0</ele><time>2026-05-02T12:05:57.138Z</time></trkpt><trkpt lat="46.1734535" lon="13.5095109"><ele>567.0</ele><time>2026-05-02T12:05:59.137Z</time></trkpt><trkpt lat="46.1734961" lon="13.5094324"><ele>566.0</ele><time>2026-05-02T12:06:00.137Z</time></trkpt><trkpt lat="46.1735607" lon="13.5093834"><ele>565.0</ele><time>2026-05-02T12:06:01.138Z</time></trkpt><trkpt lat="46.1736332" lon="13.509363"><ele>564.0</ele><time>2026-05-02T12:06:02.137Z</time></trkpt><trkpt lat="46.1737242" lon="13.5093864"><ele>563.0</ele><time>2026-05-02T12:06:03.138Z</time></trkpt><trkpt lat="46.1738286" lon="13.5094171"><ele>562.0</ele><time>2026-05-02T12:06:04.137Z</time></trkpt><trkpt lat="46.1739259" lon="13.5094151"><ele>562.0</ele><time>2026-05-02T12:06:05.137Z</time></trkpt><trkpt lat="46.1740195" lon="13.5093734"><ele>562.0</ele><time>2026-05-02T12:06:06.137Z</time></trkpt><trkpt lat="46.1741003" lon="13.5093145"><ele>562.0</ele><time>2026-05-02T12:06:07.138Z</time></trkpt><trkpt lat="46.1741667" lon="13.509256"><ele>562.0</ele><time>2026-05-02T12:06:08.138Z</time></trkpt><trkpt lat="46.1742819" lon="13.5092164"><ele>562.0</ele><time>2026-05-02T12:06:10.138Z</time></trkpt><trkpt lat="46.1744115" lon="13.509232"><ele>563.3333333333334</ele><time>2026-05-02T12:06:12.137Z</time></trkpt><trkpt lat="46.1744838" lon="13.5092444"><ele>564.6666666666667</ele><time>2026-05-02T12:06:13.138Z</time></trkpt><trkpt lat="46.174556" lon="13.5092784"><ele>566.0</ele><time>2026-05-02T12:06:14.137Z</time></trkpt><trkpt lat="46.1746281" lon="13.509344"><ele>567.3333333333334</ele><time>2026-05-02T12:06:15.138Z</time></trkpt><trkpt lat="46.1746951" lon="13.5094209"><ele>568.6666666666666</ele><time>2026-05-02T12:06:16.138Z</time></trkpt><trkpt lat="46.1747765" lon="13.5094943"><ele>570.0</ele><time>2026-05-02T12:06:17.137Z</time></trkpt><trkpt lat="46.1748637" lon="13.5095619"><ele>570.3333333333334</ele><time>2026-05-02T12:06:18.138Z</time></trkpt><trkpt lat="46.1749446" lon="13.509613"><ele>570.6666666666666</ele><time>2026-05-02T12:06:19.138Z</time></trkpt><trkpt lat="46.1750173" lon="13.5096564"><ele>571.0</ele><time>2026-05-02T12:06:20.137Z</time></trkpt><trkpt lat="46.1750855" lon="13.5096846"><ele>571.3333333333333</ele><time>2026-05-02T12:06:21.137Z</time></trkpt><trkpt lat="46.1751513" lon="13.5096712"><ele>571.6666666666666</ele><time>2026-05-02T12:06:22.138Z</time></trkpt><trkpt lat="46.1752054" lon="13.5096215"><ele>572.0</ele><time>2026-05-02T12:06:23.137Z</time></trkpt><trkpt lat="46.1752622" lon="13.5095241"><ele>572.0</ele><time>2026-05-02T12:06:24.137Z</time></trkpt><trkpt lat="46.1753191" lon="13.5094083"><ele>572.0</ele><time>2026-05-02T12:06:25.137Z</time></trkpt><trkpt lat="46.1753583" lon="13.5092718"><ele>572.0</ele><time>2026-05-02T12:06:26.137Z</time></trkpt><trkpt lat="46.1753875" lon="13.5091366"><ele>572.0</ele><time>2026-05-02T12:06:27.138Z</time></trkpt><trkpt lat="46.1754114" lon="13.5090099"><ele>572.0</ele><time>2026-05-02T12:06:28.138Z</time></trkpt><trkpt lat="46.1754367" lon="13.5088876"><ele>572.0</ele><time>2026-05-02T12:06:29.137Z</time></trkpt><trkpt lat="46.1754755" lon="13.5087819"><ele>572.0</ele><time>2026-05-02T12:06:30.137Z</time></trkpt><trkpt lat="46.1755209" lon="13.5086747"><ele>572.0</ele><time>2026-05-02T12:06:31.136Z</time></trkpt><trkpt lat="46.1755878" lon="13.5085769"><ele>572.0</ele><time>2026-05-02T12:06:32.136Z</time></trkpt><trkpt lat="46.1756684" lon="13.5085088"><ele>572.0</ele><time>2026-05-02T12:06:33.137Z</time></trkpt><trkpt lat="46.1757581" lon="13.5084595"><ele>572.6</ele><time>2026-05-02T12:06:34.136Z</time></trkpt><trkpt lat="46.175835" lon="13.5083844"><ele>573.2</ele><time>2026-05-02T12:06:35.136Z</time></trkpt><trkpt lat="46.1758902" lon="13.5082618"><ele>573.8</ele><time>2026-05-02T12:06:36.136Z</time></trkpt><trkpt lat="46.1759314" lon="13.5081164"><ele>574.4</ele><time>2026-05-02T12:06:37.136Z</time></trkpt><trkpt lat="46.1759998" lon="13.5079874"><ele>575.0</ele><time>2026-05-02T12:06:38.136Z</time></trkpt><trkpt lat="46.176075" lon="13.507868"><ele>571.5</ele><time>2026-05-02T12:06:39.136Z</time></trkpt><trkpt lat="46.1761269" lon="13.5077644"><ele>568.0</ele><time>2026-05-02T12:06:40.136Z</time></trkpt><trkpt lat="46.176154" lon="13.5076476"><ele>564.5</ele><time>2026-05-02T12:06:41.137Z</time></trkpt><trkpt lat="46.1761718" lon="13.5075409"><ele>561.0</ele><time>2026-05-02T12:06:42.136Z</time></trkpt><trkpt lat="46.1761933" lon="13.5074432"><ele>557.5</ele><time>2026-05-02T12:06:43.137Z</time></trkpt><trkpt lat="46.1762422" lon="13.507311"><ele>554.0</ele><time>2026-05-02T12:06:45.136Z</time></trkpt><trkpt lat="46.176295" lon="13.5072364"><ele>554.0</ele><time>2026-05-02T12:06:55.137Z</time></trkpt><trkpt lat="46.1763448" lon="13.5071799"><ele>554.0</ele><time>2026-05-02T12:06:57.137Z</time></trkpt><trkpt lat="46.1764321" lon="13.5070944"><ele>554.0</ele><time>2026-05-02T12:06:59.136Z</time></trkpt><trkpt lat="46.1765006" lon="13.507053"><ele>554.0</ele><time>2026-05-02T12:07:00.136Z</time></trkpt><trkpt lat="46.1765854" lon="13.5070081"><ele>554.0</ele><time>2026-05-02T12:07:01.136Z</time></trkpt><trkpt lat="46.1766642" lon="13.5069546"><ele>554.0</ele><time>2026-05-02T12:07:02.136Z</time></trkpt><trkpt lat="46.176733" lon="13.5068808"><ele>554.4</ele><time>2026-05-02T12:07:03.136Z</time></trkpt><trkpt lat="46.1768055" lon="13.5067977"><ele>554.8</ele><time>2026-05-02T12:07:04.137Z</time></trkpt><trkpt lat="46.1768806" lon="13.5066983"><ele>555.2</ele><time>2026-05-02T12:07:05.137Z</time></trkpt><trkpt lat="46.1769598" lon="13.5065966"><ele>555.6</ele><time>2026-05-02T12:07:06.136Z</time></trkpt><trkpt lat="46.17705" lon="13.5065134"><ele>556.0</ele><time>2026-05-02T12:07:07.136Z</time></trkpt><trkpt lat="46.1771419" lon="13.5064542"><ele>556.0</ele><time>2026-05-02T12:07:08.137Z</time></trkpt><trkpt lat="46.1772367" lon="13.5063967"><ele>556.0</ele><time>2026-05-02T12:07:09.136Z</time></trkpt><trkpt lat="46.1773287" lon="13.5063314"><ele>556.0</ele><time>2026-05-02T12:07:10.136Z</time></trkpt><trkpt lat="46.1774112" lon="13.5062687"><ele>556.0</ele><time>2026-05-02T12:07:11.136Z</time></trkpt><trkpt lat="46.1774839" lon="13.5062018"><ele>556.0</ele><time>2026-05-02T12:07:12.136Z</time></trkpt><trkpt lat="46.1775308" lon="13.5061057"><ele>555.6666666666667</ele><time>2026-05-02T12:07:13.137Z</time></trkpt><trkpt lat="46.1775629" lon="13.5059992"><ele>555.3333333333334</ele><time>2026-05-02T12:07:14.136Z</time></trkpt><trkpt lat="46.1775901" lon="13.5058727"><ele>555.0</ele><time>2026-05-02T12:07:15.136Z</time></trkpt><trkpt lat="46.1776121" lon="13.505738"><ele>554.6666666666666</ele><time>2026-05-02T12:07:16.136Z</time></trkpt><trkpt lat="46.1776214" lon="13.505606"><ele>554.3333333333333</ele><time>2026-05-02T12:07:17.137Z</time></trkpt><trkpt lat="46.1776115" lon="13.5054801"><ele>554.0</ele><time>2026-05-02T12:07:18.136Z</time></trkpt><trkpt lat="46.1775749" lon="13.5053589"><ele>554.0</ele><time>2026-05-02T12:07:19.137Z</time></trkpt><trkpt lat="46.177552" lon="13.5052559"><ele>554.0</ele><time>2026-05-02T12:07:20.136Z</time></trkpt><trkpt lat="46.1775531" lon="13.5051502"><ele>554.0</ele><time>2026-05-02T12:07:21.136Z</time></trkpt><trkpt lat="46.177574" lon="13.5050272"><ele>554.0</ele><time>2026-05-02T12:07:22.136Z</time></trkpt><trkpt lat="46.1776262" lon="13.5048967"><ele>554.0</ele><time>2026-05-02T12:07:23.136Z</time></trkpt><trkpt lat="46.1776808" lon="13.504763"><ele>554.0</ele><time>2026-05-02T12:07:24.136Z</time></trkpt><trkpt lat="46.1777403" lon="13.5046499"><ele>554.4</ele><time>2026-05-02T12:07:25.136Z</time></trkpt><trkpt lat="46.1778068" lon="13.5045438"><ele>554.8</ele><time>2026-05-02T12:07:26.137Z</time></trkpt><trkpt lat="46.1778583" lon="13.5044277"><ele>555.2</ele><time>2026-05-02T12:07:27.136Z</time></trkpt><trkpt lat="46.1778916" lon="13.5042953"><ele>555.6</ele><time>2026-05-02T12:07:28.137Z</time></trkpt><trkpt lat="46.177909" lon="13.5041288"><ele>556.0</ele><time>2026-05-02T12:07:29.136Z</time></trkpt><trkpt lat="46.1779193" lon="13.5039675"><ele>556.0</ele><time>2026-05-02T12:07:30.136Z</time></trkpt><trkpt lat="46.1779356" lon="13.5038104"><ele>556.0</ele><time>2026-05-02T12:07:31.136Z</time></trkpt><trkpt lat="46.1779458" lon="13.5036614"><ele>556.0</ele><time>2026-05-02T12:07:32.136Z</time></trkpt><trkpt lat="46.1779623" lon="13.5035165"><ele>556.0</ele><time>2026-05-02T12:07:33.136Z</time></trkpt><trkpt lat="46.1779796" lon="13.5033817"><ele>556.0</ele><time>2026-05-02T12:07:34.136Z</time></trkpt><trkpt lat="46.1780005" lon="13.5032565"><ele>556.4</ele><time>2026-05-02T12:07:35.136Z</time></trkpt><trkpt lat="46.1780355" lon="13.5031623"><ele>556.8</ele><time>2026-05-02T12:07:36.137Z</time></trkpt><trkpt lat="46.178096" lon="13.5030697"><ele>557.1999999999999</ele><time>2026-05-02T12:07:37.137Z</time></trkpt><trkpt lat="46.178168" lon="13.5029665"><ele>557.6</ele><time>2026-05-02T12:07:38.136Z</time></trkpt><trkpt lat="46.1782412" lon="13.502846"><ele>558.0</ele><time>2026-05-02T12:07:39.137Z</time></trkpt><trkpt lat="46.1783026" lon="13.5027231"><ele>561.5</ele><time>2026-05-02T12:07:40.136Z</time></trkpt><trkpt lat="46.1783502" lon="13.5025978"><ele>565.0</ele><time>2026-05-02T12:07:41.137Z</time></trkpt><trkpt lat="46.1783982" lon="13.5024857"><ele>568.5</ele><time>2026-05-02T12:07:42.136Z</time></trkpt><trkpt lat="46.1784371" lon="13.5023976"><ele>572.0</ele><time>2026-05-02T12:07:43.137Z</time></trkpt><trkpt lat="46.1784624" lon="13.5023098"><ele>575.5</ele><time>2026-05-02T12:07:45.136Z</time></trkpt><trkpt lat="46.1784784" lon="13.5024144"><ele>579.0</ele><time>2026-05-02T12:08:02.137Z</time></trkpt><trkpt lat="46.1784764" lon="13.5025501"><ele>579.0</ele><time>2026-05-02T12:08:04.137Z</time></trkpt><trkpt lat="46.1785345" lon="13.5026402"><ele>579.0</ele><time>2026-05-02T12:08:06.136Z</time></trkpt><trkpt lat="46.1786056" lon="13.5026636"><ele>579.0</ele><time>2026-05-02T12:08:08.136Z</time></trkpt><trkpt lat="46.1786815" lon="13.502714"><ele>579.0</ele><time>2026-05-02T12:08:10.137Z</time></trkpt><trkpt lat="46.1787282" lon="13.502823"><ele>579.0</ele><time>2026-05-02T12:08:12.136Z</time></trkpt><trkpt lat="46.1787272" lon="13.5029514"><ele>579.0</ele><time>2026-05-02T12:08:14.136Z</time></trkpt><trkpt lat="46.1787221" lon="13.5031235"><ele>579.8333333333334</ele><time>2026-05-02T12:08:16.137Z</time></trkpt><trkpt lat="46.178709" lon="13.5032217"><ele>580.6666666666666</ele><time>2026-05-02T12:08:17.136Z</time></trkpt><trkpt lat="46.178694" lon="13.5033182"><ele>581.5</ele><time>2026-05-02T12:08:18.136Z</time></trkpt><trkpt lat="46.178667" lon="13.5034148"><ele>582.3333333333333</ele><time>2026-05-02T12:08:19.137Z</time></trkpt><trkpt lat="46.1786341" lon="13.503501"><ele>583.1666666666666</ele><time>2026-05-02T12:08:20.136Z</time></trkpt><trkpt lat="46.1785825" lon="13.503595"><ele>584.0</ele><time>2026-05-02T12:08:21.136Z</time></trkpt><trkpt lat="46.1785287" lon="13.5037014"><ele>585.6</ele><time>2026-05-02T12:08:22.136Z</time></trkpt><trkpt lat="46.1784795" lon="13.5038134"><ele>587.2</ele><time>2026-05-02T12:08:23.136Z</time></trkpt><trkpt lat="46.1784396" lon="13.5039378"><ele>588.8000000000001</ele><time>2026-05-02T12:08:24.137Z</time></trkpt><trkpt lat="46.1784102" lon="13.504048"><ele>590.4</ele><time>2026-05-02T12:08:25.136Z</time></trkpt><trkpt lat="46.1783914" lon="13.5041484"><ele>592.0</ele><time>2026-05-02T12:08:26.136Z</time></trkpt><trkpt lat="46.1784019" lon="13.504323"><ele>592.0</ele><time>2026-05-02T12:08:28.136Z</time></trkpt><trkpt lat="46.17841" lon="13.5044184"><ele>592.0</ele><time>2026-05-02T12:08:29.136Z</time></trkpt><trkpt lat="46.1784255" lon="13.5045232"><ele>592.0</ele><time>2026-05-02T12:08:30.136Z</time></trkpt><trkpt lat="46.1784391" lon="13.5046174"><ele>592.0</ele><time>2026-05-02T12:08:31.136Z</time></trkpt><trkpt lat="46.1784476" lon="13.5047563"><ele>592.0</ele><time>2026-05-02T12:08:33.136Z</time></trkpt><trkpt lat="46.1784349" lon="13.5049354"><ele>592.0</ele><time>2026-05-02T12:08:35.136Z</time></trkpt><trkpt lat="46.1784184" lon="13.5050526"><ele>593.0</ele><time>2026-05-02T12:08:36.136Z</time></trkpt><trkpt lat="46.1784017" lon="13.5051652"><ele>594.0</ele><time>2026-05-02T12:08:37.136Z</time></trkpt><trkpt lat="46.1783977" lon="13.5052693"><ele>595.0</ele><time>2026-05-02T12:08:38.136Z</time></trkpt><trkpt lat="46.1783971" lon="13.505387"><ele>596.0</ele><time>2026-05-02T12:08:39.136Z</time></trkpt><trkpt lat="46.1783866" lon="13.5055307"><ele>597.0</ele><time>2026-05-02T12:08:40.137Z</time></trkpt><trkpt lat="46.1783709" lon="13.505655"><ele>598.0</ele><time>2026-05-02T12:08:41.136Z</time></trkpt><trkpt lat="46.1783421" lon="13.5057531"><ele>599.4</ele><time>2026-05-02T12:08:42.136Z</time></trkpt><trkpt lat="46.1783175" lon="13.5058644"><ele>600.8</ele><time>2026-05-02T12:08:43.136Z</time></trkpt><trkpt lat="46.1782941" lon="13.5059849"><ele>602.2</ele><time>2026-05-02T12:08:44.136Z</time></trkpt><trkpt lat="46.1782703" lon="13.5060902"><ele>603.6</ele><time>2026-05-02T12:08:45.136Z</time></trkpt><trkpt lat="46.1782619" lon="13.5062585"><ele>605.0</ele><time>2026-05-02T12:08:47.137Z</time></trkpt><trkpt lat="46.1782818" lon="13.5064125"><ele>607.4</ele><time>2026-05-02T12:08:49.136Z</time></trkpt><trkpt lat="46.1783132" lon="13.5065595"><ele>609.8</ele><time>2026-05-02T12:08:51.136Z</time></trkpt><trkpt lat="46.1782921" lon="13.5066808"><ele>612.2</ele><time>2026-05-02T12:08:53.136Z</time></trkpt><trkpt lat="46.1782114" lon="13.5067708"><ele>614.6</ele><time>2026-05-02T12:08:55.137Z</time></trkpt><trkpt lat="46.1781037" lon="13.5068496"><ele>617.0</ele><time>2026-05-02T12:08:57.137Z</time></trkpt><trkpt lat="46.1780059" lon="13.5069789"><ele>616.0</ele><time>2026-05-02T12:08:59.136Z</time></trkpt><trkpt lat="46.1779578" lon="13.507063"><ele>615.0</ele><time>2026-05-02T12:09:00.136Z</time></trkpt><trkpt lat="46.1779249" lon="13.5071448"><ele>614.0</ele><time>2026-05-02T12:09:01.136Z</time></trkpt><trkpt lat="46.1778912" lon="13.5072761"><ele>613.0</ele><time>2026-05-02T12:09:03.137Z</time></trkpt><trkpt lat="46.1778606" lon="13.5074376"><ele>612.0</ele><time>2026-05-02T12:09:05.136Z</time></trkpt><trkpt lat="46.177854" lon="13.5075743"><ele>611.0</ele><time>2026-05-02T12:09:07.136Z</time></trkpt><trkpt lat="46.1779485" lon="13.5075847"><ele>611.0</ele><time>2026-05-02T12:09:10.137Z</time></trkpt><trkpt lat="46.1780372" lon="13.5074524"><ele>611.0</ele><time>2026-05-02T12:09:12.137Z</time></trkpt><trkpt lat="46.1780857" lon="13.5073854"><ele>611.0</ele><time>2026-05-02T12:09:13.136Z</time></trkpt><trkpt lat="46.1781385" lon="13.5073129"><ele>611.0</ele><time>2026-05-02T12:09:14.137Z</time></trkpt><trkpt lat="46.1781961" lon="13.5072541"><ele>611.0</ele><time>2026-05-02T12:09:15.136Z</time></trkpt><trkpt lat="46.178305" lon="13.5072454"><ele>611.0</ele><time>2026-05-02T12:09:17.137Z</time></trkpt><trkpt lat="46.1783671" lon="13.5072814"><ele>612.0</ele><time>2026-05-02T12:09:18.137Z</time></trkpt><trkpt lat="46.1784199" lon="13.507331"><ele>613.0</ele><time>2026-05-02T12:09:19.137Z</time></trkpt><trkpt lat="46.178498" lon="13.5074002"><ele>614.0</ele><time>2026-05-02T12:09:21.136Z</time></trkpt><trkpt lat="46.1785671" lon="13.5073652"><ele>615.0</ele><time>2026-05-02T12:09:23.136Z</time></trkpt><trkpt lat="46.1786443" lon="13.5072329"><ele>616.0</ele><time>2026-05-02T12:09:25.137Z</time></trkpt><trkpt lat="46.1786782" lon="13.507128"><ele>617.0</ele><time>2026-05-02T12:09:26.136Z</time></trkpt><trkpt lat="46.17871" lon="13.5070387"><ele>617.0</ele><time>2026-05-02T12:09:27.136Z</time></trkpt><trkpt lat="46.1787486" lon="13.5068562"><ele>617.0</ele><time>2026-05-02T12:09:29.136Z</time></trkpt><trkpt lat="46.1787656" lon="13.5067521"><ele>617.0</ele><time>2026-05-02T12:09:30.137Z</time></trkpt><trkpt lat="46.1787884" lon="13.5066628"><ele>617.0</ele><time>2026-05-02T12:09:31.136Z</time></trkpt><trkpt lat="46.1788349" lon="13.5064818"><ele>617.0</ele><time>2026-05-02T12:09:33.137Z</time></trkpt><trkpt lat="46.1788641" lon="13.5063543"><ele>615.0</ele><time>2026-05-02T12:09:34.137Z</time></trkpt><trkpt lat="46.1788991" lon="13.5062358"><ele>613.0</ele><time>2026-05-02T12:09:35.136Z</time></trkpt><trkpt lat="46.1789307" lon="13.5061285"><ele>611.0</ele><time>2026-05-02T12:09:36.137Z</time></trkpt><trkpt lat="46.17897" lon="13.5060213"><ele>609.0</ele><time>2026-05-02T12:09:37.136Z</time></trkpt><trkpt lat="46.1790057" lon="13.5059221"><ele>607.0</ele><time>2026-05-02T12:09:38.137Z</time></trkpt><trkpt lat="46.1790477" lon="13.5058362"><ele>605.0</ele><time>2026-05-02T12:09:39.136Z</time></trkpt><trkpt lat="46.17909" lon="13.505761"><ele>610.6666666666666</ele><time>2026-05-02T12:09:40.136Z</time></trkpt><trkpt lat="46.1791333" lon="13.5056749"><ele>616.3333333333333</ele><time>2026-05-02T12:09:41.136Z</time></trkpt><trkpt lat="46.17917" lon="13.5055715"><ele>622.0</ele><time>2026-05-02T12:09:42.136Z</time></trkpt><trkpt lat="46.1791938" lon="13.5054555"><ele>627.6666666666666</ele><time>2026-05-02T12:09:43.136Z</time></trkpt><trkpt lat="46.1792179" lon="13.5053329"><ele>633.3333333333334</ele><time>2026-05-02T12:09:44.137Z</time></trkpt><trkpt lat="46.1792485" lon="13.5052115"><ele>639.0</ele><time>2026-05-02T12:09:45.136Z</time></trkpt><trkpt lat="46.1792912" lon="13.5051117"><ele>639.0</ele><time>2026-05-02T12:09:46.137Z</time></trkpt><trkpt lat="46.1793369" lon="13.5050193"><ele>639.0</ele><time>2026-05-02T12:09:47.136Z</time></trkpt><trkpt lat="46.1793797" lon="13.5049268"><ele>639.0</ele><time>2026-05-02T12:09:48.136Z</time></trkpt><trkpt lat="46.1794043" lon="13.5048334"><ele>639.0</ele><time>2026-05-02T12:09:49.137Z</time></trkpt><trkpt lat="46.1794329" lon="13.5047423"><ele>639.0</ele><time>2026-05-02T12:09:50.136Z</time></trkpt><trkpt lat="46.1794727" lon="13.5046351"><ele>639.0</ele><time>2026-05-02T12:09:51.136Z</time></trkpt><trkpt lat="46.1795129" lon="13.5045214"><ele>637.0</ele><time>2026-05-02T12:09:52.137Z</time></trkpt><trkpt lat="46.1795637" lon="13.5044134"><ele>635.0</ele><time>2026-05-02T12:09:53.136Z</time></trkpt><trkpt lat="46.1796055" lon="13.5043265"><ele>633.0</ele><time>2026-05-02T12:09:54.136Z</time></trkpt><trkpt lat="46.1796647" lon="13.5041958"><ele>631.0</ele><time>2026-05-02T12:09:56.136Z</time></trkpt><trkpt lat="46.1797056" lon="13.5041128"><ele>629.0</ele><time>2026-05-02T12:09:57.137Z</time></trkpt><trkpt lat="46.1797475" lon="13.5040182"><ele>627.0</ele><time>2026-05-02T12:09:58.136Z</time></trkpt><trkpt lat="46.1797778" lon="13.5039314"><ele>627.0</ele><time>2026-05-02T12:09:59.136Z</time></trkpt><trkpt lat="46.1798161" lon="13.5038418"><ele>627.0</ele><time>2026-05-02T12:10:00.136Z</time></trkpt><trkpt lat="46.1798532" lon="13.5037374"><ele>627.0</ele><time>2026-05-02T12:10:01.136Z</time></trkpt><trkpt lat="46.1799021" lon="13.5036308"><ele>627.0</ele><time>2026-05-02T12:10:02.136Z</time></trkpt><trkpt lat="46.1799496" lon="13.5035284"><ele>627.0</ele><time>2026-05-02T12:10:03.136Z</time></trkpt><trkpt lat="46.1800023" lon="13.503443"><ele>627.0</ele><time>2026-05-02T12:10:04.136Z</time></trkpt><trkpt lat="46.1800534" lon="13.5033579"><ele>629.6666666666666</ele><time>2026-05-02T12:10:05.137Z</time></trkpt><trkpt lat="46.180106" lon="13.5032735"><ele>632.3333333333334</ele><time>2026-05-02T12:10:06.136Z</time></trkpt><trkpt lat="46.1801574" lon="13.5031837"><ele>635.0</ele><time>2026-05-02T12:10:07.136Z</time></trkpt><trkpt lat="46.1802095" lon="13.5030898"><ele>637.6666666666667</ele><time>2026-05-02T12:10:08.136Z</time></trkpt><trkpt lat="46.1802612" lon="13.5030055"><ele>640.3333333333334</ele><time>2026-05-02T12:10:09.136Z</time></trkpt><trkpt lat="46.1803171" lon="13.5029285"><ele>643.0</ele><time>2026-05-02T12:10:10.137Z</time></trkpt><trkpt lat="46.1803788" lon="13.5028359"><ele>643.0</ele><time>2026-05-02T12:10:11.136Z</time></trkpt><trkpt lat="46.1804492" lon="13.5027553"><ele>643.0</ele><time>2026-05-02T12:10:12.136Z</time></trkpt><trkpt lat="46.180517" lon="13.5026734"><ele>643.0</ele><time>2026-05-02T12:10:13.136Z</time></trkpt><trkpt lat="46.1805825" lon="13.5025945"><ele>643.0</ele><time>2026-05-02T12:10:14.136Z</time></trkpt><trkpt lat="46.1806416" lon="13.5025136"><ele>643.0</ele><time>2026-05-02T12:10:15.136Z</time></trkpt><trkpt lat="46.1806952" lon="13.5024398"><ele>643.0</ele><time>2026-05-02T12:10:16.136Z</time></trkpt><trkpt lat="46.1807513" lon="13.5023761"><ele>645.0</ele><time>2026-05-02T12:10:17.136Z</time></trkpt><trkpt lat="46.1808084" lon="13.5023163"><ele>647.0</ele><time>2026-05-02T12:10:18.136Z</time></trkpt><trkpt lat="46.1808631" lon="13.5022638"><ele>649.0</ele><time>2026-05-02T12:10:19.136Z</time></trkpt><trkpt lat="46.1809663" lon="13.5021943"><ele>651.0</ele><time>2026-05-02T12:10:21.136Z</time></trkpt><trkpt lat="46.1810769" lon="13.5020842"><ele>653.0</ele><time>2026-05-02T12:10:23.136Z</time></trkpt><trkpt lat="46.1811456" lon="13.5020152"><ele>653.0</ele><time>2026-05-02T12:10:24.136Z</time></trkpt><trkpt lat="46.18122" lon="13.5019262"><ele>653.0</ele><time>2026-05-02T12:10:25.136Z</time></trkpt><trkpt lat="46.1812955" lon="13.5018372"><ele>653.0</ele><time>2026-05-02T12:10:26.136Z</time></trkpt><trkpt lat="46.1813624" lon="13.50175"><ele>653.0</ele><time>2026-05-02T12:10:27.137Z</time></trkpt><trkpt lat="46.1814293" lon="13.5016379"><ele>653.0</ele><time>2026-05-02T12:10:28.136Z</time></trkpt><trkpt lat="46.1814966" lon="13.501527"><ele>655.3333333333333</ele><time>2026-05-02T12:10:29.137Z</time></trkpt><trkpt lat="46.1815632" lon="13.5014181"><ele>657.6666666666666</ele><time>2026-05-02T12:10:30.136Z</time></trkpt><trkpt lat="46.1816222" lon="13.5013147"><ele>660.0</ele><time>2026-05-02T12:10:31.137Z</time></trkpt><trkpt lat="46.1816758" lon="13.5012195"><ele>662.3333333333334</ele><time>2026-05-02T12:10:32.136Z</time></trkpt><trkpt lat="46.1817294" lon="13.5011375"><ele>664.6666666666667</ele><time>2026-05-02T12:10:33.136Z</time></trkpt><trkpt lat="46.1817808" lon="13.5010567"><ele>667.0</ele><time>2026-05-02T12:10:34.137Z</time></trkpt><trkpt lat="46.1818393" lon="13.5009807"><ele>667.0</ele><time>2026-05-02T12:10:35.136Z</time></trkpt><trkpt lat="46.1818917" lon="13.500897"><ele>667.0</ele><time>2026-05-02T12:10:36.135Z</time></trkpt><trkpt lat="46.1819416" lon="13.5008056"><ele>667.0</ele><time>2026-05-02T12:10:37.135Z</time></trkpt><trkpt lat="46.1819881" lon="13.500705"><ele>667.0</ele><time>2026-05-02T12:10:38.136Z</time></trkpt><trkpt lat="46.1820249" lon="13.5006077"><ele>667.0</ele><time>2026-05-02T12:10:39.136Z</time></trkpt><trkpt lat="46.1820662" lon="13.5005163"><ele>667.0</ele><time>2026-05-02T12:10:40.135Z</time></trkpt><trkpt lat="46.1821178" lon="13.5004361"><ele>667.6666666666667</ele><time>2026-05-02T12:10:41.136Z</time></trkpt><trkpt lat="46.1821859" lon="13.5003615"><ele>668.3333333333334</ele><time>2026-05-02T12:10:42.136Z</time></trkpt><trkpt lat="46.1822665" lon="13.5002987"><ele>669.0</ele><time>2026-05-02T12:10:43.136Z</time></trkpt><trkpt lat="46.1823527" lon="13.5002256"><ele>669.6666666666666</ele><time>2026-05-02T12:10:44.135Z</time></trkpt><trkpt lat="46.1824134" lon="13.5001555"><ele>670.3333333333333</ele><time>2026-05-02T12:10:45.135Z</time></trkpt><trkpt lat="46.1824715" lon="13.5000912"><ele>671.0</ele><time>2026-05-02T12:10:46.135Z</time></trkpt><trkpt lat="46.1825345" lon="13.5000139"><ele>671.0</ele><time>2026-05-02T12:10:47.135Z</time></trkpt><trkpt lat="46.1825907" lon="13.499945"><ele>671.0</ele><time>2026-05-02T12:10:48.135Z</time></trkpt><trkpt lat="46.1826481" lon="13.4998767"><ele>671.0</ele><time>2026-05-02T12:10:49.135Z</time></trkpt><trkpt lat="46.1827036" lon="13.4998161"><ele>671.0</ele><time>2026-05-02T12:10:50.136Z</time></trkpt><trkpt lat="46.1827535" lon="13.4997544"><ele>671.0</ele><time>2026-05-02T12:10:51.136Z</time></trkpt><trkpt lat="46.1828068" lon="13.499688"><ele>671.0</ele><time>2026-05-02T12:10:52.136Z</time></trkpt><trkpt lat="46.1829028" lon="13.4996029"><ele>669.8</ele><time>2026-05-02T12:10:54.136Z</time></trkpt><trkpt lat="46.1830135" lon="13.499552"><ele>668.5999999999999</ele><time>2026-05-02T12:10:56.136Z</time></trkpt><trkpt lat="46.1831037" lon="13.4995327"><ele>667.4</ele><time>2026-05-02T12:10:58.136Z</time></trkpt><trkpt lat="46.1832113" lon="13.4994897"><ele>666.2</ele><time>2026-05-02T12:11:00.135Z</time></trkpt><trkpt lat="46.1832726" lon="13.4994593"><ele>665.0</ele><time>2026-05-02T12:11:01.135Z</time></trkpt><trkpt lat="46.1833394" lon="13.4994071"><ele>665.0</ele><time>2026-05-02T12:11:02.135Z</time></trkpt><trkpt lat="46.1833946" lon="13.499355"><ele>665.0</ele><time>2026-05-02T12:11:03.135Z</time></trkpt><trkpt lat="46.1834416" lon="13.4992792"><ele>665.0</ele><time>2026-05-02T12:11:04.135Z</time></trkpt><trkpt lat="46.1834846" lon="13.4991962"><ele>665.0</ele><time>2026-05-02T12:11:05.135Z</time></trkpt><trkpt lat="46.1835231" lon="13.4991119"><ele>665.0</ele><time>2026-05-02T12:11:06.135Z</time></trkpt><trkpt lat="46.1835928" lon="13.4989561"><ele>665.0</ele><time>2026-05-02T12:11:08.135Z</time></trkpt><trkpt lat="46.183644" lon="13.4988986"><ele>665.0</ele><time>2026-05-02T12:11:09.135Z</time></trkpt><trkpt lat="46.1837045" lon="13.4988351"><ele>665.0</ele><time>2026-05-02T12:11:10.136Z</time></trkpt><trkpt lat="46.1837654" lon="13.4987833"><ele>665.0</ele><time>2026-05-02T12:11:11.136Z</time></trkpt><trkpt lat="46.1838326" lon="13.498738"><ele>665.0</ele><time>2026-05-02T12:11:12.136Z</time></trkpt><trkpt lat="46.1839082" lon="13.498708"><ele>665.0</ele><time>2026-05-02T12:11:13.136Z</time></trkpt><trkpt lat="46.1839795" lon="13.4986693"><ele>665.0</ele><time>2026-05-02T12:11:14.135Z</time></trkpt><trkpt lat="46.1840455" lon="13.4986163"><ele>663.6666666666666</ele><time>2026-05-02T12:11:15.136Z</time></trkpt><trkpt lat="46.1841103" lon="13.4985725"><ele>662.3333333333333</ele><time>2026-05-02T12:11:16.135Z</time></trkpt><trkpt lat="46.184172" lon="13.4985211"><ele>661.0</ele><time>2026-05-02T12:11:17.135Z</time></trkpt><trkpt lat="46.1842283" lon="13.4984787"><ele>659.6666666666666</ele><time>2026-05-02T12:11:18.135Z</time></trkpt><trkpt lat="46.1842757" lon="13.4984157"><ele>658.3333333333334</ele><time>2026-05-02T12:11:19.135Z</time></trkpt><trkpt lat="46.1843431" lon="13.4982754"><ele>657.0</ele><time>2026-05-02T12:11:21.135Z</time></trkpt><trkpt lat="46.1843766" lon="13.4981755"><ele>657.0</ele><time>2026-05-02T12:11:22.135Z</time></trkpt><trkpt lat="46.1844088" lon="13.4980813"><ele>657.0</ele><time>2026-05-02T12:11:23.136Z</time></trkpt><trkpt lat="46.1844502" lon="13.497999"><ele>657.0</ele><time>2026-05-02T12:11:24.135Z</time></trkpt><trkpt lat="46.1844905" lon="13.4979277"><ele>657.0</ele><time>2026-05-02T12:11:25.135Z</time></trkpt><trkpt lat="46.1845796" lon="13.4978176"><ele>657.0</ele><time>2026-05-02T12:11:27.135Z</time></trkpt><trkpt lat="46.1846594" lon="13.4978066"><ele>657.0</ele><time>2026-05-02T12:11:29.135Z</time></trkpt><trkpt lat="46.1847743" lon="13.4978357"><ele>658.1666666666666</ele><time>2026-05-02T12:11:31.136Z</time></trkpt><trkpt lat="46.1848592" lon="13.4978533"><ele>659.3333333333334</ele><time>2026-05-02T12:11:32.135Z</time></trkpt><trkpt lat="46.1849376" lon="13.4978475"><ele>660.5</ele><time>2026-05-02T12:11:33.135Z</time></trkpt><trkpt lat="46.1850144" lon="13.4978235"><ele>661.6666666666667</ele><time>2026-05-02T12:11:34.135Z</time></trkpt><trkpt lat="46.1850705" lon="13.4977818"><ele>662.8333333333334</ele><time>2026-05-02T12:11:35.135Z</time></trkpt><trkpt lat="46.1851434" lon="13.4977042"><ele>664.0</ele><time>2026-05-02T12:11:37.135Z</time></trkpt><trkpt lat="46.1851854" lon="13.4975817"><ele>664.0</ele><time>2026-05-02T12:11:39.135Z</time></trkpt><trkpt lat="46.1852441" lon="13.4974382"><ele>664.0</ele><time>2026-05-02T12:11:41.135Z</time></trkpt><trkpt lat="46.1852892" lon="13.4973726"><ele>664.0</ele><time>2026-05-02T12:11:42.135Z</time></trkpt><trkpt lat="46.185355" lon="13.4973299"><ele>664.0</ele><time>2026-05-02T12:11:43.136Z</time></trkpt><trkpt lat="46.1854179" lon="13.4972809"><ele>664.0</ele><time>2026-05-02T12:11:44.135Z</time></trkpt><trkpt lat="46.185474" lon="13.4972189"><ele>664.0</ele><time>2026-05-02T12:11:45.135Z</time></trkpt><trkpt lat="46.1855284" lon="13.497063"><ele>662.2857142857142</ele><time>2026-05-02T12:11:47.135Z</time></trkpt><trkpt lat="46.1855486" lon="13.496958"><ele>660.5714285714287</ele><time>2026-05-02T12:11:48.135Z</time></trkpt><trkpt lat="46.1855586" lon="13.496852"><ele>658.8571428571429</ele><time>2026-05-02T12:11:49.135Z</time></trkpt><trkpt lat="46.1855735" lon="13.4967365"><ele>657.1428571428571</ele><time>2026-05-02T12:11:50.135Z</time></trkpt><trkpt lat="46.1855884" lon="13.4966261"><ele>655.4285714285713</ele><time>2026-05-02T12:11:51.135Z</time></trkpt><trkpt lat="46.1855985" lon="13.4965293"><ele>653.7142857142858</ele><time>2026-05-02T12:11:52.135Z</time></trkpt><trkpt lat="46.1856136" lon="13.4964376"><ele>652.0</ele><time>2026-05-02T12:11:53.135Z</time></trkpt><trkpt lat="46.1856462" lon="13.4963553"><ele>658.25</ele><time>2026-05-02T12:11:54.136Z</time></trkpt><trkpt lat="46.1857001" lon="13.496218"><ele>664.5</ele><time>2026-05-02T12:11:56.136Z</time></trkpt><trkpt lat="46.1857587" lon="13.4960843"><ele>670.75</ele><time>2026-05-02T12:11:58.135Z</time></trkpt><trkpt lat="46.1858293" lon="13.4959389"><ele>677.0</ele><time>2026-05-02T12:12:00.135Z</time></trkpt><trkpt lat="46.1859245" lon="13.4958323"><ele>677.0</ele><time>2026-05-02T12:12:02.135Z</time></trkpt><trkpt lat="46.1860357" lon="13.4957463"><ele>677.0</ele><time>2026-05-02T12:12:04.135Z</time></trkpt><trkpt lat="46.1860954" lon="13.4957041"><ele>677.0</ele><time>2026-05-02T12:12:05.135Z</time></trkpt><trkpt lat="46.1861981" lon="13.4956432"><ele>677.0</ele><time>2026-05-02T12:12:07.136Z</time></trkpt><trkpt lat="46.1863093" lon="13.4956749"><ele>677.0</ele><time>2026-05-02T12:12:09.135Z</time></trkpt><trkpt lat="46.1864183" lon="13.4957362"><ele>677.0</ele><time>2026-05-02T12:12:11.135Z</time></trkpt><trkpt lat="46.1864715" lon="13.4957894"><ele>677.0</ele><time>2026-05-02T12:12:12.136Z</time></trkpt><trkpt lat="46.1865333" lon="13.4958494"><ele>677.0</ele><time>2026-05-02T12:12:13.135Z</time></trkpt><trkpt lat="46.186595" lon="13.4959178"><ele>677.0</ele><time>2026-05-02T12:12:14.135Z</time></trkpt><trkpt lat="46.1866532" lon="13.4960008"><ele>677.0</ele><time>2026-05-02T12:12:15.135Z</time></trkpt><trkpt lat="46.1867155" lon="13.4960964"><ele>677.0</ele><time>2026-05-02T12:12:16.136Z</time></trkpt><trkpt lat="46.1867847" lon="13.4961932"><ele>682.0</ele><time>2026-05-02T12:12:17.135Z</time></trkpt><trkpt lat="46.1868565" lon="13.4962846"><ele>687.0</ele><time>2026-05-02T12:12:18.135Z</time></trkpt><trkpt lat="46.1869326" lon="13.496357"><ele>692.0</ele><time>2026-05-02T12:12:19.135Z</time></trkpt><trkpt lat="46.1870117" lon="13.4964263"><ele>697.0</ele><time>2026-05-02T12:12:20.135Z</time></trkpt><trkpt lat="46.1870879" lon="13.4964807"><ele>702.0</ele><time>2026-05-02T12:12:21.135Z</time></trkpt><trkpt lat="46.1871581" lon="13.4965389"><ele>707.0</ele><time>2026-05-02T12:12:22.135Z</time></trkpt><trkpt lat="46.1872329" lon="13.4965972"><ele>707.0</ele><time>2026-05-02T12:12:23.135Z</time></trkpt><trkpt lat="46.1873163" lon="13.4966636"><ele>707.0</ele><time>2026-05-02T12:12:24.136Z</time></trkpt><trkpt lat="46.1873941" lon="13.4967241"><ele>707.0</ele><time>2026-05-02T12:12:25.135Z</time></trkpt><trkpt lat="46.1874742" lon="13.4967764"><ele>707.0</ele><time>2026-05-02T12:12:26.136Z</time></trkpt><trkpt lat="46.1875485" lon="13.496825"><ele>707.0</ele><time>2026-05-02T12:12:27.133Z</time></trkpt><trkpt lat="46.1876179" lon="13.4968627"><ele>707.0</ele><time>2026-05-02T12:12:28.136Z</time></trkpt><trkpt lat="46.1876837" lon="13.4968856"><ele>704.6</ele><time>2026-05-02T12:12:29.135Z</time></trkpt><trkpt lat="46.1877935" lon="13.4969123"><ele>702.2</ele><time>2026-05-02T12:12:31.136Z</time></trkpt><trkpt lat="46.1879186" lon="13.4969506"><ele>699.8</ele><time>2026-05-02T12:12:33.136Z</time></trkpt><trkpt lat="46.1880029" lon="13.4969907"><ele>697.4</ele><time>2026-05-02T12:12:34.135Z</time></trkpt><trkpt lat="46.1880856" lon="13.4970347"><ele>695.0</ele><time>2026-05-02T12:12:35.135Z</time></trkpt><trkpt lat="46.1881698" lon="13.4970845"><ele>700.0</ele><time>2026-05-02T12:12:36.135Z</time></trkpt><trkpt lat="46.1882559" lon="13.4971294"><ele>705.0</ele><time>2026-05-02T12:12:37.135Z</time></trkpt><trkpt lat="46.1883304" lon="13.4971634"><ele>710.0</ele><time>2026-05-02T12:12:38.136Z</time></trkpt><trkpt lat="46.1883996" lon="13.4971949"><ele>715.0</ele><time>2026-05-02T12:12:39.135Z</time></trkpt><trkpt lat="46.1884725" lon="13.4972278"><ele>720.0</ele><time>2026-05-02T12:12:40.135Z</time></trkpt><trkpt lat="46.1885479" lon="13.497254"><ele>725.0</ele><time>2026-05-02T12:12:41.135Z</time></trkpt><trkpt lat="46.1886156" lon="13.4972763"><ele>725.0</ele><time>2026-05-02T12:12:42.135Z</time></trkpt><trkpt lat="46.1886804" lon="13.49729"><ele>725.0</ele><time>2026-05-02T12:12:43.135Z</time></trkpt><trkpt lat="46.1887447" lon="13.4973022"><ele>725.0</ele><time>2026-05-02T12:12:44.135Z</time></trkpt><trkpt lat="46.188817" lon="13.4973211"><ele>725.0</ele><time>2026-05-02T12:12:45.135Z</time></trkpt><trkpt lat="46.1888882" lon="13.4973384"><ele>725.0</ele><time>2026-05-02T12:12:46.135Z</time></trkpt><trkpt lat="46.1889526" lon="13.4973342"><ele>725.0</ele><time>2026-05-02T12:12:47.136Z</time></trkpt><trkpt lat="46.1890703" lon="13.4972729"><ele>726.8</ele><time>2026-05-02T12:12:49.135Z</time></trkpt><trkpt lat="46.1891328" lon="13.497223"><ele>728.6</ele><time>2026-05-02T12:12:50.135Z</time></trkpt><trkpt lat="46.1892308" lon="13.4971491"><ele>730.4000000000001</ele><time>2026-05-02T12:12:52.135Z</time></trkpt><trkpt lat="46.1893508" lon="13.4971075"><ele>732.2</ele><time>2026-05-02T12:12:54.136Z</time></trkpt><trkpt lat="46.189417" lon="13.4970847"><ele>734.0</ele><time>2026-05-02T12:12:55.135Z</time></trkpt><trkpt lat="46.1894911" lon="13.497053"><ele>729.7142857142857</ele><time>2026-05-02T12:12:56.135Z</time></trkpt><trkpt lat="46.1895703" lon="13.4970247"><ele>725.4285714285714</ele><time>2026-05-02T12:12:57.136Z</time></trkpt><trkpt lat="46.1896462" lon="13.4969988"><ele>721.1428571428571</ele><time>2026-05-02T12:12:58.135Z</time></trkpt><trkpt lat="46.1897157" lon="13.4969945"><ele>716.8571428571429</ele><time>2026-05-02T12:12:59.135Z</time></trkpt><trkpt lat="46.1897842" lon="13.4970053"><ele>712.5714285714286</ele><time>2026-05-02T12:13:00.136Z</time></trkpt><trkpt lat="46.1898575" lon="13.4970282"><ele>708.2857142857143</ele><time>2026-05-02T12:13:01.135Z</time></trkpt><trkpt lat="46.1899287" lon="13.4970442"><ele>704.0</ele><time>2026-05-02T12:13:02.136Z</time></trkpt><trkpt lat="46.1899924" lon="13.4970418"><ele>704.0</ele><time>2026-05-02T12:13:03.136Z</time></trkpt><trkpt lat="46.19008" lon="13.4970387"><ele>704.0</ele><time>2026-05-02T12:13:05.135Z</time></trkpt><trkpt lat="46.1901445" lon="13.4970638"><ele>704.0</ele><time>2026-05-02T12:13:07.135Z</time></trkpt><trkpt lat="46.1902163" lon="13.4971335"><ele>704.0</ele><time>2026-05-02T12:13:09.136Z</time></trkpt><trkpt lat="46.1903063" lon="13.4972416"><ele>704.0</ele><time>2026-05-02T12:13:11.135Z</time></trkpt><trkpt lat="46.1903829" lon="13.497354"><ele>710.3333333333333</ele><time>2026-05-02T12:13:13.136Z</time></trkpt><trkpt lat="46.1904699" lon="13.4974576"><ele>716.6666666666666</ele><time>2026-05-02T12:13:15.135Z</time></trkpt><trkpt lat="46.1905288" lon="13.4975048"><ele>723.0</ele><time>2026-05-02T12:13:16.136Z</time></trkpt><trkpt lat="46.1905982" lon="13.4975446"><ele>729.3333333333334</ele><time>2026-05-02T12:13:17.135Z</time></trkpt><trkpt lat="46.1906601" lon="13.4975901"><ele>735.6666666666667</ele><time>2026-05-02T12:13:18.136Z</time></trkpt><trkpt lat="46.1907193" lon="13.4976624"><ele>742.0</ele><time>2026-05-02T12:13:19.136Z</time></trkpt><trkpt lat="46.1907808" lon="13.4977381"><ele>742.0</ele><time>2026-05-02T12:13:20.135Z</time></trkpt><trkpt lat="46.1908425" lon="13.4978082"><ele>742.0</ele><time>2026-05-02T12:13:21.135Z</time></trkpt><trkpt lat="46.1908985" lon="13.4978521"><ele>742.0</ele><time>2026-05-02T12:13:22.135Z</time></trkpt><trkpt lat="46.1910189" lon="13.4978973"><ele>742.0</ele><time>2026-05-02T12:13:24.135Z</time></trkpt><trkpt lat="46.1911284" lon="13.4979695"><ele>742.0</ele><time>2026-05-02T12:13:26.135Z</time></trkpt><trkpt lat="46.1912236" lon="13.4980593"><ele>738.3333333333334</ele><time>2026-05-02T12:13:28.135Z</time></trkpt><trkpt lat="46.1913451" lon="13.4980687"><ele>734.6666666666667</ele><time>2026-05-02T12:13:30.135Z</time></trkpt><trkpt lat="46.1914102" lon="13.4980548"><ele>731.0</ele><time>2026-05-02T12:13:31.135Z</time></trkpt><trkpt lat="46.191473" lon="13.4980394"><ele>727.3333333333334</ele><time>2026-05-02T12:13:32.136Z</time></trkpt><trkpt lat="46.1915398" lon="13.4980099"><ele>723.6666666666666</ele><time>2026-05-02T12:13:33.135Z</time></trkpt><trkpt lat="46.1916026" lon="13.4979657"><ele>720.0</ele><time>2026-05-02T12:13:34.135Z</time></trkpt><trkpt lat="46.1916644" lon="13.4979095"><ele>720.0</ele><time>2026-05-02T12:13:35.135Z</time></trkpt><trkpt lat="46.1917185" lon="13.4978468"><ele>720.0</ele><time>2026-05-02T12:13:36.135Z</time></trkpt><trkpt lat="46.1917702" lon="13.4977939"><ele>720.0</ele><time>2026-05-02T12:13:37.135Z</time></trkpt><trkpt lat="46.1918779" lon="13.4977169"><ele>720.0</ele><time>2026-05-02T12:13:39.135Z</time></trkpt><trkpt lat="46.191981" lon="13.4976813"><ele>720.0</ele><time>2026-05-02T12:13:41.136Z</time></trkpt><trkpt lat="46.1920909" lon="13.4977187"><ele>720.0</ele><time>2026-05-02T12:13:43.135Z</time></trkpt><trkpt lat="46.1921906" lon="13.4977405"><ele>720.0</ele><time>2026-05-02T12:13:45.135Z</time></trkpt><trkpt lat="46.1922899" lon="13.4977445"><ele>720.0</ele><time>2026-05-02T12:13:47.135Z</time></trkpt><trkpt lat="46.1923866" lon="13.4977611"><ele>720.0</ele><time>2026-05-02T12:13:49.136Z</time></trkpt><trkpt lat="46.1924599" lon="13.497861"><ele>720.0</ele><time>2026-05-02T12:13:51.136Z</time></trkpt><trkpt lat="46.192475" lon="13.4980298"><ele>722.0</ele><time>2026-05-02T12:13:53.136Z</time></trkpt><trkpt lat="46.1924765" lon="13.4981291"><ele>724.0</ele><time>2026-05-02T12:13:54.135Z</time></trkpt><trkpt lat="46.1924777" lon="13.4982216"><ele>726.0</ele><time>2026-05-02T12:13:55.136Z</time></trkpt><trkpt lat="46.1924841" lon="13.4983138"><ele>728.0</ele><time>2026-05-02T12:13:56.135Z</time></trkpt><trkpt lat="46.1924874" lon="13.4984086"><ele>730.0</ele><time>2026-05-02T12:13:57.136Z</time></trkpt><trkpt lat="46.1924913" lon="13.4985117"><ele>732.0</ele><time>2026-05-02T12:13:58.135Z</time></trkpt><trkpt lat="46.1924903" lon="13.4986308"><ele>734.0</ele><time>2026-05-02T12:13:59.135Z</time></trkpt><trkpt lat="46.1924841" lon="13.4987458"><ele>734.7142857142857</ele><time>2026-05-02T12:14:00.135Z</time></trkpt><trkpt lat="46.1924825" lon="13.4988598"><ele>735.4285714285714</ele><time>2026-05-02T12:14:01.135Z</time></trkpt><trkpt lat="46.1924808" lon="13.498958"><ele>736.1428571428571</ele><time>2026-05-02T12:14:02.136Z</time></trkpt><trkpt lat="46.1924841" lon="13.499066"><ele>736.8571428571429</ele><time>2026-05-02T12:14:03.136Z</time></trkpt><trkpt lat="46.1925024" lon="13.4991642"><ele>737.5714285714287</ele><time>2026-05-02T12:14:04.135Z</time></trkpt><trkpt lat="46.1925144" lon="13.4992671"><ele>738.2857142857143</ele><time>2026-05-02T12:14:05.135Z</time></trkpt><trkpt lat="46.1925237" lon="13.4993607"><ele>739.0</ele><time>2026-05-02T12:14:06.136Z</time></trkpt><trkpt lat="46.1925634" lon="13.4995091"><ele>740.1666666666667</ele><time>2026-05-02T12:14:08.136Z</time></trkpt><trkpt lat="46.1926157" lon="13.4996278"><ele>741.3333333333334</ele><time>2026-05-02T12:14:10.135Z</time></trkpt><trkpt lat="46.1926431" lon="13.499745"><ele>742.5</ele><time>2026-05-02T12:14:12.135Z</time></trkpt><trkpt lat="46.1925973" lon="13.4998988"><ele>743.6666666666666</ele><time>2026-05-02T12:14:14.136Z</time></trkpt><trkpt lat="46.1925673" lon="13.4999963"><ele>744.8333333333333</ele><time>2026-05-02T12:14:15.135Z</time></trkpt><trkpt lat="46.1925576" lon="13.5000875"><ele>746.0</ele><time>2026-05-02T12:14:16.136Z</time></trkpt><trkpt lat="46.1925941" lon="13.5002336"><ele>746.0</ele><time>2026-05-02T12:14:18.135Z</time></trkpt><trkpt lat="46.1926789" lon="13.5002882"><ele>746.0</ele><time>2026-05-02T12:14:20.135Z</time></trkpt><trkpt lat="46.1927994" lon="13.5002725"><ele>746.0</ele><time>2026-05-02T12:14:22.136Z</time></trkpt><trkpt lat="46.1929168" lon="13.5002481"><ele>746.0</ele><time>2026-05-02T12:14:24.135Z</time></trkpt><trkpt lat="46.193026" lon="13.5002488"><ele>746.0</ele><time>2026-05-02T12:14:26.136Z</time></trkpt><trkpt lat="46.1931351" lon="13.5002043"><ele>739.1999999999999</ele><time>2026-05-02T12:14:28.136Z</time></trkpt><trkpt lat="46.1932396" lon="13.5001373"><ele>732.4</ele><time>2026-05-02T12:14:30.135Z</time></trkpt><trkpt lat="46.1933322" lon="13.5000811"><ele>725.6</ele><time>2026-05-02T12:14:32.136Z</time></trkpt><trkpt lat="46.193409" lon="13.5000365"><ele>718.8</ele><time>2026-05-02T12:14:34.134Z</time></trkpt><trkpt lat="46.193503" lon="13.5000687"><ele>712.0</ele><time>2026-05-02T12:14:37.135Z</time></trkpt><trkpt lat="46.193568" lon="13.5001079"><ele>712.0</ele><time>2026-05-02T12:14:38.134Z</time></trkpt><trkpt lat="46.193638" lon="13.5001731"><ele>712.0</ele><time>2026-05-02T12:14:39.135Z</time></trkpt><trkpt lat="46.193682" lon="13.500249"><ele>712.0</ele><time>2026-05-02T12:14:40.134Z</time></trkpt><trkpt lat="46.193732" lon="13.500376"><ele>712.0</ele><time>2026-05-02T12:14:42.134Z</time></trkpt><trkpt lat="46.1937271" lon="13.5004914"><ele>712.0</ele><time>2026-05-02T12:14:44.135Z</time></trkpt><trkpt lat="46.1936477" lon="13.5006425"><ele>717.8333333333334</ele><time>2026-05-02T12:14:46.135Z</time></trkpt><trkpt lat="46.1936237" lon="13.5007297"><ele>723.6666666666667</ele><time>2026-05-02T12:14:47.135Z</time></trkpt><trkpt lat="46.1936186" lon="13.5008213"><ele>729.5</ele><time>2026-05-02T12:14:48.134Z</time></trkpt><trkpt lat="46.1936108" lon="13.5009217"><ele>735.3333333333334</ele><time>2026-05-02T12:14:49.135Z</time></trkpt><trkpt lat="46.1936222" lon="13.5010665"><ele>741.1666666666666</ele><time>2026-05-02T12:14:51.135Z</time></trkpt><trkpt lat="46.1936676" lon="13.5011546"><ele>747.0</ele><time>2026-05-02T12:14:53.134Z</time></trkpt><trkpt lat="46.1937613" lon="13.5012324"><ele>750.7142857142857</ele><time>2026-05-02T12:14:55.135Z</time></trkpt><trkpt lat="46.1938245" lon="13.5012861"><ele>754.4285714285714</ele><time>2026-05-02T12:14:56.134Z</time></trkpt><trkpt lat="46.1939027" lon="13.5013408"><ele>758.1428571428571</ele><time>2026-05-02T12:14:57.134Z</time></trkpt><trkpt lat="46.1939657" lon="13.5013831"><ele>761.8571428571429</ele><time>2026-05-02T12:14:58.134Z</time></trkpt><trkpt lat="46.1940378" lon="13.501416"><ele>765.5714285714286</ele><time>2026-05-02T12:14:59.135Z</time></trkpt><trkpt lat="46.1941078" lon="13.5014453"><ele>769.2857142857142</ele><time>2026-05-02T12:15:00.135Z</time></trkpt><trkpt lat="46.1941724" lon="13.501487"><ele>773.0</ele><time>2026-05-02T12:15:01.134Z</time></trkpt><trkpt lat="46.194271" lon="13.5015818"><ele>773.0000000000001</ele><time>2026-05-02T12:15:03.135Z</time></trkpt><trkpt lat="46.1943239" lon="13.5016419"><ele>773.0</ele><time>2026-05-02T12:15:04.135Z</time></trkpt><trkpt lat="46.194394" lon="13.5017055"><ele>773.0</ele><time>2026-05-02T12:15:05.134Z</time></trkpt><trkpt lat="46.1944729" lon="13.5017719"><ele>773.0</ele><time>2026-05-02T12:15:06.135Z</time></trkpt><trkpt lat="46.194552" lon="13.5018538"><ele>773.0000000000001</ele><time>2026-05-02T12:15:07.134Z</time></trkpt><trkpt lat="46.1946356" lon="13.5019446"><ele>773.0</ele><time>2026-05-02T12:15:08.135Z</time></trkpt><trkpt lat="46.1947118" lon="13.5020346"><ele>773.0</ele><time>2026-05-02T12:15:09.134Z</time></trkpt><trkpt lat="46.1947729" lon="13.5021037"><ele>773.0</ele><time>2026-05-02T12:15:10.134Z</time></trkpt><trkpt lat="46.1948228" lon="13.5021656"><ele>773.0</ele><time>2026-05-02T12:15:11.134Z</time></trkpt><trkpt lat="46.1949061" lon="13.5022828"><ele>773.0</ele><time>2026-05-02T12:15:13.134Z</time></trkpt><trkpt lat="46.1949796" lon="13.5024377"><ele>773.0</ele><time>2026-05-02T12:15:15.135Z</time></trkpt><trkpt lat="46.1950269" lon="13.5025117"><ele>773.0000000000001</ele><time>2026-05-02T12:15:16.135Z</time></trkpt><trkpt lat="46.1950717" lon="13.5025794"><ele>773.0</ele><time>2026-05-02T12:15:17.134Z</time></trkpt><trkpt lat="46.1951128" lon="13.5026587"><ele>773.0</ele><time>2026-05-02T12:15:18.135Z</time></trkpt><trkpt lat="46.1951856" lon="13.5027993"><ele>773.0</ele><time>2026-05-02T12:15:20.135Z</time></trkpt><trkpt lat="46.1952422" lon="13.5028504"><ele>773.0000000000001</ele><time>2026-05-02T12:15:22.134Z</time></trkpt><trkpt lat="46.1953285" lon="13.5029158"><ele>773.0</ele><time>2026-05-02T12:15:24.135Z</time></trkpt><trkpt lat="46.1953999" lon="13.5030306"><ele>773.0000000000001</ele><time>2026-05-02T12:15:26.135Z</time></trkpt><trkpt lat="46.1954413" lon="13.5031696"><ele>773.0</ele><time>2026-05-02T12:15:28.134Z</time></trkpt><trkpt lat="46.1955171" lon="13.5032041"><ele>773.0</ele><time>2026-05-02T12:15:31.135Z</time></trkpt><trkpt lat="46.1955785" lon="13.5032695"><ele>773.0</ele><time>2026-05-02T12:15:33.134Z</time></trkpt><trkpt lat="46.1956138" lon="13.5033463"><ele>773.0000000000001</ele><time>2026-05-02T12:15:34.134Z</time></trkpt><trkpt lat="46.1956437" lon="13.5034374"><ele>773.0</ele><time>2026-05-02T12:15:35.135Z</time></trkpt><trkpt lat="46.1956784" lon="13.5035216"><ele>773.0</ele><time>2026-05-02T12:15:36.134Z</time></trkpt><trkpt lat="46.1957989" lon="13.503628"><ele>773.0</ele><time>2026-05-02T12:15:38.134Z</time></trkpt><trkpt lat="46.1958683" lon="13.5036863"><ele>773.0</ele><time>2026-05-02T12:15:39.135Z</time></trkpt><trkpt lat="46.1959247" lon="13.5037482"><ele>773.0</ele><time>2026-05-02T12:15:40.134Z</time></trkpt><trkpt lat="46.1959807" lon="13.5038112"><ele>773.0</ele><time>2026-05-02T12:15:41.134Z</time></trkpt><trkpt lat="46.1960678" lon="13.5039446"><ele>773.0000000000001</ele><time>2026-05-02T12:15:43.135Z</time></trkpt><trkpt lat="46.1961454" lon="13.5040616"><ele>773.0</ele><time>2026-05-02T12:15:45.134Z</time></trkpt><trkpt lat="46.1962245" lon="13.5041954"><ele>773.0</ele><time>2026-05-02T12:15:47.134Z</time></trkpt><trkpt lat="46.1962678" lon="13.5042759"><ele>773.0</ele><time>2026-05-02T12:15:48.135Z</time></trkpt><trkpt lat="46.1963063" lon="13.5043574"><ele>773.0000000000001</ele><time>2026-05-02T12:15:49.135Z</time></trkpt><trkpt lat="46.1963299" lon="13.5044497"><ele>773.0</ele><time>2026-05-02T12:15:50.135Z</time></trkpt><trkpt lat="46.1963417" lon="13.5045683"><ele>773.0</ele><time>2026-05-02T12:15:51.134Z</time></trkpt><trkpt lat="46.1963316" lon="13.5047128"><ele>773.0</ele><time>2026-05-02T12:15:52.134Z</time></trkpt><trkpt lat="46.1963226" lon="13.5048527"><ele>773.0</ele><time>2026-05-02T12:15:53.135Z</time></trkpt><trkpt lat="46.1963128" lon="13.5049687"><ele>773.0</ele><time>2026-05-02T12:15:54.134Z</time></trkpt><trkpt lat="46.1963396" lon="13.5051138"><ele>773.0</ele><time>2026-05-02T12:15:56.134Z</time></trkpt><trkpt lat="46.196399" lon="13.5052577"><ele>773.0000000000001</ele><time>2026-05-02T12:15:58.134Z</time></trkpt><trkpt lat="46.1964446" lon="13.5054209"><ele>773.0</ele><time>2026-05-02T12:16:00.134Z</time></trkpt><trkpt lat="46.1964286" lon="13.5055613"><ele>773.0</ele><time>2026-05-02T12:16:02.134Z</time></trkpt><trkpt lat="46.196429" lon="13.5056589"><ele>773.0</ele><time>2026-05-02T12:16:04.135Z</time></trkpt><trkpt lat="46.1964771" lon="13.5057277"><ele>773.0000000000001</ele><time>2026-05-02T12:16:07.135Z</time></trkpt><trkpt lat="46.1965413" lon="13.5056943"><ele>773.0</ele><time>2026-05-02T12:16:09.135Z</time></trkpt><trkpt lat="46.1966123" lon="13.5056897"><ele>773.0</ele><time>2026-05-02T12:16:10.135Z</time></trkpt><trkpt lat="46.1967244" lon="13.5056868"><ele>773.0</ele><time>2026-05-02T12:16:12.135Z</time></trkpt><trkpt lat="46.1968153" lon="13.5057312"><ele>773.0</ele><time>2026-05-02T12:16:14.135Z</time></trkpt><trkpt lat="46.196888" lon="13.5058603"><ele>773.0</ele><time>2026-05-02T12:16:16.134Z</time></trkpt><trkpt lat="46.1969305" lon="13.5059374"><ele>773.0</ele><time>2026-05-02T12:16:17.135Z</time></trkpt><trkpt lat="46.1969564" lon="13.5060277"><ele>773.0000000000001</ele><time>2026-05-02T12:16:18.135Z</time></trkpt><trkpt lat="46.1969844" lon="13.5061224"><ele>773.0</ele><time>2026-05-02T12:16:19.134Z</time></trkpt><trkpt lat="46.1970146" lon="13.5062171"><ele>773.0</ele><time>2026-05-02T12:16:20.134Z</time></trkpt><trkpt lat="46.1970464" lon="13.506318"><ele>773.0</ele><time>2026-05-02T12:16:21.135Z</time></trkpt><trkpt lat="46.1970682" lon="13.5064192"><ele>773.0000000000001</ele><time>2026-05-02T12:16:22.134Z</time></trkpt><trkpt lat="46.197098" lon="13.5065804"><ele>773.0</ele><time>2026-05-02T12:16:24.134Z</time></trkpt><trkpt lat="46.1971181" lon="13.5067416"><ele>773.0000000000001</ele><time>2026-05-02T12:16:26.134Z</time></trkpt><trkpt lat="46.1971314" lon="13.5068962"><ele>773.0</ele><time>2026-05-02T12:16:28.134Z</time></trkpt><trkpt lat="46.1971372" lon="13.5069943"><ele>773.0</ele><time>2026-05-02T12:16:29.134Z</time></trkpt><trkpt lat="46.1971349" lon="13.5070874"><ele>773.0</ele><time>2026-05-02T12:16:30.134Z</time></trkpt><trkpt lat="46.1971352" lon="13.5071787"><ele>773.0000000000001</ele><time>2026-05-02T12:16:31.134Z</time></trkpt><trkpt lat="46.1971529" lon="13.5072687"><ele>773.0</ele><time>2026-05-02T12:16:32.135Z</time></trkpt><trkpt lat="46.1971822" lon="13.5074117"><ele>773.0000000000001</ele><time>2026-05-02T12:16:34.135Z</time></trkpt><trkpt lat="46.197222" lon="13.5075935"><ele>773.0</ele><time>2026-05-02T12:16:36.134Z</time></trkpt><trkpt lat="46.197245" lon="13.5076821"><ele>773.0</ele><time>2026-05-02T12:16:37.134Z</time></trkpt><trkpt lat="46.1972833" lon="13.5078004"><ele>773.0</ele><time>2026-05-02T12:16:39.135Z</time></trkpt><trkpt lat="46.1973515" lon="13.5078347"><ele>773.0000000000001</ele><time>2026-05-02T12:16:41.135Z</time></trkpt><trkpt lat="46.1974117" lon="13.5077875"><ele>773.0</ele><time>2026-05-02T12:16:43.135Z</time></trkpt><trkpt lat="46.1974666" lon="13.5076758"><ele>773.0</ele><time>2026-05-02T12:16:45.135Z</time></trkpt><trkpt lat="46.1975306" lon="13.5075706"><ele>773.0</ele><time>2026-05-02T12:16:47.134Z</time></trkpt><trkpt lat="46.1975844" lon="13.5074441"><ele>773.0</ele><time>2026-05-02T12:16:49.135Z</time></trkpt><trkpt lat="46.197633" lon="13.5073127"><ele>773.0</ele><time>2026-05-02T12:16:51.135Z</time></trkpt><trkpt lat="46.1976857" lon="13.5071911"><ele>773.0</ele><time>2026-05-02T12:16:53.135Z</time></trkpt><trkpt lat="46.1977507" lon="13.5070689"><ele>773.0000000000001</ele><time>2026-05-02T12:16:55.134Z</time></trkpt><trkpt lat="46.1978065" lon="13.5069407"><ele>773.0</ele><time>2026-05-02T12:16:57.134Z</time></trkpt><trkpt lat="46.1978478" lon="13.5067841"><ele>773.0</ele><time>2026-05-02T12:16:59.134Z</time></trkpt><trkpt lat="46.1978722" lon="13.5066948"><ele>773.0</ele><time>2026-05-02T12:17:00.134Z</time></trkpt><trkpt lat="46.197889" lon="13.5066059"><ele>773.0000000000001</ele><time>2026-05-02T12:17:01.134Z</time></trkpt><trkpt lat="46.1979077" lon="13.5065079"><ele>773.0</ele><time>2026-05-02T12:17:02.134Z</time></trkpt><trkpt lat="46.1979268" lon="13.50641"><ele>773.0</ele><time>2026-05-02T12:17:03.134Z</time></trkpt><trkpt lat="46.1979453" lon="13.5063103"><ele>773.0</ele><time>2026-05-02T12:17:04.135Z</time></trkpt><trkpt lat="46.1979706" lon="13.5062228"><ele>773.0</ele><time>2026-05-02T12:17:05.135Z</time></trkpt><trkpt lat="46.1979934" lon="13.5061196"><ele>773.0</ele><time>2026-05-02T12:17:06.134Z</time></trkpt><trkpt lat="46.1980103" lon="13.5060267"><ele>773.0</ele><time>2026-05-02T12:17:07.134Z</time></trkpt><trkpt lat="46.1980245" lon="13.5059348"><ele>773.0</ele><time>2026-05-02T12:17:08.134Z</time></trkpt><trkpt lat="46.198043" lon="13.505839"><ele>773.0</ele><time>2026-05-02T12:17:09.134Z</time></trkpt><trkpt lat="46.1980558" lon="13.5057475"><ele>772.7142857142857</ele><time>2026-05-02T12:17:10.135Z</time></trkpt><trkpt lat="46.1980645" lon="13.5056471"><ele>772.4285714285713</ele><time>2026-05-02T12:17:11.135Z</time></trkpt><trkpt lat="46.1980802" lon="13.5055495"><ele>772.1428571428571</ele><time>2026-05-02T12:17:12.135Z</time></trkpt><trkpt lat="46.1980913" lon="13.5054494"><ele>771.8571428571429</ele><time>2026-05-02T12:17:13.134Z</time></trkpt><trkpt lat="46.1981039" lon="13.5053466"><ele>771.5714285714286</ele><time>2026-05-02T12:17:14.134Z</time></trkpt><trkpt lat="46.1981197" lon="13.5052464"><ele>771.2857142857143</ele><time>2026-05-02T12:17:15.135Z</time></trkpt><trkpt lat="46.1981456" lon="13.5051257"><ele>771.0</ele><time>2026-05-02T12:17:16.134Z</time></trkpt><trkpt lat="46.1981764" lon="13.5050148"><ele>771.0</ele><time>2026-05-02T12:17:17.135Z</time></trkpt><trkpt lat="46.1982073" lon="13.5049148"><ele>771.0</ele><time>2026-05-02T12:17:18.134Z</time></trkpt><trkpt lat="46.1982326" lon="13.5048151"><ele>771.0</ele><time>2026-05-02T12:17:19.135Z</time></trkpt><trkpt lat="46.1982481" lon="13.5047059"><ele>771.0</ele><time>2026-05-02T12:17:20.134Z</time></trkpt><trkpt lat="46.1982563" lon="13.504597"><ele>771.0</ele><time>2026-05-02T12:17:21.135Z</time></trkpt><trkpt lat="46.1982689" lon="13.5045013"><ele>771.0</ele><time>2026-05-02T12:17:22.135Z</time></trkpt><trkpt lat="46.1982745" lon="13.5043928"><ele>771.0</ele><time>2026-05-02T12:17:23.135Z</time></trkpt><trkpt lat="46.1982786" lon="13.5042626"><ele>769.5999999999999</ele><time>2026-05-02T12:17:24.134Z</time></trkpt><trkpt lat="46.1982907" lon="13.5041173"><ele>768.2</ele><time>2026-05-02T12:17:25.135Z</time></trkpt><trkpt lat="46.1983108" lon="13.5039758"><ele>766.8</ele><time>2026-05-02T12:17:26.135Z</time></trkpt><trkpt lat="46.1983316" lon="13.503821"><ele>765.4000000000001</ele><time>2026-05-02T12:17:27.135Z</time></trkpt><trkpt lat="46.1983494" lon="13.503668"><ele>764.0</ele><time>2026-05-02T12:17:28.134Z</time></trkpt><trkpt lat="46.1983674" lon="13.5035167"><ele>763.6</ele><time>2026-05-02T12:17:29.135Z</time></trkpt><trkpt lat="46.1983849" lon="13.5033696"><ele>763.2</ele><time>2026-05-02T12:17:30.135Z</time></trkpt><trkpt lat="46.1984013" lon="13.50323"><ele>762.8000000000001</ele><time>2026-05-02T12:17:31.134Z</time></trkpt><trkpt lat="46.1984173" lon="13.5030909"><ele>762.4000000000001</ele><time>2026-05-02T12:17:32.135Z</time></trkpt><trkpt lat="46.1984355" lon="13.5029514"><ele>762.0</ele><time>2026-05-02T12:17:33.134Z</time></trkpt><trkpt lat="46.198451" lon="13.5028063"><ele>761.0</ele><time>2026-05-02T12:17:34.134Z</time></trkpt><trkpt lat="46.1984575" lon="13.5026667"><ele>760.0</ele><time>2026-05-02T12:17:35.134Z</time></trkpt><trkpt lat="46.1984673" lon="13.5025438"><ele>759.0</ele><time>2026-05-02T12:17:36.134Z</time></trkpt><trkpt lat="46.1984704" lon="13.5024351"><ele>758.0</ele><time>2026-05-02T12:17:37.135Z</time></trkpt><trkpt lat="46.198491" lon="13.5023283"><ele>757.0</ele><time>2026-05-02T12:17:38.135Z</time></trkpt><trkpt lat="46.1985243" lon="13.502214"><ele>756.0</ele><time>2026-05-02T12:17:39.135Z</time></trkpt><trkpt lat="46.1985601" lon="13.5020875"><ele>754.8</ele><time>2026-05-02T12:17:40.134Z</time></trkpt><trkpt lat="46.1985828" lon="13.5019542"><ele>753.5999999999999</ele><time>2026-05-02T12:17:41.135Z</time></trkpt><trkpt lat="46.1985881" lon="13.5018212"><ele>752.4</ele><time>2026-05-02T12:17:42.134Z</time></trkpt><trkpt lat="46.198594" lon="13.5016889"><ele>751.2</ele><time>2026-05-02T12:17:43.134Z</time></trkpt><trkpt lat="46.1985984" lon="13.5015579"><ele>750.0</ele><time>2026-05-02T12:17:44.135Z</time></trkpt><trkpt lat="46.1985948" lon="13.5014291"><ele>750.0</ele><time>2026-05-02T12:17:45.134Z</time></trkpt><trkpt lat="46.1985961" lon="13.5013132"><ele>750.0</ele><time>2026-05-02T12:17:46.134Z</time></trkpt><trkpt lat="46.198597" lon="13.5012001"><ele>750.0</ele><time>2026-05-02T12:17:47.134Z</time></trkpt><trkpt lat="46.1986147" lon="13.5010824"><ele>750.0</ele><time>2026-05-02T12:17:48.135Z</time></trkpt><trkpt lat="46.1986432" lon="13.5009572"><ele>750.0</ele><time>2026-05-02T12:17:49.134Z</time></trkpt><trkpt lat="46.1986673" lon="13.500831"><ele>750.0</ele><time>2026-05-02T12:17:50.135Z</time></trkpt><trkpt lat="46.1986878" lon="13.5007048"><ele>749.8333333333334</ele><time>2026-05-02T12:17:51.135Z</time></trkpt><trkpt lat="46.1986923" lon="13.5005853"><ele>749.6666666666666</ele><time>2026-05-02T12:17:52.134Z</time></trkpt><trkpt lat="46.1986839" lon="13.5004807"><ele>749.5</ele><time>2026-05-02T12:17:53.134Z</time></trkpt><trkpt lat="46.1986696" lon="13.5003802"><ele>749.3333333333333</ele><time>2026-05-02T12:17:54.134Z</time></trkpt><trkpt lat="46.1986436" lon="13.5002254"><ele>749.1666666666666</ele><time>2026-05-02T12:17:56.135Z</time></trkpt><trkpt lat="46.1986068" lon="13.5001015"><ele>749.0</ele><time>2026-05-02T12:17:58.134Z</time></trkpt><trkpt lat="46.1985856" lon="13.4999942"><ele>748.4000000000001</ele><time>2026-05-02T12:18:18.135Z</time></trkpt><trkpt lat="46.1986024" lon="13.4998689"><ele>747.8</ele><time>2026-05-02T12:18:20.134Z</time></trkpt><trkpt lat="46.1986266" lon="13.4997114"><ele>747.2</ele><time>2026-05-02T12:18:22.134Z</time></trkpt><trkpt lat="46.1986458" lon="13.4995481"><ele>746.5999999999999</ele><time>2026-05-02T12:18:24.134Z</time></trkpt><trkpt lat="46.1986553" lon="13.4994347"><ele>746.0</ele><time>2026-05-02T12:18:25.135Z</time></trkpt><trkpt lat="46.198671" lon="13.4993208"><ele>745.3333333333333</ele><time>2026-05-02T12:18:26.134Z</time></trkpt><trkpt lat="46.1986758" lon="13.499206"><ele>744.6666666666666</ele><time>2026-05-02T12:18:27.134Z</time></trkpt><trkpt lat="46.1986892" lon="13.4991066"><ele>744.0</ele><time>2026-05-02T12:18:28.134Z</time></trkpt><trkpt lat="46.1986973" lon="13.4989271"><ele>743.3333333333334</ele><time>2026-05-02T12:18:30.135Z</time></trkpt><trkpt lat="46.1986805" lon="13.498823"><ele>742.6666666666667</ele><time>2026-05-02T12:18:31.135Z</time></trkpt><trkpt lat="46.1986598" lon="13.4987075"><ele>742.0</ele><time>2026-05-02T12:18:32.134Z</time></trkpt><trkpt lat="46.198643" lon="13.4985879"><ele>743.3333333333334</ele><time>2026-05-02T12:18:33.134Z</time></trkpt><trkpt lat="46.1986299" lon="13.498464"><ele>744.6666666666667</ele><time>2026-05-02T12:18:34.133Z</time></trkpt><trkpt lat="46.1986236" lon="13.4983433"><ele>746.0</ele><time>2026-05-02T12:18:35.133Z</time></trkpt><trkpt lat="46.1986184" lon="13.498236"><ele>747.3333333333334</ele><time>2026-05-02T12:18:36.134Z</time></trkpt><trkpt lat="46.1986186" lon="13.4981348"><ele>748.6666666666666</ele><time>2026-05-02T12:18:37.133Z</time></trkpt><trkpt lat="46.1986235" lon="13.4980279"><ele>750.0</ele><time>2026-05-02T12:18:38.133Z</time></trkpt><trkpt lat="46.1986355" lon="13.4979128"><ele>750.3333333333334</ele><time>2026-05-02T12:18:39.134Z</time></trkpt><trkpt lat="46.1986531" lon="13.4978034"><ele>750.6666666666666</ele><time>2026-05-02T12:18:40.133Z</time></trkpt><trkpt lat="46.1986682" lon="13.4976859"><ele>751.0</ele><time>2026-05-02T12:18:41.134Z</time></trkpt><trkpt lat="46.1986872" lon="13.497567"><ele>751.3333333333333</ele><time>2026-05-02T12:18:42.133Z</time></trkpt><trkpt lat="46.1987116" lon="13.4974509"><ele>751.6666666666666</ele><time>2026-05-02T12:18:43.133Z</time></trkpt><trkpt lat="46.1987422" lon="13.4973338"><ele>752.0</ele><time>2026-05-02T12:18:44.134Z</time></trkpt><trkpt lat="46.1987799" lon="13.4972144"><ele>752.0</ele><time>2026-05-02T12:18:45.134Z</time></trkpt><trkpt lat="46.1988202" lon="13.4970975"><ele>752.0</ele><time>2026-05-02T12:18:46.134Z</time></trkpt><trkpt lat="46.1988517" lon="13.4969768"><ele>752.0</ele><time>2026-05-02T12:18:47.133Z</time></trkpt><trkpt lat="46.1988713" lon="13.4968571"><ele>752.0</ele><time>2026-05-02T12:18:48.134Z</time></trkpt><trkpt lat="46.1988764" lon="13.4967353"><ele>752.0</ele><time>2026-05-02T12:18:49.133Z</time></trkpt><trkpt lat="46.1988745" lon="13.4966118"><ele>752.0</ele><time>2026-05-02T12:18:50.133Z</time></trkpt><trkpt lat="46.1988614" lon="13.4964821"><ele>752.1666666666666</ele><time>2026-05-02T12:18:51.134Z</time></trkpt><trkpt lat="46.1988492" lon="13.4963506"><ele>752.3333333333333</ele><time>2026-05-02T12:18:52.133Z</time></trkpt><trkpt lat="46.1988408" lon="13.4962259"><ele>752.5</ele><time>2026-05-02T12:18:53.133Z</time></trkpt><trkpt lat="46.1988285" lon="13.4961032"><ele>752.6666666666666</ele><time>2026-05-02T12:18:54.133Z</time></trkpt><trkpt lat="46.1988193" lon="13.4959853"><ele>752.8333333333334</ele><time>2026-05-02T12:18:55.133Z</time></trkpt><trkpt lat="46.1987945" lon="13.4958849"><ele>753.0</ele><time>2026-05-02T12:18:56.133Z</time></trkpt><trkpt lat="46.1987696" lon="13.4957793"><ele>753.0</ele><time>2026-05-02T12:18:57.134Z</time></trkpt><trkpt lat="46.1987475" lon="13.4956686"><ele>753.0</ele><time>2026-05-02T12:18:58.134Z</time></trkpt><trkpt lat="46.198728" lon="13.495552"><ele>753.0</ele><time>2026-05-02T12:18:59.133Z</time></trkpt><trkpt lat="46.1987138" lon="13.4954451"><ele>753.0</ele><time>2026-05-02T12:19:00.134Z</time></trkpt><trkpt lat="46.1986921" lon="13.495355"><ele>753.0</ele><time>2026-05-02T12:19:01.133Z</time></trkpt><trkpt lat="46.198654" lon="13.4951765"><ele>753.0</ele><time>2026-05-02T12:19:03.133Z</time></trkpt><trkpt lat="46.1986396" lon="13.4950666"><ele>754.0</ele><time>2026-05-02T12:19:04.134Z</time></trkpt><trkpt lat="46.1986272" lon="13.4949463"><ele>755.0</ele><time>2026-05-02T12:19:05.133Z</time></trkpt><trkpt lat="46.1986136" lon="13.4948261"><ele>756.0</ele><time>2026-05-02T12:19:06.133Z</time></trkpt><trkpt lat="46.1985972" lon="13.4947022"><ele>757.0</ele><time>2026-05-02T12:19:07.134Z</time></trkpt><trkpt lat="46.1985806" lon="13.4945744"><ele>758.0</ele><time>2026-05-02T12:19:08.134Z</time></trkpt><trkpt lat="46.1985709" lon="13.4944479"><ele>759.0</ele><time>2026-05-02T12:19:09.133Z</time></trkpt><trkpt lat="46.1985704" lon="13.4943263"><ele>759.6666666666666</ele><time>2026-05-02T12:19:10.133Z</time></trkpt><trkpt lat="46.1985733" lon="13.4942107"><ele>760.3333333333334</ele><time>2026-05-02T12:19:11.133Z</time></trkpt><trkpt lat="46.1985804" lon="13.494098"><ele>761.0</ele><time>2026-05-02T12:19:12.133Z</time></trkpt><trkpt lat="46.1985878" lon="13.4939971"><ele>761.6666666666667</ele><time>2026-05-02T12:19:13.134Z</time></trkpt><trkpt lat="46.1985826" lon="13.4938843"><ele>762.3333333333334</ele><time>2026-05-02T12:19:14.134Z</time></trkpt><trkpt lat="46.198574" lon="13.4937516"><ele>763.0</ele><time>2026-05-02T12:19:15.134Z</time></trkpt><trkpt lat="46.1985474" lon="13.4936294"><ele>763.4</ele><time>2026-05-02T12:19:16.134Z</time></trkpt><trkpt lat="46.1985146" lon="13.4935036"><ele>763.8</ele><time>2026-05-02T12:19:17.133Z</time></trkpt><trkpt lat="46.198477" lon="13.4933753"><ele>764.2</ele><time>2026-05-02T12:19:18.133Z</time></trkpt><trkpt lat="46.198451" lon="13.4932542"><ele>764.6</ele><time>2026-05-02T12:19:19.134Z</time></trkpt><trkpt lat="46.1984369" lon="13.4931306"><ele>765.0</ele><time>2026-05-02T12:19:20.133Z</time></trkpt><trkpt lat="46.1984302" lon="13.4929938"><ele>765.6666666666666</ele><time>2026-05-02T12:19:21.134Z</time></trkpt><trkpt lat="46.1984284" lon="13.4928581"><ele>766.3333333333333</ele><time>2026-05-02T12:19:22.134Z</time></trkpt><trkpt lat="46.1984195" lon="13.4927306"><ele>767.0</ele><time>2026-05-02T12:19:23.134Z</time></trkpt><trkpt lat="46.1984073" lon="13.4926112"><ele>767.6666666666666</ele><time>2026-05-02T12:19:24.134Z</time></trkpt><trkpt lat="46.1983817" lon="13.492494"><ele>768.3333333333333</ele><time>2026-05-02T12:19:25.133Z</time></trkpt><trkpt lat="46.1983469" lon="13.492383"><ele>769.0</ele><time>2026-05-02T12:19:26.133Z</time></trkpt><trkpt lat="46.198304" lon="13.4922736"><ele>768.9999999999999</ele><time>2026-05-02T12:19:27.133Z</time></trkpt><trkpt lat="46.1982589" lon="13.4921713"><ele>769.0</ele><time>2026-05-02T12:19:28.134Z</time></trkpt><trkpt lat="46.1982204" lon="13.4920635"><ele>769.0</ele><time>2026-05-02T12:19:29.133Z</time></trkpt><trkpt lat="46.1981866" lon="13.4919634"><ele>769.0</ele><time>2026-05-02T12:19:30.134Z</time></trkpt><trkpt lat="46.198155" lon="13.4918724"><ele>768.9999999999999</ele><time>2026-05-02T12:19:31.134Z</time></trkpt><trkpt lat="46.1981205" lon="13.491786"><ele>769.0</ele><time>2026-05-02T12:19:32.133Z</time></trkpt><trkpt lat="46.1980866" lon="13.4916971"><ele>767.8333333333333</ele><time>2026-05-02T12:19:33.133Z</time></trkpt><trkpt lat="46.198058" lon="13.4916002"><ele>766.6666666666666</ele><time>2026-05-02T12:19:34.133Z</time></trkpt><trkpt lat="46.1980305" lon="13.4914969"><ele>765.5</ele><time>2026-05-02T12:19:35.133Z</time></trkpt><trkpt lat="46.1979996" lon="13.4913983"><ele>764.3333333333333</ele><time>2026-05-02T12:19:36.133Z</time></trkpt><trkpt lat="46.1979646" lon="13.4913001"><ele>763.1666666666666</ele><time>2026-05-02T12:19:37.134Z</time></trkpt><trkpt lat="46.1979258" lon="13.4912018"><ele>762.0</ele><time>2026-05-02T12:19:38.133Z</time></trkpt><trkpt lat="46.1978828" lon="13.4911102"><ele>762.0</ele><time>2026-05-02T12:19:39.134Z</time></trkpt><trkpt lat="46.1978315" lon="13.4910186"><ele>762.0</ele><time>2026-05-02T12:19:40.133Z</time></trkpt><trkpt lat="46.1977768" lon="13.4909401"><ele>762.0</ele><time>2026-05-02T12:19:41.133Z</time></trkpt><trkpt lat="46.1977193" lon="13.4908763"><ele>762.0</ele><time>2026-05-02T12:19:42.133Z</time></trkpt><trkpt lat="46.1976159" lon="13.4907825"><ele>762.0</ele><time>2026-05-02T12:19:44.133Z</time></trkpt><trkpt lat="46.1975716" lon="13.4908956"><ele>762.0</ele><time>2026-05-02T12:19:46.133Z</time></trkpt><trkpt lat="46.1976553" lon="13.4910201"><ele>762.0</ele><time>2026-05-02T12:19:48.133Z</time></trkpt><trkpt lat="46.1977044" lon="13.4911037"><ele>762.0</ele><time>2026-05-02T12:19:49.133Z</time></trkpt><trkpt lat="46.1977285" lon="13.4912192"><ele>762.0</ele><time>2026-05-02T12:19:50.134Z</time></trkpt><trkpt lat="46.1977351" lon="13.4913437"><ele>762.0</ele><time>2026-05-02T12:19:51.133Z</time></trkpt><trkpt lat="46.1977191" lon="13.4914863"><ele>762.0</ele><time>2026-05-02T12:19:52.133Z</time></trkpt><trkpt lat="46.1977019" lon="13.4916237"><ele>762.0</ele><time>2026-05-02T12:19:53.134Z</time></trkpt><trkpt lat="46.1976923" lon="13.4917638"><ele>759.8333333333334</ele><time>2026-05-02T12:19:54.133Z</time></trkpt><trkpt lat="46.1976754" lon="13.4919041"><ele>757.6666666666666</ele><time>2026-05-02T12:19:55.134Z</time></trkpt><trkpt lat="46.1976722" lon="13.492035"><ele>755.5</ele><time>2026-05-02T12:19:56.133Z</time></trkpt><trkpt lat="46.197683" lon="13.4921616"><ele>753.3333333333333</ele><time>2026-05-02T12:19:57.133Z</time></trkpt><trkpt lat="46.1977148" lon="13.4922622"><ele>751.1666666666666</ele><time>2026-05-02T12:19:58.133Z</time></trkpt><trkpt lat="46.1977511" lon="13.4923381"><ele>749.0</ele><time>2026-05-02T12:19:59.134Z</time></trkpt><trkpt lat="46.1977338" lon="13.4924432"><ele>749.0</ele><time>2026-05-02T12:20:01.133Z</time></trkpt><trkpt lat="46.1976611" lon="13.4924122"><ele>749.0</ele><time>2026-05-02T12:20:03.133Z</time></trkpt><trkpt lat="46.1976107" lon="13.4923455"><ele>749.0</ele><time>2026-05-02T12:20:04.134Z</time></trkpt><trkpt lat="46.1975552" lon="13.49227"><ele>749.0</ele><time>2026-05-02T12:20:05.134Z</time></trkpt><trkpt lat="46.1974889" lon="13.4921823"><ele>749.0</ele><time>2026-05-02T12:20:06.134Z</time></trkpt><trkpt lat="46.1974281" lon="13.4920801"><ele>749.0</ele><time>2026-05-02T12:20:07.133Z</time></trkpt><trkpt lat="46.1973819" lon="13.4919568"><ele>749.0</ele><time>2026-05-02T12:20:08.134Z</time></trkpt><trkpt lat="46.1973438" lon="13.491834"><ele>749.0</ele><time>2026-05-02T12:20:09.133Z</time></trkpt><trkpt lat="46.197315" lon="13.4917206"><ele>749.0</ele><time>2026-05-02T12:20:10.133Z</time></trkpt><trkpt lat="46.1972483" lon="13.4916331"><ele>749.0</ele><time>2026-05-02T12:20:11.133Z</time></trkpt><trkpt lat="46.1971529" lon="13.491584"><ele>749.0</ele><time>2026-05-02T12:20:12.133Z</time></trkpt><trkpt lat="46.1970395" lon="13.4915226"><ele>745.75</ele><time>2026-05-02T12:20:13.134Z</time></trkpt><trkpt lat="46.1969204" lon="13.4914395"><ele>742.5</ele><time>2026-05-02T12:20:14.133Z</time></trkpt><trkpt lat="46.1968133" lon="13.4913345"><ele>739.25</ele><time>2026-05-02T12:20:15.133Z</time></trkpt><trkpt lat="46.1967071" lon="13.4912269"><ele>736.0</ele><time>2026-05-02T12:20:16.133Z</time></trkpt><trkpt lat="46.1966016" lon="13.4911456"><ele>729.5999999999999</ele><time>2026-05-02T12:20:17.133Z</time></trkpt><trkpt lat="46.1964886" lon="13.4910658"><ele>723.2</ele><time>2026-05-02T12:20:18.134Z</time></trkpt><trkpt lat="46.1963843" lon="13.4910019"><ele>716.8</ele><time>2026-05-02T12:20:19.133Z</time></trkpt><trkpt lat="46.1962896" lon="13.4909304"><ele>710.4000000000001</ele><time>2026-05-02T12:20:20.133Z</time></trkpt><trkpt lat="46.1962027" lon="13.4908592"><ele>704.0</ele><time>2026-05-02T12:20:21.134Z</time></trkpt><trkpt lat="46.1961173" lon="13.4907986"><ele>704.0</ele><time>2026-05-02T12:20:22.133Z</time></trkpt><trkpt lat="46.196041" lon="13.4907353"><ele>704.0</ele><time>2026-05-02T12:20:23.133Z</time></trkpt><trkpt lat="46.1959845" lon="13.4906395"><ele>704.0</ele><time>2026-05-02T12:20:24.134Z</time></trkpt><trkpt lat="46.1959574" lon="13.4904956"><ele>704.0</ele><time>2026-05-02T12:20:25.134Z</time></trkpt><trkpt lat="46.1959305" lon="13.4903442"><ele>704.0</ele><time>2026-05-02T12:20:26.133Z</time></trkpt><trkpt lat="46.1958935" lon="13.4901869"><ele>706.6</ele><time>2026-05-02T12:20:27.134Z</time></trkpt><trkpt lat="46.1958449" lon="13.4900301"><ele>709.2</ele><time>2026-05-02T12:20:28.134Z</time></trkpt><trkpt lat="46.1957947" lon="13.4898796"><ele>711.8000000000001</ele><time>2026-05-02T12:20:29.133Z</time></trkpt><trkpt lat="46.195735" lon="13.4897467"><ele>714.4000000000001</ele><time>2026-05-02T12:20:30.134Z</time></trkpt><trkpt lat="46.1956753" lon="13.4896266"><ele>717.0</ele><time>2026-05-02T12:20:31.133Z</time></trkpt><trkpt lat="46.1956308" lon="13.4894928"><ele>705.25</ele><time>2026-05-02T12:20:32.133Z</time></trkpt><trkpt lat="46.1956091" lon="13.4893497"><ele>693.5</ele><time>2026-05-02T12:20:33.133Z</time></trkpt><trkpt lat="46.1955992" lon="13.489188"><ele>681.75</ele><time>2026-05-02T12:20:34.133Z</time></trkpt><trkpt lat="46.1955846" lon="13.4890154"><ele>670.0</ele><time>2026-05-02T12:20:35.134Z</time></trkpt><trkpt lat="46.1955722" lon="13.4888286"><ele>671.75</ele><time>2026-05-02T12:20:36.134Z</time></trkpt><trkpt lat="46.1955555" lon="13.4886494"><ele>673.5</ele><time>2026-05-02T12:20:37.134Z</time></trkpt><trkpt lat="46.1955421" lon="13.4884712"><ele>675.25</ele><time>2026-05-02T12:20:38.134Z</time></trkpt><trkpt lat="46.1955279" lon="13.4882967"><ele>677.0</ele><time>2026-05-02T12:20:39.134Z</time></trkpt><trkpt lat="46.1955158" lon="13.488122"><ele>677.0</ele><time>2026-05-02T12:20:40.134Z</time></trkpt><trkpt lat="46.1955056" lon="13.4879451"><ele>677.0</ele><time>2026-05-02T12:20:41.133Z</time></trkpt><trkpt lat="46.1954901" lon="13.4877776"><ele>677.0</ele><time>2026-05-02T12:20:42.134Z</time></trkpt><trkpt lat="46.1954611" lon="13.4876103"><ele>677.0</ele><time>2026-05-02T12:20:43.134Z</time></trkpt><trkpt lat="46.1954192" lon="13.4874479"><ele>676.75</ele><time>2026-05-02T12:20:44.133Z</time></trkpt><trkpt lat="46.195372" lon="13.4872779"><ele>676.5</ele><time>2026-05-02T12:20:45.133Z</time></trkpt><trkpt lat="46.1953326" lon="13.4871025"><ele>676.25</ele><time>2026-05-02T12:20:46.133Z</time></trkpt><trkpt lat="46.1953054" lon="13.4869203"><ele>676.0</ele><time>2026-05-02T12:20:47.133Z</time></trkpt><trkpt lat="46.1952733" lon="13.4867472"><ele>678.5</ele><time>2026-05-02T12:20:48.134Z</time></trkpt><trkpt lat="46.195218" lon="13.486591"><ele>681.0</ele><time>2026-05-02T12:20:49.134Z</time></trkpt><trkpt lat="46.19515" lon="13.4864404"><ele>683.5</ele><time>2026-05-02T12:20:50.133Z</time></trkpt><trkpt lat="46.1950838" lon="13.4862981"><ele>686.0</ele><time>2026-05-02T12:20:51.133Z</time></trkpt><trkpt lat="46.1949909" lon="13.4861924"><ele>687.5</ele><time>2026-05-02T12:20:52.133Z</time></trkpt><trkpt lat="46.1948884" lon="13.486108"><ele>689.0</ele><time>2026-05-02T12:20:53.134Z</time></trkpt><trkpt lat="46.1947812" lon="13.4860192"><ele>690.5</ele><time>2026-05-02T12:20:54.133Z</time></trkpt><trkpt lat="46.1947156" lon="13.4858808"><ele>692.0</ele><time>2026-05-02T12:20:55.134Z</time></trkpt><trkpt lat="46.194678" lon="13.4857075"><ele>681.75</ele><time>2026-05-02T12:20:56.133Z</time></trkpt><trkpt lat="46.1946463" lon="13.4855186"><ele>671.5</ele><time>2026-05-02T12:20:57.133Z</time></trkpt><trkpt lat="46.1946215" lon="13.4853207"><ele>661.25</ele><time>2026-05-02T12:20:58.133Z</time></trkpt><trkpt lat="46.1946083" lon="13.4851186"><ele>651.0</ele><time>2026-05-02T12:20:59.134Z</time></trkpt><trkpt lat="46.1946035" lon="13.4849152"><ele>651.0</ele><time>2026-05-02T12:21:00.133Z</time></trkpt><trkpt lat="46.1945846" lon="13.4847191"><ele>651.0</ele><time>2026-05-02T12:21:01.134Z</time></trkpt><trkpt lat="46.1945662" lon="13.4845382"><ele>651.0</ele><time>2026-05-02T12:21:02.133Z</time></trkpt><trkpt lat="46.1945349" lon="13.484364"><ele>651.0</ele><time>2026-05-02T12:21:03.133Z</time></trkpt><trkpt lat="46.1944747" lon="13.4842043"><ele>652.4</ele><time>2026-05-02T12:21:04.133Z</time></trkpt><trkpt lat="46.1944023" lon="13.4840697"><ele>653.8</ele><time>2026-05-02T12:21:05.133Z</time></trkpt><trkpt lat="46.1943365" lon="13.4839489"><ele>655.1999999999999</ele><time>2026-05-02T12:21:06.133Z</time></trkpt><trkpt lat="46.1942845" lon="13.4838617"><ele>656.5999999999999</ele><time>2026-05-02T12:21:07.133Z</time></trkpt><trkpt lat="46.1941879" lon="13.4837827"><ele>658.0</ele><time>2026-05-02T12:21:09.133Z</time></trkpt><trkpt lat="46.1941342" lon="13.4839202"><ele>658.0</ele><time>2026-05-02T12:21:11.133Z</time></trkpt><trkpt lat="46.1941489" lon="13.4840373"><ele>658.0</ele><time>2026-05-02T12:21:12.134Z</time></trkpt><trkpt lat="46.1941828" lon="13.4841789"><ele>658.0</ele><time>2026-05-02T12:21:13.133Z</time></trkpt><trkpt lat="46.1942168" lon="13.4843412"><ele>658.0</ele><time>2026-05-02T12:21:14.133Z</time></trkpt><trkpt lat="46.1942484" lon="13.4845145"><ele>658.0</ele><time>2026-05-02T12:21:15.133Z</time></trkpt><trkpt lat="46.1942587" lon="13.4846918"><ele>656.25</ele><time>2026-05-02T12:21:16.133Z</time></trkpt><trkpt lat="46.1942634" lon="13.4848623"><ele>654.5</ele><time>2026-05-02T12:21:17.133Z</time></trkpt><trkpt lat="46.1942557" lon="13.4850336"><ele>652.75</ele><time>2026-05-02T12:21:18.134Z</time></trkpt><trkpt lat="46.1942351" lon="13.4851995"><ele>651.0</ele><time>2026-05-02T12:21:19.133Z</time></trkpt><trkpt lat="46.1942028" lon="13.4853624"><ele>650.25</ele><time>2026-05-02T12:21:20.134Z</time></trkpt><trkpt lat="46.1941713" lon="13.4855289"><ele>649.5</ele><time>2026-05-02T12:21:21.133Z</time></trkpt><trkpt lat="46.194142" lon="13.4856973"><ele>648.75</ele><time>2026-05-02T12:21:22.133Z</time></trkpt><trkpt lat="46.1941194" lon="13.4858749"><ele>648.0</ele><time>2026-05-02T12:21:23.133Z</time></trkpt><trkpt lat="46.1941034" lon="13.4860619"><ele>648.0</ele><time>2026-05-02T12:21:24.133Z</time></trkpt><trkpt lat="46.1940895" lon="13.486253"><ele>648.0</ele><time>2026-05-02T12:21:25.133Z</time></trkpt><trkpt lat="46.1940757" lon="13.4864361"><ele>648.0</ele><time>2026-05-02T12:21:26.133Z</time></trkpt><trkpt lat="46.1940652" lon="13.4866208"><ele>648.0</ele><time>2026-05-02T12:21:27.134Z</time></trkpt><trkpt lat="46.1940565" lon="13.4867995"><ele>648.0</ele><time>2026-05-02T12:21:28.133Z</time></trkpt><trkpt lat="46.1940406" lon="13.4869736"><ele>648.0</ele><time>2026-05-02T12:21:29.133Z</time></trkpt><trkpt lat="46.1940227" lon="13.4871444"><ele>648.0</ele><time>2026-05-02T12:21:30.134Z</time></trkpt><trkpt lat="46.1940003" lon="13.4873129"><ele>648.0</ele><time>2026-05-02T12:21:31.134Z</time></trkpt><trkpt lat="46.1939741" lon="13.4874776"><ele>639.5</ele><time>2026-05-02T12:21:32.133Z</time></trkpt><trkpt lat="46.1939532" lon="13.4876363"><ele>631.0</ele><time>2026-05-02T12:21:33.133Z</time></trkpt><trkpt lat="46.1939458" lon="13.4877809"><ele>622.5</ele><time>2026-05-02T12:21:34.133Z</time></trkpt><trkpt lat="46.1939574" lon="13.4879106"><ele>614.0</ele><time>2026-05-02T12:21:35.134Z</time></trkpt><trkpt lat="46.1939708" lon="13.4880209"><ele>605.5</ele><time>2026-05-02T12:21:36.133Z</time></trkpt><trkpt lat="46.1939693" lon="13.4881121"><ele>597.0</ele><time>2026-05-02T12:21:37.133Z</time></trkpt><trkpt lat="46.1938863" lon="13.4881712"><ele>597.0</ele><time>2026-05-02T12:21:39.134Z</time></trkpt><trkpt lat="46.1938507" lon="13.4879981"><ele>597.0</ele><time>2026-05-02T12:21:41.133Z</time></trkpt><trkpt lat="46.1938368" lon="13.4878719"><ele>597.0</ele><time>2026-05-02T12:21:42.133Z</time></trkpt><trkpt lat="46.1938245" lon="13.4877355"><ele>597.0</ele><time>2026-05-02T12:21:43.134Z</time></trkpt><trkpt lat="46.193819" lon="13.487586"><ele>597.0</ele><time>2026-05-02T12:21:44.134Z</time></trkpt><trkpt lat="46.1938113" lon="13.4874284"><ele>597.0</ele><time>2026-05-02T12:21:45.133Z</time></trkpt><trkpt lat="46.19381" lon="13.4872665"><ele>597.0</ele><time>2026-05-02T12:21:46.134Z</time></trkpt><trkpt lat="46.1938089" lon="13.4871021"><ele>597.0</ele><time>2026-05-02T12:21:47.133Z</time></trkpt><trkpt lat="46.1937887" lon="13.48693"><ele>597.0</ele><time>2026-05-02T12:21:48.134Z</time></trkpt><trkpt lat="46.19374" lon="13.4867705"><ele>599.0</ele><time>2026-05-02T12:21:49.134Z</time></trkpt><trkpt lat="46.1936884" lon="13.4866212"><ele>601.0</ele><time>2026-05-02T12:21:50.134Z</time></trkpt><trkpt lat="46.1936445" lon="13.4864881"><ele>603.0</ele><time>2026-05-02T12:21:51.133Z</time></trkpt><trkpt lat="46.1936175" lon="13.4863587"><ele>605.0</ele><time>2026-05-02T12:21:52.133Z</time></trkpt><trkpt lat="46.1935887" lon="13.486262"><ele>607.0</ele><time>2026-05-02T12:21:53.134Z</time></trkpt><trkpt lat="46.1935492" lon="13.4861855"><ele>607.0</ele><time>2026-05-02T12:21:54.133Z</time></trkpt><trkpt lat="46.1934781" lon="13.4861659"><ele>607.0</ele><time>2026-05-02T12:21:55.134Z</time></trkpt><trkpt lat="46.1934077" lon="13.4862137"><ele>607.0</ele><time>2026-05-02T12:21:56.133Z</time></trkpt><trkpt lat="46.1933412" lon="13.4862943"><ele>607.0</ele><time>2026-05-02T12:21:57.134Z</time></trkpt><trkpt lat="46.1932782" lon="13.486371"><ele>607.0</ele><time>2026-05-02T12:21:58.133Z</time></trkpt><trkpt lat="46.1932064" lon="13.4864245"><ele>607.0</ele><time>2026-05-02T12:21:59.134Z</time></trkpt><trkpt lat="46.1931235" lon="13.486438"><ele>603.8000000000001</ele><time>2026-05-02T12:22:00.133Z</time></trkpt><trkpt lat="46.1930332" lon="13.4864226"><ele>600.6</ele><time>2026-05-02T12:22:01.134Z</time></trkpt><trkpt lat="46.1929343" lon="13.486381"><ele>597.4000000000001</ele><time>2026-05-02T12:22:02.134Z</time></trkpt><trkpt lat="46.1928216" lon="13.486339"><ele>594.2</ele><time>2026-05-02T12:22:03.133Z</time></trkpt><trkpt lat="46.1927054" lon="13.486305"><ele>591.0</ele><time>2026-05-02T12:22:04.133Z</time></trkpt><trkpt lat="46.1925867" lon="13.4862727"><ele>589.4</ele><time>2026-05-02T12:22:05.133Z</time></trkpt><trkpt lat="46.1924689" lon="13.4862469"><ele>587.8</ele><time>2026-05-02T12:22:06.134Z</time></trkpt><trkpt lat="46.1923546" lon="13.4862215"><ele>586.1999999999999</ele><time>2026-05-02T12:22:07.133Z</time></trkpt><trkpt lat="46.1922466" lon="13.486197"><ele>584.6</ele><time>2026-05-02T12:22:08.134Z</time></trkpt><trkpt lat="46.192144" lon="13.4861734"><ele>583.0</ele><time>2026-05-02T12:22:09.133Z</time></trkpt><trkpt lat="46.1920551" lon="13.4861543"><ele>583.0</ele><time>2026-05-02T12:22:10.133Z</time></trkpt><trkpt lat="46.1919793" lon="13.4861228"><ele>583.0</ele><time>2026-05-02T12:22:11.134Z</time></trkpt><trkpt lat="46.1919147" lon="13.4860522"><ele>583.0</ele><time>2026-05-02T12:22:12.133Z</time></trkpt><trkpt lat="46.1918674" lon="13.4859552"><ele>583.0</ele><time>2026-05-02T12:22:13.133Z</time></trkpt><trkpt lat="46.1918272" lon="13.4858541"><ele>583.0</ele><time>2026-05-02T12:22:14.134Z</time></trkpt><trkpt lat="46.1917756" lon="13.4857731"><ele>583.0</ele><time>2026-05-02T12:22:15.133Z</time></trkpt><trkpt lat="46.1917052" lon="13.4857029"><ele>583.0</ele><time>2026-05-02T12:22:16.134Z</time></trkpt><trkpt lat="46.1916258" lon="13.485664"><ele>583.0</ele><time>2026-05-02T12:22:17.133Z</time></trkpt><trkpt lat="46.191545" lon="13.4856307"><ele>583.0</ele><time>2026-05-02T12:22:18.133Z</time></trkpt><trkpt lat="46.1914622" lon="13.4855911"><ele>583.0</ele><time>2026-05-02T12:22:19.134Z</time></trkpt><trkpt lat="46.191383" lon="13.4855474"><ele>583.0</ele><time>2026-05-02T12:22:20.134Z</time></trkpt><trkpt lat="46.19131" lon="13.4854962"><ele>583.0</ele><time>2026-05-02T12:22:21.133Z</time></trkpt><trkpt lat="46.1912462" lon="13.4854511"><ele>582.2857142857143</ele><time>2026-05-02T12:22:22.134Z</time></trkpt><trkpt lat="46.1911898" lon="13.4854018"><ele>581.5714285714286</ele><time>2026-05-02T12:22:23.133Z</time></trkpt><trkpt lat="46.1911262" lon="13.4853515"><ele>580.8571428571429</ele><time>2026-05-02T12:22:24.134Z</time></trkpt><trkpt lat="46.1910479" lon="13.4853192"><ele>580.1428571428571</ele><time>2026-05-02T12:22:25.134Z</time></trkpt><trkpt lat="46.1909711" lon="13.485303"><ele>579.4285714285714</ele><time>2026-05-02T12:22:26.133Z</time></trkpt><trkpt lat="46.1908982" lon="13.4852943"><ele>578.7142857142858</ele><time>2026-05-02T12:22:27.134Z</time></trkpt><trkpt lat="46.1908304" lon="13.4852826"><ele>578.0</ele><time>2026-05-02T12:22:28.133Z</time></trkpt><trkpt lat="46.1907717" lon="13.4852418"><ele>578.0</ele><time>2026-05-02T12:22:29.133Z</time></trkpt><trkpt lat="46.1907228" lon="13.4851766"><ele>578.0</ele><time>2026-05-02T12:22:30.134Z</time></trkpt><trkpt lat="46.1906574" lon="13.4850156"><ele>578.0</ele><time>2026-05-02T12:22:32.134Z</time></trkpt><trkpt lat="46.19064" lon="13.4849186"><ele>578.0</ele><time>2026-05-02T12:22:33.132Z</time></trkpt><trkpt lat="46.1906284" lon="13.4848135"><ele>578.0</ele><time>2026-05-02T12:22:34.132Z</time></trkpt><trkpt lat="46.1906207" lon="13.484713"><ele>578.0</ele><time>2026-05-02T12:22:35.133Z</time></trkpt><trkpt lat="46.1905866" lon="13.4845882"><ele>575.1666666666666</ele><time>2026-05-02T12:22:37.132Z</time></trkpt><trkpt lat="46.1905505" lon="13.4844958"><ele>572.3333333333333</ele><time>2026-05-02T12:22:55.133Z</time></trkpt><trkpt lat="46.1904913" lon="13.4844641"><ele>569.5</ele><time>2026-05-02T12:22:59.132Z</time></trkpt><trkpt lat="46.1905549" lon="13.4845751"><ele>566.6666666666666</ele><time>2026-05-02T12:23:02.133Z</time></trkpt><trkpt lat="46.1906225" lon="13.4847437"><ele>563.8333333333334</ele><time>2026-05-02T12:23:04.132Z</time></trkpt><trkpt lat="46.1906399" lon="13.4848511"><ele>561.0</ele><time>2026-05-02T12:23:05.132Z</time></trkpt><trkpt lat="46.1906399" lon="13.4849823"><ele>559.5</ele><time>2026-05-02T12:23:06.132Z</time></trkpt><trkpt lat="46.1906576" lon="13.4851013"><ele>558.0</ele><time>2026-05-02T12:23:07.132Z</time></trkpt><trkpt lat="46.1906954" lon="13.485197"><ele>556.5</ele><time>2026-05-02T12:23:08.132Z</time></trkpt><trkpt lat="46.1907463" lon="13.4852607"><ele>555.0</ele><time>2026-05-02T12:23:09.132Z</time></trkpt><trkpt lat="46.1908697" lon="13.4853077"><ele>553.5</ele><time>2026-05-02T12:23:11.132Z</time></trkpt><trkpt lat="46.1909467" lon="13.4853118"><ele>552.0</ele><time>2026-05-02T12:23:12.132Z</time></trkpt><trkpt lat="46.1910254" lon="13.4853227"><ele>554.1666666666666</ele><time>2026-05-02T12:23:13.133Z</time></trkpt><trkpt lat="46.1911042" lon="13.4853555"><ele>556.3333333333334</ele><time>2026-05-02T12:23:14.132Z</time></trkpt><trkpt lat="46.1911662" lon="13.4853893"><ele>558.5</ele><time>2026-05-02T12:23:15.133Z</time></trkpt><trkpt lat="46.1912497" lon="13.4854572"><ele>560.6666666666667</ele><time>2026-05-02T12:23:17.133Z</time></trkpt><trkpt lat="46.1913037" lon="13.4855593"><ele>562.8333333333334</ele><time>2026-05-02T12:23:26.132Z</time></trkpt><trkpt lat="46.1913115" lon="13.4854678"><ele>565.0</ele><time>2026-05-02T12:31:12.13Z</time></trkpt><trkpt lat="46.1912099" lon="13.4853993"><ele>566.8571428571428</ele><time>2026-05-02T12:31:14.13Z</time></trkpt><trkpt lat="46.1911476" lon="13.4853521"><ele>568.7142857142857</ele><time>2026-05-02T12:31:15.131Z</time></trkpt><trkpt lat="46.1910824" lon="13.4853185"><ele>570.5714285714286</ele><time>2026-05-02T12:31:16.13Z</time></trkpt><trkpt lat="46.1910156" lon="13.4852851"><ele>572.4285714285713</ele><time>2026-05-02T12:31:17.13Z</time></trkpt><trkpt lat="46.1909419" lon="13.4852786"><ele>574.2857142857142</ele><time>2026-05-02T12:31:18.13Z</time></trkpt><trkpt lat="46.1908608" lon="13.4852771"><ele>576.1428571428571</ele><time>2026-05-02T12:31:19.131Z</time></trkpt><trkpt lat="46.1907903" lon="13.4852622"><ele>578.0</ele><time>2026-05-02T12:31:20.13Z</time></trkpt><trkpt lat="46.1906965" lon="13.4851384"><ele>575.1666666666666</ele><time>2026-05-02T12:31:22.131Z</time></trkpt><trkpt lat="46.1906485" lon="13.4849752"><ele>572.3333333333333</ele><time>2026-05-02T12:31:24.13Z</time></trkpt><trkpt lat="46.190635" lon="13.4848856"><ele>569.5</ele><time>2026-05-02T12:31:25.131Z</time></trkpt><trkpt lat="46.1906211" lon="13.4847844"><ele>566.6666666666666</ele><time>2026-05-02T12:31:26.13Z</time></trkpt><trkpt lat="46.1906086" lon="13.484679"><ele>563.8333333333334</ele><time>2026-05-02T12:31:27.131Z</time></trkpt><trkpt lat="46.1905872" lon="13.4845892"><ele>561.0</ele><time>2026-05-02T12:31:28.13Z</time></trkpt><trkpt lat="46.1905281" lon="13.4845353"><ele>561.0</ele><time>2026-05-02T12:31:29.131Z</time></trkpt><trkpt lat="46.1904343" lon="13.4844595"><ele>561.0</ele><time>2026-05-02T12:31:31.131Z</time></trkpt><trkpt lat="46.1903577" lon="13.4843296"><ele>561.0</ele><time>2026-05-02T12:31:33.13Z</time></trkpt><trkpt lat="46.1903191" lon="13.484226"><ele>561.0</ele><time>2026-05-02T12:31:34.13Z</time></trkpt><trkpt lat="46.1902789" lon="13.4841167"><ele>561.0</ele><time>2026-05-02T12:31:35.13Z</time></trkpt><trkpt lat="46.1902435" lon="13.4840111"><ele>561.0</ele><time>2026-05-02T12:31:36.13Z</time></trkpt><trkpt lat="46.1901965" lon="13.4839161"><ele>561.0</ele><time>2026-05-02T12:31:37.13Z</time></trkpt><trkpt lat="46.1901334" lon="13.4838358"><ele>561.0</ele><time>2026-05-02T12:31:38.131Z</time></trkpt><trkpt lat="46.1900658" lon="13.4837622"><ele>561.0</ele><time>2026-05-02T12:31:39.13Z</time></trkpt><trkpt lat="46.1900054" lon="13.4836834"><ele>561.0</ele><time>2026-05-02T12:31:40.13Z</time></trkpt><trkpt lat="46.1899549" lon="13.4836094"><ele>561.0</ele><time>2026-05-02T12:31:41.13Z</time></trkpt><trkpt lat="46.1899326" lon="13.4835236"><ele>560.6</ele><time>2026-05-02T12:31:42.13Z</time></trkpt><trkpt lat="46.1899279" lon="13.4834209"><ele>560.2</ele><time>2026-05-02T12:31:43.13Z</time></trkpt><trkpt lat="46.1899436" lon="13.4833097"><ele>559.8</ele><time>2026-05-02T12:31:44.13Z</time></trkpt><trkpt lat="46.1899646" lon="13.4831732"><ele>559.4</ele><time>2026-05-02T12:31:45.13Z</time></trkpt><trkpt lat="46.1899821" lon="13.4830231"><ele>559.0</ele><time>2026-05-02T12:31:46.13Z</time></trkpt><trkpt lat="46.1899867" lon="13.4828735"><ele>559.0</ele><time>2026-05-02T12:31:47.13Z</time></trkpt><trkpt lat="46.1899896" lon="13.4827231"><ele>559.0</ele><time>2026-05-02T12:31:48.13Z</time></trkpt><trkpt lat="46.189986" lon="13.4825894"><ele>559.0</ele><time>2026-05-02T12:31:49.131Z</time></trkpt><trkpt lat="46.1899952" lon="13.4824791"><ele>559.0</ele><time>2026-05-02T12:31:50.13Z</time></trkpt><trkpt lat="46.1899474" lon="13.482342"><ele>559.0</ele><time>2026-05-02T12:31:52.131Z</time></trkpt><trkpt lat="46.1898618" lon="13.4824276"><ele>559.0</ele><time>2026-05-02T12:31:54.13Z</time></trkpt><trkpt lat="46.18986" lon="13.4825552"><ele>559.0</ele><time>2026-05-02T12:31:55.13Z</time></trkpt><trkpt lat="46.1898686" lon="13.4826979"><ele>559.0</ele><time>2026-05-02T12:31:56.131Z</time></trkpt><trkpt lat="46.18986" lon="13.4828471"><ele>559.0</ele><time>2026-05-02T12:31:57.13Z</time></trkpt><trkpt lat="46.1898347" lon="13.482986"><ele>559.0</ele><time>2026-05-02T12:31:58.13Z</time></trkpt><trkpt lat="46.1897889" lon="13.483111"><ele>554.2</ele><time>2026-05-02T12:31:59.131Z</time></trkpt><trkpt lat="46.1897265" lon="13.483224"><ele>549.4</ele><time>2026-05-02T12:32:00.131Z</time></trkpt><trkpt lat="46.189663" lon="13.4833388"><ele>544.6</ele><time>2026-05-02T12:32:01.131Z</time></trkpt><trkpt lat="46.1896019" lon="13.4834475"><ele>539.8</ele><time>2026-05-02T12:32:02.13Z</time></trkpt><trkpt lat="46.1895621" lon="13.4835638"><ele>535.0</ele><time>2026-05-02T12:32:03.131Z</time></trkpt><trkpt lat="46.1895433" lon="13.4836937"><ele>534.4</ele><time>2026-05-02T12:32:04.13Z</time></trkpt><trkpt lat="46.1895412" lon="13.4838434"><ele>533.8</ele><time>2026-05-02T12:32:05.13Z</time></trkpt><trkpt lat="46.1895425" lon="13.4840072"><ele>533.2</ele><time>2026-05-02T12:32:06.131Z</time></trkpt><trkpt lat="46.1895511" lon="13.4841506"><ele>532.6</ele><time>2026-05-02T12:32:07.131Z</time></trkpt><trkpt lat="46.1895579" lon="13.4842843"><ele>532.0</ele><time>2026-05-02T12:32:08.13Z</time></trkpt><trkpt lat="46.1895493" lon="13.4843797"><ele>532.0</ele><time>2026-05-02T12:32:09.131Z</time></trkpt><trkpt lat="46.1894616" lon="13.484434"><ele>532.0</ele><time>2026-05-02T12:32:11.13Z</time></trkpt><trkpt lat="46.1894097" lon="13.4842888"><ele>532.0</ele><time>2026-05-02T12:32:13.131Z</time></trkpt><trkpt lat="46.1893974" lon="13.4841508"><ele>532.0</ele><time>2026-05-02T12:32:14.13Z</time></trkpt><trkpt lat="46.1893631" lon="13.4839956"><ele>532.0</ele><time>2026-05-02T12:32:15.131Z</time></trkpt><trkpt lat="46.1893242" lon="13.4838249"><ele>532.6</ele><time>2026-05-02T12:32:16.131Z</time></trkpt><trkpt lat="46.1892853" lon="13.4836567"><ele>533.2</ele><time>2026-05-02T12:32:17.13Z</time></trkpt><trkpt lat="46.1892649" lon="13.4834932"><ele>533.8</ele><time>2026-05-02T12:32:18.131Z</time></trkpt><trkpt lat="46.1892549" lon="13.4833397"><ele>534.4</ele><time>2026-05-02T12:32:19.13Z</time></trkpt><trkpt lat="46.189234" lon="13.4832085"><ele>535.0</ele><time>2026-05-02T12:32:20.13Z</time></trkpt><trkpt lat="46.1891763" lon="13.4830967"><ele>535.0</ele><time>2026-05-02T12:32:21.131Z</time></trkpt><trkpt lat="46.1891036" lon="13.4830063"><ele>535.0</ele><time>2026-05-02T12:32:22.13Z</time></trkpt><trkpt lat="46.1890099" lon="13.4829419"><ele>535.0</ele><time>2026-05-02T12:32:23.13Z</time></trkpt><trkpt lat="46.1889065" lon="13.4829278"><ele>535.0</ele><time>2026-05-02T12:32:24.13Z</time></trkpt><trkpt lat="46.1888103" lon="13.4829398"><ele>535.0</ele><time>2026-05-02T12:32:25.131Z</time></trkpt><trkpt lat="46.1887168" lon="13.4829316"><ele>530.5</ele><time>2026-05-02T12:32:26.13Z</time></trkpt><trkpt lat="46.1886177" lon="13.482876"><ele>526.0</ele><time>2026-05-02T12:32:27.131Z</time></trkpt><trkpt lat="46.188513" lon="13.4827865"><ele>521.5</ele><time>2026-05-02T12:32:28.13Z</time></trkpt><trkpt lat="46.1884115" lon="13.4826987"><ele>517.0</ele><time>2026-05-02T12:32:29.13Z</time></trkpt><trkpt lat="46.1883093" lon="13.4826144"><ele>517.0</ele><time>2026-05-02T12:32:30.13Z</time></trkpt><trkpt lat="46.1882094" lon="13.4825306"><ele>517.0</ele><time>2026-05-02T12:32:31.13Z</time></trkpt><trkpt lat="46.1881294" lon="13.4824327"><ele>517.0</ele><time>2026-05-02T12:32:32.13Z</time></trkpt><trkpt lat="46.1880624" lon="13.4823044"><ele>517.0</ele><time>2026-05-02T12:32:33.13Z</time></trkpt><trkpt lat="46.18801" lon="13.4821719"><ele>517.0</ele><time>2026-05-02T12:32:34.13Z</time></trkpt><trkpt lat="46.1879614" lon="13.4820412"><ele>512.0</ele><time>2026-05-02T12:32:35.13Z</time></trkpt><trkpt lat="46.187936" lon="13.4819187"><ele>507.00000000000006</ele><time>2026-05-02T12:32:36.13Z</time></trkpt><trkpt lat="46.1879443" lon="13.4817966"><ele>502.00000000000006</ele><time>2026-05-02T12:32:37.13Z</time></trkpt><trkpt lat="46.1879798" lon="13.4816874"><ele>497.0</ele><time>2026-05-02T12:32:38.131Z</time></trkpt><trkpt lat="46.1880394" lon="13.4815794"><ele>492.0</ele><time>2026-05-02T12:32:39.131Z</time></trkpt><trkpt lat="46.1881203" lon="13.4814722"><ele>496.5</ele><time>2026-05-02T12:32:40.13Z</time></trkpt><trkpt lat="46.1882056" lon="13.4813535"><ele>501.0</ele><time>2026-05-02T12:32:41.13Z</time></trkpt><trkpt lat="46.1882883" lon="13.4812316"><ele>505.5</ele><time>2026-05-02T12:32:42.131Z</time></trkpt><trkpt lat="46.1883431" lon="13.4810926"><ele>510.0</ele><time>2026-05-02T12:32:43.13Z</time></trkpt><trkpt lat="46.1883698" lon="13.4809493"><ele>510.0</ele><time>2026-05-02T12:32:44.13Z</time></trkpt><trkpt lat="46.1883781" lon="13.4808034"><ele>510.0</ele><time>2026-05-02T12:32:45.13Z</time></trkpt><trkpt lat="46.1883641" lon="13.4806648"><ele>510.0</ele><time>2026-05-02T12:32:46.13Z</time></trkpt><trkpt lat="46.1883364" lon="13.480538"><ele>510.0</ele><time>2026-05-02T12:32:47.13Z</time></trkpt><trkpt lat="46.1882907" lon="13.4804324"><ele>510.0</ele><time>2026-05-02T12:32:48.13Z</time></trkpt><trkpt lat="46.1882126" lon="13.4803394"><ele>504.8</ele><time>2026-05-02T12:32:49.13Z</time></trkpt><trkpt lat="46.1881106" lon="13.4802847"><ele>499.6</ele><time>2026-05-02T12:32:50.13Z</time></trkpt><trkpt lat="46.1880053" lon="13.4802635"><ele>494.4</ele><time>2026-05-02T12:32:51.131Z</time></trkpt><trkpt lat="46.1878917" lon="13.4802852"><ele>489.2</ele><time>2026-05-02T12:32:52.13Z</time></trkpt><trkpt lat="46.1877887" lon="13.4803441"><ele>484.0</ele><time>2026-05-02T12:32:53.13Z</time></trkpt><trkpt lat="46.1877254" lon="13.4804385"><ele>484.0</ele><time>2026-05-02T12:32:54.131Z</time></trkpt><trkpt lat="46.187671" lon="13.4805598"><ele>484.0</ele><time>2026-05-02T12:32:55.131Z</time></trkpt><trkpt lat="46.1876436" lon="13.4807161"><ele>484.0</ele><time>2026-05-02T12:32:56.13Z</time></trkpt><trkpt lat="46.1876244" lon="13.4808856"><ele>484.0</ele><time>2026-05-02T12:32:57.131Z</time></trkpt><trkpt lat="46.1875949" lon="13.4810421"><ele>484.0</ele><time>2026-05-02T12:32:58.13Z</time></trkpt><trkpt lat="46.1875317" lon="13.4811869"><ele>486.0</ele><time>2026-05-02T12:32:59.13Z</time></trkpt><trkpt lat="46.1874421" lon="13.4813172"><ele>488.0</ele><time>2026-05-02T12:33:00.13Z</time></trkpt><trkpt lat="46.1873529" lon="13.4814468"><ele>490.0</ele><time>2026-05-02T12:33:01.13Z</time></trkpt><trkpt lat="46.1872789" lon="13.4816009"><ele>492.0</ele><time>2026-05-02T12:33:02.13Z</time></trkpt><trkpt lat="46.1872267" lon="13.4817568"><ele>483.0</ele><time>2026-05-02T12:33:03.131Z</time></trkpt><trkpt lat="46.1871837" lon="13.4819216"><ele>474.0</ele><time>2026-05-02T12:33:04.13Z</time></trkpt><trkpt lat="46.1871574" lon="13.4820971"><ele>465.0</ele><time>2026-05-02T12:33:05.13Z</time></trkpt><trkpt lat="46.1871376" lon="13.4822773"><ele>456.0</ele><time>2026-05-02T12:33:06.131Z</time></trkpt><trkpt lat="46.1871228" lon="13.4824607"><ele>455.0</ele><time>2026-05-02T12:33:07.13Z</time></trkpt><trkpt lat="46.1871108" lon="13.4826408"><ele>454.0</ele><time>2026-05-02T12:33:08.13Z</time></trkpt><trkpt lat="46.1871049" lon="13.4828129"><ele>453.0</ele><time>2026-05-02T12:33:09.13Z</time></trkpt><trkpt lat="46.1871094" lon="13.4829837"><ele>452.0</ele><time>2026-05-02T12:33:10.13Z</time></trkpt><trkpt lat="46.1871325" lon="13.4831592"><ele>451.0</ele><time>2026-05-02T12:33:11.13Z</time></trkpt><trkpt lat="46.1871693" lon="13.4833404"><ele>450.0</ele><time>2026-05-02T12:33:12.13Z</time></trkpt><trkpt lat="46.1872066" lon="13.4835261"><ele>449.0</ele><time>2026-05-02T12:33:13.131Z</time></trkpt><trkpt lat="46.1872276" lon="13.4837157"><ele>448.0</ele><time>2026-05-02T12:33:14.13Z</time></trkpt><trkpt lat="46.1872271" lon="13.4839086"><ele>446.75</ele><time>2026-05-02T12:33:15.13Z</time></trkpt><trkpt lat="46.187224" lon="13.4841034"><ele>445.5</ele><time>2026-05-02T12:33:16.13Z</time></trkpt><trkpt lat="46.1872262" lon="13.4843002"><ele>444.25</ele><time>2026-05-02T12:33:17.13Z</time></trkpt><trkpt lat="46.1872337" lon="13.4844929"><ele>443.0</ele><time>2026-05-02T12:33:18.13Z</time></trkpt><trkpt lat="46.1872548" lon="13.4846814"><ele>439.75</ele><time>2026-05-02T12:33:19.131Z</time></trkpt><trkpt lat="46.1872778" lon="13.4848609"><ele>436.5</ele><time>2026-05-02T12:33:20.131Z</time></trkpt><trkpt lat="46.1872997" lon="13.4850298"><ele>433.25</ele><time>2026-05-02T12:33:21.13Z</time></trkpt><trkpt lat="46.1872942" lon="13.4851957"><ele>430.0</ele><time>2026-05-02T12:33:22.13Z</time></trkpt><trkpt lat="46.1872832" lon="13.4853542"><ele>425.83333333333337</ele><time>2026-05-02T12:33:23.131Z</time></trkpt><trkpt lat="46.187288" lon="13.4854977"><ele>421.6666666666667</ele><time>2026-05-02T12:33:24.13Z</time></trkpt><trkpt lat="46.1873062" lon="13.4856138"><ele>417.5</ele><time>2026-05-02T12:33:25.13Z</time></trkpt><trkpt lat="46.1873413" lon="13.4856987"><ele>413.33333333333337</ele><time>2026-05-02T12:33:26.13Z</time></trkpt><trkpt lat="46.1873214" lon="13.4858022"><ele>409.1666666666667</ele><time>2026-05-02T12:33:28.13Z</time></trkpt><trkpt lat="46.1872422" lon="13.4857119"><ele>405.0</ele><time>2026-05-02T12:33:30.131Z</time></trkpt><trkpt lat="46.1872013" lon="13.4855989"><ele>405.0</ele><time>2026-05-02T12:33:31.131Z</time></trkpt><trkpt lat="46.1871646" lon="13.4854726"><ele>405.0</ele><time>2026-05-02T12:33:32.13Z</time></trkpt><trkpt lat="46.1871203" lon="13.4853435"><ele>405.0</ele><time>2026-05-02T12:33:33.131Z</time></trkpt><trkpt lat="46.1870726" lon="13.4852165"><ele>405.0</ele><time>2026-05-02T12:33:34.13Z</time></trkpt><trkpt lat="46.1870148" lon="13.4850915"><ele>405.0</ele><time>2026-05-02T12:33:35.131Z</time></trkpt><trkpt lat="46.1869425" lon="13.4849706"><ele>411.25</ele><time>2026-05-02T12:33:36.131Z</time></trkpt><trkpt lat="46.1868448" lon="13.4848551"><ele>417.5</ele><time>2026-05-02T12:33:37.13Z</time></trkpt><trkpt lat="46.1867422" lon="13.4847262"><ele>423.75</ele><time>2026-05-02T12:33:38.13Z</time></trkpt><trkpt lat="46.1866556" lon="13.4846057"><ele>430.0</ele><time>2026-05-02T12:33:39.131Z</time></trkpt><trkpt lat="46.1865788" lon="13.4844726"><ele>433.25</ele><time>2026-05-02T12:33:40.13Z</time></trkpt><trkpt lat="46.186514" lon="13.4843393"><ele>436.5</ele><time>2026-05-02T12:33:41.13Z</time></trkpt><trkpt lat="46.1864513" lon="13.4842075"><ele>439.75</ele><time>2026-05-02T12:33:42.13Z</time></trkpt><trkpt lat="46.1864044" lon="13.4840572"><ele>443.0</ele><time>2026-05-02T12:33:43.13Z</time></trkpt><trkpt lat="46.18637" lon="13.4838861"><ele>434.25</ele><time>2026-05-02T12:33:44.13Z</time></trkpt><trkpt lat="46.1863162" lon="13.4837188"><ele>425.5</ele><time>2026-05-02T12:33:45.13Z</time></trkpt><trkpt lat="46.1862462" lon="13.4835401"><ele>416.75</ele><time>2026-05-02T12:33:46.131Z</time></trkpt><trkpt lat="46.1861671" lon="13.4833545"><ele>408.0</ele><time>2026-05-02T12:33:47.13Z</time></trkpt><trkpt lat="46.1861015" lon="13.4831698"><ele>408.0</ele><time>2026-05-02T12:33:48.13Z</time></trkpt><trkpt lat="46.1860387" lon="13.4829949"><ele>408.0</ele><time>2026-05-02T12:33:49.13Z</time></trkpt><trkpt lat="46.1859709" lon="13.4828282"><ele>408.0</ele><time>2026-05-02T12:33:50.13Z</time></trkpt><trkpt lat="46.1858914" lon="13.4826818"><ele>408.0</ele><time>2026-05-02T12:33:51.13Z</time></trkpt><trkpt lat="46.1858194" lon="13.4825424"><ele>406.59999999999997</ele><time>2026-05-02T12:33:52.13Z</time></trkpt><trkpt lat="46.1857649" lon="13.4823968"><ele>405.2</ele><time>2026-05-02T12:33:53.131Z</time></trkpt><trkpt lat="46.1857348" lon="13.4822443"><ele>403.8</ele><time>2026-05-02T12:33:54.13Z</time></trkpt><trkpt lat="46.1856988" lon="13.4820966"><ele>402.4</ele><time>2026-05-02T12:33:55.13Z</time></trkpt><trkpt lat="46.1856381" lon="13.4819742"><ele>401.0</ele><time>2026-05-02T12:33:56.13Z</time></trkpt><trkpt lat="46.1855506" lon="13.4818845"><ele>401.0</ele><time>2026-05-02T12:33:57.13Z</time></trkpt><trkpt lat="46.1854569" lon="13.4818151"><ele>401.0</ele><time>2026-05-02T12:33:58.13Z</time></trkpt><trkpt lat="46.1853594" lon="13.4817419"><ele>401.0</ele><time>2026-05-02T12:33:59.13Z</time></trkpt><trkpt lat="46.1852701" lon="13.4816775"><ele>401.0</ele><time>2026-05-02T12:34:00.13Z</time></trkpt><trkpt lat="46.1851936" lon="13.4816368"><ele>401.0</ele><time>2026-05-02T12:34:01.131Z</time></trkpt><trkpt lat="46.1851233" lon="13.4816083"><ele>401.0</ele><time>2026-05-02T12:34:02.13Z</time></trkpt><trkpt lat="46.1850079" lon="13.4816182"><ele>401.0</ele><time>2026-05-02T12:34:04.13Z</time></trkpt><trkpt lat="46.1849485" lon="13.4816769"><ele>401.0</ele><time>2026-05-02T12:34:05.13Z</time></trkpt><trkpt lat="46.1848827" lon="13.4818453"><ele>401.0</ele><time>2026-05-02T12:34:07.131Z</time></trkpt><trkpt lat="46.1848801" lon="13.4819816"><ele>401.0</ele><time>2026-05-02T12:34:08.13Z</time></trkpt><trkpt lat="46.184881" lon="13.4821367"><ele>399.5</ele><time>2026-05-02T12:34:09.131Z</time></trkpt><trkpt lat="46.1848861" lon="13.4823068"><ele>398.0</ele><time>2026-05-02T12:34:10.131Z</time></trkpt><trkpt lat="46.1848976" lon="13.4824712"><ele>396.5</ele><time>2026-05-02T12:34:11.131Z</time></trkpt><trkpt lat="46.1849133" lon="13.4826295"><ele>395.0</ele><time>2026-05-02T12:34:12.13Z</time></trkpt><trkpt lat="46.1849279" lon="13.4827853"><ele>393.5</ele><time>2026-05-02T12:34:13.131Z</time></trkpt><trkpt lat="46.1849517" lon="13.4829543"><ele>392.0</ele><time>2026-05-02T12:34:14.13Z</time></trkpt><trkpt lat="46.1849891" lon="13.4831204"><ele>390.5</ele><time>2026-05-02T12:34:15.13Z</time></trkpt><trkpt lat="46.1850335" lon="13.483279"><ele>389.0</ele><time>2026-05-02T12:34:16.13Z</time></trkpt><trkpt lat="46.1850734" lon="13.4834379"><ele>389.0</ele><time>2026-05-02T12:34:17.13Z</time></trkpt><trkpt lat="46.1851161" lon="13.4835946"><ele>389.0</ele><time>2026-05-02T12:34:18.13Z</time></trkpt><trkpt lat="46.185161" lon="13.4837494"><ele>389.0</ele><time>2026-05-02T12:34:19.131Z</time></trkpt><trkpt lat="46.1852024" lon="13.4838951"><ele>389.0</ele><time>2026-05-02T12:34:20.13Z</time></trkpt><trkpt lat="46.185252" lon="13.4840246"><ele>389.0</ele><time>2026-05-02T12:34:21.131Z</time></trkpt><trkpt lat="46.1853071" lon="13.4841281"><ele>387.16666666666663</ele><time>2026-05-02T12:34:22.13Z</time></trkpt><trkpt lat="46.1853744" lon="13.4841816"><ele>385.3333333333333</ele><time>2026-05-02T12:34:23.131Z</time></trkpt><trkpt lat="46.1854135" lon="13.484255"><ele>383.5</ele><time>2026-05-02T12:34:24.131Z</time></trkpt><trkpt lat="46.1853617" lon="13.4843969"><ele>381.66666666666663</ele><time>2026-05-02T12:34:26.13Z</time></trkpt><trkpt lat="46.1852788" lon="13.4844352"><ele>379.8333333333333</ele><time>2026-05-02T12:34:27.131Z</time></trkpt><trkpt lat="46.185176" lon="13.4844565"><ele>378.0</ele><time>2026-05-02T12:34:28.13Z</time></trkpt><trkpt lat="46.1850636" lon="13.4844576"><ele>378.0</ele><time>2026-05-02T12:34:29.13Z</time></trkpt><trkpt lat="46.1849414" lon="13.4844436"><ele>378.0</ele><time>2026-05-02T12:34:30.129Z</time></trkpt><trkpt lat="46.1848165" lon="13.4844534"><ele>378.0</ele><time>2026-05-02T12:34:31.129Z</time></trkpt><trkpt lat="46.1847013" lon="13.4844909"><ele>378.0</ele><time>2026-05-02T12:34:32.129Z</time></trkpt><trkpt lat="46.184594" lon="13.4845368"><ele>372.25</ele><time>2026-05-02T12:34:33.129Z</time></trkpt><trkpt lat="46.1844798" lon="13.4845614"><ele>366.5</ele><time>2026-05-02T12:34:34.129Z</time></trkpt><trkpt lat="46.1843598" lon="13.4845384"><ele>360.75</ele><time>2026-05-02T12:34:35.129Z</time></trkpt><trkpt lat="46.184247" lon="13.4844892"><ele>355.0</ele><time>2026-05-02T12:34:36.13Z</time></trkpt><trkpt lat="46.1841504" lon="13.4843985"><ele>355.0</ele><time>2026-05-02T12:34:37.129Z</time></trkpt><trkpt lat="46.1840886" lon="13.4842604"><ele>355.0</ele><time>2026-05-02T12:34:38.129Z</time></trkpt><trkpt lat="46.1840354" lon="13.484111"><ele>355.0</ele><time>2026-05-02T12:34:39.129Z</time></trkpt><trkpt lat="46.1840025" lon="13.4839456"><ele>355.0</ele><time>2026-05-02T12:34:40.129Z</time></trkpt><trkpt lat="46.1839753" lon="13.4837795"><ele>345.5</ele><time>2026-05-02T12:34:41.129Z</time></trkpt><trkpt lat="46.1839445" lon="13.4836129"><ele>336.0</ele><time>2026-05-02T12:34:42.13Z</time></trkpt><trkpt lat="46.1839276" lon="13.4834443"><ele>326.5</ele><time>2026-05-02T12:34:43.13Z</time></trkpt><trkpt lat="46.1839382" lon="13.4832767"><ele>317.0</ele><time>2026-05-02T12:34:44.13Z</time></trkpt><trkpt lat="46.183946" lon="13.4831316"><ele>317.0</ele><time>2026-05-02T12:34:45.129Z</time></trkpt><trkpt lat="46.1839236" lon="13.482992"><ele>317.0</ele><time>2026-05-02T12:34:46.129Z</time></trkpt><trkpt lat="46.18387" lon="13.482847"><ele>317.0</ele><time>2026-05-02T12:34:47.129Z</time></trkpt><trkpt lat="46.1838105" lon="13.4826885"><ele>317.0</ele><time>2026-05-02T12:34:48.13Z</time></trkpt><trkpt lat="46.1837585" lon="13.4825307"><ele>316.25</ele><time>2026-05-02T12:34:49.129Z</time></trkpt><trkpt lat="46.1837135" lon="13.4823771"><ele>315.5</ele><time>2026-05-02T12:34:50.13Z</time></trkpt><trkpt lat="46.1836825" lon="13.4822099"><ele>314.75</ele><time>2026-05-02T12:34:51.13Z</time></trkpt><trkpt lat="46.1836595" lon="13.4820316"><ele>314.0</ele><time>2026-05-02T12:34:52.129Z</time></trkpt><trkpt lat="46.1836519" lon="13.4818478"><ele>315.75</ele><time>2026-05-02T12:34:53.129Z</time></trkpt><trkpt lat="46.183646" lon="13.4816628"><ele>317.5</ele><time>2026-05-02T12:34:54.129Z</time></trkpt><trkpt lat="46.1836298" lon="13.4814755"><ele>319.25</ele><time>2026-05-02T12:34:55.129Z</time></trkpt><trkpt lat="46.183595" lon="13.4812974"><ele>321.0</ele><time>2026-05-02T12:34:56.129Z</time></trkpt><trkpt lat="46.183544" lon="13.4811413"><ele>321.0</ele><time>2026-05-02T12:34:57.129Z</time></trkpt><trkpt lat="46.1834832" lon="13.4810024"><ele>321.0</ele><time>2026-05-02T12:34:58.13Z</time></trkpt><trkpt lat="46.1834204" lon="13.480872"><ele>321.0</ele><time>2026-05-02T12:34:59.129Z</time></trkpt><trkpt lat="46.18337" lon="13.480728"><ele>321.0</ele><time>2026-05-02T12:35:00.13Z</time></trkpt><trkpt lat="46.1833436" lon="13.4805729"><ele>321.0</ele><time>2026-05-02T12:35:01.13Z</time></trkpt><trkpt lat="46.1833273" lon="13.4804202"><ele>321.0</ele><time>2026-05-02T12:35:02.129Z</time></trkpt><trkpt lat="46.1833226" lon="13.4802768"><ele>321.0</ele><time>2026-05-02T12:35:03.129Z</time></trkpt><trkpt lat="46.1833312" lon="13.4801449"><ele>321.0</ele><time>2026-05-02T12:35:04.129Z</time></trkpt><trkpt lat="46.1833583" lon="13.4800262"><ele>321.0</ele><time>2026-05-02T12:35:05.13Z</time></trkpt><trkpt lat="46.1833793" lon="13.479929"><ele>321.0</ele><time>2026-05-02T12:35:06.129Z</time></trkpt><trkpt lat="46.1833158" lon="13.4798158"><ele>321.0</ele><time>2026-05-02T12:35:08.129Z</time></trkpt><trkpt lat="46.1832493" lon="13.4799462"><ele>321.0</ele><time>2026-05-02T12:35:10.13Z</time></trkpt><trkpt lat="46.1832278" lon="13.480065"><ele>321.0</ele><time>2026-05-02T12:35:11.129Z</time></trkpt><trkpt lat="46.1832201" lon="13.480218"><ele>321.0</ele><time>2026-05-02T12:35:12.129Z</time></trkpt><trkpt lat="46.183222" lon="13.4803839"><ele>321.0</ele><time>2026-05-02T12:35:13.13Z</time></trkpt><trkpt lat="46.1832169" lon="13.480552"><ele>321.0</ele><time>2026-05-02T12:35:14.13Z</time></trkpt><trkpt lat="46.1832066" lon="13.4807233"><ele>322.5</ele><time>2026-05-02T12:35:15.13Z</time></trkpt><trkpt lat="46.1831812" lon="13.4808965"><ele>324.0</ele><time>2026-05-02T12:35:16.13Z</time></trkpt><trkpt lat="46.1831649" lon="13.4810769"><ele>325.5</ele><time>2026-05-02T12:35:17.129Z</time></trkpt><trkpt lat="46.1831516" lon="13.4812722"><ele>327.0</ele><time>2026-05-02T12:35:18.13Z</time></trkpt><trkpt lat="46.1831499" lon="13.481463"><ele>316.25</ele><time>2026-05-02T12:35:19.129Z</time></trkpt><trkpt lat="46.1831439" lon="13.4816456"><ele>305.5</ele><time>2026-05-02T12:35:20.129Z</time></trkpt><trkpt lat="46.1831329" lon="13.48182"><ele>294.75</ele><time>2026-05-02T12:35:21.129Z</time></trkpt><trkpt lat="46.1831252" lon="13.4819867"><ele>284.0</ele><time>2026-05-02T12:35:22.129Z</time></trkpt><trkpt lat="46.1831161" lon="13.482141"><ele>284.0</ele><time>2026-05-02T12:35:23.129Z</time></trkpt><trkpt lat="46.1831268" lon="13.4822913"><ele>284.0</ele><time>2026-05-02T12:35:24.129Z</time></trkpt><trkpt lat="46.1831623" lon="13.4824218"><ele>284.0</ele><time>2026-05-02T12:35:25.129Z</time></trkpt><trkpt lat="46.1832073" lon="13.4825437"><ele>284.0</ele><time>2026-05-02T12:35:26.129Z</time></trkpt><trkpt lat="46.183247" lon="13.48265"><ele>284.0</ele><time>2026-05-02T12:35:27.13Z</time></trkpt><trkpt lat="46.1832565" lon="13.4827509"><ele>284.33333333333337</ele><time>2026-05-02T12:35:28.13Z</time></trkpt><trkpt lat="46.1832302" lon="13.4828388"><ele>284.6666666666667</ele><time>2026-05-02T12:35:29.129Z</time></trkpt><trkpt lat="46.1831563" lon="13.4829351"><ele>285.0</ele><time>2026-05-02T12:35:30.129Z</time></trkpt><trkpt lat="46.1830778" lon="13.4830267"><ele>285.3333333333333</ele><time>2026-05-02T12:35:31.13Z</time></trkpt><trkpt lat="46.1830338" lon="13.4831263"><ele>285.66666666666663</ele><time>2026-05-02T12:35:32.129Z</time></trkpt><trkpt lat="46.1830168" lon="13.4832672"><ele>286.0</ele><time>2026-05-02T12:35:33.129Z</time></trkpt><trkpt lat="46.1830217" lon="13.4834398"><ele>286.0</ele><time>2026-05-02T12:35:34.13Z</time></trkpt><trkpt lat="46.183017" lon="13.483629"><ele>286.0</ele><time>2026-05-02T12:35:35.129Z</time></trkpt><trkpt lat="46.1830388" lon="13.4838147"><ele>286.0</ele><time>2026-05-02T12:35:36.13Z</time></trkpt><trkpt lat="46.1830709" lon="13.4839953"><ele>286.0</ele><time>2026-05-02T12:35:37.129Z</time></trkpt><trkpt lat="46.183106" lon="13.4841762"><ele>286.8</ele><time>2026-05-02T12:35:38.13Z</time></trkpt><trkpt lat="46.1831316" lon="13.4843522"><ele>287.6</ele><time>2026-05-02T12:35:39.129Z</time></trkpt><trkpt lat="46.1831508" lon="13.4845135"><ele>288.4</ele><time>2026-05-02T12:35:40.129Z</time></trkpt><trkpt lat="46.1831733" lon="13.4846606"><ele>289.2</ele><time>2026-05-02T12:35:41.129Z</time></trkpt><trkpt lat="46.1832011" lon="13.4847931"><ele>290.0</ele><time>2026-05-02T12:35:42.129Z</time></trkpt><trkpt lat="46.1832462" lon="13.4848994"><ele>290.0</ele><time>2026-05-02T12:35:43.129Z</time></trkpt><trkpt lat="46.1832967" lon="13.4849859"><ele>290.0</ele><time>2026-05-02T12:35:44.13Z</time></trkpt><trkpt lat="46.1832645" lon="13.4851098"><ele>290.0</ele><time>2026-05-02T12:35:46.13Z</time></trkpt><trkpt lat="46.1831817" lon="13.4849903"><ele>290.0</ele><time>2026-05-02T12:35:48.129Z</time></trkpt><trkpt lat="46.1831499" lon="13.4848776"><ele>290.0</ele><time>2026-05-02T12:35:49.13Z</time></trkpt><trkpt lat="46.1831005" lon="13.4847524"><ele>290.0</ele><time>2026-05-02T12:35:50.13Z</time></trkpt><trkpt lat="46.1830451" lon="13.4846037"><ele>290.0</ele><time>2026-05-02T12:35:51.13Z</time></trkpt><trkpt lat="46.1829951" lon="13.4844419"><ele>290.0</ele><time>2026-05-02T12:35:52.129Z</time></trkpt><trkpt lat="46.1829577" lon="13.4842757"><ele>290.0</ele><time>2026-05-02T12:35:53.129Z</time></trkpt><trkpt lat="46.1829286" lon="13.4841054"><ele>289.0</ele><time>2026-05-02T12:35:54.129Z</time></trkpt><trkpt lat="46.1828771" lon="13.4839442"><ele>288.0</ele><time>2026-05-02T12:35:55.129Z</time></trkpt><trkpt lat="46.1828116" lon="13.483803"><ele>287.0</ele><time>2026-05-02T12:35:56.129Z</time></trkpt><trkpt lat="46.1827485" lon="13.4836687"><ele>286.0</ele><time>2026-05-02T12:35:57.129Z</time></trkpt><trkpt lat="46.1827011" lon="13.4835456"><ele>286.0</ele><time>2026-05-02T12:35:58.13Z</time></trkpt><trkpt lat="46.1826863" lon="13.4834197"><ele>286.0</ele><time>2026-05-02T12:35:59.129Z</time></trkpt><trkpt lat="46.1826882" lon="13.4832988"><ele>286.0</ele><time>2026-05-02T12:36:00.129Z</time></trkpt><trkpt lat="46.1827126" lon="13.4831734"><ele>286.0</ele><time>2026-05-02T12:36:01.129Z</time></trkpt><trkpt lat="46.1827408" lon="13.4830575"><ele>286.0</ele><time>2026-05-02T12:36:02.129Z</time></trkpt><trkpt lat="46.1827499" lon="13.4829475"><ele>286.0</ele><time>2026-05-02T12:36:03.13Z</time></trkpt><trkpt lat="46.1827172" lon="13.4828474"><ele>285.5</ele><time>2026-05-02T12:36:04.129Z</time></trkpt><trkpt lat="46.1826463" lon="13.4827626"><ele>285.0</ele><time>2026-05-02T12:36:05.13Z</time></trkpt><trkpt lat="46.1825497" lon="13.482658"><ele>284.5</ele><time>2026-05-02T12:36:06.13Z</time></trkpt><trkpt lat="46.1824695" lon="13.4825403"><ele>284.0</ele><time>2026-05-02T12:36:07.129Z</time></trkpt><trkpt lat="46.1823924" lon="13.4823932"><ele>274.25</ele><time>2026-05-02T12:36:08.13Z</time></trkpt><trkpt lat="46.182331" lon="13.4822332"><ele>264.5</ele><time>2026-05-02T12:36:09.129Z</time></trkpt><trkpt lat="46.1822798" lon="13.4820656"><ele>254.75</ele><time>2026-05-02T12:36:10.129Z</time></trkpt><trkpt lat="46.1822497" lon="13.4818924"><ele>245.0</ele><time>2026-05-02T12:36:11.13Z</time></trkpt><trkpt lat="46.1822317" lon="13.4816925"><ele>245.0</ele><time>2026-05-02T12:36:12.129Z</time></trkpt><trkpt lat="46.1822106" lon="13.4815049"><ele>245.0</ele><time>2026-05-02T12:36:13.129Z</time></trkpt><trkpt lat="46.1821913" lon="13.4813326"><ele>245.0</ele><time>2026-05-02T12:36:14.129Z</time></trkpt><trkpt lat="46.1821712" lon="13.4811658"><ele>245.0</ele><time>2026-05-02T12:36:15.13Z</time></trkpt><trkpt lat="46.1821301" lon="13.4810083"><ele>244.4</ele><time>2026-05-02T12:36:16.129Z</time></trkpt><trkpt lat="46.1820645" lon="13.4808634"><ele>243.8</ele><time>2026-05-02T12:36:17.129Z</time></trkpt><trkpt lat="46.18199" lon="13.4807312"><ele>243.2</ele><time>2026-05-02T12:36:18.129Z</time></trkpt><trkpt lat="46.1819173" lon="13.4806133"><ele>242.6</ele><time>2026-05-02T12:36:19.13Z</time></trkpt><trkpt lat="46.1818707" lon="13.480497"><ele>242.0</ele><time>2026-05-02T12:36:20.13Z</time></trkpt><trkpt lat="46.1818452" lon="13.4803716"><ele>240.8</ele><time>2026-05-02T12:36:21.129Z</time></trkpt><trkpt lat="46.1818574" lon="13.4802344"><ele>239.6</ele><time>2026-05-02T12:36:22.129Z</time></trkpt><trkpt lat="46.1818751" lon="13.4800938"><ele>238.40000000000003</ele><time>2026-05-02T12:36:23.129Z</time></trkpt><trkpt lat="46.1818767" lon="13.47994"><ele>237.20000000000002</ele><time>2026-05-02T12:36:24.13Z</time></trkpt><trkpt lat="46.1818755" lon="13.4798017"><ele>236.0</ele><time>2026-05-02T12:36:25.13Z</time></trkpt><trkpt lat="46.1818953" lon="13.4796665"><ele>231.8</ele><time>2026-05-02T12:36:26.13Z</time></trkpt><trkpt lat="46.1819315" lon="13.479543"><ele>227.60000000000002</ele><time>2026-05-02T12:36:27.13Z</time></trkpt><trkpt lat="46.1820004" lon="13.4794528"><ele>223.4</ele><time>2026-05-02T12:36:28.13Z</time></trkpt><trkpt lat="46.1820823" lon="13.4793726"><ele>219.2</ele><time>2026-05-02T12:36:29.13Z</time></trkpt><trkpt lat="46.1821753" lon="13.4792705"><ele>215.0</ele><time>2026-05-02T12:36:30.129Z</time></trkpt><trkpt lat="46.1822786" lon="13.4791592"><ele>224.25</ele><time>2026-05-02T12:36:31.13Z</time></trkpt><trkpt lat="46.182379" lon="13.4790528"><ele>233.5</ele><time>2026-05-02T12:36:32.13Z</time></trkpt><trkpt lat="46.1824806" lon="13.4789538"><ele>242.75</ele><time>2026-05-02T12:36:33.129Z</time></trkpt><trkpt lat="46.1825927" lon="13.4788744"><ele>252.0</ele><time>2026-05-02T12:36:34.129Z</time></trkpt><trkpt lat="46.1826899" lon="13.4787832"><ele>242.25</ele><time>2026-05-02T12:36:35.129Z</time></trkpt><trkpt lat="46.1827882" lon="13.4786773"><ele>232.5</ele><time>2026-05-02T12:36:36.129Z</time></trkpt><trkpt lat="46.1828873" lon="13.4785543"><ele>222.75</ele><time>2026-05-02T12:36:37.129Z</time></trkpt><trkpt lat="46.1829957" lon="13.4784435"><ele>213.0</ele><time>2026-05-02T12:36:38.13Z</time></trkpt><trkpt lat="46.1831019" lon="13.4783508"><ele>220.0</ele><time>2026-05-02T12:36:39.129Z</time></trkpt><trkpt lat="46.1832123" lon="13.4782779"><ele>227.0</ele><time>2026-05-02T12:36:40.13Z</time></trkpt><trkpt lat="46.1833247" lon="13.4782156"><ele>234.0</ele><time>2026-05-02T12:36:41.129Z</time></trkpt><trkpt lat="46.1834396" lon="13.4781677"><ele>241.0</ele><time>2026-05-02T12:36:42.13Z</time></trkpt><trkpt lat="46.1835657" lon="13.4781287"><ele>241.0</ele><time>2026-05-02T12:36:43.129Z</time></trkpt><trkpt lat="46.1836934" lon="13.4780818"><ele>241.0</ele><time>2026-05-02T12:36:44.13Z</time></trkpt><trkpt lat="46.1838206" lon="13.4780328"><ele>241.0</ele><time>2026-05-02T12:36:45.13Z</time></trkpt><trkpt lat="46.1839338" lon="13.4779823"><ele>241.0</ele><time>2026-05-02T12:36:46.129Z</time></trkpt><trkpt lat="46.1840445" lon="13.4779213"><ele>236.0</ele><time>2026-05-02T12:36:47.13Z</time></trkpt><trkpt lat="46.1841376" lon="13.4778456"><ele>231.0</ele><time>2026-05-02T12:36:48.13Z</time></trkpt><trkpt lat="46.1842269" lon="13.4777534"><ele>226.0</ele><time>2026-05-02T12:36:49.129Z</time></trkpt><trkpt lat="46.1843062" lon="13.4776241"><ele>221.0</ele><time>2026-05-02T12:36:50.13Z</time></trkpt><trkpt lat="46.184385" lon="13.4774811"><ele>221.00000000000003</ele><time>2026-05-02T12:36:51.13Z</time></trkpt><trkpt lat="46.1844615" lon="13.4773649"><ele>221.0</ele><time>2026-05-02T12:36:52.129Z</time></trkpt><trkpt lat="46.1845424" lon="13.4772861"><ele>221.0</ele><time>2026-05-02T12:36:53.129Z</time></trkpt><trkpt lat="46.1846009" lon="13.4772179"><ele>221.0</ele><time>2026-05-02T12:36:54.129Z</time></trkpt><trkpt lat="46.1846385" lon="13.4771414"><ele>221.00000000000003</ele><time>2026-05-02T12:36:55.13Z</time></trkpt><trkpt lat="46.1846103" lon="13.4770122"><ele>221.0</ele><time>2026-05-02T12:36:57.129Z</time></trkpt><trkpt lat="46.1845086" lon="13.4770684"><ele>221.0</ele><time>2026-05-02T12:36:59.13Z</time></trkpt><trkpt lat="46.1844527" lon="13.4771425"><ele>221.00000000000003</ele><time>2026-05-02T12:37:00.13Z</time></trkpt><trkpt lat="46.1843821" lon="13.477243"><ele>221.00000000000003</ele><time>2026-05-02T12:37:01.129Z</time></trkpt><trkpt lat="46.1842935" lon="13.4773469"><ele>221.0</ele><time>2026-05-02T12:37:02.129Z</time></trkpt><trkpt lat="46.1841986" lon="13.4774455"><ele>221.0</ele><time>2026-05-02T12:37:03.13Z</time></trkpt><trkpt lat="46.18409" lon="13.4775254"><ele>216.75</ele><time>2026-05-02T12:37:04.129Z</time></trkpt><trkpt lat="46.1839731" lon="13.4776031"><ele>212.5</ele><time>2026-05-02T12:37:05.129Z</time></trkpt><trkpt lat="46.1838539" lon="13.4776689"><ele>208.25</ele><time>2026-05-02T12:37:06.129Z</time></trkpt><trkpt lat="46.1837331" lon="13.4777271"><ele>204.0</ele><time>2026-05-02T12:37:07.13Z</time></trkpt><trkpt lat="46.1836159" lon="13.4777699"><ele>204.0</ele><time>2026-05-02T12:37:08.13Z</time></trkpt><trkpt lat="46.183501" lon="13.4778072"><ele>204.0</ele><time>2026-05-02T12:37:09.129Z</time></trkpt><trkpt lat="46.1833861" lon="13.4778291"><ele>204.0</ele><time>2026-05-02T12:37:10.129Z</time></trkpt><trkpt lat="46.1832623" lon="13.4778405"><ele>204.0</ele><time>2026-05-02T12:37:11.129Z</time></trkpt><trkpt lat="46.1831265" lon="13.4778513"><ele>201.5</ele><time>2026-05-02T12:37:12.13Z</time></trkpt><trkpt lat="46.1829889" lon="13.4778602"><ele>199.0</ele><time>2026-05-02T12:37:13.13Z</time></trkpt><trkpt lat="46.1828598" lon="13.4778675"><ele>196.5</ele><time>2026-05-02T12:37:14.13Z</time></trkpt><trkpt lat="46.1827352" lon="13.4778767"><ele>194.0</ele><time>2026-05-02T12:37:15.129Z</time></trkpt><trkpt lat="46.1826115" lon="13.4778887"><ele>194.0</ele><time>2026-05-02T12:37:16.129Z</time></trkpt><trkpt lat="46.1824815" lon="13.4779036"><ele>194.0</ele><time>2026-05-02T12:37:17.129Z</time></trkpt><trkpt lat="46.1823555" lon="13.4779264"><ele>194.0</ele><time>2026-05-02T12:37:18.129Z</time></trkpt><trkpt lat="46.1822387" lon="13.4779547"><ele>194.0</ele><time>2026-05-02T12:37:19.13Z</time></trkpt><trkpt lat="46.1821345" lon="13.4779752"><ele>194.2</ele><time>2026-05-02T12:37:20.129Z</time></trkpt><trkpt lat="46.1820369" lon="13.4779884"><ele>194.39999999999998</ele><time>2026-05-02T12:37:21.129Z</time></trkpt><trkpt lat="46.181952" lon="13.4779806"><ele>194.6</ele><time>2026-05-02T12:37:22.129Z</time></trkpt><trkpt lat="46.1818505" lon="13.4779119"><ele>194.8</ele><time>2026-05-02T12:37:24.13Z</time></trkpt><trkpt lat="46.1817905" lon="13.4777866"><ele>195.0</ele><time>2026-05-02T12:37:35.13Z</time></trkpt><trkpt lat="46.1817238" lon="13.4777552"><ele>193.8</ele><time>2026-05-02T12:37:36.13Z</time></trkpt><trkpt lat="46.1816596" lon="13.4777468"><ele>192.6</ele><time>2026-05-02T12:37:37.129Z</time></trkpt><trkpt lat="46.181518" lon="13.4777263"><ele>191.39999999999998</ele><time>2026-05-02T12:37:39.129Z</time></trkpt><trkpt lat="46.1814087" lon="13.4776981"><ele>190.2</ele><time>2026-05-02T12:37:40.129Z</time></trkpt><trkpt lat="46.1812972" lon="13.4776755"><ele>189.0</ele><time>2026-05-02T12:37:41.13Z</time></trkpt><trkpt lat="46.1811924" lon="13.4776465"><ele>189.0</ele><time>2026-05-02T12:37:42.129Z</time></trkpt><trkpt lat="46.1810758" lon="13.4776227"><ele>189.0</ele><time>2026-05-02T12:37:43.129Z</time></trkpt><trkpt lat="46.1809506" lon="13.477599"><ele>189.0</ele><time>2026-05-02T12:37:44.129Z</time></trkpt><trkpt lat="46.1808405" lon="13.4775846"><ele>189.0</ele><time>2026-05-02T12:37:45.13Z</time></trkpt><trkpt lat="46.1807376" lon="13.4775751"><ele>188.83333333333334</ele><time>2026-05-02T12:37:46.129Z</time></trkpt><trkpt lat="46.1806474" lon="13.4775835"><ele>188.66666666666666</ele><time>2026-05-02T12:37:47.13Z</time></trkpt><trkpt lat="46.180567" lon="13.477597"><ele>188.5</ele><time>2026-05-02T12:37:48.129Z</time></trkpt><trkpt lat="46.1805006" lon="13.47761"><ele>188.33333333333331</ele><time>2026-05-02T12:37:49.129Z</time></trkpt><trkpt lat="46.1804176" lon="13.4775473"><ele>188.16666666666666</ele><time>2026-05-02T12:37:51.129Z</time></trkpt><trkpt lat="46.1803928" lon="13.4774515"><ele>188.0</ele><time>2026-05-02T12:37:52.129Z</time></trkpt><trkpt lat="46.180385" lon="13.4773391"><ele>188.0</ele><time>2026-05-02T12:37:53.129Z</time></trkpt><trkpt lat="46.180372" lon="13.4771961"><ele>188.0</ele><time>2026-05-02T12:37:54.129Z</time></trkpt><trkpt lat="46.1803542" lon="13.4770506"><ele>188.0</ele><time>2026-05-02T12:37:55.13Z</time></trkpt><trkpt lat="46.1803273" lon="13.476889"><ele>188.0</ele><time>2026-05-02T12:37:56.129Z</time></trkpt><trkpt lat="46.1802987" lon="13.4767188"><ele>188.0</ele><time>2026-05-02T12:37:57.129Z</time></trkpt><trkpt lat="46.180271" lon="13.4765543"><ele>188.0</ele><time>2026-05-02T12:37:58.129Z</time></trkpt><trkpt lat="46.1802501" lon="13.4763989"><ele>188.0</ele><time>2026-05-02T12:37:59.129Z</time></trkpt><trkpt lat="46.18023" lon="13.4762569"><ele>188.0</ele><time>2026-05-02T12:38:00.129Z</time></trkpt><trkpt lat="46.1802111" lon="13.4761247"><ele>188.0</ele><time>2026-05-02T12:38:01.129Z</time></trkpt><trkpt lat="46.1801945" lon="13.476006"><ele>188.0</ele><time>2026-05-02T12:38:02.129Z</time></trkpt><trkpt lat="46.1801756" lon="13.4759044"><ele>188.33333333333331</ele><time>2026-05-02T12:38:03.13Z</time></trkpt><trkpt lat="46.1801424" lon="13.4758219"><ele>188.66666666666666</ele><time>2026-05-02T12:38:04.13Z</time></trkpt><trkpt lat="46.1801038" lon="13.4757476"><ele>189.0</ele><time>2026-05-02T12:38:05.129Z</time></trkpt><trkpt lat="46.1800533" lon="13.4756201"><ele>189.33333333333334</ele><time>2026-05-02T12:38:07.129Z</time></trkpt><trkpt lat="46.1800532" lon="13.4754713"><ele>189.66666666666669</ele><time>2026-05-02T12:38:09.129Z</time></trkpt><trkpt lat="46.180069" lon="13.4753746"><ele>190.0</ele><time>2026-05-02T12:38:10.129Z</time></trkpt><trkpt lat="46.1800848" lon="13.47526"><ele>191.6</ele><time>2026-05-02T12:38:11.129Z</time></trkpt><trkpt lat="46.1800891" lon="13.4751382"><ele>193.2</ele><time>2026-05-02T12:38:12.13Z</time></trkpt><trkpt lat="46.1800946" lon="13.475014"><ele>194.8</ele><time>2026-05-02T12:38:13.129Z</time></trkpt><trkpt lat="46.1800947" lon="13.4748692"><ele>196.4</ele><time>2026-05-02T12:38:14.129Z</time></trkpt><trkpt lat="46.1800644" lon="13.4747301"><ele>198.0</ele><time>2026-05-02T12:38:15.13Z</time></trkpt><trkpt lat="46.1800266" lon="13.4745993"><ele>199.0</ele><time>2026-05-02T12:38:16.129Z</time></trkpt><trkpt lat="46.1800057" lon="13.4744602"><ele>200.0</ele><time>2026-05-02T12:38:17.129Z</time></trkpt><trkpt lat="46.1799952" lon="13.4743194"><ele>201.0</ele><time>2026-05-02T12:38:18.13Z</time></trkpt><trkpt lat="46.1799909" lon="13.4741711"><ele>202.0</ele><time>2026-05-02T12:38:19.129Z</time></trkpt><trkpt lat="46.1799926" lon="13.4739937"><ele>203.0</ele><time>2026-05-02T12:38:20.129Z</time></trkpt><trkpt lat="46.1799965" lon="13.473829"><ele>204.4</ele><time>2026-05-02T12:38:21.13Z</time></trkpt><trkpt lat="46.1799837" lon="13.4736671"><ele>205.8</ele><time>2026-05-02T12:38:22.129Z</time></trkpt><trkpt lat="46.1799652" lon="13.4735177"><ele>207.2</ele><time>2026-05-02T12:38:23.13Z</time></trkpt><trkpt lat="46.1799361" lon="13.4733731"><ele>208.6</ele><time>2026-05-02T12:38:24.129Z</time></trkpt><trkpt lat="46.1798923" lon="13.4732436"><ele>210.0</ele><time>2026-05-02T12:38:25.129Z</time></trkpt><trkpt lat="46.1798216" lon="13.4731292"><ele>212.8</ele><time>2026-05-02T12:38:26.129Z</time></trkpt><trkpt lat="46.1797488" lon="13.4730392"><ele>215.6</ele><time>2026-05-02T12:38:27.13Z</time></trkpt><trkpt lat="46.179688" lon="13.4729834"><ele>218.39999999999998</ele><time>2026-05-02T12:38:28.129Z</time></trkpt><trkpt lat="46.1796535" lon="13.4728583"><ele>221.2</ele><time>2026-05-02T12:38:30.13Z</time></trkpt><trkpt lat="46.179775" lon="13.472809"><ele>224.0</ele><time>2026-05-02T12:38:32.128Z</time></trkpt><trkpt lat="46.1798571" lon="13.472835"><ele>224.50000000000003</ele><time>2026-05-02T12:38:33.129Z</time></trkpt><trkpt lat="46.1799284" lon="13.4728551"><ele>225.0</ele><time>2026-05-02T12:38:34.128Z</time></trkpt><trkpt lat="46.1799941" lon="13.4729104"><ele>225.5</ele><time>2026-05-02T12:38:35.129Z</time></trkpt><trkpt lat="46.1800224" lon="13.4730098"><ele>226.0</ele><time>2026-05-02T12:38:36.128Z</time></trkpt><trkpt lat="46.1800361" lon="13.4731292"><ele>226.50000000000003</ele><time>2026-05-02T12:38:37.128Z</time></trkpt><trkpt lat="46.1800608" lon="13.4732393"><ele>227.0</ele><time>2026-05-02T12:38:38.129Z</time></trkpt><trkpt lat="46.1801064" lon="13.4733423"><ele>224.16666666666669</ele><time>2026-05-02T12:38:39.128Z</time></trkpt><trkpt lat="46.1801762" lon="13.4734111"><ele>221.33333333333334</ele><time>2026-05-02T12:38:40.129Z</time></trkpt><trkpt lat="46.1802512" lon="13.4734531"><ele>218.5</ele><time>2026-05-02T12:38:41.128Z</time></trkpt><trkpt lat="46.1803335" lon="13.4734922"><ele>215.66666666666669</ele><time>2026-05-02T12:38:42.128Z</time></trkpt><trkpt lat="46.1803839" lon="13.4735659"><ele>212.83333333333334</ele><time>2026-05-02T12:38:43.128Z</time></trkpt><trkpt lat="46.1804241" lon="13.4736937"><ele>210.0</ele><time>2026-05-02T12:38:44.129Z</time></trkpt><trkpt lat="46.1804479" lon="13.4738212"><ele>208.6</ele><time>2026-05-02T12:38:45.129Z</time></trkpt><trkpt lat="46.1804731" lon="13.4739547"><ele>207.2</ele><time>2026-05-02T12:38:46.128Z</time></trkpt><trkpt lat="46.1804927" lon="13.4740863"><ele>205.8</ele><time>2026-05-02T12:38:47.129Z</time></trkpt><trkpt lat="46.1805179" lon="13.4742178"><ele>204.4</ele><time>2026-05-02T12:38:48.129Z</time></trkpt><trkpt lat="46.1805422" lon="13.4743471"><ele>203.0</ele><time>2026-05-02T12:38:49.128Z</time></trkpt><trkpt lat="46.1805627" lon="13.4744791"><ele>203.00000000000003</ele><time>2026-05-02T12:38:50.129Z</time></trkpt><trkpt lat="46.1805801" lon="13.4745975"><ele>203.0</ele><time>2026-05-02T12:38:51.128Z</time></trkpt><trkpt lat="46.1805959" lon="13.4747086"><ele>203.0</ele><time>2026-05-02T12:38:52.128Z</time></trkpt><trkpt lat="46.1806034" lon="13.4748062"><ele>203.0</ele><time>2026-05-02T12:38:53.128Z</time></trkpt><trkpt lat="46.1806107" lon="13.4748993"><ele>203.00000000000003</ele><time>2026-05-02T12:38:54.129Z</time></trkpt><trkpt lat="46.1806974" lon="13.4749459"><ele>203.0</ele><time>2026-05-02T12:38:56.129Z</time></trkpt><trkpt lat="46.1807837" lon="13.4749112"><ele>205.2</ele><time>2026-05-02T12:38:57.129Z</time></trkpt><trkpt lat="46.1808708" lon="13.4748624"><ele>207.4</ele><time>2026-05-02T12:38:58.129Z</time></trkpt><trkpt lat="46.1809757" lon="13.4748273"><ele>209.59999999999997</ele><time>2026-05-02T12:38:59.128Z</time></trkpt><trkpt lat="46.1810739" lon="13.4747957"><ele>211.79999999999998</ele><time>2026-05-02T12:39:00.129Z</time></trkpt><trkpt lat="46.1811488" lon="13.4747783"><ele>214.0</ele><time>2026-05-02T12:39:01.128Z</time></trkpt><trkpt lat="46.1812519" lon="13.474733"><ele>214.0</ele><time>2026-05-02T12:39:03.128Z</time></trkpt><trkpt lat="46.1812624" lon="13.474607"><ele>213.99999999999997</ele><time>2026-05-02T12:39:05.129Z</time></trkpt><trkpt lat="46.1811336" lon="13.4746306"><ele>213.99999999999997</ele><time>2026-05-02T12:39:07.128Z</time></trkpt><trkpt lat="46.1810534" lon="13.4746653"><ele>214.0</ele><time>2026-05-02T12:39:08.128Z</time></trkpt><trkpt lat="46.1809674" lon="13.4746741"><ele>214.0</ele><time>2026-05-02T12:39:09.128Z</time></trkpt><trkpt lat="46.180893" lon="13.4746294"><ele>219.2</ele><time>2026-05-02T12:39:10.128Z</time></trkpt><trkpt lat="46.1808276" lon="13.4745299"><ele>224.39999999999998</ele><time>2026-05-02T12:39:11.128Z</time></trkpt><trkpt lat="46.1807833" lon="13.4744023"><ele>229.6</ele><time>2026-05-02T12:39:12.128Z</time></trkpt><trkpt lat="46.1807573" lon="13.474272"><ele>234.8</ele><time>2026-05-02T12:39:13.129Z</time></trkpt><trkpt lat="46.1807478" lon="13.4741258"><ele>240.0</ele><time>2026-05-02T12:39:14.128Z</time></trkpt><trkpt lat="46.1807434" lon="13.473988"><ele>240.0</ele><time>2026-05-02T12:39:15.128Z</time></trkpt><trkpt lat="46.1807441" lon="13.4738479"><ele>240.0</ele><time>2026-05-02T12:39:16.128Z</time></trkpt><trkpt lat="46.180762" lon="13.4737109"><ele>240.0</ele><time>2026-05-02T12:39:17.129Z</time></trkpt><trkpt lat="46.1808066" lon="13.4735779"><ele>240.0</ele><time>2026-05-02T12:39:18.128Z</time></trkpt><trkpt lat="46.1808701" lon="13.4734597"><ele>240.0</ele><time>2026-05-02T12:39:19.128Z</time></trkpt><trkpt lat="46.1809276" lon="13.4733352"><ele>240.25</ele><time>2026-05-02T12:39:20.129Z</time></trkpt><trkpt lat="46.1809569" lon="13.4731804"><ele>240.5</ele><time>2026-05-02T12:39:21.128Z</time></trkpt><trkpt lat="46.1809404" lon="13.4730116"><ele>240.75</ele><time>2026-05-02T12:39:22.128Z</time></trkpt><trkpt lat="46.1809138" lon="13.4728438"><ele>241.0</ele><time>2026-05-02T12:39:23.128Z</time></trkpt><trkpt lat="46.1808691" lon="13.4726729"><ele>242.8</ele><time>2026-05-02T12:39:24.129Z</time></trkpt><trkpt lat="46.1808234" lon="13.4725106"><ele>244.60000000000002</ele><time>2026-05-02T12:39:25.128Z</time></trkpt><trkpt lat="46.1807789" lon="13.472363"><ele>246.4</ele><time>2026-05-02T12:39:26.129Z</time></trkpt><trkpt lat="46.1807556" lon="13.4722132"><ele>248.2</ele><time>2026-05-02T12:39:27.128Z</time></trkpt><trkpt lat="46.1807522" lon="13.4720734"><ele>250.0</ele><time>2026-05-02T12:39:28.129Z</time></trkpt><trkpt lat="46.1807766" lon="13.4719376"><ele>248.99999999999997</ele><time>2026-05-02T12:39:29.128Z</time></trkpt><trkpt lat="46.18081" lon="13.4718238"><ele>248.0</ele><time>2026-05-02T12:39:30.129Z</time></trkpt><trkpt lat="46.1808042" lon="13.4717286"><ele>247.0</ele><time>2026-05-02T12:39:31.128Z</time></trkpt><trkpt lat="46.1807492" lon="13.4716544"><ele>246.0</ele><time>2026-05-02T12:39:32.128Z</time></trkpt><trkpt lat="46.1806777" lon="13.4716095"><ele>244.99999999999997</ele><time>2026-05-02T12:39:33.129Z</time></trkpt><trkpt lat="46.1805985" lon="13.4715568"><ele>244.0</ele><time>2026-05-02T12:39:34.128Z</time></trkpt><trkpt lat="46.1805482" lon="13.4714413"><ele>244.0</ele><time>2026-05-02T12:39:35.128Z</time></trkpt><trkpt lat="46.1805192" lon="13.4712983"><ele>243.99999999999997</ele><time>2026-05-02T12:39:36.129Z</time></trkpt><trkpt lat="46.1804923" lon="13.4711748"><ele>243.99999999999997</ele><time>2026-05-02T12:39:37.129Z</time></trkpt><trkpt lat="46.1804367" lon="13.4710533"><ele>244.0</ele><time>2026-05-02T12:39:38.128Z</time></trkpt><trkpt lat="46.1803537" lon="13.4710099"><ele>244.0</ele><time>2026-05-02T12:39:39.129Z</time></trkpt><trkpt lat="46.1802606" lon="13.470974"><ele>246.39999999999998</ele><time>2026-05-02T12:39:40.128Z</time></trkpt><trkpt lat="46.180192" lon="13.470897"><ele>248.79999999999998</ele><time>2026-05-02T12:39:41.128Z</time></trkpt><trkpt lat="46.1801503" lon="13.4707807"><ele>251.20000000000002</ele><time>2026-05-02T12:39:42.128Z</time></trkpt><trkpt lat="46.1801179" lon="13.4706519"><ele>253.60000000000002</ele><time>2026-05-02T12:39:43.129Z</time></trkpt><trkpt lat="46.1800988" lon="13.4705108"><ele>256.0</ele><time>2026-05-02T12:39:44.128Z</time></trkpt><trkpt lat="46.1801002" lon="13.4703505"><ele>260.0</ele><time>2026-05-02T12:39:45.129Z</time></trkpt><trkpt lat="46.1801107" lon="13.4701965"><ele>264.0</ele><time>2026-05-02T12:39:46.128Z</time></trkpt><trkpt lat="46.1801238" lon="13.4700342"><ele>268.0</ele><time>2026-05-02T12:39:47.128Z</time></trkpt><trkpt lat="46.1800889" lon="13.4698987"><ele>272.0</ele><time>2026-05-02T12:39:48.129Z</time></trkpt><trkpt lat="46.1800537" lon="13.4697431"><ele>276.0</ele><time>2026-05-02T12:39:49.129Z</time></trkpt><trkpt lat="46.1800348" lon="13.4695818"><ele>277.0</ele><time>2026-05-02T12:39:50.128Z</time></trkpt><trkpt lat="46.1800257" lon="13.4694474"><ele>278.0</ele><time>2026-05-02T12:39:51.129Z</time></trkpt><trkpt lat="46.1799964" lon="13.4693573"><ele>279.0</ele><time>2026-05-02T12:39:52.128Z</time></trkpt><trkpt lat="46.1799168" lon="13.4693152"><ele>280.0</ele><time>2026-05-02T12:39:53.128Z</time></trkpt><trkpt lat="46.1798421" lon="13.4693374"><ele>281.0</ele><time>2026-05-02T12:39:54.128Z</time></trkpt><trkpt lat="46.1797775" lon="13.4694224"><ele>282.0</ele><time>2026-05-02T12:39:55.128Z</time></trkpt><trkpt lat="46.1797119" lon="13.4694971"><ele>282.0</ele><time>2026-05-02T12:39:56.128Z</time></trkpt><trkpt lat="46.1796354" lon="13.4695235"><ele>282.0</ele><time>2026-05-02T12:39:57.129Z</time></trkpt><trkpt lat="46.1795681" lon="13.4694906"><ele>282.0</ele><time>2026-05-02T12:39:58.128Z</time></trkpt><trkpt lat="46.1794992" lon="13.4694213"><ele>282.0</ele><time>2026-05-02T12:39:59.128Z</time></trkpt><trkpt lat="46.1794295" lon="13.4692868"><ele>282.0</ele><time>2026-05-02T12:40:00.129Z</time></trkpt><trkpt lat="46.1793733" lon="13.469158"><ele>282.0</ele><time>2026-05-02T12:40:01.128Z</time></trkpt><trkpt lat="46.1793303" lon="13.4690095"><ele>282.0</ele><time>2026-05-02T12:40:02.128Z</time></trkpt><trkpt lat="46.1793044" lon="13.4688826"><ele>282.0</ele><time>2026-05-02T12:40:03.129Z</time></trkpt><trkpt lat="46.1792801" lon="13.4687634"><ele>282.0</ele><time>2026-05-02T12:40:04.128Z</time></trkpt><trkpt lat="46.1792116" lon="13.4686942"><ele>282.0</ele><time>2026-05-02T12:40:05.128Z</time></trkpt><trkpt lat="46.1791061" lon="13.4686836"><ele>283.4</ele><time>2026-05-02T12:40:06.128Z</time></trkpt><trkpt lat="46.1789941" lon="13.4686816"><ele>284.79999999999995</ele><time>2026-05-02T12:40:07.129Z</time></trkpt><trkpt lat="46.1788818" lon="13.4686435"><ele>286.2</ele><time>2026-05-02T12:40:08.129Z</time></trkpt><trkpt lat="46.1787973" lon="13.4685633"><ele>287.59999999999997</ele><time>2026-05-02T12:40:09.128Z</time></trkpt><trkpt lat="46.1787154" lon="13.4684702"><ele>289.0</ele><time>2026-05-02T12:40:10.129Z</time></trkpt><trkpt lat="46.1786432" lon="13.4683536"><ele>289.0</ele><time>2026-05-02T12:40:11.128Z</time></trkpt><trkpt lat="46.1785739" lon="13.4682152"><ele>289.0</ele><time>2026-05-02T12:40:12.128Z</time></trkpt><trkpt lat="46.1785009" lon="13.4681146"><ele>289.0</ele><time>2026-05-02T12:40:13.129Z</time></trkpt><trkpt lat="46.1784396" lon="13.4680213"><ele>289.0</ele><time>2026-05-02T12:40:14.128Z</time></trkpt><trkpt lat="46.1783998" lon="13.4679186"><ele>289.0</ele><time>2026-05-02T12:40:15.128Z</time></trkpt><trkpt lat="46.1784036" lon="13.4677838"><ele>290.4</ele><time>2026-05-02T12:40:16.129Z</time></trkpt><trkpt lat="46.1784319" lon="13.4676416"><ele>291.79999999999995</ele><time>2026-05-02T12:40:17.128Z</time></trkpt><trkpt lat="46.1784797" lon="13.4675043"><ele>293.20000000000005</ele><time>2026-05-02T12:40:18.128Z</time></trkpt><trkpt lat="46.1785406" lon="13.4673659"><ele>294.6</ele><time>2026-05-02T12:40:19.129Z</time></trkpt><trkpt lat="46.178596" lon="13.4672546"><ele>296.0</ele><time>2026-05-02T12:40:20.128Z</time></trkpt><trkpt lat="46.1786237" lon="13.4671474"><ele>300.0</ele><time>2026-05-02T12:40:21.129Z</time></trkpt><trkpt lat="46.1786075" lon="13.4670364"><ele>304.0</ele><time>2026-05-02T12:40:22.129Z</time></trkpt><trkpt lat="46.1785466" lon="13.4669289"><ele>308.0</ele><time>2026-05-02T12:40:23.128Z</time></trkpt><trkpt lat="46.1784416" lon="13.4668339"><ele>312.0</ele><time>2026-05-02T12:40:24.128Z</time></trkpt><trkpt lat="46.1783223" lon="13.4667535"><ele>316.0</ele><time>2026-05-02T12:40:25.128Z</time></trkpt><trkpt lat="46.1782072" lon="13.4666922"><ele>316.0</ele><time>2026-05-02T12:40:26.129Z</time></trkpt><trkpt lat="46.1781014" lon="13.4666484"><ele>316.0</ele><time>2026-05-02T12:40:27.128Z</time></trkpt><trkpt lat="46.1780397" lon="13.4666241"><ele>316.0</ele><time>2026-05-02T12:40:28.128Z</time></trkpt><trkpt lat="46.1780279" lon="13.466508"><ele>316.0</ele><time>2026-05-02T12:40:30.128Z</time></trkpt><trkpt lat="46.178085" lon="13.4664539"><ele>316.0</ele><time>2026-05-02T12:40:31.128Z</time></trkpt><trkpt lat="46.1781838" lon="13.4664814"><ele>316.0</ele><time>2026-05-02T12:40:32.129Z</time></trkpt><trkpt lat="46.1782961" lon="13.4665424"><ele>316.0</ele><time>2026-05-02T12:40:33.128Z</time></trkpt><trkpt lat="46.1784008" lon="13.4666002"><ele>316.0</ele><time>2026-05-02T12:40:34.129Z</time></trkpt><trkpt lat="46.1784763" lon="13.4666644"><ele>316.0</ele><time>2026-05-02T12:40:35.129Z</time></trkpt><trkpt lat="46.1785401" lon="13.4667032"><ele>316.0</ele><time>2026-05-02T12:40:36.128Z</time></trkpt><trkpt lat="46.1786033" lon="13.4666037"><ele>316.0</ele><time>2026-05-02T12:40:38.128Z</time></trkpt><trkpt lat="46.1785021" lon="13.4664571"><ele>316.0</ele><time>2026-05-02T12:40:40.128Z</time></trkpt><trkpt lat="46.1784151" lon="13.4663774"><ele>316.0</ele><time>2026-05-02T12:40:41.129Z</time></trkpt><trkpt lat="46.178331" lon="13.466268"><ele>316.0</ele><time>2026-05-02T12:40:42.129Z</time></trkpt><trkpt lat="46.1782436" lon="13.4661503"><ele>316.0</ele><time>2026-05-02T12:40:43.128Z</time></trkpt><trkpt lat="46.1781712" lon="13.466051"><ele>316.0</ele><time>2026-05-02T12:40:44.128Z</time></trkpt><trkpt lat="46.178108" lon="13.4659679"><ele>319.8</ele><time>2026-05-02T12:40:45.129Z</time></trkpt><trkpt lat="46.1780656" lon="13.4658615"><ele>323.6</ele><time>2026-05-02T12:40:46.128Z</time></trkpt><trkpt lat="46.1780488" lon="13.4657432"><ele>327.4</ele><time>2026-05-02T12:40:47.128Z</time></trkpt><trkpt lat="46.1780633" lon="13.4656103"><ele>331.2</ele><time>2026-05-02T12:40:48.128Z</time></trkpt><trkpt lat="46.1781077" lon="13.4654798"><ele>335.0</ele><time>2026-05-02T12:40:49.128Z</time></trkpt><trkpt lat="46.1781552" lon="13.4653474"><ele>336.5</ele><time>2026-05-02T12:40:50.128Z</time></trkpt><trkpt lat="46.1781889" lon="13.4652037"><ele>338.0</ele><time>2026-05-02T12:40:51.129Z</time></trkpt><trkpt lat="46.1781891" lon="13.4650401"><ele>339.5</ele><time>2026-05-02T12:40:52.128Z</time></trkpt><trkpt lat="46.1781533" lon="13.4648778"><ele>341.0</ele><time>2026-05-02T12:40:53.128Z</time></trkpt><trkpt lat="46.1781236" lon="13.4647196"><ele>340.6666666666667</ele><time>2026-05-02T12:40:54.128Z</time></trkpt><trkpt lat="46.1781159" lon="13.4645725"><ele>340.33333333333337</ele><time>2026-05-02T12:40:55.128Z</time></trkpt><trkpt lat="46.1781107" lon="13.4644484"><ele>340.0</ele><time>2026-05-02T12:40:56.128Z</time></trkpt><trkpt lat="46.178123" lon="13.4643577"><ele>339.6666666666667</ele><time>2026-05-02T12:40:57.129Z</time></trkpt><trkpt lat="46.1781657" lon="13.4642894"><ele>339.3333333333333</ele><time>2026-05-02T12:40:58.128Z</time></trkpt><trkpt lat="46.1782298" lon="13.464255"><ele>339.0</ele><time>2026-05-02T12:40:59.129Z</time></trkpt><trkpt lat="46.1783063" lon="13.4642914"><ele>339.0</ele><time>2026-05-02T12:41:00.129Z</time></trkpt><trkpt lat="46.1783684" lon="13.4643759"><ele>339.0</ele><time>2026-05-02T12:41:01.128Z</time></trkpt><trkpt lat="46.1784033" lon="13.4645217"><ele>339.0</ele><time>2026-05-02T12:41:02.129Z</time></trkpt><trkpt lat="46.178424" lon="13.4646831"><ele>339.0</ele><time>2026-05-02T12:41:03.129Z</time></trkpt><trkpt lat="46.1784477" lon="13.4648335"><ele>339.0</ele><time>2026-05-02T12:41:04.129Z</time></trkpt><trkpt lat="46.1784717" lon="13.4649811"><ele>339.5</ele><time>2026-05-02T12:41:05.125Z</time></trkpt><trkpt lat="46.1785284" lon="13.4651191"><ele>340.0</ele><time>2026-05-02T12:41:06.129Z</time></trkpt><trkpt lat="46.1786248" lon="13.4652444"><ele>340.5</ele><time>2026-05-02T12:41:07.128Z</time></trkpt><trkpt lat="46.1787243" lon="13.4653676"><ele>341.0</ele><time>2026-05-02T12:41:08.128Z</time></trkpt><trkpt lat="46.1788213" lon="13.4654923"><ele>339.25</ele><time>2026-05-02T12:41:09.128Z</time></trkpt><trkpt lat="46.1789119" lon="13.4655959"><ele>337.5</ele><time>2026-05-02T12:41:10.128Z</time></trkpt><trkpt lat="46.179012" lon="13.4656451"><ele>335.75</ele><time>2026-05-02T12:41:11.129Z</time></trkpt><trkpt lat="46.1791386" lon="13.4656419"><ele>334.0</ele><time>2026-05-02T12:41:12.128Z</time></trkpt><trkpt lat="46.1792601" lon="13.4656906"><ele>339.0</ele><time>2026-05-02T12:41:13.128Z</time></trkpt><trkpt lat="46.1793521" lon="13.4657951"><ele>344.0</ele><time>2026-05-02T12:41:14.129Z</time></trkpt><trkpt lat="46.1794178" lon="13.4659415"><ele>349.0</ele><time>2026-05-02T12:41:15.128Z</time></trkpt><trkpt lat="46.179496" lon="13.4660759"><ele>354.0</ele><time>2026-05-02T12:41:16.129Z</time></trkpt><trkpt lat="46.179569" lon="13.4661889"><ele>354.0</ele><time>2026-05-02T12:41:17.128Z</time></trkpt><trkpt lat="46.1796218" lon="13.4662984"><ele>354.0</ele><time>2026-05-02T12:41:18.129Z</time></trkpt><trkpt lat="46.1796661" lon="13.4663852"><ele>354.0</ele><time>2026-05-02T12:41:19.128Z</time></trkpt><trkpt lat="46.1797462" lon="13.4663541"><ele>354.0</ele><time>2026-05-02T12:41:21.128Z</time></trkpt><trkpt lat="46.1797198" lon="13.4661803"><ele>354.0</ele><time>2026-05-02T12:41:23.128Z</time></trkpt><trkpt lat="46.1796584" lon="13.4660687"><ele>354.0</ele><time>2026-05-02T12:41:24.128Z</time></trkpt><trkpt lat="46.1796049" lon="13.4659218"><ele>354.0</ele><time>2026-05-02T12:41:25.129Z</time></trkpt><trkpt lat="46.1795543" lon="13.4657521"><ele>354.0</ele><time>2026-05-02T12:41:26.129Z</time></trkpt><trkpt lat="46.1795148" lon="13.4655766"><ele>354.0</ele><time>2026-05-02T12:41:27.128Z</time></trkpt><trkpt lat="46.179486" lon="13.4653933"><ele>357.75</ele><time>2026-05-02T12:41:28.128Z</time></trkpt><trkpt lat="46.1794619" lon="13.4652058"><ele>361.5</ele><time>2026-05-02T12:41:29.128Z</time></trkpt><trkpt lat="46.1794367" lon="13.4650124"><ele>365.25</ele><time>2026-05-02T12:41:30.129Z</time></trkpt><trkpt lat="46.1794114" lon="13.4648152"><ele>369.0</ele><time>2026-05-02T12:41:31.129Z</time></trkpt><trkpt lat="46.1793726" lon="13.4646308"><ele>371.5</ele><time>2026-05-02T12:41:32.128Z</time></trkpt><trkpt lat="46.1793026" lon="13.4644742"><ele>374.0</ele><time>2026-05-02T12:41:33.129Z</time></trkpt><trkpt lat="46.1792388" lon="13.4643256"><ele>376.5</ele><time>2026-05-02T12:41:34.129Z</time></trkpt><trkpt lat="46.1791857" lon="13.4641722"><ele>379.0</ele><time>2026-05-02T12:41:35.128Z</time></trkpt><trkpt lat="46.1791671" lon="13.4640034"><ele>379.0</ele><time>2026-05-02T12:41:36.129Z</time></trkpt><trkpt lat="46.1791832" lon="13.4638369"><ele>379.0</ele><time>2026-05-02T12:41:37.128Z</time></trkpt><trkpt lat="46.1791978" lon="13.4636524"><ele>379.0</ele><time>2026-05-02T12:41:38.129Z</time></trkpt><trkpt lat="46.179214" lon="13.4634721"><ele>379.0</ele><time>2026-05-02T12:41:39.128Z</time></trkpt><trkpt lat="46.1792222" lon="13.4632808"><ele>380.25</ele><time>2026-05-02T12:41:40.128Z</time></trkpt><trkpt lat="46.179218" lon="13.4630892"><ele>381.5</ele><time>2026-05-02T12:41:41.128Z</time></trkpt><trkpt lat="46.179193" lon="13.4629124"><ele>382.75</ele><time>2026-05-02T12:41:42.129Z</time></trkpt><trkpt lat="46.179163" lon="13.4627369"><ele>384.0</ele><time>2026-05-02T12:41:43.128Z</time></trkpt><trkpt lat="46.1791316" lon="13.4625722"><ele>385.79999999999995</ele><time>2026-05-02T12:41:44.129Z</time></trkpt><trkpt lat="46.179104" lon="13.4624265"><ele>387.59999999999997</ele><time>2026-05-02T12:41:45.128Z</time></trkpt><trkpt lat="46.17911" lon="13.4622905"><ele>389.4</ele><time>2026-05-02T12:41:46.128Z</time></trkpt><trkpt lat="46.1791239" lon="13.4621585"><ele>391.2</ele><time>2026-05-02T12:41:47.129Z</time></trkpt><trkpt lat="46.1791473" lon="13.4620143"><ele>393.0</ele><time>2026-05-02T12:41:48.128Z</time></trkpt><trkpt lat="46.1791674" lon="13.4618682"><ele>394.0</ele><time>2026-05-02T12:41:49.128Z</time></trkpt><trkpt lat="46.1791726" lon="13.4617163"><ele>395.0</ele><time>2026-05-02T12:41:50.128Z</time></trkpt><trkpt lat="46.179158" lon="13.4615642"><ele>396.0</ele><time>2026-05-02T12:41:51.128Z</time></trkpt><trkpt lat="46.1791197" lon="13.4613968"><ele>397.0</ele><time>2026-05-02T12:41:52.129Z</time></trkpt><trkpt lat="46.1790795" lon="13.4612284"><ele>395.75</ele><time>2026-05-02T12:41:53.129Z</time></trkpt><trkpt lat="46.1790315" lon="13.4610728"><ele>394.5</ele><time>2026-05-02T12:41:54.128Z</time></trkpt><trkpt lat="46.1790012" lon="13.4609036"><ele>393.25</ele><time>2026-05-02T12:41:55.129Z</time></trkpt><trkpt lat="46.1789816" lon="13.4607501"><ele>392.0</ele><time>2026-05-02T12:41:56.128Z</time></trkpt><trkpt lat="46.1789142" lon="13.4606059"><ele>392.0</ele><time>2026-05-02T12:41:57.128Z</time></trkpt><trkpt lat="46.1788175" lon="13.4604906"><ele>392.0</ele><time>2026-05-02T12:41:58.129Z</time></trkpt><trkpt lat="46.1787065" lon="13.4603618"><ele>392.0</ele><time>2026-05-02T12:41:59.128Z</time></trkpt><trkpt lat="46.1786092" lon="13.4602325"><ele>392.0</ele><time>2026-05-02T12:42:00.129Z</time></trkpt><trkpt lat="46.178537" lon="13.4601033"><ele>394.5</ele><time>2026-05-02T12:42:01.128Z</time></trkpt><trkpt lat="46.1784816" lon="13.4599578"><ele>397.0</ele><time>2026-05-02T12:42:02.129Z</time></trkpt><trkpt lat="46.1784291" lon="13.4598099"><ele>399.5</ele><time>2026-05-02T12:42:03.128Z</time></trkpt><trkpt lat="46.1783971" lon="13.4596471"><ele>402.0</ele><time>2026-05-02T12:42:04.129Z</time></trkpt><trkpt lat="46.1783812" lon="13.4594764"><ele>404.8</ele><time>2026-05-02T12:42:05.128Z</time></trkpt><trkpt lat="46.178368" lon="13.4593387"><ele>407.6</ele><time>2026-05-02T12:42:06.128Z</time></trkpt><trkpt lat="46.1783648" lon="13.4592186"><ele>410.40000000000003</ele><time>2026-05-02T12:42:07.128Z</time></trkpt><trkpt lat="46.178428" lon="13.4590889"><ele>413.20000000000005</ele><time>2026-05-02T12:42:09.128Z</time></trkpt><trkpt lat="46.1784925" lon="13.4591192"><ele>416.0</ele><time>2026-05-02T12:42:10.128Z</time></trkpt><trkpt lat="46.1785374" lon="13.459237"><ele>416.0</ele><time>2026-05-02T12:42:11.128Z</time></trkpt><trkpt lat="46.1785702" lon="13.4593905"><ele>416.0</ele><time>2026-05-02T12:42:12.128Z</time></trkpt><trkpt lat="46.1786033" lon="13.4595548"><ele>416.0</ele><time>2026-05-02T12:42:13.128Z</time></trkpt><trkpt lat="46.1786618" lon="13.4596905"><ele>416.0</ele><time>2026-05-02T12:42:14.128Z</time></trkpt><trkpt lat="46.1787681" lon="13.4597922"><ele>418.75</ele><time>2026-05-02T12:42:15.128Z</time></trkpt><trkpt lat="46.1789115" lon="13.4598599"><ele>421.5</ele><time>2026-05-02T12:42:16.128Z</time></trkpt><trkpt lat="46.1790557" lon="13.4599119"><ele>424.25</ele><time>2026-05-02T12:42:17.128Z</time></trkpt><trkpt lat="46.1791811" lon="13.4599711"><ele>427.0</ele><time>2026-05-02T12:42:18.129Z</time></trkpt><trkpt lat="46.1792556" lon="13.4600543"><ele>427.00000000000006</ele><time>2026-05-02T12:42:19.128Z</time></trkpt><trkpt lat="46.1793221" lon="13.4601168"><ele>427.0</ele><time>2026-05-02T12:42:20.128Z</time></trkpt><trkpt lat="46.1793956" lon="13.4600706"><ele>427.0</ele><time>2026-05-02T12:42:22.128Z</time></trkpt><trkpt lat="46.1793787" lon="13.4599608"><ele>427.0</ele><time>2026-05-02T12:42:23.129Z</time></trkpt><trkpt lat="46.1793289" lon="13.4598604"><ele>427.00000000000006</ele><time>2026-05-02T12:42:24.129Z</time></trkpt><trkpt lat="46.1792528" lon="13.4597339"><ele>427.0</ele><time>2026-05-02T12:42:25.128Z</time></trkpt><trkpt lat="46.1791873" lon="13.4596012"><ele>430.75</ele><time>2026-05-02T12:42:26.128Z</time></trkpt><trkpt lat="46.1791485" lon="13.4594305"><ele>434.5</ele><time>2026-05-02T12:42:27.129Z</time></trkpt><trkpt lat="46.179114" lon="13.4592611"><ele>438.25</ele><time>2026-05-02T12:42:28.128Z</time></trkpt><trkpt lat="46.1790651" lon="13.4591039"><ele>442.0</ele><time>2026-05-02T12:42:29.127Z</time></trkpt><trkpt lat="46.1790187" lon="13.4589451"><ele>440.8</ele><time>2026-05-02T12:42:30.128Z</time></trkpt><trkpt lat="46.178986" lon="13.4587977"><ele>439.6</ele><time>2026-05-02T12:42:31.128Z</time></trkpt><trkpt lat="46.1789577" lon="13.4586555"><ele>438.40000000000003</ele><time>2026-05-02T12:42:32.127Z</time></trkpt><trkpt lat="46.178879" lon="13.4585535"><ele>437.20000000000005</ele><time>2026-05-02T12:42:33.128Z</time></trkpt><trkpt lat="46.1787609" lon="13.4585302"><ele>436.0</ele><time>2026-05-02T12:42:34.127Z</time></trkpt><trkpt lat="46.1786606" lon="13.4584958"><ele>436.00000000000006</ele><time>2026-05-02T12:42:35.127Z</time></trkpt><trkpt lat="46.178577" lon="13.4584551"><ele>436.0</ele><time>2026-05-02T12:42:36.127Z</time></trkpt><trkpt lat="46.1785114" lon="13.4584048"><ele>436.0</ele><time>2026-05-02T12:42:37.128Z</time></trkpt><trkpt lat="46.178523" lon="13.458266"><ele>436.0</ele><time>2026-05-02T12:42:39.127Z</time></trkpt><trkpt lat="46.1785865" lon="13.4582284"><ele>436.00000000000006</ele><time>2026-05-02T12:42:40.127Z</time></trkpt><trkpt lat="46.1786679" lon="13.4582394"><ele>436.0</ele><time>2026-05-02T12:42:41.128Z</time></trkpt><trkpt lat="46.1787739" lon="13.4582728"><ele>436.0</ele><time>2026-05-02T12:42:42.127Z</time></trkpt><trkpt lat="46.178893" lon="13.4583397"><ele>436.0</ele><time>2026-05-02T12:42:43.128Z</time></trkpt><trkpt lat="46.1790099" lon="13.458403"><ele>436.0</ele><time>2026-05-02T12:42:44.127Z</time></trkpt><trkpt lat="46.1791347" lon="13.4584847"><ele>436.0</ele><time>2026-05-02T12:42:45.127Z</time></trkpt><trkpt lat="46.1792354" lon="13.4585984"><ele>437.5</ele><time>2026-05-02T12:42:46.128Z</time></trkpt><trkpt lat="46.1793384" lon="13.4587404"><ele>439.0</ele><time>2026-05-02T12:42:47.127Z</time></trkpt><trkpt lat="46.1794527" lon="13.4588847"><ele>440.5</ele><time>2026-05-02T12:42:48.128Z</time></trkpt><trkpt lat="46.1795648" lon="13.4590088"><ele>442.0</ele><time>2026-05-02T12:42:49.128Z</time></trkpt><trkpt lat="46.1796719" lon="13.4591325"><ele>442.0</ele><time>2026-05-02T12:42:50.127Z</time></trkpt><trkpt lat="46.179764" lon="13.4592664"><ele>442.0</ele><time>2026-05-02T12:42:51.127Z</time></trkpt><trkpt lat="46.1798324" lon="13.4594128"><ele>442.0</ele><time>2026-05-02T12:42:52.127Z</time></trkpt><trkpt lat="46.1798736" lon="13.4595722"><ele>442.0</ele><time>2026-05-02T12:42:53.128Z</time></trkpt><trkpt lat="46.1798961" lon="13.4597168"><ele>445.75</ele><time>2026-05-02T12:42:54.127Z</time></trkpt><trkpt lat="46.1799385" lon="13.4598405"><ele>449.5</ele><time>2026-05-02T12:42:55.127Z</time></trkpt><trkpt lat="46.1800257" lon="13.4599418"><ele>453.25</ele><time>2026-05-02T12:42:56.127Z</time></trkpt><trkpt lat="46.180128" lon="13.4600338"><ele>457.0</ele><time>2026-05-02T12:42:57.128Z</time></trkpt><trkpt lat="46.1802474" lon="13.4600914"><ele>457.0</ele><time>2026-05-02T12:42:58.127Z</time></trkpt><trkpt lat="46.1803696" lon="13.4601341"><ele>457.0</ele><time>2026-05-02T12:42:59.128Z</time></trkpt><trkpt lat="46.1804697" lon="13.4602193"><ele>457.0</ele><time>2026-05-02T12:43:00.127Z</time></trkpt><trkpt lat="46.1805272" lon="13.4603289"><ele>457.0</ele><time>2026-05-02T12:43:01.128Z</time></trkpt><trkpt lat="46.1805733" lon="13.46048"><ele>459.8</ele><time>2026-05-02T12:43:02.127Z</time></trkpt><trkpt lat="46.1806304" lon="13.4606219"><ele>462.6</ele><time>2026-05-02T12:43:03.128Z</time></trkpt><trkpt lat="46.1806863" lon="13.4607571"><ele>465.40000000000003</ele><time>2026-05-02T12:43:04.128Z</time></trkpt><trkpt lat="46.1807338" lon="13.4608913"><ele>468.20000000000005</ele><time>2026-05-02T12:43:05.127Z</time></trkpt><trkpt lat="46.180777" lon="13.461012"><ele>471.0</ele><time>2026-05-02T12:43:06.128Z</time></trkpt><trkpt lat="46.1808324" lon="13.4611049"><ele>471.0</ele><time>2026-05-02T12:43:07.128Z</time></trkpt><trkpt lat="46.1809117" lon="13.4611681"><ele>471.0</ele><time>2026-05-02T12:43:08.127Z</time></trkpt><trkpt lat="46.1810004" lon="13.4612222"><ele>471.0</ele><time>2026-05-02T12:43:09.128Z</time></trkpt><trkpt lat="46.1810918" lon="13.4612574"><ele>471.0</ele><time>2026-05-02T12:43:10.128Z</time></trkpt><trkpt lat="46.1811744" lon="13.4612621"><ele>471.0</ele><time>2026-05-02T12:43:11.128Z</time></trkpt><trkpt lat="46.1812837" lon="13.4612214"><ele>471.0</ele><time>2026-05-02T12:43:12.128Z</time></trkpt><trkpt lat="46.1813914" lon="13.4611781"><ele>471.0</ele><time>2026-05-02T12:43:13.127Z</time></trkpt><trkpt lat="46.1814951" lon="13.4611548"><ele>471.0</ele><time>2026-05-02T12:43:14.128Z</time></trkpt><trkpt lat="46.1815991" lon="13.4611567"><ele>471.0</ele><time>2026-05-02T12:43:15.127Z</time></trkpt><trkpt lat="46.1817046" lon="13.4611887"><ele>471.0</ele><time>2026-05-02T12:43:16.128Z</time></trkpt><trkpt lat="46.1818119" lon="13.4612292"><ele>471.0</ele><time>2026-05-02T12:43:17.128Z</time></trkpt><trkpt lat="46.181909" lon="13.4612924"><ele>471.0</ele><time>2026-05-02T12:43:18.128Z</time></trkpt><trkpt lat="46.1820022" lon="13.4613952"><ele>471.0</ele><time>2026-05-02T12:43:19.127Z</time></trkpt><trkpt lat="46.1820722" lon="13.4615308"><ele>471.0</ele><time>2026-05-02T12:43:20.128Z</time></trkpt><trkpt lat="46.18214" lon="13.4616759"><ele>471.0</ele><time>2026-05-02T12:43:21.127Z</time></trkpt><trkpt lat="46.1821988" lon="13.4618265"><ele>471.0</ele><time>2026-05-02T12:43:22.128Z</time></trkpt><trkpt lat="46.182244" lon="13.4619837"><ele>471.0</ele><time>2026-05-02T12:43:23.127Z</time></trkpt><trkpt lat="46.1822632" lon="13.462141"><ele>471.0</ele><time>2026-05-02T12:43:24.127Z</time></trkpt><trkpt lat="46.1822589" lon="13.4622904"><ele>468.8</ele><time>2026-05-02T12:43:25.127Z</time></trkpt><trkpt lat="46.1822415" lon="13.4624345"><ele>466.6</ele><time>2026-05-02T12:43:26.128Z</time></trkpt><trkpt lat="46.1822315" lon="13.4625791"><ele>464.4</ele><time>2026-05-02T12:43:27.128Z</time></trkpt><trkpt lat="46.182251" lon="13.4627035"><ele>462.2</ele><time>2026-05-02T12:43:28.127Z</time></trkpt><trkpt lat="46.1822867" lon="13.4628303"><ele>460.0</ele><time>2026-05-02T12:43:29.127Z</time></trkpt><trkpt lat="46.1823306" lon="13.4629152"><ele>466.4</ele><time>2026-05-02T12:43:30.127Z</time></trkpt><trkpt lat="46.1824298" lon="13.4628962"><ele>472.8</ele><time>2026-05-02T12:43:32.128Z</time></trkpt><trkpt lat="46.1824372" lon="13.4627491"><ele>479.20000000000005</ele><time>2026-05-02T12:43:34.128Z</time></trkpt><trkpt lat="46.1823965" lon="13.4625867"><ele>485.6</ele><time>2026-05-02T12:43:36.127Z</time></trkpt><trkpt lat="46.1823856" lon="13.4624511"><ele>492.0</ele><time>2026-05-02T12:43:38.128Z</time></trkpt><trkpt lat="46.182384" lon="13.4623009"><ele>492.0</ele><time>2026-05-02T12:43:40.128Z</time></trkpt><trkpt lat="46.1823863" lon="13.4622"><ele>492.0</ele><time>2026-05-02T12:43:41.127Z</time></trkpt><trkpt lat="46.182392" lon="13.4620817"><ele>492.0</ele><time>2026-05-02T12:43:42.127Z</time></trkpt><trkpt lat="46.1824025" lon="13.4619537"><ele>492.0</ele><time>2026-05-02T12:43:43.127Z</time></trkpt><trkpt lat="46.18242" lon="13.4618403"><ele>492.0</ele><time>2026-05-02T12:43:44.127Z</time></trkpt><trkpt lat="46.1824494" lon="13.4617371"><ele>492.0</ele><time>2026-05-02T12:43:45.127Z</time></trkpt><trkpt lat="46.1824723" lon="13.461631"><ele>491.8333333333333</ele><time>2026-05-02T12:43:46.127Z</time></trkpt><trkpt lat="46.1824708" lon="13.4615275"><ele>491.66666666666663</ele><time>2026-05-02T12:43:47.127Z</time></trkpt><trkpt lat="46.1824326" lon="13.4614247"><ele>491.5</ele><time>2026-05-02T12:43:48.128Z</time></trkpt><trkpt lat="46.182374" lon="13.4613177"><ele>491.3333333333333</ele><time>2026-05-02T12:43:49.127Z</time></trkpt><trkpt lat="46.1823226" lon="13.4611873"><ele>491.16666666666663</ele><time>2026-05-02T12:43:50.127Z</time></trkpt><trkpt lat="46.1822749" lon="13.4610642"><ele>491.0</ele><time>2026-05-02T12:43:51.127Z</time></trkpt><trkpt lat="46.1822254" lon="13.4609432"><ele>491.0</ele><time>2026-05-02T12:43:52.128Z</time></trkpt><trkpt lat="46.1821669" lon="13.4608228"><ele>491.0</ele><time>2026-05-02T12:43:53.127Z</time></trkpt><trkpt lat="46.1820909" lon="13.4607072"><ele>491.0</ele><time>2026-05-02T12:43:54.127Z</time></trkpt><trkpt lat="46.1820011" lon="13.4606118"><ele>491.0</ele><time>2026-05-02T12:43:55.128Z</time></trkpt><trkpt lat="46.1819164" lon="13.4605162"><ele>491.0</ele><time>2026-05-02T12:43:56.127Z</time></trkpt><trkpt lat="46.1818316" lon="13.4604173"><ele>489.25</ele><time>2026-05-02T12:43:57.127Z</time></trkpt><trkpt lat="46.1817347" lon="13.4603359"><ele>487.5</ele><time>2026-05-02T12:43:58.127Z</time></trkpt><trkpt lat="46.1816266" lon="13.4602678"><ele>485.75</ele><time>2026-05-02T12:43:59.127Z</time></trkpt><trkpt lat="46.1815286" lon="13.4601768"><ele>484.0</ele><time>2026-05-02T12:44:00.127Z</time></trkpt><trkpt lat="46.1814484" lon="13.4600618"><ele>484.0</ele><time>2026-05-02T12:44:01.127Z</time></trkpt><trkpt lat="46.1814078" lon="13.4599325"><ele>484.0</ele><time>2026-05-02T12:44:02.127Z</time></trkpt><trkpt lat="46.1813929" lon="13.4597803"><ele>484.0</ele><time>2026-05-02T12:44:03.127Z</time></trkpt><trkpt lat="46.1813873" lon="13.4596203"><ele>484.0</ele><time>2026-05-02T12:44:04.127Z</time></trkpt><trkpt lat="46.1813566" lon="13.4594714"><ele>484.0</ele><time>2026-05-02T12:44:05.127Z</time></trkpt><trkpt lat="46.1812912" lon="13.4593377"><ele>487.0</ele><time>2026-05-02T12:44:06.127Z</time></trkpt><trkpt lat="46.181208" lon="13.4591943"><ele>490.0</ele><time>2026-05-02T12:44:07.128Z</time></trkpt><trkpt lat="46.1811279" lon="13.4590586"><ele>493.0</ele><time>2026-05-02T12:44:08.128Z</time></trkpt><trkpt lat="46.1810518" lon="13.4589202"><ele>496.0</ele><time>2026-05-02T12:44:09.128Z</time></trkpt><trkpt lat="46.180997" lon="13.4587737"><ele>498.20000000000005</ele><time>2026-05-02T12:44:10.127Z</time></trkpt><trkpt lat="46.1809637" lon="13.4586216"><ele>500.40000000000003</ele><time>2026-05-02T12:44:11.127Z</time></trkpt><trkpt lat="46.1809391" lon="13.4584664"><ele>502.6</ele><time>2026-05-02T12:44:12.127Z</time></trkpt><trkpt lat="46.1809114" lon="13.4583042"><ele>504.8</ele><time>2026-05-02T12:44:13.127Z</time></trkpt><trkpt lat="46.1808936" lon="13.4581446"><ele>507.0</ele><time>2026-05-02T12:44:14.128Z</time></trkpt><trkpt lat="46.1808484" lon="13.4579981"><ele>506.5</ele><time>2026-05-02T12:44:15.128Z</time></trkpt><trkpt lat="46.1807859" lon="13.4578612"><ele>506.0</ele><time>2026-05-02T12:44:16.127Z</time></trkpt><trkpt lat="46.1807044" lon="13.4577342"><ele>505.5</ele><time>2026-05-02T12:44:17.127Z</time></trkpt><trkpt lat="46.180617" lon="13.4576131"><ele>505.0</ele><time>2026-05-02T12:44:18.127Z</time></trkpt><trkpt lat="46.1805385" lon="13.4574902"><ele>505.0</ele><time>2026-05-02T12:44:19.127Z</time></trkpt><trkpt lat="46.1804724" lon="13.4573587"><ele>505.0</ele><time>2026-05-02T12:44:20.127Z</time></trkpt><trkpt lat="46.1804159" lon="13.4572108"><ele>505.0</ele><time>2026-05-02T12:44:21.127Z</time></trkpt><trkpt lat="46.1803601" lon="13.457067"><ele>505.0</ele><time>2026-05-02T12:44:22.127Z</time></trkpt><trkpt lat="46.1802987" lon="13.4569223"><ele>508.8</ele><time>2026-05-02T12:44:23.127Z</time></trkpt><trkpt lat="46.1802229" lon="13.4567849"><ele>512.6</ele><time>2026-05-02T12:44:24.127Z</time></trkpt><trkpt lat="46.1801489" lon="13.4566504"><ele>516.4</ele><time>2026-05-02T12:44:25.127Z</time></trkpt><trkpt lat="46.1800855" lon="13.456527"><ele>520.2</ele><time>2026-05-02T12:44:26.128Z</time></trkpt><trkpt lat="46.1800406" lon="13.4564042"><ele>524.0</ele><time>2026-05-02T12:44:27.127Z</time></trkpt><trkpt lat="46.1800074" lon="13.4562681"><ele>527.0</ele><time>2026-05-02T12:44:28.128Z</time></trkpt><trkpt lat="46.1799773" lon="13.456118"><ele>530.0</ele><time>2026-05-02T12:44:29.127Z</time></trkpt><trkpt lat="46.1799549" lon="13.4559671"><ele>533.0</ele><time>2026-05-02T12:44:30.128Z</time></trkpt><trkpt lat="46.1799371" lon="13.4558326"><ele>536.0</ele><time>2026-05-02T12:44:31.128Z</time></trkpt><trkpt lat="46.179933" lon="13.4557242"><ele>539.0</ele><time>2026-05-02T12:44:32.128Z</time></trkpt><trkpt lat="46.1799578" lon="13.45563"><ele>539.0</ele><time>2026-05-02T12:44:33.128Z</time></trkpt><trkpt lat="46.1800054" lon="13.4555412"><ele>539.0</ele><time>2026-05-02T12:44:34.127Z</time></trkpt><trkpt lat="46.1800319" lon="13.4554436"><ele>539.0</ele><time>2026-05-02T12:44:35.127Z</time></trkpt><trkpt lat="46.1800248" lon="13.4553297"><ele>539.0</ele><time>2026-05-02T12:44:36.127Z</time></trkpt><trkpt lat="46.1799844" lon="13.4552316"><ele>539.0</ele><time>2026-05-02T12:44:37.128Z</time></trkpt><trkpt lat="46.1799185" lon="13.4551648"><ele>539.0</ele><time>2026-05-02T12:44:38.127Z</time></trkpt><trkpt lat="46.1798396" lon="13.4551316"><ele>536.2857142857143</ele><time>2026-05-02T12:44:39.127Z</time></trkpt><trkpt lat="46.1797515" lon="13.4551339"><ele>533.5714285714286</ele><time>2026-05-02T12:44:40.127Z</time></trkpt><trkpt lat="46.1796712" lon="13.4551487"><ele>530.8571428571429</ele><time>2026-05-02T12:44:41.128Z</time></trkpt><trkpt lat="46.1796014" lon="13.4551545"><ele>528.1428571428571</ele><time>2026-05-02T12:44:42.127Z</time></trkpt><trkpt lat="46.1795393" lon="13.4551282"><ele>525.4285714285714</ele><time>2026-05-02T12:44:43.127Z</time></trkpt><trkpt lat="46.1794963" lon="13.4550527"><ele>522.7142857142858</ele><time>2026-05-02T12:44:44.127Z</time></trkpt><trkpt lat="46.1794743" lon="13.4549649"><ele>520.0</ele><time>2026-05-02T12:44:45.128Z</time></trkpt><trkpt lat="46.1794622" lon="13.4548538"><ele>520.0</ele><time>2026-05-02T12:44:46.127Z</time></trkpt><trkpt lat="46.1794631" lon="13.454735"><ele>520.0</ele><time>2026-05-02T12:44:47.127Z</time></trkpt><trkpt lat="46.1794656" lon="13.4545943"><ele>520.0</ele><time>2026-05-02T12:44:48.127Z</time></trkpt><trkpt lat="46.1794672" lon="13.4544475"><ele>520.0</ele><time>2026-05-02T12:44:49.127Z</time></trkpt><trkpt lat="46.179468" lon="13.4543008"><ele>520.0</ele><time>2026-05-02T12:44:50.128Z</time></trkpt><trkpt lat="46.1794663" lon="13.4541481"><ele>521.8</ele><time>2026-05-02T12:44:51.128Z</time></trkpt><trkpt lat="46.1794685" lon="13.4539972"><ele>523.6</ele><time>2026-05-02T12:44:52.127Z</time></trkpt><trkpt lat="46.1794614" lon="13.4538462"><ele>525.4</ele><time>2026-05-02T12:44:53.127Z</time></trkpt><trkpt lat="46.1794264" lon="13.4537019"><ele>527.2</ele><time>2026-05-02T12:44:54.127Z</time></trkpt><trkpt lat="46.1793625" lon="13.4535655"><ele>529.0</ele><time>2026-05-02T12:44:55.127Z</time></trkpt><trkpt lat="46.1792848" lon="13.4534466"><ele>532.0</ele><time>2026-05-02T12:44:56.127Z</time></trkpt><trkpt lat="46.1792189" lon="13.4533213"><ele>535.0</ele><time>2026-05-02T12:44:57.127Z</time></trkpt><trkpt lat="46.1791615" lon="13.4531825"><ele>538.0</ele><time>2026-05-02T12:44:58.127Z</time></trkpt><trkpt lat="46.1791179" lon="13.45304"><ele>541.0</ele><time>2026-05-02T12:44:59.127Z</time></trkpt><trkpt lat="46.1790954" lon="13.4528853"><ele>544.0</ele><time>2026-05-02T12:45:00.128Z</time></trkpt><trkpt lat="46.1790862" lon="13.4527323"><ele>547.0</ele><time>2026-05-02T12:45:01.127Z</time></trkpt><trkpt lat="46.1790781" lon="13.4525831"><ele>550.0</ele><time>2026-05-02T12:45:02.127Z</time></trkpt><trkpt lat="46.1790586" lon="13.4524432"><ele>553.0</ele><time>2026-05-02T12:45:03.128Z</time></trkpt><trkpt lat="46.1790183" lon="13.4523204"><ele>556.0</ele><time>2026-05-02T12:45:04.127Z</time></trkpt><trkpt lat="46.178966" lon="13.4522179"><ele>559.0</ele><time>2026-05-02T12:45:05.127Z</time></trkpt><trkpt lat="46.1789231" lon="13.4521254"><ele>559.0</ele><time>2026-05-02T12:45:06.127Z</time></trkpt><trkpt lat="46.1789102" lon="13.4519673"><ele>559.0</ele><time>2026-05-02T12:45:08.128Z</time></trkpt><trkpt lat="46.1789783" lon="13.4519535"><ele>559.0</ele><time>2026-05-02T12:45:09.127Z</time></trkpt><trkpt lat="46.1790827" lon="13.452103"><ele>559.0</ele><time>2026-05-02T12:45:11.127Z</time></trkpt><trkpt lat="46.1791337" lon="13.4522396"><ele>559.0</ele><time>2026-05-02T12:45:12.127Z</time></trkpt><trkpt lat="46.1791845" lon="13.4523824"><ele>559.0</ele><time>2026-05-02T12:45:13.128Z</time></trkpt><trkpt lat="46.1792494" lon="13.452529"><ele>559.0</ele><time>2026-05-02T12:45:14.127Z</time></trkpt><trkpt lat="46.1793187" lon="13.4526663"><ele>559.0</ele><time>2026-05-02T12:45:15.128Z</time></trkpt><trkpt lat="46.1793839" lon="13.4528089"><ele>559.0</ele><time>2026-05-02T12:45:16.128Z</time></trkpt><trkpt lat="46.1794547" lon="13.4529565"><ele>555.25</ele><time>2026-05-02T12:45:17.128Z</time></trkpt><trkpt lat="46.1795276" lon="13.4531123"><ele>551.5</ele><time>2026-05-02T12:45:18.128Z</time></trkpt><trkpt lat="46.1795942" lon="13.4532722"><ele>547.75</ele><time>2026-05-02T12:45:19.128Z</time></trkpt><trkpt lat="46.1796778" lon="13.4534246"><ele>544.0</ele><time>2026-05-02T12:45:20.127Z</time></trkpt><trkpt lat="46.1797678" lon="13.453551"><ele>546.2</ele><time>2026-05-02T12:45:21.128Z</time></trkpt><trkpt lat="46.1798562" lon="13.4536539"><ele>548.4</ele><time>2026-05-02T12:45:22.127Z</time></trkpt><trkpt lat="46.1799373" lon="13.4537624"><ele>550.6</ele><time>2026-05-02T12:45:23.128Z</time></trkpt><trkpt lat="46.1799856" lon="13.4538943"><ele>552.8</ele><time>2026-05-02T12:45:24.128Z</time></trkpt><trkpt lat="46.1799935" lon="13.4540215"><ele>555.0</ele><time>2026-05-02T12:45:25.128Z</time></trkpt><trkpt lat="46.180007" lon="13.4541234"><ele>555.0</ele><time>2026-05-02T12:45:26.128Z</time></trkpt><trkpt lat="46.1801038" lon="13.4541488"><ele>555.0</ele><time>2026-05-02T12:45:28.127Z</time></trkpt><trkpt lat="46.1801371" lon="13.4540122"><ele>555.0</ele><time>2026-05-02T12:45:30.127Z</time></trkpt><trkpt lat="46.1801082" lon="13.4539044"><ele>555.0</ele><time>2026-05-02T12:45:31.127Z</time></trkpt><trkpt lat="46.1800648" lon="13.4537748"><ele>555.0</ele><time>2026-05-02T12:45:32.128Z</time></trkpt><trkpt lat="46.1800237" lon="13.4536294"><ele>552.25</ele><time>2026-05-02T12:45:33.127Z</time></trkpt><trkpt lat="46.1799872" lon="13.4534859"><ele>549.5</ele><time>2026-05-02T12:45:34.127Z</time></trkpt><trkpt lat="46.1799405" lon="13.4533329"><ele>546.75</ele><time>2026-05-02T12:45:35.128Z</time></trkpt><trkpt lat="46.1798913" lon="13.4531798"><ele>544.0</ele><time>2026-05-02T12:45:36.127Z</time></trkpt><trkpt lat="46.1798317" lon="13.45303"><ele>547.0</ele><time>2026-05-02T12:45:37.127Z</time></trkpt><trkpt lat="46.1797727" lon="13.4528854"><ele>550.0</ele><time>2026-05-02T12:45:38.128Z</time></trkpt><trkpt lat="46.1797202" lon="13.4527416"><ele>553.0</ele><time>2026-05-02T12:45:39.127Z</time></trkpt><trkpt lat="46.1796764" lon="13.4525963"><ele>556.0</ele><time>2026-05-02T12:45:40.127Z</time></trkpt><trkpt lat="46.1796478" lon="13.4524512"><ele>559.0</ele><time>2026-05-02T12:45:41.128Z</time></trkpt><trkpt lat="46.1796294" lon="13.4523068"><ele>559.0</ele><time>2026-05-02T12:45:42.128Z</time></trkpt><trkpt lat="46.1796312" lon="13.4521518"><ele>559.0</ele><time>2026-05-02T12:45:43.127Z</time></trkpt><trkpt lat="46.1796574" lon="13.4519991"><ele>559.0</ele><time>2026-05-02T12:45:44.128Z</time></trkpt><trkpt lat="46.179681" lon="13.4518496"><ele>559.0</ele><time>2026-05-02T12:45:45.128Z</time></trkpt><trkpt lat="46.1797104" lon="13.4517268"><ele>559.0</ele><time>2026-05-02T12:45:46.127Z</time></trkpt><trkpt lat="46.1797379" lon="13.4516235"><ele>560.3333333333334</ele><time>2026-05-02T12:45:47.127Z</time></trkpt><trkpt lat="46.1797351" lon="13.451498"><ele>561.6666666666667</ele><time>2026-05-02T12:45:49.128Z</time></trkpt><trkpt lat="46.1797457" lon="13.4513928"><ele>563.0</ele><time>2026-05-02T12:45:51.127Z</time></trkpt><trkpt lat="46.1797603" lon="13.4512845"><ele>564.3333333333334</ele><time>2026-05-02T12:45:53.127Z</time></trkpt><trkpt lat="46.1797506" lon="13.4511811"><ele>565.6666666666666</ele><time>2026-05-02T12:45:55.127Z</time></trkpt><trkpt lat="46.1797247" lon="13.4510709"><ele>567.0</ele><time>2026-05-02T12:45:57.127Z</time></trkpt><trkpt lat="46.1796575" lon="13.4509296"><ele>567.0</ele><time>2026-05-02T12:45:59.127Z</time></trkpt><trkpt lat="46.1795895" lon="13.4507804"><ele>567.0</ele><time>2026-05-02T12:46:01.127Z</time></trkpt><trkpt lat="46.1795178" lon="13.4506436"><ele>567.0</ele><time>2026-05-02T12:46:03.128Z</time></trkpt><trkpt lat="46.1794486" lon="13.4505124"><ele>567.0</ele><time>2026-05-02T12:46:05.127Z</time></trkpt><trkpt lat="46.1793968" lon="13.4503662"><ele>569.0</ele><time>2026-05-02T12:46:07.127Z</time></trkpt><trkpt lat="46.1793698" lon="13.4502722"><ele>571.0</ele><time>2026-05-02T12:46:08.127Z</time></trkpt><trkpt lat="46.1793637" lon="13.4501752"><ele>573.0</ele><time>2026-05-02T12:46:09.127Z</time></trkpt><trkpt lat="46.1793573" lon="13.4500574"><ele>575.0</ele><time>2026-05-02T12:46:10.127Z</time></trkpt><trkpt lat="46.1793419" lon="13.4499458"><ele>577.0</ele><time>2026-05-02T12:46:11.127Z</time></trkpt><trkpt lat="46.1793285" lon="13.4498447"><ele>579.0</ele><time>2026-05-02T12:46:12.127Z</time></trkpt><trkpt lat="46.179313" lon="13.4497559"><ele>581.0</ele><time>2026-05-02T12:46:13.127Z</time></trkpt><trkpt lat="46.1793013" lon="13.449595"><ele>583.8333333333333</ele><time>2026-05-02T12:46:15.128Z</time></trkpt><trkpt lat="46.1792748" lon="13.4495105"><ele>586.6666666666666</ele><time>2026-05-02T12:46:16.127Z</time></trkpt><trkpt lat="46.1792514" lon="13.4494177"><ele>589.5</ele><time>2026-05-02T12:46:17.127Z</time></trkpt><trkpt lat="46.1792129" lon="13.4492602"><ele>592.3333333333334</ele><time>2026-05-02T12:46:19.127Z</time></trkpt><trkpt lat="46.1791747" lon="13.4491522"><ele>595.1666666666667</ele><time>2026-05-02T12:46:21.128Z</time></trkpt><trkpt lat="46.1791034" lon="13.4491308"><ele>598.0</ele><time>2026-05-02T12:46:24.128Z</time></trkpt><trkpt lat="46.1790161" lon="13.4491889"><ele>598.6</ele><time>2026-05-02T12:46:32.126Z</time></trkpt><trkpt lat="46.1789793" lon="13.4493031"><ele>599.1999999999999</ele><time>2026-05-02T12:46:34.126Z</time></trkpt><trkpt lat="46.1789337" lon="13.4494597"><ele>599.8</ele><time>2026-05-02T12:46:36.127Z</time></trkpt><trkpt lat="46.1788946" lon="13.4496069"><ele>600.4</ele><time>2026-05-02T12:46:38.126Z</time></trkpt><trkpt lat="46.1788522" lon="13.4497068"><ele>601.0</ele><time>2026-05-02T12:46:39.126Z</time></trkpt><trkpt lat="46.1787986" lon="13.4498129"><ele>597.6</ele><time>2026-05-02T12:46:40.126Z</time></trkpt><trkpt lat="46.1787494" lon="13.4499088"><ele>594.2</ele><time>2026-05-02T12:46:41.126Z</time></trkpt><trkpt lat="46.1787012" lon="13.4499918"><ele>590.8</ele><time>2026-05-02T12:46:42.127Z</time></trkpt><trkpt lat="46.1786614" lon="13.4500642"><ele>587.4</ele><time>2026-05-02T12:46:43.126Z</time></trkpt><trkpt lat="46.178565" lon="13.4501388"><ele>584.0</ele><time>2026-05-02T12:46:45.126Z</time></trkpt><trkpt lat="46.1784331" lon="13.4501029"><ele>584.0</ele><time>2026-05-02T12:46:47.126Z</time></trkpt><trkpt lat="46.1783554" lon="13.4500659"><ele>584.0</ele><time>2026-05-02T12:46:48.127Z</time></trkpt><trkpt lat="46.1782905" lon="13.4500434"><ele>584.0</ele><time>2026-05-02T12:46:49.126Z</time></trkpt><trkpt lat="46.1782251" lon="13.4500086"><ele>584.0</ele><time>2026-05-02T12:46:50.127Z</time></trkpt><trkpt lat="46.1781707" lon="13.449956"><ele>584.0</ele><time>2026-05-02T12:46:51.126Z</time></trkpt><trkpt lat="46.1780925" lon="13.4498411"><ele>584.0</ele><time>2026-05-02T12:46:53.127Z</time></trkpt><trkpt lat="46.1780365" lon="13.4497128"><ele>589.0</ele><time>2026-05-02T12:46:55.126Z</time></trkpt><trkpt lat="46.1780344" lon="13.4495622"><ele>594.0</ele><time>2026-05-02T12:46:57.127Z</time></trkpt><trkpt lat="46.1780489" lon="13.4494118"><ele>599.0</ele><time>2026-05-02T12:46:59.127Z</time></trkpt><trkpt lat="46.1780806" lon="13.4492457"><ele>604.0</ele><time>2026-05-02T12:47:01.126Z</time></trkpt><trkpt lat="46.1781238" lon="13.449108"><ele>609.0</ele><time>2026-05-02T12:47:03.126Z</time></trkpt><trkpt lat="46.1781567" lon="13.4489386"><ele>609.0</ele><time>2026-05-02T12:47:05.127Z</time></trkpt><trkpt lat="46.1781593" lon="13.448846"><ele>609.0</ele><time>2026-05-02T12:47:06.126Z</time></trkpt><trkpt lat="46.1781224" lon="13.4487336"><ele>609.0</ele><time>2026-05-02T12:47:08.126Z</time></trkpt><trkpt lat="46.1780672" lon="13.4486115"><ele>609.0</ele><time>2026-05-02T12:47:10.126Z</time></trkpt><trkpt lat="46.1779619" lon="13.4485568"><ele>609.0</ele><time>2026-05-02T12:47:12.127Z</time></trkpt><trkpt lat="46.1779126" lon="13.4486162"><ele>609.0</ele><time>2026-05-02T12:47:15.126Z</time></trkpt><trkpt lat="46.1779177" lon="13.4487509"><ele>609.0</ele><time>2026-05-02T12:47:17.126Z</time></trkpt><trkpt lat="46.1779034" lon="13.4489238"><ele>609.0</ele><time>2026-05-02T12:47:19.127Z</time></trkpt><trkpt lat="46.1778453" lon="13.449082"><ele>609.0</ele><time>2026-05-02T12:47:21.127Z</time></trkpt><trkpt lat="46.1777746" lon="13.4492194"><ele>609.0</ele><time>2026-05-02T12:47:23.127Z</time></trkpt><trkpt lat="46.1776952" lon="13.449336"><ele>609.0</ele><time>2026-05-02T12:47:25.127Z</time></trkpt><trkpt lat="46.1776048" lon="13.4494457"><ele>609.0</ele><time>2026-05-02T12:47:27.126Z</time></trkpt><trkpt lat="46.1775086" lon="13.4495392"><ele>609.0</ele><time>2026-05-02T12:47:29.126Z</time></trkpt><trkpt lat="46.1774118" lon="13.449622"><ele>609.0</ele><time>2026-05-02T12:47:31.126Z</time></trkpt><trkpt lat="46.1773026" lon="13.4496728"><ele>612.2</ele><time>2026-05-02T12:47:33.126Z</time></trkpt><trkpt lat="46.1771961" lon="13.4496996"><ele>615.4</ele><time>2026-05-02T12:47:35.127Z</time></trkpt><trkpt lat="46.1771008" lon="13.4497337"><ele>618.6</ele><time>2026-05-02T12:47:37.127Z</time></trkpt><trkpt lat="46.1770304" lon="13.4498043"><ele>621.8</ele><time>2026-05-02T12:47:39.127Z</time></trkpt><trkpt lat="46.1770689" lon="13.449935"><ele>625.0</ele><time>2026-05-02T12:47:42.126Z</time></trkpt><trkpt lat="46.1770873" lon="13.4500819"><ele>625.0</ele><time>2026-05-02T12:47:44.127Z</time></trkpt><trkpt lat="46.1770478" lon="13.4502487"><ele>625.0</ele><time>2026-05-02T12:47:46.126Z</time></trkpt><trkpt lat="46.1770282" lon="13.4503384"><ele>625.0</ele><time>2026-05-02T12:47:47.127Z</time></trkpt><trkpt lat="46.1770086" lon="13.4504407"><ele>625.0</ele><time>2026-05-02T12:47:48.126Z</time></trkpt><trkpt lat="46.1769884" lon="13.4505345"><ele>625.0</ele><time>2026-05-02T12:47:49.127Z</time></trkpt><trkpt lat="46.1769647" lon="13.4506323"><ele>625.0</ele><time>2026-05-02T12:47:50.127Z</time></trkpt><trkpt lat="46.1769368" lon="13.4507211"><ele>622.5</ele><time>2026-05-02T12:47:51.126Z</time></trkpt><trkpt lat="46.1769084" lon="13.4508117"><ele>620.0</ele><time>2026-05-02T12:47:52.127Z</time></trkpt><trkpt lat="46.1768727" lon="13.4508941"><ele>617.5</ele><time>2026-05-02T12:47:53.126Z</time></trkpt><trkpt lat="46.1768297" lon="13.4509689"><ele>615.0</ele><time>2026-05-02T12:47:54.126Z</time></trkpt><trkpt lat="46.176761" lon="13.4511129"><ele>612.5</ele><time>2026-05-02T12:47:56.126Z</time></trkpt><trkpt lat="46.1767241" lon="13.4511967"><ele>610.0</ele><time>2026-05-02T12:47:57.126Z</time></trkpt><trkpt lat="46.1766973" lon="13.4512878"><ele>607.75</ele><time>2026-05-02T12:47:58.126Z</time></trkpt><trkpt lat="46.176675" lon="13.4514567"><ele>605.5</ele><time>2026-05-02T12:48:00.126Z</time></trkpt><trkpt lat="46.1766584" lon="13.4516054"><ele>603.25</ele><time>2026-05-02T12:48:02.127Z</time></trkpt><trkpt lat="46.1766019" lon="13.451757"><ele>601.0</ele><time>2026-05-02T12:48:04.126Z</time></trkpt><trkpt lat="46.1765106" lon="13.4518537"><ele>601.0</ele><time>2026-05-02T12:48:06.127Z</time></trkpt><trkpt lat="46.1764256" lon="13.4519308"><ele>601.0</ele><time>2026-05-02T12:48:08.126Z</time></trkpt><trkpt lat="46.1763701" lon="13.4519802"><ele>601.0</ele><time>2026-05-02T12:48:09.127Z</time></trkpt><trkpt lat="46.1763106" lon="13.4520236"><ele>601.0</ele><time>2026-05-02T12:48:10.126Z</time></trkpt><trkpt lat="46.1762486" lon="13.4520558"><ele>601.0</ele><time>2026-05-02T12:48:11.126Z</time></trkpt><trkpt lat="46.1761851" lon="13.4520959"><ele>601.0</ele><time>2026-05-02T12:48:12.126Z</time></trkpt><trkpt lat="46.1760775" lon="13.4521509"><ele>602.0</ele><time>2026-05-02T12:48:14.126Z</time></trkpt><trkpt lat="46.1759752" lon="13.4521863"><ele>603.0</ele><time>2026-05-02T12:48:16.126Z</time></trkpt><trkpt lat="46.175862" lon="13.4521847"><ele>604.0</ele><time>2026-05-02T12:48:18.126Z</time></trkpt><trkpt lat="46.1757912" lon="13.4521656"><ele>605.0</ele><time>2026-05-02T12:48:19.127Z</time></trkpt><trkpt lat="46.1757187" lon="13.4521479"><ele>606.0</ele><time>2026-05-02T12:48:20.126Z</time></trkpt><trkpt lat="46.1756558" lon="13.4521362"><ele>607.0</ele><time>2026-05-02T12:48:21.126Z</time></trkpt><trkpt lat="46.1755428" lon="13.452112"><ele>607.0</ele><time>2026-05-02T12:48:23.126Z</time></trkpt><trkpt lat="46.1754097" lon="13.4520654"><ele>607.0</ele><time>2026-05-02T12:48:25.126Z</time></trkpt><trkpt lat="46.1753468" lon="13.4520502"><ele>607.0</ele><time>2026-05-02T12:48:26.126Z</time></trkpt><trkpt lat="46.175254" lon="13.4520169"><ele>607.0</ele><time>2026-05-02T12:48:28.126Z</time></trkpt><trkpt lat="46.1751474" lon="13.4520078"><ele>607.0</ele><time>2026-05-02T12:48:30.127Z</time></trkpt><trkpt lat="46.1750624" lon="13.452053"><ele>607.3333333333334</ele><time>2026-05-02T12:48:32.127Z</time></trkpt><trkpt lat="46.1750217" lon="13.4521306"><ele>607.6666666666667</ele><time>2026-05-02T12:48:34.127Z</time></trkpt><trkpt lat="46.1750354" lon="13.452242"><ele>608.0</ele><time>2026-05-02T12:48:37.126Z</time></trkpt><trkpt lat="46.1750903" lon="13.4523712"><ele>608.3333333333334</ele><time>2026-05-02T12:48:39.126Z</time></trkpt><trkpt lat="46.1751221" lon="13.4524544"><ele>608.6666666666666</ele><time>2026-05-02T12:48:40.127Z</time></trkpt><trkpt lat="46.1751691" lon="13.4526054"><ele>609.0</ele><time>2026-05-02T12:48:42.126Z</time></trkpt><trkpt lat="46.1751962" lon="13.4527081"><ele>609.0</ele><time>2026-05-02T12:48:44.127Z</time></trkpt><trkpt lat="46.1752156" lon="13.4528222"><ele>609.0</ele><time>2026-05-02T12:48:46.126Z</time></trkpt><trkpt lat="46.1752478" lon="13.4529784"><ele>609.0</ele><time>2026-05-02T12:48:48.127Z</time></trkpt><trkpt lat="46.1753074" lon="13.4531309"><ele>609.0</ele><time>2026-05-02T12:48:50.127Z</time></trkpt><trkpt lat="46.175364" lon="13.4532584"><ele>609.0</ele><time>2026-05-02T12:48:52.127Z</time></trkpt><trkpt lat="46.1754123" lon="13.4534125"><ele>608.1666666666666</ele><time>2026-05-02T12:48:54.126Z</time></trkpt><trkpt lat="46.1754384" lon="13.4535054"><ele>607.3333333333334</ele><time>2026-05-02T12:48:55.126Z</time></trkpt><trkpt lat="46.1754623" lon="13.4535966"><ele>606.5</ele><time>2026-05-02T12:48:56.127Z</time></trkpt><trkpt lat="46.1755178" lon="13.4537653"><ele>605.6666666666667</ele><time>2026-05-02T12:48:58.126Z</time></trkpt><trkpt lat="46.1755519" lon="13.4538519"><ele>604.8333333333334</ele><time>2026-05-02T12:48:59.126Z</time></trkpt><trkpt lat="46.1755726" lon="13.4539513"><ele>604.0</ele><time>2026-05-02T12:49:00.126Z</time></trkpt><trkpt lat="46.1755945" lon="13.4540534"><ele>604.0</ele><time>2026-05-02T12:49:01.127Z</time></trkpt><trkpt lat="46.1756306" lon="13.4541804"><ele>604.0</ele><time>2026-05-02T12:49:02.127Z</time></trkpt><trkpt lat="46.1756803" lon="13.4543089"><ele>604.0</ele><time>2026-05-02T12:49:03.126Z</time></trkpt><trkpt lat="46.1757242" lon="13.4544114"><ele>604.0</ele><time>2026-05-02T12:49:04.126Z</time></trkpt><trkpt lat="46.1757821" lon="13.4545501"><ele>604.0</ele><time>2026-05-02T12:49:06.127Z</time></trkpt><trkpt lat="46.1757899" lon="13.454714"><ele>601.8333333333334</ele><time>2026-05-02T12:49:08.127Z</time></trkpt><trkpt lat="46.1757314" lon="13.4548707"><ele>599.6666666666667</ele><time>2026-05-02T12:49:10.126Z</time></trkpt><trkpt lat="46.1756775" lon="13.4549367"><ele>597.5</ele><time>2026-05-02T12:49:11.127Z</time></trkpt><trkpt lat="46.1756242" lon="13.4550006"><ele>595.3333333333334</ele><time>2026-05-02T12:49:12.127Z</time></trkpt><trkpt lat="46.1755201" lon="13.4550503"><ele>593.1666666666666</ele><time>2026-05-02T12:49:14.127Z</time></trkpt><trkpt lat="46.1754468" lon="13.455057"><ele>591.0</ele><time>2026-05-02T12:49:15.127Z</time></trkpt><trkpt lat="46.175367" lon="13.4550707"><ele>591.0</ele><time>2026-05-02T12:49:16.127Z</time></trkpt><trkpt lat="46.1753021" lon="13.455085"><ele>591.0</ele><time>2026-05-02T12:49:17.126Z</time></trkpt><trkpt lat="46.1751839" lon="13.4551084"><ele>591.0</ele><time>2026-05-02T12:49:19.126Z</time></trkpt><trkpt lat="46.1751189" lon="13.455145"><ele>591.0</ele><time>2026-05-02T12:49:20.126Z</time></trkpt><trkpt lat="46.1750531" lon="13.4551835"><ele>591.0</ele><time>2026-05-02T12:49:21.127Z</time></trkpt><trkpt lat="46.1749424" lon="13.4552111"><ele>591.0</ele><time>2026-05-02T12:49:23.126Z</time></trkpt><trkpt lat="46.1748749" lon="13.4552125"><ele>596.8</ele><time>2026-05-02T12:49:24.126Z</time></trkpt><trkpt lat="46.174812" lon="13.4551908"><ele>602.6</ele><time>2026-05-02T12:49:25.127Z</time></trkpt><trkpt lat="46.1746791" lon="13.4551139"><ele>608.4</ele><time>2026-05-02T12:49:27.127Z</time></trkpt><trkpt lat="46.1746152" lon="13.4550767"><ele>614.2</ele><time>2026-05-02T12:49:28.126Z</time></trkpt><trkpt lat="46.1745392" lon="13.4550665"><ele>620.0</ele><time>2026-05-02T12:49:30.127Z</time></trkpt><trkpt lat="46.1744264" lon="13.4551247"><ele>620.0</ele><time>2026-05-02T12:49:32.127Z</time></trkpt><trkpt lat="46.1743108" lon="13.4551977"><ele>620.0</ele><time>2026-05-02T12:49:34.126Z</time></trkpt><trkpt lat="46.1742545" lon="13.4552392"><ele>620.0</ele><time>2026-05-02T12:49:35.127Z</time></trkpt><trkpt lat="46.1741761" lon="13.4553231"><ele>620.0</ele><time>2026-05-02T12:49:37.127Z</time></trkpt><trkpt lat="46.1741335" lon="13.4554268"><ele>620.0</ele><time>2026-05-02T12:49:39.126Z</time></trkpt><trkpt lat="46.1741507" lon="13.4555551"><ele>619.0</ele><time>2026-05-02T12:49:41.126Z</time></trkpt><trkpt lat="46.1741895" lon="13.4556427"><ele>618.0</ele><time>2026-05-02T12:49:42.126Z</time></trkpt><trkpt lat="46.1742147" lon="13.4558011"><ele>617.0</ele><time>2026-05-02T12:49:44.126Z</time></trkpt><trkpt lat="46.1742265" lon="13.4559785"><ele>616.0</ele><time>2026-05-02T12:49:46.126Z</time></trkpt><trkpt lat="46.1742448" lon="13.456066"><ele>615.0</ele><time>2026-05-02T12:49:47.126Z</time></trkpt><trkpt lat="46.1742967" lon="13.4562035"><ele>615.0</ele><time>2026-05-02T12:49:49.126Z</time></trkpt><trkpt lat="46.1743384" lon="13.4562816"><ele>615.0</ele><time>2026-05-02T12:49:50.126Z</time></trkpt><trkpt lat="46.1743787" lon="13.4563693"><ele>615.0</ele><time>2026-05-02T12:49:51.127Z</time></trkpt><trkpt lat="46.1744216" lon="13.4564753"><ele>615.0</ele><time>2026-05-02T12:49:52.127Z</time></trkpt><trkpt lat="46.1744674" lon="13.4565736"><ele>615.0</ele><time>2026-05-02T12:49:53.126Z</time></trkpt><trkpt lat="46.1745118" lon="13.4566716"><ele>615.0</ele><time>2026-05-02T12:49:54.127Z</time></trkpt><trkpt lat="46.1745484" lon="13.456783"><ele>617.0</ele><time>2026-05-02T12:49:55.127Z</time></trkpt><trkpt lat="46.1745847" lon="13.4568797"><ele>619.0</ele><time>2026-05-02T12:49:56.126Z</time></trkpt><trkpt lat="46.1746306" lon="13.4569754"><ele>621.0</ele><time>2026-05-02T12:49:57.127Z</time></trkpt><trkpt lat="46.1746678" lon="13.4570689"><ele>623.0</ele><time>2026-05-02T12:49:58.126Z</time></trkpt><trkpt lat="46.1747146" lon="13.4572284"><ele>625.0</ele><time>2026-05-02T12:50:00.126Z</time></trkpt><trkpt lat="46.1747294" lon="13.4573984"><ele>628.0</ele><time>2026-05-02T12:50:02.126Z</time></trkpt><trkpt lat="46.1747506" lon="13.4575926"><ele>631.0</ele><time>2026-05-02T12:50:04.126Z</time></trkpt><trkpt lat="46.174767" lon="13.4577176"><ele>634.0</ele><time>2026-05-02T12:50:05.126Z</time></trkpt><trkpt lat="46.1747848" lon="13.4578381"><ele>637.0</ele><time>2026-05-02T12:50:06.127Z</time></trkpt><trkpt lat="46.1748006" lon="13.4579477"><ele>640.0</ele><time>2026-05-02T12:50:07.126Z</time></trkpt><trkpt lat="46.1748163" lon="13.4580506"><ele>640.0</ele><time>2026-05-02T12:50:08.126Z</time></trkpt><trkpt lat="46.174835" lon="13.4581467"><ele>640.0</ele><time>2026-05-02T12:50:09.126Z</time></trkpt><trkpt lat="46.174857" lon="13.4582458"><ele>640.0</ele><time>2026-05-02T12:50:10.126Z</time></trkpt><trkpt lat="46.1748875" lon="13.4584319"><ele>640.0</ele><time>2026-05-02T12:50:12.126Z</time></trkpt><trkpt lat="46.1748946" lon="13.458542"><ele>640.0</ele><time>2026-05-02T12:50:13.126Z</time></trkpt><trkpt lat="46.1748819" lon="13.4586451"><ele>640.0</ele><time>2026-05-02T12:50:14.126Z</time></trkpt><trkpt lat="46.1748763" lon="13.4587584"><ele>638.0</ele><time>2026-05-02T12:50:15.126Z</time></trkpt><trkpt lat="46.1748721" lon="13.4588889"><ele>636.0</ele><time>2026-05-02T12:50:16.126Z</time></trkpt><trkpt lat="46.1748654" lon="13.4590217"><ele>634.0</ele><time>2026-05-02T12:50:17.127Z</time></trkpt><trkpt lat="46.1748657" lon="13.4591258"><ele>632.0</ele><time>2026-05-02T12:50:18.126Z</time></trkpt><trkpt lat="46.1748568" lon="13.4592319"><ele>630.0</ele><time>2026-05-02T12:50:19.127Z</time></trkpt><trkpt lat="46.1748433" lon="13.4593441"><ele>628.0</ele><time>2026-05-02T12:50:20.126Z</time></trkpt><trkpt lat="46.1748269" lon="13.4594533"><ele>628.0</ele><time>2026-05-02T12:50:21.126Z</time></trkpt><trkpt lat="46.1748209" lon="13.4595481"><ele>628.0</ele><time>2026-05-02T12:50:22.127Z</time></trkpt><trkpt lat="46.1748361" lon="13.4597048"><ele>628.0</ele><time>2026-05-02T12:50:24.125Z</time></trkpt><trkpt lat="46.1748438" lon="13.4598242"><ele>628.0</ele><time>2026-05-02T12:50:26.125Z</time></trkpt><trkpt lat="46.1748498" lon="13.4599408"><ele>628.0</ele><time>2026-05-02T12:50:28.125Z</time></trkpt><trkpt lat="46.1748679" lon="13.4600783"><ele>628.0</ele><time>2026-05-02T12:50:30.125Z</time></trkpt><trkpt lat="46.174905" lon="13.4602282"><ele>624.8333333333334</ele><time>2026-05-02T12:50:32.125Z</time></trkpt><trkpt lat="46.1749153" lon="13.4603675"><ele>621.6666666666667</ele><time>2026-05-02T12:50:34.126Z</time></trkpt><trkpt lat="46.1749176" lon="13.460481"><ele>618.5</ele><time>2026-05-02T12:50:36.125Z</time></trkpt><trkpt lat="46.1748911" lon="13.4605747"><ele>615.3333333333334</ele><time>2026-05-02T12:50:38.125Z</time></trkpt><trkpt lat="46.17484" lon="13.4606327"><ele>612.1666666666666</ele><time>2026-05-02T12:50:49.125Z</time></trkpt><trkpt lat="46.1747627" lon="13.4606405"><ele>609.0</ele><time>2026-05-02T12:50:51.126Z</time></trkpt><trkpt lat="46.1746564" lon="13.4606219"><ele>607.3333333333334</ele><time>2026-05-02T12:50:53.125Z</time></trkpt><trkpt lat="46.1745348" lon="13.4605871"><ele>605.6666666666666</ele><time>2026-05-02T12:50:55.125Z</time></trkpt><trkpt lat="46.1744222" lon="13.4605896"><ele>604.0</ele><time>2026-05-02T12:50:57.125Z</time></trkpt><trkpt lat="46.1743528" lon="13.460623"><ele>602.3333333333333</ele><time>2026-05-02T12:50:58.126Z</time></trkpt><trkpt lat="46.1742928" lon="13.4606633"><ele>600.6666666666666</ele><time>2026-05-02T12:50:59.125Z</time></trkpt><trkpt lat="46.1742292" lon="13.4606952"><ele>599.0</ele><time>2026-05-02T12:51:00.125Z</time></trkpt><trkpt lat="46.1741323" lon="13.4607701"><ele>599.0</ele><time>2026-05-02T12:51:02.126Z</time></trkpt><trkpt lat="46.1740457" lon="13.4608"><ele>599.0</ele><time>2026-05-02T12:51:04.125Z</time></trkpt><trkpt lat="46.1739564" lon="13.4607711"><ele>599.0</ele><time>2026-05-02T12:51:06.125Z</time></trkpt><trkpt lat="46.1738625" lon="13.4607517"><ele>599.0</ele><time>2026-05-02T12:51:08.126Z</time></trkpt><trkpt lat="46.1737712" lon="13.4608161"><ele>599.0</ele><time>2026-05-02T12:51:10.125Z</time></trkpt><trkpt lat="46.1737125" lon="13.4609037"><ele>597.8</ele><time>2026-05-02T12:51:12.125Z</time></trkpt><trkpt lat="46.1736404" lon="13.4610311"><ele>596.5999999999999</ele><time>2026-05-02T12:51:14.125Z</time></trkpt><trkpt lat="46.1735615" lon="13.4610954"><ele>595.4</ele><time>2026-05-02T12:51:16.125Z</time></trkpt><trkpt lat="46.1734676" lon="13.4611225"><ele>594.1999999999999</ele><time>2026-05-02T12:51:18.125Z</time></trkpt><trkpt lat="46.1733475" lon="13.4610985"><ele>593.0</ele><time>2026-05-02T12:51:20.125Z</time></trkpt><trkpt lat="46.173238" lon="13.4610537"><ele>593.6</ele><time>2026-05-02T12:51:22.125Z</time></trkpt><trkpt lat="46.1731413" lon="13.4609897"><ele>594.1999999999999</ele><time>2026-05-02T12:51:24.126Z</time></trkpt><trkpt lat="46.1730382" lon="13.4609112"><ele>594.8</ele><time>2026-05-02T12:51:26.125Z</time></trkpt><trkpt lat="46.1729845" lon="13.4608572"><ele>595.4</ele><time>2026-05-02T12:51:27.125Z</time></trkpt><trkpt lat="46.1728857" lon="13.4607793"><ele>596.0</ele><time>2026-05-02T12:51:29.125Z</time></trkpt><trkpt lat="46.172793" lon="13.4607278"><ele>596.0</ele><time>2026-05-02T12:51:31.125Z</time></trkpt><trkpt lat="46.1727109" lon="13.4607441"><ele>596.0</ele><time>2026-05-02T12:51:33.125Z</time></trkpt><trkpt lat="46.1726148" lon="13.4608107"><ele>596.0</ele><time>2026-05-02T12:51:35.125Z</time></trkpt><trkpt lat="46.1725397" lon="13.4609387"><ele>596.0</ele><time>2026-05-02T12:51:37.125Z</time></trkpt><trkpt lat="46.1724775" lon="13.4610883"><ele>596.0</ele><time>2026-05-02T12:51:39.126Z</time></trkpt><trkpt lat="46.1724358" lon="13.4611671"><ele>596.0</ele><time>2026-05-02T12:51:40.126Z</time></trkpt><trkpt lat="46.1723768" lon="13.4612575"><ele>596.0</ele><time>2026-05-02T12:51:41.126Z</time></trkpt><trkpt lat="46.1723229" lon="13.4613577"><ele>596.0</ele><time>2026-05-02T12:51:42.126Z</time></trkpt><trkpt lat="46.1722821" lon="13.4614554"><ele>596.0</ele><time>2026-05-02T12:51:43.125Z</time></trkpt><trkpt lat="46.1722485" lon="13.4615465"><ele>596.0</ele><time>2026-05-02T12:51:44.126Z</time></trkpt><trkpt lat="46.1722146" lon="13.4616392"><ele>596.0</ele><time>2026-05-02T12:51:45.125Z</time></trkpt><trkpt lat="46.1721471" lon="13.4617739"><ele>596.6666666666666</ele><time>2026-05-02T12:51:47.125Z</time></trkpt><trkpt lat="46.1721199" lon="13.4618627"><ele>597.3333333333333</ele><time>2026-05-02T12:51:48.126Z</time></trkpt><trkpt lat="46.172089" lon="13.4619426"><ele>598.0</ele><time>2026-05-02T12:51:49.126Z</time></trkpt><trkpt lat="46.1720549" lon="13.4620212"><ele>598.6666666666666</ele><time>2026-05-02T12:51:50.126Z</time></trkpt><trkpt lat="46.1719797" lon="13.4621668"><ele>599.3333333333334</ele><time>2026-05-02T12:51:52.125Z</time></trkpt><trkpt lat="46.1719313" lon="13.4622329"><ele>600.0</ele><time>2026-05-02T12:51:53.125Z</time></trkpt><trkpt lat="46.1718621" lon="13.4622973"><ele>601.3333333333334</ele><time>2026-05-02T12:51:54.125Z</time></trkpt><trkpt lat="46.1717924" lon="13.4623541"><ele>602.6666666666666</ele><time>2026-05-02T12:51:55.125Z</time></trkpt><trkpt lat="46.1717211" lon="13.4624049"><ele>604.0</ele><time>2026-05-02T12:51:56.126Z</time></trkpt><trkpt lat="46.1716381" lon="13.4624624"><ele>605.3333333333333</ele><time>2026-05-02T12:51:57.125Z</time></trkpt><trkpt lat="46.1715581" lon="13.4625357"><ele>606.6666666666666</ele><time>2026-05-02T12:51:58.125Z</time></trkpt><trkpt lat="46.1714821" lon="13.4626184"><ele>608.0</ele><time>2026-05-02T12:51:59.126Z</time></trkpt><trkpt lat="46.1714077" lon="13.4626975"><ele>608.0</ele><time>2026-05-02T12:52:00.125Z</time></trkpt><trkpt lat="46.1713332" lon="13.4627719"><ele>608.0</ele><time>2026-05-02T12:52:01.125Z</time></trkpt><trkpt lat="46.1712665" lon="13.4628441"><ele>608.0</ele><time>2026-05-02T12:52:02.125Z</time></trkpt><trkpt lat="46.1711989" lon="13.4629124"><ele>608.0</ele><time>2026-05-02T12:52:03.125Z</time></trkpt><trkpt lat="46.1711318" lon="13.4629749"><ele>608.0</ele><time>2026-05-02T12:52:04.125Z</time></trkpt><trkpt lat="46.1710591" lon="13.4630383"><ele>608.0</ele><time>2026-05-02T12:52:05.125Z</time></trkpt><trkpt lat="46.1709857" lon="13.4630971"><ele>610.0</ele><time>2026-05-02T12:52:06.125Z</time></trkpt><trkpt lat="46.1709183" lon="13.4631686"><ele>612.0</ele><time>2026-05-02T12:52:07.126Z</time></trkpt><trkpt lat="46.1708542" lon="13.4632396"><ele>614.0</ele><time>2026-05-02T12:52:08.126Z</time></trkpt><trkpt lat="46.1707922" lon="13.4633144"><ele>616.0</ele><time>2026-05-02T12:52:09.125Z</time></trkpt><trkpt lat="46.1707339" lon="13.4633813"><ele>618.0</ele><time>2026-05-02T12:52:10.126Z</time></trkpt><trkpt lat="46.1706779" lon="13.4634488"><ele>620.0</ele><time>2026-05-02T12:52:11.126Z</time></trkpt><trkpt lat="46.1706255" lon="13.4635178"><ele>620.0</ele><time>2026-05-02T12:52:12.126Z</time></trkpt><trkpt lat="46.1705864" lon="13.4635922"><ele>620.0</ele><time>2026-05-02T12:52:13.125Z</time></trkpt><trkpt lat="46.1705592" lon="13.4636781"><ele>620.0</ele><time>2026-05-02T12:52:14.126Z</time></trkpt><trkpt lat="46.1705352" lon="13.4637879"><ele>620.0</ele><time>2026-05-02T12:52:15.125Z</time></trkpt><trkpt lat="46.1705054" lon="13.4639021"><ele>620.0</ele><time>2026-05-02T12:52:16.126Z</time></trkpt><trkpt lat="46.1704746" lon="13.463987"><ele>620.0</ele><time>2026-05-02T12:52:17.126Z</time></trkpt><trkpt lat="46.1704393" lon="13.4640925"><ele>620.0</ele><time>2026-05-02T12:52:18.125Z</time></trkpt><trkpt lat="46.1703919" lon="13.4641906"><ele>616.8333333333333</ele><time>2026-05-02T12:52:19.125Z</time></trkpt><trkpt lat="46.1703407" lon="13.4642933"><ele>613.6666666666666</ele><time>2026-05-02T12:52:20.126Z</time></trkpt><trkpt lat="46.1702874" lon="13.4643978"><ele>610.5</ele><time>2026-05-02T12:52:21.126Z</time></trkpt><trkpt lat="46.1702208" lon="13.4644927"><ele>607.3333333333334</ele><time>2026-05-02T12:52:22.125Z</time></trkpt><trkpt lat="46.1701739" lon="13.4645749"><ele>604.1666666666667</ele><time>2026-05-02T12:52:23.126Z</time></trkpt><trkpt lat="46.1701251" lon="13.4646438"><ele>601.0</ele><time>2026-05-02T12:52:24.125Z</time></trkpt><trkpt lat="46.1700676" lon="13.4647039"><ele>599.0</ele><time>2026-05-02T12:52:25.125Z</time></trkpt><trkpt lat="46.1700098" lon="13.4647668"><ele>597.0</ele><time>2026-05-02T12:52:26.125Z</time></trkpt><trkpt lat="46.1699513" lon="13.4648324"><ele>595.0</ele><time>2026-05-02T12:52:27.126Z</time></trkpt><trkpt lat="46.1698887" lon="13.4648891"><ele>593.0</ele><time>2026-05-02T12:52:28.125Z</time></trkpt><trkpt lat="46.1698352" lon="13.4649569"><ele>591.0</ele><time>2026-05-02T12:52:29.125Z</time></trkpt><trkpt lat="46.1697862" lon="13.4650343"><ele>589.0</ele><time>2026-05-02T12:52:30.125Z</time></trkpt><trkpt lat="46.1697562" lon="13.4651215"><ele>587.0</ele><time>2026-05-02T12:52:31.125Z</time></trkpt><trkpt lat="46.1697409" lon="13.4652192"><ele>587.0</ele><time>2026-05-02T12:52:32.126Z</time></trkpt><trkpt lat="46.1697184" lon="13.4653189"><ele>587.0</ele><time>2026-05-02T12:52:33.126Z</time></trkpt><trkpt lat="46.1696981" lon="13.4654193"><ele>587.0</ele><time>2026-05-02T12:52:34.126Z</time></trkpt><trkpt lat="46.1696782" lon="13.465519"><ele>587.0</ele><time>2026-05-02T12:52:35.126Z</time></trkpt><trkpt lat="46.1696278" lon="13.4656783"><ele>587.0</ele><time>2026-05-02T12:52:37.125Z</time></trkpt><trkpt lat="46.1695819" lon="13.4657492"><ele>587.0</ele><time>2026-05-02T12:52:38.125Z</time></trkpt><trkpt lat="46.1695281" lon="13.4658081"><ele>583.4</ele><time>2026-05-02T12:52:39.126Z</time></trkpt><trkpt lat="46.1694518" lon="13.4658432"><ele>579.8000000000001</ele><time>2026-05-02T12:52:40.126Z</time></trkpt><trkpt lat="46.1693658" lon="13.4658644"><ele>576.2</ele><time>2026-05-02T12:52:41.125Z</time></trkpt><trkpt lat="46.1692665" lon="13.4658645"><ele>572.6</ele><time>2026-05-02T12:52:42.125Z</time></trkpt><trkpt lat="46.1691693" lon="13.4658679"><ele>569.0</ele><time>2026-05-02T12:52:43.125Z</time></trkpt><trkpt lat="46.169075" lon="13.4658684"><ele>567.3333333333333</ele><time>2026-05-02T12:52:44.125Z</time></trkpt><trkpt lat="46.1689833" lon="13.4658727"><ele>565.6666666666666</ele><time>2026-05-02T12:52:45.126Z</time></trkpt><trkpt lat="46.1688901" lon="13.4658747"><ele>564.0</ele><time>2026-05-02T12:52:46.125Z</time></trkpt><trkpt lat="46.1687984" lon="13.4658662"><ele>562.3333333333334</ele><time>2026-05-02T12:52:47.125Z</time></trkpt><trkpt lat="46.1687139" lon="13.4658588"><ele>560.6666666666667</ele><time>2026-05-02T12:52:48.126Z</time></trkpt><trkpt lat="46.1686387" lon="13.4658481"><ele>559.0</ele><time>2026-05-02T12:52:49.125Z</time></trkpt><trkpt lat="46.1685723" lon="13.4658398"><ele>559.0</ele><time>2026-05-02T12:52:50.126Z</time></trkpt><trkpt lat="46.1685096" lon="13.4658256"><ele>559.0</ele><time>2026-05-02T12:52:51.126Z</time></trkpt><trkpt lat="46.1684464" lon="13.4657918"><ele>559.0</ele><time>2026-05-02T12:52:52.125Z</time></trkpt><trkpt lat="46.1683787" lon="13.4657565"><ele>559.0</ele><time>2026-05-02T12:52:53.125Z</time></trkpt><trkpt lat="46.1683188" lon="13.4657112"><ele>559.0</ele><time>2026-05-02T12:52:54.125Z</time></trkpt><trkpt lat="46.168223" lon="13.4655764"><ele>559.0</ele><time>2026-05-02T12:52:56.125Z</time></trkpt><trkpt lat="46.1681854" lon="13.4654908"><ele>556.4285714285714</ele><time>2026-05-02T12:52:57.125Z</time></trkpt><trkpt lat="46.1681508" lon="13.4653991"><ele>553.8571428571429</ele><time>2026-05-02T12:52:58.125Z</time></trkpt><trkpt lat="46.1681193" lon="13.4652995"><ele>551.2857142857143</ele><time>2026-05-02T12:52:59.126Z</time></trkpt><trkpt lat="46.1680884" lon="13.4652088"><ele>548.7142857142858</ele><time>2026-05-02T12:53:00.125Z</time></trkpt><trkpt lat="46.168058" lon="13.4651172"><ele>546.1428571428571</ele><time>2026-05-02T12:53:01.126Z</time></trkpt><trkpt lat="46.1680271" lon="13.4650203"><ele>543.5714285714287</ele><time>2026-05-02T12:53:02.126Z</time></trkpt><trkpt lat="46.168005" lon="13.4649176"><ele>541.0</ele><time>2026-05-02T12:53:03.126Z</time></trkpt><trkpt lat="46.1679865" lon="13.4648088"><ele>541.0</ele><time>2026-05-02T12:53:04.125Z</time></trkpt><trkpt lat="46.1679675" lon="13.4647041"><ele>541.0</ele><time>2026-05-02T12:53:05.126Z</time></trkpt><trkpt lat="46.1679478" lon="13.4646069"><ele>541.0</ele><time>2026-05-02T12:53:06.126Z</time></trkpt><trkpt lat="46.1679274" lon="13.4645131"><ele>541.0</ele><time>2026-05-02T12:53:07.125Z</time></trkpt><trkpt lat="46.1679025" lon="13.4643384"><ele>541.0</ele><time>2026-05-02T12:53:09.125Z</time></trkpt><trkpt lat="46.1679048" lon="13.4642466"><ele>541.0</ele><time>2026-05-02T12:53:10.125Z</time></trkpt><trkpt lat="46.1679336" lon="13.4640673"><ele>542.6</ele><time>2026-05-02T12:53:12.126Z</time></trkpt><trkpt lat="46.1679473" lon="13.4639607"><ele>544.2</ele><time>2026-05-02T12:53:13.125Z</time></trkpt><trkpt lat="46.1679481" lon="13.463794"><ele>545.8</ele><time>2026-05-02T12:53:15.125Z</time></trkpt><trkpt lat="46.1679246" lon="13.4636797"><ele>547.4</ele><time>2026-05-02T12:53:17.126Z</time></trkpt><trkpt lat="46.1678773" lon="13.4635141"><ele>549.0</ele><time>2026-05-02T12:53:19.126Z</time></trkpt><trkpt lat="46.167864" lon="13.4634046"><ele>551.0</ele><time>2026-05-02T12:53:20.125Z</time></trkpt><trkpt lat="46.1678476" lon="13.4632988"><ele>553.0</ele><time>2026-05-02T12:53:21.125Z</time></trkpt><trkpt lat="46.1678336" lon="13.4631881"><ele>555.0</ele><time>2026-05-02T12:53:22.125Z</time></trkpt><trkpt lat="46.1678297" lon="13.4630647"><ele>557.0</ele><time>2026-05-02T12:53:23.126Z</time></trkpt><trkpt lat="46.1678197" lon="13.4629536"><ele>559.0</ele><time>2026-05-02T12:53:24.126Z</time></trkpt><trkpt lat="46.1678116" lon="13.4628562"><ele>561.0</ele><time>2026-05-02T12:53:25.126Z</time></trkpt><trkpt lat="46.1677821" lon="13.4627014"><ele>563.4</ele><time>2026-05-02T12:53:27.125Z</time></trkpt><trkpt lat="46.1677396" lon="13.4626178"><ele>565.8</ele><time>2026-05-02T12:53:30.125Z</time></trkpt><trkpt lat="46.1677947" lon="13.4625683"><ele>568.1999999999999</ele><time>2026-05-02T12:53:36.125Z</time></trkpt><trkpt lat="46.1678904" lon="13.4626743"><ele>570.6</ele><time>2026-05-02T12:53:51.126Z</time></trkpt><trkpt lat="46.1679515" lon="13.462796"><ele>573.0</ele><time>2026-05-02T12:53:53.125Z</time></trkpt><trkpt lat="46.1679905" lon="13.462914"><ele>570.6</ele><time>2026-05-02T12:53:55.126Z</time></trkpt><trkpt lat="46.1680334" lon="13.4630764"><ele>568.1999999999999</ele><time>2026-05-02T12:53:57.125Z</time></trkpt><trkpt lat="46.168105" lon="13.4632078"><ele>565.8</ele><time>2026-05-02T12:53:59.125Z</time></trkpt><trkpt lat="46.168195" lon="13.4633108"><ele>563.4</ele><time>2026-05-02T12:54:01.125Z</time></trkpt><trkpt lat="46.1682636" lon="13.4633957"><ele>561.0</ele><time>2026-05-02T12:54:03.125Z</time></trkpt><trkpt lat="46.1683508" lon="13.4634592"><ele>565.4</ele><time>2026-05-02T12:54:06.125Z</time></trkpt><trkpt lat="46.168418" lon="13.4634703"><ele>569.8</ele><time>2026-05-02T12:54:08.125Z</time></trkpt><trkpt lat="46.1685118" lon="13.4635286"><ele>574.1999999999999</ele><time>2026-05-02T12:54:11.126Z</time></trkpt><trkpt lat="46.1685546" lon="13.463657"><ele>578.6</ele><time>2026-05-02T12:54:13.125Z</time></trkpt><trkpt lat="46.168652" lon="13.4637741"><ele>583.0</ele><time>2026-05-02T12:54:15.125Z</time></trkpt><trkpt lat="46.1687259" lon="13.4638747"><ele>583.0</ele><time>2026-05-02T12:54:17.125Z</time></trkpt><trkpt lat="46.1687946" lon="13.4639571"><ele>583.0</ele><time>2026-05-02T12:54:19.126Z</time></trkpt><trkpt lat="46.1689041" lon="13.4640136"><ele>583.0</ele><time>2026-05-02T12:54:34.124Z</time></trkpt><trkpt lat="46.1689763" lon="13.4640391"><ele>583.0</ele><time>2026-05-02T12:54:36.125Z</time></trkpt><trkpt lat="46.1690933" lon="13.4640937"><ele>583.0</ele><time>2026-05-02T12:54:38.124Z</time></trkpt><trkpt lat="46.1691573" lon="13.4641062"><ele>587.4</ele><time>2026-05-02T12:54:39.124Z</time></trkpt><trkpt lat="46.1692495" lon="13.464069"><ele>591.8</ele><time>2026-05-02T12:54:41.125Z</time></trkpt><trkpt lat="46.1693393" lon="13.4640211"><ele>596.2</ele><time>2026-05-02T12:54:43.124Z</time></trkpt><trkpt lat="46.1694522" lon="13.4639976"><ele>600.6</ele><time>2026-05-02T12:54:45.124Z</time></trkpt><trkpt lat="46.1695191" lon="13.4639459"><ele>605.0</ele><time>2026-05-02T12:54:47.124Z</time></trkpt><trkpt lat="46.1694669" lon="13.4638595"><ele>605.0</ele><time>2026-05-02T12:54:50.125Z</time></trkpt><trkpt lat="46.1693293" lon="13.4638201"><ele>605.0</ele><time>2026-05-02T12:54:52.124Z</time></trkpt><trkpt lat="46.1692152" lon="13.4637778"><ele>605.0</ele><time>2026-05-02T12:54:54.125Z</time></trkpt><trkpt lat="46.1691471" lon="13.4637106"><ele>605.0</ele><time>2026-05-02T12:54:56.124Z</time></trkpt><trkpt lat="46.169112" lon="13.4635776"><ele>605.0</ele><time>2026-05-02T12:54:58.124Z</time></trkpt><trkpt lat="46.1690915" lon="13.4633901"><ele>604.6</ele><time>2026-05-02T12:55:00.124Z</time></trkpt><trkpt lat="46.1690806" lon="13.4632918"><ele>604.2</ele><time>2026-05-02T12:55:01.124Z</time></trkpt><trkpt lat="46.1690627" lon="13.4631956"><ele>603.8</ele><time>2026-05-02T12:55:02.124Z</time></trkpt><trkpt lat="46.1690114" lon="13.4630411"><ele>603.4</ele><time>2026-05-02T12:55:04.124Z</time></trkpt><trkpt lat="46.1689608" lon="13.4628873"><ele>603.0</ele><time>2026-05-02T12:55:06.125Z</time></trkpt><trkpt lat="46.1689215" lon="13.4627297"><ele>603.0</ele><time>2026-05-02T12:55:08.124Z</time></trkpt><trkpt lat="46.1689417" lon="13.4625797"><ele>603.0</ele><time>2026-05-02T12:55:10.124Z</time></trkpt><trkpt lat="46.1689911" lon="13.4624106"><ele>603.0</ele><time>2026-05-02T12:55:12.125Z</time></trkpt><trkpt lat="46.1690115" lon="13.4622842"><ele>603.0</ele><time>2026-05-02T12:55:14.124Z</time></trkpt><trkpt lat="46.1690044" lon="13.4621334"><ele>603.0</ele><time>2026-05-02T12:55:16.125Z</time></trkpt><trkpt lat="46.1689452" lon="13.4620077"><ele>606.6</ele><time>2026-05-02T12:55:18.125Z</time></trkpt><trkpt lat="46.1689256" lon="13.4618945"><ele>610.1999999999999</ele><time>2026-05-02T12:55:20.124Z</time></trkpt><trkpt lat="46.1689991" lon="13.4618352"><ele>613.8</ele><time>2026-05-02T12:55:23.124Z</time></trkpt><trkpt lat="46.1690548" lon="13.4618942"><ele>617.4</ele><time>2026-05-02T12:55:25.124Z</time></trkpt><trkpt lat="46.1691133" lon="13.4620452"><ele>621.0</ele><time>2026-05-02T12:55:27.124Z</time></trkpt><trkpt lat="46.1691636" lon="13.4621949"><ele>623.8</ele><time>2026-05-02T12:55:29.125Z</time></trkpt><trkpt lat="46.1692352" lon="13.4623233"><ele>626.6</ele><time>2026-05-02T12:55:31.124Z</time></trkpt><trkpt lat="46.1693138" lon="13.4624432"><ele>629.4</ele><time>2026-05-02T12:55:33.124Z</time></trkpt><trkpt lat="46.1693699" lon="13.4625175"><ele>632.2</ele><time>2026-05-02T12:55:34.124Z</time></trkpt><trkpt lat="46.1694216" lon="13.462577"><ele>635.0</ele><time>2026-05-02T12:55:35.125Z</time></trkpt><trkpt lat="46.1695029" lon="13.4626756"><ele>635.0</ele><time>2026-05-02T12:55:37.125Z</time></trkpt><trkpt lat="46.1696072" lon="13.4627241"><ele>635.0</ele><time>2026-05-02T12:55:39.124Z</time></trkpt><trkpt lat="46.1697023" lon="13.4627629"><ele>635.0</ele><time>2026-05-02T12:55:41.124Z</time></trkpt><trkpt lat="46.1697845" lon="13.4627889"><ele>635.0</ele><time>2026-05-02T12:55:43.124Z</time></trkpt><trkpt lat="46.169859" lon="13.4627254"><ele>635.0</ele><time>2026-05-02T12:55:45.124Z</time></trkpt><trkpt lat="46.1698567" lon="13.4626218"><ele>635.0</ele><time>2026-05-02T12:55:47.125Z</time></trkpt><trkpt lat="46.1697614" lon="13.4625343"><ele>635.0</ele><time>2026-05-02T12:55:49.124Z</time></trkpt><trkpt lat="46.1696767" lon="13.4624249"><ele>635.0</ele><time>2026-05-02T12:55:51.124Z</time></trkpt><trkpt lat="46.1696362" lon="13.4623489"><ele>635.0</ele><time>2026-05-02T12:55:52.125Z</time></trkpt><trkpt lat="46.1695969" lon="13.4622734"><ele>635.0</ele><time>2026-05-02T12:55:53.124Z</time></trkpt><trkpt lat="46.1695526" lon="13.4621218"><ele>637.2</ele><time>2026-05-02T12:55:55.124Z</time></trkpt><trkpt lat="46.1695524" lon="13.462013"><ele>639.4</ele><time>2026-05-02T12:55:56.125Z</time></trkpt><trkpt lat="46.1695392" lon="13.4619006"><ele>641.5999999999999</ele><time>2026-05-02T12:55:57.125Z</time></trkpt><trkpt lat="46.1695211" lon="13.4617952"><ele>643.8</ele><time>2026-05-02T12:55:58.124Z</time></trkpt><trkpt lat="46.1694909" lon="13.4616559"><ele>646.0</ele><time>2026-05-02T12:56:00.125Z</time></trkpt><trkpt lat="46.1694728" lon="13.461476"><ele>646.0</ele><time>2026-05-02T12:56:02.124Z</time></trkpt><trkpt lat="46.1694674" lon="13.4613805"><ele>646.0</ele><time>2026-05-02T12:56:03.124Z</time></trkpt><trkpt lat="46.169461" lon="13.4612895"><ele>646.0</ele><time>2026-05-02T12:56:04.124Z</time></trkpt><trkpt lat="46.169454" lon="13.4611991"><ele>646.0</ele><time>2026-05-02T12:56:05.124Z</time></trkpt><trkpt lat="46.1694238" lon="13.4610295"><ele>646.0</ele><time>2026-05-02T12:56:07.124Z</time></trkpt><trkpt lat="46.1694032" lon="13.460936"><ele>646.0</ele><time>2026-05-02T12:56:08.125Z</time></trkpt><trkpt lat="46.1693804" lon="13.4608394"><ele>648.0</ele><time>2026-05-02T12:56:09.124Z</time></trkpt><trkpt lat="46.1693547" lon="13.4607446"><ele>650.0</ele><time>2026-05-02T12:56:10.124Z</time></trkpt><trkpt lat="46.1693362" lon="13.4606476"><ele>652.0</ele><time>2026-05-02T12:56:11.124Z</time></trkpt><trkpt lat="46.1693164" lon="13.4605552"><ele>654.0</ele><time>2026-05-02T12:56:12.124Z</time></trkpt><trkpt lat="46.1693001" lon="13.4604552"><ele>656.0</ele><time>2026-05-02T12:56:13.125Z</time></trkpt><trkpt lat="46.1692925" lon="13.4603636"><ele>658.0</ele><time>2026-05-02T12:56:14.124Z</time></trkpt><trkpt lat="46.1692894" lon="13.4601801"><ele>656.8</ele><time>2026-05-02T12:56:16.124Z</time></trkpt><trkpt lat="46.1692777" lon="13.460009"><ele>655.5999999999999</ele><time>2026-05-02T12:56:18.124Z</time></trkpt><trkpt lat="46.1692214" lon="13.459891"><ele>654.4000000000001</ele><time>2026-05-02T12:56:20.124Z</time></trkpt><trkpt lat="46.1691112" lon="13.4598321"><ele>653.2</ele><time>2026-05-02T12:56:22.124Z</time></trkpt><trkpt lat="46.1690524" lon="13.4597798"><ele>652.0</ele><time>2026-05-02T12:56:23.124Z</time></trkpt><trkpt lat="46.1689792" lon="13.4596883"><ele>655.1666666666667</ele><time>2026-05-02T12:56:25.125Z</time></trkpt><trkpt lat="46.1689392" lon="13.4596109"><ele>658.3333333333334</ele><time>2026-05-02T12:56:26.125Z</time></trkpt><trkpt lat="46.1688954" lon="13.4595389"><ele>661.5</ele><time>2026-05-02T12:56:27.124Z</time></trkpt><trkpt lat="46.1688454" lon="13.4593688"><ele>664.6666666666666</ele><time>2026-05-02T12:56:29.124Z</time></trkpt><trkpt lat="46.1688204" lon="13.4592807"><ele>667.8333333333333</ele><time>2026-05-02T12:56:30.125Z</time></trkpt><trkpt lat="46.1687632" lon="13.4591569"><ele>671.0</ele><time>2026-05-02T12:56:32.124Z</time></trkpt><trkpt lat="46.168708" lon="13.4590407"><ele>671.0</ele><time>2026-05-02T12:56:34.124Z</time></trkpt><trkpt lat="46.1687189" lon="13.4589313"><ele>671.0</ele><time>2026-05-02T12:56:36.124Z</time></trkpt><trkpt lat="46.1687574" lon="13.4588179"><ele>671.0</ele><time>2026-05-02T12:56:38.124Z</time></trkpt><trkpt lat="46.1688344" lon="13.4587341"><ele>671.0</ele><time>2026-05-02T12:56:40.124Z</time></trkpt><trkpt lat="46.1688634" lon="13.458612"><ele>671.0</ele><time>2026-05-02T12:56:42.124Z</time></trkpt><trkpt lat="46.1688452" lon="13.4584766"><ele>671.0</ele><time>2026-05-02T12:56:44.124Z</time></trkpt><trkpt lat="46.1687761" lon="13.4583434"><ele>675.0</ele><time>2026-05-02T12:56:46.124Z</time></trkpt><trkpt lat="46.1687054" lon="13.4582388"><ele>679.0</ele><time>2026-05-02T12:56:48.124Z</time></trkpt><trkpt lat="46.1686106" lon="13.4581271"><ele>683.0</ele><time>2026-05-02T12:56:50.124Z</time></trkpt><trkpt lat="46.1685241" lon="13.458033"><ele>687.0</ele><time>2026-05-02T12:56:52.124Z</time></trkpt><trkpt lat="46.1684937" lon="13.4579426"><ele>691.0</ele><time>2026-05-02T12:56:54.125Z</time></trkpt><trkpt lat="46.1685189" lon="13.4577857"><ele>692.6666666666667</ele><time>2026-05-02T12:56:56.124Z</time></trkpt><trkpt lat="46.1685306" lon="13.4576628"><ele>694.3333333333334</ele><time>2026-05-02T12:56:58.125Z</time></trkpt><trkpt lat="46.1684934" lon="13.457533"><ele>696.0</ele><time>2026-05-02T12:57:00.124Z</time></trkpt><trkpt lat="46.1684582" lon="13.4574532"><ele>697.6666666666666</ele><time>2026-05-02T12:57:01.124Z</time></trkpt><trkpt lat="46.1684133" lon="13.4573612"><ele>699.3333333333333</ele><time>2026-05-02T12:57:02.124Z</time></trkpt><trkpt lat="46.1683925" lon="13.45727"><ele>701.0</ele><time>2026-05-02T12:57:03.124Z</time></trkpt><trkpt lat="46.1683953" lon="13.457113"><ele>703.0</ele><time>2026-05-02T12:57:05.125Z</time></trkpt><trkpt lat="46.1684348" lon="13.456952"><ele>705.0</ele><time>2026-05-02T12:57:07.124Z</time></trkpt><trkpt lat="46.1684526" lon="13.456835"><ele>707.0</ele><time>2026-05-02T12:57:09.124Z</time></trkpt><trkpt lat="46.1684266" lon="13.456743"><ele>709.0</ele><time>2026-05-02T12:57:11.125Z</time></trkpt><trkpt lat="46.1683705" lon="13.4566644"><ele>711.0</ele><time>2026-05-02T12:57:13.124Z</time></trkpt><trkpt lat="46.1682751" lon="13.4565909"><ele>711.0</ele><time>2026-05-02T12:57:15.124Z</time></trkpt><trkpt lat="46.1682182" lon="13.4565453"><ele>711.0</ele><time>2026-05-02T12:57:16.124Z</time></trkpt><trkpt lat="46.1681487" lon="13.4564865"><ele>711.0</ele><time>2026-05-02T12:57:17.125Z</time></trkpt><trkpt lat="46.1680936" lon="13.4564171"><ele>711.0</ele><time>2026-05-02T12:57:18.124Z</time></trkpt><trkpt lat="46.1680217" lon="13.4562752"><ele>711.0</ele><time>2026-05-02T12:57:20.125Z</time></trkpt><trkpt lat="46.1679868" lon="13.456161"><ele>711.0</ele><time>2026-05-02T12:57:21.124Z</time></trkpt><trkpt lat="46.1679436" lon="13.4560412"><ele>710.5</ele><time>2026-05-02T12:57:22.125Z</time></trkpt><trkpt lat="46.1679055" lon="13.4559274"><ele>710.0</ele><time>2026-05-02T12:57:23.125Z</time></trkpt><trkpt lat="46.1678728" lon="13.4558195"><ele>709.5</ele><time>2026-05-02T12:57:24.124Z</time></trkpt><trkpt lat="46.1678477" lon="13.4557313"><ele>709.0</ele><time>2026-05-02T12:57:25.125Z</time></trkpt><trkpt lat="46.1678413" lon="13.4555698"><ele>708.5</ele><time>2026-05-02T12:57:27.124Z</time></trkpt><trkpt lat="46.1678528" lon="13.4554781"><ele>708.0</ele><time>2026-05-02T12:57:29.125Z</time></trkpt><trkpt lat="46.1678875" lon="13.4553423"><ele>709.4</ele><time>2026-05-02T12:57:35.125Z</time></trkpt><trkpt lat="46.1679299" lon="13.4551988"><ele>710.8</ele><time>2026-05-02T12:57:37.124Z</time></trkpt><trkpt lat="46.1679649" lon="13.4550514"><ele>712.2</ele><time>2026-05-02T12:57:39.124Z</time></trkpt><trkpt lat="46.1679678" lon="13.4549324"><ele>713.6</ele><time>2026-05-02T12:57:41.125Z</time></trkpt><trkpt lat="46.1679201" lon="13.4548098"><ele>715.0</ele><time>2026-05-02T12:57:43.124Z</time></trkpt><trkpt lat="46.1678353" lon="13.4546873"><ele>715.0</ele><time>2026-05-02T12:57:45.124Z</time></trkpt><trkpt lat="46.16777" lon="13.4546249"><ele>715.0</ele><time>2026-05-02T12:57:46.124Z</time></trkpt><trkpt lat="46.1677026" lon="13.4545566"><ele>715.0</ele><time>2026-05-02T12:57:47.125Z</time></trkpt><trkpt lat="46.1676386" lon="13.4545034"><ele>715.0</ele><time>2026-05-02T12:57:48.124Z</time></trkpt><trkpt lat="46.1675693" lon="13.4544405"><ele>715.0</ele><time>2026-05-02T12:57:49.125Z</time></trkpt><trkpt lat="46.1675109" lon="13.4543812"><ele>715.0</ele><time>2026-05-02T12:57:50.124Z</time></trkpt><trkpt lat="46.1674487" lon="13.4543182"><ele>715.3333333333334</ele><time>2026-05-02T12:57:51.125Z</time></trkpt><trkpt lat="46.16738" lon="13.4542582"><ele>715.6666666666667</ele><time>2026-05-02T12:57:52.124Z</time></trkpt><trkpt lat="46.1673068" lon="13.4541939"><ele>716.0</ele><time>2026-05-02T12:57:53.124Z</time></trkpt><trkpt lat="46.1672455" lon="13.4541277"><ele>716.3333333333334</ele><time>2026-05-02T12:57:54.124Z</time></trkpt><trkpt lat="46.1671764" lon="13.4540749"><ele>716.6666666666666</ele><time>2026-05-02T12:57:55.125Z</time></trkpt><trkpt lat="46.1671051" lon="13.454033"><ele>717.0</ele><time>2026-05-02T12:57:56.125Z</time></trkpt><trkpt lat="46.1670378" lon="13.4539995"><ele>717.0</ele><time>2026-05-02T12:57:57.124Z</time></trkpt><trkpt lat="46.166973" lon="13.4539685"><ele>717.0</ele><time>2026-05-02T12:57:58.124Z</time></trkpt><trkpt lat="46.1669067" lon="13.4539362"><ele>717.0</ele><time>2026-05-02T12:57:59.125Z</time></trkpt><trkpt lat="46.1668069" lon="13.4538743"><ele>717.0</ele><time>2026-05-02T12:58:01.125Z</time></trkpt><trkpt lat="46.1667214" lon="13.4538052"><ele>717.0</ele><time>2026-05-02T12:58:03.124Z</time></trkpt><trkpt lat="46.166631" lon="13.4537488"><ele>717.0</ele><time>2026-05-02T12:58:05.125Z</time></trkpt><trkpt lat="46.1665358" lon="13.4537629"><ele>714.4000000000001</ele><time>2026-05-02T12:58:07.124Z</time></trkpt><trkpt lat="46.1664157" lon="13.4538512"><ele>711.8000000000001</ele><time>2026-05-02T12:58:09.125Z</time></trkpt><trkpt lat="46.1663521" lon="13.4538975"><ele>709.2</ele><time>2026-05-02T12:58:10.124Z</time></trkpt><trkpt lat="46.1662969" lon="13.4539421"><ele>706.6</ele><time>2026-05-02T12:58:11.124Z</time></trkpt><trkpt lat="46.1662125" lon="13.4540262"><ele>704.0</ele><time>2026-05-02T12:58:13.124Z</time></trkpt><trkpt lat="46.1661472" lon="13.4541143"><ele>704.0</ele><time>2026-05-02T12:58:15.124Z</time></trkpt><trkpt lat="46.1660863" lon="13.4542291"><ele>704.0</ele><time>2026-05-02T12:58:17.125Z</time></trkpt><trkpt lat="46.16607" lon="13.4543757"><ele>704.0</ele><time>2026-05-02T12:58:19.125Z</time></trkpt><trkpt lat="46.1660848" lon="13.4545233"><ele>704.0</ele><time>2026-05-02T12:58:21.124Z</time></trkpt><trkpt lat="46.1660856" lon="13.4546526"><ele>704.0</ele><time>2026-05-02T12:58:23.124Z</time></trkpt><trkpt lat="46.1660462" lon="13.4547946"><ele>702.4000000000001</ele><time>2026-05-02T12:58:25.124Z</time></trkpt><trkpt lat="46.1659708" lon="13.4548985"><ele>700.8</ele><time>2026-05-02T12:58:27.124Z</time></trkpt><trkpt lat="46.1659153" lon="13.4549452"><ele>699.2</ele><time>2026-05-02T12:58:28.124Z</time></trkpt><trkpt lat="46.1658144" lon="13.4549159"><ele>697.5999999999999</ele><time>2026-05-02T12:58:30.124Z</time></trkpt><trkpt lat="46.1657135" lon="13.4548163"><ele>696.0</ele><time>2026-05-02T12:58:32.124Z</time></trkpt><trkpt lat="46.1656336" lon="13.4547155"><ele>695.1999999999999</ele><time>2026-05-02T12:58:34.124Z</time></trkpt><trkpt lat="46.1655764" lon="13.4545811"><ele>694.4</ele><time>2026-05-02T12:58:36.124Z</time></trkpt><trkpt lat="46.1655052" lon="13.4544436"><ele>693.6</ele><time>2026-05-02T12:58:38.124Z</time></trkpt><trkpt lat="46.1654398" lon="13.4543122"><ele>692.8</ele><time>2026-05-02T12:58:40.123Z</time></trkpt><trkpt lat="46.1653784" lon="13.4541828"><ele>692.0</ele><time>2026-05-02T12:58:42.123Z</time></trkpt><trkpt lat="46.165273" lon="13.4541016"><ele>692.0</ele><time>2026-05-02T12:58:44.123Z</time></trkpt><trkpt lat="46.1651415" lon="13.4540804"><ele>692.0</ele><time>2026-05-02T12:58:46.124Z</time></trkpt><trkpt lat="46.1650214" lon="13.4540969"><ele>692.0</ele><time>2026-05-02T12:58:48.123Z</time></trkpt><trkpt lat="46.1648975" lon="13.4540763"><ele>692.0</ele><time>2026-05-02T12:58:50.124Z</time></trkpt><trkpt lat="46.1648302" lon="13.4540623"><ele>692.0</ele><time>2026-05-02T12:58:51.123Z</time></trkpt><trkpt lat="46.164725" lon="13.4540148"><ele>690.0</ele><time>2026-05-02T12:58:53.124Z</time></trkpt><trkpt lat="46.1646395" lon="13.4539759"><ele>688.0</ele><time>2026-05-02T12:58:55.123Z</time></trkpt><trkpt lat="46.1645293" lon="13.453996"><ele>686.0</ele><time>2026-05-02T12:58:57.123Z</time></trkpt><trkpt lat="46.1644186" lon="13.454077"><ele>684.0</ele><time>2026-05-02T12:58:59.124Z</time></trkpt><trkpt lat="46.1643224" lon="13.4541462"><ele>682.0</ele><time>2026-05-02T12:59:01.123Z</time></trkpt><trkpt lat="46.1642312" lon="13.4541503"><ele>682.0</ele><time>2026-05-02T12:59:03.124Z</time></trkpt><trkpt lat="46.1641278" lon="13.4541314"><ele>682.0</ele><time>2026-05-02T12:59:05.123Z</time></trkpt><trkpt lat="46.1640454" lon="13.4541588"><ele>682.0</ele><time>2026-05-02T12:59:07.124Z</time></trkpt><trkpt lat="46.1640464" lon="13.4542875"><ele>682.0</ele><time>2026-05-02T12:59:09.124Z</time></trkpt><trkpt lat="46.1640352" lon="13.4544078"><ele>682.0</ele><time>2026-05-02T12:59:11.124Z</time></trkpt><trkpt lat="46.163926" lon="13.4544135"><ele>679.6</ele><time>2026-05-02T12:59:13.124Z</time></trkpt><trkpt lat="46.1638213" lon="13.4543514"><ele>677.2</ele><time>2026-05-02T12:59:15.123Z</time></trkpt><trkpt lat="46.1637424" lon="13.4542615"><ele>674.8</ele><time>2026-05-02T12:59:17.124Z</time></trkpt><trkpt lat="46.1636848" lon="13.4541783"><ele>672.4</ele><time>2026-05-02T12:59:19.123Z</time></trkpt><trkpt lat="46.1636224" lon="13.4541128"><ele>670.0</ele><time>2026-05-02T12:59:21.124Z</time></trkpt><trkpt lat="46.1635427" lon="13.4541353"><ele>670.0</ele><time>2026-05-02T12:59:24.124Z</time></trkpt><trkpt lat="46.1634351" lon="13.4542205"><ele>670.0</ele><time>2026-05-02T12:59:26.124Z</time></trkpt><trkpt lat="46.1633424" lon="13.4542782"><ele>670.0</ele><time>2026-05-02T12:59:28.123Z</time></trkpt><trkpt lat="46.163259" lon="13.4543409"><ele>670.0</ele><time>2026-05-02T12:59:30.124Z</time></trkpt><trkpt lat="46.1631928" lon="13.4544259"><ele>670.0</ele><time>2026-05-02T12:59:32.123Z</time></trkpt><trkpt lat="46.1631678" lon="13.4545412"><ele>665.6</ele><time>2026-05-02T12:59:34.124Z</time></trkpt><trkpt lat="46.1632349" lon="13.4546383"><ele>661.2</ele><time>2026-05-02T12:59:36.123Z</time></trkpt><trkpt lat="46.1633135" lon="13.4547749"><ele>656.8</ele><time>2026-05-02T12:59:38.123Z</time></trkpt><trkpt lat="46.1633539" lon="13.4548892"><ele>652.4</ele><time>2026-05-02T12:59:40.123Z</time></trkpt><trkpt lat="46.1633783" lon="13.4549873"><ele>648.0</ele><time>2026-05-02T12:59:42.123Z</time></trkpt><trkpt lat="46.163394" lon="13.4551082"><ele>648.0</ele><time>2026-05-02T12:59:44.123Z</time></trkpt><trkpt lat="46.1634216" lon="13.4552219"><ele>648.0</ele><time>2026-05-02T12:59:46.123Z</time></trkpt><trkpt lat="46.163432" lon="13.4553459"><ele>648.0</ele><time>2026-05-02T12:59:48.124Z</time></trkpt><trkpt lat="46.1633819" lon="13.4554345"><ele>648.0</ele><time>2026-05-02T12:59:50.123Z</time></trkpt><trkpt lat="46.1632938" lon="13.4554252"><ele>648.0</ele><time>2026-05-02T12:59:52.123Z</time></trkpt><trkpt lat="46.163209" lon="13.45536"><ele>648.0</ele><time>2026-05-02T12:59:54.124Z</time></trkpt><trkpt lat="46.1631335" lon="13.4552777"><ele>645.8</ele><time>2026-05-02T12:59:56.124Z</time></trkpt><trkpt lat="46.1630602" lon="13.4551503"><ele>643.5999999999999</ele><time>2026-05-02T12:59:58.123Z</time></trkpt><trkpt lat="46.162997" lon="13.4550198"><ele>641.4000000000001</ele><time>2026-05-02T13:00:00.124Z</time></trkpt><trkpt lat="46.162928" lon="13.4549307"><ele>639.2</ele><time>2026-05-02T13:00:02.124Z</time></trkpt><trkpt lat="46.1628274" lon="13.4548592"><ele>637.0</ele><time>2026-05-02T13:00:04.123Z</time></trkpt><trkpt lat="46.1627227" lon="13.4548404"><ele>637.0</ele><time>2026-05-02T13:00:06.123Z</time></trkpt><trkpt lat="46.1626429" lon="13.4548574"><ele>637.0</ele><time>2026-05-02T13:00:08.124Z</time></trkpt><trkpt lat="46.1625517" lon="13.4548565"><ele>637.0</ele><time>2026-05-02T13:00:10.123Z</time></trkpt><trkpt lat="46.1624561" lon="13.4548331"><ele>637.0</ele><time>2026-05-02T13:00:12.123Z</time></trkpt><trkpt lat="46.1623647" lon="13.4548318"><ele>637.0</ele><time>2026-05-02T13:00:14.124Z</time></trkpt><trkpt lat="46.162282" lon="13.4548756"><ele>637.0</ele><time>2026-05-02T13:00:16.123Z</time></trkpt><trkpt lat="46.1622158" lon="13.4548775"><ele>641.0</ele><time>2026-05-02T13:00:18.124Z</time></trkpt><trkpt lat="46.1621108" lon="13.4548587"><ele>645.0</ele><time>2026-05-02T13:00:20.123Z</time></trkpt><trkpt lat="46.1620112" lon="13.4548326"><ele>649.0</ele><time>2026-05-02T13:00:22.124Z</time></trkpt><trkpt lat="46.1619161" lon="13.4548865"><ele>653.0</ele><time>2026-05-02T13:00:24.124Z</time></trkpt><trkpt lat="46.1618143" lon="13.4549847"><ele>657.0</ele><time>2026-05-02T13:00:26.124Z</time></trkpt><trkpt lat="46.1617406" lon="13.4550556"><ele>657.0</ele><time>2026-05-02T13:00:28.124Z</time></trkpt><trkpt lat="46.1616611" lon="13.4551326"><ele>657.0</ele><time>2026-05-02T13:00:30.123Z</time></trkpt><trkpt lat="46.1615753" lon="13.4551934"><ele>657.0</ele><time>2026-05-02T13:00:32.123Z</time></trkpt><trkpt lat="46.1614758" lon="13.4552511"><ele>657.0</ele><time>2026-05-02T13:00:34.124Z</time></trkpt><trkpt lat="46.1613694" lon="13.4552905"><ele>657.0</ele><time>2026-05-02T13:00:36.124Z</time></trkpt><trkpt lat="46.1613079" lon="13.4553102"><ele>659.4000000000001</ele><time>2026-05-02T13:00:37.124Z</time></trkpt><trkpt lat="46.1611979" lon="13.4553373"><ele>661.8000000000001</ele><time>2026-05-02T13:00:39.123Z</time></trkpt><trkpt lat="46.1610681" lon="13.4553666"><ele>664.2</ele><time>2026-05-02T13:00:41.123Z</time></trkpt><trkpt lat="46.1609908" lon="13.4553771"><ele>666.6</ele><time>2026-05-02T13:00:42.123Z</time></trkpt><trkpt lat="46.1609166" lon="13.4553873"><ele>669.0</ele><time>2026-05-02T13:00:43.124Z</time></trkpt><trkpt lat="46.1608464" lon="13.4554081"><ele>669.0</ele><time>2026-05-02T13:00:44.123Z</time></trkpt><trkpt lat="46.160784" lon="13.4554299"><ele>669.0</ele><time>2026-05-02T13:00:45.124Z</time></trkpt><trkpt lat="46.1606818" lon="13.4554604"><ele>669.0</ele><time>2026-05-02T13:00:47.123Z</time></trkpt><trkpt lat="46.1605936" lon="13.455445"><ele>669.0</ele><time>2026-05-02T13:00:49.123Z</time></trkpt><trkpt lat="46.1604729" lon="13.4554177"><ele>669.0</ele><time>2026-05-02T13:00:51.123Z</time></trkpt><trkpt lat="46.1603681" lon="13.4554007"><ele>668.2</ele><time>2026-05-02T13:00:53.123Z</time></trkpt><trkpt lat="46.1602987" lon="13.4554433"><ele>667.4000000000001</ele><time>2026-05-02T13:00:55.123Z</time></trkpt><trkpt lat="46.1601934" lon="13.4555366"><ele>666.6</ele><time>2026-05-02T13:00:57.123Z</time></trkpt><trkpt lat="46.1601256" lon="13.4555879"><ele>665.8</ele><time>2026-05-02T13:00:58.124Z</time></trkpt><trkpt lat="46.1600537" lon="13.4556486"><ele>665.0</ele><time>2026-05-02T13:00:59.124Z</time></trkpt><trkpt lat="46.1599788" lon="13.4557331"><ele>665.0</ele><time>2026-05-02T13:01:00.124Z</time></trkpt><trkpt lat="46.1599121" lon="13.4558225"><ele>665.0</ele><time>2026-05-02T13:01:01.124Z</time></trkpt><trkpt lat="46.1598641" lon="13.4558867"><ele>665.0</ele><time>2026-05-02T13:01:02.124Z</time></trkpt><trkpt lat="46.1598097" lon="13.4559871"><ele>665.0</ele><time>2026-05-02T13:01:04.123Z</time></trkpt><trkpt lat="46.1598043" lon="13.4560967"><ele>665.0</ele><time>2026-05-02T13:01:11.124Z</time></trkpt><trkpt lat="46.1598241" lon="13.4562484"><ele>665.0</ele><time>2026-05-02T13:01:13.123Z</time></trkpt><trkpt lat="46.1598195" lon="13.4563403"><ele>665.0</ele><time>2026-05-02T13:01:14.124Z</time></trkpt><trkpt lat="46.1597713" lon="13.4564679"><ele>665.0</ele><time>2026-05-02T13:01:16.124Z</time></trkpt><trkpt lat="46.1597128" lon="13.4565649"><ele>665.0</ele><time>2026-05-02T13:01:18.123Z</time></trkpt><trkpt lat="46.1596326" lon="13.4566239"><ele>665.0</ele><time>2026-05-02T13:01:20.123Z</time></trkpt><trkpt lat="46.1595602" lon="13.4566476"><ele>665.0</ele><time>2026-05-02T13:01:23.123Z</time></trkpt><trkpt lat="46.1594903" lon="13.4566416"><ele>665.0</ele><time>2026-05-02T13:01:25.123Z</time></trkpt><trkpt lat="46.1594268" lon="13.4566202"><ele>665.0</ele><time>2026-05-02T13:01:26.124Z</time></trkpt><trkpt lat="46.1593588" lon="13.4565876"><ele>665.0</ele><time>2026-05-02T13:01:27.124Z</time></trkpt><trkpt lat="46.1592925" lon="13.4565418"><ele>665.0</ele><time>2026-05-02T13:01:28.124Z</time></trkpt><trkpt lat="46.1592261" lon="13.456491"><ele>665.0</ele><time>2026-05-02T13:01:29.123Z</time></trkpt><trkpt lat="46.1591573" lon="13.4564475"><ele>665.0</ele><time>2026-05-02T13:01:30.123Z</time></trkpt><trkpt lat="46.1590932" lon="13.4564219"><ele>665.0</ele><time>2026-05-02T13:01:31.123Z</time></trkpt><trkpt lat="46.1589692" lon="13.4564079"><ele>665.0</ele><time>2026-05-02T13:01:33.123Z</time></trkpt><trkpt lat="46.1589026" lon="13.4564186"><ele>665.0</ele><time>2026-05-02T13:01:34.123Z</time></trkpt><trkpt lat="46.1588349" lon="13.4564205"><ele>665.0</ele><time>2026-05-02T13:01:35.124Z</time></trkpt><trkpt lat="46.1587673" lon="13.4563998"><ele>665.0</ele><time>2026-05-02T13:01:36.123Z</time></trkpt><trkpt lat="46.1587047" lon="13.4563569"><ele>665.0</ele><time>2026-05-02T13:01:37.123Z</time></trkpt><trkpt lat="46.1586142" lon="13.4562524"><ele>665.0</ele><time>2026-05-02T13:01:39.123Z</time></trkpt><trkpt lat="46.1585744" lon="13.4561708"><ele>665.0</ele><time>2026-05-02T13:01:40.123Z</time></trkpt><trkpt lat="46.1585518" lon="13.4560654"><ele>665.0</ele><time>2026-05-02T13:01:41.123Z</time></trkpt><trkpt lat="46.1585249" lon="13.455968"><ele>665.0</ele><time>2026-05-02T13:01:42.123Z</time></trkpt><trkpt lat="46.1584951" lon="13.4558609"><ele>665.0</ele><time>2026-05-02T13:01:43.123Z</time></trkpt><trkpt lat="46.1584672" lon="13.4557561"><ele>665.0</ele><time>2026-05-02T13:01:44.124Z</time></trkpt><trkpt lat="46.158432" lon="13.4556537"><ele>665.0</ele><time>2026-05-02T13:01:45.123Z</time></trkpt><trkpt lat="46.1583883" lon="13.4555466"><ele>667.2</ele><time>2026-05-02T13:01:46.123Z</time></trkpt><trkpt lat="46.158339" lon="13.4554422"><ele>669.4</ele><time>2026-05-02T13:01:47.124Z</time></trkpt><trkpt lat="46.1582975" lon="13.4553459"><ele>671.5999999999999</ele><time>2026-05-02T13:01:48.124Z</time></trkpt><trkpt lat="46.158227" lon="13.4551837"><ele>673.8</ele><time>2026-05-02T13:01:50.123Z</time></trkpt><trkpt lat="46.1582001" lon="13.4550736"><ele>676.0</ele><time>2026-05-02T13:01:51.124Z</time></trkpt><trkpt lat="46.1581684" lon="13.4549532"><ele>676.0</ele><time>2026-05-02T13:01:52.124Z</time></trkpt><trkpt lat="46.1581372" lon="13.4548252"><ele>676.0</ele><time>2026-05-02T13:01:53.123Z</time></trkpt><trkpt lat="46.1581053" lon="13.4547009"><ele>676.0</ele><time>2026-05-02T13:01:54.123Z</time></trkpt><trkpt lat="46.1580759" lon="13.4545899"><ele>676.0</ele><time>2026-05-02T13:01:55.124Z</time></trkpt><trkpt lat="46.1580556" lon="13.4544294"><ele>676.0</ele><time>2026-05-02T13:01:57.123Z</time></trkpt><trkpt lat="46.1580084" lon="13.4543255"><ele>676.0</ele><time>2026-05-02T13:01:59.123Z</time></trkpt><trkpt lat="46.1579117" lon="13.4543642"><ele>676.0</ele><time>2026-05-02T13:02:01.124Z</time></trkpt><trkpt lat="46.1578168" lon="13.4544357"><ele>676.0</ele><time>2026-05-02T13:02:03.123Z</time></trkpt><trkpt lat="46.1577531" lon="13.4545353"><ele>676.0</ele><time>2026-05-02T13:02:05.123Z</time></trkpt><trkpt lat="46.1576655" lon="13.4546585"><ele>676.0</ele><time>2026-05-02T13:02:07.123Z</time></trkpt><trkpt lat="46.1576216" lon="13.4547495"><ele>676.0</ele><time>2026-05-02T13:02:08.123Z</time></trkpt><trkpt lat="46.157585" lon="13.4548454"><ele>676.0</ele><time>2026-05-02T13:02:09.123Z</time></trkpt><trkpt lat="46.1575313" lon="13.454989"><ele>676.0</ele><time>2026-05-02T13:02:11.124Z</time></trkpt><trkpt lat="46.1574447" lon="13.4550486"><ele>676.0</ele><time>2026-05-02T13:02:13.123Z</time></trkpt><trkpt lat="46.157331" lon="13.4550025"><ele>676.0</ele><time>2026-05-02T13:02:15.123Z</time></trkpt><trkpt lat="46.1572384" lon="13.454978"><ele>675.1666666666667</ele><time>2026-05-02T13:02:17.123Z</time></trkpt><trkpt lat="46.1571541" lon="13.4550038"><ele>674.3333333333334</ele><time>2026-05-02T13:02:20.124Z</time></trkpt><trkpt lat="46.1570704" lon="13.4549995"><ele>673.5</ele><time>2026-05-02T13:02:22.123Z</time></trkpt><trkpt lat="46.1569456" lon="13.4550013"><ele>672.6666666666666</ele><time>2026-05-02T13:02:24.123Z</time></trkpt><trkpt lat="46.1568749" lon="13.4550072"><ele>671.8333333333333</ele><time>2026-05-02T13:02:25.123Z</time></trkpt><trkpt lat="46.1567953" lon="13.4550008"><ele>671.0</ele><time>2026-05-02T13:02:26.124Z</time></trkpt><trkpt lat="46.1567187" lon="13.4549853"><ele>671.0</ele><time>2026-05-02T13:02:27.123Z</time></trkpt><trkpt lat="46.1566364" lon="13.4549647"><ele>671.0</ele><time>2026-05-02T13:02:28.124Z</time></trkpt><trkpt lat="46.1565521" lon="13.4549444"><ele>671.0</ele><time>2026-05-02T13:02:29.124Z</time></trkpt><trkpt lat="46.1564748" lon="13.4549191"><ele>671.0</ele><time>2026-05-02T13:02:30.124Z</time></trkpt><trkpt lat="46.1564092" lon="13.4548844"><ele>671.0</ele><time>2026-05-02T13:02:31.122Z</time></trkpt><trkpt lat="46.1563478" lon="13.4548584"><ele>671.0</ele><time>2026-05-02T13:02:32.122Z</time></trkpt><trkpt lat="46.1562822" lon="13.4548438"><ele>671.0</ele><time>2026-05-02T13:02:33.122Z</time></trkpt><trkpt lat="46.1562174" lon="13.4548434"><ele>671.5</ele><time>2026-05-02T13:02:34.123Z</time></trkpt><trkpt lat="46.1561488" lon="13.4548486"><ele>672.0</ele><time>2026-05-02T13:02:35.122Z</time></trkpt><trkpt lat="46.1560801" lon="13.4548611"><ele>672.5</ele><time>2026-05-02T13:02:36.122Z</time></trkpt><trkpt lat="46.1560066" lon="13.4548674"><ele>673.0</ele><time>2026-05-02T13:02:37.123Z</time></trkpt><trkpt lat="46.1559309" lon="13.4548502"><ele>673.5</ele><time>2026-05-02T13:02:38.123Z</time></trkpt><trkpt lat="46.1558416" lon="13.4548158"><ele>674.0</ele><time>2026-05-02T13:02:39.122Z</time></trkpt><trkpt lat="46.1557515" lon="13.4547845"><ele>676.6</ele><time>2026-05-02T13:02:40.123Z</time></trkpt><trkpt lat="46.15567" lon="13.4547425"><ele>679.2</ele><time>2026-05-02T13:02:41.122Z</time></trkpt><trkpt lat="46.1556128" lon="13.4547031"><ele>681.8000000000001</ele><time>2026-05-02T13:02:42.123Z</time></trkpt><trkpt lat="46.1555174" lon="13.4546432"><ele>684.4000000000001</ele><time>2026-05-02T13:02:44.123Z</time></trkpt><trkpt lat="46.1554064" lon="13.45458"><ele>687.0</ele><time>2026-05-02T13:02:46.123Z</time></trkpt><trkpt lat="46.1553198" lon="13.454549"><ele>687.0</ele><time>2026-05-02T13:02:48.123Z</time></trkpt><trkpt lat="46.1552418" lon="13.4545995"><ele>687.0</ele><time>2026-05-02T13:02:50.123Z</time></trkpt><trkpt lat="46.1551768" lon="13.4547441"><ele>687.0</ele><time>2026-05-02T13:02:52.122Z</time></trkpt><trkpt lat="46.1551532" lon="13.4548373"><ele>687.0</ele><time>2026-05-02T13:02:53.122Z</time></trkpt><trkpt lat="46.1551222" lon="13.4549432"><ele>687.0</ele><time>2026-05-02T13:02:54.123Z</time></trkpt><trkpt lat="46.1550711" lon="13.4550577"><ele>687.0</ele><time>2026-05-02T13:02:55.122Z</time></trkpt><trkpt lat="46.1550306" lon="13.4551667"><ele>687.0</ele><time>2026-05-02T13:02:56.123Z</time></trkpt><trkpt lat="46.1549878" lon="13.4552667"><ele>687.0</ele><time>2026-05-02T13:02:57.122Z</time></trkpt><trkpt lat="46.1549442" lon="13.4553578"><ele>687.0</ele><time>2026-05-02T13:02:58.122Z</time></trkpt><trkpt lat="46.1549026" lon="13.4554455"><ele>687.0</ele><time>2026-05-02T13:02:59.122Z</time></trkpt><trkpt lat="46.1548542" lon="13.4555418"><ele>687.0</ele><time>2026-05-02T13:03:00.123Z</time></trkpt><trkpt lat="46.1548078" lon="13.4556339"><ele>687.0</ele><time>2026-05-02T13:03:01.122Z</time></trkpt><trkpt lat="46.1547677" lon="13.4557184"><ele>687.2857142857143</ele><time>2026-05-02T13:03:02.122Z</time></trkpt><trkpt lat="46.1547164" lon="13.4557794"><ele>687.5714285714286</ele><time>2026-05-02T13:03:03.122Z</time></trkpt><trkpt lat="46.1546423" lon="13.4558365"><ele>687.8571428571429</ele><time>2026-05-02T13:03:04.123Z</time></trkpt><trkpt lat="46.1545824" lon="13.4558789"><ele>688.1428571428571</ele><time>2026-05-02T13:03:05.123Z</time></trkpt><trkpt lat="46.1545209" lon="13.455923"><ele>688.4285714285714</ele><time>2026-05-02T13:03:06.122Z</time></trkpt><trkpt lat="46.1544422" lon="13.4559497"><ele>688.7142857142857</ele><time>2026-05-02T13:03:07.122Z</time></trkpt><trkpt lat="46.1543618" lon="13.4559643"><ele>689.0</ele><time>2026-05-02T13:03:08.122Z</time></trkpt><trkpt lat="46.1542864" lon="13.4559832"><ele>689.0</ele><time>2026-05-02T13:03:09.122Z</time></trkpt><trkpt lat="46.1541831" lon="13.4560729"><ele>689.0</ele><time>2026-05-02T13:03:11.122Z</time></trkpt><trkpt lat="46.1541279" lon="13.4561231"><ele>689.0</ele><time>2026-05-02T13:03:12.122Z</time></trkpt><trkpt lat="46.1540347" lon="13.4562181"><ele>689.0</ele><time>2026-05-02T13:03:14.122Z</time></trkpt><trkpt lat="46.1539345" lon="13.4562979"><ele>689.0</ele><time>2026-05-02T13:03:16.123Z</time></trkpt><trkpt lat="46.1538277" lon="13.4563524"><ele>688.1666666666666</ele><time>2026-05-02T13:03:18.122Z</time></trkpt><trkpt lat="46.1537589" lon="13.4563602"><ele>687.3333333333333</ele><time>2026-05-02T13:03:19.122Z</time></trkpt><trkpt lat="46.1536871" lon="13.4563537"><ele>686.5</ele><time>2026-05-02T13:03:20.122Z</time></trkpt><trkpt lat="46.1535969" lon="13.4563357"><ele>685.6666666666666</ele><time>2026-05-02T13:03:21.122Z</time></trkpt><trkpt lat="46.1535009" lon="13.4563233"><ele>684.8333333333334</ele><time>2026-05-02T13:03:22.123Z</time></trkpt><trkpt lat="46.1534221" lon="13.4563076"><ele>684.0</ele><time>2026-05-02T13:03:23.123Z</time></trkpt><trkpt lat="46.1533566" lon="13.4562982"><ele>683.0</ele><time>2026-05-02T13:03:24.122Z</time></trkpt><trkpt lat="46.1532396" lon="13.4562785"><ele>682.0</ele><time>2026-05-02T13:03:26.123Z</time></trkpt><trkpt lat="46.1531186" lon="13.456271"><ele>681.0</ele><time>2026-05-02T13:03:28.122Z</time></trkpt><trkpt lat="46.1530006" lon="13.4562716"><ele>680.0</ele><time>2026-05-02T13:03:30.122Z</time></trkpt><trkpt lat="46.1528987" lon="13.4563585"><ele>680.0</ele><time>2026-05-02T13:03:32.123Z</time></trkpt><trkpt lat="46.152826" lon="13.4564712"><ele>680.0</ele><time>2026-05-02T13:03:34.122Z</time></trkpt><trkpt lat="46.1527913" lon="13.4565514"><ele>680.0</ele><time>2026-05-02T13:03:35.123Z</time></trkpt><trkpt lat="46.1527514" lon="13.4566572"><ele>680.0</ele><time>2026-05-02T13:03:36.123Z</time></trkpt><trkpt lat="46.152709" lon="13.4567708"><ele>680.0</ele><time>2026-05-02T13:03:37.122Z</time></trkpt><trkpt lat="46.1526706" lon="13.4568704"><ele>680.0</ele><time>2026-05-02T13:03:38.122Z</time></trkpt><trkpt lat="46.1526347" lon="13.4569658"><ele>680.0</ele><time>2026-05-02T13:03:39.123Z</time></trkpt><trkpt lat="46.1525845" lon="13.4570587"><ele>680.0</ele><time>2026-05-02T13:03:40.122Z</time></trkpt><trkpt lat="46.1525344" lon="13.4571494"><ele>680.0</ele><time>2026-05-02T13:03:41.123Z</time></trkpt><trkpt lat="46.1524943" lon="13.4572364"><ele>680.0</ele><time>2026-05-02T13:03:42.123Z</time></trkpt><trkpt lat="46.1524491" lon="13.4573211"><ele>680.0</ele><time>2026-05-02T13:03:43.122Z</time></trkpt><trkpt lat="46.1524038" lon="13.457387"><ele>680.0</ele><time>2026-05-02T13:03:44.123Z</time></trkpt><trkpt lat="46.1523505" lon="13.4574424"><ele>680.0</ele><time>2026-05-02T13:03:45.122Z</time></trkpt><trkpt lat="46.1522944" lon="13.4574865"><ele>680.3333333333333</ele><time>2026-05-02T13:03:46.121Z</time></trkpt><trkpt lat="46.1522345" lon="13.4575161"><ele>680.6666666666666</ele><time>2026-05-02T13:03:47.123Z</time></trkpt><trkpt lat="46.1521214" lon="13.457548"><ele>681.0</ele><time>2026-05-02T13:03:49.123Z</time></trkpt><trkpt lat="46.1520617" lon="13.457582"><ele>681.3333333333334</ele><time>2026-05-02T13:03:50.123Z</time></trkpt><trkpt lat="46.1519979" lon="13.4576138"><ele>681.6666666666667</ele><time>2026-05-02T13:03:51.123Z</time></trkpt><trkpt lat="46.1519327" lon="13.4576185"><ele>682.0</ele><time>2026-05-02T13:03:52.122Z</time></trkpt><trkpt lat="46.1518567" lon="13.4576006"><ele>682.0</ele><time>2026-05-02T13:03:53.123Z</time></trkpt><trkpt lat="46.1517844" lon="13.4575639"><ele>682.0</ele><time>2026-05-02T13:03:54.123Z</time></trkpt><trkpt lat="46.1517248" lon="13.457505"><ele>682.0</ele><time>2026-05-02T13:03:55.122Z</time></trkpt><trkpt lat="46.1516789" lon="13.4574417"><ele>682.0</ele><time>2026-05-02T13:03:56.122Z</time></trkpt><trkpt lat="46.1515734" lon="13.4573839"><ele>682.0</ele><time>2026-05-02T13:03:58.123Z</time></trkpt><trkpt lat="46.1515091" lon="13.4573822"><ele>682.0</ele><time>2026-05-02T13:03:59.123Z</time></trkpt><trkpt lat="46.1514383" lon="13.4574028"><ele>682.0</ele><time>2026-05-02T13:04:00.123Z</time></trkpt><trkpt lat="46.1513742" lon="13.4574348"><ele>682.0</ele><time>2026-05-02T13:04:01.122Z</time></trkpt><trkpt lat="46.1513179" lon="13.4574817"><ele>682.0</ele><time>2026-05-02T13:04:02.123Z</time></trkpt><trkpt lat="46.1512673" lon="13.4575379"><ele>682.0</ele><time>2026-05-02T13:04:03.122Z</time></trkpt><trkpt lat="46.1511641" lon="13.457621"><ele>682.0</ele><time>2026-05-02T13:04:05.123Z</time></trkpt><trkpt lat="46.1510723" lon="13.457653"><ele>682.0</ele><time>2026-05-02T13:04:07.122Z</time></trkpt><trkpt lat="46.1509831" lon="13.4576339"><ele>682.0</ele><time>2026-05-02T13:04:09.122Z</time></trkpt><trkpt lat="46.1508746" lon="13.4576024"><ele>682.0</ele><time>2026-05-02T13:04:11.123Z</time></trkpt><trkpt lat="46.1508123" lon="13.4575863"><ele>682.0</ele><time>2026-05-02T13:04:12.122Z</time></trkpt><trkpt lat="46.1507462" lon="13.4575723"><ele>682.0</ele><time>2026-05-02T13:04:13.122Z</time></trkpt><trkpt lat="46.1506797" lon="13.4575736"><ele>682.0</ele><time>2026-05-02T13:04:14.123Z</time></trkpt><trkpt lat="46.1506055" lon="13.4575854"><ele>682.0</ele><time>2026-05-02T13:04:15.123Z</time></trkpt><trkpt lat="46.1505215" lon="13.4575982"><ele>681.5</ele><time>2026-05-02T13:04:16.122Z</time></trkpt><trkpt lat="46.1504348" lon="13.457603"><ele>681.0</ele><time>2026-05-02T13:04:17.123Z</time></trkpt><trkpt lat="46.1503473" lon="13.4576046"><ele>680.5</ele><time>2026-05-02T13:04:18.122Z</time></trkpt><trkpt lat="46.150265" lon="13.4575926"><ele>680.0</ele><time>2026-05-02T13:04:19.123Z</time></trkpt><trkpt lat="46.1501911" lon="13.4575713"><ele>679.5</ele><time>2026-05-02T13:04:20.122Z</time></trkpt><trkpt lat="46.1501244" lon="13.4575626"><ele>679.0</ele><time>2026-05-02T13:04:21.123Z</time></trkpt><trkpt lat="46.1500605" lon="13.4575613"><ele>679.0</ele><time>2026-05-02T13:04:22.122Z</time></trkpt><trkpt lat="46.1499907" lon="13.4575897"><ele>679.0</ele><time>2026-05-02T13:04:23.123Z</time></trkpt><trkpt lat="46.1499053" lon="13.4576432"><ele>679.0</ele><time>2026-05-02T13:04:24.122Z</time></trkpt><trkpt lat="46.1498177" lon="13.4577157"><ele>679.0</ele><time>2026-05-02T13:04:25.123Z</time></trkpt><trkpt lat="46.1497204" lon="13.4577872"><ele>679.0</ele><time>2026-05-02T13:04:26.122Z</time></trkpt><trkpt lat="46.1496307" lon="13.4578591"><ele>677.6</ele><time>2026-05-02T13:04:27.123Z</time></trkpt><trkpt lat="46.1495397" lon="13.4579291"><ele>676.2</ele><time>2026-05-02T13:04:28.123Z</time></trkpt><trkpt lat="46.149449" lon="13.4580049"><ele>674.8000000000001</ele><time>2026-05-02T13:04:29.123Z</time></trkpt><trkpt lat="46.1493499" lon="13.4580762"><ele>673.4000000000001</ele><time>2026-05-02T13:04:30.122Z</time></trkpt><trkpt lat="46.1492547" lon="13.4581302"><ele>672.0</ele><time>2026-05-02T13:04:31.123Z</time></trkpt><trkpt lat="46.149164" lon="13.4581772"><ele>672.0</ele><time>2026-05-02T13:04:32.122Z</time></trkpt><trkpt lat="46.1490896" lon="13.4582315"><ele>672.0</ele><time>2026-05-02T13:04:33.122Z</time></trkpt><trkpt lat="46.1490147" lon="13.4583132"><ele>672.0</ele><time>2026-05-02T13:04:34.122Z</time></trkpt><trkpt lat="46.1489625" lon="13.4584214"><ele>672.0</ele><time>2026-05-02T13:04:35.122Z</time></trkpt><trkpt lat="46.1489136" lon="13.4585251"><ele>672.0</ele><time>2026-05-02T13:04:36.122Z</time></trkpt><trkpt lat="46.1488737" lon="13.4586341"><ele>672.0</ele><time>2026-05-02T13:04:37.122Z</time></trkpt><trkpt lat="46.1488696" lon="13.4587776"><ele>670.3333333333334</ele><time>2026-05-02T13:04:38.122Z</time></trkpt><trkpt lat="46.14887" lon="13.4589232"><ele>668.6666666666666</ele><time>2026-05-02T13:04:39.123Z</time></trkpt><trkpt lat="46.1488532" lon="13.4590498"><ele>667.0</ele><time>2026-05-02T13:04:40.123Z</time></trkpt><trkpt lat="46.1488192" lon="13.4591551"><ele>665.3333333333333</ele><time>2026-05-02T13:04:41.122Z</time></trkpt><trkpt lat="46.1487711" lon="13.4592298"><ele>663.6666666666666</ele><time>2026-05-02T13:04:42.123Z</time></trkpt><trkpt lat="46.148696" lon="13.4592956"><ele>662.0</ele><time>2026-05-02T13:04:43.122Z</time></trkpt><trkpt lat="46.148593" lon="13.459341"><ele>662.0</ele><time>2026-05-02T13:04:44.122Z</time></trkpt><trkpt lat="46.1484783" lon="13.459383"><ele>662.0</ele><time>2026-05-02T13:04:45.122Z</time></trkpt><trkpt lat="46.1483511" lon="13.459426"><ele>662.0</ele><time>2026-05-02T13:04:46.123Z</time></trkpt><trkpt lat="46.1482352" lon="13.4594876"><ele>662.0</ele><time>2026-05-02T13:04:47.122Z</time></trkpt><trkpt lat="46.1481213" lon="13.4595472"><ele>663.25</ele><time>2026-05-02T13:04:48.122Z</time></trkpt><trkpt lat="46.14801" lon="13.4596081"><ele>664.5</ele><time>2026-05-02T13:04:49.122Z</time></trkpt><trkpt lat="46.1479041" lon="13.45968"><ele>665.75</ele><time>2026-05-02T13:04:50.122Z</time></trkpt><trkpt lat="46.1477918" lon="13.4597593"><ele>667.0</ele><time>2026-05-02T13:04:51.122Z</time></trkpt><trkpt lat="46.1476753" lon="13.4598474"><ele>667.0</ele><time>2026-05-02T13:04:52.122Z</time></trkpt><trkpt lat="46.1475576" lon="13.4599465"><ele>667.0</ele><time>2026-05-02T13:04:53.122Z</time></trkpt><trkpt lat="46.1474469" lon="13.4600717"><ele>667.0</ele><time>2026-05-02T13:04:54.122Z</time></trkpt><trkpt lat="46.1473503" lon="13.460193"><ele>667.0</ele><time>2026-05-02T13:04:55.123Z</time></trkpt><trkpt lat="46.1472818" lon="13.4603202"><ele>666.3333333333334</ele><time>2026-05-02T13:04:56.122Z</time></trkpt><trkpt lat="46.147205" lon="13.4604318"><ele>665.6666666666667</ele><time>2026-05-02T13:04:57.122Z</time></trkpt><trkpt lat="46.1471448" lon="13.4605255"><ele>665.0</ele><time>2026-05-02T13:04:58.122Z</time></trkpt><trkpt lat="46.1470835" lon="13.4605742"><ele>664.3333333333334</ele><time>2026-05-02T13:04:59.122Z</time></trkpt><trkpt lat="46.1470034" lon="13.4605685"><ele>663.6666666666666</ele><time>2026-05-02T13:05:00.122Z</time></trkpt><trkpt lat="46.1469145" lon="13.4605592"><ele>663.0</ele><time>2026-05-02T13:05:01.122Z</time></trkpt><trkpt lat="46.1468358" lon="13.4605629"><ele>663.0</ele><time>2026-05-02T13:05:02.123Z</time></trkpt><trkpt lat="46.1467656" lon="13.4605752"><ele>663.0</ele><time>2026-05-02T13:05:03.122Z</time></trkpt><trkpt lat="46.1466984" lon="13.4605887"><ele>663.0</ele><time>2026-05-02T13:05:04.122Z</time></trkpt><trkpt lat="46.1466236" lon="13.4606073"><ele>663.0</ele><time>2026-05-02T13:05:05.123Z</time></trkpt><trkpt lat="46.1465398" lon="13.4606393"><ele>663.0</ele><time>2026-05-02T13:05:06.123Z</time></trkpt><trkpt lat="46.1464538" lon="13.4606686"><ele>663.0</ele><time>2026-05-02T13:05:07.122Z</time></trkpt><trkpt lat="46.1463735" lon="13.4607041"><ele>662.0</ele><time>2026-05-02T13:05:08.123Z</time></trkpt><trkpt lat="46.146304" lon="13.4607388"><ele>661.0</ele><time>2026-05-02T13:05:09.123Z</time></trkpt><trkpt lat="46.1462081" lon="13.4607627"><ele>660.0</ele><time>2026-05-02T13:05:11.122Z</time></trkpt><trkpt lat="46.1461405" lon="13.4606939"><ele>659.0</ele><time>2026-05-02T13:05:13.122Z</time></trkpt><trkpt lat="46.1460862" lon="13.4606373"><ele>658.0</ele><time>2026-05-02T13:05:15.123Z</time></trkpt><trkpt lat="46.1460168" lon="13.460576"><ele>657.0</ele><time>2026-05-02T13:05:17.122Z</time></trkpt><trkpt lat="46.145926" lon="13.4605053"><ele>657.0</ele><time>2026-05-02T13:05:19.122Z</time></trkpt><trkpt lat="46.1458304" lon="13.4604513"><ele>657.0</ele><time>2026-05-02T13:05:21.122Z</time></trkpt><trkpt lat="46.1457688" lon="13.460423"><ele>657.0</ele><time>2026-05-02T13:05:22.122Z</time></trkpt><trkpt lat="46.1457034" lon="13.4604033"><ele>657.0</ele><time>2026-05-02T13:05:23.122Z</time></trkpt><trkpt lat="46.1456033" lon="13.460328"><ele>657.0</ele><time>2026-05-02T13:05:25.122Z</time></trkpt><trkpt lat="46.1455043" lon="13.4602595"><ele>654.6</ele><time>2026-05-02T13:05:27.123Z</time></trkpt><trkpt lat="46.1454146" lon="13.4602479"><ele>652.2</ele><time>2026-05-02T13:05:29.123Z</time></trkpt><trkpt lat="46.145324" lon="13.4602925"><ele>649.8</ele><time>2026-05-02T13:05:31.123Z</time></trkpt><trkpt lat="46.1452273" lon="13.4603154"><ele>647.4</ele><time>2026-05-02T13:05:33.122Z</time></trkpt><trkpt lat="46.1451255" lon="13.4603046"><ele>645.0</ele><time>2026-05-02T13:05:35.122Z</time></trkpt><trkpt lat="46.1450394" lon="13.4602726"><ele>645.0</ele><time>2026-05-02T13:05:37.123Z</time></trkpt><trkpt lat="46.1449487" lon="13.4602219"><ele>645.0</ele><time>2026-05-02T13:05:39.122Z</time></trkpt><trkpt lat="46.1448602" lon="13.4601707"><ele>645.0</ele><time>2026-05-02T13:05:41.123Z</time></trkpt><trkpt lat="46.144767" lon="13.4601125"><ele>645.0</ele><time>2026-05-02T13:05:43.122Z</time></trkpt><trkpt lat="46.1446887" lon="13.4600123"><ele>645.0</ele><time>2026-05-02T13:05:45.122Z</time></trkpt><trkpt lat="46.1446189" lon="13.4599335"><ele>645.7142857142858</ele><time>2026-05-02T13:05:47.122Z</time></trkpt><trkpt lat="46.1445548" lon="13.4597961"><ele>646.4285714285713</ele><time>2026-05-02T13:05:49.122Z</time></trkpt><trkpt lat="46.1445335" lon="13.459705"><ele>647.1428571428571</ele><time>2026-05-02T13:05:50.123Z</time></trkpt><trkpt lat="46.14452" lon="13.4596154"><ele>647.8571428571429</ele><time>2026-05-02T13:05:51.123Z</time></trkpt><trkpt lat="46.1445035" lon="13.4595198"><ele>648.5714285714287</ele><time>2026-05-02T13:05:52.122Z</time></trkpt><trkpt lat="46.144476" lon="13.459429"><ele>649.2857142857142</ele><time>2026-05-02T13:05:53.122Z</time></trkpt><trkpt lat="46.1444444" lon="13.4593491"><ele>650.0</ele><time>2026-05-02T13:05:54.123Z</time></trkpt><trkpt lat="46.1444145" lon="13.459268"><ele>650.0</ele><time>2026-05-02T13:05:55.123Z</time></trkpt><trkpt lat="46.1443653" lon="13.4591181"><ele>650.0</ele><time>2026-05-02T13:05:57.122Z</time></trkpt><trkpt lat="46.1443243" lon="13.458987"><ele>650.0</ele><time>2026-05-02T13:05:59.122Z</time></trkpt><trkpt lat="46.1442595" lon="13.458871"><ele>650.0</ele><time>2026-05-02T13:06:01.122Z</time></trkpt><trkpt lat="46.1442007" lon="13.4587348"><ele>650.0</ele><time>2026-05-02T13:06:03.123Z</time></trkpt><trkpt lat="46.1441335" lon="13.4586065"><ele>648.0</ele><time>2026-05-02T13:06:05.122Z</time></trkpt><trkpt lat="46.1440597" lon="13.4584775"><ele>646.0</ele><time>2026-05-02T13:06:07.122Z</time></trkpt><trkpt lat="46.1439734" lon="13.4583825"><ele>644.0</ele><time>2026-05-02T13:06:09.123Z</time></trkpt><trkpt lat="46.1438941" lon="13.458288"><ele>642.0</ele><time>2026-05-02T13:06:11.123Z</time></trkpt><trkpt lat="46.1437933" lon="13.4582383"><ele>640.0</ele><time>2026-05-02T13:06:13.123Z</time></trkpt><trkpt lat="46.1436717" lon="13.4581942"><ele>640.0</ele><time>2026-05-02T13:06:15.122Z</time></trkpt><trkpt lat="46.1435528" lon="13.4581462"><ele>640.0</ele><time>2026-05-02T13:06:17.122Z</time></trkpt><trkpt lat="46.1434884" lon="13.4581067"><ele>640.0</ele><time>2026-05-02T13:06:18.122Z</time></trkpt><trkpt lat="46.1433788" lon="13.4580395"><ele>640.0</ele><time>2026-05-02T13:06:20.123Z</time></trkpt><trkpt lat="46.1432583" lon="13.4579703"><ele>640.0</ele><time>2026-05-02T13:06:22.122Z</time></trkpt><trkpt lat="46.1431516" lon="13.4578966"><ele>634.6</ele><time>2026-05-02T13:06:24.122Z</time></trkpt><trkpt lat="46.1430457" lon="13.4578294"><ele>629.2</ele><time>2026-05-02T13:06:26.123Z</time></trkpt><trkpt lat="46.1429435" lon="13.457764"><ele>623.8</ele><time>2026-05-02T13:06:28.122Z</time></trkpt><trkpt lat="46.1428394" lon="13.4577076"><ele>618.4</ele><time>2026-05-02T13:06:30.122Z</time></trkpt><trkpt lat="46.1427411" lon="13.4576402"><ele>613.0</ele><time>2026-05-02T13:06:32.122Z</time></trkpt><trkpt lat="46.1426471" lon="13.4575644"><ele>613.0</ele><time>2026-05-02T13:06:34.122Z</time></trkpt><trkpt lat="46.1425461" lon="13.4574854"><ele>613.0</ele><time>2026-05-02T13:06:36.122Z</time></trkpt><trkpt lat="46.1424447" lon="13.4574372"><ele>613.0</ele><time>2026-05-02T13:06:38.122Z</time></trkpt><trkpt lat="46.1423533" lon="13.457472"><ele>613.0</ele><time>2026-05-02T13:06:40.123Z</time></trkpt><trkpt lat="46.1422699" lon="13.45755"><ele>613.0</ele><time>2026-05-02T13:06:42.122Z</time></trkpt><trkpt lat="46.1421702" lon="13.4576315"><ele>610.0</ele><time>2026-05-02T13:06:44.121Z</time></trkpt><trkpt lat="46.1420545" lon="13.4576981"><ele>607.0</ele><time>2026-05-02T13:06:46.121Z</time></trkpt><trkpt lat="46.1419385" lon="13.4577322"><ele>604.0</ele><time>2026-05-02T13:06:48.121Z</time></trkpt><trkpt lat="46.1418508" lon="13.4577601"><ele>601.0</ele><time>2026-05-02T13:06:50.121Z</time></trkpt><trkpt lat="46.1417395" lon="13.4577816"><ele>598.0</ele><time>2026-05-02T13:06:52.122Z</time></trkpt><trkpt lat="46.1416392" lon="13.4578308"><ele>598.0</ele><time>2026-05-02T13:06:54.122Z</time></trkpt><trkpt lat="46.1415592" lon="13.4578726"><ele>598.0</ele><time>2026-05-02T13:06:56.121Z</time></trkpt><trkpt lat="46.1414913" lon="13.4579415"><ele>598.0</ele><time>2026-05-02T13:06:58.121Z</time></trkpt><trkpt lat="46.1414223" lon="13.4580212"><ele>598.0</ele><time>2026-05-02T13:07:00.121Z</time></trkpt><trkpt lat="46.1413418" lon="13.4580831"><ele>598.0</ele><time>2026-05-02T13:07:02.122Z</time></trkpt><trkpt lat="46.1412477" lon="13.4581154"><ele>598.0</ele><time>2026-05-02T13:07:04.121Z</time></trkpt><trkpt lat="46.1411511" lon="13.458144"><ele>599.4</ele><time>2026-05-02T13:07:06.122Z</time></trkpt><trkpt lat="46.1410618" lon="13.4581501"><ele>600.8</ele><time>2026-05-02T13:07:08.121Z</time></trkpt><trkpt lat="46.1409649" lon="13.4581545"><ele>602.2</ele><time>2026-05-02T13:07:10.122Z</time></trkpt><trkpt lat="46.1408608" lon="13.4581846"><ele>603.6</ele><time>2026-05-02T13:07:12.121Z</time></trkpt><trkpt lat="46.1407637" lon="13.4582183"><ele>605.0</ele><time>2026-05-02T13:07:14.121Z</time></trkpt><trkpt lat="46.140654" lon="13.4582509"><ele>605.0</ele><time>2026-05-02T13:07:16.121Z</time></trkpt><trkpt lat="46.1405415" lon="13.4582431"><ele>605.0</ele><time>2026-05-02T13:07:18.121Z</time></trkpt><trkpt lat="46.1404306" lon="13.4581966"><ele>605.0</ele><time>2026-05-02T13:07:20.121Z</time></trkpt><trkpt lat="46.1403246" lon="13.4581555"><ele>605.0</ele><time>2026-05-02T13:07:22.122Z</time></trkpt><trkpt lat="46.140226" lon="13.4581272"><ele>605.0</ele><time>2026-05-02T13:07:24.121Z</time></trkpt><trkpt lat="46.14012" lon="13.458092"><ele>605.0</ele><time>2026-05-02T13:07:26.121Z</time></trkpt><trkpt lat="46.140029" lon="13.458078"><ele>605.0</ele><time>2026-05-02T13:07:28.121Z</time></trkpt><trkpt lat="46.1399263" lon="13.458067"><ele>605.0</ele><time>2026-05-02T13:07:30.122Z</time></trkpt><trkpt lat="46.1398019" lon="13.4580782"><ele>605.0</ele><time>2026-05-02T13:07:32.122Z</time></trkpt><trkpt lat="46.1396861" lon="13.4580909"><ele>605.0</ele><time>2026-05-02T13:07:34.121Z</time></trkpt><trkpt lat="46.1395874" lon="13.4581143"><ele>601.4</ele><time>2026-05-02T13:07:36.122Z</time></trkpt><trkpt lat="46.1395039" lon="13.4581442"><ele>597.8</ele><time>2026-05-02T13:07:38.121Z</time></trkpt><trkpt lat="46.1394052" lon="13.4581821"><ele>594.2</ele><time>2026-05-02T13:07:40.121Z</time></trkpt><trkpt lat="46.1393067" lon="13.4582245"><ele>590.6</ele><time>2026-05-02T13:07:42.121Z</time></trkpt><trkpt lat="46.1392112" lon="13.4582462"><ele>587.0</ele><time>2026-05-02T13:07:44.121Z</time></trkpt><trkpt lat="46.1391343" lon="13.4582952"><ele>583.0</ele><time>2026-05-02T13:07:46.121Z</time></trkpt><trkpt lat="46.1390428" lon="13.4583744"><ele>579.0</ele><time>2026-05-02T13:07:48.121Z</time></trkpt><trkpt lat="46.1389519" lon="13.4584506"><ele>575.0</ele><time>2026-05-02T13:07:50.122Z</time></trkpt><trkpt lat="46.138875" lon="13.4585074"><ele>571.0</ele><time>2026-05-02T13:07:52.121Z</time></trkpt><trkpt lat="46.1388012" lon="13.4585666"><ele>567.0</ele><time>2026-05-02T13:07:54.121Z</time></trkpt><trkpt lat="46.1387306" lon="13.4586232"><ele>567.0</ele><time>2026-05-02T13:07:56.122Z</time></trkpt><trkpt lat="46.1386377" lon="13.4586553"><ele>567.0</ele><time>2026-05-02T13:07:58.122Z</time></trkpt><trkpt lat="46.1385238" lon="13.4586255"><ele>567.0</ele><time>2026-05-02T13:08:00.121Z</time></trkpt><trkpt lat="46.1384319" lon="13.4586056"><ele>567.0</ele><time>2026-05-02T13:08:02.121Z</time></trkpt><trkpt lat="46.1383242" lon="13.4585853"><ele>567.0</ele><time>2026-05-02T13:08:04.121Z</time></trkpt><trkpt lat="46.1382139" lon="13.4585619"><ele>565.8000000000001</ele><time>2026-05-02T13:08:06.121Z</time></trkpt><trkpt lat="46.1381132" lon="13.4585395"><ele>564.6</ele><time>2026-05-02T13:08:08.121Z</time></trkpt><trkpt lat="46.1380116" lon="13.4585211"><ele>563.4000000000001</ele><time>2026-05-02T13:08:10.121Z</time></trkpt><trkpt lat="46.1379081" lon="13.4584931"><ele>562.2</ele><time>2026-05-02T13:08:12.121Z</time></trkpt><trkpt lat="46.1378112" lon="13.4584764"><ele>561.0</ele><time>2026-05-02T13:08:14.121Z</time></trkpt><trkpt lat="46.1377192" lon="13.4584801"><ele>561.0</ele><time>2026-05-02T13:08:16.121Z</time></trkpt><trkpt lat="46.1376115" lon="13.4585025"><ele>561.0</ele><time>2026-05-02T13:08:18.122Z</time></trkpt><trkpt lat="46.1375191" lon="13.4585156"><ele>561.0</ele><time>2026-05-02T13:08:20.121Z</time></trkpt><trkpt lat="46.1374282" lon="13.4585402"><ele>561.0</ele><time>2026-05-02T13:08:22.121Z</time></trkpt><trkpt lat="46.1373476" lon="13.4585616"><ele>561.0</ele><time>2026-05-02T13:08:24.121Z</time></trkpt><trkpt lat="46.1372665" lon="13.4585731"><ele>559.0</ele><time>2026-05-02T13:08:26.122Z</time></trkpt><trkpt lat="46.1371979" lon="13.458595"><ele>557.0</ele><time>2026-05-02T13:08:28.121Z</time></trkpt><trkpt lat="46.1371248" lon="13.4586207"><ele>555.0</ele><time>2026-05-02T13:08:30.121Z</time></trkpt><trkpt lat="46.1370307" lon="13.4586556"><ele>553.0</ele><time>2026-05-02T13:08:33.121Z</time></trkpt><trkpt lat="46.1369606" lon="13.4586905"><ele>551.0</ele><time>2026-05-02T13:08:35.121Z</time></trkpt><trkpt lat="46.1368724" lon="13.4587076"><ele>549.0</ele><time>2026-05-02T13:08:37.122Z</time></trkpt><trkpt lat="46.1367914" lon="13.4587472"><ele>549.0</ele><time>2026-05-02T13:08:39.122Z</time></trkpt><trkpt lat="46.1367155" lon="13.4587768"><ele>549.0</ele><time>2026-05-02T13:08:41.121Z</time></trkpt><trkpt lat="46.1366461" lon="13.458817"><ele>549.0</ele><time>2026-05-02T13:08:43.121Z</time></trkpt><trkpt lat="46.136569" lon="13.4588563"><ele>549.0</ele><time>2026-05-02T13:08:45.121Z</time></trkpt><trkpt lat="46.1364712" lon="13.4588961"><ele>549.0</ele><time>2026-05-02T13:08:47.121Z</time></trkpt><trkpt lat="46.1363702" lon="13.4589467"><ele>549.0</ele><time>2026-05-02T13:08:49.121Z</time></trkpt><trkpt lat="46.1362513" lon="13.4589946"><ele>551.4</ele><time>2026-05-02T13:08:51.121Z</time></trkpt><trkpt lat="46.1361839" lon="13.4590091"><ele>553.8</ele><time>2026-05-02T13:08:52.121Z</time></trkpt><trkpt lat="46.1361207" lon="13.459"><ele>556.2</ele><time>2026-05-02T13:08:53.121Z</time></trkpt><trkpt lat="46.1360159" lon="13.4589688"><ele>558.6</ele><time>2026-05-02T13:08:55.121Z</time></trkpt><trkpt lat="46.1359236" lon="13.4589481"><ele>561.0</ele><time>2026-05-02T13:08:57.121Z</time></trkpt><trkpt lat="46.1358044" lon="13.4588189"><ele>560.8333333333334</ele><time>2026-05-02T13:14:45.119Z</time></trkpt><trkpt lat="46.1358006" lon="13.458669"><ele>560.6666666666666</ele><time>2026-05-02T13:14:47.119Z</time></trkpt><trkpt lat="46.1358137" lon="13.4585544"><ele>560.5</ele><time>2026-05-02T13:14:48.119Z</time></trkpt><trkpt lat="46.1358266" lon="13.4584539"><ele>560.3333333333333</ele><time>2026-05-02T13:14:49.119Z</time></trkpt><trkpt lat="46.1358471" lon="13.4583633"><ele>560.1666666666666</ele><time>2026-05-02T13:14:50.119Z</time></trkpt><trkpt lat="46.1358875" lon="13.4582171"><ele>560.0</ele><time>2026-05-02T13:14:52.119Z</time></trkpt><trkpt lat="46.1359115" lon="13.4580648"><ele>560.0</ele><time>2026-05-02T13:14:54.12Z</time></trkpt><trkpt lat="46.1359143" lon="13.4579682"><ele>560.0</ele><time>2026-05-02T13:14:55.119Z</time></trkpt><trkpt lat="46.1359168" lon="13.457877"><ele>560.0</ele><time>2026-05-02T13:14:56.119Z</time></trkpt><trkpt lat="46.1359169" lon="13.4577133"><ele>560.0</ele><time>2026-05-02T13:14:58.119Z</time></trkpt><trkpt lat="46.1359257" lon="13.4575468"><ele>560.0</ele><time>2026-05-02T13:15:00.119Z</time></trkpt><trkpt lat="46.1359271" lon="13.4573713"><ele>560.1666666666666</ele><time>2026-05-02T13:15:02.12Z</time></trkpt><trkpt lat="46.1359368" lon="13.4572739"><ele>560.3333333333333</ele><time>2026-05-02T13:15:03.119Z</time></trkpt><trkpt lat="46.1359464" lon="13.4571765"><ele>560.5</ele><time>2026-05-02T13:15:04.119Z</time></trkpt><trkpt lat="46.1359505" lon="13.4570778"><ele>560.6666666666666</ele><time>2026-05-02T13:15:05.119Z</time></trkpt><trkpt lat="46.1359589" lon="13.4569354"><ele>560.8333333333334</ele><time>2026-05-02T13:15:07.12Z</time></trkpt><trkpt lat="46.1359592" lon="13.4568003"><ele>561.0</ele><time>2026-05-02T13:15:09.119Z</time></trkpt><trkpt lat="46.1359605" lon="13.4566415"><ele>560.2857142857142</ele><time>2026-05-02T13:15:11.12Z</time></trkpt><trkpt lat="46.1359649" lon="13.4565389"><ele>559.5714285714286</ele><time>2026-05-02T13:15:12.119Z</time></trkpt><trkpt lat="46.1359852" lon="13.4564444"><ele>558.8571428571429</ele><time>2026-05-02T13:15:13.119Z</time></trkpt><trkpt lat="46.1360049" lon="13.4563362"><ele>558.1428571428571</ele><time>2026-05-02T13:15:14.119Z</time></trkpt><trkpt lat="46.1360226" lon="13.4562374"><ele>557.4285714285714</ele><time>2026-05-02T13:15:15.119Z</time></trkpt><trkpt lat="46.136044" lon="13.456144"><ele>556.7142857142857</ele><time>2026-05-02T13:15:16.119Z</time></trkpt><trkpt lat="46.13606" lon="13.4560552"><ele>556.0</ele><time>2026-05-02T13:15:17.119Z</time></trkpt><trkpt lat="46.1360881" lon="13.4559049"><ele>555.0</ele><time>2026-05-02T13:15:19.119Z</time></trkpt><trkpt lat="46.1360959" lon="13.455761"><ele>554.0</ele><time>2026-05-02T13:15:21.12Z</time></trkpt><trkpt lat="46.1360842" lon="13.4556139"><ele>553.0</ele><time>2026-05-02T13:15:23.12Z</time></trkpt><trkpt lat="46.1360283" lon="13.4554725"><ele>552.0</ele><time>2026-05-02T13:15:25.12Z</time></trkpt><trkpt lat="46.1359802" lon="13.4554102"><ele>551.0</ele><time>2026-05-02T13:15:26.119Z</time></trkpt><trkpt lat="46.1359304" lon="13.4553424"><ele>550.0</ele><time>2026-05-02T13:15:27.117Z</time></trkpt><trkpt lat="46.1358759" lon="13.4552786"><ele>548.4</ele><time>2026-05-02T13:15:28.119Z</time></trkpt><trkpt lat="46.1358158" lon="13.4551802"><ele>546.8</ele><time>2026-05-02T13:15:29.119Z</time></trkpt><trkpt lat="46.1357584" lon="13.4550897"><ele>545.2</ele><time>2026-05-02T13:15:31.119Z</time></trkpt><trkpt lat="46.1356857" lon="13.4549693"><ele>543.6</ele><time>2026-05-02T13:15:33.119Z</time></trkpt><trkpt lat="46.1356326" lon="13.4548572"><ele>542.0</ele><time>2026-05-02T13:15:35.12Z</time></trkpt><trkpt lat="46.1355761" lon="13.4547452"><ele>538.2</ele><time>2026-05-02T13:15:37.119Z</time></trkpt><trkpt lat="46.1355199" lon="13.4545964"><ele>534.4000000000001</ele><time>2026-05-02T13:15:39.12Z</time></trkpt><trkpt lat="46.1354727" lon="13.4544705"><ele>530.5999999999999</ele><time>2026-05-02T13:15:41.119Z</time></trkpt><trkpt lat="46.1354115" lon="13.4543628"><ele>526.8</ele><time>2026-05-02T13:15:43.119Z</time></trkpt><trkpt lat="46.1353249" lon="13.4542954"><ele>523.0</ele><time>2026-05-02T13:15:45.12Z</time></trkpt><trkpt lat="46.1352211" lon="13.4542532"><ele>523.0</ele><time>2026-05-02T13:15:47.119Z</time></trkpt><trkpt lat="46.1351021" lon="13.4542363"><ele>523.0</ele><time>2026-05-02T13:15:49.119Z</time></trkpt><trkpt lat="46.1349923" lon="13.4542286"><ele>523.0</ele><time>2026-05-02T13:15:51.12Z</time></trkpt><trkpt lat="46.1349049" lon="13.4542077"><ele>523.0</ele><time>2026-05-02T13:15:53.119Z</time></trkpt><trkpt lat="46.1348267" lon="13.4540907"><ele>523.0</ele><time>2026-05-02T13:16:05.119Z</time></trkpt><trkpt lat="46.1348604" lon="13.4539292"><ele>523.0</ele><time>2026-05-02T13:16:07.119Z</time></trkpt><trkpt lat="46.1348934" lon="13.4538361"><ele>523.0</ele><time>2026-05-02T13:16:08.12Z</time></trkpt><trkpt lat="46.134936" lon="13.4537655"><ele>523.0</ele><time>2026-05-02T13:16:09.119Z</time></trkpt><trkpt lat="46.1350129" lon="13.4536158"><ele>523.0</ele><time>2026-05-02T13:16:11.12Z</time></trkpt><trkpt lat="46.135049" lon="13.4535315"><ele>523.0</ele><time>2026-05-02T13:16:12.119Z</time></trkpt><trkpt lat="46.1350851" lon="13.4534514"><ele>523.0</ele><time>2026-05-02T13:16:13.12Z</time></trkpt><trkpt lat="46.1351184" lon="13.4533697"><ele>521.0</ele><time>2026-05-02T13:16:14.12Z</time></trkpt><trkpt lat="46.1351532" lon="13.453281"><ele>519.0</ele><time>2026-05-02T13:16:15.12Z</time></trkpt><trkpt lat="46.1351948" lon="13.4532082"><ele>517.0</ele><time>2026-05-02T13:16:16.12Z</time></trkpt><trkpt lat="46.1352539" lon="13.453087"><ele>515.0</ele><time>2026-05-02T13:16:18.119Z</time></trkpt><trkpt lat="46.1352816" lon="13.4529317"><ele>513.0</ele><time>2026-05-02T13:16:20.12Z</time></trkpt><trkpt lat="46.1352896" lon="13.4528348"><ele>511.0</ele><time>2026-05-02T13:16:21.119Z</time></trkpt><trkpt lat="46.135294" lon="13.4527388"><ele>510.0</ele><time>2026-05-02T13:16:22.12Z</time></trkpt><trkpt lat="46.1352875" lon="13.4525688"><ele>509.0</ele><time>2026-05-02T13:16:24.119Z</time></trkpt><trkpt lat="46.1352428" lon="13.4523831"><ele>508.0</ele><time>2026-05-02T13:16:26.119Z</time></trkpt><trkpt lat="46.1351839" lon="13.4522565"><ele>507.0</ele><time>2026-05-02T13:16:28.119Z</time></trkpt><trkpt lat="46.1350999" lon="13.4522116"><ele>506.0</ele><time>2026-05-02T13:16:30.119Z</time></trkpt><trkpt lat="46.1350189" lon="13.4522353"><ele>505.99999999999994</ele><time>2026-05-02T13:16:32.12Z</time></trkpt><trkpt lat="46.1349508" lon="13.4522356"><ele>506.0</ele><time>2026-05-02T13:16:35.119Z</time></trkpt><trkpt lat="46.1350046" lon="13.4521697"><ele>506.0</ele><time>2026-05-02T13:16:38.12Z</time></trkpt><trkpt lat="46.1350866" lon="13.4520742"><ele>506.0</ele><time>2026-05-02T13:16:40.119Z</time></trkpt><trkpt lat="46.1351937" lon="13.4520337"><ele>505.99999999999994</ele><time>2026-05-02T13:16:42.119Z</time></trkpt><trkpt lat="46.1352665" lon="13.451994"><ele>506.0</ele><time>2026-05-02T13:16:44.12Z</time></trkpt><trkpt lat="46.1353543" lon="13.4520252"><ele>505.99999999999994</ele><time>2026-05-02T13:16:46.119Z</time></trkpt><trkpt lat="46.1354078" lon="13.4520955"><ele>506.0</ele><time>2026-05-02T13:16:47.119Z</time></trkpt><trkpt lat="46.1354504" lon="13.4521768"><ele>506.0</ele><time>2026-05-02T13:16:48.119Z</time></trkpt><trkpt lat="46.1355086" lon="13.4523508"><ele>506.0</ele><time>2026-05-02T13:16:50.119Z</time></trkpt><trkpt lat="46.1355351" lon="13.4524781"><ele>505.99999999999994</ele><time>2026-05-02T13:16:51.119Z</time></trkpt><trkpt lat="46.1355582" lon="13.4525871"><ele>506.0</ele><time>2026-05-02T13:16:52.119Z</time></trkpt><trkpt lat="46.1355885" lon="13.4526757"><ele>506.0</ele><time>2026-05-02T13:16:53.119Z</time></trkpt><trkpt lat="46.1356177" lon="13.452772"><ele>506.0</ele><time>2026-05-02T13:16:54.119Z</time></trkpt><trkpt lat="46.1356288" lon="13.4528667"><ele>506.0</ele><time>2026-05-02T13:16:55.12Z</time></trkpt><trkpt lat="46.1356328" lon="13.4530369"><ele>506.0</ele><time>2026-05-02T13:16:57.119Z</time></trkpt><trkpt lat="46.1355996" lon="13.4531945"><ele>506.0</ele><time>2026-05-02T13:16:59.119Z</time></trkpt><trkpt lat="46.1355725" lon="13.4533255"><ele>506.8333333333333</ele><time>2026-05-02T13:17:01.119Z</time></trkpt><trkpt lat="46.1356043" lon="13.4534234"><ele>507.66666666666663</ele><time>2026-05-02T13:17:03.119Z</time></trkpt><trkpt lat="46.1356907" lon="13.453457"><ele>508.5</ele><time>2026-05-02T13:17:05.12Z</time></trkpt><trkpt lat="46.1357579" lon="13.4534865"><ele>509.33333333333337</ele><time>2026-05-02T13:17:06.119Z</time></trkpt><trkpt lat="46.1358217" lon="13.4535034"><ele>510.1666666666667</ele><time>2026-05-02T13:17:07.12Z</time></trkpt><trkpt lat="46.1359408" lon="13.4535438"><ele>511.0</ele><time>2026-05-02T13:17:09.119Z</time></trkpt><trkpt lat="46.1360028" lon="13.4535732"><ele>509.8</ele><time>2026-05-02T13:17:10.12Z</time></trkpt><trkpt lat="46.1360682" lon="13.4536073"><ele>508.6</ele><time>2026-05-02T13:17:11.12Z</time></trkpt><trkpt lat="46.1361449" lon="13.4536759"><ele>507.4</ele><time>2026-05-02T13:17:12.119Z</time></trkpt><trkpt lat="46.1362179" lon="13.4537222"><ele>506.2</ele><time>2026-05-02T13:17:13.119Z</time></trkpt><trkpt lat="46.1363248" lon="13.453815"><ele>505.0</ele><time>2026-05-02T13:17:15.12Z</time></trkpt><trkpt lat="46.1364063" lon="13.4539231"><ele>505.0</ele><time>2026-05-02T13:17:17.12Z</time></trkpt><trkpt lat="46.1364959" lon="13.4539601"><ele>505.0</ele><time>2026-05-02T13:17:19.119Z</time></trkpt><trkpt lat="46.1365895" lon="13.4539062"><ele>505.0</ele><time>2026-05-02T13:17:21.119Z</time></trkpt><trkpt lat="46.1366825" lon="13.4538359"><ele>505.0</ele><time>2026-05-02T13:17:23.12Z</time></trkpt><trkpt lat="46.1367646" lon="13.4538696"><ele>505.0</ele><time>2026-05-02T13:17:25.12Z</time></trkpt><trkpt lat="46.1368369" lon="13.4540015"><ele>502.4285714285714</ele><time>2026-05-02T13:17:27.119Z</time></trkpt><trkpt lat="46.1368895" lon="13.4540752"><ele>499.8571428571428</ele><time>2026-05-02T13:17:28.119Z</time></trkpt><trkpt lat="46.1369343" lon="13.4541483"><ele>497.2857142857143</ele><time>2026-05-02T13:17:29.119Z</time></trkpt><trkpt lat="46.1369845" lon="13.4542107"><ele>494.71428571428567</ele><time>2026-05-02T13:17:30.119Z</time></trkpt><trkpt lat="46.1370313" lon="13.4542747"><ele>492.1428571428571</ele><time>2026-05-02T13:17:31.119Z</time></trkpt><trkpt lat="46.1370817" lon="13.4543443"><ele>489.57142857142856</ele><time>2026-05-02T13:17:32.119Z</time></trkpt><trkpt lat="46.1371311" lon="13.4544161"><ele>487.0</ele><time>2026-05-02T13:17:33.119Z</time></trkpt><trkpt lat="46.1371818" lon="13.4544721"><ele>487.0</ele><time>2026-05-02T13:17:34.119Z</time></trkpt><trkpt lat="46.1372325" lon="13.4545303"><ele>487.0</ele><time>2026-05-02T13:17:35.119Z</time></trkpt><trkpt lat="46.1372797" lon="13.4545943"><ele>487.0</ele><time>2026-05-02T13:17:36.119Z</time></trkpt><trkpt lat="46.1373253" lon="13.4546579"><ele>487.0</ele><time>2026-05-02T13:17:37.119Z</time></trkpt><trkpt lat="46.1373661" lon="13.4547315"><ele>487.0</ele><time>2026-05-02T13:17:38.12Z</time></trkpt><trkpt lat="46.1373956" lon="13.4548127"><ele>487.0</ele><time>2026-05-02T13:17:39.119Z</time></trkpt><trkpt lat="46.1374345" lon="13.4549791"><ele>487.0</ele><time>2026-05-02T13:17:41.119Z</time></trkpt><trkpt lat="46.1374422" lon="13.4550781"><ele>484.20000000000005</ele><time>2026-05-02T13:17:42.12Z</time></trkpt><trkpt lat="46.1374433" lon="13.4551759"><ele>481.40000000000003</ele><time>2026-05-02T13:17:43.12Z</time></trkpt><trkpt lat="46.1374254" lon="13.45534"><ele>478.59999999999997</ele><time>2026-05-02T13:17:45.119Z</time></trkpt><trkpt lat="46.1374108" lon="13.4555101"><ele>475.79999999999995</ele><time>2026-05-02T13:17:47.119Z</time></trkpt><trkpt lat="46.1374436" lon="13.455662"><ele>473.0</ele><time>2026-05-02T13:17:49.119Z</time></trkpt><trkpt lat="46.1375127" lon="13.4556995"><ele>472.99999999999994</ele><time>2026-05-02T13:17:51.119Z</time></trkpt><trkpt lat="46.1376018" lon="13.4556443"><ele>473.0</ele><time>2026-05-02T13:17:53.119Z</time></trkpt><trkpt lat="46.1376803" lon="13.4555117"><ele>473.0</ele><time>2026-05-02T13:17:55.119Z</time></trkpt><trkpt lat="46.1377231" lon="13.4554277"><ele>473.0</ele><time>2026-05-02T13:17:56.12Z</time></trkpt><trkpt lat="46.1377652" lon="13.4553465"><ele>472.99999999999994</ele><time>2026-05-02T13:17:57.119Z</time></trkpt><trkpt lat="46.1378102" lon="13.4552515"><ele>473.0</ele><time>2026-05-02T13:17:58.119Z</time></trkpt><trkpt lat="46.1378513" lon="13.4551603"><ele>471.8571428571429</ele><time>2026-05-02T13:17:59.119Z</time></trkpt><trkpt lat="46.1378916" lon="13.4550808"><ele>470.71428571428567</ele><time>2026-05-02T13:18:00.119Z</time></trkpt><trkpt lat="46.1379385" lon="13.4549952"><ele>469.57142857142856</ele><time>2026-05-02T13:18:01.119Z</time></trkpt><trkpt lat="46.1379783" lon="13.4549133"><ele>468.42857142857144</ele><time>2026-05-02T13:18:02.12Z</time></trkpt><trkpt lat="46.138022" lon="13.4548432"><ele>467.28571428571433</ele><time>2026-05-02T13:18:03.12Z</time></trkpt><trkpt lat="46.1380774" lon="13.4547698"><ele>466.1428571428571</ele><time>2026-05-02T13:18:04.119Z</time></trkpt><trkpt lat="46.1381454" lon="13.4547118"><ele>465.0</ele><time>2026-05-02T13:18:05.119Z</time></trkpt><trkpt lat="46.1382166" lon="13.4546574"><ele>460.8333333333333</ele><time>2026-05-02T13:18:06.12Z</time></trkpt><trkpt lat="46.1382719" lon="13.4546104"><ele>456.66666666666663</ele><time>2026-05-02T13:18:07.119Z</time></trkpt><trkpt lat="46.1383303" lon="13.4545756"><ele>452.5</ele><time>2026-05-02T13:18:08.119Z</time></trkpt><trkpt lat="46.1384409" lon="13.4545293"><ele>448.3333333333333</ele><time>2026-05-02T13:18:10.12Z</time></trkpt><trkpt lat="46.1385075" lon="13.4545117"><ele>444.16666666666663</ele><time>2026-05-02T13:18:11.119Z</time></trkpt><trkpt lat="46.1385806" lon="13.4544923"><ele>440.0</ele><time>2026-05-02T13:18:12.119Z</time></trkpt><trkpt lat="46.1386567" lon="13.4544645"><ele>439.99999999999994</ele><time>2026-05-02T13:18:13.12Z</time></trkpt><trkpt lat="46.1387266" lon="13.4544275"><ele>440.0</ele><time>2026-05-02T13:18:14.119Z</time></trkpt><trkpt lat="46.1387918" lon="13.4543884"><ele>440.0</ele><time>2026-05-02T13:18:15.119Z</time></trkpt><trkpt lat="46.1388575" lon="13.4543451"><ele>440.0</ele><time>2026-05-02T13:18:16.119Z</time></trkpt><trkpt lat="46.1389216" lon="13.4542932"><ele>440.0</ele><time>2026-05-02T13:18:17.119Z</time></trkpt><trkpt lat="46.1389758" lon="13.454241"><ele>439.99999999999994</ele><time>2026-05-02T13:18:18.119Z</time></trkpt><trkpt lat="46.1390255" lon="13.4541847"><ele>440.0</ele><time>2026-05-02T13:18:19.12Z</time></trkpt><trkpt lat="46.1391192" lon="13.4540559"><ele>440.99999999999994</ele><time>2026-05-02T13:18:21.12Z</time></trkpt><trkpt lat="46.1391756" lon="13.454001"><ele>442.0</ele><time>2026-05-02T13:18:22.119Z</time></trkpt><trkpt lat="46.1392321" lon="13.4539493"><ele>443.0</ele><time>2026-05-02T13:18:23.119Z</time></trkpt><trkpt lat="46.1392915" lon="13.4538964"><ele>444.0</ele><time>2026-05-02T13:18:24.119Z</time></trkpt><trkpt lat="46.1393529" lon="13.4538396"><ele>445.0</ele><time>2026-05-02T13:18:25.119Z</time></trkpt><trkpt lat="46.1394193" lon="13.4537876"><ele>445.99999999999994</ele><time>2026-05-02T13:18:26.119Z</time></trkpt><trkpt lat="46.1394872" lon="13.4537528"><ele>447.0</ele><time>2026-05-02T13:18:27.12Z</time></trkpt><trkpt lat="46.139551" lon="13.4537316"><ele>444.57142857142856</ele><time>2026-05-02T13:18:28.119Z</time></trkpt><trkpt lat="46.1396158" lon="13.4536996"><ele>442.1428571428571</ele><time>2026-05-02T13:18:29.119Z</time></trkpt><trkpt lat="46.1396855" lon="13.4536722"><ele>439.71428571428567</ele><time>2026-05-02T13:18:30.119Z</time></trkpt><trkpt lat="46.1397611" lon="13.4536533"><ele>437.2857142857143</ele><time>2026-05-02T13:18:31.118Z</time></trkpt><trkpt lat="46.1398471" lon="13.4536448"><ele>434.8571428571429</ele><time>2026-05-02T13:18:32.118Z</time></trkpt><trkpt lat="46.1399253" lon="13.4536405"><ele>432.4285714285714</ele><time>2026-05-02T13:18:33.119Z</time></trkpt><trkpt lat="46.1399903" lon="13.4536412"><ele>430.0</ele><time>2026-05-02T13:18:34.118Z</time></trkpt><trkpt lat="46.1400598" lon="13.4536381"><ele>430.00000000000006</ele><time>2026-05-02T13:18:35.118Z</time></trkpt><trkpt lat="46.1401307" lon="13.4536238"><ele>430.0</ele><time>2026-05-02T13:18:36.118Z</time></trkpt><trkpt lat="46.1402007" lon="13.4536267"><ele>430.0</ele><time>2026-05-02T13:18:37.118Z</time></trkpt><trkpt lat="46.1402668" lon="13.4536185"><ele>430.0</ele><time>2026-05-02T13:18:38.119Z</time></trkpt><trkpt lat="46.1403734" lon="13.4536023"><ele>430.00000000000006</ele><time>2026-05-02T13:18:40.118Z</time></trkpt><trkpt lat="46.1404648" lon="13.4535553"><ele>430.0</ele><time>2026-05-02T13:18:42.118Z</time></trkpt><trkpt lat="46.1405669" lon="13.4534556"><ele>430.0</ele><time>2026-05-02T13:18:44.119Z</time></trkpt><trkpt lat="46.140638" lon="13.453397"><ele>430.0</ele><time>2026-05-02T13:18:45.118Z</time></trkpt><trkpt lat="46.1407015" lon="13.4533382"><ele>430.0</ele><time>2026-05-02T13:18:46.119Z</time></trkpt><trkpt lat="46.1407682" lon="13.453278"><ele>430.0</ele><time>2026-05-02T13:18:47.118Z</time></trkpt><trkpt lat="46.1408276" lon="13.4532197"><ele>430.0</ele><time>2026-05-02T13:18:48.118Z</time></trkpt><trkpt lat="46.1408839" lon="13.4531605"><ele>430.0</ele><time>2026-05-02T13:18:49.118Z</time></trkpt><trkpt lat="46.1409352" lon="13.4530918"><ele>430.0</ele><time>2026-05-02T13:18:50.118Z</time></trkpt><trkpt lat="46.1409783" lon="13.4530028"><ele>429.6666666666667</ele><time>2026-05-02T13:18:51.118Z</time></trkpt><trkpt lat="46.1410216" lon="13.4528934"><ele>429.33333333333337</ele><time>2026-05-02T13:18:52.119Z</time></trkpt><trkpt lat="46.1410697" lon="13.4527874"><ele>429.0</ele><time>2026-05-02T13:18:53.118Z</time></trkpt><trkpt lat="46.1411105" lon="13.4526955"><ele>428.66666666666663</ele><time>2026-05-02T13:18:54.118Z</time></trkpt><trkpt lat="46.1411439" lon="13.4525987"><ele>428.3333333333333</ele><time>2026-05-02T13:18:55.119Z</time></trkpt><trkpt lat="46.141178" lon="13.4525214"><ele>428.0</ele><time>2026-05-02T13:18:56.118Z</time></trkpt><trkpt lat="46.1412416" lon="13.4523747"><ele>428.0</ele><time>2026-05-02T13:18:58.119Z</time></trkpt><trkpt lat="46.141299" lon="13.4522446"><ele>427.99999999999994</ele><time>2026-05-02T13:19:00.118Z</time></trkpt><trkpt lat="46.14136" lon="13.452115"><ele>427.99999999999994</ele><time>2026-05-02T13:19:02.118Z</time></trkpt><trkpt lat="46.1414466" lon="13.4519975"><ele>428.0</ele><time>2026-05-02T13:19:04.118Z</time></trkpt><trkpt lat="46.1415303" lon="13.4519032"><ele>428.0</ele><time>2026-05-02T13:19:06.118Z</time></trkpt><trkpt lat="46.1416118" lon="13.4518578"><ele>428.0</ele><time>2026-05-02T13:19:08.118Z</time></trkpt><trkpt lat="46.1417001" lon="13.4518415"><ele>427.99999999999994</ele><time>2026-05-02T13:19:10.118Z</time></trkpt><trkpt lat="46.1418054" lon="13.4518266"><ele>427.99999999999994</ele><time>2026-05-02T13:19:12.118Z</time></trkpt><trkpt lat="46.1419178" lon="13.4517414"><ele>428.0</ele><time>2026-05-02T13:19:14.118Z</time></trkpt><trkpt lat="46.1419663" lon="13.4516714"><ele>428.0</ele><time>2026-05-02T13:19:15.118Z</time></trkpt><trkpt lat="46.14205" lon="13.4515398"><ele>428.0</ele><time>2026-05-02T13:19:17.118Z</time></trkpt><trkpt lat="46.1421345" lon="13.4514616"><ele>427.99999999999994</ele><time>2026-05-02T13:19:19.119Z</time></trkpt><trkpt lat="46.1422677" lon="13.4514187"><ele>427.99999999999994</ele><time>2026-05-02T13:19:21.118Z</time></trkpt><trkpt lat="46.1423377" lon="13.4514099"><ele>428.0</ele><time>2026-05-02T13:19:22.118Z</time></trkpt><trkpt lat="46.1424409" lon="13.4512819"><ele>428.0</ele><time>2026-05-02T13:19:24.118Z</time></trkpt><trkpt lat="46.1424949" lon="13.4511892"><ele>426.66666666666663</ele><time>2026-05-02T13:19:25.118Z</time></trkpt><trkpt lat="46.1425389" lon="13.4510873"><ele>425.3333333333333</ele><time>2026-05-02T13:19:26.119Z</time></trkpt><trkpt lat="46.1425733" lon="13.4509775"><ele>424.0</ele><time>2026-05-02T13:19:27.118Z</time></trkpt><trkpt lat="46.1426059" lon="13.4508627"><ele>422.66666666666663</ele><time>2026-05-02T13:19:28.119Z</time></trkpt><trkpt lat="46.1426478" lon="13.4507563"><ele>421.3333333333333</ele><time>2026-05-02T13:19:29.119Z</time></trkpt><trkpt lat="46.1426901" lon="13.4506479"><ele>420.0</ele><time>2026-05-02T13:19:30.118Z</time></trkpt><trkpt lat="46.1427222" lon="13.4505407"><ele>417.57142857142856</ele><time>2026-05-02T13:19:31.118Z</time></trkpt><trkpt lat="46.1427646" lon="13.450449"><ele>415.1428571428571</ele><time>2026-05-02T13:19:32.119Z</time></trkpt><trkpt lat="46.1427956" lon="13.4503465"><ele>412.7142857142857</ele><time>2026-05-02T13:19:33.118Z</time></trkpt><trkpt lat="46.1428204" lon="13.4502367"><ele>410.2857142857143</ele><time>2026-05-02T13:19:34.118Z</time></trkpt><trkpt lat="46.1428402" lon="13.4501503"><ele>407.85714285714283</ele><time>2026-05-02T13:19:35.118Z</time></trkpt><trkpt lat="46.1428668" lon="13.4500623"><ele>405.42857142857144</ele><time>2026-05-02T13:19:36.118Z</time></trkpt><trkpt lat="46.1428922" lon="13.4499752"><ele>403.0</ele><time>2026-05-02T13:19:37.118Z</time></trkpt><trkpt lat="46.1429241" lon="13.4498903"><ele>403.0</ele><time>2026-05-02T13:19:38.118Z</time></trkpt><trkpt lat="46.1430347" lon="13.4497843"><ele>403.0</ele><time>2026-05-02T13:19:40.118Z</time></trkpt><trkpt lat="46.1430937" lon="13.4496813"><ele>403.0</ele><time>2026-05-02T13:19:42.118Z</time></trkpt><trkpt lat="46.1429864" lon="13.4496099"><ele>403.0</ele><time>2026-05-02T13:19:45.118Z</time></trkpt><trkpt lat="46.1428681" lon="13.4496488"><ele>403.00000000000006</ele><time>2026-05-02T13:19:47.119Z</time></trkpt><trkpt lat="46.1428142" lon="13.4496986"><ele>403.0</ele><time>2026-05-02T13:19:48.118Z</time></trkpt><trkpt lat="46.1427562" lon="13.4497825"><ele>403.0</ele><time>2026-05-02T13:19:49.118Z</time></trkpt><trkpt lat="46.1426951" lon="13.4498695"><ele>403.0</ele><time>2026-05-02T13:19:50.119Z</time></trkpt><trkpt lat="46.1426291" lon="13.4499679"><ele>403.00000000000006</ele><time>2026-05-02T13:19:51.118Z</time></trkpt><trkpt lat="46.1425699" lon="13.4500892"><ele>403.0</ele><time>2026-05-02T13:19:52.118Z</time></trkpt><trkpt lat="46.1425208" lon="13.4501997"><ele>403.00000000000006</ele><time>2026-05-02T13:19:53.119Z</time></trkpt><trkpt lat="46.1424848" lon="13.4502961"><ele>403.0</ele><time>2026-05-02T13:19:54.118Z</time></trkpt><trkpt lat="46.1424271" lon="13.450431"><ele>403.0</ele><time>2026-05-02T13:19:56.119Z</time></trkpt><trkpt lat="46.1423659" lon="13.4505052"><ele>403.0</ele><time>2026-05-02T13:19:58.118Z</time></trkpt><trkpt lat="46.1423125" lon="13.4504326"><ele>403.00000000000006</ele><time>2026-05-02T13:20:00.118Z</time></trkpt><trkpt lat="46.1423375" lon="13.4503425"><ele>403.0</ele><time>2026-05-02T13:20:01.118Z</time></trkpt><trkpt lat="46.1423654" lon="13.4502528"><ele>403.00000000000006</ele><time>2026-05-02T13:20:02.118Z</time></trkpt><trkpt lat="46.1423975" lon="13.450143"><ele>403.0</ele><time>2026-05-02T13:20:03.119Z</time></trkpt><trkpt lat="46.1424471" lon="13.4500129"><ele>403.0</ele><time>2026-05-02T13:20:04.119Z</time></trkpt><trkpt lat="46.1424796" lon="13.4498879"><ele>403.0</ele><time>2026-05-02T13:20:05.118Z</time></trkpt><trkpt lat="46.1425049" lon="13.4497672"><ele>403.00000000000006</ele><time>2026-05-02T13:20:06.119Z</time></trkpt><trkpt lat="46.1425347" lon="13.4496673"><ele>403.0</ele><time>2026-05-02T13:20:07.119Z</time></trkpt><trkpt lat="46.1425651" lon="13.4495574"><ele>400.7142857142857</ele><time>2026-05-02T13:20:08.118Z</time></trkpt><trkpt lat="46.1425751" lon="13.4494634"><ele>398.4285714285714</ele><time>2026-05-02T13:20:09.118Z</time></trkpt><trkpt lat="46.1425976" lon="13.449365"><ele>396.1428571428571</ele><time>2026-05-02T13:20:10.118Z</time></trkpt><trkpt lat="46.142621" lon="13.4492662"><ele>393.8571428571429</ele><time>2026-05-02T13:20:11.118Z</time></trkpt><trkpt lat="46.1426492" lon="13.4491676"><ele>391.57142857142856</ele><time>2026-05-02T13:20:12.118Z</time></trkpt><trkpt lat="46.1426815" lon="13.4490731"><ele>389.2857142857143</ele><time>2026-05-02T13:20:13.118Z</time></trkpt><trkpt lat="46.1427125" lon="13.4489828"><ele>387.0</ele><time>2026-05-02T13:20:14.118Z</time></trkpt><trkpt lat="46.1427452" lon="13.4489006"><ele>387.0</ele><time>2026-05-02T13:20:15.118Z</time></trkpt><trkpt lat="46.1427794" lon="13.4488226"><ele>387.0</ele><time>2026-05-02T13:20:16.118Z</time></trkpt><trkpt lat="46.1428248" lon="13.4487584"><ele>387.0</ele><time>2026-05-02T13:20:17.119Z</time></trkpt><trkpt lat="46.1428764" lon="13.4486977"><ele>387.0</ele><time>2026-05-02T13:20:18.119Z</time></trkpt><trkpt lat="46.142938" lon="13.4486478"><ele>387.0</ele><time>2026-05-02T13:20:19.118Z</time></trkpt><trkpt lat="46.1430022" lon="13.4485996"><ele>387.0</ele><time>2026-05-02T13:20:20.118Z</time></trkpt><trkpt lat="46.1431112" lon="13.4485177"><ele>387.8</ele><time>2026-05-02T13:20:22.118Z</time></trkpt><trkpt lat="46.1432108" lon="13.4484317"><ele>388.6</ele><time>2026-05-02T13:20:24.118Z</time></trkpt><trkpt lat="46.143277" lon="13.4482989"><ele>389.40000000000003</ele><time>2026-05-02T13:20:26.119Z</time></trkpt><trkpt lat="46.1432882" lon="13.4482091"><ele>390.20000000000005</ele><time>2026-05-02T13:20:27.119Z</time></trkpt><trkpt lat="46.1432902" lon="13.4481011"><ele>391.0</ele><time>2026-05-02T13:20:28.119Z</time></trkpt><trkpt lat="46.1432807" lon="13.4479182"><ele>387.4</ele><time>2026-05-02T13:20:30.118Z</time></trkpt><trkpt lat="46.1432813" lon="13.4478264"><ele>383.8</ele><time>2026-05-02T13:20:31.119Z</time></trkpt><trkpt lat="46.1433025" lon="13.44766"><ele>380.2</ele><time>2026-05-02T13:20:33.118Z</time></trkpt><trkpt lat="46.1433708" lon="13.4475341"><ele>376.59999999999997</ele><time>2026-05-02T13:20:35.118Z</time></trkpt><trkpt lat="46.1434791" lon="13.4474833"><ele>373.0</ele><time>2026-05-02T13:20:37.118Z</time></trkpt><trkpt lat="46.1435915" lon="13.4474473"><ele>373.0</ele><time>2026-05-02T13:20:39.119Z</time></trkpt><trkpt lat="46.1437032" lon="13.4474199"><ele>373.0</ele><time>2026-05-02T13:20:41.118Z</time></trkpt><trkpt lat="46.1438326" lon="13.4473502"><ele>373.0</ele><time>2026-05-02T13:20:43.119Z</time></trkpt><trkpt lat="46.1439029" lon="13.4472914"><ele>373.0</ele><time>2026-05-02T13:20:44.118Z</time></trkpt><trkpt lat="46.143974" lon="13.4472211"><ele>373.0</ele><time>2026-05-02T13:20:45.118Z</time></trkpt><trkpt lat="46.1440411" lon="13.4471553"><ele>371.2857142857143</ele><time>2026-05-02T13:20:46.118Z</time></trkpt><trkpt lat="46.1440988" lon="13.4470856"><ele>369.57142857142856</ele><time>2026-05-02T13:20:47.118Z</time></trkpt><trkpt lat="46.1441417" lon="13.4470065"><ele>367.8571428571429</ele><time>2026-05-02T13:20:48.118Z</time></trkpt><trkpt lat="46.1441973" lon="13.4469362"><ele>366.1428571428571</ele><time>2026-05-02T13:20:49.119Z</time></trkpt><trkpt lat="46.1442463" lon="13.4468629"><ele>364.4285714285714</ele><time>2026-05-02T13:20:50.118Z</time></trkpt><trkpt lat="46.1443" lon="13.4468055"><ele>362.7142857142857</ele><time>2026-05-02T13:20:51.118Z</time></trkpt><trkpt lat="46.1443826" lon="13.4467677"><ele>361.0</ele><time>2026-05-02T13:20:53.119Z</time></trkpt><trkpt lat="46.1444887" lon="13.4468028"><ele>361.0</ele><time>2026-05-02T13:20:56.119Z</time></trkpt><trkpt lat="46.1445405" lon="13.4468823"><ele>361.0</ele><time>2026-05-02T13:20:57.118Z</time></trkpt><trkpt lat="46.1445887" lon="13.4469474"><ele>361.0</ele><time>2026-05-02T13:20:58.118Z</time></trkpt><trkpt lat="46.1446386" lon="13.4470033"><ele>361.0</ele><time>2026-05-02T13:20:59.119Z</time></trkpt><trkpt lat="46.1447313" lon="13.4470814"><ele>361.0</ele><time>2026-05-02T13:21:01.118Z</time></trkpt><trkpt lat="46.1448533" lon="13.4470846"><ele>361.0</ele><time>2026-05-02T13:21:03.119Z</time></trkpt><trkpt lat="46.1449256" lon="13.4470598"><ele>359.8</ele><time>2026-05-02T13:21:04.118Z</time></trkpt><trkpt lat="46.1450171" lon="13.4470242"><ele>358.6</ele><time>2026-05-02T13:21:05.119Z</time></trkpt><trkpt lat="46.145126" lon="13.4470026"><ele>357.4</ele><time>2026-05-02T13:21:06.119Z</time></trkpt><trkpt lat="46.1452404" lon="13.4470033"><ele>356.2</ele><time>2026-05-02T13:21:07.118Z</time></trkpt><trkpt lat="46.1453592" lon="13.4469913"><ele>355.0</ele><time>2026-05-02T13:21:08.118Z</time></trkpt><trkpt lat="46.1454815" lon="13.4469843"><ele>355.0</ele><time>2026-05-02T13:21:09.118Z</time></trkpt><trkpt lat="46.1455912" lon="13.4469883"><ele>355.0</ele><time>2026-05-02T13:21:10.119Z</time></trkpt><trkpt lat="46.145684" lon="13.4469589"><ele>355.0</ele><time>2026-05-02T13:21:11.119Z</time></trkpt><trkpt lat="46.1457656" lon="13.4469186"><ele>355.0</ele><time>2026-05-02T13:21:12.118Z</time></trkpt><trkpt lat="46.1458503" lon="13.4468581"><ele>355.0</ele><time>2026-05-02T13:21:13.119Z</time></trkpt><trkpt lat="46.1459312" lon="13.4467716"><ele>351.25</ele><time>2026-05-02T13:21:14.119Z</time></trkpt><trkpt lat="46.1460079" lon="13.446662"><ele>347.5</ele><time>2026-05-02T13:21:15.118Z</time></trkpt><trkpt lat="46.1460752" lon="13.4465193"><ele>343.75</ele><time>2026-05-02T13:21:16.118Z</time></trkpt><trkpt lat="46.1461321" lon="13.4463581"><ele>340.0</ele><time>2026-05-02T13:21:17.118Z</time></trkpt><trkpt lat="46.1461896" lon="13.4462012"><ele>336.0</ele><time>2026-05-02T13:21:18.119Z</time></trkpt><trkpt lat="46.1462402" lon="13.4460484"><ele>332.0</ele><time>2026-05-02T13:21:19.119Z</time></trkpt><trkpt lat="46.1462844" lon="13.4458894"><ele>328.0</ele><time>2026-05-02T13:21:20.119Z</time></trkpt><trkpt lat="46.1463207" lon="13.4457257"><ele>324.0</ele><time>2026-05-02T13:21:21.119Z</time></trkpt><trkpt lat="46.1463494" lon="13.445571"><ele>320.8333333333333</ele><time>2026-05-02T13:21:22.119Z</time></trkpt><trkpt lat="46.1463741" lon="13.4454208"><ele>317.6666666666667</ele><time>2026-05-02T13:21:23.119Z</time></trkpt><trkpt lat="46.1463935" lon="13.4452925"><ele>314.5</ele><time>2026-05-02T13:21:24.119Z</time></trkpt><trkpt lat="46.1464232" lon="13.4451748"><ele>311.33333333333337</ele><time>2026-05-02T13:21:25.119Z</time></trkpt><trkpt lat="46.1464566" lon="13.4450673"><ele>308.1666666666667</ele><time>2026-05-02T13:21:26.119Z</time></trkpt><trkpt lat="46.1464964" lon="13.4449704"><ele>305.0</ele><time>2026-05-02T13:21:27.118Z</time></trkpt><trkpt lat="46.1465444" lon="13.4448988"><ele>305.0</ele><time>2026-05-02T13:21:28.119Z</time></trkpt><trkpt lat="46.1465773" lon="13.4448198"><ele>305.0</ele><time>2026-05-02T13:21:29.119Z</time></trkpt><trkpt lat="46.1465447" lon="13.4446541"><ele>305.0</ele><time>2026-05-02T13:21:31.118Z</time></trkpt><trkpt lat="46.1464405" lon="13.4446625"><ele>305.0</ele><time>2026-05-02T13:21:33.118Z</time></trkpt><trkpt lat="46.1463802" lon="13.4447135"><ele>305.0</ele><time>2026-05-02T13:21:34.118Z</time></trkpt><trkpt lat="46.1463161" lon="13.4448153"><ele>305.0</ele><time>2026-05-02T13:21:35.118Z</time></trkpt><trkpt lat="46.1462421" lon="13.4449443"><ele>305.0</ele><time>2026-05-02T13:21:36.119Z</time></trkpt><trkpt lat="46.1461597" lon="13.4450753"><ele>305.0</ele><time>2026-05-02T13:21:37.119Z</time></trkpt><trkpt lat="46.1460827" lon="13.4451936"><ele>305.0</ele><time>2026-05-02T13:21:38.118Z</time></trkpt><trkpt lat="46.1460171" lon="13.4452981"><ele>305.0</ele><time>2026-05-02T13:21:39.119Z</time></trkpt><trkpt lat="46.1459615" lon="13.4453844"><ele>305.0</ele><time>2026-05-02T13:21:40.118Z</time></trkpt><trkpt lat="46.1458852" lon="13.4454563"><ele>305.0</ele><time>2026-05-02T13:21:42.118Z</time></trkpt><trkpt lat="46.1458462" lon="13.4453048"><ele>305.0</ele><time>2026-05-02T13:21:44.119Z</time></trkpt><trkpt lat="46.1458688" lon="13.4451622"><ele>305.0</ele><time>2026-05-02T13:21:45.118Z</time></trkpt><trkpt lat="46.1459064" lon="13.4449945"><ele>305.0</ele><time>2026-05-02T13:21:46.119Z</time></trkpt><trkpt lat="46.1459509" lon="13.4448243"><ele>305.0</ele><time>2026-05-02T13:21:47.119Z</time></trkpt><trkpt lat="46.1459891" lon="13.4446558"><ele>305.0</ele><time>2026-05-02T13:21:48.119Z</time></trkpt><trkpt lat="46.1460252" lon="13.4444824"><ele>305.0</ele><time>2026-05-02T13:21:49.119Z</time></trkpt><trkpt lat="46.1460643" lon="13.4443087"><ele>305.0</ele><time>2026-05-02T13:21:50.119Z</time></trkpt><trkpt lat="46.1461035" lon="13.4441362"><ele>299.25</ele><time>2026-05-02T13:21:51.118Z</time></trkpt><trkpt lat="46.1461532" lon="13.4439687"><ele>293.5</ele><time>2026-05-02T13:21:52.119Z</time></trkpt><trkpt lat="46.1462122" lon="13.4438113"><ele>287.75</ele><time>2026-05-02T13:21:53.119Z</time></trkpt><trkpt lat="46.1462821" lon="13.4436671"><ele>282.0</ele><time>2026-05-02T13:21:54.119Z</time></trkpt><trkpt lat="46.1463458" lon="13.4435571"><ele>280.6666666666667</ele><time>2026-05-02T13:21:55.118Z</time></trkpt><trkpt lat="46.1464021" lon="13.4434825"><ele>279.3333333333333</ele><time>2026-05-02T13:21:56.118Z</time></trkpt><trkpt lat="46.1464668" lon="13.4434501"><ele>278.0</ele><time>2026-05-02T13:21:57.118Z</time></trkpt><trkpt lat="46.1465361" lon="13.4434572"><ele>276.66666666666663</ele><time>2026-05-02T13:21:58.118Z</time></trkpt><trkpt lat="46.1466077" lon="13.4435162"><ele>275.3333333333333</ele><time>2026-05-02T13:21:59.118Z</time></trkpt><trkpt lat="46.1466764" lon="13.4436132"><ele>274.0</ele><time>2026-05-02T13:22:00.118Z</time></trkpt><trkpt lat="46.1467498" lon="13.4437204"><ele>274.0</ele><time>2026-05-02T13:22:01.118Z</time></trkpt><trkpt lat="46.1468098" lon="13.4438174"><ele>274.0</ele><time>2026-05-02T13:22:02.118Z</time></trkpt><trkpt lat="46.1468622" lon="13.4438984"><ele>274.0</ele><time>2026-05-02T13:22:03.119Z</time></trkpt><trkpt lat="46.1469007" lon="13.4439753"><ele>274.0</ele><time>2026-05-02T13:22:04.118Z</time></trkpt><trkpt lat="46.1469815" lon="13.4440389"><ele>274.0</ele><time>2026-05-02T13:22:06.118Z</time></trkpt><trkpt lat="46.1469755" lon="13.4439114"><ele>274.0</ele><time>2026-05-02T13:22:09.118Z</time></trkpt><trkpt lat="46.1468773" lon="13.443757"><ele>274.0</ele><time>2026-05-02T13:22:11.118Z</time></trkpt><trkpt lat="46.1468144" lon="13.4436314"><ele>274.0</ele><time>2026-05-02T13:22:12.118Z</time></trkpt><trkpt lat="46.1467561" lon="13.4435009"><ele>274.0</ele><time>2026-05-02T13:22:13.119Z</time></trkpt><trkpt lat="46.1467088" lon="13.4433752"><ele>274.0</ele><time>2026-05-02T13:22:14.119Z</time></trkpt><trkpt lat="46.1466868" lon="13.4432485"><ele>274.0</ele><time>2026-05-02T13:22:15.118Z</time></trkpt><trkpt lat="46.1466976" lon="13.4431278"><ele>274.0</ele><time>2026-05-02T13:22:16.118Z</time></trkpt><trkpt lat="46.1467252" lon="13.4429952"><ele>274.0</ele><time>2026-05-02T13:22:17.119Z</time></trkpt><trkpt lat="46.1467241" lon="13.4428495"><ele>274.0</ele><time>2026-05-02T13:22:18.119Z</time></trkpt><trkpt lat="46.1467022" lon="13.4427103"><ele>274.0</ele><time>2026-05-02T13:22:19.119Z</time></trkpt><trkpt lat="46.1466536" lon="13.4425875"><ele>274.0</ele><time>2026-05-02T13:22:20.119Z</time></trkpt><trkpt lat="46.1465984" lon="13.4424748"><ele>272.3333333333333</ele><time>2026-05-02T13:22:21.119Z</time></trkpt><trkpt lat="46.14655" lon="13.4423572"><ele>270.66666666666663</ele><time>2026-05-02T13:22:22.119Z</time></trkpt><trkpt lat="46.1465128" lon="13.4422377"><ele>269.0</ele><time>2026-05-02T13:22:23.118Z</time></trkpt><trkpt lat="46.1464591" lon="13.4421492"><ele>267.3333333333333</ele><time>2026-05-02T13:22:24.119Z</time></trkpt><trkpt lat="46.1463867" lon="13.4421052"><ele>265.6666666666667</ele><time>2026-05-02T13:22:25.118Z</time></trkpt><trkpt lat="46.1463118" lon="13.4421185"><ele>264.0</ele><time>2026-05-02T13:22:26.119Z</time></trkpt><trkpt lat="46.1462434" lon="13.4421824"><ele>261.0</ele><time>2026-05-02T13:22:27.119Z</time></trkpt><trkpt lat="46.1462036" lon="13.4422953"><ele>258.0</ele><time>2026-05-02T13:22:28.119Z</time></trkpt><trkpt lat="46.1461678" lon="13.442459"><ele>255.0</ele><time>2026-05-02T13:22:29.118Z</time></trkpt><trkpt lat="46.146125" lon="13.4426276"><ele>252.0</ele><time>2026-05-02T13:22:30.117Z</time></trkpt><trkpt lat="46.1460709" lon="13.4427898"><ele>252.0</ele><time>2026-05-02T13:22:31.118Z</time></trkpt><trkpt lat="46.1460116" lon="13.4429253"><ele>252.0</ele><time>2026-05-02T13:22:32.118Z</time></trkpt><trkpt lat="46.1459302" lon="13.4430182"><ele>252.0</ele><time>2026-05-02T13:22:33.117Z</time></trkpt><trkpt lat="46.1458193" lon="13.4430849"><ele>252.0</ele><time>2026-05-02T13:22:34.117Z</time></trkpt><trkpt lat="46.1457053" lon="13.4431574"><ele>253.0</ele><time>2026-05-02T13:22:35.117Z</time></trkpt><trkpt lat="46.1456093" lon="13.443224"><ele>254.0</ele><time>2026-05-02T13:22:36.117Z</time></trkpt><trkpt lat="46.1455195" lon="13.4432648"><ele>255.0</ele><time>2026-05-02T13:22:37.118Z</time></trkpt><trkpt lat="46.1454338" lon="13.4432724"><ele>256.0</ele><time>2026-05-02T13:22:38.118Z</time></trkpt><trkpt lat="46.1453506" lon="13.4432244"><ele>257.0</ele><time>2026-05-02T13:22:39.118Z</time></trkpt><trkpt lat="46.1452859" lon="13.4431442"><ele>257.0</ele><time>2026-05-02T13:22:40.118Z</time></trkpt><trkpt lat="46.145229" lon="13.4430477"><ele>257.0</ele><time>2026-05-02T13:22:41.117Z</time></trkpt><trkpt lat="46.145167" lon="13.4429412"><ele>257.0</ele><time>2026-05-02T13:22:42.117Z</time></trkpt><trkpt lat="46.145071" lon="13.4428266"><ele>257.0</ele><time>2026-05-02T13:22:43.117Z</time></trkpt><trkpt lat="46.1449656" lon="13.4427428"><ele>257.0</ele><time>2026-05-02T13:22:44.117Z</time></trkpt><trkpt lat="46.1448445" lon="13.4426898"><ele>250.5</ele><time>2026-05-02T13:22:45.117Z</time></trkpt><trkpt lat="46.144707" lon="13.4426364"><ele>244.0</ele><time>2026-05-02T13:22:46.118Z</time></trkpt><trkpt lat="46.1445801" lon="13.4425643"><ele>237.5</ele><time>2026-05-02T13:22:47.118Z</time></trkpt><trkpt lat="46.1444572" lon="13.4424691"><ele>231.0</ele><time>2026-05-02T13:22:48.118Z</time></trkpt><trkpt lat="46.1443351" lon="13.4423662"><ele>231.0</ele><time>2026-05-02T13:22:49.117Z</time></trkpt><trkpt lat="46.1442179" lon="13.4422767"><ele>231.0</ele><time>2026-05-02T13:22:50.118Z</time></trkpt><trkpt lat="46.144101" lon="13.4422021"><ele>231.0</ele><time>2026-05-02T13:22:51.118Z</time></trkpt><trkpt lat="46.1439764" lon="13.4421548"><ele>231.0</ele><time>2026-05-02T13:22:52.117Z</time></trkpt><trkpt lat="46.143839" lon="13.4421347"><ele>230.75</ele><time>2026-05-02T13:22:53.117Z</time></trkpt><trkpt lat="46.1436954" lon="13.4421101"><ele>230.5</ele><time>2026-05-02T13:22:54.118Z</time></trkpt><trkpt lat="46.143563" lon="13.4420697"><ele>230.25</ele><time>2026-05-02T13:22:55.118Z</time></trkpt><trkpt lat="46.1434483" lon="13.4420063"><ele>230.0</ele><time>2026-05-02T13:22:56.117Z</time></trkpt><trkpt lat="46.1433512" lon="13.441902"><ele>230.0</ele><time>2026-05-02T13:22:57.117Z</time></trkpt><trkpt lat="46.1432611" lon="13.4417687"><ele>230.0</ele><time>2026-05-02T13:22:58.117Z</time></trkpt><trkpt lat="46.1431685" lon="13.4416314"><ele>230.0</ele><time>2026-05-02T13:22:59.117Z</time></trkpt><trkpt lat="46.1430862" lon="13.4415032"><ele>230.0</ele><time>2026-05-02T13:23:00.117Z</time></trkpt><trkpt lat="46.1430054" lon="13.4413882"><ele>229.0</ele><time>2026-05-02T13:23:01.118Z</time></trkpt><trkpt lat="46.1429176" lon="13.4412962"><ele>228.0</ele><time>2026-05-02T13:23:02.117Z</time></trkpt><trkpt lat="46.1428134" lon="13.4412426"><ele>227.0</ele><time>2026-05-02T13:23:03.118Z</time></trkpt><trkpt lat="46.1426751" lon="13.4412075"><ele>226.0</ele><time>2026-05-02T13:23:04.117Z</time></trkpt><trkpt lat="46.1425248" lon="13.4411908"><ele>225.0</ele><time>2026-05-02T13:23:05.118Z</time></trkpt><trkpt lat="46.1423666" lon="13.4411691"><ele>224.0</ele><time>2026-05-02T13:23:06.117Z</time></trkpt><trkpt lat="46.1422061" lon="13.4411569"><ele>223.0</ele><time>2026-05-02T13:23:07.118Z</time></trkpt><trkpt lat="46.142055" lon="13.4411496"><ele>223.0</ele><time>2026-05-02T13:23:08.117Z</time></trkpt><trkpt lat="46.1419115" lon="13.4411469"><ele>223.0</ele><time>2026-05-02T13:23:09.118Z</time></trkpt><trkpt lat="46.1417761" lon="13.4411477"><ele>223.0</ele><time>2026-05-02T13:23:10.117Z</time></trkpt><trkpt lat="46.141646" lon="13.4411482"><ele>223.0</ele><time>2026-05-02T13:23:11.117Z</time></trkpt><trkpt lat="46.1415206" lon="13.4411385"><ele>222.5</ele><time>2026-05-02T13:23:12.117Z</time></trkpt><trkpt lat="46.1414006" lon="13.4411439"><ele>222.0</ele><time>2026-05-02T13:23:13.117Z</time></trkpt><trkpt lat="46.1412914" lon="13.4411803"><ele>221.5</ele><time>2026-05-02T13:23:14.117Z</time></trkpt><trkpt lat="46.1411786" lon="13.4412323"><ele>221.0</ele><time>2026-05-02T13:23:15.117Z</time></trkpt><trkpt lat="46.1410683" lon="13.4412912"><ele>220.60000000000002</ele><time>2026-05-02T13:23:16.117Z</time></trkpt><trkpt lat="46.1409633" lon="13.441337"><ele>220.20000000000002</ele><time>2026-05-02T13:23:17.117Z</time></trkpt><trkpt lat="46.1408636" lon="13.4413638"><ele>219.79999999999998</ele><time>2026-05-02T13:23:18.117Z</time></trkpt><trkpt lat="46.140758" lon="13.4413816"><ele>219.39999999999998</ele><time>2026-05-02T13:23:19.117Z</time></trkpt><trkpt lat="46.1406544" lon="13.4413914"><ele>219.0</ele><time>2026-05-02T13:23:20.118Z</time></trkpt><trkpt lat="46.140553" lon="13.4414032"><ele>218.75</ele><time>2026-05-02T13:23:21.118Z</time></trkpt><trkpt lat="46.1404419" lon="13.4413949"><ele>218.5</ele><time>2026-05-02T13:23:22.118Z</time></trkpt><trkpt lat="46.1403275" lon="13.4413747"><ele>218.25</ele><time>2026-05-02T13:23:23.117Z</time></trkpt><trkpt lat="46.1402073" lon="13.4413482"><ele>218.0</ele><time>2026-05-02T13:23:24.118Z</time></trkpt><trkpt lat="46.1400816" lon="13.4413241"><ele>218.25</ele><time>2026-05-02T13:23:25.117Z</time></trkpt><trkpt lat="46.1399485" lon="13.4412986"><ele>218.5</ele><time>2026-05-02T13:23:26.117Z</time></trkpt><trkpt lat="46.1398136" lon="13.4412747"><ele>218.75</ele><time>2026-05-02T13:23:27.118Z</time></trkpt><trkpt lat="46.1396787" lon="13.4412493"><ele>219.0</ele><time>2026-05-02T13:23:28.118Z</time></trkpt><trkpt lat="46.139541" lon="13.4412264"><ele>216.66666666666669</ele><time>2026-05-02T13:23:29.117Z</time></trkpt><trkpt lat="46.139386" lon="13.441198"><ele>214.33333333333334</ele><time>2026-05-02T13:23:30.118Z</time></trkpt><trkpt lat="46.1392319" lon="13.4411711"><ele>212.0</ele><time>2026-05-02T13:23:31.117Z</time></trkpt><trkpt lat="46.1390783" lon="13.441134"><ele>211.0</ele><time>2026-05-02T13:23:32.117Z</time></trkpt><trkpt lat="46.1389385" lon="13.4410931"><ele>210.0</ele><time>2026-05-02T13:23:33.117Z</time></trkpt><trkpt lat="46.138806" lon="13.4410525"><ele>209.0</ele><time>2026-05-02T13:23:34.118Z</time></trkpt><trkpt lat="46.1386814" lon="13.4410169"><ele>208.0</ele><time>2026-05-02T13:23:35.117Z</time></trkpt><trkpt lat="46.1385653" lon="13.4409795"><ele>208.0</ele><time>2026-05-02T13:23:36.118Z</time></trkpt><trkpt lat="46.1384596" lon="13.4409356"><ele>208.0</ele><time>2026-05-02T13:23:37.118Z</time></trkpt><trkpt lat="46.1383584" lon="13.4408727"><ele>208.0</ele><time>2026-05-02T13:23:38.117Z</time></trkpt><trkpt lat="46.1382669" lon="13.4407847"><ele>208.0</ele><time>2026-05-02T13:23:39.118Z</time></trkpt><trkpt lat="46.1382077" lon="13.4406783"><ele>208.0</ele><time>2026-05-02T13:23:40.117Z</time></trkpt><trkpt lat="46.1381715" lon="13.4405623"><ele>207.60000000000002</ele><time>2026-05-02T13:23:41.117Z</time></trkpt><trkpt lat="46.1381578" lon="13.4404198"><ele>207.20000000000002</ele><time>2026-05-02T13:23:42.118Z</time></trkpt><trkpt lat="46.1381614" lon="13.4402647"><ele>206.8</ele><time>2026-05-02T13:23:43.118Z</time></trkpt><trkpt lat="46.1381697" lon="13.440098"><ele>206.4</ele><time>2026-05-02T13:23:44.118Z</time></trkpt><trkpt lat="46.1381815" lon="13.4399282"><ele>206.0</ele><time>2026-05-02T13:23:45.118Z</time></trkpt><trkpt lat="46.1381903" lon="13.4397409"><ele>206.0</ele><time>2026-05-02T13:23:46.117Z</time></trkpt><trkpt lat="46.1382007" lon="13.4395487"><ele>206.0</ele><time>2026-05-02T13:23:47.117Z</time></trkpt><trkpt lat="46.1382142" lon="13.4393638"><ele>206.0</ele><time>2026-05-02T13:23:48.117Z</time></trkpt><trkpt lat="46.1382212" lon="13.4392049"><ele>206.0</ele><time>2026-05-02T13:23:49.118Z</time></trkpt><trkpt lat="46.1382272" lon="13.4390807"><ele>206.50000000000003</ele><time>2026-05-02T13:23:50.117Z</time></trkpt><trkpt lat="46.1382298" lon="13.4389669"><ele>207.0</ele><time>2026-05-02T13:23:51.117Z</time></trkpt><trkpt lat="46.1382515" lon="13.4388315"><ele>207.5</ele><time>2026-05-02T13:23:53.117Z</time></trkpt><trkpt lat="46.1383286" lon="13.4387468"><ele>208.0</ele><time>2026-05-02T13:23:55.118Z</time></trkpt><trkpt lat="46.1384071" lon="13.438701"><ele>208.50000000000003</ele><time>2026-05-02T13:23:56.118Z</time></trkpt><trkpt lat="46.1384841" lon="13.4386441"><ele>209.0</ele><time>2026-05-02T13:23:57.118Z</time></trkpt><trkpt lat="46.1385541" lon="13.4385844"><ele>209.00000000000003</ele><time>2026-05-02T13:23:58.117Z</time></trkpt><trkpt lat="46.1386245" lon="13.4385196"><ele>209.0</ele><time>2026-05-02T13:23:59.118Z</time></trkpt><trkpt lat="46.1386968" lon="13.4384614"><ele>209.0</ele><time>2026-05-02T13:24:00.118Z</time></trkpt><trkpt lat="46.1387644" lon="13.4384107"><ele>209.0</ele><time>2026-05-02T13:24:01.118Z</time></trkpt><trkpt lat="46.1388255" lon="13.4383754"><ele>209.00000000000003</ele><time>2026-05-02T13:24:02.117Z</time></trkpt><trkpt lat="46.1389226" lon="13.4383214"><ele>209.0</ele><time>2026-05-02T13:24:04.117Z</time></trkpt><trkpt lat="46.1389804" lon="13.4382189"><ele>209.0</ele><time>2026-05-02T13:24:07.118Z</time></trkpt><trkpt lat="46.1389709" lon="13.4380885"><ele>209.0</ele><time>2026-05-02T13:24:09.118Z</time></trkpt><trkpt lat="46.1389616" lon="13.4379165"><ele>209.0</ele><time>2026-05-02T13:24:11.117Z</time></trkpt><trkpt lat="46.1389575" lon="13.4378256"><ele>209.0</ele><time>2026-05-02T13:24:12.117Z</time></trkpt><trkpt lat="46.1389514" lon="13.4376712"><ele>209.0</ele><time>2026-05-02T13:24:14.118Z</time></trkpt><trkpt lat="46.1389307" lon="13.4375754"><ele>209.83333333333334</ele><time>2026-05-02T13:24:16.117Z</time></trkpt><trkpt lat="46.1388761" lon="13.437515"><ele>210.66666666666669</ele><time>2026-05-02T13:24:19.118Z</time></trkpt><trkpt lat="46.138838" lon="13.4374078"><ele>211.5</ele><time>2026-05-02T13:24:40.117Z</time></trkpt><trkpt lat="46.138874" lon="13.4372707"><ele>212.33333333333331</ele><time>2026-05-02T13:30:33.116Z</time></trkpt><trkpt lat="46.1388349" lon="13.437142"><ele>213.16666666666666</ele><time>2026-05-02T13:30:35.115Z</time></trkpt><trkpt lat="46.1388599" lon="13.4370265"><ele>214.0</ele><time>2026-05-02T13:30:38.115Z</time></trkpt><trkpt lat="46.1389871" lon="13.4369804"><ele>216.99999999999997</ele><time>2026-05-02T13:30:40.116Z</time></trkpt><trkpt lat="46.1390673" lon="13.4369705"><ele>220.0</ele><time>2026-05-02T13:30:41.116Z</time></trkpt><trkpt lat="46.139152" lon="13.4369776"><ele>223.0</ele><time>2026-05-02T13:30:42.115Z</time></trkpt><trkpt lat="46.1392282" lon="13.4370029"><ele>226.0</ele><time>2026-05-02T13:30:43.115Z</time></trkpt><trkpt lat="46.1392983" lon="13.4370397"><ele>228.99999999999997</ele><time>2026-05-02T13:30:44.115Z</time></trkpt><trkpt lat="46.1393744" lon="13.4370727"><ele>232.0</ele><time>2026-05-02T13:30:45.115Z</time></trkpt><trkpt lat="46.1394514" lon="13.4371105"><ele>230.83333333333331</ele><time>2026-05-02T13:30:46.116Z</time></trkpt><trkpt lat="46.1395177" lon="13.4371551"><ele>229.66666666666666</ele><time>2026-05-02T13:30:47.115Z</time></trkpt><trkpt lat="46.1395962" lon="13.4372792"><ele>228.5</ele><time>2026-05-02T13:30:49.115Z</time></trkpt><trkpt lat="46.1396215" lon="13.4373647"><ele>227.33333333333331</ele><time>2026-05-02T13:30:50.115Z</time></trkpt><trkpt lat="46.1396365" lon="13.4374884"><ele>226.16666666666666</ele><time>2026-05-02T13:30:53.115Z</time></trkpt><trkpt lat="46.1396546" lon="13.4375854"><ele>225.0</ele><time>2026-05-02T13:31:00.116Z</time></trkpt><trkpt lat="46.1396918" lon="13.4376763"><ele>225.0</ele><time>2026-05-02T13:31:02.116Z</time></trkpt><trkpt lat="46.1397551" lon="13.4377165"><ele>225.0</ele><time>2026-05-02T13:31:04.116Z</time></trkpt><trkpt lat="46.1398411" lon="13.437723"><ele>225.0</ele><time>2026-05-02T13:31:06.116Z</time></trkpt><trkpt lat="46.1399698" lon="13.4377068"><ele>225.0</ele><time>2026-05-02T13:31:08.116Z</time></trkpt><trkpt lat="46.140058" lon="13.4376931"><ele>225.0</ele><time>2026-05-02T13:31:09.116Z</time></trkpt><trkpt lat="46.1401655" lon="13.4376709"><ele>229.2</ele><time>2026-05-02T13:31:10.116Z</time></trkpt><trkpt lat="46.1402793" lon="13.4376542"><ele>233.4</ele><time>2026-05-02T13:31:11.115Z</time></trkpt><trkpt lat="46.1403729" lon="13.4376374"><ele>237.60000000000002</ele><time>2026-05-02T13:31:12.116Z</time></trkpt><trkpt lat="46.1404586" lon="13.437619"><ele>241.8</ele><time>2026-05-02T13:31:13.116Z</time></trkpt><trkpt lat="46.1405415" lon="13.4376057"><ele>246.0</ele><time>2026-05-02T13:31:14.115Z</time></trkpt><trkpt lat="46.1406367" lon="13.4376201"><ele>249.16666666666666</ele><time>2026-05-02T13:31:15.116Z</time></trkpt><trkpt lat="46.1407565" lon="13.4375832"><ele>252.33333333333331</ele><time>2026-05-02T13:31:17.115Z</time></trkpt><trkpt lat="46.1408458" lon="13.4375595"><ele>255.5</ele><time>2026-05-02T13:31:18.116Z</time></trkpt><trkpt lat="46.1409201" lon="13.4375381"><ele>258.66666666666663</ele><time>2026-05-02T13:31:19.115Z</time></trkpt><trkpt lat="46.1409933" lon="13.4375161"><ele>261.8333333333333</ele><time>2026-05-02T13:31:20.115Z</time></trkpt><trkpt lat="46.1410715" lon="13.4374974"><ele>265.0</ele><time>2026-05-02T13:31:21.115Z</time></trkpt><trkpt lat="46.1411558" lon="13.437488"><ele>265.0</ele><time>2026-05-02T13:31:22.116Z</time></trkpt><trkpt lat="46.1412389" lon="13.4374849"><ele>265.0</ele><time>2026-05-02T13:31:23.115Z</time></trkpt><trkpt lat="46.1413191" lon="13.4374955"><ele>265.0</ele><time>2026-05-02T13:31:24.115Z</time></trkpt><trkpt lat="46.1414107" lon="13.4375022"><ele>265.0</ele><time>2026-05-02T13:31:25.115Z</time></trkpt><trkpt lat="46.1415003" lon="13.4375088"><ele>265.0</ele><time>2026-05-02T13:31:26.115Z</time></trkpt><trkpt lat="46.1415723" lon="13.4375138"><ele>265.0</ele><time>2026-05-02T13:31:27.116Z</time></trkpt><trkpt lat="46.1416451" lon="13.4375202"><ele>265.66666666666663</ele><time>2026-05-02T13:31:28.115Z</time></trkpt><trkpt lat="46.1417202" lon="13.4375357"><ele>266.3333333333333</ele><time>2026-05-02T13:31:29.115Z</time></trkpt><trkpt lat="46.141795" lon="13.4375436"><ele>267.0</ele><time>2026-05-02T13:31:30.116Z</time></trkpt><trkpt lat="46.1418668" lon="13.4375504"><ele>267.6666666666667</ele><time>2026-05-02T13:31:31.116Z</time></trkpt><trkpt lat="46.1419751" lon="13.4375438"><ele>268.33333333333337</ele><time>2026-05-02T13:31:33.116Z</time></trkpt><trkpt lat="46.142053" lon="13.437551"><ele>269.0</ele><time>2026-05-02T13:31:35.115Z</time></trkpt><trkpt lat="46.1421763" lon="13.4375517"><ele>269.0</ele><time>2026-05-02T13:31:37.115Z</time></trkpt><trkpt lat="46.1422895" lon="13.4375861"><ele>269.0</ele><time>2026-05-02T13:31:39.115Z</time></trkpt><trkpt lat="46.1424014" lon="13.4376774"><ele>269.0</ele><time>2026-05-02T13:31:41.116Z</time></trkpt><trkpt lat="46.1424682" lon="13.4377164"><ele>269.0</ele><time>2026-05-02T13:31:42.116Z</time></trkpt><trkpt lat="46.1425327" lon="13.4377352"><ele>269.0</ele><time>2026-05-02T13:31:43.116Z</time></trkpt><trkpt lat="46.1426614" lon="13.4377442"><ele>271.8</ele><time>2026-05-02T13:31:45.116Z</time></trkpt><trkpt lat="46.1427751" lon="13.437746"><ele>274.59999999999997</ele><time>2026-05-02T13:31:47.116Z</time></trkpt><trkpt lat="46.1429028" lon="13.4377013"><ele>277.4</ele><time>2026-05-02T13:31:49.116Z</time></trkpt><trkpt lat="46.1429654" lon="13.4376859"><ele>280.2</ele><time>2026-05-02T13:31:50.115Z</time></trkpt><trkpt lat="46.1430645" lon="13.4376713"><ele>283.0</ele><time>2026-05-02T13:31:52.115Z</time></trkpt><trkpt lat="46.1431576" lon="13.4377204"><ele>284.66666666666663</ele><time>2026-05-02T13:31:54.115Z</time></trkpt><trkpt lat="46.1432198" lon="13.4377498"><ele>286.3333333333333</ele><time>2026-05-02T13:31:55.116Z</time></trkpt><trkpt lat="46.1432867" lon="13.4377725"><ele>288.0</ele><time>2026-05-02T13:31:56.115Z</time></trkpt><trkpt lat="46.1433529" lon="13.4378201"><ele>289.6666666666667</ele><time>2026-05-02T13:31:58.115Z</time></trkpt><trkpt lat="46.1434533" lon="13.437815"><ele>291.33333333333337</ele><time>2026-05-02T13:32:00.116Z</time></trkpt><trkpt lat="46.1435274" lon="13.4378279"><ele>293.0</ele><time>2026-05-02T13:32:01.115Z</time></trkpt><trkpt lat="46.1436016" lon="13.4378461"><ele>293.0</ele><time>2026-05-02T13:32:02.115Z</time></trkpt><trkpt lat="46.1437049" lon="13.4377963"><ele>293.0</ele><time>2026-05-02T13:32:04.115Z</time></trkpt><trkpt lat="46.1437613" lon="13.4377478"><ele>293.0</ele><time>2026-05-02T13:32:05.116Z</time></trkpt><trkpt lat="46.1438218" lon="13.4376824"><ele>293.0</ele><time>2026-05-02T13:32:06.115Z</time></trkpt><trkpt lat="46.1438753" lon="13.4376119"><ele>293.0</ele><time>2026-05-02T13:32:07.115Z</time></trkpt><trkpt lat="46.1439366" lon="13.4375376"><ele>293.0</ele><time>2026-05-02T13:32:08.116Z</time></trkpt><trkpt lat="46.1439986" lon="13.4374776"><ele>292.6666666666667</ele><time>2026-05-02T13:32:09.115Z</time></trkpt><trkpt lat="46.1440642" lon="13.4374103"><ele>292.33333333333337</ele><time>2026-05-02T13:32:10.116Z</time></trkpt><trkpt lat="46.1441322" lon="13.4373548"><ele>292.0</ele><time>2026-05-02T13:32:11.115Z</time></trkpt><trkpt lat="46.1442123" lon="13.4373092"><ele>291.6666666666667</ele><time>2026-05-02T13:32:12.115Z</time></trkpt><trkpt lat="46.1442927" lon="13.4372668"><ele>291.3333333333333</ele><time>2026-05-02T13:32:13.115Z</time></trkpt><trkpt lat="46.1443905" lon="13.4371801"><ele>291.0</ele><time>2026-05-02T13:32:15.116Z</time></trkpt><trkpt lat="46.1444882" lon="13.4371267"><ele>294.6666666666667</ele><time>2026-05-02T13:32:17.115Z</time></trkpt><trkpt lat="46.1445565" lon="13.4371141"><ele>298.3333333333333</ele><time>2026-05-02T13:32:18.115Z</time></trkpt><trkpt lat="46.1446312" lon="13.4370835"><ele>302.0</ele><time>2026-05-02T13:32:19.116Z</time></trkpt><trkpt lat="46.1446958" lon="13.4370513"><ele>305.66666666666663</ele><time>2026-05-02T13:32:20.115Z</time></trkpt><trkpt lat="46.1448266" lon="13.437013"><ele>309.3333333333333</ele><time>2026-05-02T13:32:22.116Z</time></trkpt><trkpt lat="46.144892" lon="13.4370136"><ele>313.0</ele><time>2026-05-02T13:32:23.115Z</time></trkpt><trkpt lat="46.1449637" lon="13.4370265"><ele>313.0</ele><time>2026-05-02T13:32:24.115Z</time></trkpt><trkpt lat="46.1450901" lon="13.4371291"><ele>313.0</ele><time>2026-05-02T13:32:26.115Z</time></trkpt><trkpt lat="46.1451512" lon="13.4372115"><ele>313.0</ele><time>2026-05-02T13:32:27.115Z</time></trkpt><trkpt lat="46.1452021" lon="13.4372831"><ele>313.0</ele><time>2026-05-02T13:32:28.116Z</time></trkpt><trkpt lat="46.145252" lon="13.4373398"><ele>313.0</ele><time>2026-05-02T13:32:29.115Z</time></trkpt><trkpt lat="46.145337" lon="13.4373857"><ele>309.85714285714283</ele><time>2026-05-02T13:32:31.116Z</time></trkpt><trkpt lat="46.1454063" lon="13.4373841"><ele>306.7142857142857</ele><time>2026-05-02T13:32:32.115Z</time></trkpt><trkpt lat="46.1454694" lon="13.4373558"><ele>303.57142857142856</ele><time>2026-05-02T13:32:33.115Z</time></trkpt><trkpt lat="46.1455343" lon="13.4373275"><ele>300.42857142857144</ele><time>2026-05-02T13:32:34.115Z</time></trkpt><trkpt lat="46.1456047" lon="13.4372827"><ele>297.2857142857143</ele><time>2026-05-02T13:32:35.115Z</time></trkpt><trkpt lat="46.1456627" lon="13.4372381"><ele>294.1428571428571</ele><time>2026-05-02T13:32:36.116Z</time></trkpt><trkpt lat="46.1457214" lon="13.4371924"><ele>291.0</ele><time>2026-05-02T13:32:37.116Z</time></trkpt><trkpt lat="46.1457821" lon="13.437151"><ele>297.4</ele><time>2026-05-02T13:32:38.116Z</time></trkpt><trkpt lat="46.1458626" lon="13.4370998"><ele>303.8</ele><time>2026-05-02T13:32:39.116Z</time></trkpt><trkpt lat="46.1459654" lon="13.4370519"><ele>310.2</ele><time>2026-05-02T13:32:41.115Z</time></trkpt><trkpt lat="46.1460236" lon="13.4369945"><ele>316.59999999999997</ele><time>2026-05-02T13:32:43.115Z</time></trkpt><trkpt lat="46.1460995" lon="13.4368377"><ele>323.0</ele><time>2026-05-02T13:32:45.116Z</time></trkpt><trkpt lat="46.146158" lon="13.4366913"><ele>323.0</ele><time>2026-05-02T13:32:46.115Z</time></trkpt><trkpt lat="46.1462007" lon="13.4366081"><ele>323.0</ele><time>2026-05-02T13:32:47.115Z</time></trkpt><trkpt lat="46.146227" lon="13.4364913"><ele>323.0</ele><time>2026-05-02T13:32:48.116Z</time></trkpt><trkpt lat="46.1462578" lon="13.4363741"><ele>323.0</ele><time>2026-05-02T13:32:49.115Z</time></trkpt><trkpt lat="46.1462805" lon="13.4362815"><ele>323.0</ele><time>2026-05-02T13:32:50.115Z</time></trkpt><trkpt lat="46.1463556" lon="13.4361689"><ele>323.0</ele><time>2026-05-02T13:32:52.115Z</time></trkpt><trkpt lat="46.1464733" lon="13.4361146"><ele>324.6666666666667</ele><time>2026-05-02T13:32:54.115Z</time></trkpt><trkpt lat="46.1465672" lon="13.4360968"><ele>326.33333333333337</ele><time>2026-05-02T13:32:55.116Z</time></trkpt><trkpt lat="46.1466557" lon="13.4360733"><ele>328.0</ele><time>2026-05-02T13:32:56.115Z</time></trkpt><trkpt lat="46.1467451" lon="13.4360344"><ele>329.6666666666667</ele><time>2026-05-02T13:32:57.115Z</time></trkpt><trkpt lat="46.1468236" lon="13.4359981"><ele>331.3333333333333</ele><time>2026-05-02T13:32:58.116Z</time></trkpt><trkpt lat="46.1468959" lon="13.4359595"><ele>333.0</ele><time>2026-05-02T13:32:59.115Z</time></trkpt><trkpt lat="46.1469936" lon="13.4359076"><ele>333.0</ele><time>2026-05-02T13:33:00.115Z</time></trkpt><trkpt lat="46.1470785" lon="13.435873"><ele>333.0</ele><time>2026-05-02T13:33:01.116Z</time></trkpt><trkpt lat="46.1471587" lon="13.4358494"><ele>333.0</ele><time>2026-05-02T13:33:02.115Z</time></trkpt><trkpt lat="46.1472466" lon="13.4358268"><ele>333.0</ele><time>2026-05-02T13:33:03.116Z</time></trkpt><trkpt lat="46.147377" lon="13.4357785"><ele>333.0</ele><time>2026-05-02T13:33:04.115Z</time></trkpt><trkpt lat="46.1474695" lon="13.4357211"><ele>330.8333333333333</ele><time>2026-05-02T13:33:05.115Z</time></trkpt><trkpt lat="46.1475374" lon="13.4356758"><ele>328.6666666666667</ele><time>2026-05-02T13:33:06.116Z</time></trkpt><trkpt lat="46.1476105" lon="13.4356223"><ele>326.5</ele><time>2026-05-02T13:33:07.116Z</time></trkpt><trkpt lat="46.1476998" lon="13.4355715"><ele>324.33333333333337</ele><time>2026-05-02T13:33:08.115Z</time></trkpt><trkpt lat="46.1477743" lon="13.4355365"><ele>322.1666666666667</ele><time>2026-05-02T13:33:09.115Z</time></trkpt><trkpt lat="46.1478428" lon="13.4355146"><ele>320.0</ele><time>2026-05-02T13:33:10.115Z</time></trkpt><trkpt lat="46.1479189" lon="13.4355072"><ele>320.0</ele><time>2026-05-02T13:33:11.115Z</time></trkpt><trkpt lat="46.1479894" lon="13.4354939"><ele>320.0</ele><time>2026-05-02T13:33:12.116Z</time></trkpt><trkpt lat="46.1480543" lon="13.4355025"><ele>320.0</ele><time>2026-05-02T13:33:13.115Z</time></trkpt><trkpt lat="46.1481306" lon="13.4355167"><ele>320.0</ele><time>2026-05-02T13:33:14.115Z</time></trkpt><trkpt lat="46.1482244" lon="13.4355243"><ele>320.0</ele><time>2026-05-02T13:33:15.115Z</time></trkpt><trkpt lat="46.1483019" lon="13.4355279"><ele>320.0</ele><time>2026-05-02T13:33:16.115Z</time></trkpt><trkpt lat="46.1483844" lon="13.4355031"><ele>326.5</ele><time>2026-05-02T13:33:17.115Z</time></trkpt><trkpt lat="46.148465" lon="13.4354695"><ele>333.0</ele><time>2026-05-02T13:33:18.116Z</time></trkpt><trkpt lat="46.1485394" lon="13.4354263"><ele>339.5</ele><time>2026-05-02T13:33:19.115Z</time></trkpt><trkpt lat="46.1486132" lon="13.4353734"><ele>346.0</ele><time>2026-05-02T13:33:20.116Z</time></trkpt><trkpt lat="46.1487068" lon="13.4352971"><ele>352.5</ele><time>2026-05-02T13:33:21.116Z</time></trkpt><trkpt lat="46.148787" lon="13.4352384"><ele>359.0</ele><time>2026-05-02T13:33:22.115Z</time></trkpt><trkpt lat="46.148849" lon="13.4351814"><ele>359.0</ele><time>2026-05-02T13:33:23.115Z</time></trkpt><trkpt lat="46.1489428" lon="13.4350998"><ele>359.0</ele><time>2026-05-02T13:33:25.115Z</time></trkpt><trkpt lat="46.1490274" lon="13.435005"><ele>359.0</ele><time>2026-05-02T13:33:27.115Z</time></trkpt><trkpt lat="46.1490622" lon="13.4348586"><ele>359.0</ele><time>2026-05-02T13:33:29.116Z</time></trkpt><trkpt lat="46.1491021" lon="13.4347527"><ele>359.0</ele><time>2026-05-02T13:33:30.115Z</time></trkpt><trkpt lat="46.149157" lon="13.4346413"><ele>359.33333333333337</ele><time>2026-05-02T13:33:31.115Z</time></trkpt><trkpt lat="46.1492124" lon="13.4345279"><ele>359.6666666666667</ele><time>2026-05-02T13:33:32.116Z</time></trkpt><trkpt lat="46.1492456" lon="13.4344292"><ele>360.0</ele><time>2026-05-02T13:33:33.116Z</time></trkpt><trkpt lat="46.1492763" lon="13.434341"><ele>360.3333333333333</ele><time>2026-05-02T13:33:34.116Z</time></trkpt><trkpt lat="46.1492923" lon="13.4342504"><ele>360.66666666666663</ele><time>2026-05-02T13:33:35.116Z</time></trkpt><trkpt lat="46.149285" lon="13.4340719"><ele>361.0</ele><time>2026-05-02T13:33:37.115Z</time></trkpt><trkpt lat="46.1492901" lon="13.4339268"><ele>361.0</ele><time>2026-05-02T13:33:39.115Z</time></trkpt><trkpt lat="46.149347" lon="13.4338693"><ele>361.0</ele><time>2026-05-02T13:33:41.116Z</time></trkpt><trkpt lat="46.1494493" lon="13.4339169"><ele>361.0</ele><time>2026-05-02T13:33:43.115Z</time></trkpt><trkpt lat="46.1495172" lon="13.4339656"><ele>361.0</ele><time>2026-05-02T13:33:44.116Z</time></trkpt><trkpt lat="46.149577" lon="13.4340134"><ele>361.0</ele><time>2026-05-02T13:33:45.115Z</time></trkpt><trkpt lat="46.1496488" lon="13.434046"><ele>361.0</ele><time>2026-05-02T13:33:46.115Z</time></trkpt><trkpt lat="46.149724" lon="13.4340737"><ele>361.0</ele><time>2026-05-02T13:33:47.115Z</time></trkpt><trkpt lat="46.1497966" lon="13.4341027"><ele>361.0</ele><time>2026-05-02T13:33:48.116Z</time></trkpt><trkpt lat="46.1498669" lon="13.4341001"><ele>361.0</ele><time>2026-05-02T13:33:49.116Z</time></trkpt><trkpt lat="46.1499816" lon="13.4340272"><ele>361.0</ele><time>2026-05-02T13:33:51.115Z</time></trkpt><trkpt lat="46.1500398" lon="13.4339705"><ele>361.0</ele><time>2026-05-02T13:33:52.116Z</time></trkpt><trkpt lat="46.1501039" lon="13.4339137"><ele>361.0</ele><time>2026-05-02T13:33:53.116Z</time></trkpt><trkpt lat="46.1501738" lon="13.4338458"><ele>364.5</ele><time>2026-05-02T13:33:54.115Z</time></trkpt><trkpt lat="46.150244" lon="13.4337928"><ele>368.0</ele><time>2026-05-02T13:33:55.116Z</time></trkpt><trkpt lat="46.1503102" lon="13.4337332"><ele>371.5</ele><time>2026-05-02T13:33:56.115Z</time></trkpt><trkpt lat="46.1503715" lon="13.4336749"><ele>375.0</ele><time>2026-05-02T13:33:57.116Z</time></trkpt><trkpt lat="46.1504238" lon="13.4336234"><ele>378.5</ele><time>2026-05-02T13:33:58.116Z</time></trkpt><trkpt lat="46.150528" lon="13.4335096"><ele>382.0</ele><time>2026-05-02T13:34:00.115Z</time></trkpt><trkpt lat="46.150609" lon="13.4333849"><ele>382.0</ele><time>2026-05-02T13:34:02.115Z</time></trkpt><trkpt lat="46.1506467" lon="13.4333077"><ele>382.0</ele><time>2026-05-02T13:34:03.116Z</time></trkpt><trkpt lat="46.1506947" lon="13.4331559"><ele>382.0</ele><time>2026-05-02T13:34:05.116Z</time></trkpt><trkpt lat="46.1507234" lon="13.4330353"><ele>382.0</ele><time>2026-05-02T13:34:06.115Z</time></trkpt><trkpt lat="46.1507433" lon="13.4329175"><ele>382.0</ele><time>2026-05-02T13:34:07.116Z</time></trkpt><trkpt lat="46.1507607" lon="13.4327588"><ele>381.0</ele><time>2026-05-02T13:34:08.115Z</time></trkpt><trkpt lat="46.1507727" lon="13.4326079"><ele>380.0</ele><time>2026-05-02T13:34:09.115Z</time></trkpt><trkpt lat="46.1508008" lon="13.4324461"><ele>379.0</ele><time>2026-05-02T13:34:10.116Z</time></trkpt><trkpt lat="46.1508169" lon="13.4323216"><ele>378.0</ele><time>2026-05-02T13:34:11.116Z</time></trkpt><trkpt lat="46.1508248" lon="13.4322074"><ele>377.0</ele><time>2026-05-02T13:34:12.115Z</time></trkpt><trkpt lat="46.150843" lon="13.4321067"><ele>379.20000000000005</ele><time>2026-05-02T13:34:13.116Z</time></trkpt><trkpt lat="46.1508751" lon="13.4320043"><ele>381.4</ele><time>2026-05-02T13:34:14.115Z</time></trkpt><trkpt lat="46.1509123" lon="13.4318781"><ele>383.6</ele><time>2026-05-02T13:34:16.115Z</time></trkpt><trkpt lat="46.15091" lon="13.4317331"><ele>385.79999999999995</ele><time>2026-05-02T13:34:18.115Z</time></trkpt><trkpt lat="46.1508451" lon="13.4315535"><ele>388.0</ele><time>2026-05-02T13:34:20.116Z</time></trkpt><trkpt lat="46.1508015" lon="13.4314526"><ele>388.00000000000006</ele><time>2026-05-02T13:34:21.115Z</time></trkpt><trkpt lat="46.1507578" lon="13.4313546"><ele>388.0</ele><time>2026-05-02T13:34:22.116Z</time></trkpt><trkpt lat="46.1507306" lon="13.43126"><ele>388.0</ele><time>2026-05-02T13:34:23.115Z</time></trkpt><trkpt lat="46.1507079" lon="13.4311707"><ele>388.0</ele><time>2026-05-02T13:34:24.115Z</time></trkpt><trkpt lat="46.1507012" lon="13.4310247"><ele>388.00000000000006</ele><time>2026-05-02T13:34:26.116Z</time></trkpt><trkpt lat="46.1507553" lon="13.4308705"><ele>388.0</ele><time>2026-05-02T13:34:28.114Z</time></trkpt><trkpt lat="46.1507969" lon="13.4307752"><ele>389.33333333333337</ele><time>2026-05-02T13:34:29.115Z</time></trkpt><trkpt lat="46.150865" lon="13.4306983"><ele>390.6666666666667</ele><time>2026-05-02T13:34:30.115Z</time></trkpt><trkpt lat="46.150941" lon="13.4306103"><ele>392.0</ele><time>2026-05-02T13:34:31.114Z</time></trkpt><trkpt lat="46.150985" lon="13.4305274"><ele>393.33333333333337</ele><time>2026-05-02T13:34:32.114Z</time></trkpt><trkpt lat="46.1510249" lon="13.4304464"><ele>394.6666666666667</ele><time>2026-05-02T13:34:33.115Z</time></trkpt><trkpt lat="46.151058" lon="13.4303567"><ele>396.0</ele><time>2026-05-02T13:34:34.114Z</time></trkpt><trkpt lat="46.1510903" lon="13.4302708"><ele>399.3333333333333</ele><time>2026-05-02T13:34:35.114Z</time></trkpt><trkpt lat="46.1511187" lon="13.4301742"><ele>402.66666666666663</ele><time>2026-05-02T13:34:36.114Z</time></trkpt><trkpt lat="46.1511485" lon="13.4300779"><ele>406.0</ele><time>2026-05-02T13:34:37.114Z</time></trkpt><trkpt lat="46.1511759" lon="13.4299862"><ele>409.3333333333333</ele><time>2026-05-02T13:34:38.114Z</time></trkpt><trkpt lat="46.1512093" lon="13.4298863"><ele>412.66666666666663</ele><time>2026-05-02T13:34:39.115Z</time></trkpt><trkpt lat="46.151247" lon="13.4297786"><ele>416.0</ele><time>2026-05-02T13:34:40.115Z</time></trkpt><trkpt lat="46.1513076" lon="13.4296624"><ele>414.16666666666663</ele><time>2026-05-02T13:34:41.115Z</time></trkpt><trkpt lat="46.1513641" lon="13.4295579"><ele>412.3333333333333</ele><time>2026-05-02T13:34:42.114Z</time></trkpt><trkpt lat="46.1514083" lon="13.4294667"><ele>410.5</ele><time>2026-05-02T13:34:43.114Z</time></trkpt><trkpt lat="46.1514699" lon="13.4293423"><ele>408.66666666666663</ele><time>2026-05-02T13:34:45.115Z</time></trkpt><trkpt lat="46.1515282" lon="13.4292621"><ele>406.8333333333333</ele><time>2026-05-02T13:34:47.115Z</time></trkpt><trkpt lat="46.1516132" lon="13.4293061"><ele>405.0</ele><time>2026-05-02T13:34:50.115Z</time></trkpt><trkpt lat="46.1516216" lon="13.4294707"><ele>405.0</ele><time>2026-05-02T13:34:53.115Z</time></trkpt><trkpt lat="46.1516111" lon="13.4295656"><ele>405.0</ele><time>2026-05-02T13:34:54.114Z</time></trkpt><trkpt lat="46.1516492" lon="13.4297583"><ele>405.0</ele><time>2026-05-02T13:34:56.114Z</time></trkpt><trkpt lat="46.1516926" lon="13.4298928"><ele>405.0</ele><time>2026-05-02T13:34:57.114Z</time></trkpt><trkpt lat="46.1517452" lon="13.4300105"><ele>405.0</ele><time>2026-05-02T13:34:58.114Z</time></trkpt><trkpt lat="46.1517945" lon="13.4301129"><ele>402.0</ele><time>2026-05-02T13:34:59.114Z</time></trkpt><trkpt lat="46.1518543" lon="13.4301949"><ele>399.0</ele><time>2026-05-02T13:35:00.114Z</time></trkpt><trkpt lat="46.1519247" lon="13.4302959"><ele>396.0</ele><time>2026-05-02T13:35:01.114Z</time></trkpt><trkpt lat="46.1520009" lon="13.4304141"><ele>393.0</ele><time>2026-05-02T13:35:02.114Z</time></trkpt><trkpt lat="46.1520649" lon="13.4304841"><ele>390.0</ele><time>2026-05-02T13:35:03.115Z</time></trkpt><trkpt lat="46.152151" lon="13.4306091"><ele>388.8</ele><time>2026-05-02T13:35:05.115Z</time></trkpt><trkpt lat="46.1522542" lon="13.4306585"><ele>387.6</ele><time>2026-05-02T13:35:07.114Z</time></trkpt><trkpt lat="46.152365" lon="13.430651"><ele>386.4</ele><time>2026-05-02T13:35:09.114Z</time></trkpt><trkpt lat="46.1524358" lon="13.4306162"><ele>385.2</ele><time>2026-05-02T13:35:10.115Z</time></trkpt><trkpt lat="46.1525259" lon="13.4305747"><ele>384.0</ele><time>2026-05-02T13:35:11.115Z</time></trkpt><trkpt lat="46.1526242" lon="13.4305391"><ele>384.0</ele><time>2026-05-02T13:35:12.115Z</time></trkpt><trkpt lat="46.1527168" lon="13.430508"><ele>384.0</ele><time>2026-05-02T13:35:13.114Z</time></trkpt><trkpt lat="46.1527897" lon="13.4304937"><ele>384.0</ele><time>2026-05-02T13:35:14.115Z</time></trkpt><trkpt lat="46.1528833" lon="13.4304903"><ele>384.0</ele><time>2026-05-02T13:35:15.115Z</time></trkpt><trkpt lat="46.1529728" lon="13.4304935"><ele>384.0</ele><time>2026-05-02T13:35:16.114Z</time></trkpt><trkpt lat="46.1530492" lon="13.4305001"><ele>384.0</ele><time>2026-05-02T13:35:17.114Z</time></trkpt><trkpt lat="46.1531291" lon="13.430481"><ele>390.2</ele><time>2026-05-02T13:35:18.114Z</time></trkpt><trkpt lat="46.1532313" lon="13.43044"><ele>396.4</ele><time>2026-05-02T13:35:19.114Z</time></trkpt><trkpt lat="46.15332" lon="13.4303924"><ele>402.6</ele><time>2026-05-02T13:35:20.114Z</time></trkpt><trkpt lat="46.1534501" lon="13.4303685"><ele>408.8</ele><time>2026-05-02T13:35:22.114Z</time></trkpt><trkpt lat="46.1535273" lon="13.4303618"><ele>415.0</ele><time>2026-05-02T13:35:23.114Z</time></trkpt><trkpt lat="46.1535917" lon="13.4303881"><ele>410.2</ele><time>2026-05-02T13:35:24.115Z</time></trkpt><trkpt lat="46.1536305" lon="13.4305529"><ele>405.4</ele><time>2026-05-02T13:35:26.114Z</time></trkpt><trkpt lat="46.1536874" lon="13.430678"><ele>400.6</ele><time>2026-05-02T13:35:28.114Z</time></trkpt><trkpt lat="46.1537554" lon="13.4307412"><ele>395.8</ele><time>2026-05-02T13:35:37.114Z</time></trkpt><trkpt lat="46.1538677" lon="13.4307643"><ele>391.0</ele><time>2026-05-02T13:35:39.115Z</time></trkpt><trkpt lat="46.1539965" lon="13.4307757"><ele>392.4</ele><time>2026-05-02T13:35:41.114Z</time></trkpt><trkpt lat="46.1541206" lon="13.4307272"><ele>393.8</ele><time>2026-05-02T13:35:43.114Z</time></trkpt><trkpt lat="46.154212" lon="13.4306224"><ele>395.2</ele><time>2026-05-02T13:35:45.114Z</time></trkpt><trkpt lat="46.1542625" lon="13.4305256"><ele>396.59999999999997</ele><time>2026-05-02T13:35:46.114Z</time></trkpt><trkpt lat="46.1543234" lon="13.4304741"><ele>398.0</ele><time>2026-05-02T13:35:47.114Z</time></trkpt><trkpt lat="46.1543891" lon="13.4303866"><ele>403.2</ele><time>2026-05-02T13:35:48.114Z</time></trkpt><trkpt lat="46.1544667" lon="13.430312"><ele>408.4</ele><time>2026-05-02T13:35:49.114Z</time></trkpt><trkpt lat="46.1545482" lon="13.4302354"><ele>413.59999999999997</ele><time>2026-05-02T13:35:50.115Z</time></trkpt><trkpt lat="46.1546331" lon="13.430182"><ele>418.79999999999995</ele><time>2026-05-02T13:35:51.115Z</time></trkpt><trkpt lat="46.1547204" lon="13.4301231"><ele>424.0</ele><time>2026-05-02T13:35:52.115Z</time></trkpt><trkpt lat="46.1547901" lon="13.4300575"><ele>424.0</ele><time>2026-05-02T13:35:53.114Z</time></trkpt><trkpt lat="46.1548614" lon="13.4299762"><ele>424.0</ele><time>2026-05-02T13:35:54.114Z</time></trkpt><trkpt lat="46.1549473" lon="13.4298995"><ele>424.0</ele><time>2026-05-02T13:35:55.114Z</time></trkpt><trkpt lat="46.1550482" lon="13.4298389"><ele>424.0</ele><time>2026-05-02T13:35:56.115Z</time></trkpt><trkpt lat="46.1551809" lon="13.4297775"><ele>424.0</ele><time>2026-05-02T13:35:58.114Z</time></trkpt><trkpt lat="46.155246" lon="13.4297377"><ele>428.6666666666667</ele><time>2026-05-02T13:35:59.114Z</time></trkpt><trkpt lat="46.1553298" lon="13.4296225"><ele>433.33333333333337</ele><time>2026-05-02T13:36:01.114Z</time></trkpt><trkpt lat="46.1553822" lon="13.4295433"><ele>438.0</ele><time>2026-05-02T13:36:02.114Z</time></trkpt><trkpt lat="46.1554208" lon="13.4294572"><ele>442.66666666666663</ele><time>2026-05-02T13:36:03.114Z</time></trkpt><trkpt lat="46.1554554" lon="13.4293521"><ele>447.3333333333333</ele><time>2026-05-02T13:36:04.114Z</time></trkpt><trkpt lat="46.1554813" lon="13.4292601"><ele>452.0</ele><time>2026-05-02T13:36:05.114Z</time></trkpt><trkpt lat="46.1555112" lon="13.4291712"><ele>452.0</ele><time>2026-05-02T13:36:06.114Z</time></trkpt><trkpt lat="46.1555904" lon="13.4290352"><ele>452.00000000000006</ele><time>2026-05-02T13:36:08.114Z</time></trkpt><trkpt lat="46.1556443" lon="13.4289451"><ele>452.00000000000006</ele><time>2026-05-02T13:36:09.115Z</time></trkpt><trkpt lat="46.1556944" lon="13.4288486"><ele>452.0</ele><time>2026-05-02T13:36:10.115Z</time></trkpt><trkpt lat="46.1557443" lon="13.4287329"><ele>452.0</ele><time>2026-05-02T13:36:11.114Z</time></trkpt><trkpt lat="46.1557733" lon="13.4286265"><ele>450.99999999999994</ele><time>2026-05-02T13:36:12.114Z</time></trkpt><trkpt lat="46.1557919" lon="13.42853"><ele>450.0</ele><time>2026-05-02T13:36:13.114Z</time></trkpt><trkpt lat="46.1558165" lon="13.4284282"><ele>449.0</ele><time>2026-05-02T13:36:14.115Z</time></trkpt><trkpt lat="46.1558505" lon="13.4283488"><ele>448.0</ele><time>2026-05-02T13:36:15.114Z</time></trkpt><trkpt lat="46.1558953" lon="13.4282662"><ele>446.99999999999994</ele><time>2026-05-02T13:36:16.114Z</time></trkpt><trkpt lat="46.1559789" lon="13.4281483"><ele>446.0</ele><time>2026-05-02T13:36:18.115Z</time></trkpt><trkpt lat="46.1560364" lon="13.4281056"><ele>446.0</ele><time>2026-05-02T13:36:19.115Z</time></trkpt><trkpt lat="46.1561646" lon="13.4280794"><ele>446.0</ele><time>2026-05-02T13:36:21.114Z</time></trkpt><trkpt lat="46.1562309" lon="13.4280726"><ele>446.0</ele><time>2026-05-02T13:36:22.115Z</time></trkpt><trkpt lat="46.1563267" lon="13.4280585"><ele>446.0</ele><time>2026-05-02T13:36:23.114Z</time></trkpt><trkpt lat="46.1564064" lon="13.4280372"><ele>446.0</ele><time>2026-05-02T13:36:24.115Z</time></trkpt><trkpt lat="46.1564864" lon="13.4280217"><ele>447.99999999999994</ele><time>2026-05-02T13:36:25.114Z</time></trkpt><trkpt lat="46.156562" lon="13.4279979"><ele>450.0</ele><time>2026-05-02T13:36:26.114Z</time></trkpt><trkpt lat="46.1566245" lon="13.4279705"><ele>452.0</ele><time>2026-05-02T13:36:27.114Z</time></trkpt><trkpt lat="46.1566865" lon="13.4279444"><ele>454.0</ele><time>2026-05-02T13:36:28.114Z</time></trkpt><trkpt lat="46.1567453" lon="13.4278971"><ele>455.99999999999994</ele><time>2026-05-02T13:36:29.115Z</time></trkpt><trkpt lat="46.156834" lon="13.4277787"><ele>458.0</ele><time>2026-05-02T13:36:31.114Z</time></trkpt><trkpt lat="46.1568642" lon="13.4276972"><ele>457.99999999999994</ele><time>2026-05-02T13:36:32.114Z</time></trkpt><trkpt lat="46.1568957" lon="13.4276086"><ele>458.0</ele><time>2026-05-02T13:36:33.114Z</time></trkpt><trkpt lat="46.1569305" lon="13.4275158"><ele>458.0</ele><time>2026-05-02T13:36:34.114Z</time></trkpt><trkpt lat="46.1569747" lon="13.4274176"><ele>458.0</ele><time>2026-05-02T13:36:35.114Z</time></trkpt><trkpt lat="46.157011" lon="13.4273319"><ele>457.99999999999994</ele><time>2026-05-02T13:36:36.114Z</time></trkpt><trkpt lat="46.1570479" lon="13.4272384"><ele>458.0</ele><time>2026-05-02T13:36:37.114Z</time></trkpt><trkpt lat="46.1571034" lon="13.4271499"><ele>461.0</ele><time>2026-05-02T13:36:38.114Z</time></trkpt><trkpt lat="46.1571507" lon="13.427079"><ele>464.0</ele><time>2026-05-02T13:36:39.115Z</time></trkpt><trkpt lat="46.1572053" lon="13.4270222"><ele>467.0</ele><time>2026-05-02T13:36:40.114Z</time></trkpt><trkpt lat="46.1572685" lon="13.4269721"><ele>470.0</ele><time>2026-05-02T13:36:41.114Z</time></trkpt><trkpt lat="46.1573436" lon="13.42694"><ele>473.0</ele><time>2026-05-02T13:36:42.115Z</time></trkpt><trkpt lat="46.1574059" lon="13.4269134"><ele>476.0</ele><time>2026-05-02T13:36:43.114Z</time></trkpt><trkpt lat="46.1574739" lon="13.4268895"><ele>479.0</ele><time>2026-05-02T13:36:44.115Z</time></trkpt><trkpt lat="46.1575387" lon="13.4268512"><ele>479.0</ele><time>2026-05-02T13:36:45.115Z</time></trkpt><trkpt lat="46.1576132" lon="13.4268082"><ele>479.0</ele><time>2026-05-02T13:36:46.114Z</time></trkpt><trkpt lat="46.1576808" lon="13.4267788"><ele>479.0</ele><time>2026-05-02T13:36:47.114Z</time></trkpt><trkpt lat="46.1577552" lon="13.4267413"><ele>479.0</ele><time>2026-05-02T13:36:48.114Z</time></trkpt><trkpt lat="46.157865" lon="13.4266799"><ele>479.0</ele><time>2026-05-02T13:36:50.115Z</time></trkpt><trkpt lat="46.1579787" lon="13.4266884"><ele>478.99999999999994</ele><time>2026-05-02T13:36:52.114Z</time></trkpt><trkpt lat="46.1580501" lon="13.426717"><ele>479.0</ele><time>2026-05-02T13:36:53.114Z</time></trkpt><trkpt lat="46.1581244" lon="13.4267843"><ele>479.0</ele><time>2026-05-02T13:36:54.114Z</time></trkpt><trkpt lat="46.1582121" lon="13.4268197"><ele>479.0</ele><time>2026-05-02T13:36:55.114Z</time></trkpt><trkpt lat="46.1582772" lon="13.4268626"><ele>478.99999999999994</ele><time>2026-05-02T13:36:56.114Z</time></trkpt><trkpt lat="46.1583783" lon="13.4269148"><ele>479.0</ele><time>2026-05-02T13:36:58.115Z</time></trkpt><trkpt lat="46.158446" lon="13.4269618"><ele>477.75</ele><time>2026-05-02T13:37:00.115Z</time></trkpt><trkpt lat="46.1586293" lon="13.427032"><ele>476.5</ele><time>2026-05-02T13:37:02.115Z</time></trkpt><trkpt lat="46.1587433" lon="13.4270527"><ele>475.25</ele><time>2026-05-02T13:37:03.114Z</time></trkpt><trkpt lat="46.1588084" lon="13.4270485"><ele>474.0</ele><time>2026-05-02T13:37:04.114Z</time></trkpt><trkpt lat="46.1588879" lon="13.4269572"><ele>474.0</ele><time>2026-05-02T13:37:06.115Z</time></trkpt><trkpt lat="46.1589349" lon="13.4268889"><ele>474.0</ele><time>2026-05-02T13:37:07.115Z</time></trkpt><trkpt lat="46.1589803" lon="13.4268025"><ele>474.0</ele><time>2026-05-02T13:37:08.115Z</time></trkpt><trkpt lat="46.1590274" lon="13.4266972"><ele>474.0</ele><time>2026-05-02T13:37:09.114Z</time></trkpt><trkpt lat="46.1590797" lon="13.4265998"><ele>474.0</ele><time>2026-05-02T13:37:10.114Z</time></trkpt><trkpt lat="46.1591146" lon="13.426506"><ele>474.0</ele><time>2026-05-02T13:37:11.114Z</time></trkpt><trkpt lat="46.1591446" lon="13.4264083"><ele>474.4</ele><time>2026-05-02T13:37:12.114Z</time></trkpt><trkpt lat="46.1591785" lon="13.4263221"><ele>474.79999999999995</ele><time>2026-05-02T13:37:13.114Z</time></trkpt><trkpt lat="46.1591963" lon="13.4262037"><ele>475.20000000000005</ele><time>2026-05-02T13:37:14.115Z</time></trkpt><trkpt lat="46.1592162" lon="13.4260732"><ele>475.6</ele><time>2026-05-02T13:37:15.115Z</time></trkpt><trkpt lat="46.1592304" lon="13.4259297"><ele>476.0</ele><time>2026-05-02T13:37:16.115Z</time></trkpt><trkpt lat="46.1592396" lon="13.425779"><ele>476.0</ele><time>2026-05-02T13:37:17.114Z</time></trkpt><trkpt lat="46.1592462" lon="13.4256305"><ele>476.0</ele><time>2026-05-02T13:37:18.115Z</time></trkpt><trkpt lat="46.1592501" lon="13.4254922"><ele>476.0</ele><time>2026-05-02T13:37:19.114Z</time></trkpt><trkpt lat="46.1592565" lon="13.4253444"><ele>476.0</ele><time>2026-05-02T13:37:20.114Z</time></trkpt><trkpt lat="46.1592742" lon="13.4252128"><ele>476.0</ele><time>2026-05-02T13:37:21.115Z</time></trkpt><trkpt lat="46.1592989" lon="13.4250507"><ele>478.0</ele><time>2026-05-02T13:37:23.114Z</time></trkpt><trkpt lat="46.1592696" lon="13.4248924"><ele>480.0</ele><time>2026-05-02T13:37:25.115Z</time></trkpt><trkpt lat="46.1592279" lon="13.4247554"><ele>482.0</ele><time>2026-05-02T13:37:27.115Z</time></trkpt><trkpt lat="46.1591983" lon="13.4246274"><ele>484.0</ele><time>2026-05-02T13:37:29.114Z</time></trkpt><trkpt lat="46.1592397" lon="13.4245293"><ele>486.0</ele><time>2026-05-02T13:37:31.114Z</time></trkpt><trkpt lat="46.1592993" lon="13.4244627"><ele>488.3333333333333</ele><time>2026-05-02T13:37:32.114Z</time></trkpt><trkpt lat="46.1593551" lon="13.4243902"><ele>490.66666666666663</ele><time>2026-05-02T13:37:33.114Z</time></trkpt><trkpt lat="46.159441" lon="13.424281"><ele>493.0</ele><time>2026-05-02T13:37:35.114Z</time></trkpt><trkpt lat="46.159465" lon="13.4241889"><ele>495.3333333333333</ele><time>2026-05-02T13:37:36.115Z</time></trkpt><trkpt lat="46.1594687" lon="13.4240908"><ele>497.66666666666663</ele><time>2026-05-02T13:37:37.115Z</time></trkpt><trkpt lat="46.1594786" lon="13.423995"><ele>500.0</ele><time>2026-05-02T13:37:38.114Z</time></trkpt><trkpt lat="46.1594825" lon="13.4239032"><ele>500.4</ele><time>2026-05-02T13:37:39.114Z</time></trkpt><trkpt lat="46.1594695" lon="13.4238096"><ele>500.8</ele><time>2026-05-02T13:37:40.114Z</time></trkpt><trkpt lat="46.1594542" lon="13.4237111"><ele>501.20000000000005</ele><time>2026-05-02T13:37:41.114Z</time></trkpt><trkpt lat="46.159411" lon="13.4235616"><ele>501.6</ele><time>2026-05-02T13:37:43.114Z</time></trkpt><trkpt lat="46.1593662" lon="13.4234245"><ele>502.0</ele><time>2026-05-02T13:37:45.115Z</time></trkpt><trkpt lat="46.1593059" lon="13.4232994"><ele>502.0</ele><time>2026-05-02T13:37:47.114Z</time></trkpt><trkpt lat="46.1592544" lon="13.4231422"><ele>502.0</ele><time>2026-05-02T13:37:49.115Z</time></trkpt><trkpt lat="46.1591877" lon="13.4230064"><ele>502.0</ele><time>2026-05-02T13:37:51.114Z</time></trkpt><trkpt lat="46.1591059" lon="13.4228749"><ele>502.0</ele><time>2026-05-02T13:37:53.115Z</time></trkpt><trkpt lat="46.159108" lon="13.4227213"><ele>500.50000000000006</ele><time>2026-05-02T13:37:55.114Z</time></trkpt><trkpt lat="46.1591089" lon="13.422616"><ele>499.0</ele><time>2026-05-02T13:37:56.114Z</time></trkpt><trkpt lat="46.1591085" lon="13.4225159"><ele>497.5</ele><time>2026-05-02T13:37:57.114Z</time></trkpt><trkpt lat="46.159079" lon="13.4223477"><ele>496.0</ele><time>2026-05-02T13:37:59.114Z</time></trkpt><trkpt lat="46.1590715" lon="13.4222533"><ele>494.50000000000006</ele><time>2026-05-02T13:38:00.114Z</time></trkpt><trkpt lat="46.1590739" lon="13.4221291"><ele>493.0</ele><time>2026-05-02T13:38:01.114Z</time></trkpt><trkpt lat="46.1590791" lon="13.4220197"><ele>493.0</ele><time>2026-05-02T13:38:02.115Z</time></trkpt><trkpt lat="46.1590871" lon="13.421912"><ele>492.99999999999994</ele><time>2026-05-02T13:38:03.114Z</time></trkpt><trkpt lat="46.1590889" lon="13.4218072"><ele>492.99999999999994</ele><time>2026-05-02T13:38:04.114Z</time></trkpt><trkpt lat="46.1590911" lon="13.4216209"><ele>493.0</ele><time>2026-05-02T13:38:06.114Z</time></trkpt><trkpt lat="46.1590296" lon="13.4214858"><ele>493.0</ele><time>2026-05-02T13:38:08.114Z</time></trkpt><trkpt lat="46.1589936" lon="13.4214083"><ele>496.0</ele><time>2026-05-02T13:38:09.114Z</time></trkpt><trkpt lat="46.158918" lon="13.4212848"><ele>498.99999999999994</ele><time>2026-05-02T13:38:11.115Z</time></trkpt><trkpt lat="46.1588775" lon="13.4211718"><ele>501.99999999999994</ele><time>2026-05-02T13:38:13.115Z</time></trkpt><trkpt lat="46.1589084" lon="13.421053"><ele>505.0</ele><time>2026-05-02T13:38:15.114Z</time></trkpt><trkpt lat="46.1590209" lon="13.4209345"><ele>508.0</ele><time>2026-05-02T13:38:17.114Z</time></trkpt><trkpt lat="46.1591048" lon="13.4208666"><ele>508.00000000000006</ele><time>2026-05-02T13:38:18.114Z</time></trkpt><trkpt lat="46.1591737" lon="13.4207845"><ele>508.0</ele><time>2026-05-02T13:38:19.114Z</time></trkpt><trkpt lat="46.1592343" lon="13.4207186"><ele>508.0</ele><time>2026-05-02T13:38:20.114Z</time></trkpt><trkpt lat="46.1592983" lon="13.420657"><ele>508.0</ele><time>2026-05-02T13:38:21.114Z</time></trkpt><trkpt lat="46.1593506" lon="13.4205967"><ele>508.00000000000006</ele><time>2026-05-02T13:38:22.114Z</time></trkpt><trkpt lat="46.1594032" lon="13.4205292"><ele>508.0</ele><time>2026-05-02T13:38:23.114Z</time></trkpt><trkpt lat="46.1594529" lon="13.4204378"><ele>511.50000000000006</ele><time>2026-05-02T13:38:24.114Z</time></trkpt><trkpt lat="46.1595077" lon="13.4203611"><ele>515.0</ele><time>2026-05-02T13:38:25.115Z</time></trkpt><trkpt lat="46.1595536" lon="13.4202679"><ele>518.5</ele><time>2026-05-02T13:38:26.114Z</time></trkpt><trkpt lat="46.159599" lon="13.4201629"><ele>522.0</ele><time>2026-05-02T13:38:27.114Z</time></trkpt><trkpt lat="46.1596388" lon="13.4200775"><ele>525.5</ele><time>2026-05-02T13:38:28.115Z</time></trkpt><trkpt lat="46.1596784" lon="13.4199899"><ele>529.0</ele><time>2026-05-02T13:38:29.114Z</time></trkpt><trkpt lat="46.1597207" lon="13.4198824"><ele>529.0</ele><time>2026-05-02T13:38:30.114Z</time></trkpt><trkpt lat="46.1597556" lon="13.4197763"><ele>529.0</ele><time>2026-05-02T13:38:31.114Z</time></trkpt><trkpt lat="46.1597847" lon="13.4196605"><ele>529.0</ele><time>2026-05-02T13:38:32.115Z</time></trkpt><trkpt lat="46.1598179" lon="13.4195472"><ele>529.0</ele><time>2026-05-02T13:38:33.114Z</time></trkpt><trkpt lat="46.1598391" lon="13.4194276"><ele>529.0</ele><time>2026-05-02T13:38:34.113Z</time></trkpt><trkpt lat="46.1598563" lon="13.4192988"><ele>529.0</ele><time>2026-05-02T13:38:35.114Z</time></trkpt><trkpt lat="46.1598753" lon="13.4191645"><ele>525.2</ele><time>2026-05-02T13:38:36.113Z</time></trkpt><trkpt lat="46.1598939" lon="13.4190329"><ele>521.4</ele><time>2026-05-02T13:38:37.113Z</time></trkpt><trkpt lat="46.1599031" lon="13.4189085"><ele>517.6</ele><time>2026-05-02T13:38:38.114Z</time></trkpt><trkpt lat="46.1599283" lon="13.4187818"><ele>513.8</ele><time>2026-05-02T13:38:39.114Z</time></trkpt><trkpt lat="46.1599544" lon="13.4186569"><ele>510.0</ele><time>2026-05-02T13:38:40.113Z</time></trkpt><trkpt lat="46.1599907" lon="13.418532"><ele>510.0</ele><time>2026-05-02T13:38:41.113Z</time></trkpt><trkpt lat="46.1600105" lon="13.4184198"><ele>510.0</ele><time>2026-05-02T13:38:42.113Z</time></trkpt><trkpt lat="46.1600332" lon="13.4183196"><ele>510.0</ele><time>2026-05-02T13:38:43.113Z</time></trkpt><trkpt lat="46.1600515" lon="13.4182293"><ele>510.0</ele><time>2026-05-02T13:38:44.113Z</time></trkpt><trkpt lat="46.16012" lon="13.4181118"><ele>510.0</ele><time>2026-05-02T13:38:46.113Z</time></trkpt><trkpt lat="46.1601937" lon="13.4180942"><ele>510.0</ele><time>2026-05-02T13:38:48.113Z</time></trkpt><trkpt lat="46.1602529" lon="13.4181746"><ele>510.0</ele><time>2026-05-02T13:38:50.114Z</time></trkpt><trkpt lat="46.1602962" lon="13.4183414"><ele>510.0</ele><time>2026-05-02T13:38:52.113Z</time></trkpt><trkpt lat="46.1602975" lon="13.4184544"><ele>510.0</ele><time>2026-05-02T13:38:53.114Z</time></trkpt><trkpt lat="46.160296" lon="13.4185631"><ele>510.0</ele><time>2026-05-02T13:38:54.114Z</time></trkpt><trkpt lat="46.1602876" lon="13.4186796"><ele>510.0</ele><time>2026-05-02T13:38:55.114Z</time></trkpt><trkpt lat="46.1602829" lon="13.4188043"><ele>510.0</ele><time>2026-05-02T13:38:56.113Z</time></trkpt><trkpt lat="46.1603055" lon="13.4190084"><ele>507.8</ele><time>2026-05-02T13:38:58.114Z</time></trkpt><trkpt lat="46.1603351" lon="13.4191265"><ele>505.6</ele><time>2026-05-02T13:38:59.114Z</time></trkpt><trkpt lat="46.1603739" lon="13.4192149"><ele>503.4</ele><time>2026-05-02T13:39:00.113Z</time></trkpt><trkpt lat="46.1604404" lon="13.4194053"><ele>501.2</ele><time>2026-05-02T13:39:02.114Z</time></trkpt><trkpt lat="46.1604793" lon="13.4195178"><ele>499.0</ele><time>2026-05-02T13:39:03.113Z</time></trkpt><trkpt lat="46.1604967" lon="13.4196343"><ele>496.0</ele><time>2026-05-02T13:39:04.114Z</time></trkpt><trkpt lat="46.1604967" lon="13.4197304"><ele>493.0</ele><time>2026-05-02T13:39:05.113Z</time></trkpt><trkpt lat="46.1604867" lon="13.4198218"><ele>490.0</ele><time>2026-05-02T13:39:06.113Z</time></trkpt><trkpt lat="46.1604967" lon="13.4199959"><ele>487.0</ele><time>2026-05-02T13:39:08.113Z</time></trkpt><trkpt lat="46.1605285" lon="13.4201424"><ele>484.0</ele><time>2026-05-02T13:39:10.113Z</time></trkpt><trkpt lat="46.1606063" lon="13.4202403"><ele>484.00000000000006</ele><time>2026-05-02T13:39:12.114Z</time></trkpt><trkpt lat="46.1606811" lon="13.4203499"><ele>484.0</ele><time>2026-05-02T13:39:14.114Z</time></trkpt><trkpt lat="46.1607207" lon="13.4204712"><ele>484.0</ele><time>2026-05-02T13:39:16.114Z</time></trkpt><trkpt lat="46.1607468" lon="13.4205686"><ele>484.0</ele><time>2026-05-02T13:39:18.113Z</time></trkpt><trkpt lat="46.1607871" lon="13.4206681"><ele>484.00000000000006</ele><time>2026-05-02T13:39:20.113Z</time></trkpt><trkpt lat="46.1608407" lon="13.4207231"><ele>484.0</ele><time>2026-05-02T13:39:21.113Z</time></trkpt><trkpt lat="46.1609031" lon="13.4207703"><ele>485.6</ele><time>2026-05-02T13:39:22.114Z</time></trkpt><trkpt lat="46.1609748" lon="13.4208378"><ele>487.2</ele><time>2026-05-02T13:39:23.114Z</time></trkpt><trkpt lat="46.1610565" lon="13.4208999"><ele>488.80000000000007</ele><time>2026-05-02T13:39:24.114Z</time></trkpt><trkpt lat="46.1611434" lon="13.4209713"><ele>490.40000000000003</ele><time>2026-05-02T13:39:25.113Z</time></trkpt><trkpt lat="46.1612285" lon="13.4210086"><ele>492.0</ele><time>2026-05-02T13:39:26.113Z</time></trkpt><trkpt lat="46.1613089" lon="13.4210589"><ele>492.0</ele><time>2026-05-02T13:39:27.113Z</time></trkpt><trkpt lat="46.1613903" lon="13.4211161"><ele>492.00000000000006</ele><time>2026-05-02T13:39:28.113Z</time></trkpt><trkpt lat="46.1614698" lon="13.4212029"><ele>492.00000000000006</ele><time>2026-05-02T13:39:29.113Z</time></trkpt><trkpt lat="46.1615426" lon="13.4213158"><ele>492.0</ele><time>2026-05-02T13:39:30.114Z</time></trkpt><trkpt lat="46.161596" lon="13.421452"><ele>492.0</ele><time>2026-05-02T13:39:31.113Z</time></trkpt><trkpt lat="46.1616306" lon="13.4216022"><ele>490.25</ele><time>2026-05-02T13:39:32.114Z</time></trkpt><trkpt lat="46.1616527" lon="13.4217582"><ele>488.5</ele><time>2026-05-02T13:39:33.114Z</time></trkpt><trkpt lat="46.1616868" lon="13.4219121"><ele>486.75</ele><time>2026-05-02T13:39:34.113Z</time></trkpt><trkpt lat="46.1617356" lon="13.4220639"><ele>485.0</ele><time>2026-05-02T13:39:35.113Z</time></trkpt><trkpt lat="46.1617874" lon="13.4222096"><ele>485.0</ele><time>2026-05-02T13:39:36.113Z</time></trkpt><trkpt lat="46.1618411" lon="13.4223578"><ele>485.0</ele><time>2026-05-02T13:39:37.114Z</time></trkpt><trkpt lat="46.1619003" lon="13.4224965"><ele>485.0</ele><time>2026-05-02T13:39:38.113Z</time></trkpt><trkpt lat="46.1619671" lon="13.4226276"><ele>485.0</ele><time>2026-05-02T13:39:39.113Z</time></trkpt><trkpt lat="46.1620439" lon="13.4227554"><ele>485.0</ele><time>2026-05-02T13:39:40.113Z</time></trkpt><trkpt lat="46.1621163" lon="13.42289"><ele>485.0</ele><time>2026-05-02T13:39:41.113Z</time></trkpt><trkpt lat="46.1621864" lon="13.423013"><ele>485.0</ele><time>2026-05-02T13:39:42.114Z</time></trkpt><trkpt lat="46.1622473" lon="13.423122"><ele>485.0</ele><time>2026-05-02T13:39:43.113Z</time></trkpt><trkpt lat="46.1623083" lon="13.4232144"><ele>485.0</ele><time>2026-05-02T13:39:44.114Z</time></trkpt><trkpt lat="46.1623794" lon="13.4232708"><ele>490.16666666666663</ele><time>2026-05-02T13:39:45.113Z</time></trkpt><trkpt lat="46.1624585" lon="13.4233073"><ele>495.3333333333333</ele><time>2026-05-02T13:39:46.113Z</time></trkpt><trkpt lat="46.1625071" lon="13.4233821"><ele>500.5</ele><time>2026-05-02T13:39:47.113Z</time></trkpt><trkpt lat="46.1625147" lon="13.4234884"><ele>505.66666666666663</ele><time>2026-05-02T13:39:48.114Z</time></trkpt><trkpt lat="46.1624698" lon="13.423625"><ele>510.8333333333333</ele><time>2026-05-02T13:39:49.113Z</time></trkpt><trkpt lat="46.1624252" lon="13.4237801"><ele>516.0</ele><time>2026-05-02T13:39:50.114Z</time></trkpt><trkpt lat="46.1623956" lon="13.4239523"><ele>518.75</ele><time>2026-05-02T13:39:51.113Z</time></trkpt><trkpt lat="46.162371" lon="13.4241294"><ele>521.5</ele><time>2026-05-02T13:39:52.114Z</time></trkpt><trkpt lat="46.162351" lon="13.424313"><ele>524.25</ele><time>2026-05-02T13:39:53.113Z</time></trkpt><trkpt lat="46.1623373" lon="13.4244939"><ele>527.0</ele><time>2026-05-02T13:39:54.114Z</time></trkpt><trkpt lat="46.1623276" lon="13.4246764"><ele>513.0</ele><time>2026-05-02T13:39:55.114Z</time></trkpt><trkpt lat="46.1623146" lon="13.4248496"><ele>499.0</ele><time>2026-05-02T13:39:56.113Z</time></trkpt><trkpt lat="46.1623043" lon="13.4250241"><ele>485.0</ele><time>2026-05-02T13:39:57.113Z</time></trkpt><trkpt lat="46.1622926" lon="13.4251856"><ele>471.0</ele><time>2026-05-02T13:39:58.113Z</time></trkpt><trkpt lat="46.1622833" lon="13.4253286"><ele>471.0</ele><time>2026-05-02T13:39:59.113Z</time></trkpt><trkpt lat="46.1622809" lon="13.4254579"><ele>471.0</ele><time>2026-05-02T13:40:00.113Z</time></trkpt><trkpt lat="46.1622867" lon="13.4255743"><ele>471.0</ele><time>2026-05-02T13:40:01.113Z</time></trkpt><trkpt lat="46.1622928" lon="13.4256766"><ele>471.0</ele><time>2026-05-02T13:40:02.113Z</time></trkpt><trkpt lat="46.1623429" lon="13.4257851"><ele>471.0</ele><time>2026-05-02T13:40:04.114Z</time></trkpt><trkpt lat="46.162397" lon="13.4256792"><ele>471.0</ele><time>2026-05-02T13:40:06.113Z</time></trkpt><trkpt lat="46.1623903" lon="13.4255584"><ele>484.20000000000005</ele><time>2026-05-02T13:40:07.113Z</time></trkpt><trkpt lat="46.1623916" lon="13.4254138"><ele>497.40000000000003</ele><time>2026-05-02T13:40:08.113Z</time></trkpt><trkpt lat="46.1624022" lon="13.425276"><ele>510.6</ele><time>2026-05-02T13:40:09.114Z</time></trkpt><trkpt lat="46.1624346" lon="13.4251244"><ele>523.8000000000001</ele><time>2026-05-02T13:40:10.114Z</time></trkpt><trkpt lat="46.1624597" lon="13.4249693"><ele>537.0</ele><time>2026-05-02T13:40:11.113Z</time></trkpt><trkpt lat="46.1624858" lon="13.4248071"><ele>534.5</ele><time>2026-05-02T13:40:12.114Z</time></trkpt><trkpt lat="46.1625198" lon="13.4246423"><ele>532.0</ele><time>2026-05-02T13:40:13.114Z</time></trkpt><trkpt lat="46.1625583" lon="13.4244722"><ele>529.5</ele><time>2026-05-02T13:40:14.113Z</time></trkpt><trkpt lat="46.162605" lon="13.4243053"><ele>527.0</ele><time>2026-05-02T13:40:15.114Z</time></trkpt><trkpt lat="46.1626708" lon="13.4241437"><ele>527.0</ele><time>2026-05-02T13:40:16.113Z</time></trkpt><trkpt lat="46.1627389" lon="13.4239882"><ele>527.0</ele><time>2026-05-02T13:40:17.113Z</time></trkpt><trkpt lat="46.162805" lon="13.4238385"><ele>527.0</ele><time>2026-05-02T13:40:18.113Z</time></trkpt><trkpt lat="46.1628732" lon="13.423696"><ele>527.0</ele><time>2026-05-02T13:40:19.113Z</time></trkpt><trkpt lat="46.1629401" lon="13.4235622"><ele>524.8000000000001</ele><time>2026-05-02T13:40:20.113Z</time></trkpt><trkpt lat="46.1629954" lon="13.4234489"><ele>522.6</ele><time>2026-05-02T13:40:21.114Z</time></trkpt><trkpt lat="46.1630355" lon="13.423347"><ele>520.4000000000001</ele><time>2026-05-02T13:40:22.114Z</time></trkpt><trkpt lat="46.1630638" lon="13.423232"><ele>518.2</ele><time>2026-05-02T13:40:23.113Z</time></trkpt><trkpt lat="46.1630453" lon="13.4231032"><ele>516.0</ele><time>2026-05-02T13:40:24.113Z</time></trkpt><trkpt lat="46.162985" lon="13.4229759"><ele>516.0</ele><time>2026-05-02T13:40:25.113Z</time></trkpt><trkpt lat="46.1628881" lon="13.4228527"><ele>516.0</ele><time>2026-05-02T13:40:26.113Z</time></trkpt><trkpt lat="46.1627873" lon="13.4227149"><ele>516.0</ele><time>2026-05-02T13:40:27.114Z</time></trkpt><trkpt lat="46.1627172" lon="13.4225713"><ele>516.0</ele><time>2026-05-02T13:40:28.113Z</time></trkpt><trkpt lat="46.1626618" lon="13.4224243"><ele>516.0</ele><time>2026-05-02T13:40:29.114Z</time></trkpt><trkpt lat="46.1626285" lon="13.4222681"><ele>516.0</ele><time>2026-05-02T13:40:30.113Z</time></trkpt><trkpt lat="46.1626133" lon="13.4221002"><ele>516.0</ele><time>2026-05-02T13:40:31.113Z</time></trkpt><trkpt lat="46.1626083" lon="13.4219151"><ele>516.0</ele><time>2026-05-02T13:40:32.113Z</time></trkpt><trkpt lat="46.1626234" lon="13.421725"><ele>524.0</ele><time>2026-05-02T13:40:33.113Z</time></trkpt><trkpt lat="46.1626377" lon="13.4215325"><ele>532.0</ele><time>2026-05-02T13:40:34.113Z</time></trkpt><trkpt lat="46.1626523" lon="13.4213449"><ele>540.0</ele><time>2026-05-02T13:40:35.114Z</time></trkpt><trkpt lat="46.1626715" lon="13.4211509"><ele>548.0</ele><time>2026-05-02T13:40:36.114Z</time></trkpt><trkpt lat="46.1626964" lon="13.4209661"><ele>548.0</ele><time>2026-05-02T13:40:37.114Z</time></trkpt><trkpt lat="46.1627173" lon="13.4207935"><ele>548.0</ele><time>2026-05-02T13:40:38.113Z</time></trkpt><trkpt lat="46.162738" lon="13.4206257"><ele>548.0</ele><time>2026-05-02T13:40:39.113Z</time></trkpt><trkpt lat="46.1627558" lon="13.4204552"><ele>548.0</ele><time>2026-05-02T13:40:40.114Z</time></trkpt><trkpt lat="46.1627771" lon="13.4202767"><ele>548.6</ele><time>2026-05-02T13:40:41.114Z</time></trkpt><trkpt lat="46.1627938" lon="13.4201129"><ele>549.1999999999999</ele><time>2026-05-02T13:40:42.113Z</time></trkpt><trkpt lat="46.1628117" lon="13.4199735"><ele>549.8</ele><time>2026-05-02T13:40:43.114Z</time></trkpt><trkpt lat="46.1628263" lon="13.4198368"><ele>550.4</ele><time>2026-05-02T13:40:44.113Z</time></trkpt><trkpt lat="46.1628309" lon="13.4196866"><ele>551.0</ele><time>2026-05-02T13:40:45.114Z</time></trkpt><trkpt lat="46.1628297" lon="13.419509"><ele>556.5</ele><time>2026-05-02T13:40:46.113Z</time></trkpt><trkpt lat="46.1628042" lon="13.4193199"><ele>562.0</ele><time>2026-05-02T13:40:47.114Z</time></trkpt><trkpt lat="46.162777" lon="13.4191442"><ele>567.5</ele><time>2026-05-02T13:40:48.113Z</time></trkpt><trkpt lat="46.1627539" lon="13.4189736"><ele>573.0</ele><time>2026-05-02T13:40:49.114Z</time></trkpt><trkpt lat="46.1627468" lon="13.418808"><ele>576.25</ele><time>2026-05-02T13:40:50.113Z</time></trkpt><trkpt lat="46.1627622" lon="13.4186338"><ele>579.5</ele><time>2026-05-02T13:40:51.113Z</time></trkpt><trkpt lat="46.1627859" lon="13.4184515"><ele>582.75</ele><time>2026-05-02T13:40:52.113Z</time></trkpt><trkpt lat="46.1628218" lon="13.4182593"><ele>586.0</ele><time>2026-05-02T13:40:53.113Z</time></trkpt><trkpt lat="46.1628713" lon="13.4180688"><ele>584.5</ele><time>2026-05-02T13:40:54.113Z</time></trkpt><trkpt lat="46.1629145" lon="13.4178924"><ele>583.0</ele><time>2026-05-02T13:40:55.114Z</time></trkpt><trkpt lat="46.1629565" lon="13.4177253"><ele>581.5</ele><time>2026-05-02T13:40:56.114Z</time></trkpt><trkpt lat="46.1630036" lon="13.4175772"><ele>580.0</ele><time>2026-05-02T13:40:57.113Z</time></trkpt><trkpt lat="46.1630491" lon="13.4174533"><ele>580.0</ele><time>2026-05-02T13:40:58.114Z</time></trkpt><trkpt lat="46.1630991" lon="13.4173448"><ele>580.0</ele><time>2026-05-02T13:40:59.114Z</time></trkpt><trkpt lat="46.1631492" lon="13.4172356"><ele>580.0</ele><time>2026-05-02T13:41:00.113Z</time></trkpt><trkpt lat="46.163225" lon="13.4171456"><ele>580.0</ele><time>2026-05-02T13:41:01.114Z</time></trkpt><trkpt lat="46.163319" lon="13.4170743"><ele>580.0</ele><time>2026-05-02T13:41:02.113Z</time></trkpt><trkpt lat="46.1634264" lon="13.4170209"><ele>585.0</ele><time>2026-05-02T13:41:03.113Z</time></trkpt><trkpt lat="46.1635353" lon="13.4169821"><ele>590.0</ele><time>2026-05-02T13:41:04.113Z</time></trkpt><trkpt lat="46.1636399" lon="13.4169427"><ele>595.0</ele><time>2026-05-02T13:41:05.113Z</time></trkpt><trkpt lat="46.1637432" lon="13.4168889"><ele>600.0</ele><time>2026-05-02T13:41:06.114Z</time></trkpt><trkpt lat="46.163842" lon="13.4168192"><ele>605.0</ele><time>2026-05-02T13:41:07.113Z</time></trkpt><trkpt lat="46.1639324" lon="13.4167454"><ele>605.0</ele><time>2026-05-02T13:41:08.114Z</time></trkpt><trkpt lat="46.1640105" lon="13.4166611"><ele>605.0</ele><time>2026-05-02T13:41:09.114Z</time></trkpt><trkpt lat="46.1640752" lon="13.4165775"><ele>605.0</ele><time>2026-05-02T13:41:10.113Z</time></trkpt><trkpt lat="46.1641207" lon="13.4164957"><ele>605.0</ele><time>2026-05-02T13:41:11.114Z</time></trkpt><trkpt lat="46.1641421" lon="13.416402"><ele>605.0</ele><time>2026-05-02T13:41:12.113Z</time></trkpt><trkpt lat="46.164147" lon="13.4162851"><ele>605.0</ele><time>2026-05-02T13:41:13.113Z</time></trkpt><trkpt lat="46.1641176" lon="13.4161539"><ele>604.6</ele><time>2026-05-02T13:41:14.113Z</time></trkpt><trkpt lat="46.1640541" lon="13.4160439"><ele>604.2</ele><time>2026-05-02T13:41:15.114Z</time></trkpt><trkpt lat="46.1639748" lon="13.415959"><ele>603.8</ele><time>2026-05-02T13:41:16.113Z</time></trkpt><trkpt lat="46.1638907" lon="13.4158774"><ele>603.4</ele><time>2026-05-02T13:41:17.113Z</time></trkpt><trkpt lat="46.1638029" lon="13.4157643"><ele>603.0</ele><time>2026-05-02T13:41:18.113Z</time></trkpt><trkpt lat="46.1637401" lon="13.4156219"><ele>603.0</ele><time>2026-05-02T13:41:19.113Z</time></trkpt><trkpt lat="46.1636695" lon="13.4155013"><ele>603.0</ele><time>2026-05-02T13:41:20.114Z</time></trkpt><trkpt lat="46.1635961" lon="13.4154206"><ele>603.0</ele><time>2026-05-02T13:41:21.113Z</time></trkpt><trkpt lat="46.1635284" lon="13.4153488"><ele>603.0</ele><time>2026-05-02T13:41:22.113Z</time></trkpt><trkpt lat="46.1634786" lon="13.415232"><ele>603.0</ele><time>2026-05-02T13:41:23.113Z</time></trkpt><trkpt lat="46.1634342" lon="13.4150951"><ele>602.8</ele><time>2026-05-02T13:41:24.113Z</time></trkpt><trkpt lat="46.1633777" lon="13.4149695"><ele>602.5999999999999</ele><time>2026-05-02T13:41:25.114Z</time></trkpt><trkpt lat="46.1632949" lon="13.4148947"><ele>602.4000000000001</ele><time>2026-05-02T13:41:26.114Z</time></trkpt><trkpt lat="46.1632197" lon="13.414817"><ele>602.2</ele><time>2026-05-02T13:41:27.113Z</time></trkpt><trkpt lat="46.1631775" lon="13.4147042"><ele>602.0</ele><time>2026-05-02T13:41:28.113Z</time></trkpt><trkpt lat="46.1631824" lon="13.414575"><ele>608.0</ele><time>2026-05-02T13:41:29.113Z</time></trkpt><trkpt lat="46.1632007" lon="13.4144485"><ele>614.0</ele><time>2026-05-02T13:41:30.113Z</time></trkpt><trkpt lat="46.1631885" lon="13.4143232"><ele>620.0</ele><time>2026-05-02T13:41:31.113Z</time></trkpt><trkpt lat="46.1631517" lon="13.4141985"><ele>626.0</ele><time>2026-05-02T13:41:32.114Z</time></trkpt><trkpt lat="46.1630708" lon="13.4141071"><ele>632.0</ele><time>2026-05-02T13:41:33.113Z</time></trkpt><trkpt lat="46.1629589" lon="13.4140378"><ele>632.0</ele><time>2026-05-02T13:41:34.113Z</time></trkpt><trkpt lat="46.1628394" lon="13.41396"><ele>632.0</ele><time>2026-05-02T13:41:35.113Z</time></trkpt><trkpt lat="46.1627312" lon="13.4138708"><ele>632.0</ele><time>2026-05-02T13:41:36.114Z</time></trkpt><trkpt lat="46.1626301" lon="13.4137889"><ele>632.0</ele><time>2026-05-02T13:41:37.113Z</time></trkpt><trkpt lat="46.1625408" lon="13.4136993"><ele>632.0</ele><time>2026-05-02T13:41:38.113Z</time></trkpt><trkpt lat="46.1624574" lon="13.4136143"><ele>632.0</ele><time>2026-05-02T13:41:39.113Z</time></trkpt><trkpt lat="46.1623827" lon="13.4135273"><ele>632.0</ele><time>2026-05-02T13:41:40.113Z</time></trkpt><trkpt lat="46.1623104" lon="13.4134436"><ele>632.0</ele><time>2026-05-02T13:41:41.113Z</time></trkpt><trkpt lat="46.1622304" lon="13.4133593"><ele>632.0</ele><time>2026-05-02T13:41:42.113Z</time></trkpt><trkpt lat="46.1621447" lon="13.4133047"><ele>632.0</ele><time>2026-05-02T13:41:43.113Z</time></trkpt><trkpt lat="46.1620709" lon="13.4132393"><ele>632.0</ele><time>2026-05-02T13:41:44.113Z</time></trkpt><trkpt lat="46.1620029" lon="13.4131535"><ele>632.0</ele><time>2026-05-02T13:41:45.113Z</time></trkpt><trkpt lat="46.1619377" lon="13.4130566"><ele>632.0</ele><time>2026-05-02T13:41:46.113Z</time></trkpt><trkpt lat="46.1618865" lon="13.4129435"><ele>632.0</ele><time>2026-05-02T13:41:47.114Z</time></trkpt><trkpt lat="46.1618529" lon="13.4128154"><ele>633.6</ele><time>2026-05-02T13:41:48.113Z</time></trkpt><trkpt lat="46.1618376" lon="13.412661"><ele>635.2</ele><time>2026-05-02T13:41:49.113Z</time></trkpt><trkpt lat="46.1618342" lon="13.412495"><ele>636.8</ele><time>2026-05-02T13:41:50.113Z</time></trkpt><trkpt lat="46.1618293" lon="13.4123374"><ele>638.4</ele><time>2026-05-02T13:41:51.114Z</time></trkpt><trkpt lat="46.1618171" lon="13.4121908"><ele>640.0</ele><time>2026-05-02T13:41:52.114Z</time></trkpt><trkpt lat="46.1618205" lon="13.412042"><ele>640.0</ele><time>2026-05-02T13:41:53.113Z</time></trkpt><trkpt lat="46.1618324" lon="13.4118981"><ele>640.0</ele><time>2026-05-02T13:41:54.113Z</time></trkpt><trkpt lat="46.161861" lon="13.4117512"><ele>640.0</ele><time>2026-05-02T13:41:55.113Z</time></trkpt><trkpt lat="46.1619024" lon="13.4115917"><ele>640.0</ele><time>2026-05-02T13:41:56.113Z</time></trkpt><trkpt lat="46.1619534" lon="13.4114288"><ele>640.0</ele><time>2026-05-02T13:41:57.113Z</time></trkpt><trkpt lat="46.1620017" lon="13.4112648"><ele>640.8</ele><time>2026-05-02T13:41:58.113Z</time></trkpt><trkpt lat="46.1620436" lon="13.4111047"><ele>641.6</ele><time>2026-05-02T13:41:59.114Z</time></trkpt><trkpt lat="46.1620786" lon="13.4109466"><ele>642.4000000000001</ele><time>2026-05-02T13:42:00.113Z</time></trkpt><trkpt lat="46.1621013" lon="13.4107964"><ele>643.2</ele><time>2026-05-02T13:42:01.114Z</time></trkpt><trkpt lat="46.1620984" lon="13.4106493"><ele>644.0</ele><time>2026-05-02T13:42:02.113Z</time></trkpt><trkpt lat="46.1620699" lon="13.4105199"><ele>644.8000000000001</ele><time>2026-05-02T13:42:03.113Z</time></trkpt><trkpt lat="46.1620259" lon="13.4103992"><ele>645.6</ele><time>2026-05-02T13:42:04.114Z</time></trkpt><trkpt lat="46.1619969" lon="13.4102777"><ele>646.4</ele><time>2026-05-02T13:42:05.114Z</time></trkpt><trkpt lat="46.1619895" lon="13.4101476"><ele>647.2</ele><time>2026-05-02T13:42:06.114Z</time></trkpt><trkpt lat="46.1619956" lon="13.4100021"><ele>648.0</ele><time>2026-05-02T13:42:07.113Z</time></trkpt><trkpt lat="46.1620189" lon="13.4098439"><ele>648.0</ele><time>2026-05-02T13:42:08.113Z</time></trkpt><trkpt lat="46.1620565" lon="13.4096784"><ele>648.0</ele><time>2026-05-02T13:42:09.113Z</time></trkpt><trkpt lat="46.1621187" lon="13.4095236"><ele>648.0</ele><time>2026-05-02T13:42:10.114Z</time></trkpt><trkpt lat="46.1621803" lon="13.4093721"><ele>648.0</ele><time>2026-05-02T13:42:11.113Z</time></trkpt><trkpt lat="46.1622371" lon="13.4092218"><ele>649.8</ele><time>2026-05-02T13:42:12.113Z</time></trkpt><trkpt lat="46.1623031" lon="13.4090721"><ele>651.5999999999999</ele><time>2026-05-02T13:42:13.113Z</time></trkpt><trkpt lat="46.1623712" lon="13.4089341"><ele>653.4000000000001</ele><time>2026-05-02T13:42:14.114Z</time></trkpt><trkpt lat="46.1624331" lon="13.4087998"><ele>655.2</ele><time>2026-05-02T13:42:15.113Z</time></trkpt><trkpt lat="46.1624857" lon="13.4086846"><ele>657.0</ele><time>2026-05-02T13:42:16.113Z</time></trkpt><trkpt lat="46.1625263" lon="13.4086001"><ele>662.1666666666666</ele><time>2026-05-02T13:42:17.114Z</time></trkpt><trkpt lat="46.1625723" lon="13.4085189"><ele>667.3333333333334</ele><time>2026-05-02T13:42:18.113Z</time></trkpt><trkpt lat="46.1626135" lon="13.4084346"><ele>672.5</ele><time>2026-05-02T13:42:19.113Z</time></trkpt><trkpt lat="46.1626431" lon="13.4083447"><ele>677.6666666666667</ele><time>2026-05-02T13:42:20.113Z</time></trkpt><trkpt lat="46.162655" lon="13.4082511"><ele>682.8333333333334</ele><time>2026-05-02T13:42:21.113Z</time></trkpt><trkpt lat="46.1626037" lon="13.4081252"><ele>688.0</ele><time>2026-05-02T13:42:23.114Z</time></trkpt><trkpt lat="46.1625004" lon="13.4080474"><ele>688.0</ele><time>2026-05-02T13:42:25.113Z</time></trkpt><trkpt lat="46.1624408" lon="13.4080174"><ele>688.0</ele><time>2026-05-02T13:42:26.114Z</time></trkpt><trkpt lat="46.162354" lon="13.4079281"><ele>688.0</ele><time>2026-05-02T13:42:28.113Z</time></trkpt><trkpt lat="46.1623187" lon="13.4077977"><ele>688.0</ele><time>2026-05-02T13:42:30.114Z</time></trkpt><trkpt lat="46.162242" lon="13.4077602"><ele>688.0</ele><time>2026-05-02T13:42:32.114Z</time></trkpt><trkpt lat="46.1621659" lon="13.4078211"><ele>688.0</ele><time>2026-05-02T13:42:33.112Z</time></trkpt><trkpt lat="46.1620909" lon="13.4078936"><ele>687.2</ele><time>2026-05-02T13:42:34.113Z</time></trkpt><trkpt lat="46.1620163" lon="13.4079642"><ele>686.4</ele><time>2026-05-02T13:42:35.112Z</time></trkpt><trkpt lat="46.1619518" lon="13.4080326"><ele>685.6</ele><time>2026-05-02T13:42:36.112Z</time></trkpt><trkpt lat="46.1618955" lon="13.4080901"><ele>684.8000000000001</ele><time>2026-05-02T13:42:37.112Z</time></trkpt><trkpt lat="46.1617944" lon="13.4081605"><ele>684.0</ele><time>2026-05-02T13:42:39.112Z</time></trkpt><trkpt lat="46.1616796" lon="13.4081941"><ele>684.0</ele><time>2026-05-02T13:42:41.113Z</time></trkpt><trkpt lat="46.1616011" lon="13.4081892"><ele>684.0</ele><time>2026-05-02T13:42:42.112Z</time></trkpt><trkpt lat="46.1615255" lon="13.4081757"><ele>684.0</ele><time>2026-05-02T13:42:43.113Z</time></trkpt><trkpt lat="46.1614564" lon="13.4081573"><ele>684.0</ele><time>2026-05-02T13:42:44.113Z</time></trkpt><trkpt lat="46.1613414" lon="13.4081428"><ele>684.0</ele><time>2026-05-02T13:42:46.112Z</time></trkpt><trkpt lat="46.1612476" lon="13.4081552"><ele>684.0</ele><time>2026-05-02T13:42:48.113Z</time></trkpt><trkpt lat="46.1611629" lon="13.4081964"><ele>685.5</ele><time>2026-05-02T13:42:50.113Z</time></trkpt><trkpt lat="46.1610583" lon="13.4082472"><ele>687.0</ele><time>2026-05-02T13:42:52.112Z</time></trkpt><trkpt lat="46.1609472" lon="13.4083181"><ele>688.5</ele><time>2026-05-02T13:42:54.113Z</time></trkpt><trkpt lat="46.1608852" lon="13.4083689"><ele>690.0</ele><time>2026-05-02T13:42:55.112Z</time></trkpt><trkpt lat="46.1608238" lon="13.408436"><ele>691.5</ele><time>2026-05-02T13:42:56.112Z</time></trkpt><trkpt lat="46.1607726" lon="13.4085005"><ele>693.0</ele><time>2026-05-02T13:42:57.112Z</time></trkpt><trkpt lat="46.1606976" lon="13.4086296"><ele>695.3333333333334</ele><time>2026-05-02T13:42:59.112Z</time></trkpt><trkpt lat="46.1606462" lon="13.4087588"><ele>697.6666666666666</ele><time>2026-05-02T13:43:01.112Z</time></trkpt><trkpt lat="46.1606427" lon="13.4088594"><ele>700.0</ele><time>2026-05-02T13:43:02.112Z</time></trkpt><trkpt lat="46.1606541" lon="13.4089824"><ele>702.3333333333333</ele><time>2026-05-02T13:43:03.112Z</time></trkpt><trkpt lat="46.1606607" lon="13.4091045"><ele>704.6666666666666</ele><time>2026-05-02T13:43:04.112Z</time></trkpt><trkpt lat="46.1606688" lon="13.4092152"><ele>707.0</ele><time>2026-05-02T13:43:05.112Z</time></trkpt><trkpt lat="46.1606614" lon="13.4093165"><ele>707.0</ele><time>2026-05-02T13:43:06.113Z</time></trkpt><trkpt lat="46.1606569" lon="13.4094072"><ele>707.0</ele><time>2026-05-02T13:43:07.113Z</time></trkpt><trkpt lat="46.1606396" lon="13.4095678"><ele>707.0</ele><time>2026-05-02T13:43:09.113Z</time></trkpt><trkpt lat="46.1605952" lon="13.4097385"><ele>707.0</ele><time>2026-05-02T13:43:11.112Z</time></trkpt><trkpt lat="46.1605632" lon="13.4098231"><ele>707.0</ele><time>2026-05-02T13:43:12.112Z</time></trkpt><trkpt lat="46.1604957" lon="13.4099455"><ele>703.5</ele><time>2026-05-02T13:43:14.112Z</time></trkpt><trkpt lat="46.1604003" lon="13.4100475"><ele>700.0</ele><time>2026-05-02T13:43:16.112Z</time></trkpt><trkpt lat="46.1603428" lon="13.4100936"><ele>696.5</ele><time>2026-05-02T13:43:17.113Z</time></trkpt><trkpt lat="46.1602843" lon="13.4101355"><ele>693.0</ele><time>2026-05-02T13:43:18.112Z</time></trkpt><trkpt lat="46.1602225" lon="13.4101882"><ele>689.5</ele><time>2026-05-02T13:43:19.112Z</time></trkpt><trkpt lat="46.1601616" lon="13.4102473"><ele>686.0</ele><time>2026-05-02T13:43:20.112Z</time></trkpt><trkpt lat="46.1601151" lon="13.4103171"><ele>686.0</ele><time>2026-05-02T13:43:21.112Z</time></trkpt><trkpt lat="46.1600757" lon="13.4103982"><ele>686.0</ele><time>2026-05-02T13:43:22.113Z</time></trkpt><trkpt lat="46.1600392" lon="13.410478"><ele>686.0</ele><time>2026-05-02T13:43:23.112Z</time></trkpt><trkpt lat="46.1599523" lon="13.4105824"><ele>686.0</ele><time>2026-05-02T13:43:25.112Z</time></trkpt><trkpt lat="46.1598471" lon="13.4106619"><ele>686.0</ele><time>2026-05-02T13:43:27.112Z</time></trkpt><trkpt lat="46.1597878" lon="13.4107129"><ele>686.0</ele><time>2026-05-02T13:43:28.113Z</time></trkpt><trkpt lat="46.1597368" lon="13.4107888"><ele>687.8571428571429</ele><time>2026-05-02T13:43:29.113Z</time></trkpt><trkpt lat="46.1597168" lon="13.4108793"><ele>689.7142857142858</ele><time>2026-05-02T13:43:30.113Z</time></trkpt><trkpt lat="46.159722" lon="13.4109801"><ele>691.5714285714286</ele><time>2026-05-02T13:43:31.113Z</time></trkpt><trkpt lat="46.1597327" lon="13.4110899"><ele>693.4285714285714</ele><time>2026-05-02T13:43:32.112Z</time></trkpt><trkpt lat="46.1597353" lon="13.4111967"><ele>695.2857142857143</ele><time>2026-05-02T13:43:33.112Z</time></trkpt><trkpt lat="46.1597405" lon="13.4112875"><ele>697.1428571428571</ele><time>2026-05-02T13:43:34.112Z</time></trkpt><trkpt lat="46.1597452" lon="13.4113911"><ele>699.0</ele><time>2026-05-02T13:43:35.112Z</time></trkpt><trkpt lat="46.1597372" lon="13.4114942"><ele>699.0</ele><time>2026-05-02T13:43:36.112Z</time></trkpt><trkpt lat="46.1597195" lon="13.4115964"><ele>699.0</ele><time>2026-05-02T13:43:37.113Z</time></trkpt><trkpt lat="46.1596794" lon="13.4117008"><ele>699.0</ele><time>2026-05-02T13:43:38.112Z</time></trkpt><trkpt lat="46.1596379" lon="13.4118072"><ele>699.0</ele><time>2026-05-02T13:43:39.112Z</time></trkpt><trkpt lat="46.1595963" lon="13.4119172"><ele>699.0</ele><time>2026-05-02T13:43:40.112Z</time></trkpt><trkpt lat="46.1595549" lon="13.4120227"><ele>699.0</ele><time>2026-05-02T13:43:41.112Z</time></trkpt><trkpt lat="46.1595235" lon="13.4121278"><ele>694.6666666666666</ele><time>2026-05-02T13:43:42.112Z</time></trkpt><trkpt lat="46.1595038" lon="13.4122434"><ele>690.3333333333334</ele><time>2026-05-02T13:43:43.112Z</time></trkpt><trkpt lat="46.1594693" lon="13.4123576"><ele>686.0</ele><time>2026-05-02T13:43:44.113Z</time></trkpt><trkpt lat="46.159437" lon="13.412462"><ele>681.6666666666667</ele><time>2026-05-02T13:43:45.112Z</time></trkpt><trkpt lat="46.1594011" lon="13.4125513"><ele>677.3333333333334</ele><time>2026-05-02T13:43:46.112Z</time></trkpt><trkpt lat="46.1593706" lon="13.4126376"><ele>673.0</ele><time>2026-05-02T13:43:47.113Z</time></trkpt><trkpt lat="46.1593403" lon="13.4127265"><ele>673.0</ele><time>2026-05-02T13:43:48.112Z</time></trkpt><trkpt lat="46.1592663" lon="13.4128491"><ele>673.0</ele><time>2026-05-02T13:43:50.112Z</time></trkpt><trkpt lat="46.1591505" lon="13.4129187"><ele>673.0</ele><time>2026-05-02T13:43:52.112Z</time></trkpt><trkpt lat="46.1590256" lon="13.4129385"><ele>673.0</ele><time>2026-05-02T13:43:54.112Z</time></trkpt><trkpt lat="46.1589606" lon="13.412973"><ele>673.0</ele><time>2026-05-02T13:43:55.112Z</time></trkpt><trkpt lat="46.1588533" lon="13.4130496"><ele>671.8333333333334</ele><time>2026-05-02T13:43:57.113Z</time></trkpt><trkpt lat="46.1587303" lon="13.4131213"><ele>670.6666666666667</ele><time>2026-05-02T13:43:59.112Z</time></trkpt><trkpt lat="46.1586529" lon="13.4131299"><ele>669.5</ele><time>2026-05-02T13:44:00.112Z</time></trkpt><trkpt lat="46.1585681" lon="13.4131226"><ele>668.3333333333334</ele><time>2026-05-02T13:44:01.113Z</time></trkpt><trkpt lat="46.1584835" lon="13.4131188"><ele>667.1666666666666</ele><time>2026-05-02T13:44:02.113Z</time></trkpt><trkpt lat="46.1584153" lon="13.4131171"><ele>666.0</ele><time>2026-05-02T13:44:03.113Z</time></trkpt><trkpt lat="46.1582942" lon="13.4131431"><ele>671.6666666666666</ele><time>2026-05-02T13:44:05.112Z</time></trkpt><trkpt lat="46.1581999" lon="13.4131955"><ele>677.3333333333334</ele><time>2026-05-02T13:44:07.112Z</time></trkpt><trkpt lat="46.1581224" lon="13.4133375"><ele>683.0</ele><time>2026-05-02T13:44:09.112Z</time></trkpt><trkpt lat="46.1581034" lon="13.4134315"><ele>688.6666666666667</ele><time>2026-05-02T13:44:10.112Z</time></trkpt><trkpt lat="46.1580821" lon="13.4135357"><ele>694.3333333333334</ele><time>2026-05-02T13:44:11.113Z</time></trkpt><trkpt lat="46.1580563" lon="13.4136382"><ele>700.0</ele><time>2026-05-02T13:44:12.112Z</time></trkpt><trkpt lat="46.1580331" lon="13.4137293"><ele>696.5</ele><time>2026-05-02T13:44:13.112Z</time></trkpt><trkpt lat="46.1579965" lon="13.4138292"><ele>693.0</ele><time>2026-05-02T13:44:14.113Z</time></trkpt><trkpt lat="46.1579622" lon="13.4139151"><ele>689.5</ele><time>2026-05-02T13:44:15.112Z</time></trkpt><trkpt lat="46.1579274" lon="13.4139956"><ele>686.0</ele><time>2026-05-02T13:44:16.112Z</time></trkpt><trkpt lat="46.1579142" lon="13.4140895"><ele>682.5</ele><time>2026-05-02T13:44:17.113Z</time></trkpt><trkpt lat="46.157898" lon="13.4142748"><ele>679.0</ele><time>2026-05-02T13:44:19.112Z</time></trkpt><trkpt lat="46.1579122" lon="13.4143723"><ele>679.0</ele><time>2026-05-02T13:44:20.112Z</time></trkpt><trkpt lat="46.157923" lon="13.4144672"><ele>679.0</ele><time>2026-05-02T13:44:21.112Z</time></trkpt><trkpt lat="46.1579256" lon="13.4146244"><ele>679.0</ele><time>2026-05-02T13:44:23.113Z</time></trkpt><trkpt lat="46.1578831" lon="13.4147476"><ele>679.0</ele><time>2026-05-02T13:44:25.113Z</time></trkpt><trkpt lat="46.1577866" lon="13.414836"><ele>679.0</ele><time>2026-05-02T13:44:27.113Z</time></trkpt><trkpt lat="46.1577226" lon="13.4148999"><ele>676.3333333333334</ele><time>2026-05-02T13:44:28.113Z</time></trkpt><trkpt lat="46.157664" lon="13.4149777"><ele>673.6666666666667</ele><time>2026-05-02T13:44:29.112Z</time></trkpt><trkpt lat="46.1576165" lon="13.415061"><ele>671.0</ele><time>2026-05-02T13:44:30.113Z</time></trkpt><trkpt lat="46.1575718" lon="13.415151"><ele>668.3333333333334</ele><time>2026-05-02T13:44:31.113Z</time></trkpt><trkpt lat="46.1575306" lon="13.4152443"><ele>665.6666666666666</ele><time>2026-05-02T13:44:32.113Z</time></trkpt><trkpt lat="46.1574843" lon="13.4153253"><ele>663.0</ele><time>2026-05-02T13:44:33.112Z</time></trkpt><trkpt lat="46.1574387" lon="13.4154176"><ele>662.8571428571428</ele><time>2026-05-02T13:44:34.113Z</time></trkpt><trkpt lat="46.1574001" lon="13.4155181"><ele>662.7142857142857</ele><time>2026-05-02T13:44:35.113Z</time></trkpt><trkpt lat="46.1573676" lon="13.4156195"><ele>662.5714285714286</ele><time>2026-05-02T13:44:36.112Z</time></trkpt><trkpt lat="46.1573389" lon="13.4157264"><ele>662.4285714285713</ele><time>2026-05-02T13:44:37.113Z</time></trkpt><trkpt lat="46.157316" lon="13.4158284"><ele>662.2857142857142</ele><time>2026-05-02T13:44:38.113Z</time></trkpt><trkpt lat="46.157307" lon="13.415928"><ele>662.1428571428571</ele><time>2026-05-02T13:44:39.112Z</time></trkpt><trkpt lat="46.1573197" lon="13.4160197"><ele>662.0</ele><time>2026-05-02T13:44:40.112Z</time></trkpt><trkpt lat="46.1573608" lon="13.4161201"><ele>662.0</ele><time>2026-05-02T13:44:41.113Z</time></trkpt><trkpt lat="46.1573996" lon="13.4162154"><ele>662.0</ele><time>2026-05-02T13:44:42.113Z</time></trkpt><trkpt lat="46.1574404" lon="13.4163126"><ele>662.0</ele><time>2026-05-02T13:44:43.112Z</time></trkpt><trkpt lat="46.1574861" lon="13.4164149"><ele>662.0</ele><time>2026-05-02T13:44:44.113Z</time></trkpt><trkpt lat="46.157509" lon="13.4165169"><ele>662.0</ele><time>2026-05-02T13:44:45.112Z</time></trkpt><trkpt lat="46.1575231" lon="13.4166246"><ele>662.0</ele><time>2026-05-02T13:44:46.112Z</time></trkpt><trkpt lat="46.1575136" lon="13.4167176"><ele>664.0</ele><time>2026-05-02T13:44:47.112Z</time></trkpt><trkpt lat="46.1575674" lon="13.4168682"><ele>666.0</ele><time>2026-05-02T13:44:49.113Z</time></trkpt><trkpt lat="46.1576458" lon="13.4170008"><ele>668.0</ele><time>2026-05-02T13:44:51.113Z</time></trkpt><trkpt lat="46.1577132" lon="13.4170563"><ele>670.0</ele><time>2026-05-02T13:44:52.113Z</time></trkpt><trkpt lat="46.1577769" lon="13.4171153"><ele>672.0</ele><time>2026-05-02T13:44:53.113Z</time></trkpt><trkpt lat="46.1578405" lon="13.4171822"><ele>673.6</ele><time>2026-05-02T13:44:54.113Z</time></trkpt><trkpt lat="46.1578994" lon="13.4172217"><ele>675.2</ele><time>2026-05-02T13:44:55.113Z</time></trkpt><trkpt lat="46.1580085" lon="13.4172817"><ele>676.8</ele><time>2026-05-02T13:44:57.112Z</time></trkpt><trkpt lat="46.158122" lon="13.4173396"><ele>678.4</ele><time>2026-05-02T13:44:59.112Z</time></trkpt><trkpt lat="46.158203" lon="13.4174227"><ele>680.0</ele><time>2026-05-02T13:45:01.113Z</time></trkpt><trkpt lat="46.1582682" lon="13.4175014"><ele>678.1666666666666</ele><time>2026-05-02T13:45:03.113Z</time></trkpt><trkpt lat="46.1582908" lon="13.41761"><ele>676.3333333333333</ele><time>2026-05-02T13:45:05.113Z</time></trkpt><trkpt lat="46.1582618" lon="13.4177915"><ele>674.5</ele><time>2026-05-02T13:45:07.112Z</time></trkpt><trkpt lat="46.1582429" lon="13.4178955"><ele>672.6666666666666</ele><time>2026-05-02T13:45:08.112Z</time></trkpt><trkpt lat="46.1582263" lon="13.4179964"><ele>670.8333333333334</ele><time>2026-05-02T13:45:09.112Z</time></trkpt><trkpt lat="46.1582141" lon="13.4180894"><ele>669.0</ele><time>2026-05-02T13:45:10.113Z</time></trkpt><trkpt lat="46.1581988" lon="13.4181896"><ele>669.0</ele><time>2026-05-02T13:45:11.112Z</time></trkpt><trkpt lat="46.1581783" lon="13.418287"><ele>669.0</ele><time>2026-05-02T13:45:12.112Z</time></trkpt><trkpt lat="46.1581561" lon="13.4183849"><ele>669.0</ele><time>2026-05-02T13:45:13.112Z</time></trkpt><trkpt lat="46.1581305" lon="13.4184855"><ele>669.0</ele><time>2026-05-02T13:45:14.112Z</time></trkpt><trkpt lat="46.1580992" lon="13.4185817"><ele>669.0</ele><time>2026-05-02T13:45:15.113Z</time></trkpt><trkpt lat="46.1580659" lon="13.4186799"><ele>669.0</ele><time>2026-05-02T13:45:16.112Z</time></trkpt><trkpt lat="46.158032" lon="13.4187702"><ele>669.0</ele><time>2026-05-02T13:45:17.112Z</time></trkpt><trkpt lat="46.1579942" lon="13.4188585"><ele>664.3333333333334</ele><time>2026-05-02T13:45:18.112Z</time></trkpt><trkpt lat="46.1579555" lon="13.4189397"><ele>659.6666666666666</ele><time>2026-05-02T13:45:19.113Z</time></trkpt><trkpt lat="46.1578717" lon="13.4190783"><ele>655.0</ele><time>2026-05-02T13:45:21.112Z</time></trkpt><trkpt lat="46.1578146" lon="13.4191344"><ele>650.3333333333333</ele><time>2026-05-02T13:45:22.112Z</time></trkpt><trkpt lat="46.1577507" lon="13.4191898"><ele>645.6666666666666</ele><time>2026-05-02T13:45:23.112Z</time></trkpt><trkpt lat="46.1576816" lon="13.4192403"><ele>641.0</ele><time>2026-05-02T13:45:24.112Z</time></trkpt><trkpt lat="46.1576101" lon="13.4192969"><ele>641.0</ele><time>2026-05-02T13:45:25.113Z</time></trkpt><trkpt lat="46.1575343" lon="13.4193432"><ele>641.0</ele><time>2026-05-02T13:45:26.112Z</time></trkpt><trkpt lat="46.1574631" lon="13.4193828"><ele>641.0</ele><time>2026-05-02T13:45:27.112Z</time></trkpt><trkpt lat="46.1573908" lon="13.4194059"><ele>641.0</ele><time>2026-05-02T13:45:28.112Z</time></trkpt><trkpt lat="46.1573266" lon="13.4194198"><ele>641.0</ele><time>2026-05-02T13:45:29.113Z</time></trkpt><trkpt lat="46.1572636" lon="13.4194338"><ele>641.0</ele><time>2026-05-02T13:45:30.113Z</time></trkpt><trkpt lat="46.1571982" lon="13.4194463"><ele>641.0</ele><time>2026-05-02T13:45:31.112Z</time></trkpt><trkpt lat="46.1570903" lon="13.4195266"><ele>640.3333333333333</ele><time>2026-05-02T13:45:33.112Z</time></trkpt><trkpt lat="46.1570288" lon="13.419571"><ele>639.6666666666666</ele><time>2026-05-02T13:45:34.113Z</time></trkpt><trkpt lat="46.1569603" lon="13.4196378"><ele>639.0</ele><time>2026-05-02T13:45:35.112Z</time></trkpt><trkpt lat="46.1569011" lon="13.419689"><ele>638.3333333333334</ele><time>2026-05-02T13:45:36.112Z</time></trkpt><trkpt lat="46.1567904" lon="13.4197814"><ele>637.6666666666667</ele><time>2026-05-02T13:45:38.112Z</time></trkpt><trkpt lat="46.156726" lon="13.4198295"><ele>637.0</ele><time>2026-05-02T13:45:39.112Z</time></trkpt><trkpt lat="46.1566675" lon="13.4198857"><ele>637.0</ele><time>2026-05-02T13:45:40.112Z</time></trkpt><trkpt lat="46.1566023" lon="13.4199334"><ele>637.0</ele><time>2026-05-02T13:45:41.113Z</time></trkpt><trkpt lat="46.1565516" lon="13.4199916"><ele>637.0</ele><time>2026-05-02T13:45:42.112Z</time></trkpt><trkpt lat="46.1564586" lon="13.4201196"><ele>637.0</ele><time>2026-05-02T13:45:44.112Z</time></trkpt><trkpt lat="46.1564029" lon="13.4202888"><ele>637.0</ele><time>2026-05-02T13:45:46.112Z</time></trkpt><trkpt lat="46.1564216" lon="13.4204613"><ele>637.0</ele><time>2026-05-02T13:45:48.113Z</time></trkpt><trkpt lat="46.1564506" lon="13.4205441"><ele>637.0</ele><time>2026-05-02T13:45:49.113Z</time></trkpt><trkpt lat="46.1564995" lon="13.4206402"><ele>637.0</ele><time>2026-05-02T13:45:50.112Z</time></trkpt><trkpt lat="46.1565801" lon="13.4207231"><ele>637.0</ele><time>2026-05-02T13:45:51.112Z</time></trkpt><trkpt lat="46.1566464" lon="13.4208257"><ele>637.0</ele><time>2026-05-02T13:45:52.112Z</time></trkpt><trkpt lat="46.1567019" lon="13.4209162"><ele>637.0</ele><time>2026-05-02T13:45:53.113Z</time></trkpt><trkpt lat="46.1567359" lon="13.4209968"><ele>637.0</ele><time>2026-05-02T13:45:54.112Z</time></trkpt><trkpt lat="46.1567926" lon="13.4211337"><ele>637.0</ele><time>2026-05-02T13:45:56.112Z</time></trkpt><trkpt lat="46.1569048" lon="13.4211808"><ele>637.0</ele><time>2026-05-02T13:45:58.112Z</time></trkpt><trkpt lat="46.1570118" lon="13.4211915"><ele>637.0</ele><time>2026-05-02T13:46:00.113Z</time></trkpt><trkpt lat="46.1570697" lon="13.4212293"><ele>637.0</ele><time>2026-05-02T13:46:01.113Z</time></trkpt><trkpt lat="46.1571451" lon="13.4213636"><ele>639.1666666666667</ele><time>2026-05-02T13:46:03.112Z</time></trkpt><trkpt lat="46.1571738" lon="13.4214505"><ele>641.3333333333334</ele><time>2026-05-02T13:46:04.112Z</time></trkpt><trkpt lat="46.1571991" lon="13.4215501"><ele>643.5</ele><time>2026-05-02T13:46:05.112Z</time></trkpt><trkpt lat="46.157218" lon="13.4216603"><ele>645.6666666666666</ele><time>2026-05-02T13:46:06.113Z</time></trkpt><trkpt lat="46.1572264" lon="13.421759"><ele>647.8333333333333</ele><time>2026-05-02T13:46:07.112Z</time></trkpt><trkpt lat="46.1573084" lon="13.4218669"><ele>650.0</ele><time>2026-05-02T13:46:09.112Z</time></trkpt><trkpt lat="46.1574481" lon="13.4218923"><ele>645.2</ele><time>2026-05-02T13:46:11.113Z</time></trkpt><trkpt lat="46.1575506" lon="13.4219002"><ele>640.4</ele><time>2026-05-02T13:46:13.113Z</time></trkpt><trkpt lat="46.157636" lon="13.4219975"><ele>635.6</ele><time>2026-05-02T13:46:15.112Z</time></trkpt><trkpt lat="46.1576762" lon="13.4220781"><ele>630.8</ele><time>2026-05-02T13:46:16.112Z</time></trkpt><trkpt lat="46.1577099" lon="13.422159"><ele>626.0</ele><time>2026-05-02T13:46:17.112Z</time></trkpt><trkpt lat="46.157729" lon="13.422355"><ele>626.0</ele><time>2026-05-02T13:46:19.112Z</time></trkpt><trkpt lat="46.1577185" lon="13.4224853"><ele>626.0</ele><time>2026-05-02T13:46:20.113Z</time></trkpt><trkpt lat="46.157696" lon="13.422618"><ele>626.0</ele><time>2026-05-02T13:46:21.113Z</time></trkpt><trkpt lat="46.1576802" lon="13.4227218"><ele>626.0</ele><time>2026-05-02T13:46:22.112Z</time></trkpt><trkpt lat="46.1576785" lon="13.4228229"><ele>626.0</ele><time>2026-05-02T13:46:23.112Z</time></trkpt><trkpt lat="46.1576764" lon="13.4229812"><ele>626.0</ele><time>2026-05-02T13:46:25.112Z</time></trkpt><trkpt lat="46.1576232" lon="13.423154"><ele>623.5</ele><time>2026-05-02T13:46:27.112Z</time></trkpt><trkpt lat="46.1575779" lon="13.4232497"><ele>621.0</ele><time>2026-05-02T13:46:28.112Z</time></trkpt><trkpt lat="46.1575305" lon="13.4233509"><ele>618.5</ele><time>2026-05-02T13:46:29.112Z</time></trkpt><trkpt lat="46.1574874" lon="13.4234555"><ele>616.0</ele><time>2026-05-02T13:46:30.113Z</time></trkpt><trkpt lat="46.1574548" lon="13.4235583"><ele>613.5</ele><time>2026-05-02T13:46:31.112Z</time></trkpt><trkpt lat="46.1574183" lon="13.4236578"><ele>611.0</ele><time>2026-05-02T13:46:32.112Z</time></trkpt><trkpt lat="46.1573757" lon="13.4237457"><ele>608.2</ele><time>2026-05-02T13:46:33.111Z</time></trkpt><trkpt lat="46.1573319" lon="13.423816"><ele>605.4000000000001</ele><time>2026-05-02T13:46:34.112Z</time></trkpt><trkpt lat="46.1572345" lon="13.423921"><ele>602.6</ele><time>2026-05-02T13:46:36.112Z</time></trkpt><trkpt lat="46.1571321" lon="13.4240013"><ele>599.8000000000001</ele><time>2026-05-02T13:46:38.112Z</time></trkpt><trkpt lat="46.1570615" lon="13.4240174"><ele>597.0</ele><time>2026-05-02T13:46:39.112Z</time></trkpt><trkpt lat="46.1569872" lon="13.4239903"><ele>597.0</ele><time>2026-05-02T13:46:40.111Z</time></trkpt><trkpt lat="46.156919" lon="13.4239348"><ele>597.0</ele><time>2026-05-02T13:46:41.112Z</time></trkpt><trkpt lat="46.1568463" lon="13.4238711"><ele>597.0</ele><time>2026-05-02T13:46:42.112Z</time></trkpt><trkpt lat="46.1567752" lon="13.4238183"><ele>597.0</ele><time>2026-05-02T13:46:43.111Z</time></trkpt><trkpt lat="46.1567141" lon="13.4237753"><ele>597.0</ele><time>2026-05-02T13:46:44.111Z</time></trkpt><trkpt lat="46.1566032" lon="13.4237098"><ele>597.0</ele><time>2026-05-02T13:46:46.112Z</time></trkpt><trkpt lat="46.1564939" lon="13.4237364"><ele>597.3333333333334</ele><time>2026-05-02T13:46:48.112Z</time></trkpt><trkpt lat="46.1564106" lon="13.4237602"><ele>597.6666666666666</ele><time>2026-05-02T13:46:49.111Z</time></trkpt><trkpt lat="46.1563144" lon="13.4237977"><ele>598.0</ele><time>2026-05-02T13:46:50.112Z</time></trkpt><trkpt lat="46.1562351" lon="13.4238356"><ele>598.3333333333333</ele><time>2026-05-02T13:46:51.112Z</time></trkpt><trkpt lat="46.1561579" lon="13.4238758"><ele>598.6666666666666</ele><time>2026-05-02T13:46:52.112Z</time></trkpt><trkpt lat="46.1560928" lon="13.4239147"><ele>599.0</ele><time>2026-05-02T13:46:53.112Z</time></trkpt><trkpt lat="46.1560292" lon="13.4239607"><ele>599.0</ele><time>2026-05-02T13:46:54.112Z</time></trkpt><trkpt lat="46.1559603" lon="13.4240263"><ele>599.0</ele><time>2026-05-02T13:46:55.111Z</time></trkpt><trkpt lat="46.1558918" lon="13.4240997"><ele>599.0</ele><time>2026-05-02T13:46:56.111Z</time></trkpt><trkpt lat="46.1558198" lon="13.4241617"><ele>599.0</ele><time>2026-05-02T13:46:57.112Z</time></trkpt><trkpt lat="46.1557504" lon="13.424216"><ele>599.0</ele><time>2026-05-02T13:46:58.112Z</time></trkpt><trkpt lat="46.1556867" lon="13.4242806"><ele>599.0</ele><time>2026-05-02T13:46:59.111Z</time></trkpt><trkpt lat="46.1556245" lon="13.424342"><ele>597.8</ele><time>2026-05-02T13:47:00.111Z</time></trkpt><trkpt lat="46.1555686" lon="13.4244067"><ele>596.5999999999999</ele><time>2026-05-02T13:47:01.111Z</time></trkpt><trkpt lat="46.1554736" lon="13.4245021"><ele>595.4</ele><time>2026-05-02T13:47:03.112Z</time></trkpt><trkpt lat="46.1554023" lon="13.4245659"><ele>594.1999999999999</ele><time>2026-05-02T13:47:05.111Z</time></trkpt><trkpt lat="46.1554775" lon="13.4246056"><ele>593.0</ele><time>2026-05-02T13:47:08.112Z</time></trkpt><trkpt lat="46.1555841" lon="13.4245611"><ele>593.0</ele><time>2026-05-02T13:47:10.111Z</time></trkpt><trkpt lat="46.1556487" lon="13.4245332"><ele>593.0</ele><time>2026-05-02T13:47:11.112Z</time></trkpt><trkpt lat="46.155725" lon="13.4245104"><ele>593.0</ele><time>2026-05-02T13:47:12.111Z</time></trkpt><trkpt lat="46.1557918" lon="13.4244942"><ele>593.0</ele><time>2026-05-02T13:47:13.111Z</time></trkpt><trkpt lat="46.1559175" lon="13.4244657"><ele>593.0</ele><time>2026-05-02T13:47:15.111Z</time></trkpt><trkpt lat="46.1559901" lon="13.4244358"><ele>593.0</ele><time>2026-05-02T13:47:16.111Z</time></trkpt><trkpt lat="46.1560545" lon="13.4244036"><ele>594.1999999999999</ele><time>2026-05-02T13:47:17.112Z</time></trkpt><trkpt lat="46.1561718" lon="13.4243713"><ele>595.4</ele><time>2026-05-02T13:47:19.112Z</time></trkpt><trkpt lat="46.1562377" lon="13.4243809"><ele>596.5999999999999</ele><time>2026-05-02T13:47:20.111Z</time></trkpt><trkpt lat="46.1563109" lon="13.4243998"><ele>597.8</ele><time>2026-05-02T13:47:21.112Z</time></trkpt><trkpt lat="46.1564131" lon="13.4244716"><ele>599.0</ele><time>2026-05-02T13:47:23.111Z</time></trkpt><trkpt lat="46.1564709" lon="13.4245794"><ele>599.0</ele><time>2026-05-02T13:47:25.111Z</time></trkpt><trkpt lat="46.1565182" lon="13.4246958"><ele>599.0</ele><time>2026-05-02T13:47:27.111Z</time></trkpt><trkpt lat="46.1564712" lon="13.4247911"><ele>599.0</ele><time>2026-05-02T13:47:29.112Z</time></trkpt><trkpt lat="46.1563785" lon="13.4247376"><ele>599.0</ele><time>2026-05-02T13:47:32.111Z</time></trkpt><trkpt lat="46.1563435" lon="13.4246611"><ele>599.0</ele><time>2026-05-02T13:47:33.112Z</time></trkpt><trkpt lat="46.1562584" lon="13.424591"><ele>599.0</ele><time>2026-05-02T13:47:35.112Z</time></trkpt><trkpt lat="46.1561958" lon="13.4246114"><ele>599.0</ele><time>2026-05-02T13:47:36.111Z</time></trkpt><trkpt lat="46.1561287" lon="13.4246414"><ele>599.0</ele><time>2026-05-02T13:47:37.111Z</time></trkpt><trkpt lat="46.156043" lon="13.4246884"><ele>599.0</ele><time>2026-05-02T13:47:38.112Z</time></trkpt><trkpt lat="46.1559619" lon="13.4247493"><ele>599.0</ele><time>2026-05-02T13:47:39.112Z</time></trkpt><trkpt lat="46.155887" lon="13.4248257"><ele>599.0</ele><time>2026-05-02T13:47:40.112Z</time></trkpt><trkpt lat="46.1558165" lon="13.4248985"><ele>599.0</ele><time>2026-05-02T13:47:41.112Z</time></trkpt><trkpt lat="46.1557558" lon="13.4249403"><ele>593.0</ele><time>2026-05-02T13:47:42.112Z</time></trkpt><trkpt lat="46.1556971" lon="13.4249771"><ele>587.0</ele><time>2026-05-02T13:47:43.112Z</time></trkpt><trkpt lat="46.1556324" lon="13.4250102"><ele>581.0</ele><time>2026-05-02T13:47:44.111Z</time></trkpt><trkpt lat="46.1555434" lon="13.425046"><ele>575.0</ele><time>2026-05-02T13:47:45.112Z</time></trkpt><trkpt lat="46.1554661" lon="13.4250794"><ele>569.0</ele><time>2026-05-02T13:47:46.112Z</time></trkpt><trkpt lat="46.1553995" lon="13.4251111"><ele>563.0</ele><time>2026-05-02T13:47:47.111Z</time></trkpt><trkpt lat="46.1552737" lon="13.4251636"><ele>563.0</ele><time>2026-05-02T13:47:49.112Z</time></trkpt><trkpt lat="46.1552124" lon="13.4251865"><ele>563.0</ele><time>2026-05-02T13:47:50.112Z</time></trkpt><trkpt lat="46.1551487" lon="13.4252002"><ele>563.0</ele><time>2026-05-02T13:47:51.111Z</time></trkpt><trkpt lat="46.155027" lon="13.4251926"><ele>563.0</ele><time>2026-05-02T13:47:53.111Z</time></trkpt><trkpt lat="46.1549048" lon="13.4251651"><ele>563.0</ele><time>2026-05-02T13:47:55.111Z</time></trkpt><trkpt lat="46.1547937" lon="13.4250978"><ele>561.1999999999999</ele><time>2026-05-02T13:47:57.112Z</time></trkpt><trkpt lat="46.1546713" lon="13.4250096"><ele>559.4</ele><time>2026-05-02T13:47:59.111Z</time></trkpt><trkpt lat="46.1546034" lon="13.4249661"><ele>557.5999999999999</ele><time>2026-05-02T13:48:00.111Z</time></trkpt><trkpt lat="46.1545303" lon="13.4249582"><ele>555.8</ele><time>2026-05-02T13:48:01.111Z</time></trkpt><trkpt lat="46.1544106" lon="13.4249304"><ele>554.0</ele><time>2026-05-02T13:48:03.111Z</time></trkpt><trkpt lat="46.1543147" lon="13.4248505"><ele>554.0</ele><time>2026-05-02T13:48:05.112Z</time></trkpt><trkpt lat="46.1542403" lon="13.4247539"><ele>554.0</ele><time>2026-05-02T13:48:07.112Z</time></trkpt><trkpt lat="46.1541848" lon="13.4246402"><ele>554.0</ele><time>2026-05-02T13:48:09.111Z</time></trkpt><trkpt lat="46.1541073" lon="13.424614"><ele>554.0</ele><time>2026-05-02T13:48:11.111Z</time></trkpt><trkpt lat="46.1540307" lon="13.4247608"><ele>554.0</ele><time>2026-05-02T13:48:13.112Z</time></trkpt><trkpt lat="46.154003" lon="13.4248549"><ele>554.1666666666666</ele><time>2026-05-02T13:48:14.111Z</time></trkpt><trkpt lat="46.1539802" lon="13.424946"><ele>554.3333333333333</ele><time>2026-05-02T13:48:15.111Z</time></trkpt><trkpt lat="46.1539577" lon="13.4250355"><ele>554.5</ele><time>2026-05-02T13:48:16.112Z</time></trkpt><trkpt lat="46.1539128" lon="13.4251284"><ele>554.6666666666666</ele><time>2026-05-02T13:48:17.111Z</time></trkpt><trkpt lat="46.1538541" lon="13.4252177"><ele>554.8333333333334</ele><time>2026-05-02T13:48:18.111Z</time></trkpt><trkpt lat="46.1537894" lon="13.4253003"><ele>555.0</ele><time>2026-05-02T13:48:19.111Z</time></trkpt><trkpt lat="46.1537254" lon="13.4253929"><ele>550.8333333333334</ele><time>2026-05-02T13:48:20.111Z</time></trkpt><trkpt lat="46.1536698" lon="13.4254967"><ele>546.6666666666666</ele><time>2026-05-02T13:48:21.112Z</time></trkpt><trkpt lat="46.1536171" lon="13.4255909"><ele>542.5</ele><time>2026-05-02T13:48:22.112Z</time></trkpt><trkpt lat="46.1535692" lon="13.4256764"><ele>538.3333333333333</ele><time>2026-05-02T13:48:23.112Z</time></trkpt><trkpt lat="46.1535206" lon="13.425748"><ele>534.1666666666666</ele><time>2026-05-02T13:48:24.112Z</time></trkpt><trkpt lat="46.1534469" lon="13.425856"><ele>530.0</ele><time>2026-05-02T13:48:26.111Z</time></trkpt><trkpt lat="46.1533576" lon="13.4258732"><ele>530.0</ele><time>2026-05-02T13:48:28.112Z</time></trkpt><trkpt lat="46.1532873" lon="13.4257745"><ele>530.0</ele><time>2026-05-02T13:48:30.112Z</time></trkpt><trkpt lat="46.1532849" lon="13.4256147"><ele>530.0</ele><time>2026-05-02T13:48:32.112Z</time></trkpt><trkpt lat="46.1532849" lon="13.4255175"><ele>530.0</ele><time>2026-05-02T13:48:33.111Z</time></trkpt><trkpt lat="46.1532787" lon="13.42542"><ele>530.0</ele><time>2026-05-02T13:48:34.112Z</time></trkpt><trkpt lat="46.153264" lon="13.4253184"><ele>530.0</ele><time>2026-05-02T13:48:35.111Z</time></trkpt><trkpt lat="46.1532346" lon="13.4252251"><ele>528.5</ele><time>2026-05-02T13:48:36.112Z</time></trkpt><trkpt lat="46.1532011" lon="13.4251354"><ele>527.0</ele><time>2026-05-02T13:48:37.111Z</time></trkpt><trkpt lat="46.1531636" lon="13.4250571"><ele>525.5</ele><time>2026-05-02T13:48:38.111Z</time></trkpt><trkpt lat="46.1531185" lon="13.4249867"><ele>524.0</ele><time>2026-05-02T13:48:39.112Z</time></trkpt><trkpt lat="46.1530661" lon="13.4249166"><ele>522.5</ele><time>2026-05-02T13:48:40.111Z</time></trkpt><trkpt lat="46.1530123" lon="13.4248683"><ele>521.0</ele><time>2026-05-02T13:48:41.111Z</time></trkpt><trkpt lat="46.1528793" lon="13.4248645"><ele>521.0</ele><time>2026-05-02T13:48:43.111Z</time></trkpt><trkpt lat="46.152796" lon="13.4248937"><ele>521.0</ele><time>2026-05-02T13:48:44.111Z</time></trkpt><trkpt lat="46.1527058" lon="13.4249112"><ele>521.0</ele><time>2026-05-02T13:48:45.112Z</time></trkpt><trkpt lat="46.152614" lon="13.424905"><ele>521.0</ele><time>2026-05-02T13:48:46.111Z</time></trkpt><trkpt lat="46.1525316" lon="13.4249055"><ele>521.0</ele><time>2026-05-02T13:48:47.111Z</time></trkpt><trkpt lat="46.1524616" lon="13.4249245"><ele>521.0</ele><time>2026-05-02T13:48:48.112Z</time></trkpt><trkpt lat="46.1523926" lon="13.4249574"><ele>521.0</ele><time>2026-05-02T13:48:49.112Z</time></trkpt><trkpt lat="46.1523263" lon="13.4249935"><ele>521.0</ele><time>2026-05-02T13:48:50.111Z</time></trkpt><trkpt lat="46.1522234" lon="13.4250247"><ele>521.0</ele><time>2026-05-02T13:48:52.111Z</time></trkpt><trkpt lat="46.1521563" lon="13.4249706"><ele>521.0</ele><time>2026-05-02T13:48:54.111Z</time></trkpt><trkpt lat="46.1520783" lon="13.4248417"><ele>521.0</ele><time>2026-05-02T13:48:56.111Z</time></trkpt><trkpt lat="46.1520345" lon="13.4247588"><ele>521.0</ele><time>2026-05-02T13:48:57.111Z</time></trkpt><trkpt lat="46.1519856" lon="13.4246984"><ele>521.0</ele><time>2026-05-02T13:48:58.111Z</time></trkpt><trkpt lat="46.1518856" lon="13.42461"><ele>521.0</ele><time>2026-05-02T13:49:00.111Z</time></trkpt><trkpt lat="46.1517558" lon="13.4246652"><ele>521.0</ele><time>2026-05-02T13:49:02.111Z</time></trkpt><trkpt lat="46.1516753" lon="13.4247279"><ele>521.0</ele><time>2026-05-02T13:49:03.111Z</time></trkpt><trkpt lat="46.1515996" lon="13.424803"><ele>521.0</ele><time>2026-05-02T13:49:04.112Z</time></trkpt><trkpt lat="46.1515218" lon="13.4248814"><ele>529.1666666666666</ele><time>2026-05-02T13:49:05.112Z</time></trkpt><trkpt lat="46.1514405" lon="13.4249445"><ele>537.3333333333333</ele><time>2026-05-02T13:49:06.111Z</time></trkpt><trkpt lat="46.1513442" lon="13.4250053"><ele>545.5</ele><time>2026-05-02T13:49:07.112Z</time></trkpt><trkpt lat="46.1512592" lon="13.4250617"><ele>553.6666666666666</ele><time>2026-05-02T13:49:08.112Z</time></trkpt><trkpt lat="46.1511897" lon="13.4251104"><ele>561.8333333333334</ele><time>2026-05-02T13:49:09.112Z</time></trkpt><trkpt lat="46.1511184" lon="13.4251602"><ele>570.0</ele><time>2026-05-02T13:49:10.112Z</time></trkpt><trkpt lat="46.1510423" lon="13.4252041"><ele>570.0</ele><time>2026-05-02T13:49:11.111Z</time></trkpt><trkpt lat="46.1509688" lon="13.4252428"><ele>570.0</ele><time>2026-05-02T13:49:12.111Z</time></trkpt><trkpt lat="46.1508923" lon="13.425272"><ele>570.0</ele><time>2026-05-02T13:49:13.111Z</time></trkpt><trkpt lat="46.1508203" lon="13.4252946"><ele>570.0</ele><time>2026-05-02T13:49:14.111Z</time></trkpt><trkpt lat="46.1506973" lon="13.4253142"><ele>570.0</ele><time>2026-05-02T13:49:16.112Z</time></trkpt><trkpt lat="46.1505974" lon="13.4253268"><ele>574.6</ele><time>2026-05-02T13:49:18.111Z</time></trkpt><trkpt lat="46.1505328" lon="13.4254188"><ele>579.2</ele><time>2026-05-02T13:49:20.112Z</time></trkpt><trkpt lat="46.1505603" lon="13.4255894"><ele>583.8</ele><time>2026-05-02T13:49:22.111Z</time></trkpt><trkpt lat="46.1505916" lon="13.4256908"><ele>588.4</ele><time>2026-05-02T13:49:23.111Z</time></trkpt><trkpt lat="46.1506055" lon="13.4258698"><ele>593.0</ele><time>2026-05-02T13:49:25.112Z</time></trkpt><trkpt lat="46.1505944" lon="13.4259648"><ele>593.0</ele><time>2026-05-02T13:49:26.112Z</time></trkpt><trkpt lat="46.1505797" lon="13.426078"><ele>593.0</ele><time>2026-05-02T13:49:27.111Z</time></trkpt><trkpt lat="46.1505631" lon="13.4262179"><ele>593.0</ele><time>2026-05-02T13:49:28.111Z</time></trkpt><trkpt lat="46.1505577" lon="13.4263549"><ele>593.0</ele><time>2026-05-02T13:49:29.111Z</time></trkpt><trkpt lat="46.1505515" lon="13.4264863"><ele>593.0</ele><time>2026-05-02T13:49:30.112Z</time></trkpt><trkpt lat="46.1505328" lon="13.4266295"><ele>591.1999999999999</ele><time>2026-05-02T13:49:31.112Z</time></trkpt><trkpt lat="46.1505066" lon="13.4267645"><ele>589.4</ele><time>2026-05-02T13:49:32.111Z</time></trkpt><trkpt lat="46.1504744" lon="13.4268996"><ele>587.5999999999999</ele><time>2026-05-02T13:49:33.111Z</time></trkpt><trkpt lat="46.150453" lon="13.4270351"><ele>585.8</ele><time>2026-05-02T13:49:34.112Z</time></trkpt><trkpt lat="46.1504394" lon="13.427161"><ele>584.0</ele><time>2026-05-02T13:49:35.111Z</time></trkpt><trkpt lat="46.150432" lon="13.4272874"><ele>580.6666666666666</ele><time>2026-05-02T13:49:36.112Z</time></trkpt><trkpt lat="46.1504315" lon="13.4274025"><ele>577.3333333333333</ele><time>2026-05-02T13:49:37.111Z</time></trkpt><trkpt lat="46.1504383" lon="13.4275175"><ele>574.0</ele><time>2026-05-02T13:49:38.111Z</time></trkpt><trkpt lat="46.1504371" lon="13.4276463"><ele>570.6666666666666</ele><time>2026-05-02T13:49:39.111Z</time></trkpt><trkpt lat="46.1504378" lon="13.4277681"><ele>567.3333333333334</ele><time>2026-05-02T13:49:40.112Z</time></trkpt><trkpt lat="46.1504379" lon="13.4278722"><ele>564.0</ele><time>2026-05-02T13:49:41.112Z</time></trkpt><trkpt lat="46.150418" lon="13.4280553"><ele>559.6666666666666</ele><time>2026-05-02T13:49:43.111Z</time></trkpt><trkpt lat="46.1503855" lon="13.4281549"><ele>555.3333333333334</ele><time>2026-05-02T13:49:44.111Z</time></trkpt><trkpt lat="46.1503584" lon="13.4282587"><ele>551.0</ele><time>2026-05-02T13:49:45.111Z</time></trkpt><trkpt lat="46.1503355" lon="13.4283647"><ele>546.6666666666667</ele><time>2026-05-02T13:49:46.112Z</time></trkpt><trkpt lat="46.1503202" lon="13.4284722"><ele>542.3333333333334</ele><time>2026-05-02T13:49:47.111Z</time></trkpt><trkpt lat="46.1502965" lon="13.4285749"><ele>538.0</ele><time>2026-05-02T13:49:48.111Z</time></trkpt><trkpt lat="46.1502577" lon="13.4286787"><ele>538.0</ele><time>2026-05-02T13:49:49.112Z</time></trkpt><trkpt lat="46.1502091" lon="13.4287855"><ele>538.0</ele><time>2026-05-02T13:49:50.112Z</time></trkpt><trkpt lat="46.1501582" lon="13.4289088"><ele>538.0</ele><time>2026-05-02T13:49:51.111Z</time></trkpt><trkpt lat="46.1501119" lon="13.4290248"><ele>538.0</ele><time>2026-05-02T13:49:52.112Z</time></trkpt><trkpt lat="46.1500628" lon="13.429133"><ele>538.0</ele><time>2026-05-02T13:49:53.111Z</time></trkpt><trkpt lat="46.1500089" lon="13.4292379"><ele>539.1666666666667</ele><time>2026-05-02T13:49:54.111Z</time></trkpt><trkpt lat="46.1499519" lon="13.4293268"><ele>540.3333333333334</ele><time>2026-05-02T13:49:55.112Z</time></trkpt><trkpt lat="46.1499033" lon="13.429404"><ele>541.5</ele><time>2026-05-02T13:49:56.111Z</time></trkpt><trkpt lat="46.1498506" lon="13.429475"><ele>542.6666666666666</ele><time>2026-05-02T13:49:57.111Z</time></trkpt><trkpt lat="46.1497894" lon="13.4295291"><ele>543.8333333333333</ele><time>2026-05-02T13:49:58.112Z</time></trkpt><trkpt lat="46.1497229" lon="13.4295822"><ele>545.0</ele><time>2026-05-02T13:49:59.111Z</time></trkpt><trkpt lat="46.1496535" lon="13.429626"><ele>537.0</ele><time>2026-05-02T13:50:00.112Z</time></trkpt><trkpt lat="46.149582" lon="13.429664"><ele>529.0</ele><time>2026-05-02T13:50:01.112Z</time></trkpt><trkpt lat="46.1495148" lon="13.4296975"><ele>521.0</ele><time>2026-05-02T13:50:02.112Z</time></trkpt><trkpt lat="46.1494337" lon="13.4298025"><ele>513.0</ele><time>2026-05-02T13:50:04.111Z</time></trkpt><trkpt lat="46.149401" lon="13.4299253"><ele>505.0</ele><time>2026-05-02T13:50:06.111Z</time></trkpt><trkpt lat="46.1493367" lon="13.4300454"><ele>505.00000000000006</ele><time>2026-05-02T13:50:08.111Z</time></trkpt><trkpt lat="46.1492844" lon="13.4301097"><ele>505.0</ele><time>2026-05-02T13:50:09.111Z</time></trkpt><trkpt lat="46.1492269" lon="13.4301793"><ele>505.0</ele><time>2026-05-02T13:50:10.111Z</time></trkpt><trkpt lat="46.149178" lon="13.4302393"><ele>505.0</ele><time>2026-05-02T13:50:11.111Z</time></trkpt><trkpt lat="46.1491187" lon="13.4302814"><ele>505.00000000000006</ele><time>2026-05-02T13:50:12.111Z</time></trkpt><trkpt lat="46.1490066" lon="13.4303256"><ele>505.0</ele><time>2026-05-02T13:50:14.112Z</time></trkpt><trkpt lat="46.1489429" lon="13.4303295"><ele>502.1666666666667</ele><time>2026-05-02T13:50:15.111Z</time></trkpt><trkpt lat="46.1488713" lon="13.430335"><ele>499.33333333333337</ele><time>2026-05-02T13:50:16.112Z</time></trkpt><trkpt lat="46.1487903" lon="13.4303427"><ele>496.5</ele><time>2026-05-02T13:50:17.111Z</time></trkpt><trkpt lat="46.1487141" lon="13.4303527"><ele>493.66666666666663</ele><time>2026-05-02T13:50:18.112Z</time></trkpt><trkpt lat="46.1486543" lon="13.4303921"><ele>490.8333333333333</ele><time>2026-05-02T13:50:19.111Z</time></trkpt><trkpt lat="46.1485905" lon="13.4304597"><ele>488.0</ele><time>2026-05-02T13:50:20.111Z</time></trkpt><trkpt lat="46.1485375" lon="13.4305375"><ele>487.99999999999994</ele><time>2026-05-02T13:50:21.111Z</time></trkpt><trkpt lat="46.1484973" lon="13.4306302"><ele>488.0</ele><time>2026-05-02T13:50:22.112Z</time></trkpt><trkpt lat="46.1484711" lon="13.4307159"><ele>488.0</ele><time>2026-05-02T13:50:23.111Z</time></trkpt><trkpt lat="46.1484289" lon="13.4307876"><ele>488.0</ele><time>2026-05-02T13:50:24.112Z</time></trkpt><trkpt lat="46.1483739" lon="13.4308383"><ele>487.99999999999994</ele><time>2026-05-02T13:50:25.112Z</time></trkpt><trkpt lat="46.1483026" lon="13.4309014"><ele>488.0</ele><time>2026-05-02T13:50:26.111Z</time></trkpt><trkpt lat="46.1482128" lon="13.4309906"><ele>487.79999999999995</ele><time>2026-05-02T13:50:27.111Z</time></trkpt><trkpt lat="46.1481262" lon="13.4310904"><ele>487.59999999999997</ele><time>2026-05-02T13:50:28.11Z</time></trkpt><trkpt lat="46.1480512" lon="13.4311675"><ele>487.40000000000003</ele><time>2026-05-02T13:50:29.11Z</time></trkpt><trkpt lat="46.147968" lon="13.4312459"><ele>487.20000000000005</ele><time>2026-05-02T13:50:30.11Z</time></trkpt><trkpt lat="46.1478863" lon="13.4313329"><ele>487.0</ele><time>2026-05-02T13:50:31.111Z</time></trkpt><trkpt lat="46.1478016" lon="13.4314062"><ele>487.0</ele><time>2026-05-02T13:50:32.11Z</time></trkpt><trkpt lat="46.1477285" lon="13.4314937"><ele>487.00000000000006</ele><time>2026-05-02T13:50:33.11Z</time></trkpt><trkpt lat="46.1476569" lon="13.4315845"><ele>487.00000000000006</ele><time>2026-05-02T13:50:34.11Z</time></trkpt><trkpt lat="46.1475878" lon="13.4316683"><ele>487.0</ele><time>2026-05-02T13:50:35.11Z</time></trkpt><trkpt lat="46.1475181" lon="13.4317466"><ele>487.0</ele><time>2026-05-02T13:50:36.11Z</time></trkpt><trkpt lat="46.147451" lon="13.4318234"><ele>487.00000000000006</ele><time>2026-05-02T13:50:37.11Z</time></trkpt><trkpt lat="46.1473917" lon="13.4318831"><ele>487.0</ele><time>2026-05-02T13:50:38.11Z</time></trkpt><trkpt lat="46.1473257" lon="13.4319328"><ele>487.0</ele><time>2026-05-02T13:50:39.111Z</time></trkpt><trkpt lat="46.1472507" lon="13.4319598"><ele>487.0</ele><time>2026-05-02T13:50:40.11Z</time></trkpt><trkpt lat="46.1471159" lon="13.4319756"><ele>487.00000000000006</ele><time>2026-05-02T13:50:42.111Z</time></trkpt><trkpt lat="46.1470334" lon="13.4319718"><ele>487.0</ele><time>2026-05-02T13:50:43.111Z</time></trkpt><trkpt lat="46.1469533" lon="13.4319782"><ele>486.00000000000006</ele><time>2026-05-02T13:50:44.11Z</time></trkpt><trkpt lat="46.1468769" lon="13.4319972"><ele>485.0</ele><time>2026-05-02T13:50:45.11Z</time></trkpt><trkpt lat="46.1468005" lon="13.4320308"><ele>484.0</ele><time>2026-05-02T13:50:46.111Z</time></trkpt><trkpt lat="46.1467256" lon="13.4320732"><ele>483.0</ele><time>2026-05-02T13:50:47.11Z</time></trkpt><trkpt lat="46.1466448" lon="13.4321487"><ele>482.00000000000006</ele><time>2026-05-02T13:50:48.11Z</time></trkpt><trkpt lat="46.1465592" lon="13.4322424"><ele>481.0</ele><time>2026-05-02T13:50:49.11Z</time></trkpt><trkpt lat="46.1464745" lon="13.4323364"><ele>481.00000000000006</ele><time>2026-05-02T13:50:50.111Z</time></trkpt><trkpt lat="46.1463886" lon="13.4324235"><ele>481.0</ele><time>2026-05-02T13:50:51.111Z</time></trkpt><trkpt lat="46.1463173" lon="13.4324988"><ele>481.0</ele><time>2026-05-02T13:50:52.11Z</time></trkpt><trkpt lat="46.1462598" lon="13.432558"><ele>481.0</ele><time>2026-05-02T13:50:53.11Z</time></trkpt><trkpt lat="46.1461845" lon="13.4325975"><ele>481.00000000000006</ele><time>2026-05-02T13:50:54.11Z</time></trkpt><trkpt lat="46.1460971" lon="13.4326353"><ele>481.0</ele><time>2026-05-02T13:50:55.11Z</time></trkpt><trkpt lat="46.1460153" lon="13.4326566"><ele>481.0</ele><time>2026-05-02T13:50:56.111Z</time></trkpt><trkpt lat="46.1459135" lon="13.4326897"><ele>481.0</ele><time>2026-05-02T13:50:57.111Z</time></trkpt><trkpt lat="46.1458101" lon="13.4327353"><ele>481.0</ele><time>2026-05-02T13:50:58.111Z</time></trkpt><trkpt lat="46.1457201" lon="13.4327777"><ele>481.0</ele><time>2026-05-02T13:50:59.111Z</time></trkpt><trkpt lat="46.1456359" lon="13.4328178"><ele>481.0</ele><time>2026-05-02T13:51:00.11Z</time></trkpt><trkpt lat="46.1455483" lon="13.4328444"><ele>481.20000000000005</ele><time>2026-05-02T13:51:01.111Z</time></trkpt><trkpt lat="46.1454509" lon="13.4328565"><ele>481.40000000000003</ele><time>2026-05-02T13:51:02.11Z</time></trkpt><trkpt lat="46.1453439" lon="13.4328749"><ele>481.6</ele><time>2026-05-02T13:51:03.111Z</time></trkpt><trkpt lat="46.1452343" lon="13.4328986"><ele>481.8</ele><time>2026-05-02T13:51:04.11Z</time></trkpt><trkpt lat="46.1451309" lon="13.4329302"><ele>482.0</ele><time>2026-05-02T13:51:05.11Z</time></trkpt><trkpt lat="46.1450331" lon="13.4329606"><ele>477.66666666666663</ele><time>2026-05-02T13:51:06.11Z</time></trkpt><trkpt lat="46.1449353" lon="13.4329929"><ele>473.3333333333333</ele><time>2026-05-02T13:51:07.111Z</time></trkpt><trkpt lat="46.1448404" lon="13.4330269"><ele>469.0</ele><time>2026-05-02T13:51:08.11Z</time></trkpt><trkpt lat="46.1447585" lon="13.4330598"><ele>464.66666666666663</ele><time>2026-05-02T13:51:09.111Z</time></trkpt><trkpt lat="46.1446876" lon="13.4330741"><ele>460.3333333333333</ele><time>2026-05-02T13:51:10.11Z</time></trkpt><trkpt lat="46.144621" lon="13.4330854"><ele>456.0</ele><time>2026-05-02T13:51:11.111Z</time></trkpt><trkpt lat="46.1445067" lon="13.4330845"><ele>456.0</ele><time>2026-05-02T13:51:13.11Z</time></trkpt><trkpt lat="46.1444471" lon="13.4330477"><ele>456.0</ele><time>2026-05-02T13:51:14.11Z</time></trkpt><trkpt lat="46.1443871" lon="13.433004"><ele>456.0</ele><time>2026-05-02T13:51:15.11Z</time></trkpt><trkpt lat="46.1443325" lon="13.4329379"><ele>456.0</ele><time>2026-05-02T13:51:16.11Z</time></trkpt><trkpt lat="46.1443027" lon="13.432857"><ele>456.0</ele><time>2026-05-02T13:51:17.11Z</time></trkpt><trkpt lat="46.1442623" lon="13.4326966"><ele>456.0</ele><time>2026-05-02T13:51:19.11Z</time></trkpt><trkpt lat="46.1442579" lon="13.432524"><ele>455.5</ele><time>2026-05-02T13:51:21.11Z</time></trkpt><trkpt lat="46.1442426" lon="13.4323779"><ele>455.0</ele><time>2026-05-02T13:51:23.11Z</time></trkpt><trkpt lat="46.1441799" lon="13.4322817"><ele>454.5</ele><time>2026-05-02T13:51:25.11Z</time></trkpt><trkpt lat="46.1441284" lon="13.4322293"><ele>454.0</ele><time>2026-05-02T13:51:26.11Z</time></trkpt><trkpt lat="46.1440629" lon="13.4321913"><ele>453.5</ele><time>2026-05-02T13:51:27.11Z</time></trkpt><trkpt lat="46.1439783" lon="13.43215"><ele>453.0</ele><time>2026-05-02T13:51:28.111Z</time></trkpt><trkpt lat="46.1438806" lon="13.4320976"><ele>454.3333333333333</ele><time>2026-05-02T13:51:29.111Z</time></trkpt><trkpt lat="46.1437842" lon="13.4320352"><ele>455.66666666666663</ele><time>2026-05-02T13:51:30.11Z</time></trkpt><trkpt lat="46.1437005" lon="13.4319679"><ele>457.0</ele><time>2026-05-02T13:51:31.111Z</time></trkpt><trkpt lat="46.1436368" lon="13.4319066"><ele>458.3333333333333</ele><time>2026-05-02T13:51:32.111Z</time></trkpt><trkpt lat="46.1435805" lon="13.4318367"><ele>459.66666666666663</ele><time>2026-05-02T13:51:33.11Z</time></trkpt><trkpt lat="46.1435377" lon="13.4317672"><ele>461.0</ele><time>2026-05-02T13:51:34.11Z</time></trkpt><trkpt lat="46.1434843" lon="13.4316445"><ele>461.0</ele><time>2026-05-02T13:51:36.11Z</time></trkpt><trkpt lat="46.1434946" lon="13.4314975"><ele>461.00000000000006</ele><time>2026-05-02T13:51:38.11Z</time></trkpt><trkpt lat="46.1435363" lon="13.4314244"><ele>461.0</ele><time>2026-05-02T13:51:39.111Z</time></trkpt><trkpt lat="46.1435751" lon="13.431352"><ele>461.0</ele><time>2026-05-02T13:51:40.111Z</time></trkpt><trkpt lat="46.1435994" lon="13.4312564"><ele>461.00000000000006</ele><time>2026-05-02T13:51:42.11Z</time></trkpt><trkpt lat="46.1435559" lon="13.4311585"><ele>461.0</ele><time>2026-05-02T13:51:44.11Z</time></trkpt><trkpt lat="46.1434913" lon="13.4311656"><ele>461.0</ele><time>2026-05-02T13:51:45.11Z</time></trkpt><trkpt lat="46.1433986" lon="13.4311158"><ele>460.8</ele><time>2026-05-02T13:51:47.111Z</time></trkpt><trkpt lat="46.143302" lon="13.4310235"><ele>460.6</ele><time>2026-05-02T13:51:49.11Z</time></trkpt><trkpt lat="46.1431766" lon="13.4309912"><ele>460.4</ele><time>2026-05-02T13:51:51.11Z</time></trkpt><trkpt lat="46.1430981" lon="13.4309799"><ele>460.2</ele><time>2026-05-02T13:51:52.11Z</time></trkpt><trkpt lat="46.1430154" lon="13.4309541"><ele>460.0</ele><time>2026-05-02T13:51:53.111Z</time></trkpt><trkpt lat="46.1429456" lon="13.4309304"><ele>460.00000000000006</ele><time>2026-05-02T13:51:54.111Z</time></trkpt><trkpt lat="46.1428848" lon="13.4308998"><ele>460.0</ele><time>2026-05-02T13:51:55.11Z</time></trkpt><trkpt lat="46.1428018" lon="13.4308199"><ele>460.0</ele><time>2026-05-02T13:51:57.111Z</time></trkpt><trkpt lat="46.1427778" lon="13.4306975"><ele>460.0</ele><time>2026-05-02T13:51:59.11Z</time></trkpt><trkpt lat="46.1427779" lon="13.4306003"><ele>460.00000000000006</ele><time>2026-05-02T13:52:00.11Z</time></trkpt><trkpt lat="46.1427739" lon="13.4304912"><ele>460.0</ele><time>2026-05-02T13:52:01.11Z</time></trkpt><trkpt lat="46.142752" lon="13.430335"><ele>460.8</ele><time>2026-05-02T13:52:03.111Z</time></trkpt><trkpt lat="46.142679" lon="13.4302637"><ele>461.6</ele><time>2026-05-02T13:52:05.111Z</time></trkpt><trkpt lat="46.1425514" lon="13.4302768"><ele>462.4</ele><time>2026-05-02T13:52:07.111Z</time></trkpt><trkpt lat="46.142439" lon="13.4302588"><ele>463.2</ele><time>2026-05-02T13:52:09.11Z</time></trkpt><trkpt lat="46.1423752" lon="13.4302213"><ele>464.0</ele><time>2026-05-02T13:52:10.11Z</time></trkpt><trkpt lat="46.1423119" lon="13.4301592"><ele>463.99999999999994</ele><time>2026-05-02T13:52:11.111Z</time></trkpt><trkpt lat="46.1422647" lon="13.4300827"><ele>464.0</ele><time>2026-05-02T13:52:12.11Z</time></trkpt><trkpt lat="46.1422096" lon="13.4300017"><ele>464.0</ele><time>2026-05-02T13:52:13.11Z</time></trkpt><trkpt lat="46.1421603" lon="13.4299088"><ele>464.0</ele><time>2026-05-02T13:52:14.11Z</time></trkpt><trkpt lat="46.1421192" lon="13.4298077"><ele>463.99999999999994</ele><time>2026-05-02T13:52:15.11Z</time></trkpt><trkpt lat="46.1420741" lon="13.4296813"><ele>464.0</ele><time>2026-05-02T13:52:16.11Z</time></trkpt><trkpt lat="46.1420286" lon="13.4295502"><ele>465.1428571428572</ele><time>2026-05-02T13:52:17.11Z</time></trkpt><trkpt lat="46.1419996" lon="13.4294423"><ele>466.28571428571433</ele><time>2026-05-02T13:52:18.11Z</time></trkpt><trkpt lat="46.1419889" lon="13.4293304"><ele>467.42857142857144</ele><time>2026-05-02T13:52:19.111Z</time></trkpt><trkpt lat="46.1419871" lon="13.4292383"><ele>468.5714285714286</ele><time>2026-05-02T13:52:20.111Z</time></trkpt><trkpt lat="46.141997" lon="13.4291426"><ele>469.7142857142858</ele><time>2026-05-02T13:52:21.11Z</time></trkpt><trkpt lat="46.1420065" lon="13.4290184"><ele>470.85714285714283</ele><time>2026-05-02T13:52:22.11Z</time></trkpt><trkpt lat="46.1420197" lon="13.4289154"><ele>472.0</ele><time>2026-05-02T13:52:23.11Z</time></trkpt><trkpt lat="46.1420163" lon="13.4288047"><ele>473.00000000000006</ele><time>2026-05-02T13:52:24.11Z</time></trkpt><trkpt lat="46.1420053" lon="13.4286778"><ele>474.0</ele><time>2026-05-02T13:52:25.11Z</time></trkpt><trkpt lat="46.1419823" lon="13.428565"><ele>475.0</ele><time>2026-05-02T13:52:26.111Z</time></trkpt><trkpt lat="46.1419629" lon="13.4284563"><ele>476.0</ele><time>2026-05-02T13:52:27.11Z</time></trkpt><trkpt lat="46.1419368" lon="13.4283613"><ele>477.00000000000006</ele><time>2026-05-02T13:52:28.111Z</time></trkpt><trkpt lat="46.1418967" lon="13.4282685"><ele>478.0</ele><time>2026-05-02T13:52:29.11Z</time></trkpt><trkpt lat="46.1418546" lon="13.4281952"><ele>478.00000000000006</ele><time>2026-05-02T13:52:30.111Z</time></trkpt><trkpt lat="46.1418028" lon="13.4281408"><ele>478.0</ele><time>2026-05-02T13:52:31.111Z</time></trkpt><trkpt lat="46.1417538" lon="13.4280825"><ele>478.00000000000006</ele><time>2026-05-02T13:52:32.11Z</time></trkpt><trkpt lat="46.1417054" lon="13.4280152"><ele>478.00000000000006</ele><time>2026-05-02T13:52:33.111Z</time></trkpt><trkpt lat="46.1416688" lon="13.4279383"><ele>478.0</ele><time>2026-05-02T13:52:34.111Z</time></trkpt><trkpt lat="46.1416445" lon="13.4278483"><ele>478.00000000000006</ele><time>2026-05-02T13:52:35.11Z</time></trkpt><trkpt lat="46.1416369" lon="13.4277521"><ele>478.00000000000006</ele><time>2026-05-02T13:52:36.11Z</time></trkpt><trkpt lat="46.1416366" lon="13.4276463"><ele>479.79999999999995</ele><time>2026-05-02T13:52:37.11Z</time></trkpt><trkpt lat="46.1416096" lon="13.4274811"><ele>481.59999999999997</ele><time>2026-05-02T13:52:39.11Z</time></trkpt><trkpt lat="46.141535" lon="13.4273771"><ele>483.40000000000003</ele><time>2026-05-02T13:52:41.111Z</time></trkpt><trkpt lat="46.1414265" lon="13.427363"><ele>485.20000000000005</ele><time>2026-05-02T13:52:43.111Z</time></trkpt><trkpt lat="46.1413519" lon="13.4273776"><ele>487.0</ele><time>2026-05-02T13:52:44.111Z</time></trkpt><trkpt lat="46.1412711" lon="13.4274046"><ele>487.0</ele><time>2026-05-02T13:52:45.11Z</time></trkpt><trkpt lat="46.1411965" lon="13.4274438"><ele>487.0</ele><time>2026-05-02T13:52:46.11Z</time></trkpt><trkpt lat="46.1411111" lon="13.4274818"><ele>487.0</ele><time>2026-05-02T13:52:47.11Z</time></trkpt><trkpt lat="46.1410364" lon="13.427517"><ele>487.0</ele><time>2026-05-02T13:52:48.11Z</time></trkpt><trkpt lat="46.1409751" lon="13.4275493"><ele>487.0</ele><time>2026-05-02T13:52:49.11Z</time></trkpt><trkpt lat="46.1409134" lon="13.4275752"><ele>487.0</ele><time>2026-05-02T13:52:50.11Z</time></trkpt><trkpt lat="46.1408512" lon="13.4275985"><ele>487.0</ele><time>2026-05-02T13:52:51.11Z</time></trkpt><trkpt lat="46.140786" lon="13.4276168"><ele>485.33333333333337</ele><time>2026-05-02T13:52:52.111Z</time></trkpt><trkpt lat="46.1406572" lon="13.4276273"><ele>483.6666666666667</ele><time>2026-05-02T13:52:54.11Z</time></trkpt><trkpt lat="46.1405842" lon="13.4276038"><ele>482.0</ele><time>2026-05-02T13:52:55.111Z</time></trkpt><trkpt lat="46.1405122" lon="13.4275671"><ele>480.33333333333337</ele><time>2026-05-02T13:52:56.11Z</time></trkpt><trkpt lat="46.1404452" lon="13.4274863"><ele>478.6666666666667</ele><time>2026-05-02T13:52:57.11Z</time></trkpt><trkpt lat="46.140405" lon="13.4274065"><ele>477.0</ele><time>2026-05-02T13:52:58.11Z</time></trkpt><trkpt lat="46.140368" lon="13.4273195"><ele>477.20000000000005</ele><time>2026-05-02T13:52:59.111Z</time></trkpt><trkpt lat="46.1403332" lon="13.4271299"><ele>477.40000000000003</ele><time>2026-05-02T13:53:01.11Z</time></trkpt><trkpt lat="46.1403233" lon="13.4270012"><ele>477.59999999999997</ele><time>2026-05-02T13:53:02.11Z</time></trkpt><trkpt lat="46.1403106" lon="13.4268787"><ele>477.79999999999995</ele><time>2026-05-02T13:53:03.11Z</time></trkpt><trkpt lat="46.1402965" lon="13.4267625"><ele>478.0</ele><time>2026-05-02T13:53:04.11Z</time></trkpt><trkpt lat="46.1402803" lon="13.4266547"><ele>478.00000000000006</ele><time>2026-05-02T13:53:05.111Z</time></trkpt><trkpt lat="46.140275" lon="13.4265461"><ele>478.0</ele><time>2026-05-02T13:53:06.111Z</time></trkpt><trkpt lat="46.1403086" lon="13.426363"><ele>478.0</ele><time>2026-05-02T13:53:08.11Z</time></trkpt><trkpt lat="46.1403489" lon="13.4262736"><ele>478.0</ele><time>2026-05-02T13:53:09.111Z</time></trkpt><trkpt lat="46.1403963" lon="13.4262122"><ele>478.00000000000006</ele><time>2026-05-02T13:53:10.11Z</time></trkpt><trkpt lat="46.1404443" lon="13.4261504"><ele>478.0</ele><time>2026-05-02T13:53:11.111Z</time></trkpt><trkpt lat="46.1405194" lon="13.42604"><ele>479.59999999999997</ele><time>2026-05-02T13:53:13.111Z</time></trkpt><trkpt lat="46.1405008" lon="13.4259312"><ele>481.19999999999993</ele><time>2026-05-02T13:53:15.111Z</time></trkpt><trkpt lat="46.1404104" lon="13.4258739"><ele>482.8</ele><time>2026-05-02T13:53:17.111Z</time></trkpt><trkpt lat="46.1403134" lon="13.4258598"><ele>484.4</ele><time>2026-05-02T13:53:18.11Z</time></trkpt><trkpt lat="46.140215" lon="13.4258354"><ele>486.0</ele><time>2026-05-02T13:53:19.111Z</time></trkpt><trkpt lat="46.1401226" lon="13.4257994"><ele>486.0</ele><time>2026-05-02T13:53:20.11Z</time></trkpt><trkpt lat="46.1400398" lon="13.4257685"><ele>486.0</ele><time>2026-05-02T13:53:21.11Z</time></trkpt><trkpt lat="46.1399531" lon="13.4257246"><ele>486.0</ele><time>2026-05-02T13:53:22.11Z</time></trkpt><trkpt lat="46.1398816" lon="13.4256666"><ele>486.0</ele><time>2026-05-02T13:53:23.11Z</time></trkpt><trkpt lat="46.1398142" lon="13.42558"><ele>486.0</ele><time>2026-05-02T13:53:24.11Z</time></trkpt><trkpt lat="46.1397373" lon="13.4254796"><ele>483.8333333333333</ele><time>2026-05-02T13:53:25.11Z</time></trkpt><trkpt lat="46.139672" lon="13.4253759"><ele>481.66666666666663</ele><time>2026-05-02T13:53:26.111Z</time></trkpt><trkpt lat="46.1396181" lon="13.4252852"><ele>479.5</ele><time>2026-05-02T13:53:27.111Z</time></trkpt><trkpt lat="46.1395721" lon="13.4251982"><ele>477.3333333333333</ele><time>2026-05-02T13:53:28.11Z</time></trkpt><trkpt lat="46.1395326" lon="13.4250994"><ele>475.16666666666663</ele><time>2026-05-02T13:53:29.11Z</time></trkpt><trkpt lat="46.1395072" lon="13.4250004"><ele>473.0</ele><time>2026-05-02T13:53:30.11Z</time></trkpt><trkpt lat="46.139499" lon="13.4249082"><ele>472.99999999999994</ele><time>2026-05-02T13:53:31.11Z</time></trkpt><trkpt lat="46.1395089" lon="13.4248135"><ele>473.0</ele><time>2026-05-02T13:53:32.11Z</time></trkpt><trkpt lat="46.139518" lon="13.4247151"><ele>473.0</ele><time>2026-05-02T13:53:33.11Z</time></trkpt><trkpt lat="46.1395544" lon="13.4246329"><ele>473.0</ele><time>2026-05-02T13:53:34.11Z</time></trkpt><trkpt lat="46.1395926" lon="13.4245482"><ele>472.99999999999994</ele><time>2026-05-02T13:53:35.11Z</time></trkpt><trkpt lat="46.1396321" lon="13.4244642"><ele>473.0</ele><time>2026-05-02T13:53:36.11Z</time></trkpt><trkpt lat="46.1396266" lon="13.4243011"><ele>473.7142857142857</ele><time>2026-05-02T13:53:38.111Z</time></trkpt><trkpt lat="46.1395987" lon="13.42421"><ele>474.42857142857144</ele><time>2026-05-02T13:53:39.11Z</time></trkpt><trkpt lat="46.1395541" lon="13.4241274"><ele>475.14285714285717</ele><time>2026-05-02T13:53:40.111Z</time></trkpt><trkpt lat="46.1395127" lon="13.4240437"><ele>475.8571428571429</ele><time>2026-05-02T13:53:41.11Z</time></trkpt><trkpt lat="46.139487" lon="13.4239542"><ele>476.57142857142856</ele><time>2026-05-02T13:53:42.111Z</time></trkpt><trkpt lat="46.1394838" lon="13.4238467"><ele>477.28571428571433</ele><time>2026-05-02T13:53:43.11Z</time></trkpt><trkpt lat="46.1394796" lon="13.4237111"><ele>478.00000000000006</ele><time>2026-05-02T13:53:44.111Z</time></trkpt><trkpt lat="46.1394724" lon="13.4235743"><ele>478.83333333333337</ele><time>2026-05-02T13:53:45.11Z</time></trkpt><trkpt lat="46.1394443" lon="13.4234554"><ele>479.6666666666667</ele><time>2026-05-02T13:53:46.111Z</time></trkpt><trkpt lat="46.1394102" lon="13.4233344"><ele>480.5</ele><time>2026-05-02T13:53:47.111Z</time></trkpt><trkpt lat="46.1393769" lon="13.4232294"><ele>481.33333333333337</ele><time>2026-05-02T13:53:48.11Z</time></trkpt><trkpt lat="46.1393481" lon="13.4231366"><ele>482.1666666666667</ele><time>2026-05-02T13:53:49.111Z</time></trkpt><trkpt lat="46.1393344" lon="13.4230392"><ele>483.0</ele><time>2026-05-02T13:53:50.11Z</time></trkpt><trkpt lat="46.1393294" lon="13.4229368"><ele>484.8333333333333</ele><time>2026-05-02T13:53:51.11Z</time></trkpt><trkpt lat="46.1393254" lon="13.4228148"><ele>486.66666666666663</ele><time>2026-05-02T13:53:52.111Z</time></trkpt><trkpt lat="46.1393112" lon="13.4227045"><ele>488.5</ele><time>2026-05-02T13:53:53.111Z</time></trkpt><trkpt lat="46.1392823" lon="13.422621"><ele>490.3333333333333</ele><time>2026-05-02T13:53:54.11Z</time></trkpt><trkpt lat="46.139204" lon="13.4225194"><ele>492.16666666666663</ele><time>2026-05-02T13:53:56.111Z</time></trkpt><trkpt lat="46.1391545" lon="13.4224583"><ele>494.0</ele><time>2026-05-02T13:53:57.11Z</time></trkpt><trkpt lat="46.1391047" lon="13.4223943"><ele>495.6</ele><time>2026-05-02T13:53:58.111Z</time></trkpt><trkpt lat="46.1390058" lon="13.4223038"><ele>497.2</ele><time>2026-05-02T13:54:00.111Z</time></trkpt><trkpt lat="46.1389416" lon="13.4221936"><ele>498.80000000000007</ele><time>2026-05-02T13:54:02.11Z</time></trkpt><trkpt lat="46.1388886" lon="13.4220319"><ele>500.40000000000003</ele><time>2026-05-02T13:54:04.11Z</time></trkpt><trkpt lat="46.1388262" lon="13.4219253"><ele>502.0</ele><time>2026-05-02T13:54:06.11Z</time></trkpt><trkpt lat="46.138717" lon="13.4219062"><ele>501.99999999999994</ele><time>2026-05-02T13:54:08.11Z</time></trkpt><trkpt lat="46.1386424" lon="13.4219321"><ele>502.0</ele><time>2026-05-02T13:54:09.111Z</time></trkpt><trkpt lat="46.1385629" lon="13.4219714"><ele>501.99999999999994</ele><time>2026-05-02T13:54:10.11Z</time></trkpt><trkpt lat="46.1384904" lon="13.4220008"><ele>501.99999999999994</ele><time>2026-05-02T13:54:11.111Z</time></trkpt><trkpt lat="46.1384238" lon="13.4220254"><ele>502.0</ele><time>2026-05-02T13:54:12.11Z</time></trkpt><trkpt lat="46.1383507" lon="13.4220446"><ele>501.99999999999994</ele><time>2026-05-02T13:54:13.11Z</time></trkpt><trkpt lat="46.1382816" lon="13.4220635"><ele>501.99999999999994</ele><time>2026-05-02T13:54:14.11Z</time></trkpt><trkpt lat="46.1382118" lon="13.4220628"><ele>499.6666666666667</ele><time>2026-05-02T13:54:15.11Z</time></trkpt><trkpt lat="46.1381391" lon="13.4220318"><ele>497.33333333333337</ele><time>2026-05-02T13:54:16.11Z</time></trkpt><trkpt lat="46.1380651" lon="13.4220145"><ele>495.0</ele><time>2026-05-02T13:54:17.11Z</time></trkpt><trkpt lat="46.1379827" lon="13.4220158"><ele>492.66666666666663</ele><time>2026-05-02T13:54:18.111Z</time></trkpt><trkpt lat="46.1378931" lon="13.4220262"><ele>490.3333333333333</ele><time>2026-05-02T13:54:19.111Z</time></trkpt><trkpt lat="46.1378025" lon="13.422033"><ele>488.0</ele><time>2026-05-02T13:54:20.111Z</time></trkpt><trkpt lat="46.1377101" lon="13.422039"><ele>487.99999999999994</ele><time>2026-05-02T13:54:21.11Z</time></trkpt><trkpt lat="46.1376281" lon="13.4220494"><ele>488.0</ele><time>2026-05-02T13:54:22.11Z</time></trkpt><trkpt lat="46.137558" lon="13.4220565"><ele>488.0</ele><time>2026-05-02T13:54:23.11Z</time></trkpt><trkpt lat="46.1374525" lon="13.4220347"><ele>488.0</ele><time>2026-05-02T13:54:25.109Z</time></trkpt><trkpt lat="46.1374059" lon="13.4219336"><ele>487.99999999999994</ele><time>2026-05-02T13:54:27.109Z</time></trkpt><trkpt lat="46.1373992" lon="13.4218051"><ele>488.0</ele><time>2026-05-02T13:54:29.109Z</time></trkpt><trkpt lat="46.1373922" lon="13.4216319"><ele>483.79999999999995</ele><time>2026-05-02T13:54:31.109Z</time></trkpt><trkpt lat="46.1373634" lon="13.4214663"><ele>479.59999999999997</ele><time>2026-05-02T13:54:33.109Z</time></trkpt><trkpt lat="46.1373191" lon="13.421389"><ele>475.40000000000003</ele><time>2026-05-02T13:54:34.11Z</time></trkpt><trkpt lat="46.1372627" lon="13.4213111"><ele>471.20000000000005</ele><time>2026-05-02T13:54:35.109Z</time></trkpt><trkpt lat="46.1372133" lon="13.4212396"><ele>467.0</ele><time>2026-05-02T13:54:36.109Z</time></trkpt><trkpt lat="46.1371554" lon="13.42109"><ele>466.99999999999994</ele><time>2026-05-02T13:54:38.109Z</time></trkpt><trkpt lat="46.1371499" lon="13.4209863"><ele>467.0</ele><time>2026-05-02T13:54:39.109Z</time></trkpt><trkpt lat="46.1371569" lon="13.4208781"><ele>467.0</ele><time>2026-05-02T13:54:40.11Z</time></trkpt><trkpt lat="46.1371658" lon="13.4207413"><ele>467.0</ele><time>2026-05-02T13:54:41.11Z</time></trkpt><trkpt lat="46.1371747" lon="13.4206087"><ele>466.99999999999994</ele><time>2026-05-02T13:54:42.109Z</time></trkpt><trkpt lat="46.1371804" lon="13.4204902"><ele>467.0</ele><time>2026-05-02T13:54:43.109Z</time></trkpt><trkpt lat="46.1371863" lon="13.4203841"><ele>470.6</ele><time>2026-05-02T13:54:44.109Z</time></trkpt><trkpt lat="46.1371593" lon="13.4202383"><ele>474.20000000000005</ele><time>2026-05-02T13:54:46.109Z</time></trkpt><trkpt lat="46.1370677" lon="13.4201616"><ele>477.8</ele><time>2026-05-02T13:54:48.109Z</time></trkpt><trkpt lat="46.1369909" lon="13.4201326"><ele>481.4</ele><time>2026-05-02T13:54:49.11Z</time></trkpt><trkpt lat="46.1369054" lon="13.4200965"><ele>485.0</ele><time>2026-05-02T13:54:50.11Z</time></trkpt><trkpt lat="46.1368174" lon="13.4200519"><ele>484.99999999999994</ele><time>2026-05-02T13:54:51.109Z</time></trkpt><trkpt lat="46.1367369" lon="13.4200006"><ele>485.0</ele><time>2026-05-02T13:54:52.109Z</time></trkpt><trkpt lat="46.1366571" lon="13.4199508"><ele>485.0</ele><time>2026-05-02T13:54:53.109Z</time></trkpt><trkpt lat="46.1365762" lon="13.4198886"><ele>485.0</ele><time>2026-05-02T13:54:54.109Z</time></trkpt><trkpt lat="46.1364985" lon="13.4198225"><ele>484.99999999999994</ele><time>2026-05-02T13:54:55.11Z</time></trkpt><trkpt lat="46.1364318" lon="13.4197613"><ele>485.0</ele><time>2026-05-02T13:54:56.11Z</time></trkpt><trkpt lat="46.1363779" lon="13.4197125"><ele>490.2</ele><time>2026-05-02T13:54:57.11Z</time></trkpt><trkpt lat="46.1363102" lon="13.419595"><ele>495.4</ele><time>2026-05-02T13:54:59.109Z</time></trkpt><trkpt lat="46.1362786" lon="13.4194375"><ele>500.6</ele><time>2026-05-02T13:55:01.109Z</time></trkpt><trkpt lat="46.1362285" lon="13.4192777"><ele>505.8</ele><time>2026-05-02T13:55:03.109Z</time></trkpt><trkpt lat="46.1361725" lon="13.4191687"><ele>511.0</ele><time>2026-05-02T13:55:05.109Z</time></trkpt><trkpt lat="46.1361162" lon="13.4192179"><ele>511.0</ele><time>2026-05-02T13:55:07.109Z</time></trkpt><trkpt lat="46.1360984" lon="13.4194075"><ele>511.0</ele><time>2026-05-02T13:55:09.11Z</time></trkpt><trkpt lat="46.1360828" lon="13.4195204"><ele>511.0</ele><time>2026-05-02T13:55:10.109Z</time></trkpt><trkpt lat="46.1360556" lon="13.4196084"><ele>511.0</ele><time>2026-05-02T13:55:11.109Z</time></trkpt><trkpt lat="46.1359786" lon="13.4197685"><ele>511.0</ele><time>2026-05-02T13:55:13.11Z</time></trkpt><trkpt lat="46.1359238" lon="13.4198451"><ele>507.33333333333337</ele><time>2026-05-02T13:55:14.109Z</time></trkpt><trkpt lat="46.1358716" lon="13.4199106"><ele>503.6666666666667</ele><time>2026-05-02T13:55:15.109Z</time></trkpt><trkpt lat="46.1358093" lon="13.4199619"><ele>500.0</ele><time>2026-05-02T13:55:16.109Z</time></trkpt><trkpt lat="46.1356861" lon="13.4199871"><ele>496.33333333333337</ele><time>2026-05-02T13:55:18.11Z</time></trkpt><trkpt lat="46.1356082" lon="13.4199688"><ele>492.6666666666667</ele><time>2026-05-02T13:55:19.109Z</time></trkpt><trkpt lat="46.135524" lon="13.41995"><ele>489.0</ele><time>2026-05-02T13:55:20.109Z</time></trkpt><trkpt lat="46.1354502" lon="13.4199535"><ele>489.0</ele><time>2026-05-02T13:55:21.109Z</time></trkpt><trkpt lat="46.1353786" lon="13.4199947"><ele>489.00000000000006</ele><time>2026-05-02T13:55:22.109Z</time></trkpt><trkpt lat="46.1353152" lon="13.4200429"><ele>489.0</ele><time>2026-05-02T13:55:23.109Z</time></trkpt><trkpt lat="46.1352462" lon="13.4200886"><ele>489.0</ele><time>2026-05-02T13:55:24.109Z</time></trkpt><trkpt lat="46.1351831" lon="13.4201226"><ele>489.00000000000006</ele><time>2026-05-02T13:55:25.11Z</time></trkpt><trkpt lat="46.1351114" lon="13.4201595"><ele>489.0</ele><time>2026-05-02T13:55:26.109Z</time></trkpt><trkpt lat="46.1350447" lon="13.420215"><ele>489.0</ele><time>2026-05-02T13:55:27.11Z</time></trkpt><trkpt lat="46.1349725" lon="13.4202813"><ele>489.0</ele><time>2026-05-02T13:55:28.109Z</time></trkpt><trkpt lat="46.1349037" lon="13.420363"><ele>489.0</ele><time>2026-05-02T13:55:29.109Z</time></trkpt><trkpt lat="46.1348263" lon="13.4204475"><ele>489.0</ele><time>2026-05-02T13:55:30.109Z</time></trkpt><trkpt lat="46.1347526" lon="13.4205257"><ele>489.0</ele><time>2026-05-02T13:55:31.11Z</time></trkpt><trkpt lat="46.1346866" lon="13.4206032"><ele>489.0</ele><time>2026-05-02T13:55:32.11Z</time></trkpt><trkpt lat="46.1346365" lon="13.4206869"><ele>489.0</ele><time>2026-05-02T13:55:33.11Z</time></trkpt><trkpt lat="46.1345846" lon="13.4207522"><ele>485.1666666666667</ele><time>2026-05-02T13:55:34.109Z</time></trkpt><trkpt lat="46.134531" lon="13.4208104"><ele>481.33333333333337</ele><time>2026-05-02T13:55:35.11Z</time></trkpt><trkpt lat="46.1344738" lon="13.4208617"><ele>477.5</ele><time>2026-05-02T13:55:36.109Z</time></trkpt><trkpt lat="46.1344105" lon="13.4208895"><ele>473.6666666666667</ele><time>2026-05-02T13:55:37.11Z</time></trkpt><trkpt lat="46.1343398" lon="13.4209107"><ele>469.83333333333337</ele><time>2026-05-02T13:55:38.109Z</time></trkpt><trkpt lat="46.1342762" lon="13.4209402"><ele>466.0</ele><time>2026-05-02T13:55:39.109Z</time></trkpt><trkpt lat="46.1341713" lon="13.4210071"><ele>466.00000000000006</ele><time>2026-05-02T13:55:41.11Z</time></trkpt><trkpt lat="46.1341051" lon="13.4210593"><ele>466.0</ele><time>2026-05-02T13:55:42.11Z</time></trkpt><trkpt lat="46.1340357" lon="13.4211204"><ele>466.0</ele><time>2026-05-02T13:55:43.109Z</time></trkpt><trkpt lat="46.1339582" lon="13.4211828"><ele>466.0</ele><time>2026-05-02T13:55:44.11Z</time></trkpt><trkpt lat="46.1338926" lon="13.4212431"><ele>466.00000000000006</ele><time>2026-05-02T13:55:45.109Z</time></trkpt><trkpt lat="46.1338343" lon="13.4212997"><ele>466.0</ele><time>2026-05-02T13:55:46.109Z</time></trkpt><trkpt lat="46.1337766" lon="13.421365"><ele>460.8</ele><time>2026-05-02T13:55:47.11Z</time></trkpt><trkpt lat="46.1337304" lon="13.4214268"><ele>455.6</ele><time>2026-05-02T13:55:48.109Z</time></trkpt><trkpt lat="46.1336364" lon="13.4215346"><ele>450.4</ele><time>2026-05-02T13:55:50.109Z</time></trkpt><trkpt lat="46.1335867" lon="13.4215933"><ele>445.2</ele><time>2026-05-02T13:55:51.11Z</time></trkpt><trkpt lat="46.1334855" lon="13.4216608"><ele>440.0</ele><time>2026-05-02T13:55:53.11Z</time></trkpt><trkpt lat="46.1333711" lon="13.4216968"><ele>440.0</ele><time>2026-05-02T13:55:55.109Z</time></trkpt><trkpt lat="46.1332667" lon="13.4217017"><ele>440.0</ele><time>2026-05-02T13:55:57.11Z</time></trkpt><trkpt lat="46.1331739" lon="13.4216277"><ele>440.0</ele><time>2026-05-02T13:55:59.109Z</time></trkpt><trkpt lat="46.133125" lon="13.4215073"><ele>440.0</ele><time>2026-05-02T13:56:01.11Z</time></trkpt><trkpt lat="46.1331098" lon="13.4213329"><ele>440.0</ele><time>2026-05-02T13:56:03.109Z</time></trkpt><trkpt lat="46.133109" lon="13.4212369"><ele>434.99999999999994</ele><time>2026-05-02T13:56:04.109Z</time></trkpt><trkpt lat="46.1331105" lon="13.4211399"><ele>430.0</ele><time>2026-05-02T13:56:05.11Z</time></trkpt><trkpt lat="46.1331178" lon="13.4210354"><ele>425.0</ele><time>2026-05-02T13:56:06.109Z</time></trkpt><trkpt lat="46.1331197" lon="13.4209335"><ele>420.0</ele><time>2026-05-02T13:56:07.11Z</time></trkpt><trkpt lat="46.1331101" lon="13.4208435"><ele>414.99999999999994</ele><time>2026-05-02T13:56:08.11Z</time></trkpt><trkpt lat="46.1330668" lon="13.4207076"><ele>410.0</ele><time>2026-05-02T13:56:10.11Z</time></trkpt><trkpt lat="46.1329983" lon="13.4205885"><ele>410.0</ele><time>2026-05-02T13:56:12.109Z</time></trkpt><trkpt lat="46.1329178" lon="13.4205343"><ele>410.0</ele><time>2026-05-02T13:56:14.109Z</time></trkpt><trkpt lat="46.1328022" lon="13.420571"><ele>410.0</ele><time>2026-05-02T13:56:16.11Z</time></trkpt><trkpt lat="46.132693" lon="13.420638"><ele>410.0</ele><time>2026-05-02T13:56:18.109Z</time></trkpt><trkpt lat="46.1325952" lon="13.4206729"><ele>410.0</ele><time>2026-05-02T13:56:20.109Z</time></trkpt><trkpt lat="46.1325107" lon="13.4205678"><ele>409.99999999999994</ele><time>2026-05-02T13:56:22.11Z</time></trkpt><trkpt lat="46.1324698" lon="13.4204901"><ele>410.0</ele><time>2026-05-02T13:56:23.109Z</time></trkpt><trkpt lat="46.1324333" lon="13.4204011"><ele>410.0</ele><time>2026-05-02T13:56:24.11Z</time></trkpt><trkpt lat="46.1324065" lon="13.4203029"><ele>410.0</ele><time>2026-05-02T13:56:25.109Z</time></trkpt><trkpt lat="46.1323907" lon="13.4201191"><ele>409.99999999999994</ele><time>2026-05-02T13:56:27.109Z</time></trkpt><trkpt lat="46.1323895" lon="13.4200037"><ele>410.0</ele><time>2026-05-02T13:56:28.109Z</time></trkpt><trkpt lat="46.1323824" lon="13.4198936"><ele>409.49999999999994</ele><time>2026-05-02T13:56:29.109Z</time></trkpt><trkpt lat="46.1323764" lon="13.4197869"><ele>409.0</ele><time>2026-05-02T13:56:30.109Z</time></trkpt><trkpt lat="46.1323781" lon="13.4196758"><ele>408.5</ele><time>2026-05-02T13:56:31.109Z</time></trkpt><trkpt lat="46.132391" lon="13.4195586"><ele>408.0</ele><time>2026-05-02T13:56:32.109Z</time></trkpt><trkpt lat="46.1324146" lon="13.4194527"><ele>407.49999999999994</ele><time>2026-05-02T13:56:33.11Z</time></trkpt><trkpt lat="46.1324214" lon="13.4193411"><ele>407.0</ele><time>2026-05-02T13:56:34.109Z</time></trkpt><trkpt lat="46.1324223" lon="13.4192254"><ele>406.99999999999994</ele><time>2026-05-02T13:56:35.109Z</time></trkpt><trkpt lat="46.1324198" lon="13.4191146"><ele>407.0</ele><time>2026-05-02T13:56:36.109Z</time></trkpt><trkpt lat="46.1324084" lon="13.4189998"><ele>407.0</ele><time>2026-05-02T13:56:37.109Z</time></trkpt><trkpt lat="46.1323933" lon="13.4188781"><ele>407.0</ele><time>2026-05-02T13:56:38.11Z</time></trkpt><trkpt lat="46.1323732" lon="13.4187577"><ele>406.99999999999994</ele><time>2026-05-02T13:56:39.109Z</time></trkpt><trkpt lat="46.1323577" lon="13.4186426"><ele>407.0</ele><time>2026-05-02T13:56:40.109Z</time></trkpt><trkpt lat="46.1323397" lon="13.4185176"><ele>398.8</ele><time>2026-05-02T13:56:41.109Z</time></trkpt><trkpt lat="46.1323237" lon="13.4183883"><ele>390.6</ele><time>2026-05-02T13:56:42.109Z</time></trkpt><trkpt lat="46.1323" lon="13.4182567"><ele>382.40000000000003</ele><time>2026-05-02T13:56:43.11Z</time></trkpt><trkpt lat="46.1322791" lon="13.4181169"><ele>374.20000000000005</ele><time>2026-05-02T13:56:44.109Z</time></trkpt><trkpt lat="46.1322499" lon="13.4179858"><ele>366.0</ele><time>2026-05-02T13:56:45.109Z</time></trkpt><trkpt lat="46.1322266" lon="13.4178606"><ele>366.0</ele><time>2026-05-02T13:56:46.109Z</time></trkpt><trkpt lat="46.1322048" lon="13.4177512"><ele>366.0</ele><time>2026-05-02T13:56:47.11Z</time></trkpt><trkpt lat="46.1321683" lon="13.417641"><ele>366.0</ele><time>2026-05-02T13:56:48.11Z</time></trkpt><trkpt lat="46.1321406" lon="13.4175301"><ele>366.0</ele><time>2026-05-02T13:56:49.11Z</time></trkpt><trkpt lat="46.1321138" lon="13.417421"><ele>366.0</ele><time>2026-05-02T13:56:50.109Z</time></trkpt><trkpt lat="46.1320903" lon="13.4173294"><ele>366.0</ele><time>2026-05-02T13:56:51.109Z</time></trkpt><trkpt lat="46.1320325" lon="13.4171883"><ele>366.0</ele><time>2026-05-02T13:56:53.109Z</time></trkpt><trkpt lat="46.1319423" lon="13.4171076"><ele>366.0</ele><time>2026-05-02T13:56:55.109Z</time></trkpt><trkpt lat="46.1318128" lon="13.4171554"><ele>366.0</ele><time>2026-05-02T13:56:57.11Z</time></trkpt><trkpt lat="46.1317295" lon="13.4171826"><ele>366.0</ele><time>2026-05-02T13:56:58.109Z</time></trkpt><trkpt lat="46.1316509" lon="13.4172217"><ele>366.0</ele><time>2026-05-02T13:56:59.11Z</time></trkpt><trkpt lat="46.1315721" lon="13.4172565"><ele>363.3333333333333</ele><time>2026-05-02T13:57:00.109Z</time></trkpt><trkpt lat="46.1314928" lon="13.4173026"><ele>360.6666666666667</ele><time>2026-05-02T13:57:01.109Z</time></trkpt><trkpt lat="46.1314115" lon="13.4173403"><ele>358.0</ele><time>2026-05-02T13:57:02.109Z</time></trkpt><trkpt lat="46.1313328" lon="13.4173862"><ele>355.33333333333337</ele><time>2026-05-02T13:57:03.11Z</time></trkpt><trkpt lat="46.1312509" lon="13.4174367"><ele>352.6666666666667</ele><time>2026-05-02T13:57:04.11Z</time></trkpt><trkpt lat="46.1311706" lon="13.417496"><ele>350.0</ele><time>2026-05-02T13:57:05.11Z</time></trkpt><trkpt lat="46.1310885" lon="13.4175536"><ele>350.0</ele><time>2026-05-02T13:57:06.109Z</time></trkpt><trkpt lat="46.1310034" lon="13.4176165"><ele>350.0</ele><time>2026-05-02T13:57:07.11Z</time></trkpt><trkpt lat="46.130924" lon="13.4176838"><ele>350.0</ele><time>2026-05-02T13:57:08.11Z</time></trkpt><trkpt lat="46.1308424" lon="13.4177439"><ele>350.0</ele><time>2026-05-02T13:57:09.109Z</time></trkpt><trkpt lat="46.1307724" lon="13.4177959"><ele>350.0</ele><time>2026-05-02T13:57:10.109Z</time></trkpt><trkpt lat="46.1307138" lon="13.4178358"><ele>350.0</ele><time>2026-05-02T13:57:11.11Z</time></trkpt><trkpt lat="46.1306337" lon="13.4178653"><ele>343.6</ele><time>2026-05-02T13:57:13.11Z</time></trkpt><trkpt lat="46.1305875" lon="13.4177731"><ele>337.2</ele><time>2026-05-02T13:57:15.109Z</time></trkpt><trkpt lat="46.130577" lon="13.4176089"><ele>330.8</ele><time>2026-05-02T13:57:17.109Z</time></trkpt><trkpt lat="46.1305682" lon="13.4174254"><ele>324.4</ele><time>2026-05-02T13:57:19.11Z</time></trkpt><trkpt lat="46.1305345" lon="13.4173312"><ele>318.0</ele><time>2026-05-02T13:57:20.109Z</time></trkpt><trkpt lat="46.1304859" lon="13.4172551"><ele>318.0</ele><time>2026-05-02T13:57:21.109Z</time></trkpt><trkpt lat="46.1304343" lon="13.41719"><ele>318.0</ele><time>2026-05-02T13:57:22.109Z</time></trkpt><trkpt lat="46.1303517" lon="13.4170787"><ele>318.0</ele><time>2026-05-02T13:57:24.109Z</time></trkpt><trkpt lat="46.1302624" lon="13.4170471"><ele>318.0</ele><time>2026-05-02T13:57:26.109Z</time></trkpt><trkpt lat="46.1301565" lon="13.4170867"><ele>318.0</ele><time>2026-05-02T13:57:28.11Z</time></trkpt><trkpt lat="46.1300494" lon="13.4171576"><ele>318.0</ele><time>2026-05-02T13:57:30.109Z</time></trkpt><trkpt lat="46.1299553" lon="13.4171896"><ele>318.0</ele><time>2026-05-02T13:57:32.109Z</time></trkpt><trkpt lat="46.1298822" lon="13.4171843"><ele>318.0</ele><time>2026-05-02T13:57:34.109Z</time></trkpt><trkpt lat="46.1298264" lon="13.4170919"><ele>318.0</ele><time>2026-05-02T13:57:36.109Z</time></trkpt><trkpt lat="46.1297916" lon="13.4169428"><ele>318.0</ele><time>2026-05-02T13:57:38.109Z</time></trkpt><trkpt lat="46.1297757" lon="13.4168538"><ele>318.0</ele><time>2026-05-02T13:57:39.109Z</time></trkpt><trkpt lat="46.1297673" lon="13.416674"><ele>314.5</ele><time>2026-05-02T13:57:41.11Z</time></trkpt><trkpt lat="46.1297769" lon="13.4165755"><ele>311.0</ele><time>2026-05-02T13:57:42.109Z</time></trkpt><trkpt lat="46.1297951" lon="13.4164801"><ele>307.5</ele><time>2026-05-02T13:57:43.109Z</time></trkpt><trkpt lat="46.1298056" lon="13.4163828"><ele>304.0</ele><time>2026-05-02T13:57:44.109Z</time></trkpt><trkpt lat="46.1298155" lon="13.416286"><ele>300.5</ele><time>2026-05-02T13:57:45.109Z</time></trkpt><trkpt lat="46.1298062" lon="13.4161087"><ele>297.0</ele><time>2026-05-02T13:57:47.109Z</time></trkpt><trkpt lat="46.129795" lon="13.4160114"><ele>297.0</ele><time>2026-05-02T13:57:48.109Z</time></trkpt><trkpt lat="46.1297713" lon="13.4159168"><ele>297.0</ele><time>2026-05-02T13:57:49.109Z</time></trkpt><trkpt lat="46.1297533" lon="13.4158211"><ele>297.0</ele><time>2026-05-02T13:57:50.109Z</time></trkpt><trkpt lat="46.1297388" lon="13.4157301"><ele>297.0</ele><time>2026-05-02T13:57:51.11Z</time></trkpt><trkpt lat="46.1297187" lon="13.4156405"><ele>297.0</ele><time>2026-05-02T13:57:52.11Z</time></trkpt><trkpt lat="46.1296739" lon="13.4155427"><ele>297.0</ele><time>2026-05-02T13:57:53.109Z</time></trkpt><trkpt lat="46.1296273" lon="13.415455"><ele>297.0</ele><time>2026-05-02T13:57:54.109Z</time></trkpt><trkpt lat="46.1295776" lon="13.4153668"><ele>301.4</ele><time>2026-05-02T13:57:55.109Z</time></trkpt><trkpt lat="46.1295401" lon="13.4152927"><ele>305.79999999999995</ele><time>2026-05-02T13:57:56.109Z</time></trkpt><trkpt lat="46.1294341" lon="13.4152787"><ele>310.2</ele><time>2026-05-02T13:57:58.109Z</time></trkpt><trkpt lat="46.1293695" lon="13.4153168"><ele>314.59999999999997</ele><time>2026-05-02T13:57:59.109Z</time></trkpt><trkpt lat="46.1292779" lon="13.415373"><ele>319.0</ele><time>2026-05-02T13:58:00.109Z</time></trkpt><trkpt lat="46.129172" lon="13.415441"><ele>314.59999999999997</ele><time>2026-05-02T13:58:01.109Z</time></trkpt><trkpt lat="46.129075" lon="13.4154929"><ele>310.2</ele><time>2026-05-02T13:58:02.109Z</time></trkpt><trkpt lat="46.1289773" lon="13.4155275"><ele>305.79999999999995</ele><time>2026-05-02T13:58:03.109Z</time></trkpt><trkpt lat="46.1288846" lon="13.4155503"><ele>301.4</ele><time>2026-05-02T13:58:04.109Z</time></trkpt><trkpt lat="46.1287938" lon="13.415554"><ele>297.0</ele><time>2026-05-02T13:58:05.11Z</time></trkpt><trkpt lat="46.1287126" lon="13.4155634"><ele>296.6666666666667</ele><time>2026-05-02T13:58:06.109Z</time></trkpt><trkpt lat="46.1286329" lon="13.4155998"><ele>296.3333333333333</ele><time>2026-05-02T13:58:07.109Z</time></trkpt><trkpt lat="46.128564" lon="13.4156481"><ele>296.0</ele><time>2026-05-02T13:58:08.109Z</time></trkpt><trkpt lat="46.1284964" lon="13.415688"><ele>295.66666666666663</ele><time>2026-05-02T13:58:09.109Z</time></trkpt><trkpt lat="46.128429" lon="13.4157377"><ele>295.3333333333333</ele><time>2026-05-02T13:58:10.109Z</time></trkpt><trkpt lat="46.1283628" lon="13.415792"><ele>295.0</ele><time>2026-05-02T13:58:11.109Z</time></trkpt><trkpt lat="46.1282895" lon="13.4158279"><ele>294.8333333333333</ele><time>2026-05-02T13:58:12.109Z</time></trkpt><trkpt lat="46.1282149" lon="13.4158638"><ele>294.66666666666663</ele><time>2026-05-02T13:58:13.11Z</time></trkpt><trkpt lat="46.1281425" lon="13.4159105"><ele>294.5</ele><time>2026-05-02T13:58:14.109Z</time></trkpt><trkpt lat="46.1280694" lon="13.415977"><ele>294.3333333333333</ele><time>2026-05-02T13:58:15.11Z</time></trkpt><trkpt lat="46.1279892" lon="13.4160543"><ele>294.1666666666667</ele><time>2026-05-02T13:58:16.11Z</time></trkpt><trkpt lat="46.1279161" lon="13.4161279"><ele>294.0</ele><time>2026-05-02T13:58:17.109Z</time></trkpt><trkpt lat="46.1278339" lon="13.4161989"><ele>294.0</ele><time>2026-05-02T13:58:18.109Z</time></trkpt><trkpt lat="46.1277507" lon="13.4162528"><ele>294.0</ele><time>2026-05-02T13:58:19.11Z</time></trkpt><trkpt lat="46.1276649" lon="13.4162971"><ele>294.0</ele><time>2026-05-02T13:58:20.11Z</time></trkpt><trkpt lat="46.1275807" lon="13.4163367"><ele>294.0</ele><time>2026-05-02T13:58:21.11Z</time></trkpt><trkpt lat="46.1275019" lon="13.4163735"><ele>294.0</ele><time>2026-05-02T13:58:22.109Z</time></trkpt><trkpt lat="46.1274241" lon="13.4163943"><ele>294.0</ele><time>2026-05-02T13:58:23.108Z</time></trkpt><trkpt lat="46.1273505" lon="13.416396"><ele>289.0</ele><time>2026-05-02T13:58:24.109Z</time></trkpt><trkpt lat="46.1272368" lon="13.4163783"><ele>284.0</ele><time>2026-05-02T13:58:26.109Z</time></trkpt><trkpt lat="46.1271304" lon="13.4162857"><ele>279.0</ele><time>2026-05-02T13:58:28.108Z</time></trkpt><trkpt lat="46.1270835" lon="13.4162141"><ele>274.0</ele><time>2026-05-02T13:58:29.108Z</time></trkpt><trkpt lat="46.1270381" lon="13.4161397"><ele>269.0</ele><time>2026-05-02T13:58:30.108Z</time></trkpt><trkpt lat="46.1269964" lon="13.4160563"><ele>264.0</ele><time>2026-05-02T13:58:31.108Z</time></trkpt><trkpt lat="46.1269451" lon="13.4159864"><ele>264.0</ele><time>2026-05-02T13:58:32.109Z</time></trkpt><trkpt lat="46.1268782" lon="13.4159186"><ele>264.0</ele><time>2026-05-02T13:58:33.108Z</time></trkpt><trkpt lat="46.126802" lon="13.415854"><ele>264.0</ele><time>2026-05-02T13:58:34.108Z</time></trkpt><trkpt lat="46.1267308" lon="13.4157946"><ele>264.0</ele><time>2026-05-02T13:58:35.109Z</time></trkpt><trkpt lat="46.1266708" lon="13.4157472"><ele>264.0</ele><time>2026-05-02T13:58:36.109Z</time></trkpt><trkpt lat="46.1265526" lon="13.4157156"><ele>264.0</ele><time>2026-05-02T13:58:38.108Z</time></trkpt><trkpt lat="46.1264283" lon="13.4157534"><ele>258.59999999999997</ele><time>2026-05-02T13:58:40.108Z</time></trkpt><trkpt lat="46.1263078" lon="13.4158254"><ele>253.2</ele><time>2026-05-02T13:58:42.108Z</time></trkpt><trkpt lat="46.1262395" lon="13.4158444"><ele>247.79999999999998</ele><time>2026-05-02T13:58:43.108Z</time></trkpt><trkpt lat="46.126177" lon="13.4158582"><ele>242.39999999999998</ele><time>2026-05-02T13:58:44.108Z</time></trkpt><trkpt lat="46.1260745" lon="13.415864"><ele>237.0</ele><time>2026-05-02T13:58:46.108Z</time></trkpt><trkpt lat="46.125999" lon="13.4158049"><ele>237.0</ele><time>2026-05-02T13:58:48.108Z</time></trkpt><trkpt lat="46.1259823" lon="13.4156615"><ele>237.0</ele><time>2026-05-02T13:58:50.108Z</time></trkpt><trkpt lat="46.1260057" lon="13.4155271"><ele>237.0</ele><time>2026-05-02T13:58:52.109Z</time></trkpt><trkpt lat="46.1260294" lon="13.4153822"><ele>237.0</ele><time>2026-05-02T13:58:54.109Z</time></trkpt><trkpt lat="46.1260305" lon="13.415291"><ele>237.0</ele><time>2026-05-02T13:58:55.109Z</time></trkpt><trkpt lat="46.1259565" lon="13.4151537"><ele>235.39999999999998</ele><time>2026-05-02T13:58:57.109Z</time></trkpt><trkpt lat="46.1258513" lon="13.4150575"><ele>233.79999999999998</ele><time>2026-05-02T13:58:59.109Z</time></trkpt><trkpt lat="46.1257329" lon="13.4149679"><ele>232.2</ele><time>2026-05-02T13:59:01.109Z</time></trkpt><trkpt lat="46.1256657" lon="13.41494"><ele>230.6</ele><time>2026-05-02T13:59:02.109Z</time></trkpt><trkpt lat="46.125599" lon="13.4149115"><ele>229.0</ele><time>2026-05-02T13:59:03.108Z</time></trkpt><trkpt lat="46.1255305" lon="13.4148832"><ele>228.99999999999997</ele><time>2026-05-02T13:59:04.108Z</time></trkpt><trkpt lat="46.1254571" lon="13.414847"><ele>229.0</ele><time>2026-05-02T13:59:05.108Z</time></trkpt><trkpt lat="46.1253887" lon="13.4148069"><ele>229.0</ele><time>2026-05-02T13:59:06.109Z</time></trkpt><trkpt lat="46.125323" lon="13.4147882"><ele>229.0</ele><time>2026-05-02T13:59:07.108Z</time></trkpt><trkpt lat="46.1252556" lon="13.4147726"><ele>228.99999999999997</ele><time>2026-05-02T13:59:08.109Z</time></trkpt><trkpt lat="46.1251393" lon="13.4147904"><ele>229.0</ele><time>2026-05-02T13:59:10.108Z</time></trkpt><trkpt lat="46.1250185" lon="13.4148049"><ele>229.0</ele><time>2026-05-02T13:59:12.108Z</time></trkpt><trkpt lat="46.1248891" lon="13.4148057"><ele>228.99999999999997</ele><time>2026-05-02T13:59:14.108Z</time></trkpt><trkpt lat="46.1247714" lon="13.414766"><ele>228.99999999999997</ele><time>2026-05-02T13:59:16.108Z</time></trkpt><trkpt lat="46.1246962" lon="13.4147098"><ele>229.0</ele><time>2026-05-02T13:59:17.108Z</time></trkpt><trkpt lat="46.1246184" lon="13.4146398"><ele>229.0</ele><time>2026-05-02T13:59:18.108Z</time></trkpt><trkpt lat="46.1245487" lon="13.4145664"><ele>228.99999999999997</ele><time>2026-05-02T13:59:19.109Z</time></trkpt><trkpt lat="46.1244824" lon="13.4145083"><ele>229.0</ele><time>2026-05-02T13:59:20.108Z</time></trkpt><trkpt lat="46.1244156" lon="13.4144535"><ele>229.0</ele><time>2026-05-02T13:59:21.108Z</time></trkpt><trkpt lat="46.1243511" lon="13.41439"><ele>229.0</ele><time>2026-05-02T13:59:22.109Z</time></trkpt><trkpt lat="46.1242861" lon="13.4143242"><ele>228.99999999999997</ele><time>2026-05-02T13:59:23.109Z</time></trkpt><trkpt lat="46.1242191" lon="13.414251"><ele>229.0</ele><time>2026-05-02T13:59:24.109Z</time></trkpt><trkpt lat="46.1241633" lon="13.4141719"><ele>229.0</ele><time>2026-05-02T13:59:25.108Z</time></trkpt><trkpt lat="46.1241123" lon="13.4140925"><ele>229.0</ele><time>2026-05-02T13:59:26.108Z</time></trkpt><trkpt lat="46.1240646" lon="13.4140091"><ele>229.0</ele><time>2026-05-02T13:59:27.109Z</time></trkpt><trkpt lat="46.1240142" lon="13.4139305"><ele>229.0</ele><time>2026-05-02T13:59:28.108Z</time></trkpt><trkpt lat="46.1239643" lon="13.4138611"><ele>229.0</ele><time>2026-05-02T13:59:29.109Z</time></trkpt><trkpt lat="46.123912" lon="13.4138053"><ele>229.0</ele><time>2026-05-02T13:59:30.108Z</time></trkpt><trkpt lat="46.1238419" lon="13.4137652"><ele>229.0</ele><time>2026-05-02T13:59:31.108Z</time></trkpt><trkpt lat="46.1237729" lon="13.4137387"><ele>226.16666666666666</ele><time>2026-05-02T13:59:32.108Z</time></trkpt><trkpt lat="46.1237101" lon="13.4137177"><ele>223.33333333333331</ele><time>2026-05-02T13:59:33.108Z</time></trkpt><trkpt lat="46.1236452" lon="13.4137038"><ele>220.5</ele><time>2026-05-02T13:59:34.108Z</time></trkpt><trkpt lat="46.1235323" lon="13.4136669"><ele>217.66666666666669</ele><time>2026-05-02T13:59:36.109Z</time></trkpt><trkpt lat="46.1234634" lon="13.4136634"><ele>214.83333333333334</ele><time>2026-05-02T13:59:37.109Z</time></trkpt><trkpt lat="46.1233907" lon="13.4136884"><ele>212.0</ele><time>2026-05-02T13:59:38.109Z</time></trkpt><trkpt lat="46.1233148" lon="13.413722"><ele>212.00000000000003</ele><time>2026-05-02T13:59:39.109Z</time></trkpt><trkpt lat="46.123231" lon="13.4137576"><ele>212.0</ele><time>2026-05-02T13:59:40.108Z</time></trkpt><trkpt lat="46.1231526" lon="13.4137911"><ele>212.0</ele><time>2026-05-02T13:59:41.109Z</time></trkpt><trkpt lat="46.1230752" lon="13.4138188"><ele>212.0</ele><time>2026-05-02T13:59:42.109Z</time></trkpt><trkpt lat="46.1229988" lon="13.413846"><ele>212.00000000000003</ele><time>2026-05-02T13:59:43.109Z</time></trkpt><trkpt lat="46.1229229" lon="13.4138639"><ele>212.0</ele><time>2026-05-02T13:59:44.108Z</time></trkpt><trkpt lat="46.1228541" lon="13.4138686"><ele>208.8</ele><time>2026-05-02T13:59:45.108Z</time></trkpt><trkpt lat="46.1227335" lon="13.4138635"><ele>205.6</ele><time>2026-05-02T13:59:47.109Z</time></trkpt><trkpt lat="46.122672" lon="13.413758"><ele>202.4</ele><time>2026-05-02T13:59:49.108Z</time></trkpt><trkpt lat="46.1227355" lon="13.4136339"><ele>199.20000000000002</ele><time>2026-05-02T13:59:51.108Z</time></trkpt><trkpt lat="46.1227823" lon="13.4135716"><ele>196.0</ele><time>2026-05-02T13:59:52.108Z</time></trkpt><trkpt lat="46.1228336" lon="13.4135145"><ele>195.66666666666666</ele><time>2026-05-02T13:59:53.108Z</time></trkpt><trkpt lat="46.1229155" lon="13.4133788"><ele>195.33333333333331</ele><time>2026-05-02T13:59:55.108Z</time></trkpt><trkpt lat="46.1229571" lon="13.4132997"><ele>195.0</ele><time>2026-05-02T13:59:56.108Z</time></trkpt><trkpt lat="46.1230088" lon="13.4132377"><ele>194.66666666666669</ele><time>2026-05-02T13:59:57.108Z</time></trkpt><trkpt lat="46.1230681" lon="13.413199"><ele>194.33333333333334</ele><time>2026-05-02T13:59:58.108Z</time></trkpt><trkpt lat="46.1231307" lon="13.4131722"><ele>194.0</ele><time>2026-05-02T13:59:59.109Z</time></trkpt><trkpt lat="46.1232419" lon="13.4131277"><ele>195.2</ele><time>2026-05-02T14:00:01.108Z</time></trkpt><trkpt lat="46.1233319" lon="13.4130439"><ele>196.39999999999998</ele><time>2026-05-02T14:00:03.108Z</time></trkpt><trkpt lat="46.123409" lon="13.4129482"><ele>197.6</ele><time>2026-05-02T14:00:05.108Z</time></trkpt><trkpt lat="46.1234862" lon="13.4128324"><ele>198.8</ele><time>2026-05-02T14:00:07.109Z</time></trkpt><trkpt lat="46.1235101" lon="13.4126977"><ele>200.0</ele><time>2026-05-02T14:00:09.109Z</time></trkpt><trkpt lat="46.1234683" lon="13.4125324"><ele>200.0</ele><time>2026-05-02T14:00:11.109Z</time></trkpt><trkpt lat="46.1234317" lon="13.4124494"><ele>200.0</ele><time>2026-05-02T14:00:12.108Z</time></trkpt><trkpt lat="46.1233679" lon="13.4123304"><ele>200.0</ele><time>2026-05-02T14:00:14.109Z</time></trkpt><trkpt lat="46.1233167" lon="13.4122221"><ele>200.0</ele><time>2026-05-02T14:00:16.109Z</time></trkpt><trkpt lat="46.1232466" lon="13.4121215"><ele>200.0</ele><time>2026-05-02T14:00:18.109Z</time></trkpt><trkpt lat="46.1231568" lon="13.4119965"><ele>195.83333333333334</ele><time>2026-05-02T14:00:20.109Z</time></trkpt><trkpt lat="46.1231157" lon="13.4119243"><ele>191.66666666666669</ele><time>2026-05-02T14:00:21.108Z</time></trkpt><trkpt lat="46.1230824" lon="13.4118419"><ele>187.5</ele><time>2026-05-02T14:00:22.108Z</time></trkpt><trkpt lat="46.1230251" lon="13.4117725"><ele>183.33333333333334</ele><time>2026-05-02T14:00:23.108Z</time></trkpt><trkpt lat="46.122951" lon="13.4117456"><ele>179.16666666666669</ele><time>2026-05-02T14:00:24.108Z</time></trkpt><trkpt lat="46.1228718" lon="13.4117365"><ele>175.0</ele><time>2026-05-02T14:00:25.109Z</time></trkpt><trkpt lat="46.1227853" lon="13.4117111"><ele>175.0</ele><time>2026-05-02T14:00:26.109Z</time></trkpt><trkpt lat="46.122697" lon="13.4116873"><ele>175.0</ele><time>2026-05-02T14:00:27.108Z</time></trkpt><trkpt lat="46.122608" lon="13.4116496"><ele>175.0</ele><time>2026-05-02T14:00:28.109Z</time></trkpt><trkpt lat="46.1225199" lon="13.4115981"><ele>175.0</ele><time>2026-05-02T14:00:29.109Z</time></trkpt><trkpt lat="46.1224311" lon="13.411543"><ele>175.0</ele><time>2026-05-02T14:00:30.109Z</time></trkpt><trkpt lat="46.1223436" lon="13.4114737"><ele>172.2</ele><time>2026-05-02T14:00:31.108Z</time></trkpt><trkpt lat="46.1222561" lon="13.4113949"><ele>169.4</ele><time>2026-05-02T14:00:32.108Z</time></trkpt><trkpt lat="46.1221711" lon="13.4113063"><ele>166.60000000000002</ele><time>2026-05-02T14:00:33.108Z</time></trkpt><trkpt lat="46.1220789" lon="13.4112202"><ele>163.8</ele><time>2026-05-02T14:00:34.108Z</time></trkpt><trkpt lat="46.1219856" lon="13.4111302"><ele>161.0</ele><time>2026-05-02T14:00:35.109Z</time></trkpt><trkpt lat="46.1218982" lon="13.4110338"><ele>161.0</ele><time>2026-05-02T14:00:36.109Z</time></trkpt><trkpt lat="46.1218136" lon="13.4109242"><ele>161.0</ele><time>2026-05-02T14:00:37.108Z</time></trkpt><trkpt lat="46.1217366" lon="13.4108179"><ele>161.0</ele><time>2026-05-02T14:00:38.109Z</time></trkpt><trkpt lat="46.1216611" lon="13.4107217"><ele>161.0</ele><time>2026-05-02T14:00:39.108Z</time></trkpt><trkpt lat="46.121588" lon="13.4106356"><ele>161.0</ele><time>2026-05-02T14:00:40.109Z</time></trkpt><trkpt lat="46.1215109" lon="13.4105576"><ele>161.0</ele><time>2026-05-02T14:00:41.108Z</time></trkpt><trkpt lat="46.1214173" lon="13.4104912"><ele>161.0</ele><time>2026-05-02T14:00:42.108Z</time></trkpt><trkpt lat="46.121322" lon="13.4104246"><ele>161.0</ele><time>2026-05-02T14:00:43.108Z</time></trkpt><trkpt lat="46.1212281" lon="13.4103584"><ele>161.0</ele><time>2026-05-02T14:00:44.108Z</time></trkpt><trkpt lat="46.1211275" lon="13.4102919"><ele>161.0</ele><time>2026-05-02T14:00:45.108Z</time></trkpt><trkpt lat="46.1210301" lon="13.4102226"><ele>161.0</ele><time>2026-05-02T14:00:46.108Z</time></trkpt><trkpt lat="46.1209504" lon="13.4101636"><ele>161.0</ele><time>2026-05-02T14:00:47.108Z</time></trkpt><trkpt lat="46.1208742" lon="13.4101119"><ele>161.0</ele><time>2026-05-02T14:00:48.108Z</time></trkpt><trkpt lat="46.1208117" lon="13.4100506"><ele>161.0</ele><time>2026-05-02T14:00:49.109Z</time></trkpt><trkpt lat="46.1207527" lon="13.4099797"><ele>161.0</ele><time>2026-05-02T14:00:50.109Z</time></trkpt><trkpt lat="46.1206861" lon="13.4098833"><ele>161.0</ele><time>2026-05-02T14:00:51.109Z</time></trkpt><trkpt lat="46.1206174" lon="13.4097847"><ele>160.5</ele><time>2026-05-02T14:00:52.108Z</time></trkpt><trkpt lat="46.1205555" lon="13.4096827"><ele>160.0</ele><time>2026-05-02T14:00:53.109Z</time></trkpt><trkpt lat="46.12051" lon="13.4095701"><ele>159.5</ele><time>2026-05-02T14:00:54.108Z</time></trkpt><trkpt lat="46.1204783" lon="13.4094732"><ele>159.0</ele><time>2026-05-02T14:00:55.108Z</time></trkpt><trkpt lat="46.1204534" lon="13.4093505"><ele>158.5</ele><time>2026-05-02T14:00:56.108Z</time></trkpt><trkpt lat="46.1204331" lon="13.4092293"><ele>158.0</ele><time>2026-05-02T14:00:57.108Z</time></trkpt><trkpt lat="46.1204102" lon="13.4091064"><ele>158.0</ele><time>2026-05-02T14:00:58.108Z</time></trkpt><trkpt lat="46.120379" lon="13.4089877"><ele>158.0</ele><time>2026-05-02T14:00:59.109Z</time></trkpt><trkpt lat="46.1203415" lon="13.4088828"><ele>158.0</ele><time>2026-05-02T14:01:00.109Z</time></trkpt><trkpt lat="46.1202802" lon="13.4088058"><ele>158.0</ele><time>2026-05-02T14:01:01.109Z</time></trkpt><trkpt lat="46.1202124" lon="13.4087519"><ele>158.0</ele><time>2026-05-02T14:01:02.108Z</time></trkpt><trkpt lat="46.1201245" lon="13.4087012"><ele>158.0</ele><time>2026-05-02T14:01:03.109Z</time></trkpt><trkpt lat="46.1200306" lon="13.4086572"><ele>156.4</ele><time>2026-05-02T14:01:04.109Z</time></trkpt><trkpt lat="46.1199477" lon="13.4086326"><ele>154.8</ele><time>2026-05-02T14:01:05.108Z</time></trkpt><trkpt lat="46.119875" lon="13.4086393"><ele>153.2</ele><time>2026-05-02T14:01:06.108Z</time></trkpt><trkpt lat="46.1197988" lon="13.4086877"><ele>151.6</ele><time>2026-05-02T14:01:07.109Z</time></trkpt><trkpt lat="46.1197082" lon="13.408753"><ele>150.0</ele><time>2026-05-02T14:01:08.108Z</time></trkpt><trkpt lat="46.1196049" lon="13.4088249"><ele>150.2</ele><time>2026-05-02T14:01:09.108Z</time></trkpt><trkpt lat="46.1195009" lon="13.4088967"><ele>150.4</ele><time>2026-05-02T14:01:10.108Z</time></trkpt><trkpt lat="46.1194048" lon="13.4089719"><ele>150.6</ele><time>2026-05-02T14:01:11.109Z</time></trkpt><trkpt lat="46.1193245" lon="13.4090448"><ele>150.8</ele><time>2026-05-02T14:01:12.108Z</time></trkpt><trkpt lat="46.1192476" lon="13.409112"><ele>151.0</ele><time>2026-05-02T14:01:13.109Z</time></trkpt><trkpt lat="46.1191866" lon="13.4091586"><ele>151.0</ele><time>2026-05-02T14:01:14.108Z</time></trkpt><trkpt lat="46.1191055" lon="13.409222"><ele>151.0</ele><time>2026-05-02T14:01:16.108Z</time></trkpt><trkpt lat="46.119064" lon="13.4093423"><ele>151.0</ele><time>2026-05-02T14:01:24.108Z</time></trkpt><trkpt lat="46.1191156" lon="13.409501"><ele>151.0</ele><time>2026-05-02T14:01:26.109Z</time></trkpt><trkpt lat="46.1191469" lon="13.4096203"><ele>151.0</ele><time>2026-05-02T14:01:27.108Z</time></trkpt><trkpt lat="46.119157" lon="13.4097405"><ele>150.8</ele><time>2026-05-02T14:01:28.108Z</time></trkpt><trkpt lat="46.119158" lon="13.4098641"><ele>150.6</ele><time>2026-05-02T14:01:29.108Z</time></trkpt><trkpt lat="46.1191431" lon="13.4100023"><ele>150.4</ele><time>2026-05-02T14:01:30.109Z</time></trkpt><trkpt lat="46.1191208" lon="13.4101636"><ele>150.2</ele><time>2026-05-02T14:01:31.108Z</time></trkpt><trkpt lat="46.1190968" lon="13.4103418"><ele>150.0</ele><time>2026-05-02T14:01:32.108Z</time></trkpt><trkpt lat="46.1190809" lon="13.4105091"><ele>150.0</ele><time>2026-05-02T14:01:33.108Z</time></trkpt><trkpt lat="46.1190668" lon="13.410662"><ele>150.0</ele><time>2026-05-02T14:01:34.108Z</time></trkpt><trkpt lat="46.1190616" lon="13.4108103"><ele>150.0</ele><time>2026-05-02T14:01:35.108Z</time></trkpt><trkpt lat="46.1190611" lon="13.410954"><ele>150.0</ele><time>2026-05-02T14:01:36.108Z</time></trkpt><trkpt lat="46.1190648" lon="13.4111052"><ele>150.0</ele><time>2026-05-02T14:01:37.108Z</time></trkpt><trkpt lat="46.1190803" lon="13.4112619"><ele>149.75</ele><time>2026-05-02T14:01:38.109Z</time></trkpt><trkpt lat="46.1191033" lon="13.4114317"><ele>149.5</ele><time>2026-05-02T14:01:39.109Z</time></trkpt><trkpt lat="46.1191351" lon="13.4116108"><ele>149.25</ele><time>2026-05-02T14:01:40.108Z</time></trkpt><trkpt lat="46.1191724" lon="13.4118034"><ele>149.0</ele><time>2026-05-02T14:01:41.109Z</time></trkpt><trkpt lat="46.1192109" lon="13.4120062"><ele>149.0</ele><time>2026-05-02T14:01:42.108Z</time></trkpt><trkpt lat="46.1192489" lon="13.4122071"><ele>149.0</ele><time>2026-05-02T14:01:43.108Z</time></trkpt><trkpt lat="46.1192848" lon="13.4124138"><ele>149.0</ele><time>2026-05-02T14:01:44.108Z</time></trkpt><trkpt lat="46.1193177" lon="13.4126136"><ele>149.0</ele><time>2026-05-02T14:01:45.108Z</time></trkpt><trkpt lat="46.1193507" lon="13.412816"><ele>148.25</ele><time>2026-05-02T14:01:46.108Z</time></trkpt><trkpt lat="46.1193695" lon="13.4130235"><ele>147.5</ele><time>2026-05-02T14:01:47.108Z</time></trkpt><trkpt lat="46.1193747" lon="13.4132162"><ele>146.75</ele><time>2026-05-02T14:01:48.108Z</time></trkpt><trkpt lat="46.1193721" lon="13.4134021"><ele>146.0</ele><time>2026-05-02T14:01:49.108Z</time></trkpt><trkpt lat="46.1193751" lon="13.4135914"><ele>146.0</ele><time>2026-05-02T14:01:50.108Z</time></trkpt><trkpt lat="46.1193852" lon="13.4137782"><ele>146.0</ele><time>2026-05-02T14:01:51.109Z</time></trkpt><trkpt lat="46.1194043" lon="13.4139762"><ele>146.0</ele><time>2026-05-02T14:01:52.108Z</time></trkpt><trkpt lat="46.1194331" lon="13.4141732"><ele>146.0</ele><time>2026-05-02T14:01:53.108Z</time></trkpt><trkpt lat="46.1194647" lon="13.4143765"><ele>146.0</ele><time>2026-05-02T14:01:54.108Z</time></trkpt><trkpt lat="46.1194929" lon="13.4145779"><ele>146.0</ele><time>2026-05-02T14:01:55.109Z</time></trkpt><trkpt lat="46.1195158" lon="13.4147795"><ele>146.0</ele><time>2026-05-02T14:01:56.108Z</time></trkpt><trkpt lat="46.1195405" lon="13.4149785"><ele>146.0</ele><time>2026-05-02T14:01:57.109Z</time></trkpt><trkpt lat="46.1195594" lon="13.4151907"><ele>146.0</ele><time>2026-05-02T14:01:58.109Z</time></trkpt><trkpt lat="46.1195807" lon="13.4154028"><ele>146.0</ele><time>2026-05-02T14:01:59.109Z</time></trkpt><trkpt lat="46.1196079" lon="13.4156116"><ele>146.0</ele><time>2026-05-02T14:02:00.108Z</time></trkpt><trkpt lat="46.1196423" lon="13.4158163"><ele>146.0</ele><time>2026-05-02T14:02:01.108Z</time></trkpt><trkpt lat="46.1196831" lon="13.4160295"><ele>146.33333333333331</ele><time>2026-05-02T14:02:02.108Z</time></trkpt><trkpt lat="46.1197296" lon="13.4162393"><ele>146.66666666666666</ele><time>2026-05-02T14:02:03.108Z</time></trkpt><trkpt lat="46.1197814" lon="13.4164499"><ele>147.0</ele><time>2026-05-02T14:02:04.108Z</time></trkpt><trkpt lat="46.1198414" lon="13.4166569"><ele>147.5</ele><time>2026-05-02T14:02:05.108Z</time></trkpt><trkpt lat="46.1198954" lon="13.4168557"><ele>148.0</ele><time>2026-05-02T14:02:06.109Z</time></trkpt><trkpt lat="46.1199456" lon="13.4170398"><ele>148.5</ele><time>2026-05-02T14:02:07.109Z</time></trkpt><trkpt lat="46.1199912" lon="13.4172157"><ele>149.0</ele><time>2026-05-02T14:02:08.108Z</time></trkpt><trkpt lat="46.1200327" lon="13.4173892"><ele>149.0</ele><time>2026-05-02T14:02:09.108Z</time></trkpt><trkpt lat="46.1200729" lon="13.4175616"><ele>149.0</ele><time>2026-05-02T14:02:10.109Z</time></trkpt><trkpt lat="46.1201116" lon="13.4177366"><ele>149.0</ele><time>2026-05-02T14:02:11.108Z</time></trkpt><trkpt lat="46.1201505" lon="13.417909"><ele>149.0</ele><time>2026-05-02T14:02:12.109Z</time></trkpt><trkpt lat="46.1201886" lon="13.4180741"><ele>149.4</ele><time>2026-05-02T14:02:13.109Z</time></trkpt><trkpt lat="46.1202222" lon="13.4182182"><ele>149.8</ele><time>2026-05-02T14:02:14.108Z</time></trkpt><trkpt lat="46.1202532" lon="13.4183561"><ele>150.2</ele><time>2026-05-02T14:02:15.108Z</time></trkpt><trkpt lat="46.1202842" lon="13.4184999"><ele>150.6</ele><time>2026-05-02T14:02:16.108Z</time></trkpt><trkpt lat="46.1203178" lon="13.4186522"><ele>151.0</ele><time>2026-05-02T14:02:17.109Z</time></trkpt><trkpt lat="46.1203537" lon="13.4188109"><ele>151.8</ele><time>2026-05-02T14:02:18.108Z</time></trkpt><trkpt lat="46.1203879" lon="13.4189698"><ele>152.6</ele><time>2026-05-02T14:02:19.108Z</time></trkpt><trkpt lat="46.120416" lon="13.4191157"><ele>153.4</ele><time>2026-05-02T14:02:20.109Z</time></trkpt><trkpt lat="46.1204351" lon="13.4192551"><ele>154.2</ele><time>2026-05-02T14:02:21.109Z</time></trkpt><trkpt lat="46.1204483" lon="13.4193863"><ele>155.0</ele><time>2026-05-02T14:02:22.107Z</time></trkpt><trkpt lat="46.1204403" lon="13.4195059"><ele>155.0</ele><time>2026-05-02T14:02:23.107Z</time></trkpt><trkpt lat="46.1204276" lon="13.4196193"><ele>155.0</ele><time>2026-05-02T14:02:24.107Z</time></trkpt><trkpt lat="46.1204136" lon="13.4197219"><ele>155.0</ele><time>2026-05-02T14:02:25.107Z</time></trkpt><trkpt lat="46.1204084" lon="13.4198318"><ele>155.0</ele><time>2026-05-02T14:02:26.107Z</time></trkpt><trkpt lat="46.1204057" lon="13.4199391"><ele>155.0</ele><time>2026-05-02T14:02:27.108Z</time></trkpt><trkpt lat="46.1203802" lon="13.4200483"><ele>155.0</ele><time>2026-05-02T14:02:28.108Z</time></trkpt><trkpt lat="46.1203488" lon="13.4201564"><ele>155.0</ele><time>2026-05-02T14:02:29.107Z</time></trkpt><trkpt lat="46.1203108" lon="13.4202723"><ele>155.0</ele><time>2026-05-02T14:02:30.107Z</time></trkpt><trkpt lat="46.1202544" lon="13.4203894"><ele>155.0</ele><time>2026-05-02T14:02:31.108Z</time></trkpt><trkpt lat="46.1201926" lon="13.4205027"><ele>155.0</ele><time>2026-05-02T14:02:32.107Z</time></trkpt><trkpt lat="46.120136" lon="13.4206336"><ele>155.0</ele><time>2026-05-02T14:02:33.107Z</time></trkpt><trkpt lat="46.1200787" lon="13.4207619"><ele>155.0</ele><time>2026-05-02T14:02:34.107Z</time></trkpt><trkpt lat="46.1200266" lon="13.4208734"><ele>155.0</ele><time>2026-05-02T14:02:35.108Z</time></trkpt><trkpt lat="46.1199798" lon="13.4209802"><ele>155.0</ele><time>2026-05-02T14:02:36.108Z</time></trkpt><trkpt lat="46.1199394" lon="13.4210718"><ele>155.0</ele><time>2026-05-02T14:02:37.107Z</time></trkpt><trkpt lat="46.1199043" lon="13.4211476"><ele>155.0</ele><time>2026-05-02T14:02:38.108Z</time></trkpt><trkpt lat="46.1198674" lon="13.4212432"><ele>155.0</ele><time>2026-05-02T14:02:40.107Z</time></trkpt><trkpt lat="46.119851" lon="13.4214051"><ele>155.0</ele><time>2026-05-02T14:03:41.107Z</time></trkpt><trkpt lat="46.1198881" lon="13.421481"><ele>155.0</ele><time>2026-05-02T14:03:42.108Z</time></trkpt><trkpt lat="46.1199474" lon="13.4215613"><ele>155.0</ele><time>2026-05-02T14:03:43.107Z</time></trkpt><trkpt lat="46.1200023" lon="13.421628"><ele>155.0</ele><time>2026-05-02T14:03:44.108Z</time></trkpt><trkpt lat="46.1200735" lon="13.4217565"><ele>155.0</ele><time>2026-05-02T14:03:46.107Z</time></trkpt><trkpt lat="46.120062" lon="13.4218533"><ele>155.0</ele><time>2026-05-02T14:03:48.107Z</time></trkpt><trkpt lat="46.1199962" lon="13.4218684"><ele>155.0</ele><time>2026-05-02T14:03:50.107Z</time></trkpt><trkpt lat="46.1199344" lon="13.4217585"><ele>155.0</ele><time>2026-05-02T14:03:52.107Z</time></trkpt><trkpt lat="46.1198723" lon="13.4216514"><ele>155.0</ele><time>2026-05-02T14:03:54.107Z</time></trkpt><trkpt lat="46.1197956" lon="13.421579"><ele>155.0</ele><time>2026-05-02T14:03:56.107Z</time></trkpt><trkpt lat="46.1197093" lon="13.4215655"><ele>155.0</ele><time>2026-05-02T14:03:58.108Z</time></trkpt><trkpt lat="46.1196418" lon="13.4215886"><ele>155.0</ele><time>2026-05-02T14:04:00.108Z</time></trkpt><trkpt lat="46.1195866" lon="13.4216736"><ele>154.5</ele><time>2026-05-02T14:04:02.107Z</time></trkpt><trkpt lat="46.119529" lon="13.4217768"><ele>154.0</ele><time>2026-05-02T14:04:04.107Z</time></trkpt><trkpt lat="46.1194993" lon="13.4218974"><ele>153.5</ele><time>2026-05-02T14:04:06.107Z</time></trkpt><trkpt lat="46.1194908" lon="13.4220218"><ele>153.0</ele><time>2026-05-02T14:04:08.107Z</time></trkpt><trkpt lat="46.1195171" lon="13.422108"><ele>152.5</ele><time>2026-05-02T14:04:10.107Z</time></trkpt><trkpt lat="46.1196099" lon="13.4221808"><ele>152.0</ele><time>2026-05-02T14:04:12.107Z</time></trkpt><trkpt lat="46.1196812" lon="13.4222274"><ele>151.83333333333331</ele><time>2026-05-02T14:04:13.107Z</time></trkpt><trkpt lat="46.1197423" lon="13.4222833"><ele>151.66666666666666</ele><time>2026-05-02T14:04:14.108Z</time></trkpt><trkpt lat="46.1198379" lon="13.4223576"><ele>151.5</ele><time>2026-05-02T14:04:16.108Z</time></trkpt><trkpt lat="46.1198973" lon="13.4224656"><ele>151.33333333333334</ele><time>2026-05-02T14:04:18.108Z</time></trkpt><trkpt lat="46.119936" lon="13.4225626"><ele>151.16666666666669</ele><time>2026-05-02T14:04:19.107Z</time></trkpt><trkpt lat="46.1199734" lon="13.4226431"><ele>151.0</ele><time>2026-05-02T14:04:20.107Z</time></trkpt><trkpt lat="46.1200267" lon="13.4227991"><ele>151.2</ele><time>2026-05-02T14:04:22.107Z</time></trkpt><trkpt lat="46.1200582" lon="13.4229526"><ele>151.39999999999998</ele><time>2026-05-02T14:04:24.108Z</time></trkpt><trkpt lat="46.1200592" lon="13.4230748"><ele>151.6</ele><time>2026-05-02T14:04:26.107Z</time></trkpt><trkpt lat="46.1200281" lon="13.4231905"><ele>151.79999999999998</ele><time>2026-05-02T14:04:28.107Z</time></trkpt><trkpt lat="46.1199653" lon="13.4232817"><ele>152.0</ele><time>2026-05-02T14:04:30.107Z</time></trkpt><trkpt lat="46.119865" lon="13.4233635"><ele>152.0</ele><time>2026-05-02T14:04:32.107Z</time></trkpt><trkpt lat="46.1198045" lon="13.4234104"><ele>152.0</ele><time>2026-05-02T14:04:33.107Z</time></trkpt><trkpt lat="46.1197173" lon="13.4235092"><ele>152.0</ele><time>2026-05-02T14:04:35.107Z</time></trkpt><trkpt lat="46.1196663" lon="13.4236192"><ele>152.0</ele><time>2026-05-02T14:04:37.107Z</time></trkpt><trkpt lat="46.1196579" lon="13.4238124"><ele>152.0</ele><time>2026-05-02T14:04:39.107Z</time></trkpt><trkpt lat="46.1196603" lon="13.4239606"><ele>152.4</ele><time>2026-05-02T14:04:40.107Z</time></trkpt><trkpt lat="46.1196618" lon="13.4241153"><ele>152.79999999999998</ele><time>2026-05-02T14:04:41.108Z</time></trkpt><trkpt lat="46.1196617" lon="13.4242673"><ele>153.2</ele><time>2026-05-02T14:04:42.107Z</time></trkpt><trkpt lat="46.1196619" lon="13.4244065"><ele>153.6</ele><time>2026-05-02T14:04:43.108Z</time></trkpt><trkpt lat="46.1196552" lon="13.4245408"><ele>154.0</ele><time>2026-05-02T14:04:44.107Z</time></trkpt><trkpt lat="46.1196428" lon="13.4246762"><ele>154.2</ele><time>2026-05-02T14:04:45.107Z</time></trkpt><trkpt lat="46.1196196" lon="13.4248392"><ele>154.4</ele><time>2026-05-02T14:04:46.107Z</time></trkpt><trkpt lat="46.1195916" lon="13.4249889"><ele>154.6</ele><time>2026-05-02T14:04:47.108Z</time></trkpt><trkpt lat="46.1195674" lon="13.4251201"><ele>154.8</ele><time>2026-05-02T14:04:48.107Z</time></trkpt><trkpt lat="46.1195429" lon="13.4252411"><ele>155.0</ele><time>2026-05-02T14:04:49.107Z</time></trkpt><trkpt lat="46.119524" lon="13.4253564"><ele>155.0</ele><time>2026-05-02T14:04:50.107Z</time></trkpt><trkpt lat="46.1195027" lon="13.4254623"><ele>155.0</ele><time>2026-05-02T14:04:51.107Z</time></trkpt><trkpt lat="46.1194605" lon="13.4256028"><ele>155.0</ele><time>2026-05-02T14:04:53.107Z</time></trkpt><trkpt lat="46.1193696" lon="13.4256755"><ele>155.0</ele><time>2026-05-02T14:04:55.108Z</time></trkpt><trkpt lat="46.1192936" lon="13.4257069"><ele>155.0</ele><time>2026-05-02T14:04:56.108Z</time></trkpt><trkpt lat="46.1192292" lon="13.4258061"><ele>155.2</ele><time>2026-05-02T14:04:58.107Z</time></trkpt><trkpt lat="46.119239" lon="13.4259615"><ele>155.4</ele><time>2026-05-02T14:05:00.107Z</time></trkpt><trkpt lat="46.1192641" lon="13.4260547"><ele>155.6</ele><time>2026-05-02T14:05:01.108Z</time></trkpt><trkpt lat="46.1193205" lon="13.42617"><ele>155.8</ele><time>2026-05-02T14:05:02.107Z</time></trkpt><trkpt lat="46.1193698" lon="13.4262704"><ele>156.0</ele><time>2026-05-02T14:05:03.108Z</time></trkpt><trkpt lat="46.1194342" lon="13.4263724"><ele>156.0</ele><time>2026-05-02T14:05:04.107Z</time></trkpt><trkpt lat="46.11951" lon="13.4264807"><ele>156.0</ele><time>2026-05-02T14:05:05.107Z</time></trkpt><trkpt lat="46.1195947" lon="13.4266044"><ele>156.0</ele><time>2026-05-02T14:05:06.107Z</time></trkpt><trkpt lat="46.1196738" lon="13.4267142"><ele>156.0</ele><time>2026-05-02T14:05:07.108Z</time></trkpt><trkpt lat="46.1197515" lon="13.4268258"><ele>156.0</ele><time>2026-05-02T14:05:08.107Z</time></trkpt><trkpt lat="46.1198007" lon="13.4269256"><ele>156.0</ele><time>2026-05-02T14:05:09.107Z</time></trkpt><trkpt lat="46.1198693" lon="13.4270307"><ele>156.0</ele><time>2026-05-02T14:05:10.108Z</time></trkpt><trkpt lat="46.1199332" lon="13.4271303"><ele>156.0</ele><time>2026-05-02T14:05:11.108Z</time></trkpt><trkpt lat="46.119998" lon="13.4272255"><ele>156.0</ele><time>2026-05-02T14:05:12.107Z</time></trkpt><trkpt lat="46.1200628" lon="13.4273226"><ele>156.0</ele><time>2026-05-02T14:05:13.107Z</time></trkpt><trkpt lat="46.1201298" lon="13.4274291"><ele>156.4</ele><time>2026-05-02T14:05:14.107Z</time></trkpt><trkpt lat="46.1202034" lon="13.4275341"><ele>156.8</ele><time>2026-05-02T14:05:15.107Z</time></trkpt><trkpt lat="46.1202713" lon="13.427645"><ele>157.20000000000002</ele><time>2026-05-02T14:05:16.107Z</time></trkpt><trkpt lat="46.1203341" lon="13.4277531"><ele>157.6</ele><time>2026-05-02T14:05:17.108Z</time></trkpt><trkpt lat="46.1203922" lon="13.4278607"><ele>158.0</ele><time>2026-05-02T14:05:18.108Z</time></trkpt><trkpt lat="46.1204424" lon="13.4279554"><ele>158.0</ele><time>2026-05-02T14:05:19.107Z</time></trkpt><trkpt lat="46.1204887" lon="13.4280417"><ele>158.0</ele><time>2026-05-02T14:05:20.107Z</time></trkpt><trkpt lat="46.1205284" lon="13.4281153"><ele>158.0</ele><time>2026-05-02T14:05:21.107Z</time></trkpt><trkpt lat="46.1206268" lon="13.4282077"><ele>158.0</ele><time>2026-05-02T14:05:23.108Z</time></trkpt><trkpt lat="46.120736" lon="13.4282216"><ele>158.0</ele><time>2026-05-02T14:05:25.107Z</time></trkpt><trkpt lat="46.1208492" lon="13.4281727"><ele>158.5</ele><time>2026-05-02T14:05:27.108Z</time></trkpt><trkpt lat="46.1209239" lon="13.4281628"><ele>159.0</ele><time>2026-05-02T14:05:28.108Z</time></trkpt><trkpt lat="46.1210124" lon="13.4281611"><ele>159.5</ele><time>2026-05-02T14:05:29.108Z</time></trkpt><trkpt lat="46.1211061" lon="13.4281627"><ele>160.0</ele><time>2026-05-02T14:05:30.108Z</time></trkpt><trkpt lat="46.1212004" lon="13.4281651"><ele>160.5</ele><time>2026-05-02T14:05:31.107Z</time></trkpt><trkpt lat="46.1212869" lon="13.4281657"><ele>161.0</ele><time>2026-05-02T14:05:32.107Z</time></trkpt><trkpt lat="46.1213769" lon="13.4281658"><ele>161.0</ele><time>2026-05-02T14:05:33.108Z</time></trkpt><trkpt lat="46.1214769" lon="13.4281636"><ele>161.0</ele><time>2026-05-02T14:05:34.108Z</time></trkpt><trkpt lat="46.1215813" lon="13.4281561"><ele>161.0</ele><time>2026-05-02T14:05:35.108Z</time></trkpt><trkpt lat="46.1216832" lon="13.4281493"><ele>161.0</ele><time>2026-05-02T14:05:36.108Z</time></trkpt><trkpt lat="46.1217734" lon="13.4281452"><ele>161.0</ele><time>2026-05-02T14:05:37.107Z</time></trkpt><trkpt lat="46.1218555" lon="13.4281466"><ele>161.0</ele><time>2026-05-02T14:05:38.107Z</time></trkpt><trkpt lat="46.1219403" lon="13.4281551"><ele>161.0</ele><time>2026-05-02T14:05:39.107Z</time></trkpt><trkpt lat="46.122036" lon="13.428169"><ele>161.0</ele><time>2026-05-02T14:05:40.107Z</time></trkpt><trkpt lat="46.1221381" lon="13.4281991"><ele>161.0</ele><time>2026-05-02T14:05:41.107Z</time></trkpt><trkpt lat="46.1222357" lon="13.4282329"><ele>161.0</ele><time>2026-05-02T14:05:42.107Z</time></trkpt><trkpt lat="46.1223149" lon="13.428263"><ele>161.0</ele><time>2026-05-02T14:05:43.107Z</time></trkpt><trkpt lat="46.1223776" lon="13.4282815"><ele>161.0</ele><time>2026-05-02T14:05:44.107Z</time></trkpt><trkpt lat="46.1224851" lon="13.4283303"><ele>161.0</ele><time>2026-05-02T14:05:46.108Z</time></trkpt><trkpt lat="46.122553" lon="13.428397"><ele>161.0</ele><time>2026-05-02T14:05:47.107Z</time></trkpt><trkpt lat="46.1226264" lon="13.4284927"><ele>161.0</ele><time>2026-05-02T14:05:48.108Z</time></trkpt><trkpt lat="46.1227043" lon="13.4286075"><ele>161.0</ele><time>2026-05-02T14:05:49.107Z</time></trkpt><trkpt lat="46.1227819" lon="13.4287211"><ele>161.0</ele><time>2026-05-02T14:05:50.107Z</time></trkpt><trkpt lat="46.1228552" lon="13.4288368"><ele>161.0</ele><time>2026-05-02T14:05:51.107Z</time></trkpt><trkpt lat="46.1229265" lon="13.4289519"><ele>161.0</ele><time>2026-05-02T14:05:52.107Z</time></trkpt><trkpt lat="46.1229975" lon="13.4290683"><ele>161.0</ele><time>2026-05-02T14:05:53.108Z</time></trkpt><trkpt lat="46.1230715" lon="13.4291846"><ele>161.20000000000002</ele><time>2026-05-02T14:05:54.107Z</time></trkpt><trkpt lat="46.1231541" lon="13.4292978"><ele>161.4</ele><time>2026-05-02T14:05:55.107Z</time></trkpt><trkpt lat="46.1232416" lon="13.4294014"><ele>161.6</ele><time>2026-05-02T14:05:56.107Z</time></trkpt><trkpt lat="46.1233272" lon="13.4294987"><ele>161.8</ele><time>2026-05-02T14:05:57.108Z</time></trkpt><trkpt lat="46.1234099" lon="13.4296059"><ele>162.0</ele><time>2026-05-02T14:05:58.107Z</time></trkpt><trkpt lat="46.1234833" lon="13.429721"><ele>162.8</ele><time>2026-05-02T14:05:59.107Z</time></trkpt><trkpt lat="46.1235537" lon="13.4298256"><ele>163.6</ele><time>2026-05-02T14:06:00.108Z</time></trkpt><trkpt lat="46.1236277" lon="13.4299095"><ele>164.4</ele><time>2026-05-02T14:06:01.107Z</time></trkpt><trkpt lat="46.1237166" lon="13.429977"><ele>165.20000000000002</ele><time>2026-05-02T14:06:02.107Z</time></trkpt><trkpt lat="46.1238271" lon="13.430022"><ele>166.0</ele><time>2026-05-02T14:06:03.107Z</time></trkpt><trkpt lat="46.1239458" lon="13.430048"><ele>166.0</ele><time>2026-05-02T14:06:04.108Z</time></trkpt><trkpt lat="46.1240626" lon="13.4300451"><ele>166.0</ele><time>2026-05-02T14:06:05.108Z</time></trkpt><trkpt lat="46.1241693" lon="13.4300176"><ele>166.0</ele><time>2026-05-02T14:06:06.108Z</time></trkpt><trkpt lat="46.1242664" lon="13.4299682"><ele>166.0</ele><time>2026-05-02T14:06:07.107Z</time></trkpt><trkpt lat="46.1243456" lon="13.4298987"><ele>166.0</ele><time>2026-05-02T14:06:08.107Z</time></trkpt><trkpt lat="46.1244113" lon="13.4298083"><ele>166.20000000000002</ele><time>2026-05-02T14:06:09.107Z</time></trkpt><trkpt lat="46.1244827" lon="13.429696"><ele>166.4</ele><time>2026-05-02T14:06:10.107Z</time></trkpt><trkpt lat="46.1245488" lon="13.4296029"><ele>166.6</ele><time>2026-05-02T14:06:11.108Z</time></trkpt><trkpt lat="46.1246045" lon="13.429521"><ele>166.8</ele><time>2026-05-02T14:06:12.108Z</time></trkpt><trkpt lat="46.1246536" lon="13.429453"><ele>167.0</ele><time>2026-05-02T14:06:13.107Z</time></trkpt><trkpt lat="46.1247468" lon="13.4293828"><ele>167.0</ele><time>2026-05-02T14:06:15.108Z</time></trkpt><trkpt lat="46.124873" lon="13.4294905"><ele>167.0</ele><time>2026-05-02T14:06:17.107Z</time></trkpt><trkpt lat="46.1249501" lon="13.4295842"><ele>167.0</ele><time>2026-05-02T14:06:18.108Z</time></trkpt><trkpt lat="46.1250328" lon="13.4296861"><ele>167.0</ele><time>2026-05-02T14:06:19.107Z</time></trkpt><trkpt lat="46.1251234" lon="13.4297946"><ele>167.6</ele><time>2026-05-02T14:06:20.107Z</time></trkpt><trkpt lat="46.1252122" lon="13.429891"><ele>168.2</ele><time>2026-05-02T14:06:21.107Z</time></trkpt><trkpt lat="46.1252903" lon="13.4299771"><ele>168.8</ele><time>2026-05-02T14:06:22.107Z</time></trkpt><trkpt lat="46.1253475" lon="13.4300605"><ele>169.4</ele><time>2026-05-02T14:06:23.107Z</time></trkpt><trkpt lat="46.1254381" lon="13.4301257"><ele>170.0</ele><time>2026-05-02T14:06:25.106Z</time></trkpt><trkpt lat="46.125508" lon="13.4300261"><ele>170.0</ele><time>2026-05-02T14:06:27.106Z</time></trkpt><trkpt lat="46.12557" lon="13.4299407"><ele>170.0</ele><time>2026-05-02T14:06:28.106Z</time></trkpt><trkpt lat="46.1256423" lon="13.4298449"><ele>170.0</ele><time>2026-05-02T14:06:29.106Z</time></trkpt><trkpt lat="46.1257144" lon="13.4297476"><ele>170.0</ele><time>2026-05-02T14:06:30.107Z</time></trkpt><trkpt lat="46.1257919" lon="13.4296464"><ele>170.0</ele><time>2026-05-02T14:06:31.106Z</time></trkpt><trkpt lat="46.1258744" lon="13.4295432"><ele>170.2</ele><time>2026-05-02T14:06:32.106Z</time></trkpt><trkpt lat="46.1259604" lon="13.4294531"><ele>170.4</ele><time>2026-05-02T14:06:33.106Z</time></trkpt><trkpt lat="46.1260513" lon="13.4293726"><ele>170.60000000000002</ele><time>2026-05-02T14:06:34.107Z</time></trkpt><trkpt lat="46.1261311" lon="13.4293092"><ele>170.8</ele><time>2026-05-02T14:06:35.107Z</time></trkpt><trkpt lat="46.1261985" lon="13.4292694"><ele>171.0</ele><time>2026-05-02T14:06:36.106Z</time></trkpt><trkpt lat="46.1262767" lon="13.4293102"><ele>171.0</ele><time>2026-05-02T14:06:38.107Z</time></trkpt><trkpt lat="46.1263752" lon="13.4294637"><ele>171.0</ele><time>2026-05-02T14:06:40.107Z</time></trkpt><trkpt lat="46.1264408" lon="13.4295674"><ele>171.0</ele><time>2026-05-02T14:06:41.106Z</time></trkpt><trkpt lat="46.1265239" lon="13.4296758"><ele>171.0</ele><time>2026-05-02T14:06:42.106Z</time></trkpt><trkpt lat="46.1266179" lon="13.4297771"><ele>171.5</ele><time>2026-05-02T14:06:43.106Z</time></trkpt><trkpt lat="46.1267121" lon="13.4298665"><ele>172.0</ele><time>2026-05-02T14:06:44.106Z</time></trkpt><trkpt lat="46.1268113" lon="13.4299336"><ele>172.5</ele><time>2026-05-02T14:06:45.107Z</time></trkpt><trkpt lat="46.1269219" lon="13.4300095"><ele>173.0</ele><time>2026-05-02T14:06:46.106Z</time></trkpt><trkpt lat="46.1270433" lon="13.4300893"><ele>173.0</ele><time>2026-05-02T14:06:47.106Z</time></trkpt><trkpt lat="46.1271648" lon="13.4301841"><ele>173.0</ele><time>2026-05-02T14:06:48.106Z</time></trkpt><trkpt lat="46.1272886" lon="13.4302851"><ele>173.0</ele><time>2026-05-02T14:06:49.106Z</time></trkpt><trkpt lat="46.1274151" lon="13.4303958"><ele>173.0</ele><time>2026-05-02T14:06:50.107Z</time></trkpt><trkpt lat="46.1275394" lon="13.4305185"><ele>174.0</ele><time>2026-05-02T14:06:51.106Z</time></trkpt><trkpt lat="46.1276551" lon="13.4306685"><ele>175.0</ele><time>2026-05-02T14:06:52.106Z</time></trkpt><trkpt lat="46.1277682" lon="13.4308142"><ele>176.0</ele><time>2026-05-02T14:06:53.106Z</time></trkpt><trkpt lat="46.1279" lon="13.4309703"><ele>176.0</ele><time>2026-05-02T14:06:54.107Z</time></trkpt><trkpt lat="46.1280121" lon="13.4311158"><ele>176.0</ele><time>2026-05-02T14:06:55.106Z</time></trkpt><trkpt lat="46.1281241" lon="13.4312635"><ele>176.0</ele><time>2026-05-02T14:06:56.107Z</time></trkpt><trkpt lat="46.1282365" lon="13.4314117"><ele>176.25</ele><time>2026-05-02T14:06:57.106Z</time></trkpt><trkpt lat="46.1283501" lon="13.4315641"><ele>176.5</ele><time>2026-05-02T14:06:58.107Z</time></trkpt><trkpt lat="46.1284634" lon="13.4317043"><ele>176.75</ele><time>2026-05-02T14:06:59.107Z</time></trkpt><trkpt lat="46.1285683" lon="13.4318327"><ele>177.0</ele><time>2026-05-02T14:07:00.107Z</time></trkpt><trkpt lat="46.1286741" lon="13.4319532"><ele>177.0</ele><time>2026-05-02T14:07:01.106Z</time></trkpt><trkpt lat="46.1287886" lon="13.4320578"><ele>177.0</ele><time>2026-05-02T14:07:02.106Z</time></trkpt><trkpt lat="46.1289211" lon="13.4321458"><ele>177.0</ele><time>2026-05-02T14:07:03.106Z</time></trkpt><trkpt lat="46.1290582" lon="13.4322181"><ele>177.0</ele><time>2026-05-02T14:07:04.106Z</time></trkpt><trkpt lat="46.1292043" lon="13.4322824"><ele>179.0</ele><time>2026-05-02T14:07:05.107Z</time></trkpt><trkpt lat="46.1293481" lon="13.4323508"><ele>181.0</ele><time>2026-05-02T14:07:06.106Z</time></trkpt><trkpt lat="46.1294925" lon="13.4324202"><ele>183.0</ele><time>2026-05-02T14:07:07.106Z</time></trkpt><trkpt lat="46.1296378" lon="13.4324877"><ele>183.0</ele><time>2026-05-02T14:07:08.106Z</time></trkpt><trkpt lat="46.1297833" lon="13.4325545"><ele>183.0</ele><time>2026-05-02T14:07:09.106Z</time></trkpt><trkpt lat="46.1299308" lon="13.4326226"><ele>183.0</ele><time>2026-05-02T14:07:10.106Z</time></trkpt><trkpt lat="46.1300723" lon="13.4326864"><ele>183.0</ele><time>2026-05-02T14:07:11.107Z</time></trkpt><trkpt lat="46.1302086" lon="13.4327609"><ele>183.0</ele><time>2026-05-02T14:07:12.107Z</time></trkpt><trkpt lat="46.1303452" lon="13.4328248"><ele>183.0</ele><time>2026-05-02T14:07:13.106Z</time></trkpt><trkpt lat="46.1304747" lon="13.4328805"><ele>183.0</ele><time>2026-05-02T14:07:14.106Z</time></trkpt><trkpt lat="46.130597" lon="13.4329385"><ele>183.2</ele><time>2026-05-02T14:07:15.106Z</time></trkpt><trkpt lat="46.130711" lon="13.4329954"><ele>183.4</ele><time>2026-05-02T14:07:16.106Z</time></trkpt><trkpt lat="46.1308183" lon="13.4330584"><ele>183.6</ele><time>2026-05-02T14:07:17.106Z</time></trkpt><trkpt lat="46.1309101" lon="13.433128"><ele>183.79999999999998</ele><time>2026-05-02T14:07:18.107Z</time></trkpt><trkpt lat="46.1310012" lon="13.4332031"><ele>184.0</ele><time>2026-05-02T14:07:19.106Z</time></trkpt><trkpt lat="46.1310863" lon="13.4332819"><ele>185.0</ele><time>2026-05-02T14:07:20.107Z</time></trkpt><trkpt lat="46.131171" lon="13.4333706"><ele>186.0</ele><time>2026-05-02T14:07:21.106Z</time></trkpt><trkpt lat="46.1312551" lon="13.4334474"><ele>187.0</ele><time>2026-05-02T14:07:22.107Z</time></trkpt><trkpt lat="46.1313344" lon="13.4335277"><ele>188.0</ele><time>2026-05-02T14:07:23.107Z</time></trkpt><trkpt lat="46.1314232" lon="13.4336012"><ele>189.0</ele><time>2026-05-02T14:07:24.106Z</time></trkpt><trkpt lat="46.1315135" lon="13.4336755"><ele>189.0</ele><time>2026-05-02T14:07:25.107Z</time></trkpt><trkpt lat="46.1316108" lon="13.4337535"><ele>189.0</ele><time>2026-05-02T14:07:26.106Z</time></trkpt><trkpt lat="46.1317075" lon="13.4338339"><ele>189.0</ele><time>2026-05-02T14:07:27.107Z</time></trkpt><trkpt lat="46.1318033" lon="13.4339158"><ele>189.0</ele><time>2026-05-02T14:07:28.107Z</time></trkpt><trkpt lat="46.1318919" lon="13.4339899"><ele>189.0</ele><time>2026-05-02T14:07:29.107Z</time></trkpt><trkpt lat="46.1319786" lon="13.4340531"><ele>189.16666666666666</ele><time>2026-05-02T14:07:30.107Z</time></trkpt><trkpt lat="46.1320561" lon="13.4341101"><ele>189.33333333333334</ele><time>2026-05-02T14:07:31.106Z</time></trkpt><trkpt lat="46.1321159" lon="13.4341738"><ele>189.5</ele><time>2026-05-02T14:07:32.107Z</time></trkpt><trkpt lat="46.1321535" lon="13.434263"><ele>189.66666666666669</ele><time>2026-05-02T14:07:33.106Z</time></trkpt><trkpt lat="46.1321875" lon="13.4343583"><ele>189.83333333333334</ele><time>2026-05-02T14:07:34.107Z</time></trkpt><trkpt lat="46.1322321" lon="13.4344757"><ele>190.0</ele><time>2026-05-02T14:07:35.107Z</time></trkpt><trkpt lat="46.1322784" lon="13.4346047"><ele>190.0</ele><time>2026-05-02T14:07:36.106Z</time></trkpt><trkpt lat="46.1323347" lon="13.4347342"><ele>190.0</ele><time>2026-05-02T14:07:37.106Z</time></trkpt><trkpt lat="46.1323861" lon="13.4348704"><ele>190.0</ele><time>2026-05-02T14:07:38.107Z</time></trkpt><trkpt lat="46.1324286" lon="13.4349978"><ele>190.0</ele><time>2026-05-02T14:07:39.107Z</time></trkpt><trkpt lat="46.1324722" lon="13.4351076"><ele>190.0</ele><time>2026-05-02T14:07:40.106Z</time></trkpt><trkpt lat="46.1325108" lon="13.4351917"><ele>190.2</ele><time>2026-05-02T14:07:41.107Z</time></trkpt><trkpt lat="46.1325797" lon="13.4353057"><ele>190.4</ele><time>2026-05-02T14:07:43.107Z</time></trkpt><trkpt lat="46.1326615" lon="13.4353966"><ele>190.60000000000002</ele><time>2026-05-02T14:07:45.106Z</time></trkpt><trkpt lat="46.1327372" lon="13.4354809"><ele>190.8</ele><time>2026-05-02T14:07:47.107Z</time></trkpt><trkpt lat="46.1327636" lon="13.4356026"><ele>191.0</ele><time>2026-05-02T14:07:49.107Z</time></trkpt><trkpt lat="46.1327372" lon="13.4357222"><ele>191.0</ele><time>2026-05-02T14:07:51.107Z</time></trkpt><trkpt lat="46.1326975" lon="13.4357942"><ele>191.0</ele><time>2026-05-02T14:07:52.106Z</time></trkpt><trkpt lat="46.1326549" lon="13.4358718"><ele>191.0</ele><time>2026-05-02T14:07:53.107Z</time></trkpt><trkpt lat="46.1326133" lon="13.4359532"><ele>191.0</ele><time>2026-05-02T14:07:54.106Z</time></trkpt><trkpt lat="46.1325703" lon="13.4360397"><ele>191.0</ele><time>2026-05-02T14:07:55.107Z</time></trkpt><trkpt lat="46.1325269" lon="13.4361247"><ele>191.0</ele><time>2026-05-02T14:07:56.106Z</time></trkpt><trkpt lat="46.1324853" lon="13.4362288"><ele>191.0</ele><time>2026-05-02T14:07:57.107Z</time></trkpt><trkpt lat="46.1324401" lon="13.436328"><ele>193.16666666666666</ele><time>2026-05-02T14:07:58.106Z</time></trkpt><trkpt lat="46.132389" lon="13.4364326"><ele>195.33333333333331</ele><time>2026-05-02T14:07:59.106Z</time></trkpt><trkpt lat="46.1323307" lon="13.4365347"><ele>197.5</ele><time>2026-05-02T14:08:00.107Z</time></trkpt><trkpt lat="46.1322828" lon="13.4366194"><ele>199.66666666666666</ele><time>2026-05-02T14:08:01.106Z</time></trkpt><trkpt lat="46.1322271" lon="13.4367043"><ele>201.83333333333334</ele><time>2026-05-02T14:08:02.107Z</time></trkpt><trkpt lat="46.1321802" lon="13.4367789"><ele>204.0</ele><time>2026-05-02T14:08:03.106Z</time></trkpt><trkpt lat="46.1320891" lon="13.4368581"><ele>204.0</ele><time>2026-05-02T14:08:05.107Z</time></trkpt><trkpt lat="46.1319776" lon="13.4368307"><ele>204.0</ele><time>2026-05-02T14:08:07.107Z</time></trkpt><trkpt lat="46.1319063" lon="13.436797"><ele>204.0</ele><time>2026-05-02T14:08:08.107Z</time></trkpt><trkpt lat="46.1318311" lon="13.4367587"><ele>204.0</ele><time>2026-05-02T14:08:09.107Z</time></trkpt><trkpt lat="46.1317436" lon="13.4367473"><ele>204.0</ele><time>2026-05-02T14:08:10.107Z</time></trkpt><trkpt lat="46.1316569" lon="13.436736"><ele>204.0</ele><time>2026-05-02T14:08:11.107Z</time></trkpt><trkpt lat="46.1315834" lon="13.4367649"><ele>204.6</ele><time>2026-05-02T14:08:12.107Z</time></trkpt><trkpt lat="46.131515" lon="13.4367927"><ele>205.2</ele><time>2026-05-02T14:08:13.107Z</time></trkpt><trkpt lat="46.131449" lon="13.4368095"><ele>205.79999999999998</ele><time>2026-05-02T14:08:14.107Z</time></trkpt><trkpt lat="46.1313368" lon="13.4368708"><ele>206.39999999999998</ele><time>2026-05-02T14:08:16.106Z</time></trkpt><trkpt lat="46.131245" lon="13.4368644"><ele>207.0</ele><time>2026-05-02T14:08:18.106Z</time></trkpt><trkpt lat="46.1311222" lon="13.4368426"><ele>207.0</ele><time>2026-05-02T14:08:20.106Z</time></trkpt><trkpt lat="46.1310713" lon="13.4369416"><ele>207.0</ele><time>2026-05-02T14:08:22.106Z</time></trkpt><trkpt lat="46.131132" lon="13.4370545"><ele>207.0</ele><time>2026-05-02T14:08:24.106Z</time></trkpt><trkpt lat="46.1311986" lon="13.4370726"><ele>207.0</ele><time>2026-05-02T14:08:25.106Z</time></trkpt><trkpt lat="46.1312743" lon="13.4371002"><ele>207.0</ele><time>2026-05-02T14:08:26.107Z</time></trkpt><trkpt lat="46.131356" lon="13.4371253"><ele>207.0</ele><time>2026-05-02T14:08:27.106Z</time></trkpt><trkpt lat="46.1314374" lon="13.4371606"><ele>209.66666666666666</ele><time>2026-05-02T14:08:28.106Z</time></trkpt><trkpt lat="46.131509" lon="13.4372135"><ele>212.33333333333331</ele><time>2026-05-02T14:08:29.106Z</time></trkpt><trkpt lat="46.1315747" lon="13.4372607"><ele>215.0</ele><time>2026-05-02T14:08:30.106Z</time></trkpt><trkpt lat="46.1316371" lon="13.4373083"><ele>217.66666666666666</ele><time>2026-05-02T14:08:31.106Z</time></trkpt><trkpt lat="46.1317143" lon="13.4374131"><ele>220.33333333333331</ele><time>2026-05-02T14:08:33.106Z</time></trkpt><trkpt lat="46.1317499" lon="13.4374886"><ele>223.0</ele><time>2026-05-02T14:08:34.106Z</time></trkpt><trkpt lat="46.1317896" lon="13.4375666"><ele>222.99999999999997</ele><time>2026-05-02T14:08:35.106Z</time></trkpt><trkpt lat="46.1318373" lon="13.4376623"><ele>223.0</ele><time>2026-05-02T14:08:36.107Z</time></trkpt><trkpt lat="46.1318912" lon="13.4377636"><ele>223.0</ele><time>2026-05-02T14:08:37.106Z</time></trkpt><trkpt lat="46.1319491" lon="13.4378641"><ele>223.0</ele><time>2026-05-02T14:08:38.106Z</time></trkpt><trkpt lat="46.1320054" lon="13.43796"><ele>222.99999999999997</ele><time>2026-05-02T14:08:39.107Z</time></trkpt><trkpt lat="46.1320523" lon="13.438061"><ele>223.0</ele><time>2026-05-02T14:08:40.107Z</time></trkpt><trkpt lat="46.1320847" lon="13.4381489"><ele>226.49999999999997</ele><time>2026-05-02T14:08:41.107Z</time></trkpt><trkpt lat="46.1321169" lon="13.4382355"><ele>230.0</ele><time>2026-05-02T14:08:42.106Z</time></trkpt><trkpt lat="46.1321487" lon="13.4383377"><ele>233.5</ele><time>2026-05-02T14:08:43.106Z</time></trkpt><trkpt lat="46.1321967" lon="13.438431"><ele>237.0</ele><time>2026-05-02T14:08:44.106Z</time></trkpt><trkpt lat="46.1322465" lon="13.438527"><ele>240.49999999999997</ele><time>2026-05-02T14:08:45.106Z</time></trkpt><trkpt lat="46.1322973" lon="13.4386059"><ele>244.0</ele><time>2026-05-02T14:08:46.106Z</time></trkpt><trkpt lat="46.1323505" lon="13.438685"><ele>245.99999999999997</ele><time>2026-05-02T14:08:47.106Z</time></trkpt><trkpt lat="46.132395" lon="13.4387758"><ele>248.0</ele><time>2026-05-02T14:08:48.107Z</time></trkpt><trkpt lat="46.1324388" lon="13.4388587"><ele>250.0</ele><time>2026-05-02T14:08:49.106Z</time></trkpt><trkpt lat="46.1324789" lon="13.4389426"><ele>252.0</ele><time>2026-05-02T14:08:50.106Z</time></trkpt><trkpt lat="46.1325249" lon="13.4390189"><ele>253.99999999999997</ele><time>2026-05-02T14:08:51.106Z</time></trkpt><trkpt lat="46.1326196" lon="13.4391386"><ele>256.0</ele><time>2026-05-02T14:08:53.106Z</time></trkpt><trkpt lat="46.1326749" lon="13.4392099"><ele>255.99999999999997</ele><time>2026-05-02T14:08:54.106Z</time></trkpt><trkpt lat="46.1327329" lon="13.4392866"><ele>256.0</ele><time>2026-05-02T14:08:55.106Z</time></trkpt><trkpt lat="46.1327895" lon="13.43937"><ele>256.0</ele><time>2026-05-02T14:08:56.106Z</time></trkpt><trkpt lat="46.132838" lon="13.439455"><ele>256.0</ele><time>2026-05-02T14:08:57.106Z</time></trkpt><trkpt lat="46.1328841" lon="13.4395591"><ele>255.99999999999997</ele><time>2026-05-02T14:08:58.107Z</time></trkpt><trkpt lat="46.1329327" lon="13.4396636"><ele>256.0</ele><time>2026-05-02T14:08:59.106Z</time></trkpt><trkpt lat="46.1329901" lon="13.4397447"><ele>259.66666666666663</ele><time>2026-05-02T14:09:00.106Z</time></trkpt><trkpt lat="46.1330342" lon="13.4398201"><ele>263.3333333333333</ele><time>2026-05-02T14:09:01.106Z</time></trkpt><trkpt lat="46.1330952" lon="13.4399509"><ele>267.0</ele><time>2026-05-02T14:09:03.106Z</time></trkpt><trkpt lat="46.1330473" lon="13.4400377"><ele>270.6666666666667</ele><time>2026-05-02T14:09:06.107Z</time></trkpt><trkpt lat="46.1329504" lon="13.4399728"><ele>274.33333333333337</ele><time>2026-05-02T14:09:08.106Z</time></trkpt><trkpt lat="46.1328982" lon="13.4399191"><ele>278.0</ele><time>2026-05-02T14:09:09.106Z</time></trkpt><trkpt lat="46.1328375" lon="13.4398571"><ele>278.0</ele><time>2026-05-02T14:09:10.106Z</time></trkpt><trkpt lat="46.1327606" lon="13.4397961"><ele>278.0</ele><time>2026-05-02T14:09:11.107Z</time></trkpt><trkpt lat="46.1326798" lon="13.4397244"><ele>278.0</ele><time>2026-05-02T14:09:12.106Z</time></trkpt><trkpt lat="46.1325969" lon="13.4396397"><ele>278.0</ele><time>2026-05-02T14:09:13.106Z</time></trkpt><trkpt lat="46.1324988" lon="13.4395602"><ele>278.0</ele><time>2026-05-02T14:09:14.106Z</time></trkpt><trkpt lat="46.1324048" lon="13.4394882"><ele>276.0</ele><time>2026-05-02T14:09:15.106Z</time></trkpt><trkpt lat="46.1323307" lon="13.4394274"><ele>274.0</ele><time>2026-05-02T14:09:16.107Z</time></trkpt><trkpt lat="46.1322634" lon="13.4393793"><ele>272.0</ele><time>2026-05-02T14:09:17.107Z</time></trkpt><trkpt lat="46.1321914" lon="13.4393431"><ele>270.0</ele><time>2026-05-02T14:09:18.106Z</time></trkpt><trkpt lat="46.1321132" lon="13.439301"><ele>268.0</ele><time>2026-05-02T14:09:19.106Z</time></trkpt><trkpt lat="46.1320235" lon="13.4392681"><ele>266.0</ele><time>2026-05-02T14:09:20.106Z</time></trkpt><trkpt lat="46.1319428" lon="13.4392477"><ele>266.0</ele><time>2026-05-02T14:09:21.106Z</time></trkpt><trkpt lat="46.1318674" lon="13.4392179"><ele>266.0</ele><time>2026-05-02T14:09:22.106Z</time></trkpt><trkpt lat="46.1317981" lon="13.4391996"><ele>266.0</ele><time>2026-05-02T14:09:23.107Z</time></trkpt><trkpt lat="46.1317321" lon="13.4392125"><ele>266.0</ele><time>2026-05-02T14:09:24.106Z</time></trkpt><trkpt lat="46.1316716" lon="13.4392394"><ele>266.0</ele><time>2026-05-02T14:09:25.106Z</time></trkpt><trkpt lat="46.1315975" lon="13.4392679"><ele>266.0</ele><time>2026-05-02T14:09:26.107Z</time></trkpt><trkpt lat="46.1315258" lon="13.4393051"><ele>266.0</ele><time>2026-05-02T14:09:27.107Z</time></trkpt><trkpt lat="46.1314093" lon="13.4393546"><ele>270.0</ele><time>2026-05-02T14:09:29.107Z</time></trkpt><trkpt lat="46.1313473" lon="13.4393791"><ele>274.0</ele><time>2026-05-02T14:09:30.107Z</time></trkpt><trkpt lat="46.1312464" lon="13.4394498"><ele>278.0</ele><time>2026-05-02T14:09:32.106Z</time></trkpt><trkpt lat="46.1312445" lon="13.4395846"><ele>282.0</ele><time>2026-05-02T14:09:34.106Z</time></trkpt><trkpt lat="46.1313511" lon="13.4396378"><ele>286.0</ele><time>2026-05-02T14:09:36.107Z</time></trkpt><trkpt lat="46.1314698" lon="13.4396129"><ele>285.99999999999994</ele><time>2026-05-02T14:09:38.107Z</time></trkpt><trkpt lat="46.1315441" lon="13.4396015"><ele>286.0</ele><time>2026-05-02T14:09:39.107Z</time></trkpt><trkpt lat="46.1316135" lon="13.4395923"><ele>286.0</ele><time>2026-05-02T14:09:40.107Z</time></trkpt><trkpt lat="46.1316904" lon="13.4395985"><ele>286.0</ele><time>2026-05-02T14:09:41.106Z</time></trkpt><trkpt lat="46.1317643" lon="13.4396193"><ele>286.0</ele><time>2026-05-02T14:09:42.106Z</time></trkpt><trkpt lat="46.1318356" lon="13.4396584"><ele>285.99999999999994</ele><time>2026-05-02T14:09:43.107Z</time></trkpt><trkpt lat="46.1319011" lon="13.4397002"><ele>286.0</ele><time>2026-05-02T14:09:44.106Z</time></trkpt><trkpt lat="46.1319693" lon="13.4397627"><ele>286.66666666666663</ele><time>2026-05-02T14:09:45.106Z</time></trkpt><trkpt lat="46.1320406" lon="13.4398336"><ele>287.3333333333333</ele><time>2026-05-02T14:09:46.106Z</time></trkpt><trkpt lat="46.1321006" lon="13.439909"><ele>288.0</ele><time>2026-05-02T14:09:47.106Z</time></trkpt><trkpt lat="46.1321691" lon="13.4399915"><ele>288.6666666666667</ele><time>2026-05-02T14:09:48.107Z</time></trkpt><trkpt lat="46.1322339" lon="13.4400797"><ele>289.33333333333337</ele><time>2026-05-02T14:09:49.106Z</time></trkpt><trkpt lat="46.1322961" lon="13.4401619"><ele>290.0</ele><time>2026-05-02T14:09:50.106Z</time></trkpt><trkpt lat="46.1323453" lon="13.4402449"><ele>290.8</ele><time>2026-05-02T14:09:51.106Z</time></trkpt><trkpt lat="46.1323993" lon="13.4403992"><ele>291.6</ele><time>2026-05-02T14:09:53.106Z</time></trkpt><trkpt lat="46.132432" lon="13.4405057"><ele>292.4</ele><time>2026-05-02T14:09:54.107Z</time></trkpt><trkpt lat="46.1324791" lon="13.4406225"><ele>293.2</ele><time>2026-05-02T14:09:55.106Z</time></trkpt><trkpt lat="46.1325238" lon="13.4407459"><ele>294.0</ele><time>2026-05-02T14:09:56.106Z</time></trkpt><trkpt lat="46.132552" lon="13.4408508"><ele>294.0</ele><time>2026-05-02T14:09:57.107Z</time></trkpt><trkpt lat="46.1325673" lon="13.4409395"><ele>294.0</ele><time>2026-05-02T14:09:58.106Z</time></trkpt><trkpt lat="46.1325683" lon="13.4411104"><ele>294.0</ele><time>2026-05-02T14:10:00.106Z</time></trkpt><trkpt lat="46.1325422" lon="13.4412015"><ele>294.0</ele><time>2026-05-02T14:10:01.107Z</time></trkpt><trkpt lat="46.132505" lon="13.4412885"><ele>294.0</ele><time>2026-05-02T14:10:02.106Z</time></trkpt><trkpt lat="46.1324734" lon="13.4413747"><ele>294.0</ele><time>2026-05-02T14:10:03.106Z</time></trkpt><trkpt lat="46.1324274" lon="13.4414521"><ele>300.7142857142857</ele><time>2026-05-02T14:10:04.106Z</time></trkpt><trkpt lat="46.1323821" lon="13.4415528"><ele>307.42857142857144</ele><time>2026-05-02T14:10:05.106Z</time></trkpt><trkpt lat="46.1323602" lon="13.4416497"><ele>314.1428571428571</ele><time>2026-05-02T14:10:06.107Z</time></trkpt><trkpt lat="46.1323416" lon="13.4417439"><ele>320.8571428571429</ele><time>2026-05-02T14:10:07.107Z</time></trkpt><trkpt lat="46.1323172" lon="13.4418422"><ele>327.57142857142856</ele><time>2026-05-02T14:10:08.107Z</time></trkpt><trkpt lat="46.1322953" lon="13.4419393"><ele>334.2857142857143</ele><time>2026-05-02T14:10:09.107Z</time></trkpt><trkpt lat="46.1322779" lon="13.4420332"><ele>341.0</ele><time>2026-05-02T14:10:10.106Z</time></trkpt><trkpt lat="46.1322827" lon="13.4422159"><ele>342.42857142857144</ele><time>2026-05-02T14:10:12.107Z</time></trkpt><trkpt lat="46.132325" lon="13.4423157"><ele>343.8571428571429</ele><time>2026-05-02T14:10:13.107Z</time></trkpt><trkpt lat="46.1323741" lon="13.4423906"><ele>345.28571428571433</ele><time>2026-05-02T14:10:14.107Z</time></trkpt><trkpt lat="46.1324266" lon="13.442455"><ele>346.7142857142857</ele><time>2026-05-02T14:10:15.106Z</time></trkpt><trkpt lat="46.1324634" lon="13.4425324"><ele>348.14285714285717</ele><time>2026-05-02T14:10:16.107Z</time></trkpt><trkpt lat="46.1324981" lon="13.4426322"><ele>349.5714285714286</ele><time>2026-05-02T14:10:17.107Z</time></trkpt><trkpt lat="46.1325202" lon="13.4427496"><ele>351.0</ele><time>2026-05-02T14:10:18.107Z</time></trkpt><trkpt lat="46.1325455" lon="13.4428715"><ele>344.6</ele><time>2026-05-02T14:10:19.107Z</time></trkpt><trkpt lat="46.1325719" lon="13.4429976"><ele>338.20000000000005</ele><time>2026-05-02T14:10:20.106Z</time></trkpt><trkpt lat="46.13259" lon="13.4431005"><ele>331.79999999999995</ele><time>2026-05-02T14:10:21.106Z</time></trkpt><trkpt lat="46.1325941" lon="13.4432607"><ele>325.4</ele><time>2026-05-02T14:10:23.106Z</time></trkpt><trkpt lat="46.1325407" lon="13.4434429"><ele>319.0</ele><time>2026-05-02T14:10:25.107Z</time></trkpt><trkpt lat="46.132519" lon="13.4435435"><ele>319.0</ele><time>2026-05-02T14:10:26.106Z</time></trkpt><trkpt lat="46.132532" lon="13.4436778"><ele>319.0</ele><time>2026-05-02T14:10:28.106Z</time></trkpt><trkpt lat="46.1325779" lon="13.4437424"><ele>319.0</ele><time>2026-05-02T14:10:30.107Z</time></trkpt><trkpt lat="46.132706" lon="13.4436841"><ele>319.0</ele><time>2026-05-02T14:10:32.106Z</time></trkpt><trkpt lat="46.1327989" lon="13.4436368"><ele>319.0</ele><time>2026-05-02T14:10:33.107Z</time></trkpt><trkpt lat="46.1328878" lon="13.443613"><ele>319.0</ele><time>2026-05-02T14:10:34.106Z</time></trkpt><trkpt lat="46.1329691" lon="13.4436064"><ele>319.0</ele><time>2026-05-02T14:10:35.106Z</time></trkpt><trkpt lat="46.1330407" lon="13.4436466"><ele>319.0</ele><time>2026-05-02T14:10:36.107Z</time></trkpt><trkpt lat="46.1330992" lon="13.4437004"><ele>319.0</ele><time>2026-05-02T14:10:37.105Z</time></trkpt><trkpt lat="46.1331639" lon="13.4437802"><ele>319.0</ele><time>2026-05-02T14:10:38.105Z</time></trkpt><trkpt lat="46.1332262" lon="13.4438943"><ele>319.0</ele><time>2026-05-02T14:10:39.105Z</time></trkpt><trkpt lat="46.1332941" lon="13.4440305"><ele>318.8333333333333</ele><time>2026-05-02T14:10:40.106Z</time></trkpt><trkpt lat="46.1333502" lon="13.4441625"><ele>318.66666666666663</ele><time>2026-05-02T14:10:41.106Z</time></trkpt><trkpt lat="46.1333959" lon="13.4442591"><ele>318.5</ele><time>2026-05-02T14:10:42.105Z</time></trkpt><trkpt lat="46.1334279" lon="13.4443453"><ele>318.3333333333333</ele><time>2026-05-02T14:10:43.105Z</time></trkpt><trkpt lat="46.13345" lon="13.4444453"><ele>318.1666666666667</ele><time>2026-05-02T14:10:44.106Z</time></trkpt><trkpt lat="46.1334696" lon="13.4445443"><ele>318.0</ele><time>2026-05-02T14:10:45.105Z</time></trkpt><trkpt lat="46.133503" lon="13.4447031"><ele>322.2</ele><time>2026-05-02T14:10:47.105Z</time></trkpt><trkpt lat="46.133568" lon="13.4448059"><ele>326.4</ele><time>2026-05-02T14:10:49.106Z</time></trkpt><trkpt lat="46.1336728" lon="13.4448305"><ele>330.59999999999997</ele><time>2026-05-02T14:10:51.105Z</time></trkpt><trkpt lat="46.1338022" lon="13.444768"><ele>334.8</ele><time>2026-05-02T14:10:53.106Z</time></trkpt><trkpt lat="46.1338985" lon="13.4447291"><ele>339.0</ele><time>2026-05-02T14:10:54.106Z</time></trkpt><trkpt lat="46.1339989" lon="13.4446815"><ele>337.0</ele><time>2026-05-02T14:10:55.105Z</time></trkpt><trkpt lat="46.1340821" lon="13.4446456"><ele>335.0</ele><time>2026-05-02T14:10:56.105Z</time></trkpt><trkpt lat="46.134167" lon="13.4446039"><ele>333.0</ele><time>2026-05-02T14:10:57.106Z</time></trkpt><trkpt lat="46.1342541" lon="13.4445546"><ele>331.0</ele><time>2026-05-02T14:10:58.106Z</time></trkpt><trkpt lat="46.134332" lon="13.4444943"><ele>329.0</ele><time>2026-05-02T14:10:59.105Z</time></trkpt><trkpt lat="46.1344064" lon="13.4444261"><ele>327.0</ele><time>2026-05-02T14:11:00.106Z</time></trkpt><trkpt lat="46.1344824" lon="13.4443521"><ele>324.42857142857144</ele><time>2026-05-02T14:11:01.105Z</time></trkpt><trkpt lat="46.1345473" lon="13.4442786"><ele>321.8571428571429</ele><time>2026-05-02T14:11:02.105Z</time></trkpt><trkpt lat="46.1346001" lon="13.4442077"><ele>319.28571428571433</ele><time>2026-05-02T14:11:03.105Z</time></trkpt><trkpt lat="46.1346382" lon="13.444125"><ele>316.7142857142857</ele><time>2026-05-02T14:11:04.106Z</time></trkpt><trkpt lat="46.1346708" lon="13.444038"><ele>314.14285714285717</ele><time>2026-05-02T14:11:05.106Z</time></trkpt><trkpt lat="46.1346914" lon="13.4439497"><ele>311.5714285714286</ele><time>2026-05-02T14:11:06.105Z</time></trkpt><trkpt lat="46.1347052" lon="13.4438569"><ele>309.0</ele><time>2026-05-02T14:11:07.106Z</time></trkpt><trkpt lat="46.1347209" lon="13.4437325"><ele>307.7142857142857</ele><time>2026-05-02T14:11:08.105Z</time></trkpt><trkpt lat="46.134727" lon="13.4436147"><ele>306.42857142857144</ele><time>2026-05-02T14:11:09.105Z</time></trkpt><trkpt lat="46.1347289" lon="13.4435032"><ele>305.1428571428571</ele><time>2026-05-02T14:11:10.105Z</time></trkpt><trkpt lat="46.1347323" lon="13.4434068"><ele>303.8571428571429</ele><time>2026-05-02T14:11:11.105Z</time></trkpt><trkpt lat="46.1347356" lon="13.4433152"><ele>302.57142857142856</ele><time>2026-05-02T14:11:12.105Z</time></trkpt><trkpt lat="46.134743" lon="13.4432121"><ele>301.2857142857143</ele><time>2026-05-02T14:11:13.106Z</time></trkpt><trkpt lat="46.1347571" lon="13.4431209"><ele>300.0</ele><time>2026-05-02T14:11:14.106Z</time></trkpt><trkpt lat="46.1348125" lon="13.4429771"><ele>300.6</ele><time>2026-05-02T14:11:16.105Z</time></trkpt><trkpt lat="46.134898" lon="13.442911"><ele>301.2</ele><time>2026-05-02T14:11:18.105Z</time></trkpt><trkpt lat="46.1349859" lon="13.4429879"><ele>301.8</ele><time>2026-05-02T14:11:20.105Z</time></trkpt><trkpt lat="46.1350617" lon="13.4431525"><ele>302.4</ele><time>2026-05-02T14:11:22.106Z</time></trkpt><trkpt lat="46.135083" lon="13.4432577"><ele>303.0</ele><time>2026-05-02T14:11:23.105Z</time></trkpt><trkpt lat="46.1350911" lon="13.4433669"><ele>303.7142857142857</ele><time>2026-05-02T14:11:24.106Z</time></trkpt><trkpt lat="46.1350947" lon="13.4434735"><ele>304.42857142857144</ele><time>2026-05-02T14:11:25.105Z</time></trkpt><trkpt lat="46.1350857" lon="13.4435665"><ele>305.1428571428571</ele><time>2026-05-02T14:11:26.106Z</time></trkpt><trkpt lat="46.1350662" lon="13.4436652"><ele>305.8571428571429</ele><time>2026-05-02T14:11:27.105Z</time></trkpt><trkpt lat="46.1350293" lon="13.4437722"><ele>306.57142857142856</ele><time>2026-05-02T14:11:28.105Z</time></trkpt><trkpt lat="46.1349901" lon="13.4438793"><ele>307.2857142857143</ele><time>2026-05-02T14:11:29.105Z</time></trkpt><trkpt lat="46.1349606" lon="13.4439627"><ele>308.0</ele><time>2026-05-02T14:11:30.106Z</time></trkpt><trkpt lat="46.13495" lon="13.4441242"><ele>309.0</ele><time>2026-05-02T14:11:32.106Z</time></trkpt><trkpt lat="46.1349726" lon="13.4442306"><ele>310.0</ele><time>2026-05-02T14:11:33.105Z</time></trkpt><trkpt lat="46.1349985" lon="13.4443517"><ele>311.0</ele><time>2026-05-02T14:11:34.105Z</time></trkpt><trkpt lat="46.135019" lon="13.4444667"><ele>312.0</ele><time>2026-05-02T14:11:35.105Z</time></trkpt><trkpt lat="46.1350329" lon="13.4445719"><ele>313.0</ele><time>2026-05-02T14:11:36.106Z</time></trkpt><trkpt lat="46.1350441" lon="13.4446874"><ele>314.0</ele><time>2026-05-02T14:11:37.105Z</time></trkpt><trkpt lat="46.135042" lon="13.444806"><ele>315.6666666666667</ele><time>2026-05-02T14:11:38.106Z</time></trkpt><trkpt lat="46.1350251" lon="13.4449103"><ele>317.33333333333337</ele><time>2026-05-02T14:11:39.106Z</time></trkpt><trkpt lat="46.1350058" lon="13.44501"><ele>319.0</ele><time>2026-05-02T14:11:40.106Z</time></trkpt><trkpt lat="46.1350113" lon="13.4451765"><ele>320.6666666666667</ele><time>2026-05-02T14:11:42.106Z</time></trkpt><trkpt lat="46.135035" lon="13.44527"><ele>322.3333333333333</ele><time>2026-05-02T14:11:43.105Z</time></trkpt><trkpt lat="46.1350485" lon="13.4453817"><ele>324.0</ele><time>2026-05-02T14:11:44.105Z</time></trkpt><trkpt lat="46.1351017" lon="13.4455105"><ele>327.2</ele><time>2026-05-02T14:11:46.105Z</time></trkpt><trkpt lat="46.1351885" lon="13.4455638"><ele>330.4</ele><time>2026-05-02T14:11:48.106Z</time></trkpt><trkpt lat="46.1352533" lon="13.445575"><ele>333.6</ele><time>2026-05-02T14:11:49.106Z</time></trkpt><trkpt lat="46.1353599" lon="13.4456188"><ele>336.8</ele><time>2026-05-02T14:11:51.106Z</time></trkpt><trkpt lat="46.1354771" lon="13.4457222"><ele>340.0</ele><time>2026-05-02T14:11:53.105Z</time></trkpt><trkpt lat="46.1355526" lon="13.445838"><ele>340.0</ele><time>2026-05-02T14:11:54.105Z</time></trkpt><trkpt lat="46.1356318" lon="13.4459467"><ele>340.0</ele><time>2026-05-02T14:11:55.105Z</time></trkpt><trkpt lat="46.1357024" lon="13.4460495"><ele>340.0</ele><time>2026-05-02T14:11:56.105Z</time></trkpt><trkpt lat="46.1357676" lon="13.4461409"><ele>340.0</ele><time>2026-05-02T14:11:57.105Z</time></trkpt><trkpt lat="46.1358219" lon="13.4462319"><ele>340.0</ele><time>2026-05-02T14:11:58.105Z</time></trkpt><trkpt lat="46.1358704" lon="13.446329"><ele>343.6</ele><time>2026-05-02T14:11:59.105Z</time></trkpt><trkpt lat="46.1359159" lon="13.4464332"><ele>347.2</ele><time>2026-05-02T14:12:00.106Z</time></trkpt><trkpt lat="46.135956" lon="13.446545"><ele>350.79999999999995</ele><time>2026-05-02T14:12:01.105Z</time></trkpt><trkpt lat="46.1359827" lon="13.4466732"><ele>354.4</ele><time>2026-05-02T14:12:02.105Z</time></trkpt><trkpt lat="46.1359882" lon="13.4468181"><ele>358.0</ele><time>2026-05-02T14:12:03.106Z</time></trkpt><trkpt lat="46.1359832" lon="13.4469625"><ele>358.0</ele><time>2026-05-02T14:12:04.106Z</time></trkpt><trkpt lat="46.1359532" lon="13.4470676"><ele>358.0</ele><time>2026-05-02T14:12:05.105Z</time></trkpt><trkpt lat="46.1359078" lon="13.4471334"><ele>358.0</ele><time>2026-05-02T14:12:06.105Z</time></trkpt><trkpt lat="46.13587" lon="13.4472173"><ele>358.0</ele><time>2026-05-02T14:12:07.105Z</time></trkpt><trkpt lat="46.1358338" lon="13.4473405"><ele>358.0</ele><time>2026-05-02T14:12:09.106Z</time></trkpt><trkpt lat="46.1358628" lon="13.4474322"><ele>358.0</ele><time>2026-05-02T14:12:11.105Z</time></trkpt><trkpt lat="46.1359469" lon="13.4474261"><ele>358.0</ele><time>2026-05-02T14:12:13.105Z</time></trkpt><trkpt lat="46.1360111" lon="13.4473753"><ele>358.0</ele><time>2026-05-02T14:12:14.106Z</time></trkpt><trkpt lat="46.1360801" lon="13.4473086"><ele>358.0</ele><time>2026-05-02T14:12:15.105Z</time></trkpt><trkpt lat="46.1361651" lon="13.4472344"><ele>358.0</ele><time>2026-05-02T14:12:16.106Z</time></trkpt><trkpt lat="46.1362356" lon="13.4471651"><ele>358.0</ele><time>2026-05-02T14:12:17.105Z</time></trkpt><trkpt lat="46.1362928" lon="13.4471062"><ele>358.0</ele><time>2026-05-02T14:12:18.106Z</time></trkpt><trkpt lat="46.1363458" lon="13.4470469"><ele>358.0</ele><time>2026-05-02T14:12:19.105Z</time></trkpt><trkpt lat="46.1364085" lon="13.4470217"><ele>358.0</ele><time>2026-05-02T14:12:20.105Z</time></trkpt><trkpt lat="46.1364873" lon="13.4470514"><ele>358.0</ele><time>2026-05-02T14:12:21.105Z</time></trkpt><trkpt lat="46.1365442" lon="13.4471235"><ele>358.0</ele><time>2026-05-02T14:12:22.106Z</time></trkpt><trkpt lat="46.1366043" lon="13.4472072"><ele>358.0</ele><time>2026-05-02T14:12:23.106Z</time></trkpt><trkpt lat="46.1366695" lon="13.4472997"><ele>358.0</ele><time>2026-05-02T14:12:24.106Z</time></trkpt><trkpt lat="46.1367166" lon="13.4473795"><ele>358.66666666666663</ele><time>2026-05-02T14:12:25.106Z</time></trkpt><trkpt lat="46.136754" lon="13.4474685"><ele>359.3333333333333</ele><time>2026-05-02T14:12:26.105Z</time></trkpt><trkpt lat="46.136784" lon="13.447558"><ele>360.0</ele><time>2026-05-02T14:12:27.106Z</time></trkpt><trkpt lat="46.1368092" lon="13.4476556"><ele>360.6666666666667</ele><time>2026-05-02T14:12:28.106Z</time></trkpt><trkpt lat="46.136836" lon="13.4477643"><ele>361.33333333333337</ele><time>2026-05-02T14:12:29.105Z</time></trkpt><trkpt lat="46.1368572" lon="13.447882"><ele>362.0</ele><time>2026-05-02T14:12:30.105Z</time></trkpt><trkpt lat="46.1368672" lon="13.4479973"><ele>364.33333333333337</ele><time>2026-05-02T14:12:31.106Z</time></trkpt><trkpt lat="46.1368722" lon="13.4481001"><ele>366.6666666666667</ele><time>2026-05-02T14:12:32.106Z</time></trkpt><trkpt lat="46.1368792" lon="13.4482069"><ele>369.0</ele><time>2026-05-02T14:12:33.105Z</time></trkpt><trkpt lat="46.1368872" lon="13.4483101"><ele>371.3333333333333</ele><time>2026-05-02T14:12:34.105Z</time></trkpt><trkpt lat="46.1368962" lon="13.4484214"><ele>373.66666666666663</ele><time>2026-05-02T14:12:35.106Z</time></trkpt><trkpt lat="46.1369048" lon="13.4485403"><ele>376.0</ele><time>2026-05-02T14:12:36.106Z</time></trkpt><trkpt lat="46.1369066" lon="13.4486538"><ele>376.0</ele><time>2026-05-02T14:12:37.106Z</time></trkpt><trkpt lat="46.1369132" lon="13.4487563"><ele>376.0</ele><time>2026-05-02T14:12:38.106Z</time></trkpt><trkpt lat="46.1369089" lon="13.4489346"><ele>376.0</ele><time>2026-05-02T14:12:40.105Z</time></trkpt><trkpt lat="46.1369009" lon="13.4490295"><ele>376.0</ele><time>2026-05-02T14:12:41.105Z</time></trkpt><trkpt lat="46.1368822" lon="13.4491307"><ele>376.0</ele><time>2026-05-02T14:12:42.105Z</time></trkpt><trkpt lat="46.1368633" lon="13.4492424"><ele>376.0</ele><time>2026-05-02T14:12:43.106Z</time></trkpt><trkpt lat="46.1368403" lon="13.4493423"><ele>378.8</ele><time>2026-05-02T14:12:44.106Z</time></trkpt><trkpt lat="46.1368127" lon="13.4494271"><ele>381.6</ele><time>2026-05-02T14:12:45.105Z</time></trkpt><trkpt lat="46.1367548" lon="13.4495815"><ele>384.4</ele><time>2026-05-02T14:12:47.105Z</time></trkpt><trkpt lat="46.1367378" lon="13.4497278"><ele>387.2</ele><time>2026-05-02T14:12:49.106Z</time></trkpt><trkpt lat="46.1367989" lon="13.4498144"><ele>390.0</ele><time>2026-05-02T14:12:51.106Z</time></trkpt><trkpt lat="46.1369076" lon="13.4498366"><ele>392.5</ele><time>2026-05-02T14:12:53.105Z</time></trkpt><trkpt lat="46.1369719" lon="13.4498448"><ele>395.0</ele><time>2026-05-02T14:12:54.105Z</time></trkpt><trkpt lat="46.1370849" lon="13.4499196"><ele>397.5</ele><time>2026-05-02T14:12:56.105Z</time></trkpt><trkpt lat="46.1371376" lon="13.449973"><ele>400.0</ele><time>2026-05-02T14:12:57.106Z</time></trkpt><trkpt lat="46.1371699" lon="13.4500524"><ele>402.5</ele><time>2026-05-02T14:12:58.106Z</time></trkpt><trkpt lat="46.1371779" lon="13.4501517"><ele>405.0</ele><time>2026-05-02T14:12:59.105Z</time></trkpt><trkpt lat="46.1371594" lon="13.450324"><ele>408.0</ele><time>2026-05-02T14:13:01.106Z</time></trkpt><trkpt lat="46.137118" lon="13.4504882"><ele>411.0</ele><time>2026-05-02T14:13:03.105Z</time></trkpt><trkpt lat="46.1370798" lon="13.4505907"><ele>414.0</ele><time>2026-05-02T14:13:04.105Z</time></trkpt><trkpt lat="46.1370266" lon="13.450702"><ele>417.0</ele><time>2026-05-02T14:13:05.106Z</time></trkpt><trkpt lat="46.136966" lon="13.4508232"><ele>420.0</ele><time>2026-05-02T14:13:06.105Z</time></trkpt><trkpt lat="46.1369188" lon="13.4509455"><ele>420.0</ele><time>2026-05-02T14:13:07.106Z</time></trkpt><trkpt lat="46.1369078" lon="13.451105"><ele>420.0</ele><time>2026-05-02T14:13:09.105Z</time></trkpt><trkpt lat="46.1370006" lon="13.4512137"><ele>420.0</ele><time>2026-05-02T14:13:11.105Z</time></trkpt><trkpt lat="46.1370602" lon="13.4512488"><ele>420.0</ele><time>2026-05-02T14:13:12.106Z</time></trkpt><trkpt lat="46.1371741" lon="13.451309"><ele>420.0</ele><time>2026-05-02T14:13:14.106Z</time></trkpt><trkpt lat="46.1372421" lon="13.4513679"><ele>422.4</ele><time>2026-05-02T14:13:16.105Z</time></trkpt><trkpt lat="46.1372236" lon="13.4514748"><ele>424.8</ele><time>2026-05-02T14:13:19.105Z</time></trkpt><trkpt lat="46.1371239" lon="13.4515005"><ele>427.20000000000005</ele><time>2026-05-02T14:13:21.105Z</time></trkpt><trkpt lat="46.1369938" lon="13.4514778"><ele>429.6</ele><time>2026-05-02T14:13:23.106Z</time></trkpt><trkpt lat="46.136913" lon="13.4514589"><ele>432.0</ele><time>2026-05-02T14:13:24.105Z</time></trkpt><trkpt lat="46.1368397" lon="13.4514272"><ele>432.0</ele><time>2026-05-02T14:13:25.105Z</time></trkpt><trkpt lat="46.1367849" lon="13.4513671"><ele>432.0</ele><time>2026-05-02T14:13:26.106Z</time></trkpt><trkpt lat="46.1367527" lon="13.4512883"><ele>432.0</ele><time>2026-05-02T14:13:27.105Z</time></trkpt><trkpt lat="46.1367395" lon="13.4511193"><ele>432.0</ele><time>2026-05-02T14:13:29.105Z</time></trkpt><trkpt lat="46.1367336" lon="13.451018"><ele>432.0</ele><time>2026-05-02T14:13:30.106Z</time></trkpt><trkpt lat="46.1367152" lon="13.4509058"><ele>432.0</ele><time>2026-05-02T14:13:31.106Z</time></trkpt><trkpt lat="46.1366784" lon="13.4508014"><ele>432.8</ele><time>2026-05-02T14:13:32.105Z</time></trkpt><trkpt lat="46.136624" lon="13.4507115"><ele>433.6</ele><time>2026-05-02T14:13:33.105Z</time></trkpt><trkpt lat="46.1365568" lon="13.4506132"><ele>434.40000000000003</ele><time>2026-05-02T14:13:34.105Z</time></trkpt><trkpt lat="46.1364816" lon="13.4505252"><ele>435.20000000000005</ele><time>2026-05-02T14:13:35.106Z</time></trkpt><trkpt lat="46.1364033" lon="13.4504389"><ele>436.0</ele><time>2026-05-02T14:13:36.106Z</time></trkpt><trkpt lat="46.1363292" lon="13.4503524"><ele>436.00000000000006</ele><time>2026-05-02T14:13:37.105Z</time></trkpt><trkpt lat="46.1362502" lon="13.4502636"><ele>436.0</ele><time>2026-05-02T14:13:38.105Z</time></trkpt><trkpt lat="46.1361765" lon="13.4501758"><ele>436.0</ele><time>2026-05-02T14:13:39.105Z</time></trkpt><trkpt lat="46.1361117" lon="13.4500954"><ele>436.0</ele><time>2026-05-02T14:13:40.105Z</time></trkpt><trkpt lat="46.1360597" lon="13.4500054"><ele>436.00000000000006</ele><time>2026-05-02T14:13:41.106Z</time></trkpt><trkpt lat="46.1360233" lon="13.4499013"><ele>436.0</ele><time>2026-05-02T14:13:42.105Z</time></trkpt><trkpt lat="46.1359949" lon="13.4498053"><ele>436.00000000000006</ele><time>2026-05-02T14:13:43.105Z</time></trkpt><trkpt lat="46.1359789" lon="13.4497024"><ele>436.0</ele><time>2026-05-02T14:13:44.105Z</time></trkpt><trkpt lat="46.1359485" lon="13.4496085"><ele>436.0</ele><time>2026-05-02T14:13:45.106Z</time></trkpt><trkpt lat="46.1359135" lon="13.4495301"><ele>436.0</ele><time>2026-05-02T14:13:46.105Z</time></trkpt><trkpt lat="46.1358487" lon="13.4494707"><ele>436.00000000000006</ele><time>2026-05-02T14:13:47.105Z</time></trkpt><trkpt lat="46.1357804" lon="13.449426"><ele>436.0</ele><time>2026-05-02T14:13:48.106Z</time></trkpt><trkpt lat="46.1356863" lon="13.4493762"><ele>436.20000000000005</ele><time>2026-05-02T14:13:49.105Z</time></trkpt><trkpt lat="46.1355831" lon="13.4493328"><ele>436.40000000000003</ele><time>2026-05-02T14:13:50.106Z</time></trkpt><trkpt lat="46.1354911" lon="13.4492883"><ele>436.6</ele><time>2026-05-02T14:13:51.106Z</time></trkpt><trkpt lat="46.1354032" lon="13.4492484"><ele>436.8</ele><time>2026-05-02T14:13:52.106Z</time></trkpt><trkpt lat="46.135316" lon="13.4492192"><ele>437.0</ele><time>2026-05-02T14:13:53.105Z</time></trkpt><trkpt lat="46.1352359" lon="13.4491827"><ele>436.99999999999994</ele><time>2026-05-02T14:13:54.105Z</time></trkpt><trkpt lat="46.1351499" lon="13.4491598"><ele>437.0</ele><time>2026-05-02T14:13:55.105Z</time></trkpt><trkpt lat="46.1350737" lon="13.449134"><ele>437.0</ele><time>2026-05-02T14:13:56.106Z</time></trkpt><trkpt lat="46.1350033" lon="13.4491126"><ele>437.0</ele><time>2026-05-02T14:13:57.105Z</time></trkpt><trkpt lat="46.1349428" lon="13.4490722"><ele>436.99999999999994</ele><time>2026-05-02T14:13:58.105Z</time></trkpt><trkpt lat="46.134885" lon="13.4490352"><ele>437.0</ele><time>2026-05-02T14:13:59.105Z</time></trkpt><trkpt lat="46.1348395" lon="13.4488624"><ele>437.16666666666663</ele><time>2026-05-02T14:14:01.106Z</time></trkpt><trkpt lat="46.134806" lon="13.4487678"><ele>437.3333333333333</ele><time>2026-05-02T14:14:02.106Z</time></trkpt><trkpt lat="46.1347646" lon="13.4486807"><ele>437.5</ele><time>2026-05-02T14:14:03.106Z</time></trkpt><trkpt lat="46.134713" lon="13.4486099"><ele>437.66666666666663</ele><time>2026-05-02T14:14:04.106Z</time></trkpt><trkpt lat="46.1346447" lon="13.4485379"><ele>437.8333333333333</ele><time>2026-05-02T14:14:05.106Z</time></trkpt><trkpt lat="46.1345753" lon="13.4484605"><ele>438.0</ele><time>2026-05-02T14:14:06.106Z</time></trkpt><trkpt lat="46.1345044" lon="13.4483983"><ele>438.0</ele><time>2026-05-02T14:14:07.105Z</time></trkpt><trkpt lat="46.1344305" lon="13.4483498"><ele>437.99999999999994</ele><time>2026-05-02T14:14:08.106Z</time></trkpt><trkpt lat="46.134344" lon="13.448313"><ele>437.99999999999994</ele><time>2026-05-02T14:14:09.106Z</time></trkpt><trkpt lat="46.1342564" lon="13.4482804"><ele>438.0</ele><time>2026-05-02T14:14:10.105Z</time></trkpt><trkpt lat="46.1341548" lon="13.4482362"><ele>438.0</ele><time>2026-05-02T14:14:11.105Z</time></trkpt><trkpt lat="46.1340469" lon="13.4481942"><ele>439.59999999999997</ele><time>2026-05-02T14:14:12.106Z</time></trkpt><trkpt lat="46.1339524" lon="13.4481498"><ele>441.19999999999993</ele><time>2026-05-02T14:14:13.105Z</time></trkpt><trkpt lat="46.1338553" lon="13.4481118"><ele>442.8</ele><time>2026-05-02T14:14:14.106Z</time></trkpt><trkpt lat="46.1337615" lon="13.448074"><ele>444.4</ele><time>2026-05-02T14:14:15.105Z</time></trkpt><trkpt lat="46.1336783" lon="13.448041"><ele>446.0</ele><time>2026-05-02T14:14:16.105Z</time></trkpt><trkpt lat="46.1335957" lon="13.4480166"><ele>445.99999999999994</ele><time>2026-05-02T14:14:17.105Z</time></trkpt><trkpt lat="46.1335156" lon="13.4479934"><ele>446.0</ele><time>2026-05-02T14:14:18.105Z</time></trkpt><trkpt lat="46.1334442" lon="13.4479814"><ele>446.0</ele><time>2026-05-02T14:14:19.105Z</time></trkpt><trkpt lat="46.1333714" lon="13.4479903"><ele>446.0</ele><time>2026-05-02T14:14:20.105Z</time></trkpt><trkpt lat="46.1333121" lon="13.4480275"><ele>445.99999999999994</ele><time>2026-05-02T14:14:21.105Z</time></trkpt><trkpt lat="46.13321" lon="13.4481495"><ele>446.0</ele><time>2026-05-02T14:14:23.105Z</time></trkpt><trkpt lat="46.1331562" lon="13.4482456"><ele>448.4</ele><time>2026-05-02T14:14:24.106Z</time></trkpt><trkpt lat="46.1330985" lon="13.4483207"><ele>450.8</ele><time>2026-05-02T14:14:25.106Z</time></trkpt><trkpt lat="46.1330449" lon="13.4483994"><ele>453.19999999999993</ele><time>2026-05-02T14:14:26.106Z</time></trkpt><trkpt lat="46.1329914" lon="13.4484793"><ele>455.59999999999997</ele><time>2026-05-02T14:14:27.105Z</time></trkpt><trkpt lat="46.1328928" lon="13.4485694"><ele>458.0</ele><time>2026-05-02T14:14:29.105Z</time></trkpt><trkpt lat="46.1327889" lon="13.4485404"><ele>458.0</ele><time>2026-05-02T14:14:31.105Z</time></trkpt><trkpt lat="46.1326995" lon="13.4484388"><ele>457.99999999999994</ele><time>2026-05-02T14:14:33.105Z</time></trkpt><trkpt lat="46.1326635" lon="13.4483527"><ele>457.99999999999994</ele><time>2026-05-02T14:14:34.106Z</time></trkpt><trkpt lat="46.1326174" lon="13.4482545"><ele>458.0</ele><time>2026-05-02T14:14:35.104Z</time></trkpt><trkpt lat="46.1325753" lon="13.4481347"><ele>458.0</ele><time>2026-05-02T14:14:36.104Z</time></trkpt><trkpt lat="46.132519" lon="13.4480301"><ele>457.2</ele><time>2026-05-02T14:14:37.104Z</time></trkpt><trkpt lat="46.1324569" lon="13.4479248"><ele>456.4</ele><time>2026-05-02T14:14:38.104Z</time></trkpt><trkpt lat="46.1323891" lon="13.4478232"><ele>455.59999999999997</ele><time>2026-05-02T14:14:39.104Z</time></trkpt><trkpt lat="46.1323302" lon="13.447736"><ele>454.79999999999995</ele><time>2026-05-02T14:14:40.105Z</time></trkpt><trkpt lat="46.1322652" lon="13.4476621"><ele>454.0</ele><time>2026-05-02T14:14:41.104Z</time></trkpt><trkpt lat="46.1321883" lon="13.4475903"><ele>454.0</ele><time>2026-05-02T14:14:42.105Z</time></trkpt><trkpt lat="46.1320968" lon="13.4475188"><ele>454.0</ele><time>2026-05-02T14:14:43.105Z</time></trkpt><trkpt lat="46.1320075" lon="13.4474556"><ele>454.0</ele><time>2026-05-02T14:14:44.105Z</time></trkpt><trkpt lat="46.1319235" lon="13.4473971"><ele>454.0</ele><time>2026-05-02T14:14:45.105Z</time></trkpt><trkpt lat="46.1318462" lon="13.4473548"><ele>454.0</ele><time>2026-05-02T14:14:46.104Z</time></trkpt><trkpt lat="46.1317793" lon="13.4473202"><ele>446.0</ele><time>2026-05-02T14:14:47.104Z</time></trkpt><trkpt lat="46.1338553" lon="13.4481118"><ele>445.99999999999994</ele><time>2026-05-02T14:14:14.106Z</time></trkpt><trkpt lat="46.1337615" lon="13.448074"><ele>446.0</ele><time>2026-05-02T14:14:15.105Z</time></trkpt><trkpt lat="46.1336783" lon="13.448041"><ele>446.0</ele><time>2026-05-02T14:14:16.105Z</time></trkpt><trkpt lat="46.1335957" lon="13.4480166"><ele>446.0</ele><time>2026-05-02T14:14:17.105Z</time></trkpt><trkpt lat="46.1335156" lon="13.4479934"><ele>445.99999999999994</ele><time>2026-05-02T14:14:18.105Z</time></trkpt><trkpt lat="46.1334442" lon="13.4479814"><ele>446.0</ele><time>2026-05-02T14:14:19.105Z</time></trkpt><trkpt lat="46.1333714" lon="13.4479903"><ele>445.99999999999994</ele><time>2026-05-02T14:14:20.105Z</time></trkpt><trkpt lat="46.1333121" lon="13.4480275"><ele>446.0</ele><time>2026-05-02T14:14:21.105Z</time></trkpt><trkpt lat="46.13321" lon="13.4481495"><ele>446.0</ele><time>2026-05-02T14:14:23.105Z</time></trkpt><trkpt lat="46.1331562" lon="13.4482456"><ele>446.0</ele><time>2026-05-02T14:14:24.106Z</time></trkpt><trkpt lat="46.1330985" lon="13.4483207"><ele>445.99999999999994</ele><time>2026-05-02T14:14:25.106Z</time></trkpt><trkpt lat="46.1330449" lon="13.4483994"><ele>446.0</ele><time>2026-05-02T14:14:26.106Z</time></trkpt><trkpt lat="46.1329914" lon="13.4484793"><ele>448.4</ele><time>2026-05-02T14:14:27.105Z</time></trkpt><trkpt lat="46.1328928" lon="13.4485694"><ele>450.8</ele><time>2026-05-02T14:14:29.105Z</time></trkpt><trkpt lat="46.1327889" lon="13.4485404"><ele>453.19999999999993</ele><time>2026-05-02T14:14:31.105Z</time></trkpt><trkpt lat="46.1326995" lon="13.4484388"><ele>455.59999999999997</ele><time>2026-05-02T14:14:33.105Z</time></trkpt><trkpt lat="46.1326635" lon="13.4483527"><ele>458.0</ele><time>2026-05-02T14:14:34.106Z</time></trkpt><trkpt lat="46.1326174" lon="13.4482545"><ele>458.0</ele><time>2026-05-02T14:14:35.104Z</time></trkpt><trkpt lat="46.1325753" lon="13.4481347"><ele>457.99999999999994</ele><time>2026-05-02T14:14:36.104Z</time></trkpt><trkpt lat="46.132519" lon="13.4480301"><ele>457.99999999999994</ele><time>2026-05-02T14:14:37.104Z</time></trkpt><trkpt lat="46.1324569" lon="13.4479248"><ele>458.0</ele><time>2026-05-02T14:14:38.104Z</time></trkpt><trkpt lat="46.1323891" lon="13.4478232"><ele>458.0</ele><time>2026-05-02T14:14:39.104Z</time></trkpt><trkpt lat="46.1323302" lon="13.447736"><ele>457.2</ele><time>2026-05-02T14:14:40.105Z</time></trkpt><trkpt lat="46.1322652" lon="13.4476621"><ele>456.4</ele><time>2026-05-02T14:14:41.104Z</time></trkpt><trkpt lat="46.1321883" lon="13.4475903"><ele>455.59999999999997</ele><time>2026-05-02T14:14:42.105Z</time></trkpt><trkpt lat="46.1320968" lon="13.4475188"><ele>454.79999999999995</ele><time>2026-05-02T14:14:43.105Z</time></trkpt><trkpt lat="46.1320075" lon="13.4474556"><ele>454.0</ele><time>2026-05-02T14:14:44.105Z</time></trkpt><trkpt lat="46.1319235" lon="13.4473971"><ele>454.00000000000006</ele><time>2026-05-02T14:14:45.105Z</time></trkpt><trkpt lat="46.1318462" lon="13.4473548"><ele>454.0</ele><time>2026-05-02T14:14:46.104Z</time></trkpt><trkpt lat="46.1317793" lon="13.4473202"><ele>454.0</ele><time>2026-05-02T14:14:47.104Z</time></trkpt><trkpt lat="46.1317063" lon="13.4472954"><ele>454.0</ele><time>2026-05-02T14:14:48.104Z</time></trkpt><trkpt lat="46.1316278" lon="13.4472919"><ele>454.00000000000006</ele><time>2026-05-02T14:14:49.104Z</time></trkpt><trkpt lat="46.1315454" lon="13.4473054"><ele>454.0</ele><time>2026-05-02T14:14:50.104Z</time></trkpt><trkpt lat="46.1314683" lon="13.4473339"><ele>454.2</ele><time>2026-05-02T14:14:51.105Z</time></trkpt><trkpt lat="46.1313995" lon="13.4473634"><ele>454.4</ele><time>2026-05-02T14:14:52.104Z</time></trkpt><trkpt lat="46.1313294" lon="13.4474231"><ele>454.6</ele><time>2026-05-02T14:14:53.104Z</time></trkpt><trkpt lat="46.1312688" lon="13.4474843"><ele>454.8</ele><time>2026-05-02T14:14:54.104Z</time></trkpt><trkpt lat="46.1311688" lon="13.4475938"><ele>455.0</ele><time>2026-05-02T14:14:56.105Z</time></trkpt><trkpt lat="46.1310697" lon="13.4476696"><ele>454.99999999999994</ele><time>2026-05-02T14:14:58.104Z</time></trkpt><trkpt lat="46.1309631" lon="13.4476967"><ele>455.0</ele><time>2026-05-02T14:15:00.105Z</time></trkpt><trkpt lat="46.1308995" lon="13.4477103"><ele>455.0</ele><time>2026-05-02T14:15:01.104Z</time></trkpt><trkpt lat="46.1308345" lon="13.447727"><ele>455.0</ele><time>2026-05-02T14:15:02.104Z</time></trkpt><trkpt lat="46.1307666" lon="13.4477462"><ele>454.99999999999994</ele><time>2026-05-02T14:15:03.105Z</time></trkpt><trkpt lat="46.1306979" lon="13.4477553"><ele>455.0</ele><time>2026-05-02T14:15:04.105Z</time></trkpt><trkpt lat="46.1305913" lon="13.447725"><ele>456.4</ele><time>2026-05-02T14:15:06.104Z</time></trkpt><trkpt lat="46.1305253" lon="13.4476086"><ele>457.8</ele><time>2026-05-02T14:15:08.105Z</time></trkpt><trkpt lat="46.1305104" lon="13.4475191"><ele>459.20000000000005</ele><time>2026-05-02T14:15:09.104Z</time></trkpt><trkpt lat="46.1305036" lon="13.4473595"><ele>460.6</ele><time>2026-05-02T14:15:11.104Z</time></trkpt><trkpt lat="46.1305171" lon="13.4471612"><ele>462.0</ele><time>2026-05-02T14:15:13.104Z</time></trkpt><trkpt lat="46.1305273" lon="13.4470485"><ele>462.0</ele><time>2026-05-02T14:15:14.104Z</time></trkpt><trkpt lat="46.1305255" lon="13.4468623"><ele>462.00000000000006</ele><time>2026-05-02T14:15:16.104Z</time></trkpt><trkpt lat="46.1305273" lon="13.4467643"><ele>462.00000000000006</ele><time>2026-05-02T14:15:17.105Z</time></trkpt><trkpt lat="46.1305296" lon="13.4465894"><ele>462.0</ele><time>2026-05-02T14:15:19.105Z</time></trkpt><trkpt lat="46.1305101" lon="13.4464887"><ele>462.0</ele><time>2026-05-02T14:15:20.104Z</time></trkpt><trkpt lat="46.1304439" lon="13.4463423"><ele>458.5</ele><time>2026-05-02T14:15:22.105Z</time></trkpt><trkpt lat="46.1303978" lon="13.4462597"><ele>455.0</ele><time>2026-05-02T14:15:23.104Z</time></trkpt><trkpt lat="46.1303053" lon="13.446143"><ele>451.5</ele><time>2026-05-02T14:15:25.104Z</time></trkpt><trkpt lat="46.1302442" lon="13.4461181"><ele>448.0</ele><time>2026-05-02T14:15:26.104Z</time></trkpt><trkpt lat="46.1301625" lon="13.4461028"><ele>444.5</ele><time>2026-05-02T14:15:27.104Z</time></trkpt><trkpt lat="46.1300908" lon="13.4460767"><ele>441.0</ele><time>2026-05-02T14:15:28.104Z</time></trkpt><trkpt lat="46.129972" lon="13.446026"><ele>441.0</ele><time>2026-05-02T14:15:30.104Z</time></trkpt><trkpt lat="46.1299097" lon="13.4460016"><ele>441.0</ele><time>2026-05-02T14:15:31.104Z</time></trkpt><trkpt lat="46.1298479" lon="13.4459771"><ele>441.0</ele><time>2026-05-02T14:15:32.105Z</time></trkpt><trkpt lat="46.1297855" lon="13.4459612"><ele>441.0</ele><time>2026-05-02T14:15:33.105Z</time></trkpt><trkpt lat="46.1297254" lon="13.4459327"><ele>441.0</ele><time>2026-05-02T14:15:34.105Z</time></trkpt><trkpt lat="46.1296007" lon="13.4459024"><ele>441.0</ele><time>2026-05-02T14:15:36.104Z</time></trkpt><trkpt lat="46.1295322" lon="13.4458914"><ele>440.57142857142856</ele><time>2026-05-02T14:15:37.104Z</time></trkpt><trkpt lat="46.1294643" lon="13.4458835"><ele>440.1428571428571</ele><time>2026-05-02T14:15:38.104Z</time></trkpt><trkpt lat="46.1293918" lon="13.4458819"><ele>439.7142857142857</ele><time>2026-05-02T14:15:39.104Z</time></trkpt><trkpt lat="46.1293231" lon="13.4458885"><ele>439.2857142857143</ele><time>2026-05-02T14:15:40.104Z</time></trkpt><trkpt lat="46.1292516" lon="13.4458765"><ele>438.85714285714283</ele><time>2026-05-02T14:15:41.104Z</time></trkpt><trkpt lat="46.1291825" lon="13.4458686"><ele>438.42857142857144</ele><time>2026-05-02T14:15:42.105Z</time></trkpt><trkpt lat="46.1291121" lon="13.4458485"><ele>438.0</ele><time>2026-05-02T14:15:43.104Z</time></trkpt><trkpt lat="46.1290479" lon="13.4458294"><ele>437.79999999999995</ele><time>2026-05-02T14:15:44.104Z</time></trkpt><trkpt lat="46.1289426" lon="13.4458027"><ele>437.59999999999997</ele><time>2026-05-02T14:15:46.104Z</time></trkpt><trkpt lat="46.1288274" lon="13.4457821"><ele>437.40000000000003</ele><time>2026-05-02T14:15:48.105Z</time></trkpt><trkpt lat="46.1287064" lon="13.4457565"><ele>437.20000000000005</ele><time>2026-05-02T14:15:50.104Z</time></trkpt><trkpt lat="46.1286431" lon="13.4457429"><ele>437.0</ele><time>2026-05-02T14:15:51.104Z</time></trkpt><trkpt lat="46.1285366" lon="13.4457206"><ele>437.0</ele><time>2026-05-02T14:15:53.104Z</time></trkpt><trkpt lat="46.1284367" lon="13.4456895"><ele>437.00000000000006</ele><time>2026-05-02T14:15:55.105Z</time></trkpt><trkpt lat="46.1283422" lon="13.4456811"><ele>437.00000000000006</ele><time>2026-05-02T14:15:57.104Z</time></trkpt><trkpt lat="46.1282346" lon="13.4456638"><ele>437.0</ele><time>2026-05-02T14:15:59.105Z</time></trkpt><trkpt lat="46.1281345" lon="13.4456285"><ele>437.0</ele><time>2026-05-02T14:16:01.104Z</time></trkpt><trkpt lat="46.1280542" lon="13.4455929"><ele>437.0</ele><time>2026-05-02T14:16:03.105Z</time></trkpt><trkpt lat="46.1279559" lon="13.4455543"><ele>437.00000000000006</ele><time>2026-05-02T14:16:05.105Z</time></trkpt><trkpt lat="46.127858" lon="13.4454906"><ele>437.00000000000006</ele><time>2026-05-02T14:16:07.104Z</time></trkpt><trkpt lat="46.1277758" lon="13.4454025"><ele>437.0</ele><time>2026-05-02T14:16:09.105Z</time></trkpt><trkpt lat="46.1276726" lon="13.4453283"><ele>437.0</ele><time>2026-05-02T14:16:11.105Z</time></trkpt><trkpt lat="46.1275616" lon="13.4452743"><ele>432.25</ele><time>2026-05-02T14:16:13.105Z</time></trkpt><trkpt lat="46.1274524" lon="13.4452119"><ele>427.5</ele><time>2026-05-02T14:16:15.104Z</time></trkpt><trkpt lat="46.1273432" lon="13.4451299"><ele>422.75</ele><time>2026-05-02T14:16:17.105Z</time></trkpt><trkpt lat="46.1272617" lon="13.4450454"><ele>418.0</ele><time>2026-05-02T14:16:19.105Z</time></trkpt><trkpt lat="46.1271797" lon="13.4449135"><ele>418.00000000000006</ele><time>2026-05-02T14:16:21.104Z</time></trkpt><trkpt lat="46.1271298" lon="13.4448392"><ele>418.0</ele><time>2026-05-02T14:16:22.104Z</time></trkpt><trkpt lat="46.127061" lon="13.4446898"><ele>418.0</ele><time>2026-05-02T14:16:24.105Z</time></trkpt><trkpt lat="46.1269991" lon="13.4445615"><ele>418.0</ele><time>2026-05-02T14:16:26.104Z</time></trkpt><trkpt lat="46.1269671" lon="13.4444817"><ele>418.00000000000006</ele><time>2026-05-02T14:16:27.105Z</time></trkpt><trkpt lat="46.126935" lon="13.4444005"><ele>418.0</ele><time>2026-05-02T14:16:28.104Z</time></trkpt><trkpt lat="46.126876" lon="13.4442598"><ele>415.59999999999997</ele><time>2026-05-02T14:16:30.104Z</time></trkpt><trkpt lat="46.1268403" lon="13.4441835"><ele>413.2</ele><time>2026-05-02T14:16:31.104Z</time></trkpt><trkpt lat="46.1267476" lon="13.4440594"><ele>410.8</ele><time>2026-05-02T14:16:33.104Z</time></trkpt><trkpt lat="46.1266451" lon="13.4439949"><ele>408.4</ele><time>2026-05-02T14:16:35.105Z</time></trkpt><trkpt lat="46.1265384" lon="13.443932"><ele>406.0</ele><time>2026-05-02T14:16:37.104Z</time></trkpt><trkpt lat="46.1264342" lon="13.44387"><ele>406.0</ele><time>2026-05-02T14:16:39.104Z</time></trkpt><trkpt lat="46.12632" lon="13.4438092"><ele>406.0</ele><time>2026-05-02T14:16:41.104Z</time></trkpt><trkpt lat="46.1262139" lon="13.443741"><ele>406.0</ele><time>2026-05-02T14:16:43.104Z</time></trkpt><trkpt lat="46.1261185" lon="13.4436726"><ele>406.0</ele><time>2026-05-02T14:16:45.104Z</time></trkpt><trkpt lat="46.1260273" lon="13.4435824"><ele>404.20000000000005</ele><time>2026-05-02T14:16:47.104Z</time></trkpt><trkpt lat="46.1259516" lon="13.4434866"><ele>402.40000000000003</ele><time>2026-05-02T14:16:49.105Z</time></trkpt><trkpt lat="46.1258636" lon="13.4433907"><ele>400.6</ele><time>2026-05-02T14:16:51.104Z</time></trkpt><trkpt lat="46.1258093" lon="13.4433423"><ele>398.8</ele><time>2026-05-02T14:16:52.105Z</time></trkpt><trkpt lat="46.1257367" lon="13.4432425"><ele>397.0</ele><time>2026-05-02T14:16:54.104Z</time></trkpt><trkpt lat="46.1256648" lon="13.4431469"><ele>397.00000000000006</ele><time>2026-05-02T14:16:56.105Z</time></trkpt><trkpt lat="46.1256182" lon="13.443003"><ele>397.0</ele><time>2026-05-02T14:16:58.104Z</time></trkpt><trkpt lat="46.1255786" lon="13.4429215"><ele>397.0</ele><time>2026-05-02T14:16:59.104Z</time></trkpt><trkpt lat="46.1255421" lon="13.4428174"><ele>397.0</ele><time>2026-05-02T14:17:00.104Z</time></trkpt><trkpt lat="46.1255128" lon="13.4427296"><ele>397.00000000000006</ele><time>2026-05-02T14:17:01.104Z</time></trkpt><trkpt lat="46.1254895" lon="13.4426347"><ele>397.0</ele><time>2026-05-02T14:17:02.104Z</time></trkpt><trkpt lat="46.1254644" lon="13.4425433"><ele>397.83333333333337</ele><time>2026-05-02T14:17:03.104Z</time></trkpt><trkpt lat="46.1254347" lon="13.4424622"><ele>398.6666666666667</ele><time>2026-05-02T14:17:04.104Z</time></trkpt><trkpt lat="46.1254161" lon="13.4423731"><ele>399.5</ele><time>2026-05-02T14:17:05.104Z</time></trkpt><trkpt lat="46.1253982" lon="13.4422718"><ele>400.33333333333337</ele><time>2026-05-02T14:17:06.104Z</time></trkpt><trkpt lat="46.1253932" lon="13.4421176"><ele>401.1666666666667</ele><time>2026-05-02T14:17:08.104Z</time></trkpt><trkpt lat="46.125399" lon="13.4419678"><ele>402.0</ele><time>2026-05-02T14:17:10.104Z</time></trkpt><trkpt lat="46.1253839" lon="13.4418079"><ele>402.6</ele><time>2026-05-02T14:17:12.105Z</time></trkpt><trkpt lat="46.1253658" lon="13.4416529"><ele>403.20000000000005</ele><time>2026-05-02T14:17:14.104Z</time></trkpt><trkpt lat="46.1253446" lon="13.4414952"><ele>403.8</ele><time>2026-05-02T14:17:16.104Z</time></trkpt><trkpt lat="46.1253321" lon="13.4414042"><ele>404.4</ele><time>2026-05-02T14:17:18.104Z</time></trkpt><trkpt lat="46.1252711" lon="13.441326"><ele>405.0</ele><time>2026-05-02T14:17:29.105Z</time></trkpt><trkpt lat="46.1252391" lon="13.4412053"><ele>402.8</ele><time>2026-05-02T14:17:31.104Z</time></trkpt><trkpt lat="46.1252138" lon="13.4410986"><ele>400.6</ele><time>2026-05-02T14:17:33.104Z</time></trkpt><trkpt lat="46.1252033" lon="13.4409619"><ele>398.4</ele><time>2026-05-02T14:17:35.104Z</time></trkpt><trkpt lat="46.1252423" lon="13.44083"><ele>396.2</ele><time>2026-05-02T14:17:37.105Z</time></trkpt><trkpt lat="46.125274" lon="13.440689"><ele>394.0</ele><time>2026-05-02T14:17:39.104Z</time></trkpt><trkpt lat="46.1252977" lon="13.4405474"><ele>391.79999999999995</ele><time>2026-05-02T14:17:41.105Z</time></trkpt><trkpt lat="46.1253174" lon="13.4404594"><ele>389.59999999999997</ele><time>2026-05-02T14:17:42.104Z</time></trkpt><trkpt lat="46.1253366" lon="13.4403019"><ele>387.4</ele><time>2026-05-02T14:17:44.105Z</time></trkpt><trkpt lat="46.1253455" lon="13.4401661"><ele>385.2</ele><time>2026-05-02T14:17:46.104Z</time></trkpt><trkpt lat="46.1253335" lon="13.4400165"><ele>383.0</ele><time>2026-05-02T14:17:48.105Z</time></trkpt><trkpt lat="46.1253033" lon="13.439873"><ele>383.0</ele><time>2026-05-02T14:17:50.104Z</time></trkpt><trkpt lat="46.1252456" lon="13.4397714"><ele>383.0</ele><time>2026-05-02T14:17:52.105Z</time></trkpt><trkpt lat="46.1251611" lon="13.4396671"><ele>383.0</ele><time>2026-05-02T14:17:54.104Z</time></trkpt><trkpt lat="46.1250853" lon="13.4395707"><ele>383.0</ele><time>2026-05-02T14:17:56.104Z</time></trkpt><trkpt lat="46.1250147" lon="13.4394576"><ele>383.0</ele><time>2026-05-02T14:17:58.105Z</time></trkpt><trkpt lat="46.1249477" lon="13.4393355"><ele>379.4</ele><time>2026-05-02T14:18:00.104Z</time></trkpt><trkpt lat="46.12489" lon="13.4392025"><ele>375.79999999999995</ele><time>2026-05-02T14:18:02.104Z</time></trkpt><trkpt lat="46.1248345" lon="13.4390861"><ele>372.2</ele><time>2026-05-02T14:18:04.104Z</time></trkpt><trkpt lat="46.1247794" lon="13.4389648"><ele>368.6</ele><time>2026-05-02T14:18:06.105Z</time></trkpt><trkpt lat="46.124751" lon="13.4388242"><ele>365.0</ele><time>2026-05-02T14:18:08.105Z</time></trkpt><trkpt lat="46.1247301" lon="13.4387171"><ele>361.0</ele><time>2026-05-02T14:18:10.104Z</time></trkpt><trkpt lat="46.1246553" lon="13.4386195"><ele>357.0</ele><time>2026-05-02T14:18:12.104Z</time></trkpt><trkpt lat="46.1245423" lon="13.4385724"><ele>353.0</ele><time>2026-05-02T14:18:14.104Z</time></trkpt><trkpt lat="46.1244788" lon="13.4385762"><ele>349.0</ele><time>2026-05-02T14:18:15.105Z</time></trkpt><trkpt lat="46.1243743" lon="13.4385884"><ele>345.0</ele><time>2026-05-02T14:18:17.104Z</time></trkpt><trkpt lat="46.1243091" lon="13.4386111"><ele>345.0</ele><time>2026-05-02T14:18:18.105Z</time></trkpt><trkpt lat="46.1242444" lon="13.4386354"><ele>345.0</ele><time>2026-05-02T14:18:19.104Z</time></trkpt><trkpt lat="46.1241285" lon="13.4386965"><ele>345.0</ele><time>2026-05-02T14:18:21.103Z</time></trkpt><trkpt lat="46.124046" lon="13.4387676"><ele>345.0</ele><time>2026-05-02T14:18:23.103Z</time></trkpt><trkpt lat="46.1239818" lon="13.438862"><ele>345.0</ele><time>2026-05-02T14:18:25.103Z</time></trkpt><trkpt lat="46.1239019" lon="13.4389238"><ele>346.6</ele><time>2026-05-02T14:18:27.104Z</time></trkpt><trkpt lat="46.123812" lon="13.4389825"><ele>348.2</ele><time>2026-05-02T14:18:29.103Z</time></trkpt><trkpt lat="46.1237323" lon="13.4390047"><ele>349.79999999999995</ele><time>2026-05-02T14:18:31.104Z</time></trkpt><trkpt lat="46.1236314" lon="13.4390026"><ele>351.4</ele><time>2026-05-02T14:18:33.103Z</time></trkpt><trkpt lat="46.1235336" lon="13.4390084"><ele>353.0</ele><time>2026-05-02T14:18:35.104Z</time></trkpt><trkpt lat="46.1234236" lon="13.4390048"><ele>353.0</ele><time>2026-05-02T14:18:37.104Z</time></trkpt><trkpt lat="46.1233139" lon="13.4389987"><ele>353.0</ele><time>2026-05-02T14:18:39.103Z</time></trkpt><trkpt lat="46.123199" lon="13.4389841"><ele>353.0</ele><time>2026-05-02T14:18:41.103Z</time></trkpt><trkpt lat="46.123136" lon="13.438969"><ele>353.0</ele><time>2026-05-02T14:18:42.103Z</time></trkpt><trkpt lat="46.1230292" lon="13.4389497"><ele>353.0</ele><time>2026-05-02T14:18:44.103Z</time></trkpt><trkpt lat="46.1229289" lon="13.4389432"><ele>353.4</ele><time>2026-05-02T14:18:46.103Z</time></trkpt><trkpt lat="46.1228659" lon="13.4389229"><ele>353.79999999999995</ele><time>2026-05-02T14:18:47.104Z</time></trkpt><trkpt lat="46.1227521" lon="13.4388995"><ele>354.2</ele><time>2026-05-02T14:18:49.103Z</time></trkpt><trkpt lat="46.1226688" lon="13.4388622"><ele>354.6</ele><time>2026-05-02T14:18:51.104Z</time></trkpt><trkpt lat="46.1225869" lon="13.4388482"><ele>355.0</ele><time>2026-05-02T14:18:53.104Z</time></trkpt><trkpt lat="46.1224753" lon="13.4388247"><ele>349.2</ele><time>2026-05-02T14:18:55.103Z</time></trkpt><trkpt lat="46.1223622" lon="13.4387959"><ele>343.4</ele><time>2026-05-02T14:18:57.104Z</time></trkpt><trkpt lat="46.1222588" lon="13.4387787"><ele>337.6</ele><time>2026-05-02T14:18:59.103Z</time></trkpt><trkpt lat="46.1221756" lon="13.4387608"><ele>331.8</ele><time>2026-05-02T14:19:01.103Z</time></trkpt><trkpt lat="46.1220775" lon="13.438718"><ele>326.0</ele><time>2026-05-02T14:19:03.104Z</time></trkpt><trkpt lat="46.121973" lon="13.4387034"><ele>326.0</ele><time>2026-05-02T14:19:05.104Z</time></trkpt><trkpt lat="46.1218584" lon="13.4386953"><ele>326.0</ele><time>2026-05-02T14:19:07.103Z</time></trkpt><trkpt lat="46.1217458" lon="13.4387177"><ele>326.0</ele><time>2026-05-02T14:19:09.103Z</time></trkpt><trkpt lat="46.1216421" lon="13.4387057"><ele>326.0</ele><time>2026-05-02T14:19:11.103Z</time></trkpt><trkpt lat="46.1215544" lon="13.4386318"><ele>326.0</ele><time>2026-05-02T14:19:13.103Z</time></trkpt><trkpt lat="46.1214735" lon="13.4385537"><ele>327.6</ele><time>2026-05-02T14:19:15.103Z</time></trkpt><trkpt lat="46.1213708" lon="13.4385345"><ele>329.20000000000005</ele><time>2026-05-02T14:19:17.104Z</time></trkpt><trkpt lat="46.121266" lon="13.4385409"><ele>330.79999999999995</ele><time>2026-05-02T14:19:19.103Z</time></trkpt><trkpt lat="46.1211606" lon="13.4385241"><ele>332.4</ele><time>2026-05-02T14:19:21.103Z</time></trkpt><trkpt lat="46.1210796" lon="13.438468"><ele>334.0</ele><time>2026-05-02T14:19:23.103Z</time></trkpt><trkpt lat="46.1210347" lon="13.4383527"><ele>334.0</ele><time>2026-05-02T14:19:25.104Z</time></trkpt><trkpt lat="46.1209943" lon="13.4382256"><ele>334.0</ele><time>2026-05-02T14:19:27.103Z</time></trkpt><trkpt lat="46.1209165" lon="13.4381388"><ele>334.0</ele><time>2026-05-02T14:19:29.104Z</time></trkpt><trkpt lat="46.1208191" lon="13.4381071"><ele>334.0</ele><time>2026-05-02T14:19:31.104Z</time></trkpt><trkpt lat="46.120733" lon="13.4380994"><ele>334.0</ele><time>2026-05-02T14:19:33.103Z</time></trkpt><trkpt lat="46.1206521" lon="13.4380798"><ele>334.4</ele><time>2026-05-02T14:19:35.104Z</time></trkpt><trkpt lat="46.120572" lon="13.4380453"><ele>334.79999999999995</ele><time>2026-05-02T14:19:37.103Z</time></trkpt><trkpt lat="46.1205101" lon="13.4379196"><ele>335.20000000000005</ele><time>2026-05-02T14:19:39.103Z</time></trkpt><trkpt lat="46.1205082" lon="13.4377543"><ele>335.6</ele><time>2026-05-02T14:19:41.104Z</time></trkpt><trkpt lat="46.1205134" lon="13.4375807"><ele>336.0</ele><time>2026-05-02T14:19:43.104Z</time></trkpt><trkpt lat="46.1205007" lon="13.4374197"><ele>336.0</ele><time>2026-05-02T14:19:45.103Z</time></trkpt><trkpt lat="46.1204858" lon="13.4372482"><ele>336.0</ele><time>2026-05-02T14:19:47.104Z</time></trkpt><trkpt lat="46.1204633" lon="13.4371596"><ele>336.0</ele><time>2026-05-02T14:19:48.103Z</time></trkpt><trkpt lat="46.1204379" lon="13.4370289"><ele>336.0</ele><time>2026-05-02T14:19:50.103Z</time></trkpt><trkpt lat="46.1203866" lon="13.4368867"><ele>336.0</ele><time>2026-05-02T14:19:52.103Z</time></trkpt><trkpt lat="46.120349" lon="13.4367644"><ele>332.6</ele><time>2026-05-02T14:19:54.103Z</time></trkpt><trkpt lat="46.1203214" lon="13.4366249"><ele>329.20000000000005</ele><time>2026-05-02T14:19:56.103Z</time></trkpt><trkpt lat="46.1203069" lon="13.4364809"><ele>325.79999999999995</ele><time>2026-05-02T14:19:58.104Z</time></trkpt><trkpt lat="46.1202743" lon="13.4363488"><ele>322.4</ele><time>2026-05-02T14:20:00.104Z</time></trkpt><trkpt lat="46.1202348" lon="13.4362446"><ele>319.0</ele><time>2026-05-02T14:20:02.103Z</time></trkpt><trkpt lat="46.1201639" lon="13.4361536"><ele>314.4</ele><time>2026-05-02T14:20:04.103Z</time></trkpt><trkpt lat="46.1200941" lon="13.4360526"><ele>309.79999999999995</ele><time>2026-05-02T14:20:06.104Z</time></trkpt><trkpt lat="46.1200164" lon="13.4359864"><ele>305.20000000000005</ele><time>2026-05-02T14:20:08.103Z</time></trkpt><trkpt lat="46.1199255" lon="13.4359601"><ele>300.6</ele><time>2026-05-02T14:20:10.103Z</time></trkpt><trkpt lat="46.1198068" lon="13.4360015"><ele>296.0</ele><time>2026-05-02T14:20:12.103Z</time></trkpt><trkpt lat="46.1197011" lon="13.4360479"><ele>293.8</ele><time>2026-05-02T14:20:14.103Z</time></trkpt><trkpt lat="46.1195882" lon="13.4360939"><ele>291.6</ele><time>2026-05-02T14:20:16.104Z</time></trkpt><trkpt lat="46.1194809" lon="13.4361528"><ele>289.4</ele><time>2026-05-02T14:20:18.104Z</time></trkpt><trkpt lat="46.1193739" lon="13.4362082"><ele>287.2</ele><time>2026-05-02T14:20:20.104Z</time></trkpt><trkpt lat="46.1192771" lon="13.4362442"><ele>285.0</ele><time>2026-05-02T14:20:22.103Z</time></trkpt><trkpt lat="46.1191781" lon="13.4362771"><ele>286.4</ele><time>2026-05-02T14:20:24.104Z</time></trkpt><trkpt lat="46.1190715" lon="13.4363114"><ele>287.8</ele><time>2026-05-02T14:20:26.103Z</time></trkpt><trkpt lat="46.118977" lon="13.4363571"><ele>289.2</ele><time>2026-05-02T14:20:28.104Z</time></trkpt><trkpt lat="46.1188876" lon="13.4363983"><ele>290.6</ele><time>2026-05-02T14:20:30.103Z</time></trkpt><trkpt lat="46.1188002" lon="13.4364234"><ele>292.0</ele><time>2026-05-02T14:20:32.103Z</time></trkpt><trkpt lat="46.1187164" lon="13.4364588"><ele>292.0</ele><time>2026-05-02T14:20:34.103Z</time></trkpt><trkpt lat="46.1186323" lon="13.4365326"><ele>292.0</ele><time>2026-05-02T14:20:36.104Z</time></trkpt><trkpt lat="46.1185546" lon="13.4365808"><ele>292.0</ele><time>2026-05-02T14:20:38.104Z</time></trkpt><trkpt lat="46.1184813" lon="13.4366197"><ele>292.0</ele><time>2026-05-02T14:20:40.103Z</time></trkpt><trkpt lat="46.1183954" lon="13.4366271"><ele>292.0</ele><time>2026-05-02T14:20:42.104Z</time></trkpt><trkpt lat="46.1182867" lon="13.4365969"><ele>291.8</ele><time>2026-05-02T14:20:44.104Z</time></trkpt><trkpt lat="46.1181996" lon="13.4365604"><ele>291.6</ele><time>2026-05-02T14:20:46.103Z</time></trkpt><trkpt lat="46.1181048" lon="13.4365054"><ele>291.40000000000003</ele><time>2026-05-02T14:20:48.103Z</time></trkpt><trkpt lat="46.1180184" lon="13.4364642"><ele>291.2</ele><time>2026-05-02T14:20:50.104Z</time></trkpt><trkpt lat="46.1179192" lon="13.4364283"><ele>291.0</ele><time>2026-05-02T14:20:52.103Z</time></trkpt><trkpt lat="46.1178177" lon="13.4363603"><ele>291.0</ele><time>2026-05-02T14:20:54.103Z</time></trkpt><trkpt lat="46.1177287" lon="13.4363064"><ele>291.0</ele><time>2026-05-02T14:20:56.104Z</time></trkpt><trkpt lat="46.1176297" lon="13.4362777"><ele>291.0</ele><time>2026-05-02T14:20:58.103Z</time></trkpt><trkpt lat="46.1175662" lon="13.4362784"><ele>291.0</ele><time>2026-05-02T14:20:59.104Z</time></trkpt><trkpt lat="46.1175031" lon="13.4362837"><ele>291.0</ele><time>2026-05-02T14:21:00.103Z</time></trkpt><trkpt lat="46.1173898" lon="13.436264"><ele>291.0</ele><time>2026-05-02T14:21:02.103Z</time></trkpt><trkpt lat="46.1173268" lon="13.4362288"><ele>291.1428571428571</ele><time>2026-05-02T14:21:03.103Z</time></trkpt><trkpt lat="46.1172596" lon="13.436194"><ele>291.2857142857143</ele><time>2026-05-02T14:21:04.103Z</time></trkpt><trkpt lat="46.1172055" lon="13.4361402"><ele>291.42857142857144</ele><time>2026-05-02T14:21:05.103Z</time></trkpt><trkpt lat="46.1171564" lon="13.4360616"><ele>291.57142857142856</ele><time>2026-05-02T14:21:06.103Z</time></trkpt><trkpt lat="46.117111" lon="13.4359624"><ele>291.7142857142857</ele><time>2026-05-02T14:21:07.103Z</time></trkpt><trkpt lat="46.1170711" lon="13.4358757"><ele>291.85714285714283</ele><time>2026-05-02T14:21:08.104Z</time></trkpt><trkpt lat="46.1170277" lon="13.4357936"><ele>292.0</ele><time>2026-05-02T14:21:09.103Z</time></trkpt><trkpt lat="46.1169821" lon="13.4357161"><ele>292.0</ele><time>2026-05-02T14:21:10.104Z</time></trkpt><trkpt lat="46.1169549" lon="13.435632"><ele>292.0</ele><time>2026-05-02T14:21:11.103Z</time></trkpt><trkpt lat="46.1169083" lon="13.4355615"><ele>292.0</ele><time>2026-05-02T14:21:12.103Z</time></trkpt><trkpt lat="46.1168514" lon="13.4354916"><ele>292.0</ele><time>2026-05-02T14:21:13.104Z</time></trkpt><trkpt lat="46.116781" lon="13.4354367"><ele>292.0</ele><time>2026-05-02T14:21:14.104Z</time></trkpt><trkpt lat="46.1167081" lon="13.4353835"><ele>292.0</ele><time>2026-05-02T14:21:15.104Z</time></trkpt><trkpt lat="46.1166361" lon="13.4353313"><ele>292.0</ele><time>2026-05-02T14:21:16.103Z</time></trkpt><trkpt lat="46.1165648" lon="13.4352736"><ele>292.42857142857144</ele><time>2026-05-02T14:21:17.104Z</time></trkpt><trkpt lat="46.1164988" lon="13.4352326"><ele>292.8571428571429</ele><time>2026-05-02T14:21:18.103Z</time></trkpt><trkpt lat="46.1164256" lon="13.4351751"><ele>293.28571428571433</ele><time>2026-05-02T14:21:19.103Z</time></trkpt><trkpt lat="46.1163546" lon="13.4351242"><ele>293.7142857142857</ele><time>2026-05-02T14:21:20.103Z</time></trkpt><trkpt lat="46.1162952" lon="13.4350711"><ele>294.14285714285717</ele><time>2026-05-02T14:21:21.103Z</time></trkpt><trkpt lat="46.1162336" lon="13.4350293"><ele>294.5714285714286</ele><time>2026-05-02T14:21:22.103Z</time></trkpt><trkpt lat="46.1161701" lon="13.4349942"><ele>295.0</ele><time>2026-05-02T14:21:23.104Z</time></trkpt><trkpt lat="46.1161054" lon="13.4349577"><ele>295.0</ele><time>2026-05-02T14:21:24.104Z</time></trkpt><trkpt lat="46.1159942" lon="13.4348881"><ele>295.0</ele><time>2026-05-02T14:21:26.103Z</time></trkpt><trkpt lat="46.1159117" lon="13.4347887"><ele>295.0</ele><time>2026-05-02T14:21:28.103Z</time></trkpt><trkpt lat="46.1158513" lon="13.4346559"><ele>295.0</ele><time>2026-05-02T14:21:30.103Z</time></trkpt><trkpt lat="46.1158214" lon="13.4345586"><ele>295.0</ele><time>2026-05-02T14:21:31.103Z</time></trkpt><trkpt lat="46.1157881" lon="13.4344464"><ele>295.4</ele><time>2026-05-02T14:21:32.103Z</time></trkpt><trkpt lat="46.1157635" lon="13.4343385"><ele>295.8</ele><time>2026-05-02T14:21:33.103Z</time></trkpt><trkpt lat="46.1157392" lon="13.4342153"><ele>296.2</ele><time>2026-05-02T14:21:34.103Z</time></trkpt><trkpt lat="46.1157182" lon="13.4341228"><ele>296.6</ele><time>2026-05-02T14:21:35.103Z</time></trkpt><trkpt lat="46.1156766" lon="13.4339622"><ele>297.0</ele><time>2026-05-02T14:21:37.103Z</time></trkpt><trkpt lat="46.1156354" lon="13.433789"><ele>297.0</ele><time>2026-05-02T14:21:39.103Z</time></trkpt><trkpt lat="46.1156185" lon="13.4337003"><ele>297.0</ele><time>2026-05-02T14:21:40.103Z</time></trkpt><trkpt lat="46.115594" lon="13.4336103"><ele>297.0</ele><time>2026-05-02T14:21:41.104Z</time></trkpt><trkpt lat="46.1155596" lon="13.4334705"><ele>297.0</ele><time>2026-05-02T14:21:43.103Z</time></trkpt><trkpt lat="46.1155102" lon="13.4334068"><ele>297.0</ele><time>2026-05-02T14:21:44.103Z</time></trkpt><trkpt lat="46.1154053" lon="13.4333406"><ele>297.0</ele><time>2026-05-02T14:21:46.104Z</time></trkpt><trkpt lat="46.1153442" lon="13.4333109"><ele>297.0</ele><time>2026-05-02T14:21:47.103Z</time></trkpt><trkpt lat="46.1152726" lon="13.4332934"><ele>297.0</ele><time>2026-05-02T14:21:48.104Z</time></trkpt><trkpt lat="46.1151656" lon="13.4332285"><ele>297.0</ele><time>2026-05-02T14:21:50.104Z</time></trkpt><trkpt lat="46.1151204" lon="13.4331611"><ele>297.0</ele><time>2026-05-02T14:21:51.104Z</time></trkpt><trkpt lat="46.1150577" lon="13.432984"><ele>297.0</ele><time>2026-05-02T14:21:53.103Z</time></trkpt><trkpt lat="46.1150341" lon="13.4328836"><ele>293.2</ele><time>2026-05-02T14:21:54.103Z</time></trkpt><trkpt lat="46.1150135" lon="13.4327058"><ele>289.4</ele><time>2026-05-02T14:21:56.103Z</time></trkpt><trkpt lat="46.1149963" lon="13.4325937"><ele>285.6</ele><time>2026-05-02T14:21:57.103Z</time></trkpt><trkpt lat="46.114986" lon="13.4325019"><ele>281.8</ele><time>2026-05-02T14:21:58.104Z</time></trkpt><trkpt lat="46.114966" lon="13.4323197"><ele>278.0</ele><time>2026-05-02T14:22:00.103Z</time></trkpt><trkpt lat="46.1149222" lon="13.4321836"><ele>280.0</ele><time>2026-05-02T14:22:02.103Z</time></trkpt><trkpt lat="46.1148714" lon="13.4320027"><ele>282.0</ele><time>2026-05-02T14:22:04.104Z</time></trkpt><trkpt lat="46.114837" lon="13.4318417"><ele>284.0</ele><time>2026-05-02T14:22:06.103Z</time></trkpt><trkpt lat="46.1148156" lon="13.4316838"><ele>286.0</ele><time>2026-05-02T14:22:08.104Z</time></trkpt><trkpt lat="46.1148179" lon="13.4315211"><ele>286.0</ele><time>2026-05-02T14:22:10.104Z</time></trkpt><trkpt lat="46.1148609" lon="13.4313618"><ele>286.0</ele><time>2026-05-02T14:22:12.103Z</time></trkpt><trkpt lat="46.1148917" lon="13.4312783"><ele>286.0</ele><time>2026-05-02T14:22:13.104Z</time></trkpt><trkpt lat="46.1149223" lon="13.4311881"><ele>286.0</ele><time>2026-05-02T14:22:14.104Z</time></trkpt><trkpt lat="46.114942" lon="13.4310962"><ele>286.0</ele><time>2026-05-02T14:22:15.103Z</time></trkpt><trkpt lat="46.1149701" lon="13.4309891"><ele>286.0</ele><time>2026-05-02T14:22:16.104Z</time></trkpt><trkpt lat="46.1149777" lon="13.4308801"><ele>282.2</ele><time>2026-05-02T14:22:17.103Z</time></trkpt><trkpt lat="46.114989" lon="13.4307767"><ele>278.40000000000003</ele><time>2026-05-02T14:22:18.104Z</time></trkpt><trkpt lat="46.1149931" lon="13.4306819"><ele>274.6</ele><time>2026-05-02T14:22:19.102Z</time></trkpt><trkpt lat="46.1150061" lon="13.4305314"><ele>270.8</ele><time>2026-05-02T14:22:21.102Z</time></trkpt><trkpt lat="46.1150029" lon="13.430386"><ele>267.0</ele><time>2026-05-02T14:22:23.102Z</time></trkpt><trkpt lat="46.1149413" lon="13.4302568"><ele>264.6</ele><time>2026-05-02T14:22:25.102Z</time></trkpt><trkpt lat="46.1148352" lon="13.430179"><ele>262.2</ele><time>2026-05-02T14:22:27.102Z</time></trkpt><trkpt lat="46.1147687" lon="13.430164"><ele>259.8</ele><time>2026-05-02T14:22:28.103Z</time></trkpt><trkpt lat="46.1146339" lon="13.4301643"><ele>257.4</ele><time>2026-05-02T14:22:30.103Z</time></trkpt><trkpt lat="46.1145611" lon="13.4301738"><ele>255.0</ele><time>2026-05-02T14:22:31.102Z</time></trkpt><trkpt lat="46.1144929" lon="13.4301892"><ele>255.0</ele><time>2026-05-02T14:22:32.103Z</time></trkpt><trkpt lat="46.1144311" lon="13.4302131"><ele>255.0</ele><time>2026-05-02T14:22:33.102Z</time></trkpt><trkpt lat="46.1143253" lon="13.4302845"><ele>255.0</ele><time>2026-05-02T14:22:35.103Z</time></trkpt><trkpt lat="46.1142421" lon="13.4303887"><ele>255.0</ele><time>2026-05-02T14:22:37.103Z</time></trkpt><trkpt lat="46.1142003" lon="13.4304579"><ele>255.0</ele><time>2026-05-02T14:22:38.102Z</time></trkpt><trkpt lat="46.1141246" lon="13.430587"><ele>254.2</ele><time>2026-05-02T14:22:40.103Z</time></trkpt><trkpt lat="46.1140667" lon="13.4307126"><ele>253.4</ele><time>2026-05-02T14:22:42.102Z</time></trkpt><trkpt lat="46.1140128" lon="13.4308355"><ele>252.60000000000002</ele><time>2026-05-02T14:22:44.103Z</time></trkpt><trkpt lat="46.1139412" lon="13.4309445"><ele>251.8</ele><time>2026-05-02T14:22:46.102Z</time></trkpt><trkpt lat="46.1138411" lon="13.4310436"><ele>251.0</ele><time>2026-05-02T14:22:48.102Z</time></trkpt><trkpt lat="46.113781" lon="13.4310838"><ele>251.0</ele><time>2026-05-02T14:22:49.102Z</time></trkpt><trkpt lat="46.1136703" lon="13.431108"><ele>251.00000000000003</ele><time>2026-05-02T14:22:51.102Z</time></trkpt><trkpt lat="46.1135762" lon="13.4311197"><ele>251.00000000000003</ele><time>2026-05-02T14:22:53.102Z</time></trkpt><trkpt lat="46.1134728" lon="13.4311743"><ele>251.0</ele><time>2026-05-02T14:22:55.102Z</time></trkpt><trkpt lat="46.1133874" lon="13.4312268"><ele>251.0</ele><time>2026-05-02T14:22:57.103Z</time></trkpt><trkpt lat="46.1132967" lon="13.4312065"><ele>250.8</ele><time>2026-05-02T14:22:59.102Z</time></trkpt><trkpt lat="46.1131991" lon="13.4311357"><ele>250.60000000000002</ele><time>2026-05-02T14:23:01.102Z</time></trkpt><trkpt lat="46.1131242" lon="13.4310225"><ele>250.4</ele><time>2026-05-02T14:23:03.102Z</time></trkpt><trkpt lat="46.1130446" lon="13.430928"><ele>250.2</ele><time>2026-05-02T14:23:05.102Z</time></trkpt><trkpt lat="46.1129354" lon="13.4308901"><ele>250.0</ele><time>2026-05-02T14:23:07.102Z</time></trkpt><trkpt lat="46.1128122" lon="13.4308876"><ele>250.0</ele><time>2026-05-02T14:23:09.102Z</time></trkpt><trkpt lat="46.1127033" lon="13.4309167"><ele>250.0</ele><time>2026-05-02T14:23:11.102Z</time></trkpt><trkpt lat="46.1125963" lon="13.4309384"><ele>250.0</ele><time>2026-05-02T14:23:13.102Z</time></trkpt><trkpt lat="46.112504" lon="13.4308906"><ele>250.0</ele><time>2026-05-02T14:23:15.102Z</time></trkpt><trkpt lat="46.1124069" lon="13.430806"><ele>250.0</ele><time>2026-05-02T14:23:17.102Z</time></trkpt><trkpt lat="46.1123261" lon="13.4306773"><ele>248.8</ele><time>2026-05-02T14:23:19.102Z</time></trkpt><trkpt lat="46.112288" lon="13.4305449"><ele>247.6</ele><time>2026-05-02T14:23:21.102Z</time></trkpt><trkpt lat="46.1122047" lon="13.4304234"><ele>246.39999999999998</ele><time>2026-05-02T14:23:23.102Z</time></trkpt><trkpt lat="46.1121103" lon="13.430352"><ele>245.2</ele><time>2026-05-02T14:23:25.102Z</time></trkpt><trkpt lat="46.1120183" lon="13.4302882"><ele>244.0</ele><time>2026-05-02T14:23:27.102Z</time></trkpt><trkpt lat="46.1119402" lon="13.4301888"><ele>244.0</ele><time>2026-05-02T14:23:29.102Z</time></trkpt><trkpt lat="46.1118608" lon="13.4300781"><ele>243.99999999999997</ele><time>2026-05-02T14:23:31.102Z</time></trkpt><trkpt lat="46.1117901" lon="13.4299784"><ele>243.99999999999997</ele><time>2026-05-02T14:23:33.102Z</time></trkpt><trkpt lat="46.1117447" lon="13.4299073"><ele>244.0</ele><time>2026-05-02T14:23:34.102Z</time></trkpt><trkpt lat="46.1116989" lon="13.4298164"><ele>244.0</ele><time>2026-05-02T14:23:35.102Z</time></trkpt><trkpt lat="46.1116128" lon="13.4296954"><ele>243.16666666666666</ele><time>2026-05-02T14:23:37.102Z</time></trkpt><trkpt lat="46.1115583" lon="13.4296434"><ele>242.33333333333331</ele><time>2026-05-02T14:23:38.103Z</time></trkpt><trkpt lat="46.1115031" lon="13.429599"><ele>241.5</ele><time>2026-05-02T14:23:39.102Z</time></trkpt><trkpt lat="46.1114453" lon="13.4295504"><ele>240.66666666666669</ele><time>2026-05-02T14:23:40.102Z</time></trkpt><trkpt lat="46.1113855" lon="13.4295035"><ele>239.83333333333334</ele><time>2026-05-02T14:23:41.102Z</time></trkpt><trkpt lat="46.1113254" lon="13.4294576"><ele>239.0</ele><time>2026-05-02T14:23:42.102Z</time></trkpt><trkpt lat="46.1112074" lon="13.4293965"><ele>239.00000000000003</ele><time>2026-05-02T14:23:44.103Z</time></trkpt><trkpt lat="46.1111358" lon="13.4293679"><ele>239.0</ele><time>2026-05-02T14:23:45.102Z</time></trkpt><trkpt lat="46.1110741" lon="13.4293362"><ele>239.0</ele><time>2026-05-02T14:23:46.102Z</time></trkpt><trkpt lat="46.1110155" lon="13.4292937"><ele>239.0</ele><time>2026-05-02T14:23:47.103Z</time></trkpt><trkpt lat="46.1109557" lon="13.4292522"><ele>239.00000000000003</ele><time>2026-05-02T14:23:48.103Z</time></trkpt><trkpt lat="46.1108927" lon="13.4292131"><ele>239.0</ele><time>2026-05-02T14:23:49.103Z</time></trkpt><trkpt lat="46.1107802" lon="13.4291429"><ele>239.0</ele><time>2026-05-02T14:23:51.102Z</time></trkpt><trkpt lat="46.1107194" lon="13.4291101"><ele>238.99999999999997</ele><time>2026-05-02T14:23:52.103Z</time></trkpt><trkpt lat="46.1106292" lon="13.4290161"><ele>238.99999999999997</ele><time>2026-05-02T14:23:54.103Z</time></trkpt><trkpt lat="46.1106186" lon="13.4288516"><ele>239.0</ele><time>2026-05-02T14:23:56.102Z</time></trkpt><trkpt lat="46.1106539" lon="13.4287217"><ele>239.0</ele><time>2026-05-02T14:23:58.102Z</time></trkpt><trkpt lat="46.1107351" lon="13.4285685"><ele>237.39999999999998</ele><time>2026-05-02T14:24:13.102Z</time></trkpt><trkpt lat="46.1108149" lon="13.4285132"><ele>235.79999999999998</ele><time>2026-05-02T14:24:15.103Z</time></trkpt><trkpt lat="46.1108938" lon="13.4284126"><ele>234.20000000000002</ele><time>2026-05-02T14:24:17.102Z</time></trkpt><trkpt lat="46.1109427" lon="13.428262"><ele>232.60000000000002</ele><time>2026-05-02T14:24:19.103Z</time></trkpt><trkpt lat="46.1109253" lon="13.4281221"><ele>231.0</ele><time>2026-05-02T14:24:21.102Z</time></trkpt><trkpt lat="46.1108843" lon="13.4280505"><ele>229.42857142857142</ele><time>2026-05-02T14:24:22.102Z</time></trkpt><trkpt lat="46.110826" lon="13.4279655"><ele>227.85714285714286</ele><time>2026-05-02T14:24:23.103Z</time></trkpt><trkpt lat="46.1107763" lon="13.4278774"><ele>226.28571428571428</ele><time>2026-05-02T14:24:24.102Z</time></trkpt><trkpt lat="46.1107468" lon="13.4277826"><ele>224.71428571428572</ele><time>2026-05-02T14:24:25.102Z</time></trkpt><trkpt lat="46.1107219" lon="13.4276878"><ele>223.14285714285714</ele><time>2026-05-02T14:24:26.102Z</time></trkpt><trkpt lat="46.1106983" lon="13.4275817"><ele>221.57142857142856</ele><time>2026-05-02T14:24:27.102Z</time></trkpt><trkpt lat="46.1106527" lon="13.4275105"><ele>220.0</ele><time>2026-05-02T14:24:28.102Z</time></trkpt><trkpt lat="46.1105921" lon="13.4274703"><ele>220.0</ele><time>2026-05-02T14:24:29.102Z</time></trkpt><trkpt lat="46.1104698" lon="13.427458"><ele>220.0</ele><time>2026-05-02T14:24:31.102Z</time></trkpt><trkpt lat="46.1103876" lon="13.4274658"><ele>220.0</ele><time>2026-05-02T14:24:32.103Z</time></trkpt><trkpt lat="46.1103057" lon="13.4274689"><ele>220.0</ele><time>2026-05-02T14:24:33.102Z</time></trkpt><trkpt lat="46.1102266" lon="13.4274407"><ele>220.0</ele><time>2026-05-02T14:24:34.103Z</time></trkpt><trkpt lat="46.1101399" lon="13.4274048"><ele>220.0</ele><time>2026-05-02T14:24:35.103Z</time></trkpt><trkpt lat="46.110076" lon="13.4273655"><ele>220.0</ele><time>2026-05-02T14:24:36.103Z</time></trkpt><trkpt lat="46.1099901" lon="13.427295"><ele>220.0</ele><time>2026-05-02T14:24:38.103Z</time></trkpt><trkpt lat="46.109903" lon="13.4272694"><ele>220.0</ele><time>2026-05-02T14:24:41.102Z</time></trkpt><trkpt lat="46.1097968" lon="13.4272521"><ele>220.0</ele><time>2026-05-02T14:24:44.102Z</time></trkpt><trkpt lat="46.109694" lon="13.4271631"><ele>220.4</ele><time>2026-05-02T14:24:46.102Z</time></trkpt><trkpt lat="46.1095963" lon="13.4270657"><ele>220.8</ele><time>2026-05-02T14:24:48.102Z</time></trkpt><trkpt lat="46.1095384" lon="13.4269991"><ele>221.2</ele><time>2026-05-02T14:24:50.102Z</time></trkpt><trkpt lat="46.1094743" lon="13.4269474"><ele>221.6</ele><time>2026-05-02T14:25:04.102Z</time></trkpt><trkpt lat="46.1093665" lon="13.4268781"><ele>222.0</ele><time>2026-05-02T14:25:06.102Z</time></trkpt><trkpt lat="46.1093081" lon="13.426824"><ele>222.0</ele><time>2026-05-02T14:25:07.102Z</time></trkpt><trkpt lat="46.1092496" lon="13.4267692"><ele>222.0</ele><time>2026-05-02T14:25:08.102Z</time></trkpt><trkpt lat="46.1091666" lon="13.4266891"><ele>222.0</ele><time>2026-05-02T14:25:10.102Z</time></trkpt><trkpt lat="46.1090929" lon="13.4265907"><ele>222.0</ele><time>2026-05-02T14:25:12.102Z</time></trkpt><trkpt lat="46.1090584" lon="13.426514"><ele>222.0</ele><time>2026-05-02T14:25:13.102Z</time></trkpt><trkpt lat="46.1090243" lon="13.426366"><ele>222.0</ele><time>2026-05-02T14:25:15.103Z</time></trkpt><trkpt lat="46.1090024" lon="13.4262012"><ele>220.6</ele><time>2026-05-02T14:25:17.103Z</time></trkpt><trkpt lat="46.1089918" lon="13.4260449"><ele>219.2</ele><time>2026-05-02T14:25:19.102Z</time></trkpt><trkpt lat="46.1089332" lon="13.425892"><ele>217.8</ele><time>2026-05-02T14:25:21.103Z</time></trkpt><trkpt lat="46.1088254" lon="13.4257907"><ele>216.4</ele><time>2026-05-02T14:25:23.102Z</time></trkpt><trkpt lat="46.1087539" lon="13.4257499"><ele>215.0</ele><time>2026-05-02T14:25:24.103Z</time></trkpt><trkpt lat="46.1086873" lon="13.425698"><ele>215.00000000000003</ele><time>2026-05-02T14:25:25.102Z</time></trkpt><trkpt lat="46.1086215" lon="13.4256523"><ele>215.0</ele><time>2026-05-02T14:25:26.103Z</time></trkpt><trkpt lat="46.1085572" lon="13.4255945"><ele>215.0</ele><time>2026-05-02T14:25:27.102Z</time></trkpt><trkpt lat="46.1085039" lon="13.4255268"><ele>215.0</ele><time>2026-05-02T14:25:28.102Z</time></trkpt><trkpt lat="46.1084406" lon="13.4254728"><ele>215.00000000000003</ele><time>2026-05-02T14:25:29.103Z</time></trkpt><trkpt lat="46.1083117" lon="13.4254296"><ele>215.0</ele><time>2026-05-02T14:25:31.103Z</time></trkpt><trkpt lat="46.1082424" lon="13.4254262"><ele>213.8</ele><time>2026-05-02T14:25:32.102Z</time></trkpt><trkpt lat="46.1081267" lon="13.4253884"><ele>212.6</ele><time>2026-05-02T14:25:34.103Z</time></trkpt><trkpt lat="46.108013" lon="13.425364"><ele>211.39999999999998</ele><time>2026-05-02T14:25:36.102Z</time></trkpt><trkpt lat="46.1079293" lon="13.4253128"><ele>210.2</ele><time>2026-05-02T14:25:38.103Z</time></trkpt><trkpt lat="46.1078623" lon="13.4252173"><ele>209.0</ele><time>2026-05-02T14:25:40.102Z</time></trkpt><trkpt lat="46.1078247" lon="13.4251068"><ele>209.0</ele><time>2026-05-02T14:25:42.102Z</time></trkpt><trkpt lat="46.1077776" lon="13.4249412"><ele>209.0</ele><time>2026-05-02T14:25:44.102Z</time></trkpt><trkpt lat="46.1077555" lon="13.4247812"><ele>209.0</ele><time>2026-05-02T14:25:46.102Z</time></trkpt><trkpt lat="46.1077402" lon="13.4246195"><ele>209.0</ele><time>2026-05-02T14:25:48.103Z</time></trkpt><trkpt lat="46.1076788" lon="13.4244785"><ele>209.6</ele><time>2026-05-02T14:25:50.102Z</time></trkpt><trkpt lat="46.1076089" lon="13.4243388"><ele>210.2</ele><time>2026-05-02T14:25:52.103Z</time></trkpt><trkpt lat="46.1075666" lon="13.4242636"><ele>210.79999999999998</ele><time>2026-05-02T14:25:53.102Z</time></trkpt><trkpt lat="46.1075258" lon="13.4241866"><ele>211.39999999999998</ele><time>2026-05-02T14:25:54.103Z</time></trkpt><trkpt lat="46.1074495" lon="13.4240592"><ele>212.0</ele><time>2026-05-02T14:25:56.102Z</time></trkpt><trkpt lat="46.1073757" lon="13.4240153"><ele>211.00000000000003</ele><time>2026-05-02T14:25:58.102Z</time></trkpt><trkpt lat="46.1072899" lon="13.4240154"><ele>210.0</ele><time>2026-05-02T14:26:00.103Z</time></trkpt><trkpt lat="46.1071853" lon="13.4240664"><ele>209.0</ele><time>2026-05-02T14:26:02.102Z</time></trkpt><trkpt lat="46.1071168" lon="13.424084"><ele>208.0</ele><time>2026-05-02T14:26:03.102Z</time></trkpt><trkpt lat="46.1070373" lon="13.4240981"><ele>207.00000000000003</ele><time>2026-05-02T14:26:04.102Z</time></trkpt><trkpt lat="46.1069455" lon="13.4241073"><ele>206.0</ele><time>2026-05-02T14:26:05.103Z</time></trkpt><trkpt lat="46.1068512" lon="13.4241125"><ele>206.00000000000003</ele><time>2026-05-02T14:26:06.102Z</time></trkpt><trkpt lat="46.1067722" lon="13.4241238"><ele>206.0</ele><time>2026-05-02T14:26:07.102Z</time></trkpt><trkpt lat="46.1066943" lon="13.4241392"><ele>206.0</ele><time>2026-05-02T14:26:08.102Z</time></trkpt><trkpt lat="46.1066083" lon="13.4241646"><ele>206.0</ele><time>2026-05-02T14:26:09.102Z</time></trkpt><trkpt lat="46.1065225" lon="13.424198"><ele>206.00000000000003</ele><time>2026-05-02T14:26:10.103Z</time></trkpt><trkpt lat="46.1064383" lon="13.4242549"><ele>206.0</ele><time>2026-05-02T14:26:11.102Z</time></trkpt><trkpt lat="46.1063713" lon="13.4243353"><ele>207.20000000000002</ele><time>2026-05-02T14:26:12.103Z</time></trkpt><trkpt lat="46.1063002" lon="13.4244154"><ele>208.4</ele><time>2026-05-02T14:26:13.103Z</time></trkpt><trkpt lat="46.1062103" lon="13.42448"><ele>209.6</ele><time>2026-05-02T14:26:14.102Z</time></trkpt><trkpt lat="46.1061049" lon="13.4245277"><ele>210.8</ele><time>2026-05-02T14:26:15.103Z</time></trkpt><trkpt lat="46.1059858" lon="13.4245672"><ele>212.0</ele><time>2026-05-02T14:26:16.103Z</time></trkpt><trkpt lat="46.1058679" lon="13.4246034"><ele>212.0</ele><time>2026-05-02T14:26:17.103Z</time></trkpt><trkpt lat="46.1057594" lon="13.4246515"><ele>212.0</ele><time>2026-05-02T14:26:18.102Z</time></trkpt><trkpt lat="46.1056605" lon="13.4246912"><ele>212.0</ele><time>2026-05-02T14:26:19.102Z</time></trkpt><trkpt lat="46.1055694" lon="13.4247232"><ele>212.0</ele><time>2026-05-02T14:26:20.102Z</time></trkpt><trkpt lat="46.1054767" lon="13.4247315"><ele>212.0</ele><time>2026-05-02T14:26:21.102Z</time></trkpt><trkpt lat="46.1053807" lon="13.424718"><ele>212.2</ele><time>2026-05-02T14:26:22.103Z</time></trkpt><trkpt lat="46.1052796" lon="13.4246858"><ele>212.39999999999998</ele><time>2026-05-02T14:26:23.103Z</time></trkpt><trkpt lat="46.1051854" lon="13.4246581"><ele>212.60000000000002</ele><time>2026-05-02T14:26:24.103Z</time></trkpt><trkpt lat="46.1050904" lon="13.4246384"><ele>212.8</ele><time>2026-05-02T14:26:25.102Z</time></trkpt><trkpt lat="46.104988" lon="13.4246325"><ele>213.0</ele><time>2026-05-02T14:26:26.102Z</time></trkpt><trkpt lat="46.1048754" lon="13.4246408"><ele>209.60000000000002</ele><time>2026-05-02T14:26:27.102Z</time></trkpt><trkpt lat="46.1047566" lon="13.4246407"><ele>206.20000000000002</ele><time>2026-05-02T14:26:28.103Z</time></trkpt><trkpt lat="46.1046504" lon="13.4246241"><ele>202.8</ele><time>2026-05-02T14:26:29.102Z</time></trkpt><trkpt lat="46.1045463" lon="13.4245976"><ele>199.4</ele><time>2026-05-02T14:26:30.102Z</time></trkpt><trkpt lat="46.1044401" lon="13.424558"><ele>196.0</ele><time>2026-05-02T14:26:31.102Z</time></trkpt><trkpt lat="46.1043315" lon="13.4245331"><ele>196.0</ele><time>2026-05-02T14:26:32.101Z</time></trkpt><trkpt lat="46.1042226" lon="13.4245223"><ele>196.0</ele><time>2026-05-02T14:26:33.102Z</time></trkpt><trkpt lat="46.1041179" lon="13.4245153"><ele>196.0</ele><time>2026-05-02T14:26:34.102Z</time></trkpt><trkpt lat="46.104026" lon="13.4244958"><ele>196.0</ele><time>2026-05-02T14:26:35.101Z</time></trkpt><trkpt lat="46.1039378" lon="13.4244661"><ele>196.0</ele><time>2026-05-02T14:26:36.102Z</time></trkpt><trkpt lat="46.1038565" lon="13.4244135"><ele>194.60000000000002</ele><time>2026-05-02T14:26:37.102Z</time></trkpt><trkpt lat="46.103762" lon="13.4243863"><ele>193.2</ele><time>2026-05-02T14:26:38.101Z</time></trkpt><trkpt lat="46.1036694" lon="13.4244002"><ele>191.8</ele><time>2026-05-02T14:26:39.101Z</time></trkpt><trkpt lat="46.1035758" lon="13.4244223"><ele>190.39999999999998</ele><time>2026-05-02T14:26:40.102Z</time></trkpt><trkpt lat="46.1034849" lon="13.4244456"><ele>189.0</ele><time>2026-05-02T14:26:41.101Z</time></trkpt><trkpt lat="46.1034055" lon="13.4244717"><ele>189.0</ele><time>2026-05-02T14:26:42.101Z</time></trkpt><trkpt lat="46.1033387" lon="13.4244479"><ele>189.0</ele><time>2026-05-02T14:26:43.102Z</time></trkpt><trkpt lat="46.103276" lon="13.4244274"><ele>189.0</ele><time>2026-05-02T14:26:44.101Z</time></trkpt><trkpt lat="46.1032066" lon="13.4244347"><ele>189.0</ele><time>2026-05-02T14:26:45.101Z</time></trkpt><trkpt lat="46.1031328" lon="13.4244681"><ele>189.0</ele><time>2026-05-02T14:26:46.101Z</time></trkpt><trkpt lat="46.103043" lon="13.424499"><ele>189.0</ele><time>2026-05-02T14:26:47.101Z</time></trkpt><trkpt lat="46.1029531" lon="13.4245007"><ele>187.6</ele><time>2026-05-02T14:26:48.102Z</time></trkpt><trkpt lat="46.1028645" lon="13.4244534"><ele>186.2</ele><time>2026-05-02T14:26:49.101Z</time></trkpt><trkpt lat="46.1027806" lon="13.4244002"><ele>184.79999999999998</ele><time>2026-05-02T14:26:50.101Z</time></trkpt><trkpt lat="46.1026883" lon="13.424348"><ele>183.39999999999998</ele><time>2026-05-02T14:26:51.102Z</time></trkpt><trkpt lat="46.1025907" lon="13.4243037"><ele>182.0</ele><time>2026-05-02T14:26:52.101Z</time></trkpt><trkpt lat="46.1025052" lon="13.4242642"><ele>182.0</ele><time>2026-05-02T14:26:53.101Z</time></trkpt><trkpt lat="46.1024339" lon="13.4242311"><ele>182.0</ele><time>2026-05-02T14:26:54.101Z</time></trkpt><trkpt lat="46.1023594" lon="13.4242286"><ele>182.0</ele><time>2026-05-02T14:26:55.102Z</time></trkpt><trkpt lat="46.1022807" lon="13.4242441"><ele>182.0</ele><time>2026-05-02T14:26:56.101Z</time></trkpt><trkpt lat="46.1021828" lon="13.4242638"><ele>182.0</ele><time>2026-05-02T14:26:57.101Z</time></trkpt><trkpt lat="46.1020707" lon="13.4242826"><ele>182.0</ele><time>2026-05-02T14:26:58.101Z</time></trkpt><trkpt lat="46.1019676" lon="13.4242544"><ele>180.66666666666666</ele><time>2026-05-02T14:26:59.102Z</time></trkpt><trkpt lat="46.1018959" lon="13.4242055"><ele>179.33333333333331</ele><time>2026-05-02T14:27:00.101Z</time></trkpt><trkpt lat="46.1018654" lon="13.4240925"><ele>178.0</ele><time>2026-05-02T14:27:03.102Z</time></trkpt><trkpt lat="46.1018115" lon="13.4240428"><ele>176.66666666666666</ele><time>2026-05-02T14:27:04.101Z</time></trkpt><trkpt lat="46.1017296" lon="13.4240204"><ele>175.33333333333334</ele><time>2026-05-02T14:27:05.101Z</time></trkpt><trkpt lat="46.101643" lon="13.4239937"><ele>174.0</ele><time>2026-05-02T14:27:06.102Z</time></trkpt><trkpt lat="46.1015535" lon="13.4239515"><ele>172.79999999999998</ele><time>2026-05-02T14:27:07.102Z</time></trkpt><trkpt lat="46.1014614" lon="13.4238761"><ele>171.6</ele><time>2026-05-02T14:27:08.101Z</time></trkpt><trkpt lat="46.1013828" lon="13.42376"><ele>170.4</ele><time>2026-05-02T14:27:09.101Z</time></trkpt><trkpt lat="46.1013027" lon="13.4236545"><ele>169.2</ele><time>2026-05-02T14:27:10.101Z</time></trkpt><trkpt lat="46.1012237" lon="13.4235517"><ele>168.0</ele><time>2026-05-02T14:27:11.101Z</time></trkpt><trkpt lat="46.1011472" lon="13.4234662"><ele>168.0</ele><time>2026-05-02T14:27:12.102Z</time></trkpt><trkpt lat="46.1010628" lon="13.4234033"><ele>168.0</ele><time>2026-05-02T14:27:13.101Z</time></trkpt><trkpt lat="46.100971" lon="13.4233734"><ele>168.0</ele><time>2026-05-02T14:27:14.101Z</time></trkpt><trkpt lat="46.1008733" lon="13.4233577"><ele>168.0</ele><time>2026-05-02T14:27:15.102Z</time></trkpt><trkpt lat="46.1007771" lon="13.4233884"><ele>168.0</ele><time>2026-05-02T14:27:16.101Z</time></trkpt><trkpt lat="46.1006895" lon="13.4234521"><ele>164.8</ele><time>2026-05-02T14:27:17.101Z</time></trkpt><trkpt lat="46.1006176" lon="13.4235339"><ele>161.60000000000002</ele><time>2026-05-02T14:27:18.101Z</time></trkpt><trkpt lat="46.1005581" lon="13.4236367"><ele>158.39999999999998</ele><time>2026-05-02T14:27:19.101Z</time></trkpt><trkpt lat="46.1005022" lon="13.4237442"><ele>155.2</ele><time>2026-05-02T14:27:20.101Z</time></trkpt><trkpt lat="46.1004514" lon="13.4238443"><ele>152.0</ele><time>2026-05-02T14:27:21.101Z</time></trkpt><trkpt lat="46.1003936" lon="13.4239479"><ele>152.0</ele><time>2026-05-02T14:27:22.101Z</time></trkpt><trkpt lat="46.1003348" lon="13.4240682"><ele>152.0</ele><time>2026-05-02T14:27:23.101Z</time></trkpt><trkpt lat="46.1002755" lon="13.424182"><ele>152.0</ele><time>2026-05-02T14:27:24.101Z</time></trkpt><trkpt lat="46.1002271" lon="13.4243063"><ele>152.0</ele><time>2026-05-02T14:27:25.101Z</time></trkpt><trkpt lat="46.1001865" lon="13.424453"><ele>152.0</ele><time>2026-05-02T14:27:26.101Z</time></trkpt><trkpt lat="46.1001639" lon="13.4246056"><ele>151.4</ele><time>2026-05-02T14:27:27.101Z</time></trkpt><trkpt lat="46.1001445" lon="13.4247621"><ele>150.79999999999998</ele><time>2026-05-02T14:27:28.101Z</time></trkpt><trkpt lat="46.10013" lon="13.4249101"><ele>150.2</ele><time>2026-05-02T14:27:29.102Z</time></trkpt><trkpt lat="46.1001084" lon="13.4250556"><ele>149.6</ele><time>2026-05-02T14:27:30.101Z</time></trkpt><trkpt lat="46.1000919" lon="13.425199"><ele>149.0</ele><time>2026-05-02T14:27:31.101Z</time></trkpt><trkpt lat="46.1000872" lon="13.4253351"><ele>148.6</ele><time>2026-05-02T14:27:32.101Z</time></trkpt><trkpt lat="46.1000916" lon="13.4254899"><ele>148.2</ele><time>2026-05-02T14:27:33.101Z</time></trkpt><trkpt lat="46.1001152" lon="13.4256412"><ele>147.79999999999998</ele><time>2026-05-02T14:27:34.101Z</time></trkpt><trkpt lat="46.1001339" lon="13.4257924"><ele>147.4</ele><time>2026-05-02T14:27:35.101Z</time></trkpt><trkpt lat="46.10015" lon="13.4259414"><ele>147.0</ele><time>2026-05-02T14:27:36.102Z</time></trkpt><trkpt lat="46.1001457" lon="13.4260957"><ele>147.0</ele><time>2026-05-02T14:27:37.101Z</time></trkpt><trkpt lat="46.1001234" lon="13.426241"><ele>147.0</ele><time>2026-05-02T14:27:38.101Z</time></trkpt><trkpt lat="46.100075" lon="13.4263754"><ele>147.0</ele><time>2026-05-02T14:27:39.102Z</time></trkpt><trkpt lat="46.1000096" lon="13.4265101"><ele>147.0</ele><time>2026-05-02T14:27:40.101Z</time></trkpt><trkpt lat="46.0999275" lon="13.4266148"><ele>147.0</ele><time>2026-05-02T14:27:41.101Z</time></trkpt><trkpt lat="46.0998484" lon="13.4267345"><ele>144.79999999999998</ele><time>2026-05-02T14:27:42.102Z</time></trkpt><trkpt lat="46.0997837" lon="13.4268437"><ele>142.6</ele><time>2026-05-02T14:27:43.101Z</time></trkpt><trkpt lat="46.099723" lon="13.4269476"><ele>140.39999999999998</ele><time>2026-05-02T14:27:44.101Z</time></trkpt><trkpt lat="46.0996512" lon="13.4270342"><ele>138.2</ele><time>2026-05-02T14:27:45.102Z</time></trkpt><trkpt lat="46.0995669" lon="13.4270829"><ele>136.0</ele><time>2026-05-02T14:27:46.102Z</time></trkpt><trkpt lat="46.0994781" lon="13.4271025"><ele>136.0</ele><time>2026-05-02T14:27:47.101Z</time></trkpt><trkpt lat="46.0993914" lon="13.4271161"><ele>136.0</ele><time>2026-05-02T14:27:48.101Z</time></trkpt><trkpt lat="46.0992983" lon="13.4271173"><ele>136.0</ele><time>2026-05-02T14:27:49.101Z</time></trkpt><trkpt lat="46.0991978" lon="13.4270935"><ele>136.0</ele><time>2026-05-02T14:27:50.102Z</time></trkpt><trkpt lat="46.0990857" lon="13.4270605"><ele>136.0</ele><time>2026-05-02T14:27:51.101Z</time></trkpt><trkpt lat="46.0989743" lon="13.4270263"><ele>135.75</ele><time>2026-05-02T14:27:52.101Z</time></trkpt><trkpt lat="46.0988629" lon="13.4269952"><ele>135.5</ele><time>2026-05-02T14:27:53.101Z</time></trkpt><trkpt lat="46.0987461" lon="13.4269507"><ele>135.25</ele><time>2026-05-02T14:27:54.102Z</time></trkpt><trkpt lat="46.0986253" lon="13.4269134"><ele>135.0</ele><time>2026-05-02T14:27:55.101Z</time></trkpt><trkpt lat="46.098506" lon="13.4268632"><ele>135.0</ele><time>2026-05-02T14:27:56.101Z</time></trkpt><trkpt lat="46.0983969" lon="13.4268065"><ele>135.0</ele><time>2026-05-02T14:27:57.102Z</time></trkpt><trkpt lat="46.098291" lon="13.4267482"><ele>135.0</ele><time>2026-05-02T14:27:58.101Z</time></trkpt><trkpt lat="46.0981833" lon="13.4266894"><ele>135.0</ele><time>2026-05-02T14:27:59.101Z</time></trkpt><trkpt lat="46.0980765" lon="13.4266161"><ele>135.16666666666666</ele><time>2026-05-02T14:28:00.102Z</time></trkpt><trkpt lat="46.0979763" lon="13.4265441"><ele>135.33333333333334</ele><time>2026-05-02T14:28:01.101Z</time></trkpt><trkpt lat="46.0978907" lon="13.4264801"><ele>135.5</ele><time>2026-05-02T14:28:02.101Z</time></trkpt><trkpt lat="46.0978141" lon="13.4264264"><ele>135.66666666666669</ele><time>2026-05-02T14:28:03.102Z</time></trkpt><trkpt lat="46.0977549" lon="13.4263798"><ele>135.83333333333334</ele><time>2026-05-02T14:28:04.101Z</time></trkpt><trkpt lat="46.0976834" lon="13.4263125"><ele>136.0</ele><time>2026-05-02T14:28:06.101Z</time></trkpt><trkpt lat="46.0975815" lon="13.4263663"><ele>136.0</ele><time>2026-05-02T14:28:13.101Z</time></trkpt><trkpt lat="46.0975147" lon="13.426457"><ele>136.0</ele><time>2026-05-02T14:28:15.101Z</time></trkpt><trkpt lat="46.0974215" lon="13.4265162"><ele>136.0</ele><time>2026-05-02T14:28:17.102Z</time></trkpt><trkpt lat="46.0973497" lon="13.426547"><ele>136.0</ele><time>2026-05-02T14:28:18.101Z</time></trkpt><trkpt lat="46.0972674" lon="13.4265806"><ele>136.0</ele><time>2026-05-02T14:28:19.101Z</time></trkpt><trkpt lat="46.0971807" lon="13.4266166"><ele>136.0</ele><time>2026-05-02T14:28:20.102Z</time></trkpt><trkpt lat="46.0970838" lon="13.4266585"><ele>135.8</ele><time>2026-05-02T14:28:21.102Z</time></trkpt><trkpt lat="46.0969816" lon="13.4267025"><ele>135.6</ele><time>2026-05-02T14:28:22.101Z</time></trkpt><trkpt lat="46.0968723" lon="13.4267393"><ele>135.4</ele><time>2026-05-02T14:28:23.101Z</time></trkpt><trkpt lat="46.0967636" lon="13.4267827"><ele>135.2</ele><time>2026-05-02T14:28:24.102Z</time></trkpt><trkpt lat="46.0966602" lon="13.4268238"><ele>135.0</ele><time>2026-05-02T14:28:25.101Z</time></trkpt><trkpt lat="46.096565" lon="13.4268607"><ele>134.8</ele><time>2026-05-02T14:28:26.101Z</time></trkpt><trkpt lat="46.0964674" lon="13.4269045"><ele>134.6</ele><time>2026-05-02T14:28:27.101Z</time></trkpt><trkpt lat="46.0963702" lon="13.4269539"><ele>134.4</ele><time>2026-05-02T14:28:28.102Z</time></trkpt><trkpt lat="46.0962744" lon="13.4270097"><ele>134.2</ele><time>2026-05-02T14:28:29.101Z</time></trkpt><trkpt lat="46.0962049" lon="13.4270517"><ele>134.0</ele><time>2026-05-02T14:28:30.101Z</time></trkpt><trkpt lat="46.0961401" lon="13.4270829"><ele>134.0</ele><time>2026-05-02T14:28:32.101Z</time></trkpt><trkpt lat="46.0960542" lon="13.4271369"><ele>134.0</ele><time>2026-05-02T14:28:36.102Z</time></trkpt><trkpt lat="46.0959863" lon="13.4271162"><ele>134.0</ele><time>2026-05-02T14:28:38.101Z</time></trkpt><trkpt lat="46.0959043" lon="13.4270828"><ele>134.0</ele><time>2026-05-02T14:28:43.101Z</time></trkpt><trkpt lat="46.0958414" lon="13.4269893"><ele>134.0</ele><time>2026-05-02T14:28:45.102Z</time></trkpt><trkpt lat="46.0958019" lon="13.4269142"><ele>134.0</ele><time>2026-05-02T14:28:46.102Z</time></trkpt><trkpt lat="46.0957754" lon="13.426817"><ele>134.0</ele><time>2026-05-02T14:28:47.101Z</time></trkpt><trkpt lat="46.0957597" lon="13.4267002"><ele>134.0</ele><time>2026-05-02T14:28:48.101Z</time></trkpt><trkpt lat="46.0957597" lon="13.4265758"><ele>134.0</ele><time>2026-05-02T14:28:49.102Z</time></trkpt><trkpt lat="46.0957585" lon="13.4264431"><ele>134.0</ele><time>2026-05-02T14:28:50.101Z</time></trkpt><trkpt lat="46.0957613" lon="13.4262927"><ele>134.0</ele><time>2026-05-02T14:28:51.101Z</time></trkpt><trkpt lat="46.095763" lon="13.4261229"><ele>134.0</ele><time>2026-05-02T14:28:52.102Z</time></trkpt><trkpt lat="46.0957625" lon="13.4259551"><ele>134.0</ele><time>2026-05-02T14:28:53.101Z</time></trkpt><trkpt lat="46.0957625" lon="13.4257912"><ele>134.0</ele><time>2026-05-02T14:28:54.101Z</time></trkpt><trkpt lat="46.0957611" lon="13.4256475"><ele>134.0</ele><time>2026-05-02T14:28:55.101Z</time></trkpt><trkpt lat="46.0957609" lon="13.4255069"><ele>134.0</ele><time>2026-05-02T14:28:56.101Z</time></trkpt><trkpt lat="46.0957589" lon="13.4253818"><ele>134.0</ele><time>2026-05-02T14:28:57.101Z</time></trkpt><trkpt lat="46.0957607" lon="13.4252629"><ele>134.0</ele><time>2026-05-02T14:28:58.102Z</time></trkpt><trkpt lat="46.0957662" lon="13.4251537"><ele>134.0</ele><time>2026-05-02T14:28:59.102Z</time></trkpt><trkpt lat="46.0957716" lon="13.4250569"><ele>134.0</ele><time>2026-05-02T14:29:00.101Z</time></trkpt><trkpt lat="46.0957849" lon="13.4249129"><ele>134.0</ele><time>2026-05-02T14:29:02.101Z</time></trkpt><trkpt lat="46.0958074" lon="13.4247909"><ele>134.0</ele><time>2026-05-02T14:29:08.102Z</time></trkpt><trkpt lat="46.0958812" lon="13.4246372"><ele>133.66666666666666</ele><time>2026-05-02T14:29:10.102Z</time></trkpt><trkpt lat="46.0959368" lon="13.4245647"><ele>133.33333333333331</ele><time>2026-05-02T14:29:11.101Z</time></trkpt><trkpt lat="46.095941" lon="13.4243927"><ele>133.0</ele><time>2026-05-02T14:29:13.101Z</time></trkpt><trkpt lat="46.0958997" lon="13.424306"><ele>132.66666666666666</ele><time>2026-05-02T14:29:14.101Z</time></trkpt><trkpt lat="46.0958407" lon="13.424242"><ele>132.33333333333334</ele><time>2026-05-02T14:29:15.101Z</time></trkpt><trkpt lat="46.0957778" lon="13.4242075"><ele>132.0</ele><time>2026-05-02T14:29:16.101Z</time></trkpt><trkpt lat="46.095709" lon="13.4242402"><ele>132.0</ele><time>2026-05-02T14:29:17.101Z</time></trkpt><trkpt lat="46.0956351" lon="13.424271"><ele>132.0</ele><time>2026-05-02T14:29:18.101Z</time></trkpt><trkpt lat="46.0955501" lon="13.4243027"><ele>132.0</ele><time>2026-05-02T14:29:19.101Z</time></trkpt><trkpt lat="46.0954505" lon="13.4243215"><ele>132.0</ele><time>2026-05-02T14:29:20.101Z</time></trkpt><trkpt lat="46.0953466" lon="13.4243375"><ele>132.0</ele><time>2026-05-02T14:29:21.101Z</time></trkpt><trkpt lat="46.0952365" lon="13.4243519"><ele>132.0</ele><time>2026-05-02T14:29:22.101Z</time></trkpt><trkpt lat="46.0951222" lon="13.4243598"><ele>132.0</ele><time>2026-05-02T14:29:23.101Z</time></trkpt><trkpt lat="46.0950181" lon="13.424352"><ele>132.0</ele><time>2026-05-02T14:29:24.102Z</time></trkpt><trkpt lat="46.0949214" lon="13.4243363"><ele>132.0</ele><time>2026-05-02T14:29:25.102Z</time></trkpt><trkpt lat="46.0948185" lon="13.4243349"><ele>132.0</ele><time>2026-05-02T14:29:26.102Z</time></trkpt><trkpt lat="46.0947003" lon="13.4243594"><ele>132.25</ele><time>2026-05-02T14:29:27.101Z</time></trkpt><trkpt lat="46.0945685" lon="13.4243902"><ele>132.5</ele><time>2026-05-02T14:29:28.101Z</time></trkpt><trkpt lat="46.0944159" lon="13.4244213"><ele>132.75</ele><time>2026-05-02T14:29:29.101Z</time></trkpt><trkpt lat="46.0942668" lon="13.4244414"><ele>133.0</ele><time>2026-05-02T14:29:30.101Z</time></trkpt><trkpt lat="46.094118" lon="13.4244648"><ele>133.0</ele><time>2026-05-02T14:29:31.101Z</time></trkpt><trkpt lat="46.0939669" lon="13.4244883"><ele>133.0</ele><time>2026-05-02T14:29:32.101Z</time></trkpt><trkpt lat="46.0938136" lon="13.4245037"><ele>133.0</ele><time>2026-05-02T14:29:33.102Z</time></trkpt><trkpt lat="46.0936571" lon="13.4245059"><ele>133.0</ele><time>2026-05-02T14:29:34.102Z</time></trkpt><trkpt lat="46.0934978" lon="13.4245213"><ele>133.0</ele><time>2026-05-02T14:29:35.101Z</time></trkpt><trkpt lat="46.0933552" lon="13.4245242"><ele>133.0</ele><time>2026-05-02T14:29:36.102Z</time></trkpt><trkpt lat="46.0932139" lon="13.4245373"><ele>133.0</ele><time>2026-05-02T14:29:37.101Z</time></trkpt><trkpt lat="46.0930821" lon="13.4245548"><ele>133.5</ele><time>2026-05-02T14:29:38.101Z</time></trkpt><trkpt lat="46.0929493" lon="13.4245576"><ele>134.0</ele><time>2026-05-02T14:29:39.102Z</time></trkpt><trkpt lat="46.0928236" lon="13.4245555"><ele>134.5</ele><time>2026-05-02T14:29:40.101Z</time></trkpt><trkpt lat="46.0927118" lon="13.4245645"><ele>135.0</ele><time>2026-05-02T14:29:41.101Z</time></trkpt><trkpt lat="46.0926122" lon="13.4245886"><ele>135.0</ele><time>2026-05-02T14:29:42.101Z</time></trkpt><trkpt lat="46.0925204" lon="13.4246499"><ele>135.0</ele><time>2026-05-02T14:29:43.101Z</time></trkpt><trkpt lat="46.0924344" lon="13.4247448"><ele>135.0</ele><time>2026-05-02T14:29:44.101Z</time></trkpt><trkpt lat="46.0923556" lon="13.4248647"><ele>135.0</ele><time>2026-05-02T14:29:45.101Z</time></trkpt><trkpt lat="46.0922646" lon="13.4249828"><ele>135.0</ele><time>2026-05-02T14:29:46.102Z</time></trkpt><trkpt lat="46.0921552" lon="13.4250938"><ele>135.33333333333334</ele><time>2026-05-02T14:29:47.101Z</time></trkpt><trkpt lat="46.0920192" lon="13.4251742"><ele>135.66666666666669</ele><time>2026-05-02T14:29:48.102Z</time></trkpt><trkpt lat="46.091871" lon="13.425254"><ele>136.0</ele><time>2026-05-02T14:29:49.101Z</time></trkpt><trkpt lat="46.0917213" lon="13.4253433"><ele>134.66666666666669</ele><time>2026-05-02T14:29:50.101Z</time></trkpt><trkpt lat="46.0915706" lon="13.4254359"><ele>133.33333333333334</ele><time>2026-05-02T14:29:51.101Z</time></trkpt><trkpt lat="46.0914232" lon="13.4255223"><ele>132.0</ele><time>2026-05-02T14:29:52.101Z</time></trkpt><trkpt lat="46.0912784" lon="13.4256038"><ele>132.0</ele><time>2026-05-02T14:29:53.101Z</time></trkpt><trkpt lat="46.0911417" lon="13.4256833"><ele>132.0</ele><time>2026-05-02T14:29:54.101Z</time></trkpt><trkpt lat="46.0910058" lon="13.4257613"><ele>132.0</ele><time>2026-05-02T14:29:55.101Z</time></trkpt><trkpt lat="46.0908645" lon="13.425836"><ele>132.0</ele><time>2026-05-02T14:29:56.101Z</time></trkpt><trkpt lat="46.0907183" lon="13.4259037"><ele>129.33333333333334</ele><time>2026-05-02T14:29:57.101Z</time></trkpt><trkpt lat="46.0905602" lon="13.4259684"><ele>126.66666666666667</ele><time>2026-05-02T14:29:58.101Z</time></trkpt><trkpt lat="46.0903947" lon="13.4260224"><ele>124.0</ele><time>2026-05-02T14:29:59.101Z</time></trkpt><trkpt lat="46.0902269" lon="13.4260732"><ele>124.0</ele><time>2026-05-02T14:30:00.101Z</time></trkpt><trkpt lat="46.0900597" lon="13.4261248"><ele>124.0</ele><time>2026-05-02T14:30:01.101Z</time></trkpt><trkpt lat="46.089901" lon="13.4261654"><ele>124.0</ele><time>2026-05-02T14:30:02.101Z</time></trkpt><trkpt lat="46.0897432" lon="13.426211"><ele>124.33333333333334</ele><time>2026-05-02T14:30:03.101Z</time></trkpt><trkpt lat="46.0895827" lon="13.4262552"><ele>124.66666666666666</ele><time>2026-05-02T14:30:04.101Z</time></trkpt><trkpt lat="46.0894169" lon="13.4262956"><ele>125.0</ele><time>2026-05-02T14:30:05.102Z</time></trkpt><trkpt lat="46.0892498" lon="13.4263317"><ele>125.0</ele><time>2026-05-02T14:30:06.102Z</time></trkpt><trkpt lat="46.0890772" lon="13.4263667"><ele>125.0</ele><time>2026-05-02T14:30:07.101Z</time></trkpt><trkpt lat="46.0889009" lon="13.4263944"><ele>125.0</ele><time>2026-05-02T14:30:08.101Z</time></trkpt><trkpt lat="46.0887236" lon="13.4264151"><ele>125.0</ele><time>2026-05-02T14:30:09.101Z</time></trkpt><trkpt lat="46.0885484" lon="13.4264368"><ele>125.0</ele><time>2026-05-02T14:30:10.101Z</time></trkpt><trkpt lat="46.0883771" lon="13.42648"><ele>125.0</ele><time>2026-05-02T14:30:11.101Z</time></trkpt><trkpt lat="46.0882147" lon="13.4265518"><ele>125.33333333333333</ele><time>2026-05-02T14:30:12.101Z</time></trkpt><trkpt lat="46.0880552" lon="13.4266553"><ele>125.66666666666666</ele><time>2026-05-02T14:30:13.101Z</time></trkpt><trkpt lat="46.0879139" lon="13.4267908"><ele>126.0</ele><time>2026-05-02T14:30:14.101Z</time></trkpt><trkpt lat="46.0877899" lon="13.4269476"><ele>126.0</ele><time>2026-05-02T14:30:15.101Z</time></trkpt><trkpt lat="46.0876887" lon="13.4271159"><ele>126.0</ele><time>2026-05-02T14:30:16.101Z</time></trkpt><trkpt lat="46.0876061" lon="13.4272879"><ele>126.0</ele><time>2026-05-02T14:30:17.101Z</time></trkpt><trkpt lat="46.0875342" lon="13.427459"><ele>126.0</ele><time>2026-05-02T14:30:18.101Z</time></trkpt><trkpt lat="46.0874726" lon="13.4276243"><ele>127.4</ele><time>2026-05-02T14:30:19.102Z</time></trkpt><trkpt lat="46.0874129" lon="13.4277741"><ele>128.8</ele><time>2026-05-02T14:30:20.102Z</time></trkpt><trkpt lat="46.0873659" lon="13.4279092"><ele>130.20000000000002</ele><time>2026-05-02T14:30:21.102Z</time></trkpt><trkpt lat="46.0873137" lon="13.4280127"><ele>131.6</ele><time>2026-05-02T14:30:22.101Z</time></trkpt><trkpt lat="46.0872594" lon="13.4281051"><ele>133.0</ele><time>2026-05-02T14:30:23.102Z</time></trkpt><trkpt lat="46.0872062" lon="13.4281805"><ele>133.0</ele><time>2026-05-02T14:30:24.101Z</time></trkpt><trkpt lat="46.0871584" lon="13.4282452"><ele>133.0</ele><time>2026-05-02T14:30:25.101Z</time></trkpt><trkpt lat="46.0871249" lon="13.4284076"><ele>133.0</ele><time>2026-05-02T14:30:27.101Z</time></trkpt><trkpt lat="46.087151" lon="13.4284964"><ele>133.0</ele><time>2026-05-02T14:30:28.101Z</time></trkpt><trkpt lat="46.0872132" lon="13.4285785"><ele>133.0</ele><time>2026-05-02T14:30:29.101Z</time></trkpt><trkpt lat="46.0873045" lon="13.4286679"><ele>133.0</ele><time>2026-05-02T14:30:30.101Z</time></trkpt><trkpt lat="46.0873972" lon="13.4287844"><ele>132.75</ele><time>2026-05-02T14:30:31.101Z</time></trkpt><trkpt lat="46.0874872" lon="13.4289026"><ele>132.5</ele><time>2026-05-02T14:30:32.101Z</time></trkpt><trkpt lat="46.0875723" lon="13.4290196"><ele>132.25</ele><time>2026-05-02T14:30:33.101Z</time></trkpt><trkpt lat="46.0876599" lon="13.4291401"><ele>132.0</ele><time>2026-05-02T14:30:34.101Z</time></trkpt><trkpt lat="46.08775" lon="13.4292706"><ele>132.0</ele><time>2026-05-02T14:30:35.102Z</time></trkpt><trkpt lat="46.0878469" lon="13.4294149"><ele>132.0</ele><time>2026-05-02T14:30:36.1Z</time></trkpt><trkpt lat="46.0879334" lon="13.4295884"><ele>132.0</ele><time>2026-05-02T14:30:37.1Z</time></trkpt><trkpt lat="46.0880168" lon="13.4297672"><ele>132.0</ele><time>2026-05-02T14:30:38.101Z</time></trkpt><trkpt lat="46.0881021" lon="13.4299445"><ele>132.0</ele><time>2026-05-02T14:30:39.101Z</time></trkpt><trkpt lat="46.0881748" lon="13.430122"><ele>132.0</ele><time>2026-05-02T14:30:40.1Z</time></trkpt><trkpt lat="46.0882525" lon="13.4303073"><ele>132.0</ele><time>2026-05-02T14:30:41.101Z</time></trkpt><trkpt lat="46.0883261" lon="13.4305058"><ele>132.0</ele><time>2026-05-02T14:30:42.1Z</time></trkpt><trkpt lat="46.0884102" lon="13.4307"><ele>132.66666666666666</ele><time>2026-05-02T14:30:43.101Z</time></trkpt><trkpt lat="46.0885009" lon="13.430896"><ele>133.33333333333331</ele><time>2026-05-02T14:30:44.101Z</time></trkpt><trkpt lat="46.088584" lon="13.4310948"><ele>134.0</ele><time>2026-05-02T14:30:45.1Z</time></trkpt><trkpt lat="46.0886646" lon="13.4312925"><ele>134.33333333333331</ele><time>2026-05-02T14:30:46.1Z</time></trkpt><trkpt lat="46.0887446" lon="13.4314926"><ele>134.66666666666666</ele><time>2026-05-02T14:30:47.1Z</time></trkpt><trkpt lat="46.0888228" lon="13.4316919"><ele>135.0</ele><time>2026-05-02T14:30:48.1Z</time></trkpt><trkpt lat="46.0889012" lon="13.4318813"><ele>135.0</ele><time>2026-05-02T14:30:49.101Z</time></trkpt><trkpt lat="46.0889767" lon="13.4320626"><ele>135.0</ele><time>2026-05-02T14:30:50.1Z</time></trkpt><trkpt lat="46.089043" lon="13.4322327"><ele>135.0</ele><time>2026-05-02T14:30:51.1Z</time></trkpt><trkpt lat="46.0890963" lon="13.43238"><ele>135.0</ele><time>2026-05-02T14:30:52.101Z</time></trkpt><trkpt lat="46.0891468" lon="13.4325003"><ele>135.0</ele><time>2026-05-02T14:30:53.1Z</time></trkpt><trkpt lat="46.0891887" lon="13.4326024"><ele>135.0</ele><time>2026-05-02T14:30:54.101Z</time></trkpt><trkpt lat="46.0892281" lon="13.4326852"><ele>135.0</ele><time>2026-05-02T14:30:55.101Z</time></trkpt><trkpt lat="46.0892803" lon="13.43283"><ele>135.0</ele><time>2026-05-02T14:30:57.101Z</time></trkpt><trkpt lat="46.0893284" lon="13.4329246"><ele>135.0</ele><time>2026-05-02T14:30:59.1Z</time></trkpt><trkpt lat="46.0893613" lon="13.4330186"><ele>135.0</ele><time>2026-05-02T14:31:01.1Z</time></trkpt><trkpt lat="46.0893954" lon="13.4331017"><ele>135.0</ele><time>2026-05-02T14:31:04.1Z</time></trkpt><trkpt lat="46.0894092" lon="13.4332053"><ele>135.0</ele><time>2026-05-02T14:31:50.101Z</time></trkpt><trkpt lat="46.0894419" lon="13.4332986"><ele>135.0</ele><time>2026-05-02T14:32:02.1Z</time></trkpt><trkpt lat="46.0894809" lon="13.4334583"><ele>135.0</ele><time>2026-05-02T14:32:04.1Z</time></trkpt><trkpt lat="46.0894757" lon="13.4335808"><ele>135.0</ele><time>2026-05-02T14:32:05.1Z</time></trkpt><trkpt lat="46.089471" lon="13.4337026"><ele>135.0</ele><time>2026-05-02T14:32:06.1Z</time></trkpt><trkpt lat="46.089467" lon="13.4338423"><ele>135.5</ele><time>2026-05-02T14:32:07.1Z</time></trkpt><trkpt lat="46.089468" lon="13.4340148"><ele>136.0</ele><time>2026-05-02T14:32:08.1Z</time></trkpt><trkpt lat="46.0894605" lon="13.4341956"><ele>136.5</ele><time>2026-05-02T14:32:09.1Z</time></trkpt><trkpt lat="46.0894515" lon="13.4343842"><ele>137.0</ele><time>2026-05-02T14:32:10.1Z</time></trkpt><trkpt lat="46.0894414" lon="13.4345888"><ele>137.25</ele><time>2026-05-02T14:32:11.1Z</time></trkpt><trkpt lat="46.0894278" lon="13.4347909"><ele>137.5</ele><time>2026-05-02T14:32:12.1Z</time></trkpt><trkpt lat="46.0894112" lon="13.4349999"><ele>137.75</ele><time>2026-05-02T14:32:13.1Z</time></trkpt><trkpt lat="46.0893985" lon="13.4352135"><ele>138.0</ele><time>2026-05-02T14:32:14.101Z</time></trkpt><trkpt lat="46.0893791" lon="13.4354222"><ele>137.5</ele><time>2026-05-02T14:32:15.1Z</time></trkpt><trkpt lat="46.0893621" lon="13.435628"><ele>137.0</ele><time>2026-05-02T14:32:16.1Z</time></trkpt><trkpt lat="46.0893538" lon="13.4358279"><ele>136.5</ele><time>2026-05-02T14:32:17.101Z</time></trkpt><trkpt lat="46.0893475" lon="13.4360261"><ele>136.0</ele><time>2026-05-02T14:32:18.101Z</time></trkpt><trkpt lat="46.0893379" lon="13.4362262"><ele>136.5</ele><time>2026-05-02T14:32:19.101Z</time></trkpt><trkpt lat="46.0893253" lon="13.4364233"><ele>137.0</ele><time>2026-05-02T14:32:20.1Z</time></trkpt><trkpt lat="46.0893144" lon="13.4366138"><ele>137.5</ele><time>2026-05-02T14:32:21.1Z</time></trkpt><trkpt lat="46.089306" lon="13.4367873"><ele>138.0</ele><time>2026-05-02T14:32:22.101Z</time></trkpt><trkpt lat="46.0893027" lon="13.4369405"><ele>138.0</ele><time>2026-05-02T14:32:23.1Z</time></trkpt><trkpt lat="46.089304" lon="13.4370818"><ele>138.0</ele><time>2026-05-02T14:32:24.101Z</time></trkpt><trkpt lat="46.0893002" lon="13.4372082"><ele>138.0</ele><time>2026-05-02T14:32:25.1Z</time></trkpt><trkpt lat="46.0892914" lon="13.4373275"><ele>138.0</ele><time>2026-05-02T14:32:26.1Z</time></trkpt><trkpt lat="46.0892669" lon="13.4374546"><ele>138.0</ele><time>2026-05-02T14:32:27.101Z</time></trkpt><trkpt lat="46.089251" lon="13.4376029"><ele>138.33333333333334</ele><time>2026-05-02T14:32:28.1Z</time></trkpt><trkpt lat="46.0892386" lon="13.4377577"><ele>138.66666666666666</ele><time>2026-05-02T14:32:29.1Z</time></trkpt><trkpt lat="46.0892121" lon="13.4378961"><ele>139.0</ele><time>2026-05-02T14:32:30.1Z</time></trkpt><trkpt lat="46.0891805" lon="13.4380033"><ele>139.33333333333331</ele><time>2026-05-02T14:32:31.101Z</time></trkpt><trkpt lat="46.0891486" lon="13.4381012"><ele>139.66666666666666</ele><time>2026-05-02T14:32:32.1Z</time></trkpt><trkpt lat="46.0891076" lon="13.4381822"><ele>140.0</ele><time>2026-05-02T14:32:33.101Z</time></trkpt><trkpt lat="46.0890554" lon="13.4383366"><ele>140.0</ele><time>2026-05-02T14:32:35.101Z</time></trkpt><trkpt lat="46.0890917" lon="13.4384916"><ele>140.0</ele><time>2026-05-02T14:32:37.101Z</time></trkpt><trkpt lat="46.0891613" lon="13.4385471"><ele>140.0</ele><time>2026-05-02T14:32:38.101Z</time></trkpt><trkpt lat="46.0892584" lon="13.4385864"><ele>140.0</ele><time>2026-05-02T14:32:39.1Z</time></trkpt><trkpt lat="46.0893861" lon="13.4386327"><ele>140.0</ele><time>2026-05-02T14:32:40.101Z</time></trkpt><trkpt lat="46.089521" lon="13.438656"><ele>140.0</ele><time>2026-05-02T14:32:41.101Z</time></trkpt><trkpt lat="46.0896314" lon="13.4386182"><ele>140.0</ele><time>2026-05-02T14:32:42.1Z</time></trkpt><trkpt lat="46.0897258" lon="13.4385702"><ele>140.0</ele><time>2026-05-02T14:32:43.1Z</time></trkpt><trkpt lat="46.0898088" lon="13.4385517"><ele>140.0</ele><time>2026-05-02T14:32:44.1Z</time></trkpt><trkpt lat="46.0898821" lon="13.4385696"><ele>140.0</ele><time>2026-05-02T14:32:45.1Z</time></trkpt><trkpt lat="46.0899421" lon="13.4386365"><ele>140.0</ele><time>2026-05-02T14:32:46.101Z</time></trkpt><trkpt lat="46.0899945" lon="13.4387354"><ele>139.75</ele><time>2026-05-02T14:32:47.101Z</time></trkpt><trkpt lat="46.0900495" lon="13.4388974"><ele>139.5</ele><time>2026-05-02T14:32:48.101Z</time></trkpt><trkpt lat="46.0901086" lon="13.43909"><ele>139.25</ele><time>2026-05-02T14:32:49.1Z</time></trkpt><trkpt lat="46.0901692" lon="13.4392826"><ele>139.0</ele><time>2026-05-02T14:32:50.1Z</time></trkpt><trkpt lat="46.0902282" lon="13.4394933"><ele>139.0</ele><time>2026-05-02T14:32:51.101Z</time></trkpt><trkpt lat="46.0902908" lon="13.4397059"><ele>139.0</ele><time>2026-05-02T14:32:52.101Z</time></trkpt><trkpt lat="46.0903512" lon="13.4399409"><ele>139.0</ele><time>2026-05-02T14:32:53.1Z</time></trkpt><trkpt lat="46.0904096" lon="13.4401817"><ele>139.0</ele><time>2026-05-02T14:32:54.1Z</time></trkpt><trkpt lat="46.0904717" lon="13.4404278"><ele>139.0</ele><time>2026-05-02T14:32:55.1Z</time></trkpt><trkpt lat="46.0905247" lon="13.440681"><ele>139.0</ele><time>2026-05-02T14:32:56.1Z</time></trkpt><trkpt lat="46.0905787" lon="13.4409318"><ele>138.33333333333334</ele><time>2026-05-02T14:32:57.1Z</time></trkpt><trkpt lat="46.0906306" lon="13.4411832"><ele>137.66666666666666</ele><time>2026-05-02T14:32:58.101Z</time></trkpt><trkpt lat="46.0906795" lon="13.4414123"><ele>137.0</ele><time>2026-05-02T14:32:59.101Z</time></trkpt><trkpt lat="46.0907277" lon="13.4416334"><ele>137.33333333333331</ele><time>2026-05-02T14:33:00.101Z</time></trkpt><trkpt lat="46.0907748" lon="13.4418497"><ele>137.66666666666666</ele><time>2026-05-02T14:33:01.101Z</time></trkpt><trkpt lat="46.0908215" lon="13.4420587"><ele>138.0</ele><time>2026-05-02T14:33:02.1Z</time></trkpt><trkpt lat="46.0908664" lon="13.4422602"><ele>138.0</ele><time>2026-05-02T14:33:03.1Z</time></trkpt><trkpt lat="46.090916" lon="13.442465"><ele>138.0</ele><time>2026-05-02T14:33:04.1Z</time></trkpt><trkpt lat="46.0909725" lon="13.4426797"><ele>138.0</ele><time>2026-05-02T14:33:05.1Z</time></trkpt><trkpt lat="46.0910323" lon="13.442895"><ele>138.33333333333334</ele><time>2026-05-02T14:33:06.1Z</time></trkpt><trkpt lat="46.0910996" lon="13.4431111"><ele>138.66666666666669</ele><time>2026-05-02T14:33:07.1Z</time></trkpt><trkpt lat="46.091167" lon="13.4433203"><ele>139.0</ele><time>2026-05-02T14:33:08.101Z</time></trkpt><trkpt lat="46.0912284" lon="13.4435198"><ele>139.0</ele><time>2026-05-02T14:33:09.1Z</time></trkpt><trkpt lat="46.091292" lon="13.4437234"><ele>139.0</ele><time>2026-05-02T14:33:10.101Z</time></trkpt><trkpt lat="46.0913468" lon="13.4439269"><ele>139.0</ele><time>2026-05-02T14:33:11.1Z</time></trkpt><trkpt lat="46.0913993" lon="13.4441336"><ele>138.75</ele><time>2026-05-02T14:33:12.1Z</time></trkpt><trkpt lat="46.0914451" lon="13.4443323"><ele>138.5</ele><time>2026-05-02T14:33:13.1Z</time></trkpt><trkpt lat="46.091483" lon="13.4445258"><ele>138.25</ele><time>2026-05-02T14:33:14.101Z</time></trkpt><trkpt lat="46.0915193" lon="13.4447191"><ele>138.0</ele><time>2026-05-02T14:33:15.101Z</time></trkpt><trkpt lat="46.0915505" lon="13.4449082"><ele>138.5</ele><time>2026-05-02T14:33:16.1Z</time></trkpt><trkpt lat="46.0915718" lon="13.4451041"><ele>139.0</ele><time>2026-05-02T14:33:17.101Z</time></trkpt><trkpt lat="46.0915871" lon="13.4453007"><ele>139.5</ele><time>2026-05-02T14:33:18.1Z</time></trkpt><trkpt lat="46.0916077" lon="13.4454843"><ele>140.0</ele><time>2026-05-02T14:33:19.1Z</time></trkpt><trkpt lat="46.0916261" lon="13.4456594"><ele>140.25</ele><time>2026-05-02T14:33:20.1Z</time></trkpt><trkpt lat="46.0916521" lon="13.4458253"><ele>140.5</ele><time>2026-05-02T14:33:21.1Z</time></trkpt><trkpt lat="46.0916915" lon="13.4459902"><ele>140.75</ele><time>2026-05-02T14:33:22.101Z</time></trkpt><trkpt lat="46.0917343" lon="13.4461551"><ele>141.0</ele><time>2026-05-02T14:33:23.101Z</time></trkpt><trkpt lat="46.091777" lon="13.4463238"><ele>141.25</ele><time>2026-05-02T14:33:24.1Z</time></trkpt><trkpt lat="46.0918238" lon="13.4464954"><ele>141.5</ele><time>2026-05-02T14:33:25.101Z</time></trkpt><trkpt lat="46.0918646" lon="13.446673"><ele>141.75</ele><time>2026-05-02T14:33:26.1Z</time></trkpt><trkpt lat="46.0918927" lon="13.4468764"><ele>142.0</ele><time>2026-05-02T14:33:27.101Z</time></trkpt><trkpt lat="46.0919258" lon="13.4470887"><ele>142.75</ele><time>2026-05-02T14:33:28.101Z</time></trkpt><trkpt lat="46.0919799" lon="13.4472967"><ele>143.5</ele><time>2026-05-02T14:33:29.1Z</time></trkpt><trkpt lat="46.092042" lon="13.4474836"><ele>144.25</ele><time>2026-05-02T14:33:30.101Z</time></trkpt><trkpt lat="46.0920997" lon="13.4476705"><ele>145.0</ele><time>2026-05-02T14:33:31.101Z</time></trkpt><trkpt lat="46.0921586" lon="13.4478439"><ele>146.25</ele><time>2026-05-02T14:33:32.1Z</time></trkpt><trkpt lat="46.0922122" lon="13.4480051"><ele>147.5</ele><time>2026-05-02T14:33:33.1Z</time></trkpt><trkpt lat="46.0922634" lon="13.4481578"><ele>148.75</ele><time>2026-05-02T14:33:34.1Z</time></trkpt><trkpt lat="46.0922925" lon="13.4483216"><ele>150.0</ele><time>2026-05-02T14:33:35.101Z</time></trkpt><trkpt lat="46.0923" lon="13.4484832"><ele>150.0</ele><time>2026-05-02T14:33:36.1Z</time></trkpt><trkpt lat="46.0922753" lon="13.4486362"><ele>150.0</ele><time>2026-05-02T14:33:37.1Z</time></trkpt><trkpt lat="46.0922326" lon="13.4487969"><ele>150.0</ele><time>2026-05-02T14:33:38.101Z</time></trkpt><trkpt lat="46.0921866" lon="13.4489651"><ele>150.0</ele><time>2026-05-02T14:33:39.101Z</time></trkpt><trkpt lat="46.0921557" lon="13.4491383"><ele>150.5</ele><time>2026-05-02T14:33:40.101Z</time></trkpt><trkpt lat="46.0921345" lon="13.4492847"><ele>151.0</ele><time>2026-05-02T14:33:41.101Z</time></trkpt><trkpt lat="46.092116" lon="13.4494231"><ele>151.5</ele><time>2026-05-02T14:33:42.1Z</time></trkpt><trkpt lat="46.0920983" lon="13.4495871"><ele>152.0</ele><time>2026-05-02T14:33:43.1Z</time></trkpt><trkpt lat="46.092071" lon="13.4497809"><ele>154.0</ele><time>2026-05-02T14:33:44.101Z</time></trkpt><trkpt lat="46.0920351" lon="13.4499996"><ele>156.0</ele><time>2026-05-02T14:33:45.101Z</time></trkpt><trkpt lat="46.0919887" lon="13.4502343"><ele>158.0</ele><time>2026-05-02T14:33:46.101Z</time></trkpt><trkpt lat="46.0919419" lon="13.4504727"><ele>160.66666666666666</ele><time>2026-05-02T14:33:47.1Z</time></trkpt><trkpt lat="46.0919122" lon="13.4507222"><ele>163.33333333333334</ele><time>2026-05-02T14:33:48.1Z</time></trkpt><trkpt lat="46.0918935" lon="13.4509646"><ele>166.0</ele><time>2026-05-02T14:33:49.1Z</time></trkpt><trkpt lat="46.0918744" lon="13.4512056"><ele>167.66666666666669</ele><time>2026-05-02T14:33:50.1Z</time></trkpt><trkpt lat="46.0918354" lon="13.4514336"><ele>169.33333333333334</ele><time>2026-05-02T14:33:51.1Z</time></trkpt><trkpt lat="46.0917884" lon="13.4516402"><ele>171.0</ele><time>2026-05-02T14:33:52.1Z</time></trkpt><trkpt lat="46.0917524" lon="13.4518304"><ele>171.0</ele><time>2026-05-02T14:33:53.1Z</time></trkpt><trkpt lat="46.0917501" lon="13.4520368"><ele>171.0</ele><time>2026-05-02T14:33:54.1Z</time></trkpt><trkpt lat="46.0917808" lon="13.452256"><ele>171.0</ele><time>2026-05-02T14:33:55.1Z</time></trkpt><trkpt lat="46.0918422" lon="13.4524884"><ele>170.66666666666666</ele><time>2026-05-02T14:33:56.101Z</time></trkpt><trkpt lat="46.0919243" lon="13.4527291"><ele>170.33333333333331</ele><time>2026-05-02T14:33:57.101Z</time></trkpt><trkpt lat="46.0919987" lon="13.4529649"><ele>170.0</ele><time>2026-05-02T14:33:58.101Z</time></trkpt><trkpt lat="46.0920581" lon="13.4532015"><ele>170.0</ele><time>2026-05-02T14:33:59.1Z</time></trkpt><trkpt lat="46.0920969" lon="13.4534355"><ele>170.0</ele><time>2026-05-02T14:34:00.1Z</time></trkpt><trkpt lat="46.0921171" lon="13.4536845"><ele>170.0</ele><time>2026-05-02T14:34:01.1Z</time></trkpt><trkpt lat="46.0921228" lon="13.4539576"><ele>170.0</ele><time>2026-05-02T14:34:02.1Z</time></trkpt><trkpt lat="46.0921232" lon="13.4542359"><ele>170.0</ele><time>2026-05-02T14:34:03.101Z</time></trkpt><trkpt lat="46.0921225" lon="13.4544943"><ele>170.0</ele><time>2026-05-02T14:34:04.101Z</time></trkpt><trkpt lat="46.0921147" lon="13.4547347"><ele>172.33333333333331</ele><time>2026-05-02T14:34:05.1Z</time></trkpt><trkpt lat="46.092103" lon="13.4549638"><ele>174.66666666666666</ele><time>2026-05-02T14:34:06.1Z</time></trkpt><trkpt lat="46.0920814" lon="13.4551843"><ele>177.0</ele><time>2026-05-02T14:34:07.1Z</time></trkpt><trkpt lat="46.0920535" lon="13.4554184"><ele>180.0</ele><time>2026-05-02T14:34:08.101Z</time></trkpt><trkpt lat="46.0920194" lon="13.455669"><ele>183.0</ele><time>2026-05-02T14:34:09.1Z</time></trkpt><trkpt lat="46.0919876" lon="13.4559237"><ele>186.0</ele><time>2026-05-02T14:34:10.1Z</time></trkpt><trkpt lat="46.0919502" lon="13.4561765"><ele>189.0</ele><time>2026-05-02T14:34:11.1Z</time></trkpt><trkpt lat="46.0919141" lon="13.4564278"><ele>192.0</ele><time>2026-05-02T14:34:12.101Z</time></trkpt><trkpt lat="46.09188" lon="13.4566734"><ele>195.0</ele><time>2026-05-02T14:34:13.101Z</time></trkpt><trkpt lat="46.0918438" lon="13.4569212"><ele>195.66666666666669</ele><time>2026-05-02T14:34:14.1Z</time></trkpt><trkpt lat="46.0918165" lon="13.457162"><ele>196.33333333333334</ele><time>2026-05-02T14:34:15.1Z</time></trkpt><trkpt lat="46.0917991" lon="13.4574078"><ele>197.0</ele><time>2026-05-02T14:34:16.1Z</time></trkpt><trkpt lat="46.0917938" lon="13.4576661"><ele>197.0</ele><time>2026-05-02T14:34:17.1Z</time></trkpt><trkpt lat="46.0917792" lon="13.457925"><ele>197.0</ele><time>2026-05-02T14:34:18.1Z</time></trkpt><trkpt lat="46.0917518" lon="13.4581874"><ele>197.0</ele><time>2026-05-02T14:34:19.101Z</time></trkpt><trkpt lat="46.0917143" lon="13.458438"><ele>194.66666666666669</ele><time>2026-05-02T14:34:20.1Z</time></trkpt><trkpt lat="46.0916656" lon="13.4586666"><ele>192.33333333333334</ele><time>2026-05-02T14:34:21.1Z</time></trkpt><trkpt lat="46.0916059" lon="13.4588862"><ele>190.0</ele><time>2026-05-02T14:34:22.101Z</time></trkpt><trkpt lat="46.091539" lon="13.4590972"><ele>190.0</ele><time>2026-05-02T14:34:23.101Z</time></trkpt><trkpt lat="46.0914579" lon="13.4592964"><ele>190.0</ele><time>2026-05-02T14:34:24.101Z</time></trkpt><trkpt lat="46.0913697" lon="13.459501"><ele>190.0</ele><time>2026-05-02T14:34:25.1Z</time></trkpt><trkpt lat="46.0913" lon="13.4597486"><ele>193.66666666666669</ele><time>2026-05-02T14:34:26.1Z</time></trkpt><trkpt lat="46.0912476" lon="13.4599985"><ele>197.33333333333334</ele><time>2026-05-02T14:34:27.1Z</time></trkpt><trkpt lat="46.0911987" lon="13.4602374"><ele>201.0</ele><time>2026-05-02T14:34:28.101Z</time></trkpt><trkpt lat="46.0911552" lon="13.4604611"><ele>204.66666666666669</ele><time>2026-05-02T14:34:29.1Z</time></trkpt><trkpt lat="46.091115" lon="13.4606782"><ele>208.33333333333334</ele><time>2026-05-02T14:34:30.1Z</time></trkpt><trkpt lat="46.0910757" lon="13.4608953"><ele>212.0</ele><time>2026-05-02T14:34:31.1Z</time></trkpt><trkpt lat="46.091028" lon="13.4611223"><ele>215.33333333333334</ele><time>2026-05-02T14:34:32.101Z</time></trkpt><trkpt lat="46.0909681" lon="13.4613379"><ele>218.66666666666669</ele><time>2026-05-02T14:34:33.101Z</time></trkpt><trkpt lat="46.090893" lon="13.4615375"><ele>222.0</ele><time>2026-05-02T14:34:34.1Z</time></trkpt><trkpt lat="46.0908179" lon="13.4617196"><ele>222.0</ele><time>2026-05-02T14:34:35.1Z</time></trkpt><trkpt lat="46.0907608" lon="13.4619113"><ele>222.0</ele><time>2026-05-02T14:34:36.099Z</time></trkpt><trkpt lat="46.0907235" lon="13.4621142"><ele>222.0</ele><time>2026-05-02T14:34:37.1Z</time></trkpt><trkpt lat="46.0907187" lon="13.4622981"><ele>222.0</ele><time>2026-05-02T14:34:38.099Z</time></trkpt><trkpt lat="46.0907351" lon="13.4624611"><ele>226.66666666666666</ele><time>2026-05-02T14:34:39.099Z</time></trkpt><trkpt lat="46.090754" lon="13.4625978"><ele>231.33333333333331</ele><time>2026-05-02T14:34:40.099Z</time></trkpt><trkpt lat="46.0907362" lon="13.4627079"><ele>236.0</ele><time>2026-05-02T14:34:41.099Z</time></trkpt><trkpt lat="46.0906731" lon="13.4627603"><ele>240.66666666666666</ele><time>2026-05-02T14:34:42.1Z</time></trkpt><trkpt lat="46.0906028" lon="13.4627463"><ele>245.33333333333331</ele><time>2026-05-02T14:34:43.1Z</time></trkpt><trkpt lat="46.0905554" lon="13.4626723"><ele>250.0</ele><time>2026-05-02T14:34:44.099Z</time></trkpt><trkpt lat="46.0905479" lon="13.4625432"><ele>250.0</ele><time>2026-05-02T14:34:45.1Z</time></trkpt><trkpt lat="46.0905314" lon="13.462374"><ele>250.0</ele><time>2026-05-02T14:34:46.1Z</time></trkpt><trkpt lat="46.0904794" lon="13.4622201"><ele>250.0</ele><time>2026-05-02T14:34:47.099Z</time></trkpt><trkpt lat="46.0904159" lon="13.4621262"><ele>250.0</ele><time>2026-05-02T14:34:48.1Z</time></trkpt><trkpt lat="46.0903468" lon="13.4620923"><ele>250.0</ele><time>2026-05-02T14:34:49.099Z</time></trkpt><trkpt lat="46.0902668" lon="13.4621278"><ele>249.99999999999997</ele><time>2026-05-02T14:34:50.099Z</time></trkpt><trkpt lat="46.0902569" lon="13.4622232"><ele>250.0</ele><time>2026-05-02T14:34:51.1Z</time></trkpt><trkpt lat="46.0902884" lon="13.4623203"><ele>250.0</ele><time>2026-05-02T14:34:52.099Z</time></trkpt><trkpt lat="46.0903612" lon="13.4624162"><ele>250.0</ele><time>2026-05-02T14:34:53.099Z</time></trkpt><trkpt lat="46.0903891" lon="13.4625267"><ele>249.99999999999997</ele><time>2026-05-02T14:34:54.1Z</time></trkpt><trkpt lat="46.0903688" lon="13.462679"><ele>250.0</ele><time>2026-05-02T14:34:55.1Z</time></trkpt><trkpt lat="46.0903134" lon="13.4628799"><ele>251.75</ele><time>2026-05-02T14:34:56.099Z</time></trkpt><trkpt lat="46.0902678" lon="13.463074"><ele>253.5</ele><time>2026-05-02T14:34:57.1Z</time></trkpt><trkpt lat="46.0902108" lon="13.4632513"><ele>255.25</ele><time>2026-05-02T14:34:58.099Z</time></trkpt><trkpt lat="46.0901244" lon="13.4634008"><ele>257.0</ele><time>2026-05-02T14:34:59.1Z</time></trkpt><trkpt lat="46.0900313" lon="13.4635322"><ele>257.0</ele><time>2026-05-02T14:35:00.099Z</time></trkpt><trkpt lat="46.0899482" lon="13.4636507"><ele>257.0</ele><time>2026-05-02T14:35:01.1Z</time></trkpt><trkpt lat="46.0898899" lon="13.4637692"><ele>257.0</ele><time>2026-05-02T14:35:02.099Z</time></trkpt><trkpt lat="46.0898718" lon="13.4639122"><ele>257.0</ele><time>2026-05-02T14:35:03.099Z</time></trkpt><trkpt lat="46.0898783" lon="13.4640436"><ele>257.0</ele><time>2026-05-02T14:35:04.099Z</time></trkpt><trkpt lat="46.089844" lon="13.464136"><ele>260.1666666666667</ele><time>2026-05-02T14:35:05.099Z</time></trkpt><trkpt lat="46.0897809" lon="13.4641617"><ele>263.33333333333337</ele><time>2026-05-02T14:35:06.099Z</time></trkpt><trkpt lat="46.0897289" lon="13.4641086"><ele>266.5</ele><time>2026-05-02T14:35:07.099Z</time></trkpt><trkpt lat="46.0896987" lon="13.4640013"><ele>269.6666666666667</ele><time>2026-05-02T14:35:08.1Z</time></trkpt><trkpt lat="46.0897189" lon="13.4638717"><ele>272.8333333333333</ele><time>2026-05-02T14:35:09.099Z</time></trkpt><trkpt lat="46.0897462" lon="13.4637386"><ele>276.0</ele><time>2026-05-02T14:35:10.099Z</time></trkpt><trkpt lat="46.089765" lon="13.4635892"><ele>276.0</ele><time>2026-05-02T14:35:11.1Z</time></trkpt><trkpt lat="46.0897748" lon="13.4634279"><ele>276.0</ele><time>2026-05-02T14:35:12.099Z</time></trkpt><trkpt lat="46.0897675" lon="13.4632705"><ele>276.0</ele><time>2026-05-02T14:35:13.099Z</time></trkpt><trkpt lat="46.0897329" lon="13.4631261"><ele>276.0</ele><time>2026-05-02T14:35:14.099Z</time></trkpt><trkpt lat="46.089662" lon="13.4629978"><ele>276.0</ele><time>2026-05-02T14:35:15.1Z</time></trkpt><trkpt lat="46.0895575" lon="13.4628851"><ele>272.75</ele><time>2026-05-02T14:35:16.099Z</time></trkpt><trkpt lat="46.0894507" lon="13.4627961"><ele>269.5</ele><time>2026-05-02T14:35:17.099Z</time></trkpt><trkpt lat="46.089343" lon="13.4627193"><ele>266.25</ele><time>2026-05-02T14:35:18.1Z</time></trkpt><trkpt lat="46.0892396" lon="13.4626505"><ele>263.0</ele><time>2026-05-02T14:35:19.099Z</time></trkpt><trkpt lat="46.0891317" lon="13.4626403"><ele>262.2</ele><time>2026-05-02T14:35:20.1Z</time></trkpt><trkpt lat="46.0890306" lon="13.4627053"><ele>261.4</ele><time>2026-05-02T14:35:21.1Z</time></trkpt><trkpt lat="46.08894" lon="13.4628129"><ele>260.59999999999997</ele><time>2026-05-02T14:35:22.1Z</time></trkpt><trkpt lat="46.0888801" lon="13.4629447"><ele>259.8</ele><time>2026-05-02T14:35:23.099Z</time></trkpt><trkpt lat="46.0888641" lon="13.4630842"><ele>259.0</ele><time>2026-05-02T14:35:24.099Z</time></trkpt><trkpt lat="46.0888958" lon="13.4631984"><ele>263.25</ele><time>2026-05-02T14:35:25.099Z</time></trkpt><trkpt lat="46.0889647" lon="13.4632982"><ele>267.5</ele><time>2026-05-02T14:35:26.099Z</time></trkpt><trkpt lat="46.0890622" lon="13.4633566"><ele>271.75</ele><time>2026-05-02T14:35:27.099Z</time></trkpt><trkpt lat="46.0891636" lon="13.4634486"><ele>276.0</ele><time>2026-05-02T14:35:28.1Z</time></trkpt><trkpt lat="46.089225" lon="13.4636105"><ele>278.5</ele><time>2026-05-02T14:35:29.099Z</time></trkpt><trkpt lat="46.089248" lon="13.4637964"><ele>281.0</ele><time>2026-05-02T14:35:30.1Z</time></trkpt><trkpt lat="46.089259" lon="13.4639863"><ele>283.5</ele><time>2026-05-02T14:35:31.099Z</time></trkpt><trkpt lat="46.0892269" lon="13.4641868"><ele>286.0</ele><time>2026-05-02T14:35:32.1Z</time></trkpt><trkpt lat="46.0891735" lon="13.4643837"><ele>287.66666666666663</ele><time>2026-05-02T14:35:33.099Z</time></trkpt><trkpt lat="46.0890918" lon="13.4645827"><ele>289.3333333333333</ele><time>2026-05-02T14:35:34.1Z</time></trkpt><trkpt lat="46.0889927" lon="13.4647797"><ele>291.0</ele><time>2026-05-02T14:35:35.1Z</time></trkpt><trkpt lat="46.0888783" lon="13.464935"><ele>293.3333333333333</ele><time>2026-05-02T14:35:36.099Z</time></trkpt><trkpt lat="46.0887551" lon="13.4650696"><ele>295.66666666666663</ele><time>2026-05-02T14:35:37.1Z</time></trkpt><trkpt lat="46.0886192" lon="13.4651816"><ele>298.0</ele><time>2026-05-02T14:35:38.099Z</time></trkpt><trkpt lat="46.0884863" lon="13.4652728"><ele>298.0</ele><time>2026-05-02T14:35:39.099Z</time></trkpt><trkpt lat="46.0883543" lon="13.4653621"><ele>298.0</ele><time>2026-05-02T14:35:40.1Z</time></trkpt><trkpt lat="46.0882247" lon="13.4654733"><ele>298.0</ele><time>2026-05-02T14:35:41.1Z</time></trkpt><trkpt lat="46.0880963" lon="13.4655991"><ele>301.5</ele><time>2026-05-02T14:35:42.1Z</time></trkpt><trkpt lat="46.0879875" lon="13.4657353"><ele>305.0</ele><time>2026-05-02T14:35:43.1Z</time></trkpt><trkpt lat="46.0878792" lon="13.4658804"><ele>308.5</ele><time>2026-05-02T14:35:44.099Z</time></trkpt><trkpt lat="46.0877671" lon="13.4660355"><ele>312.0</ele><time>2026-05-02T14:35:45.099Z</time></trkpt><trkpt lat="46.0876513" lon="13.4661947"><ele>309.6666666666667</ele><time>2026-05-02T14:35:46.099Z</time></trkpt><trkpt lat="46.0875354" lon="13.4663611"><ele>307.33333333333337</ele><time>2026-05-02T14:35:47.099Z</time></trkpt><trkpt lat="46.0874258" lon="13.4665253"><ele>305.0</ele><time>2026-05-02T14:35:48.099Z</time></trkpt><trkpt lat="46.0873246" lon="13.4666893"><ele>312.25</ele><time>2026-05-02T14:35:49.1Z</time></trkpt><trkpt lat="46.0872384" lon="13.4668509"><ele>319.5</ele><time>2026-05-02T14:35:50.099Z</time></trkpt><trkpt lat="46.0871711" lon="13.4670001"><ele>326.75</ele><time>2026-05-02T14:35:51.099Z</time></trkpt><trkpt lat="46.0871402" lon="13.4671603"><ele>334.0</ele><time>2026-05-02T14:35:52.099Z</time></trkpt><trkpt lat="46.0871521" lon="13.4673344"><ele>334.0</ele><time>2026-05-02T14:35:53.099Z</time></trkpt><trkpt lat="46.0872055" lon="13.4675337"><ele>334.0</ele><time>2026-05-02T14:35:54.1Z</time></trkpt><trkpt lat="46.0872514" lon="13.4677246"><ele>334.0</ele><time>2026-05-02T14:35:55.099Z</time></trkpt><trkpt lat="46.0872667" lon="13.4678963"><ele>334.0</ele><time>2026-05-02T14:35:56.099Z</time></trkpt><trkpt lat="46.0872936" lon="13.468026"><ele>334.0</ele><time>2026-05-02T14:35:57.099Z</time></trkpt><trkpt lat="46.087353" lon="13.4681034"><ele>334.0</ele><time>2026-05-02T14:35:58.099Z</time></trkpt><trkpt lat="46.0874557" lon="13.4680968"><ele>334.0</ele><time>2026-05-02T14:35:59.099Z</time></trkpt><trkpt lat="46.0875834" lon="13.4680612"><ele>334.0</ele><time>2026-05-02T14:36:00.1Z</time></trkpt><trkpt lat="46.0877116" lon="13.4680346"><ele>334.0</ele><time>2026-05-02T14:36:01.1Z</time></trkpt><trkpt lat="46.0878411" lon="13.4680341"><ele>331.0</ele><time>2026-05-02T14:36:02.099Z</time></trkpt><trkpt lat="46.0879518" lon="13.4681043"><ele>328.0</ele><time>2026-05-02T14:36:03.099Z</time></trkpt><trkpt lat="46.0880808" lon="13.4682532"><ele>325.0</ele><time>2026-05-02T14:36:04.099Z</time></trkpt><trkpt lat="46.088204" lon="13.4683869"><ele>322.0</ele><time>2026-05-02T14:36:05.099Z</time></trkpt><trkpt lat="46.0883296" lon="13.4685225"><ele>321.0</ele><time>2026-05-02T14:36:06.099Z</time></trkpt><trkpt lat="46.0884673" lon="13.468655"><ele>320.0</ele><time>2026-05-02T14:36:07.1Z</time></trkpt><trkpt lat="46.0885902" lon="13.4687865"><ele>319.0</ele><time>2026-05-02T14:36:08.1Z</time></trkpt><trkpt lat="46.0886922" lon="13.4689095"><ele>319.0</ele><time>2026-05-02T14:36:09.099Z</time></trkpt><trkpt lat="46.0887795" lon="13.4690027"><ele>319.0</ele><time>2026-05-02T14:36:10.099Z</time></trkpt><trkpt lat="46.0888356" lon="13.4691105"><ele>319.0</ele><time>2026-05-02T14:36:11.099Z</time></trkpt><trkpt lat="46.0888543" lon="13.4692174"><ele>319.0</ele><time>2026-05-02T14:36:12.099Z</time></trkpt><trkpt lat="46.088829" lon="13.4693149"><ele>319.0</ele><time>2026-05-02T14:36:13.1Z</time></trkpt><trkpt lat="46.0887601" lon="13.4693946"><ele>319.0</ele><time>2026-05-02T14:36:14.1Z</time></trkpt><trkpt lat="46.0886312" lon="13.4694459"><ele>319.0</ele><time>2026-05-02T14:36:15.099Z</time></trkpt><trkpt lat="46.0884764" lon="13.4694792"><ele>319.0</ele><time>2026-05-02T14:36:16.099Z</time></trkpt><trkpt lat="46.0883112" lon="13.4695187"><ele>319.0</ele><time>2026-05-02T14:36:17.099Z</time></trkpt><trkpt lat="46.0881573" lon="13.4695885"><ele>315.66666666666663</ele><time>2026-05-02T14:36:18.1Z</time></trkpt><trkpt lat="46.0880029" lon="13.4696741"><ele>312.3333333333333</ele><time>2026-05-02T14:36:19.1Z</time></trkpt><trkpt lat="46.0878565" lon="13.4697792"><ele>309.0</ele><time>2026-05-02T14:36:20.1Z</time></trkpt><trkpt lat="46.087711" lon="13.4698623"><ele>309.0</ele><time>2026-05-02T14:36:21.1Z</time></trkpt><trkpt lat="46.0875674" lon="13.4699243"><ele>309.0</ele><time>2026-05-02T14:36:22.1Z</time></trkpt><trkpt lat="46.0874297" lon="13.4699939"><ele>309.0</ele><time>2026-05-02T14:36:23.099Z</time></trkpt><trkpt lat="46.0873037" lon="13.4700899"><ele>309.0</ele><time>2026-05-02T14:36:24.099Z</time></trkpt><trkpt lat="46.0871966" lon="13.4702257"><ele>308.3333333333333</ele><time>2026-05-02T14:36:25.099Z</time></trkpt><trkpt lat="46.0870967" lon="13.4703779"><ele>307.66666666666663</ele><time>2026-05-02T14:36:26.099Z</time></trkpt><trkpt lat="46.0870082" lon="13.4705506"><ele>307.0</ele><time>2026-05-02T14:36:27.099Z</time></trkpt><trkpt lat="46.0869447" lon="13.4707592"><ele>307.0</ele><time>2026-05-02T14:36:28.099Z</time></trkpt><trkpt lat="46.0869065" lon="13.4709961"><ele>307.0</ele><time>2026-05-02T14:36:29.099Z</time></trkpt><trkpt lat="46.0868703" lon="13.4712358"><ele>307.0</ele><time>2026-05-02T14:36:30.1Z</time></trkpt><trkpt lat="46.0868291" lon="13.4714794"><ele>303.0</ele><time>2026-05-02T14:36:31.099Z</time></trkpt><trkpt lat="46.0867873" lon="13.4717161"><ele>299.0</ele><time>2026-05-02T14:36:32.099Z</time></trkpt><trkpt lat="46.0867376" lon="13.471944"><ele>295.0</ele><time>2026-05-02T14:36:33.099Z</time></trkpt><trkpt lat="46.0866703" lon="13.4721547"><ele>290.0</ele><time>2026-05-02T14:36:34.099Z</time></trkpt><trkpt lat="46.0865781" lon="13.4723512"><ele>285.0</ele><time>2026-05-02T14:36:35.099Z</time></trkpt><trkpt lat="46.0864495" lon="13.4725434"><ele>280.0</ele><time>2026-05-02T14:36:36.099Z</time></trkpt><trkpt lat="46.0863045" lon="13.4727221"><ele>280.0</ele><time>2026-05-02T14:36:37.099Z</time></trkpt><trkpt lat="46.0861575" lon="13.4728928"><ele>280.0</ele><time>2026-05-02T14:36:38.099Z</time></trkpt><trkpt lat="46.0860081" lon="13.4730701"><ele>280.0</ele><time>2026-05-02T14:36:39.099Z</time></trkpt><trkpt lat="46.0858706" lon="13.4732625"><ele>276.66666666666663</ele><time>2026-05-02T14:36:40.099Z</time></trkpt><trkpt lat="46.0857414" lon="13.4734711"><ele>273.3333333333333</ele><time>2026-05-02T14:36:41.099Z</time></trkpt><trkpt lat="46.0856297" lon="13.4736904"><ele>270.0</ele><time>2026-05-02T14:36:42.099Z</time></trkpt><trkpt lat="46.0855258" lon="13.4738909"><ele>270.0</ele><time>2026-05-02T14:36:43.1Z</time></trkpt><trkpt lat="46.0854257" lon="13.474087"><ele>270.0</ele><time>2026-05-02T14:36:44.099Z</time></trkpt><trkpt lat="46.0853472" lon="13.4742792"><ele>270.0</ele><time>2026-05-02T14:36:45.099Z</time></trkpt><trkpt lat="46.0853076" lon="13.4744628"><ele>270.5</ele><time>2026-05-02T14:36:46.1Z</time></trkpt><trkpt lat="46.0852892" lon="13.4746542"><ele>271.0</ele><time>2026-05-02T14:36:47.1Z</time></trkpt><trkpt lat="46.0853069" lon="13.4748519"><ele>271.5</ele><time>2026-05-02T14:36:48.1Z</time></trkpt><trkpt lat="46.0853451" lon="13.4750692"><ele>272.0</ele><time>2026-05-02T14:36:49.099Z</time></trkpt><trkpt lat="46.0854022" lon="13.4753033"><ele>271.6666666666667</ele><time>2026-05-02T14:36:50.1Z</time></trkpt><trkpt lat="46.0854563" lon="13.4755509"><ele>271.3333333333333</ele><time>2026-05-02T14:36:51.099Z</time></trkpt><trkpt lat="46.085507" lon="13.4757944"><ele>271.0</ele><time>2026-05-02T14:36:52.1Z</time></trkpt><trkpt lat="46.0855511" lon="13.4760208"><ele>271.0</ele><time>2026-05-02T14:36:53.099Z</time></trkpt><trkpt lat="46.0855975" lon="13.4762384"><ele>271.0</ele><time>2026-05-02T14:36:54.1Z</time></trkpt><trkpt lat="46.0856478" lon="13.4764605"><ele>271.0</ele><time>2026-05-02T14:36:55.099Z</time></trkpt><trkpt lat="46.0856965" lon="13.4766813"><ele>270.66666666666663</ele><time>2026-05-02T14:36:56.1Z</time></trkpt><trkpt lat="46.0857251" lon="13.4769128"><ele>270.3333333333333</ele><time>2026-05-02T14:36:57.099Z</time></trkpt><trkpt lat="46.0857383" lon="13.4771581"><ele>270.0</ele><time>2026-05-02T14:36:58.099Z</time></trkpt><trkpt lat="46.0857386" lon="13.4773979"><ele>269.0</ele><time>2026-05-02T14:36:59.1Z</time></trkpt><trkpt lat="46.0857408" lon="13.4776504"><ele>268.0</ele><time>2026-05-02T14:37:00.099Z</time></trkpt><trkpt lat="46.0857537" lon="13.4778985"><ele>267.0</ele><time>2026-05-02T14:37:01.099Z</time></trkpt><trkpt lat="46.0857849" lon="13.4781505"><ele>275.0</ele><time>2026-05-02T14:37:02.099Z</time></trkpt><trkpt lat="46.0858396" lon="13.478381"><ele>283.0</ele><time>2026-05-02T14:37:03.099Z</time></trkpt><trkpt lat="46.0859043" lon="13.4786015"><ele>291.0</ele><time>2026-05-02T14:37:04.1Z</time></trkpt><trkpt lat="46.0859706" lon="13.4788123"><ele>291.75</ele><time>2026-05-02T14:37:05.1Z</time></trkpt><trkpt lat="46.0860328" lon="13.4790167"><ele>292.5</ele><time>2026-05-02T14:37:06.1Z</time></trkpt><trkpt lat="46.0860917" lon="13.4792074"><ele>293.25</ele><time>2026-05-02T14:37:07.099Z</time></trkpt><trkpt lat="46.0861377" lon="13.4793912"><ele>294.0</ele><time>2026-05-02T14:37:08.099Z</time></trkpt><trkpt lat="46.0861754" lon="13.479556"><ele>294.0</ele><time>2026-05-02T14:37:09.099Z</time></trkpt><trkpt lat="46.0862054" lon="13.4797059"><ele>294.0</ele><time>2026-05-02T14:37:10.099Z</time></trkpt><trkpt lat="46.0862287" lon="13.4798495"><ele>294.0</ele><time>2026-05-02T14:37:11.099Z</time></trkpt><trkpt lat="46.0862551" lon="13.4799868"><ele>294.0</ele><time>2026-05-02T14:37:12.1Z</time></trkpt><trkpt lat="46.086274" lon="13.4801148"><ele>294.0</ele><time>2026-05-02T14:37:13.099Z</time></trkpt><trkpt lat="46.0862863" lon="13.4802422"><ele>294.0</ele><time>2026-05-02T14:37:14.1Z</time></trkpt><trkpt lat="46.0862935" lon="13.4803643"><ele>294.0</ele><time>2026-05-02T14:37:15.099Z</time></trkpt><trkpt lat="46.0863089" lon="13.4804582"><ele>294.0</ele><time>2026-05-02T14:37:16.099Z</time></trkpt><trkpt lat="46.0863294" lon="13.4806057"><ele>294.0</ele><time>2026-05-02T14:37:18.1Z</time></trkpt><trkpt lat="46.086326" lon="13.4807032"><ele>294.0</ele><time>2026-05-02T14:37:20.099Z</time></trkpt><trkpt lat="46.0863731" lon="13.4807665"><ele>294.0</ele><time>2026-05-02T14:37:47.099Z</time></trkpt><trkpt lat="46.0864298" lon="13.4806979"><ele>294.8</ele><time>2026-05-02T14:38:04.099Z</time></trkpt><trkpt lat="46.0863034" lon="13.4807049"><ele>295.59999999999997</ele><time>2026-05-02T14:54:33.095Z</time></trkpt><trkpt lat="46.0863234" lon="13.4808769"><ele>296.4</ele><time>2026-05-02T14:54:35.096Z</time></trkpt><trkpt lat="46.0863206" lon="13.4810563"><ele>297.2</ele><time>2026-05-02T14:54:37.095Z</time></trkpt><trkpt lat="46.0863179" lon="13.4811588"><ele>298.0</ele><time>2026-05-02T14:54:38.095Z</time></trkpt><trkpt lat="46.0863142" lon="13.4812731"><ele>299.8</ele><time>2026-05-02T14:54:39.096Z</time></trkpt><trkpt lat="46.0863031" lon="13.4813834"><ele>301.6</ele><time>2026-05-02T14:54:40.096Z</time></trkpt><trkpt lat="46.0862985" lon="13.4815018"><ele>303.4</ele><time>2026-05-02T14:54:41.095Z</time></trkpt><trkpt lat="46.0862983" lon="13.4816523"><ele>305.2</ele><time>2026-05-02T14:54:42.096Z</time></trkpt><trkpt lat="46.086289" lon="13.481804"><ele>307.0</ele><time>2026-05-02T14:54:43.095Z</time></trkpt><trkpt lat="46.086291" lon="13.4819472"><ele>307.0</ele><time>2026-05-02T14:54:44.095Z</time></trkpt><trkpt lat="46.0863079" lon="13.4820903"><ele>307.0</ele><time>2026-05-02T14:54:45.096Z</time></trkpt><trkpt lat="46.0863603" lon="13.4822237"><ele>307.0</ele><time>2026-05-02T14:54:46.095Z</time></trkpt><trkpt lat="46.0864169" lon="13.4823545"><ele>307.0</ele><time>2026-05-02T14:54:47.096Z</time></trkpt><trkpt lat="46.0864753" lon="13.4824979"><ele>307.0</ele><time>2026-05-02T14:54:48.095Z</time></trkpt><trkpt lat="46.0865317" lon="13.4826461"><ele>307.5</ele><time>2026-05-02T14:54:49.094Z</time></trkpt><trkpt lat="46.0865884" lon="13.4827829"><ele>308.0</ele><time>2026-05-02T14:54:50.095Z</time></trkpt><trkpt lat="46.0866427" lon="13.4829268"><ele>308.5</ele><time>2026-05-02T14:54:51.094Z</time></trkpt><trkpt lat="46.0867174" lon="13.4830634"><ele>309.0</ele><time>2026-05-02T14:54:52.095Z</time></trkpt><trkpt lat="46.0867981" lon="13.4832016"><ele>312.25</ele><time>2026-05-02T14:54:53.094Z</time></trkpt><trkpt lat="46.0868753" lon="13.4833352"><ele>315.5</ele><time>2026-05-02T14:54:54.094Z</time></trkpt><trkpt lat="46.0869469" lon="13.4834711"><ele>318.75</ele><time>2026-05-02T14:54:55.094Z</time></trkpt><trkpt lat="46.0870262" lon="13.4836132"><ele>322.0</ele><time>2026-05-02T14:54:56.094Z</time></trkpt><trkpt lat="46.0870965" lon="13.4837616"><ele>319.75</ele><time>2026-05-02T14:54:57.094Z</time></trkpt><trkpt lat="46.0871513" lon="13.4839183"><ele>317.5</ele><time>2026-05-02T14:54:58.095Z</time></trkpt><trkpt lat="46.0871966" lon="13.484086"><ele>315.25</ele><time>2026-05-02T14:54:59.094Z</time></trkpt><trkpt lat="46.0872407" lon="13.4842531"><ele>313.0</ele><time>2026-05-02T14:55:00.095Z</time></trkpt><trkpt lat="46.0872905" lon="13.4844109"><ele>313.0</ele><time>2026-05-02T14:55:01.094Z</time></trkpt><trkpt lat="46.0873704" lon="13.4845401"><ele>313.0</ele><time>2026-05-02T14:55:02.095Z</time></trkpt><trkpt lat="46.0874814" lon="13.4846373"><ele>313.0</ele><time>2026-05-02T14:55:03.094Z</time></trkpt><trkpt lat="46.0876103" lon="13.4847135"><ele>313.0</ele><time>2026-05-02T14:55:04.094Z</time></trkpt><trkpt lat="46.0877409" lon="13.4847731"><ele>319.0</ele><time>2026-05-02T14:55:05.094Z</time></trkpt><trkpt lat="46.0878876" lon="13.4848056"><ele>325.0</ele><time>2026-05-02T14:55:06.094Z</time></trkpt><trkpt lat="46.0880262" lon="13.4848566"><ele>331.0</ele><time>2026-05-02T14:55:07.094Z</time></trkpt><trkpt lat="46.0881669" lon="13.4849329"><ele>337.0</ele><time>2026-05-02T14:55:08.094Z</time></trkpt><trkpt lat="46.0883064" lon="13.4850167"><ele>344.0</ele><time>2026-05-02T14:55:09.095Z</time></trkpt><trkpt lat="46.0884423" lon="13.4851176"><ele>351.0</ele><time>2026-05-02T14:55:10.094Z</time></trkpt><trkpt lat="46.0885703" lon="13.4852351"><ele>358.0</ele><time>2026-05-02T14:55:11.094Z</time></trkpt><trkpt lat="46.088699" lon="13.4853796"><ele>349.3333333333333</ele><time>2026-05-02T14:55:12.095Z</time></trkpt><trkpt lat="46.0888295" lon="13.485529"><ele>340.6666666666667</ele><time>2026-05-02T14:55:13.094Z</time></trkpt><trkpt lat="46.0889525" lon="13.485665"><ele>332.0</ele><time>2026-05-02T14:55:14.094Z</time></trkpt><trkpt lat="46.0890803" lon="13.4858105"><ele>335.5</ele><time>2026-05-02T14:55:15.094Z</time></trkpt><trkpt lat="46.0891762" lon="13.4859634"><ele>339.0</ele><time>2026-05-02T14:55:16.094Z</time></trkpt><trkpt lat="46.0892641" lon="13.4861316"><ele>342.5</ele><time>2026-05-02T14:55:17.094Z</time></trkpt><trkpt lat="46.0893315" lon="13.4863157"><ele>346.0</ele><time>2026-05-02T14:55:18.094Z</time></trkpt><trkpt lat="46.0893681" lon="13.4864978"><ele>346.0</ele><time>2026-05-02T14:55:19.095Z</time></trkpt><trkpt lat="46.089396" lon="13.4866827"><ele>346.0</ele><time>2026-05-02T14:55:20.094Z</time></trkpt><trkpt lat="46.0894129" lon="13.4868785"><ele>346.0</ele><time>2026-05-02T14:55:21.094Z</time></trkpt><trkpt lat="46.0894469" lon="13.4870681"><ele>346.0</ele><time>2026-05-02T14:55:22.094Z</time></trkpt><trkpt lat="46.0894965" lon="13.4872757"><ele>343.75</ele><time>2026-05-02T14:55:23.094Z</time></trkpt><trkpt lat="46.0895636" lon="13.487482"><ele>341.5</ele><time>2026-05-02T14:55:24.095Z</time></trkpt><trkpt lat="46.089641" lon="13.4876461"><ele>339.25</ele><time>2026-05-02T14:55:25.095Z</time></trkpt><trkpt lat="46.0897335" lon="13.4878021"><ele>337.0</ele><time>2026-05-02T14:55:26.094Z</time></trkpt><trkpt lat="46.0898383" lon="13.4879588"><ele>341.0</ele><time>2026-05-02T14:55:27.094Z</time></trkpt><trkpt lat="46.0899403" lon="13.4881111"><ele>345.0</ele><time>2026-05-02T14:55:28.095Z</time></trkpt><trkpt lat="46.0900348" lon="13.4882782"><ele>349.0</ele><time>2026-05-02T14:55:29.094Z</time></trkpt><trkpt lat="46.0901199" lon="13.4884405"><ele>353.0</ele><time>2026-05-02T14:55:30.094Z</time></trkpt><trkpt lat="46.0901753" lon="13.4886021"><ele>353.6666666666667</ele><time>2026-05-02T14:55:31.094Z</time></trkpt><trkpt lat="46.0902404" lon="13.488885"><ele>354.3333333333333</ele><time>2026-05-02T14:55:33.094Z</time></trkpt><trkpt lat="46.0903061" lon="13.4890852"><ele>355.0</ele><time>2026-05-02T14:55:34.095Z</time></trkpt><trkpt lat="46.0903425" lon="13.4892958"><ele>355.0</ele><time>2026-05-02T14:55:35.095Z</time></trkpt><trkpt lat="46.0903499" lon="13.4895266"><ele>355.0</ele><time>2026-05-02T14:55:36.095Z</time></trkpt><trkpt lat="46.0902965" lon="13.4898032"><ele>355.0</ele><time>2026-05-02T14:55:37.094Z</time></trkpt><trkpt lat="46.0902606" lon="13.4900458"><ele>356.0</ele><time>2026-05-02T14:55:38.094Z</time></trkpt><trkpt lat="46.0901906" lon="13.4902949"><ele>357.0</ele><time>2026-05-02T14:55:39.095Z</time></trkpt><trkpt lat="46.0901056" lon="13.4905425"><ele>358.0</ele><time>2026-05-02T14:55:40.095Z</time></trkpt><trkpt lat="46.0900381" lon="13.4907379"><ele>359.66666666666663</ele><time>2026-05-02T14:55:41.095Z</time></trkpt><trkpt lat="46.089973" lon="13.4909455"><ele>361.3333333333333</ele><time>2026-05-02T14:55:42.095Z</time></trkpt><trkpt lat="46.089982" lon="13.4911895"><ele>363.0</ele><time>2026-05-02T14:55:43.094Z</time></trkpt><trkpt lat="46.0899668" lon="13.4913946"><ele>364.5</ele><time>2026-05-02T14:55:44.094Z</time></trkpt><trkpt lat="46.0899578" lon="13.4916071"><ele>366.0</ele><time>2026-05-02T14:55:45.094Z</time></trkpt><trkpt lat="46.089947" lon="13.4918228"><ele>367.5</ele><time>2026-05-02T14:55:46.094Z</time></trkpt><trkpt lat="46.0899391" lon="13.4920356"><ele>369.0</ele><time>2026-05-02T14:55:47.095Z</time></trkpt><trkpt lat="46.0899307" lon="13.4922578"><ele>363.6666666666667</ele><time>2026-05-02T14:55:48.095Z</time></trkpt><trkpt lat="46.0899212" lon="13.4924754"><ele>358.33333333333337</ele><time>2026-05-02T14:55:49.094Z</time></trkpt><trkpt lat="46.0899223" lon="13.4926939"><ele>353.0</ele><time>2026-05-02T14:55:50.094Z</time></trkpt><trkpt lat="46.0899184" lon="13.4929093"><ele>357.0</ele><time>2026-05-02T14:55:51.094Z</time></trkpt><trkpt lat="46.0899196" lon="13.4931213"><ele>361.0</ele><time>2026-05-02T14:55:52.095Z</time></trkpt><trkpt lat="46.0899179" lon="13.4933293"><ele>365.0</ele><time>2026-05-02T14:55:53.094Z</time></trkpt><trkpt lat="46.0899098" lon="13.4935485"><ele>369.0</ele><time>2026-05-02T14:55:54.095Z</time></trkpt><trkpt lat="46.0899001" lon="13.4937749"><ele>375.66666666666663</ele><time>2026-05-02T14:55:55.095Z</time></trkpt><trkpt lat="46.0898782" lon="13.4939952"><ele>382.3333333333333</ele><time>2026-05-02T14:55:56.095Z</time></trkpt><trkpt lat="46.0898414" lon="13.4942138"><ele>389.0</ele><time>2026-05-02T14:55:57.094Z</time></trkpt><trkpt lat="46.0897802" lon="13.4944344"><ele>392.66666666666663</ele><time>2026-05-02T14:55:58.095Z</time></trkpt><trkpt lat="46.0896935" lon="13.4946646"><ele>396.33333333333337</ele><time>2026-05-02T14:55:59.095Z</time></trkpt><trkpt lat="46.0895711" lon="13.4949083"><ele>400.0</ele><time>2026-05-02T14:56:00.094Z</time></trkpt><trkpt lat="46.0894263" lon="13.4951107"><ele>400.0</ele><time>2026-05-02T14:56:01.094Z</time></trkpt><trkpt lat="46.0893026" lon="13.495183"><ele>400.0</ele><time>2026-05-02T14:56:02.094Z</time></trkpt><trkpt lat="46.0892495" lon="13.4952452"><ele>400.0</ele><time>2026-05-02T14:56:03.095Z</time></trkpt><trkpt lat="46.0892044" lon="13.495327"><ele>400.0</ele><time>2026-05-02T14:56:05.094Z</time></trkpt><trkpt lat="46.089168" lon="13.4954381"><ele>400.0</ele><time>2026-05-02T14:56:06.094Z</time></trkpt><trkpt lat="46.0890498" lon="13.4954889"><ele>400.0</ele><time>2026-05-02T14:56:08.095Z</time></trkpt><trkpt lat="46.0889758" lon="13.4954916"><ele>400.0</ele><time>2026-05-02T14:56:10.094Z</time></trkpt><trkpt lat="46.0894539" lon="13.494913"><ele>400.0</ele><time>2026-05-02T14:56:11.094Z</time></trkpt><trkpt lat="46.0895034" lon="13.4948129"><ele>400.0</ele><time>2026-05-02T14:56:12.095Z</time></trkpt><trkpt lat="46.0895861" lon="13.4947976"><ele>400.0</ele><time>2026-05-02T14:56:13.095Z</time></trkpt><trkpt lat="46.089698" lon="13.494837"><ele>400.0</ele><time>2026-05-02T14:56:14.094Z</time></trkpt><trkpt lat="46.0898035" lon="13.4948827"><ele>400.0</ele><time>2026-05-02T14:56:15.095Z</time></trkpt><trkpt lat="46.0898961" lon="13.4949323"><ele>402.8</ele><time>2026-05-02T14:56:16.095Z</time></trkpt><trkpt lat="46.0899703" lon="13.494997"><ele>405.6</ele><time>2026-05-02T14:56:17.095Z</time></trkpt><trkpt lat="46.0900282" lon="13.4951269"><ele>408.4</ele><time>2026-05-02T14:56:18.094Z</time></trkpt><trkpt lat="46.0900717" lon="13.495285"><ele>411.2</ele><time>2026-05-02T14:56:19.095Z</time></trkpt><trkpt lat="46.0901061" lon="13.4954571"><ele>414.0</ele><time>2026-05-02T14:56:20.095Z</time></trkpt><trkpt lat="46.0901283" lon="13.4956336"><ele>415.5</ele><time>2026-05-02T14:56:21.095Z</time></trkpt><trkpt lat="46.0901488" lon="13.4958075"><ele>417.0</ele><time>2026-05-02T14:56:22.094Z</time></trkpt><trkpt lat="46.0901666" lon="13.4959874"><ele>418.5</ele><time>2026-05-02T14:56:23.094Z</time></trkpt><trkpt lat="46.0901805" lon="13.4961749"><ele>420.0</ele><time>2026-05-02T14:56:24.094Z</time></trkpt><trkpt lat="46.0902004" lon="13.4963686"><ele>420.0</ele><time>2026-05-02T14:56:25.095Z</time></trkpt><trkpt lat="46.0902233" lon="13.4965552"><ele>420.0</ele><time>2026-05-02T14:56:26.094Z</time></trkpt><trkpt lat="46.0902494" lon="13.4967481"><ele>420.0</ele><time>2026-05-02T14:56:27.095Z</time></trkpt><trkpt lat="46.0902765" lon="13.4969462"><ele>420.0</ele><time>2026-05-02T14:56:28.094Z</time></trkpt><trkpt lat="46.0903058" lon="13.497144"><ele>420.0</ele><time>2026-05-02T14:56:29.095Z</time></trkpt><trkpt lat="46.090345" lon="13.4973446"><ele>420.0</ele><time>2026-05-02T14:56:30.094Z</time></trkpt><trkpt lat="46.0904" lon="13.4975409"><ele>420.0</ele><time>2026-05-02T14:56:31.094Z</time></trkpt><trkpt lat="46.0904588" lon="13.497744"><ele>420.0</ele><time>2026-05-02T14:56:32.094Z</time></trkpt><trkpt lat="46.0905172" lon="13.4979543"><ele>419.0</ele><time>2026-05-02T14:56:33.095Z</time></trkpt><trkpt lat="46.0905681" lon="13.4981622"><ele>418.0</ele><time>2026-05-02T14:56:34.095Z</time></trkpt><trkpt lat="46.0906177" lon="13.4983759"><ele>417.0</ele><time>2026-05-02T14:56:35.094Z</time></trkpt><trkpt lat="46.0906645" lon="13.498593"><ele>415.33333333333337</ele><time>2026-05-02T14:56:36.095Z</time></trkpt><trkpt lat="46.0907098" lon="13.4988168"><ele>413.6666666666667</ele><time>2026-05-02T14:56:37.095Z</time></trkpt><trkpt lat="46.0907555" lon="13.4990501"><ele>412.0</ele><time>2026-05-02T14:56:38.094Z</time></trkpt><trkpt lat="46.0908043" lon="13.4992893"><ele>421.6666666666667</ele><time>2026-05-02T14:56:39.094Z</time></trkpt><trkpt lat="46.0908565" lon="13.4995137"><ele>431.33333333333337</ele><time>2026-05-02T14:56:40.094Z</time></trkpt><trkpt lat="46.0909178" lon="13.4997273"><ele>441.0</ele><time>2026-05-02T14:56:41.094Z</time></trkpt><trkpt lat="46.0909794" lon="13.4999435"><ele>441.0</ele><time>2026-05-02T14:56:42.094Z</time></trkpt><trkpt lat="46.0910333" lon="13.5001608"><ele>441.0</ele><time>2026-05-02T14:56:43.094Z</time></trkpt><trkpt lat="46.0910748" lon="13.5003824"><ele>441.0</ele><time>2026-05-02T14:56:44.094Z</time></trkpt><trkpt lat="46.0911008" lon="13.5006133"><ele>442.66666666666663</ele><time>2026-05-02T14:56:45.095Z</time></trkpt><trkpt lat="46.0911093" lon="13.5008454"><ele>444.3333333333333</ele><time>2026-05-02T14:56:46.094Z</time></trkpt><trkpt lat="46.0911114" lon="13.5010833"><ele>446.0</ele><time>2026-05-02T14:56:47.095Z</time></trkpt><trkpt lat="46.0911136" lon="13.5013281"><ele>447.3333333333333</ele><time>2026-05-02T14:56:48.095Z</time></trkpt><trkpt lat="46.0911101" lon="13.5015685"><ele>448.66666666666663</ele><time>2026-05-02T14:56:49.094Z</time></trkpt><trkpt lat="46.0911126" lon="13.5017982"><ele>450.0</ele><time>2026-05-02T14:56:50.095Z</time></trkpt><trkpt lat="46.091112" lon="13.5020176"><ele>451.0</ele><time>2026-05-02T14:56:51.095Z</time></trkpt><trkpt lat="46.0911093" lon="13.5022279"><ele>452.0</ele><time>2026-05-02T14:56:52.095Z</time></trkpt><trkpt lat="46.0911032" lon="13.5024356"><ele>453.0</ele><time>2026-05-02T14:56:53.095Z</time></trkpt><trkpt lat="46.0910982" lon="13.5026437"><ele>454.0</ele><time>2026-05-02T14:56:54.095Z</time></trkpt><trkpt lat="46.0911145" lon="13.5028434"><ele>453.25</ele><time>2026-05-02T14:56:55.095Z</time></trkpt><trkpt lat="46.0911521" lon="13.5030313"><ele>452.5</ele><time>2026-05-02T14:56:56.094Z</time></trkpt><trkpt lat="46.091211" lon="13.5032136"><ele>451.75</ele><time>2026-05-02T14:56:57.094Z</time></trkpt><trkpt lat="46.0912949" lon="13.503399"><ele>451.0</ele><time>2026-05-02T14:56:58.094Z</time></trkpt><trkpt lat="46.0914006" lon="13.5035729"><ele>447.33333333333337</ele><time>2026-05-02T14:56:59.095Z</time></trkpt><trkpt lat="46.0915098" lon="13.5037488"><ele>443.66666666666663</ele><time>2026-05-02T14:57:00.094Z</time></trkpt><trkpt lat="46.0916179" lon="13.5039234"><ele>440.0</ele><time>2026-05-02T14:57:01.094Z</time></trkpt><trkpt lat="46.0917255" lon="13.5040935"><ele>448.0</ele><time>2026-05-02T14:57:02.094Z</time></trkpt><trkpt lat="46.0918252" lon="13.504258"><ele>456.0</ele><time>2026-05-02T14:57:03.094Z</time></trkpt><trkpt lat="46.0919209" lon="13.5044266"><ele>464.0</ele><time>2026-05-02T14:57:04.095Z</time></trkpt><trkpt lat="46.0920137" lon="13.5045854"><ele>472.0</ele><time>2026-05-02T14:57:05.094Z</time></trkpt><trkpt lat="46.092096" lon="13.5047273"><ele>472.0</ele><time>2026-05-02T14:57:06.094Z</time></trkpt><trkpt lat="46.0921685" lon="13.504846"><ele>472.00000000000006</ele><time>2026-05-02T14:57:07.094Z</time></trkpt><trkpt lat="46.0922597" lon="13.5049269"><ele>472.00000000000006</ele><time>2026-05-02T14:57:08.095Z</time></trkpt><trkpt lat="46.0923608" lon="13.5049656"><ele>472.0</ele><time>2026-05-02T14:57:09.094Z</time></trkpt><trkpt lat="46.0924432" lon="13.5049942"><ele>472.0</ele><time>2026-05-02T14:57:10.094Z</time></trkpt><trkpt lat="46.0925375" lon="13.5050174"><ele>474.85714285714283</ele><time>2026-05-02T14:57:12.094Z</time></trkpt><trkpt lat="46.0925825" lon="13.5049423"><ele>477.7142857142858</ele><time>2026-05-02T14:57:14.095Z</time></trkpt><trkpt lat="46.0926403" lon="13.5048683"><ele>480.5714285714286</ele><time>2026-05-02T14:57:16.094Z</time></trkpt><trkpt lat="46.0927074" lon="13.504839"><ele>483.42857142857144</ele><time>2026-05-02T14:57:20.095Z</time></trkpt><trkpt lat="46.0927716" lon="13.504831"><ele>486.28571428571433</ele><time>2026-05-02T14:57:21.095Z</time></trkpt><trkpt lat="46.0928483" lon="13.5048268"><ele>489.1428571428572</ele><time>2026-05-02T14:57:22.095Z</time></trkpt><trkpt lat="46.0929381" lon="13.5048058"><ele>492.00000000000006</ele><time>2026-05-02T14:57:23.094Z</time></trkpt><trkpt lat="46.0930333" lon="13.5047944"><ele>492.0</ele><time>2026-05-02T14:57:24.094Z</time></trkpt><trkpt lat="46.0931184" lon="13.5047861"><ele>492.0</ele><time>2026-05-02T14:57:25.094Z</time></trkpt><trkpt lat="46.0931997" lon="13.5047915"><ele>492.0</ele><time>2026-05-02T14:57:26.095Z</time></trkpt><trkpt lat="46.0932774" lon="13.5048055"><ele>492.0</ele><time>2026-05-02T14:57:27.094Z</time></trkpt><trkpt lat="46.0933554" lon="13.5048548"><ele>492.0</ele><time>2026-05-02T14:57:28.094Z</time></trkpt><trkpt lat="46.0934409" lon="13.5049339"><ele>492.0</ele><time>2026-05-02T14:57:29.094Z</time></trkpt><trkpt lat="46.0935371" lon="13.5050307"><ele>493.0</ele><time>2026-05-02T14:57:30.094Z</time></trkpt><trkpt lat="46.0936362" lon="13.5051181"><ele>494.00000000000006</ele><time>2026-05-02T14:57:31.094Z</time></trkpt><trkpt lat="46.0937274" lon="13.505202"><ele>495.00000000000006</ele><time>2026-05-02T14:57:32.095Z</time></trkpt><trkpt lat="46.0938147" lon="13.505268"><ele>496.0</ele><time>2026-05-02T14:57:33.094Z</time></trkpt><trkpt lat="46.0938888" lon="13.5053427"><ele>497.0</ele><time>2026-05-02T14:57:34.094Z</time></trkpt><trkpt lat="46.0939598" lon="13.5054181"><ele>496.99999999999994</ele><time>2026-05-02T14:57:35.094Z</time></trkpt><trkpt lat="46.0940241" lon="13.5054669"><ele>497.0</ele><time>2026-05-02T14:57:36.094Z</time></trkpt><trkpt lat="46.094092" lon="13.5055273"><ele>497.0</ele><time>2026-05-02T14:57:37.095Z</time></trkpt><trkpt lat="46.0941567" lon="13.5055712"><ele>497.0</ele><time>2026-05-02T14:57:38.095Z</time></trkpt><trkpt lat="46.0942271" lon="13.5056004"><ele>496.99999999999994</ele><time>2026-05-02T14:57:39.094Z</time></trkpt><trkpt lat="46.0942925" lon="13.5056201"><ele>497.0</ele><time>2026-05-02T14:57:40.094Z</time></trkpt><trkpt lat="46.0944141" lon="13.5056436"><ele>496.99999999999994</ele><time>2026-05-02T14:57:42.095Z</time></trkpt><trkpt lat="46.0945397" lon="13.5056299"><ele>497.0</ele><time>2026-05-02T14:57:44.095Z</time></trkpt><trkpt lat="46.0946054" lon="13.5055978"><ele>497.0</ele><time>2026-05-02T14:57:45.094Z</time></trkpt><trkpt lat="46.0946654" lon="13.5055519"><ele>497.0</ele><time>2026-05-02T14:57:46.094Z</time></trkpt><trkpt lat="46.0947245" lon="13.5054881"><ele>496.99999999999994</ele><time>2026-05-02T14:57:47.094Z</time></trkpt><trkpt lat="46.0947823" lon="13.5054188"><ele>497.0</ele><time>2026-05-02T14:57:48.094Z</time></trkpt><trkpt lat="46.0948394" lon="13.5053559"><ele>494.3333333333333</ele><time>2026-05-02T14:57:49.094Z</time></trkpt><trkpt lat="46.0948922" lon="13.5053023"><ele>491.66666666666663</ele><time>2026-05-02T14:57:50.094Z</time></trkpt><trkpt lat="46.0949729" lon="13.5052481"><ele>489.0</ele><time>2026-05-02T14:57:52.095Z</time></trkpt><trkpt lat="46.0950695" lon="13.5052362"><ele>486.33333333333337</ele><time>2026-05-02T14:57:54.094Z</time></trkpt><trkpt lat="46.0951923" lon="13.5052531"><ele>483.6666666666667</ele><time>2026-05-02T14:57:56.094Z</time></trkpt><trkpt lat="46.0952619" lon="13.5052573"><ele>481.0</ele><time>2026-05-02T14:57:57.095Z</time></trkpt><trkpt lat="46.09533" lon="13.505254"><ele>478.83333333333337</ele><time>2026-05-02T14:57:58.094Z</time></trkpt><trkpt lat="46.0954089" lon="13.5052527"><ele>476.6666666666667</ele><time>2026-05-02T14:57:59.094Z</time></trkpt><trkpt lat="46.0954726" lon="13.5052303"><ele>474.5</ele><time>2026-05-02T14:58:00.095Z</time></trkpt><trkpt lat="46.0955282" lon="13.5051788"><ele>472.33333333333337</ele><time>2026-05-02T14:58:01.095Z</time></trkpt><trkpt lat="46.0955876" lon="13.5051015"><ele>470.1666666666667</ele><time>2026-05-02T14:58:02.094Z</time></trkpt><trkpt lat="46.0956325" lon="13.5050146"><ele>468.0</ele><time>2026-05-02T14:58:03.094Z</time></trkpt><trkpt lat="46.095684" lon="13.5049158"><ele>468.0</ele><time>2026-05-02T14:58:04.094Z</time></trkpt><trkpt lat="46.0957454" lon="13.5048101"><ele>468.0</ele><time>2026-05-02T14:58:05.094Z</time></trkpt><trkpt lat="46.0958016" lon="13.5047055"><ele>468.0</ele><time>2026-05-02T14:58:06.095Z</time></trkpt><trkpt lat="46.0958618" lon="13.5046165"><ele>468.0</ele><time>2026-05-02T14:58:07.095Z</time></trkpt><trkpt lat="46.095919" lon="13.5045294"><ele>468.0</ele><time>2026-05-02T14:58:08.094Z</time></trkpt><trkpt lat="46.0959827" lon="13.5044503"><ele>468.0</ele><time>2026-05-02T14:58:09.094Z</time></trkpt><trkpt lat="46.0960404" lon="13.5043731"><ele>466.0</ele><time>2026-05-02T14:58:10.094Z</time></trkpt><trkpt lat="46.0960944" lon="13.5043129"><ele>464.00000000000006</ele><time>2026-05-02T14:58:11.095Z</time></trkpt><trkpt lat="46.0961467" lon="13.5042611"><ele>462.0</ele><time>2026-05-02T14:58:12.095Z</time></trkpt><trkpt lat="46.0962171" lon="13.5042"><ele>460.0</ele><time>2026-05-02T14:58:13.094Z</time></trkpt><trkpt lat="46.0962802" lon="13.5041389"><ele>458.00000000000006</ele><time>2026-05-02T14:58:14.095Z</time></trkpt><trkpt lat="46.0963383" lon="13.5040776"><ele>456.0</ele><time>2026-05-02T14:58:15.094Z</time></trkpt><trkpt lat="46.0964068" lon="13.5040138"><ele>454.0</ele><time>2026-05-02T14:58:16.094Z</time></trkpt><trkpt lat="46.0964769" lon="13.5039498"><ele>454.0</ele><time>2026-05-02T14:58:17.094Z</time></trkpt><trkpt lat="46.0965403" lon="13.5038927"><ele>454.00000000000006</ele><time>2026-05-02T14:58:18.094Z</time></trkpt><trkpt lat="46.0965963" lon="13.5038314"><ele>454.0</ele><time>2026-05-02T14:58:19.095Z</time></trkpt><trkpt lat="46.0966545" lon="13.5037659"><ele>454.0</ele><time>2026-05-02T14:58:20.094Z</time></trkpt><trkpt lat="46.0967158" lon="13.5036954"><ele>454.00000000000006</ele><time>2026-05-02T14:58:21.094Z</time></trkpt><trkpt lat="46.0967786" lon="13.5036343"><ele>454.0</ele><time>2026-05-02T14:58:22.094Z</time></trkpt><trkpt lat="46.0968328" lon="13.5035836"><ele>454.0</ele><time>2026-05-02T14:58:23.095Z</time></trkpt><trkpt lat="46.0968912" lon="13.5035456"><ele>453.14285714285717</ele><time>2026-05-02T14:58:24.095Z</time></trkpt><trkpt lat="46.0969476" lon="13.5035012"><ele>452.28571428571433</ele><time>2026-05-02T14:58:25.093Z</time></trkpt><trkpt lat="46.0970041" lon="13.5034611"><ele>451.42857142857144</ele><time>2026-05-02T14:58:26.094Z</time></trkpt><trkpt lat="46.0970616" lon="13.5034239"><ele>450.57142857142856</ele><time>2026-05-02T14:58:27.094Z</time></trkpt><trkpt lat="46.097127" lon="13.5033868"><ele>449.7142857142857</ele><time>2026-05-02T14:58:28.093Z</time></trkpt><trkpt lat="46.0971975" lon="13.5033497"><ele>448.8571428571429</ele><time>2026-05-02T14:58:29.093Z</time></trkpt><trkpt lat="46.0972757" lon="13.5033097"><ele>448.0</ele><time>2026-05-02T14:58:30.093Z</time></trkpt><trkpt lat="46.0973504" lon="13.5032622"><ele>446.33333333333337</ele><time>2026-05-02T14:58:31.093Z</time></trkpt><trkpt lat="46.0974218" lon="13.5032349"><ele>444.6666666666667</ele><time>2026-05-02T14:58:32.094Z</time></trkpt><trkpt lat="46.0974922" lon="13.5031972"><ele>443.0</ele><time>2026-05-02T14:58:33.093Z</time></trkpt><trkpt lat="46.0975589" lon="13.5031535"><ele>441.33333333333337</ele><time>2026-05-02T14:58:34.093Z</time></trkpt><trkpt lat="46.0976288" lon="13.5031116"><ele>439.6666666666667</ele><time>2026-05-02T14:58:35.093Z</time></trkpt><trkpt lat="46.097703" lon="13.5030737"><ele>438.0</ele><time>2026-05-02T14:58:36.093Z</time></trkpt><trkpt lat="46.0977715" lon="13.5030309"><ele>438.0</ele><time>2026-05-02T14:58:37.093Z</time></trkpt><trkpt lat="46.0978516" lon="13.5029915"><ele>438.0</ele><time>2026-05-02T14:58:38.093Z</time></trkpt><trkpt lat="46.097941" lon="13.5029346"><ele>438.0</ele><time>2026-05-02T14:58:39.093Z</time></trkpt><trkpt lat="46.0980192" lon="13.5028975"><ele>438.0</ele><time>2026-05-02T14:58:40.093Z</time></trkpt><trkpt lat="46.098096" lon="13.502863"><ele>438.0</ele><time>2026-05-02T14:58:41.093Z</time></trkpt><trkpt lat="46.0981722" lon="13.5028184"><ele>438.0</ele><time>2026-05-02T14:58:42.093Z</time></trkpt><trkpt lat="46.0982423" lon="13.5027685"><ele>437.3333333333333</ele><time>2026-05-02T14:58:43.093Z</time></trkpt><trkpt lat="46.0983055" lon="13.5027112"><ele>436.66666666666663</ele><time>2026-05-02T14:58:44.093Z</time></trkpt><trkpt lat="46.0983704" lon="13.502635"><ele>436.0</ele><time>2026-05-02T14:58:45.093Z</time></trkpt><trkpt lat="46.0984344" lon="13.5025577"><ele>435.3333333333333</ele><time>2026-05-02T14:58:46.094Z</time></trkpt><trkpt lat="46.0984973" lon="13.5024661"><ele>434.66666666666663</ele><time>2026-05-02T14:58:47.094Z</time></trkpt><trkpt lat="46.0985618" lon="13.5023485"><ele>434.0</ele><time>2026-05-02T14:58:48.094Z</time></trkpt><trkpt lat="46.0986362" lon="13.5022328"><ele>434.0</ele><time>2026-05-02T14:58:49.093Z</time></trkpt><trkpt lat="46.098716" lon="13.5021238"><ele>434.0</ele><time>2026-05-02T14:58:50.093Z</time></trkpt><trkpt lat="46.0987853" lon="13.5020188"><ele>434.0</ele><time>2026-05-02T14:58:51.093Z</time></trkpt><trkpt lat="46.0988433" lon="13.5019169"><ele>434.0</ele><time>2026-05-02T14:58:52.093Z</time></trkpt><trkpt lat="46.0989069" lon="13.5018196"><ele>434.0</ele><time>2026-05-02T14:58:53.094Z</time></trkpt><trkpt lat="46.0989709" lon="13.5017225"><ele>432.8333333333333</ele><time>2026-05-02T14:58:54.093Z</time></trkpt><trkpt lat="46.099038" lon="13.5016385"><ele>431.66666666666663</ele><time>2026-05-02T14:58:55.093Z</time></trkpt><trkpt lat="46.0991069" lon="13.501564"><ele>430.5</ele><time>2026-05-02T14:58:56.093Z</time></trkpt><trkpt lat="46.0991657" lon="13.5014893"><ele>429.33333333333337</ele><time>2026-05-02T14:58:57.094Z</time></trkpt><trkpt lat="46.0992128" lon="13.5014144"><ele>428.1666666666667</ele><time>2026-05-02T14:58:58.094Z</time></trkpt><trkpt lat="46.0992557" lon="13.501328"><ele>427.0</ele><time>2026-05-02T14:58:59.094Z</time></trkpt><trkpt lat="46.0992878" lon="13.5012384"><ele>425.6</ele><time>2026-05-02T14:59:00.094Z</time></trkpt><trkpt lat="46.0993213" lon="13.5011333"><ele>424.20000000000005</ele><time>2026-05-02T14:59:01.093Z</time></trkpt><trkpt lat="46.0993477" lon="13.5010147"><ele>422.8</ele><time>2026-05-02T14:59:02.093Z</time></trkpt><trkpt lat="46.0993744" lon="13.5008801"><ele>421.4</ele><time>2026-05-02T14:59:03.094Z</time></trkpt><trkpt lat="46.0993958" lon="13.5007392"><ele>420.0</ele><time>2026-05-02T14:59:04.093Z</time></trkpt><trkpt lat="46.0994166" lon="13.5005866"><ele>420.0</ele><time>2026-05-02T14:59:05.093Z</time></trkpt><trkpt lat="46.099443" lon="13.5004367"><ele>420.0</ele><time>2026-05-02T14:59:06.093Z</time></trkpt><trkpt lat="46.0994612" lon="13.500284"><ele>420.0</ele><time>2026-05-02T14:59:07.094Z</time></trkpt><trkpt lat="46.0994759" lon="13.5001338"><ele>420.0</ele><time>2026-05-02T14:59:08.093Z</time></trkpt><trkpt lat="46.099491" lon="13.4999844"><ele>420.0</ele><time>2026-05-02T14:59:09.093Z</time></trkpt><trkpt lat="46.0994988" lon="13.4998314"><ele>418.6</ele><time>2026-05-02T14:59:10.094Z</time></trkpt><trkpt lat="46.0995064" lon="13.4996867"><ele>417.2</ele><time>2026-05-02T14:59:11.093Z</time></trkpt><trkpt lat="46.0995211" lon="13.4995396"><ele>415.79999999999995</ele><time>2026-05-02T14:59:12.093Z</time></trkpt><trkpt lat="46.0995511" lon="13.4994053"><ele>414.4</ele><time>2026-05-02T14:59:13.093Z</time></trkpt><trkpt lat="46.0995905" lon="13.4992769"><ele>413.0</ele><time>2026-05-02T14:59:14.093Z</time></trkpt><trkpt lat="46.0996362" lon="13.4991457"><ele>411.59999999999997</ele><time>2026-05-02T14:59:15.094Z</time></trkpt><trkpt lat="46.0996914" lon="13.4990026"><ele>410.2</ele><time>2026-05-02T14:59:16.093Z</time></trkpt><trkpt lat="46.0997484" lon="13.4988604"><ele>408.8</ele><time>2026-05-02T14:59:17.093Z</time></trkpt><trkpt lat="46.0998062" lon="13.4987194"><ele>407.4</ele><time>2026-05-02T14:59:18.093Z</time></trkpt><trkpt lat="46.0998523" lon="13.4985894"><ele>406.0</ele><time>2026-05-02T14:59:19.093Z</time></trkpt><trkpt lat="46.0998942" lon="13.4984646"><ele>408.0</ele><time>2026-05-02T14:59:20.093Z</time></trkpt><trkpt lat="46.0999399" lon="13.4983367"><ele>410.0</ele><time>2026-05-02T14:59:21.093Z</time></trkpt><trkpt lat="46.099975" lon="13.4982146"><ele>412.0</ele><time>2026-05-02T14:59:22.093Z</time></trkpt><trkpt lat="46.1000138" lon="13.498092"><ele>414.0</ele><time>2026-05-02T14:59:23.093Z</time></trkpt><trkpt lat="46.1000554" lon="13.4979668"><ele>416.0</ele><time>2026-05-02T14:59:24.093Z</time></trkpt><trkpt lat="46.1001005" lon="13.4978409"><ele>416.0</ele><time>2026-05-02T14:59:25.093Z</time></trkpt><trkpt lat="46.1001459" lon="13.4977072"><ele>416.0</ele><time>2026-05-02T14:59:26.094Z</time></trkpt><trkpt lat="46.1001849" lon="13.4975757"><ele>416.0</ele><time>2026-05-02T14:59:27.093Z</time></trkpt><trkpt lat="46.1002164" lon="13.4974324"><ele>416.0</ele><time>2026-05-02T14:59:28.093Z</time></trkpt><trkpt lat="46.1002497" lon="13.4972878"><ele>416.0</ele><time>2026-05-02T14:59:29.093Z</time></trkpt><trkpt lat="46.1002781" lon="13.4971355"><ele>414.4</ele><time>2026-05-02T14:59:30.094Z</time></trkpt><trkpt lat="46.1003114" lon="13.4969823"><ele>412.8</ele><time>2026-05-02T14:59:31.093Z</time></trkpt><trkpt lat="46.1003404" lon="13.4968273"><ele>411.2</ele><time>2026-05-02T14:59:32.093Z</time></trkpt><trkpt lat="46.1003616" lon="13.4966826"><ele>409.59999999999997</ele><time>2026-05-02T14:59:33.093Z</time></trkpt><trkpt lat="46.1003907" lon="13.4965561"><ele>408.0</ele><time>2026-05-02T14:59:34.093Z</time></trkpt><trkpt lat="46.1004183" lon="13.4964377"><ele>408.0</ele><time>2026-05-02T14:59:35.094Z</time></trkpt><trkpt lat="46.1004456" lon="13.4963134"><ele>408.0</ele><time>2026-05-02T14:59:36.093Z</time></trkpt><trkpt lat="46.1004713" lon="13.4961991"><ele>408.0</ele><time>2026-05-02T14:59:37.093Z</time></trkpt><trkpt lat="46.1004919" lon="13.496077"><ele>408.0</ele><time>2026-05-02T14:59:38.093Z</time></trkpt><trkpt lat="46.1005222" lon="13.4959692"><ele>408.0</ele><time>2026-05-02T14:59:39.093Z</time></trkpt><trkpt lat="46.1005549" lon="13.4958413"><ele>408.0</ele><time>2026-05-02T14:59:40.093Z</time></trkpt><trkpt lat="46.1005975" lon="13.495718"><ele>409.1666666666667</ele><time>2026-05-02T14:59:41.094Z</time></trkpt><trkpt lat="46.1006425" lon="13.4956029"><ele>410.33333333333337</ele><time>2026-05-02T14:59:42.093Z</time></trkpt><trkpt lat="46.1006908" lon="13.4955026"><ele>411.5</ele><time>2026-05-02T14:59:43.094Z</time></trkpt><trkpt lat="46.1007442" lon="13.4954051"><ele>412.6666666666667</ele><time>2026-05-02T14:59:44.094Z</time></trkpt><trkpt lat="46.100795" lon="13.4953007"><ele>413.83333333333337</ele><time>2026-05-02T14:59:45.094Z</time></trkpt><trkpt lat="46.1008463" lon="13.4951885"><ele>415.0</ele><time>2026-05-02T14:59:46.094Z</time></trkpt><trkpt lat="46.1008936" lon="13.4950843"><ele>415.00000000000006</ele><time>2026-05-02T14:59:47.094Z</time></trkpt><trkpt lat="46.1009358" lon="13.4949807"><ele>415.0</ele><time>2026-05-02T14:59:48.094Z</time></trkpt><trkpt lat="46.1009883" lon="13.494877"><ele>415.0</ele><time>2026-05-02T14:59:49.093Z</time></trkpt><trkpt lat="46.1010406" lon="13.4947645"><ele>415.0</ele><time>2026-05-02T14:59:50.094Z</time></trkpt><trkpt lat="46.1010925" lon="13.4946621"><ele>415.00000000000006</ele><time>2026-05-02T14:59:51.094Z</time></trkpt><trkpt lat="46.1011397" lon="13.4945595"><ele>415.0</ele><time>2026-05-02T14:59:52.093Z</time></trkpt><trkpt lat="46.10119" lon="13.4944667"><ele>412.83333333333337</ele><time>2026-05-02T14:59:53.093Z</time></trkpt><trkpt lat="46.1012292" lon="13.4943814"><ele>410.6666666666667</ele><time>2026-05-02T14:59:54.093Z</time></trkpt><trkpt lat="46.1012715" lon="13.4942884"><ele>408.5</ele><time>2026-05-02T14:59:55.093Z</time></trkpt><trkpt lat="46.1013102" lon="13.4941954"><ele>406.33333333333337</ele><time>2026-05-02T14:59:56.093Z</time></trkpt><trkpt lat="46.1013615" lon="13.4940943"><ele>404.1666666666667</ele><time>2026-05-02T14:59:57.093Z</time></trkpt><trkpt lat="46.1014094" lon="13.4939857"><ele>402.0</ele><time>2026-05-02T14:59:58.094Z</time></trkpt><trkpt lat="46.1014636" lon="13.4938909"><ele>402.0</ele><time>2026-05-02T14:59:59.093Z</time></trkpt><trkpt lat="46.101515" lon="13.4937978"><ele>402.0</ele><time>2026-05-02T15:00:00.094Z</time></trkpt><trkpt lat="46.1015649" lon="13.4937175"><ele>402.0</ele><time>2026-05-02T15:00:01.094Z</time></trkpt><trkpt lat="46.1016133" lon="13.4936389"><ele>402.0</ele><time>2026-05-02T15:00:02.094Z</time></trkpt><trkpt lat="46.1016621" lon="13.4935611"><ele>402.0</ele><time>2026-05-02T15:00:03.093Z</time></trkpt><trkpt lat="46.1017139" lon="13.4934942"><ele>402.0</ele><time>2026-05-02T15:00:04.093Z</time></trkpt><trkpt lat="46.1017845" lon="13.4934285"><ele>402.0</ele><time>2026-05-02T15:00:05.093Z</time></trkpt><trkpt lat="46.1018489" lon="13.4933577"><ele>402.0</ele><time>2026-05-02T15:00:06.094Z</time></trkpt><trkpt lat="46.1019106" lon="13.4932836"><ele>402.0</ele><time>2026-05-02T15:00:07.094Z</time></trkpt><trkpt lat="46.1019624" lon="13.4932021"><ele>402.0</ele><time>2026-05-02T15:00:08.094Z</time></trkpt><trkpt lat="46.1020024" lon="13.4931001"><ele>402.0</ele><time>2026-05-02T15:00:09.094Z</time></trkpt><trkpt lat="46.1020483" lon="13.4929892"><ele>402.0</ele><time>2026-05-02T15:00:10.093Z</time></trkpt><trkpt lat="46.1020983" lon="13.4928728"><ele>399.8</ele><time>2026-05-02T15:00:11.094Z</time></trkpt><trkpt lat="46.1021406" lon="13.4927577"><ele>397.6</ele><time>2026-05-02T15:00:12.094Z</time></trkpt><trkpt lat="46.102189" lon="13.4926386"><ele>395.40000000000003</ele><time>2026-05-02T15:00:13.093Z</time></trkpt><trkpt lat="46.1022374" lon="13.4925146"><ele>393.20000000000005</ele><time>2026-05-02T15:00:14.093Z</time></trkpt><trkpt lat="46.1022893" lon="13.4923853"><ele>391.0</ele><time>2026-05-02T15:00:15.094Z</time></trkpt><trkpt lat="46.1023374" lon="13.4922583"><ele>391.0</ele><time>2026-05-02T15:00:16.093Z</time></trkpt><trkpt lat="46.1023828" lon="13.4921283"><ele>391.0</ele><time>2026-05-02T15:00:17.093Z</time></trkpt><trkpt lat="46.1024257" lon="13.4920029"><ele>391.0</ele><time>2026-05-02T15:00:18.094Z</time></trkpt><trkpt lat="46.1024731" lon="13.4918841"><ele>391.0</ele><time>2026-05-02T15:00:19.094Z</time></trkpt><trkpt lat="46.1025126" lon="13.4917704"><ele>391.0</ele><time>2026-05-02T15:00:20.093Z</time></trkpt><trkpt lat="46.1025516" lon="13.4916638"><ele>391.6666666666667</ele><time>2026-05-02T15:00:21.093Z</time></trkpt><trkpt lat="46.1025855" lon="13.4915555"><ele>392.33333333333337</ele><time>2026-05-02T15:00:22.093Z</time></trkpt><trkpt lat="46.1026202" lon="13.4914533"><ele>393.0</ele><time>2026-05-02T15:00:23.093Z</time></trkpt><trkpt lat="46.1026561" lon="13.4913464"><ele>393.66666666666663</ele><time>2026-05-02T15:00:24.094Z</time></trkpt><trkpt lat="46.1026882" lon="13.4912526"><ele>394.3333333333333</ele><time>2026-05-02T15:00:25.093Z</time></trkpt><trkpt lat="46.102726" lon="13.4911665"><ele>395.0</ele><time>2026-05-02T15:00:26.093Z</time></trkpt><trkpt lat="46.1027627" lon="13.4910861"><ele>394.99999999999994</ele><time>2026-05-02T15:00:27.093Z</time></trkpt><trkpt lat="46.1028585" lon="13.4909866"><ele>395.0</ele><time>2026-05-02T15:00:29.093Z</time></trkpt><trkpt lat="46.1029354" lon="13.4909669"><ele>395.0</ele><time>2026-05-02T15:00:30.093Z</time></trkpt><trkpt lat="46.1030114" lon="13.4909812"><ele>395.0</ele><time>2026-05-02T15:00:31.093Z</time></trkpt><trkpt lat="46.1030716" lon="13.4909208"><ele>394.99999999999994</ele><time>2026-05-02T15:00:33.094Z</time></trkpt><trkpt lat="46.1030277" lon="13.4908253"><ele>395.0</ele><time>2026-05-02T15:00:34.093Z</time></trkpt><trkpt lat="46.1029614" lon="13.490703"><ele>395.0</ele><time>2026-05-02T15:00:35.093Z</time></trkpt><trkpt lat="46.1028901" lon="13.4905785"><ele>395.0</ele><time>2026-05-02T15:00:36.094Z</time></trkpt><trkpt lat="46.1028114" lon="13.4904592"><ele>395.0</ele><time>2026-05-02T15:00:37.093Z</time></trkpt><trkpt lat="46.1027439" lon="13.490376"><ele>395.0</ele><time>2026-05-02T15:00:38.094Z</time></trkpt><trkpt lat="46.1026958" lon="13.4903002"><ele>395.0</ele><time>2026-05-02T15:00:39.093Z</time></trkpt><trkpt lat="46.1027343" lon="13.4901522"><ele>392.3333333333333</ele><time>2026-05-02T15:00:41.094Z</time></trkpt><trkpt lat="46.1027952" lon="13.4901091"><ele>389.66666666666663</ele><time>2026-05-02T15:00:42.093Z</time></trkpt><trkpt lat="46.1028729" lon="13.490126"><ele>387.0</ele><time>2026-05-02T15:00:43.093Z</time></trkpt><trkpt lat="46.1029722" lon="13.490107"><ele>384.3333333333333</ele><time>2026-05-02T15:00:44.093Z</time></trkpt><trkpt lat="46.1030528" lon="13.4900226"><ele>381.66666666666663</ele><time>2026-05-02T15:00:45.093Z</time></trkpt><trkpt lat="46.1030763" lon="13.4899245"><ele>379.0</ele><time>2026-05-02T15:00:46.093Z</time></trkpt><trkpt lat="46.1030952" lon="13.4898304"><ele>379.0</ele><time>2026-05-02T15:00:47.093Z</time></trkpt><trkpt lat="46.1031059" lon="13.4897299"><ele>379.0</ele><time>2026-05-02T15:00:48.094Z</time></trkpt><trkpt lat="46.1031164" lon="13.4896096"><ele>379.0</ele><time>2026-05-02T15:00:49.094Z</time></trkpt><trkpt lat="46.1031106" lon="13.4895006"><ele>379.0</ele><time>2026-05-02T15:00:50.093Z</time></trkpt><trkpt lat="46.1031002" lon="13.4893822"><ele>379.0</ele><time>2026-05-02T15:00:51.094Z</time></trkpt><trkpt lat="46.1030849" lon="13.4892642"><ele>379.0</ele><time>2026-05-02T15:00:52.093Z</time></trkpt><trkpt lat="46.1030745" lon="13.4891501"><ele>375.2</ele><time>2026-05-02T15:00:53.093Z</time></trkpt><trkpt lat="46.1030638" lon="13.489038"><ele>371.4</ele><time>2026-05-02T15:00:54.093Z</time></trkpt><trkpt lat="46.1030523" lon="13.488921"><ele>367.6</ele><time>2026-05-02T15:00:55.094Z</time></trkpt><trkpt lat="46.1030435" lon="13.4887968"><ele>363.8</ele><time>2026-05-02T15:00:56.093Z</time></trkpt><trkpt lat="46.1030419" lon="13.4886489"><ele>360.0</ele><time>2026-05-02T15:00:57.094Z</time></trkpt><trkpt lat="46.103044" lon="13.4884972"><ele>358.6666666666667</ele><time>2026-05-02T15:00:58.093Z</time></trkpt><trkpt lat="46.1030576" lon="13.4883529"><ele>357.3333333333333</ele><time>2026-05-02T15:00:59.094Z</time></trkpt><trkpt lat="46.1030738" lon="13.4882204"><ele>356.0</ele><time>2026-05-02T15:01:00.093Z</time></trkpt><trkpt lat="46.1030808" lon="13.4881048"><ele>354.66666666666663</ele><time>2026-05-02T15:01:01.094Z</time></trkpt><trkpt lat="46.103079" lon="13.4880004"><ele>353.3333333333333</ele><time>2026-05-02T15:01:02.094Z</time></trkpt><trkpt lat="46.1030596" lon="13.4878965"><ele>352.0</ele><time>2026-05-02T15:01:03.094Z</time></trkpt><trkpt lat="46.1030301" lon="13.4877757"><ele>351.20000000000005</ele><time>2026-05-02T15:01:04.093Z</time></trkpt><trkpt lat="46.1030097" lon="13.4876765"><ele>350.4</ele><time>2026-05-02T15:01:05.093Z</time></trkpt><trkpt lat="46.1029852" lon="13.4875043"><ele>349.6</ele><time>2026-05-02T15:01:07.093Z</time></trkpt><trkpt lat="46.1029928" lon="13.4874135"><ele>348.79999999999995</ele><time>2026-05-02T15:01:08.094Z</time></trkpt><trkpt lat="46.1030181" lon="13.4872312"><ele>348.0</ele><time>2026-05-02T15:01:10.093Z</time></trkpt><trkpt lat="46.1030472" lon="13.4871269"><ele>346.5</ele><time>2026-05-02T15:01:11.093Z</time></trkpt><trkpt lat="46.1030745" lon="13.487035"><ele>345.0</ele><time>2026-05-02T15:01:12.093Z</time></trkpt><trkpt lat="46.1031312" lon="13.4868937"><ele>343.5</ele><time>2026-05-02T15:01:14.094Z</time></trkpt><trkpt lat="46.1031499" lon="13.4868024"><ele>342.0</ele><time>2026-05-02T15:01:15.094Z</time></trkpt><trkpt lat="46.103177" lon="13.4867068"><ele>340.5</ele><time>2026-05-02T15:01:16.093Z</time></trkpt><trkpt lat="46.1032002" lon="13.4866072"><ele>339.0</ele><time>2026-05-02T15:01:17.093Z</time></trkpt><trkpt lat="46.1032101" lon="13.4864963"><ele>339.0</ele><time>2026-05-02T15:01:18.094Z</time></trkpt><trkpt lat="46.1032089" lon="13.486374"><ele>339.0</ele><time>2026-05-02T15:01:19.093Z</time></trkpt><trkpt lat="46.1032013" lon="13.4862472"><ele>339.0</ele><time>2026-05-02T15:01:20.093Z</time></trkpt><trkpt lat="46.1031901" lon="13.4861115"><ele>339.0</ele><time>2026-05-02T15:01:21.094Z</time></trkpt><trkpt lat="46.1031863" lon="13.4859943"><ele>339.0</ele><time>2026-05-02T15:01:22.093Z</time></trkpt><trkpt lat="46.1031799" lon="13.48588"><ele>339.0</ele><time>2026-05-02T15:01:23.093Z</time></trkpt><trkpt lat="46.1031696" lon="13.4857668"><ele>337.5</ele><time>2026-05-02T15:01:24.093Z</time></trkpt><trkpt lat="46.1031593" lon="13.4856599"><ele>336.0</ele><time>2026-05-02T15:01:25.094Z</time></trkpt><trkpt lat="46.1031478" lon="13.4855534"><ele>334.5</ele><time>2026-05-02T15:01:26.094Z</time></trkpt><trkpt lat="46.1031398" lon="13.4854488"><ele>333.0</ele><time>2026-05-02T15:01:27.093Z</time></trkpt><trkpt lat="46.1031331" lon="13.4853398"><ele>331.5</ele><time>2026-05-02T15:01:28.093Z</time></trkpt><trkpt lat="46.1031298" lon="13.4852296"><ele>330.0</ele><time>2026-05-02T15:01:29.094Z</time></trkpt><trkpt lat="46.1031357" lon="13.4851153"><ele>329.3333333333333</ele><time>2026-05-02T15:01:30.093Z</time></trkpt><trkpt lat="46.1031362" lon="13.4850087"><ele>328.6666666666667</ele><time>2026-05-02T15:01:31.093Z</time></trkpt><trkpt lat="46.1031412" lon="13.4848906"><ele>328.0</ele><time>2026-05-02T15:01:32.093Z</time></trkpt><trkpt lat="46.1031491" lon="13.4847816"><ele>327.33333333333337</ele><time>2026-05-02T15:01:33.094Z</time></trkpt><trkpt lat="46.1031543" lon="13.4846716"><ele>326.6666666666667</ele><time>2026-05-02T15:01:34.093Z</time></trkpt><trkpt lat="46.1031587" lon="13.4845576"><ele>326.0</ele><time>2026-05-02T15:01:35.093Z</time></trkpt><trkpt lat="46.1031712" lon="13.484444"><ele>325.14285714285717</ele><time>2026-05-02T15:01:36.093Z</time></trkpt><trkpt lat="46.1031846" lon="13.4843379"><ele>324.2857142857143</ele><time>2026-05-02T15:01:37.094Z</time></trkpt><trkpt lat="46.1032067" lon="13.484235"><ele>323.42857142857144</ele><time>2026-05-02T15:01:38.094Z</time></trkpt><trkpt lat="46.1032276" lon="13.4841393"><ele>322.57142857142856</ele><time>2026-05-02T15:01:39.094Z</time></trkpt><trkpt lat="46.1032505" lon="13.4840503"><ele>321.7142857142857</ele><time>2026-05-02T15:01:40.093Z</time></trkpt><trkpt lat="46.1032745" lon="13.4839558"><ele>320.85714285714283</ele><time>2026-05-02T15:01:41.094Z</time></trkpt><trkpt lat="46.1032934" lon="13.4838599"><ele>320.0</ele><time>2026-05-02T15:01:42.093Z</time></trkpt><trkpt lat="46.1033076" lon="13.4837597"><ele>322.5</ele><time>2026-05-02T15:01:43.094Z</time></trkpt><trkpt lat="46.1033258" lon="13.4836672"><ele>325.0</ele><time>2026-05-02T15:01:44.094Z</time></trkpt><trkpt lat="46.1033386" lon="13.4834909"><ele>327.5</ele><time>2026-05-02T15:01:46.093Z</time></trkpt><trkpt lat="46.1033417" lon="13.4833253"><ele>330.0</ele><time>2026-05-02T15:01:48.094Z</time></trkpt><trkpt lat="46.1033656" lon="13.4832411"><ele>332.5</ele><time>2026-05-02T15:01:49.093Z</time></trkpt><trkpt lat="46.1033895" lon="13.4831516"><ele>335.0</ele><time>2026-05-02T15:01:50.093Z</time></trkpt><trkpt lat="46.103431" lon="13.4830708"><ele>335.0</ele><time>2026-05-02T15:01:51.093Z</time></trkpt><trkpt lat="46.1034741" lon="13.4829881"><ele>335.0</ele><time>2026-05-02T15:01:52.094Z</time></trkpt><trkpt lat="46.1035746" lon="13.482868"><ele>335.0</ele><time>2026-05-02T15:01:54.094Z</time></trkpt><trkpt lat="46.1036742" lon="13.4827933"><ele>335.0</ele><time>2026-05-02T15:01:56.094Z</time></trkpt><trkpt lat="46.1037955" lon="13.4827508"><ele>335.0</ele><time>2026-05-02T15:01:58.094Z</time></trkpt><trkpt lat="46.1039039" lon="13.4827235"><ele>335.8</ele><time>2026-05-02T15:02:00.093Z</time></trkpt><trkpt lat="46.1039935" lon="13.482637"><ele>336.6</ele><time>2026-05-02T15:02:02.093Z</time></trkpt><trkpt lat="46.1040639" lon="13.4824803"><ele>337.4</ele><time>2026-05-02T15:02:04.093Z</time></trkpt><trkpt lat="46.1040931" lon="13.4823944"><ele>338.2</ele><time>2026-05-02T15:02:05.093Z</time></trkpt><trkpt lat="46.104125" lon="13.4823006"><ele>339.0</ele><time>2026-05-02T15:02:06.094Z</time></trkpt><trkpt lat="46.1041619" lon="13.482194"><ele>335.6666666666667</ele><time>2026-05-02T15:02:07.094Z</time></trkpt><trkpt lat="46.1041966" lon="13.4820891"><ele>332.3333333333333</ele><time>2026-05-02T15:02:08.093Z</time></trkpt><trkpt lat="46.104228" lon="13.4819893"><ele>329.0</ele><time>2026-05-02T15:02:09.094Z</time></trkpt><trkpt lat="46.1042619" lon="13.4819038"><ele>325.66666666666663</ele><time>2026-05-02T15:02:10.094Z</time></trkpt><trkpt lat="46.1043027" lon="13.4818105"><ele>322.3333333333333</ele><time>2026-05-02T15:02:11.093Z</time></trkpt><trkpt lat="46.1043495" lon="13.4817207"><ele>319.0</ele><time>2026-05-02T15:02:12.093Z</time></trkpt><trkpt lat="46.1044021" lon="13.4816405"><ele>319.0</ele><time>2026-05-02T15:02:13.093Z</time></trkpt><trkpt lat="46.104467" lon="13.4815723"><ele>319.0</ele><time>2026-05-02T15:02:14.093Z</time></trkpt><trkpt lat="46.1045424" lon="13.4815194"><ele>319.0</ele><time>2026-05-02T15:02:15.093Z</time></trkpt><trkpt lat="46.1046119" lon="13.4814761"><ele>319.0</ele><time>2026-05-02T15:02:16.094Z</time></trkpt><trkpt lat="46.1046728" lon="13.4814437"><ele>319.0</ele><time>2026-05-02T15:02:17.093Z</time></trkpt><trkpt lat="46.1047936" lon="13.4814103"><ele>319.0</ele><time>2026-05-02T15:02:19.093Z</time></trkpt><trkpt lat="46.1049069" lon="13.481489"><ele>319.8333333333333</ele><time>2026-05-02T15:02:21.094Z</time></trkpt><trkpt lat="46.1049566" lon="13.4815644"><ele>320.66666666666663</ele><time>2026-05-02T15:02:22.093Z</time></trkpt><trkpt lat="46.1050117" lon="13.4816556"><ele>321.5</ele><time>2026-05-02T15:02:23.093Z</time></trkpt><trkpt lat="46.1050652" lon="13.4817325"><ele>322.3333333333333</ele><time>2026-05-02T15:02:24.092Z</time></trkpt><trkpt lat="46.1051285" lon="13.4817924"><ele>323.1666666666667</ele><time>2026-05-02T15:02:25.092Z</time></trkpt><trkpt lat="46.1051883" lon="13.4818638"><ele>324.0</ele><time>2026-05-02T15:02:26.093Z</time></trkpt><trkpt lat="46.105245" lon="13.4819561"><ele>324.0</ele><time>2026-05-02T15:02:27.093Z</time></trkpt><trkpt lat="46.1052967" lon="13.4820317"><ele>324.0</ele><time>2026-05-02T15:02:28.092Z</time></trkpt><trkpt lat="46.1053684" lon="13.4820879"><ele>324.0</ele><time>2026-05-02T15:02:30.092Z</time></trkpt><trkpt lat="46.1054456" lon="13.4819783"><ele>324.0</ele><time>2026-05-02T15:02:32.093Z</time></trkpt><trkpt lat="46.1054836" lon="13.4818972"><ele>324.0</ele><time>2026-05-02T15:02:33.092Z</time></trkpt><trkpt lat="46.1055242" lon="13.4818061"><ele>324.0</ele><time>2026-05-02T15:02:34.092Z</time></trkpt><trkpt lat="46.1055669" lon="13.4817212"><ele>324.0</ele><time>2026-05-02T15:02:35.092Z</time></trkpt><trkpt lat="46.1056245" lon="13.4816292"><ele>324.0</ele><time>2026-05-02T15:02:36.093Z</time></trkpt><trkpt lat="46.1056871" lon="13.4815356"><ele>324.0</ele><time>2026-05-02T15:02:37.093Z</time></trkpt><trkpt lat="46.105755" lon="13.4814416"><ele>324.0</ele><time>2026-05-02T15:02:38.092Z</time></trkpt><trkpt lat="46.1058236" lon="13.4813423"><ele>324.0</ele><time>2026-05-02T15:02:39.092Z</time></trkpt><trkpt lat="46.1058898" lon="13.4812568"><ele>319.6666666666667</ele><time>2026-05-02T15:02:40.093Z</time></trkpt><trkpt lat="46.1059474" lon="13.4811727"><ele>315.3333333333333</ele><time>2026-05-02T15:02:41.093Z</time></trkpt><trkpt lat="46.106003" lon="13.4810892"><ele>311.0</ele><time>2026-05-02T15:02:42.093Z</time></trkpt><trkpt lat="46.1060641" lon="13.4810012"><ele>306.66666666666663</ele><time>2026-05-02T15:02:43.093Z</time></trkpt><trkpt lat="46.1061272" lon="13.4809159"><ele>302.3333333333333</ele><time>2026-05-02T15:02:44.092Z</time></trkpt><trkpt lat="46.1061849" lon="13.4808299"><ele>298.0</ele><time>2026-05-02T15:02:45.093Z</time></trkpt><trkpt lat="46.1062346" lon="13.4807525"><ele>298.0</ele><time>2026-05-02T15:02:46.093Z</time></trkpt><trkpt lat="46.1062792" lon="13.4806802"><ele>298.0</ele><time>2026-05-02T15:02:47.092Z</time></trkpt><trkpt lat="46.1063296" lon="13.4806051"><ele>298.0</ele><time>2026-05-02T15:02:48.093Z</time></trkpt><trkpt lat="46.1063856" lon="13.4805231"><ele>298.0</ele><time>2026-05-02T15:02:49.092Z</time></trkpt><trkpt lat="46.1064474" lon="13.4804379"><ele>298.0</ele><time>2026-05-02T15:02:50.093Z</time></trkpt><trkpt lat="46.1065033" lon="13.4803731"><ele>298.0</ele><time>2026-05-02T15:02:51.092Z</time></trkpt><trkpt lat="46.1065627" lon="13.4803161"><ele>298.0</ele><time>2026-05-02T15:02:52.092Z</time></trkpt><trkpt lat="46.1066305" lon="13.4802672"><ele>296.3333333333333</ele><time>2026-05-02T15:02:53.092Z</time></trkpt><trkpt lat="46.1066994" lon="13.4802244"><ele>294.66666666666663</ele><time>2026-05-02T15:02:54.092Z</time></trkpt><trkpt lat="46.1067686" lon="13.4801854"><ele>293.0</ele><time>2026-05-02T15:02:55.092Z</time></trkpt><trkpt lat="46.1068362" lon="13.4801452"><ele>291.3333333333333</ele><time>2026-05-02T15:02:56.092Z</time></trkpt><trkpt lat="46.1069021" lon="13.4801112"><ele>289.6666666666667</ele><time>2026-05-02T15:02:57.092Z</time></trkpt><trkpt lat="46.1069694" lon="13.4800861"><ele>288.0</ele><time>2026-05-02T15:02:58.092Z</time></trkpt><trkpt lat="46.1070942" lon="13.4800825"><ele>288.0</ele><time>2026-05-02T15:03:00.092Z</time></trkpt><trkpt lat="46.1072078" lon="13.4800825"><ele>288.0</ele><time>2026-05-02T15:03:02.092Z</time></trkpt><trkpt lat="46.1072862" lon="13.4800989"><ele>288.0</ele><time>2026-05-02T15:03:04.092Z</time></trkpt><trkpt lat="46.1073417" lon="13.4802026"><ele>288.0</ele><time>2026-05-02T15:03:06.092Z</time></trkpt><trkpt lat="46.1073722" lon="13.4803845"><ele>288.0</ele><time>2026-05-02T15:03:08.093Z</time></trkpt><trkpt lat="46.1073935" lon="13.4804901"><ele>290.2</ele><time>2026-05-02T15:03:09.092Z</time></trkpt><trkpt lat="46.107418" lon="13.4806274"><ele>292.4</ele><time>2026-05-02T15:03:10.093Z</time></trkpt><trkpt lat="46.1074429" lon="13.4807698"><ele>294.59999999999997</ele><time>2026-05-02T15:03:11.092Z</time></trkpt><trkpt lat="46.1074678" lon="13.4809122"><ele>296.8</ele><time>2026-05-02T15:03:12.093Z</time></trkpt><trkpt lat="46.1074961" lon="13.4810535"><ele>299.0</ele><time>2026-05-02T15:03:13.092Z</time></trkpt><trkpt lat="46.1075251" lon="13.4811905"><ele>302.33333333333337</ele><time>2026-05-02T15:03:14.092Z</time></trkpt><trkpt lat="46.1075606" lon="13.481306"><ele>305.6666666666667</ele><time>2026-05-02T15:03:15.092Z</time></trkpt><trkpt lat="46.1075929" lon="13.4814063"><ele>309.0</ele><time>2026-05-02T15:03:16.092Z</time></trkpt><trkpt lat="46.1076285" lon="13.4815001"><ele>312.3333333333333</ele><time>2026-05-02T15:03:17.092Z</time></trkpt><trkpt lat="46.1076657" lon="13.4815991"><ele>315.66666666666663</ele><time>2026-05-02T15:03:18.092Z</time></trkpt><trkpt lat="46.1077106" lon="13.4816945"><ele>319.0</ele><time>2026-05-02T15:03:19.093Z</time></trkpt><trkpt lat="46.1077561" lon="13.4817789"><ele>319.0</ele><time>2026-05-02T15:03:20.092Z</time></trkpt><trkpt lat="46.107815" lon="13.4818617"><ele>319.0</ele><time>2026-05-02T15:03:21.093Z</time></trkpt><trkpt lat="46.107862" lon="13.4819399"><ele>319.0</ele><time>2026-05-02T15:03:22.092Z</time></trkpt><trkpt lat="46.1079154" lon="13.4820169"><ele>319.0</ele><time>2026-05-02T15:03:23.092Z</time></trkpt><trkpt lat="46.1079678" lon="13.4820961"><ele>319.0</ele><time>2026-05-02T15:03:24.092Z</time></trkpt><trkpt lat="46.1080219" lon="13.4821769"><ele>319.0</ele><time>2026-05-02T15:03:25.093Z</time></trkpt><trkpt lat="46.1080596" lon="13.4822505"><ele>319.0</ele><time>2026-05-02T15:03:26.092Z</time></trkpt><trkpt lat="46.1081106" lon="13.4824104"><ele>322.0</ele><time>2026-05-02T15:03:28.092Z</time></trkpt><trkpt lat="46.1081214" lon="13.4825768"><ele>325.0</ele><time>2026-05-02T15:03:30.093Z</time></trkpt><trkpt lat="46.1081094" lon="13.4826763"><ele>328.0</ele><time>2026-05-02T15:03:31.093Z</time></trkpt><trkpt lat="46.1081063" lon="13.4827884"><ele>331.0</ele><time>2026-05-02T15:03:32.092Z</time></trkpt><trkpt lat="46.108114" lon="13.4829168"><ele>334.0</ele><time>2026-05-02T15:03:33.092Z</time></trkpt><trkpt lat="46.1081198" lon="13.4830538"><ele>337.0</ele><time>2026-05-02T15:03:34.092Z</time></trkpt><trkpt lat="46.1081165" lon="13.483189"><ele>337.0</ele><time>2026-05-02T15:03:35.093Z</time></trkpt><trkpt lat="46.1081008" lon="13.4833199"><ele>337.0</ele><time>2026-05-02T15:03:36.092Z</time></trkpt><trkpt lat="46.1080747" lon="13.4834346"><ele>337.0</ele><time>2026-05-02T15:03:37.093Z</time></trkpt><trkpt lat="46.1080395" lon="13.4835404"><ele>337.0</ele><time>2026-05-02T15:03:38.093Z</time></trkpt><trkpt lat="46.1080013" lon="13.4836355"><ele>337.0</ele><time>2026-05-02T15:03:39.093Z</time></trkpt><trkpt lat="46.1079646" lon="13.4837278"><ele>337.0</ele><time>2026-05-02T15:03:40.092Z</time></trkpt><trkpt lat="46.1079329" lon="13.4838207"><ele>337.0</ele><time>2026-05-02T15:03:41.093Z</time></trkpt><trkpt lat="46.107906" lon="13.4839234"><ele>337.0</ele><time>2026-05-02T15:03:42.092Z</time></trkpt><trkpt lat="46.1078909" lon="13.4840256"><ele>337.0</ele><time>2026-05-02T15:03:43.092Z</time></trkpt><trkpt lat="46.107885" lon="13.4841354"><ele>337.0</ele><time>2026-05-02T15:03:44.093Z</time></trkpt><trkpt lat="46.1078781" lon="13.4842538"><ele>337.0</ele><time>2026-05-02T15:03:45.093Z</time></trkpt><trkpt lat="46.1078696" lon="13.4843742"><ele>337.0</ele><time>2026-05-02T15:03:46.092Z</time></trkpt><trkpt lat="46.1078641" lon="13.4844899"><ele>335.8333333333333</ele><time>2026-05-02T15:03:47.092Z</time></trkpt><trkpt lat="46.1078722" lon="13.484605"><ele>334.66666666666663</ele><time>2026-05-02T15:03:48.093Z</time></trkpt><trkpt lat="46.107881" lon="13.4847083"><ele>333.5</ele><time>2026-05-02T15:03:49.093Z</time></trkpt><trkpt lat="46.1079014" lon="13.4848124"><ele>332.3333333333333</ele><time>2026-05-02T15:03:50.093Z</time></trkpt><trkpt lat="46.1079348" lon="13.4849243"><ele>331.1666666666667</ele><time>2026-05-02T15:03:51.092Z</time></trkpt><trkpt lat="46.1079606" lon="13.4850312"><ele>330.0</ele><time>2026-05-02T15:03:52.092Z</time></trkpt><trkpt lat="46.1079916" lon="13.4851421"><ele>330.0</ele><time>2026-05-02T15:03:53.092Z</time></trkpt><trkpt lat="46.1080225" lon="13.4852481"><ele>330.0</ele><time>2026-05-02T15:03:54.093Z</time></trkpt><trkpt lat="46.1080606" lon="13.4853535"><ele>330.0</ele><time>2026-05-02T15:03:55.093Z</time></trkpt><trkpt lat="46.1080961" lon="13.4854691"><ele>330.0</ele><time>2026-05-02T15:03:56.092Z</time></trkpt><trkpt lat="46.1081334" lon="13.4855855"><ele>330.0</ele><time>2026-05-02T15:03:57.092Z</time></trkpt><trkpt lat="46.1081534" lon="13.4856916"><ele>330.0</ele><time>2026-05-02T15:03:58.093Z</time></trkpt><trkpt lat="46.1081827" lon="13.4857891"><ele>330.0</ele><time>2026-05-02T15:03:59.092Z</time></trkpt><trkpt lat="46.1082086" lon="13.485878"><ele>330.0</ele><time>2026-05-02T15:04:00.092Z</time></trkpt><trkpt lat="46.1082391" lon="13.4859656"><ele>330.0</ele><time>2026-05-02T15:04:01.092Z</time></trkpt><trkpt lat="46.1082749" lon="13.4860691"><ele>330.0</ele><time>2026-05-02T15:04:02.093Z</time></trkpt><trkpt lat="46.1083053" lon="13.486173"><ele>330.0</ele><time>2026-05-02T15:04:03.092Z</time></trkpt><trkpt lat="46.1083222" lon="13.4862824"><ele>330.0</ele><time>2026-05-02T15:04:04.092Z</time></trkpt><trkpt lat="46.1083225" lon="13.4864009"><ele>323.0</ele><time>2026-05-02T15:04:05.093Z</time></trkpt><trkpt lat="46.1083285" lon="13.4865386"><ele>316.0</ele><time>2026-05-02T15:04:06.092Z</time></trkpt><trkpt lat="46.1083424" lon="13.4866852"><ele>309.0</ele><time>2026-05-02T15:04:07.092Z</time></trkpt><trkpt lat="46.108349" lon="13.4868265"><ele>302.0</ele><time>2026-05-02T15:04:08.092Z</time></trkpt><trkpt lat="46.1083571" lon="13.486952"><ele>295.0</ele><time>2026-05-02T15:04:09.092Z</time></trkpt><trkpt lat="46.1083632" lon="13.4870764"><ele>296.16666666666663</ele><time>2026-05-02T15:04:10.092Z</time></trkpt><trkpt lat="46.1083702" lon="13.4871972"><ele>297.3333333333333</ele><time>2026-05-02T15:04:11.093Z</time></trkpt><trkpt lat="46.1083761" lon="13.4873223"><ele>298.5</ele><time>2026-05-02T15:04:12.092Z</time></trkpt><trkpt lat="46.1083841" lon="13.487449"><ele>299.6666666666667</ele><time>2026-05-02T15:04:13.092Z</time></trkpt><trkpt lat="46.1083838" lon="13.4875579"><ele>300.83333333333337</ele><time>2026-05-02T15:04:14.093Z</time></trkpt><trkpt lat="46.1083704" lon="13.48768"><ele>302.0</ele><time>2026-05-02T15:04:15.092Z</time></trkpt><trkpt lat="46.1083573" lon="13.4878008"><ele>302.0</ele><time>2026-05-02T15:04:16.092Z</time></trkpt><trkpt lat="46.1083437" lon="13.4879247"><ele>302.0</ele><time>2026-05-02T15:04:17.092Z</time></trkpt><trkpt lat="46.1083352" lon="13.4880523"><ele>302.0</ele><time>2026-05-02T15:04:18.093Z</time></trkpt><trkpt lat="46.1083204" lon="13.4881795"><ele>302.0</ele><time>2026-05-02T15:04:19.092Z</time></trkpt><trkpt lat="46.1083204" lon="13.488309"><ele>302.0</ele><time>2026-05-02T15:04:20.093Z</time></trkpt><trkpt lat="46.1083124" lon="13.4884193"><ele>302.0</ele><time>2026-05-02T15:04:21.093Z</time></trkpt><trkpt lat="46.108301" lon="13.4885318"><ele>301.4</ele><time>2026-05-02T15:04:22.092Z</time></trkpt><trkpt lat="46.1082852" lon="13.4886355"><ele>300.79999999999995</ele><time>2026-05-02T15:04:23.092Z</time></trkpt><trkpt lat="46.1082705" lon="13.4887353"><ele>300.2</ele><time>2026-05-02T15:04:24.093Z</time></trkpt><trkpt lat="46.1082698" lon="13.488902"><ele>299.59999999999997</ele><time>2026-05-02T15:04:26.093Z</time></trkpt><trkpt lat="46.1082839" lon="13.4890705"><ele>299.0</ele><time>2026-05-02T15:04:28.093Z</time></trkpt><trkpt lat="46.1083258" lon="13.4892007"><ele>300.4</ele><time>2026-05-02T15:04:30.093Z</time></trkpt><trkpt lat="46.1084264" lon="13.4892976"><ele>301.79999999999995</ele><time>2026-05-02T15:04:32.092Z</time></trkpt><trkpt lat="46.1085135" lon="13.4893346"><ele>303.20000000000005</ele><time>2026-05-02T15:04:33.092Z</time></trkpt><trkpt lat="46.1085937" lon="13.4893885"><ele>304.6</ele><time>2026-05-02T15:04:34.092Z</time></trkpt><trkpt lat="46.1086732" lon="13.4894448"><ele>306.0</ele><time>2026-05-02T15:04:35.092Z</time></trkpt><trkpt lat="46.1087485" lon="13.4894932"><ele>306.0</ele><time>2026-05-02T15:04:36.093Z</time></trkpt><trkpt lat="46.1088064" lon="13.4895426"><ele>306.0</ele><time>2026-05-02T15:04:37.092Z</time></trkpt><trkpt lat="46.1088902" lon="13.4896454"><ele>306.0</ele><time>2026-05-02T15:04:39.093Z</time></trkpt><trkpt lat="46.1089462" lon="13.4897699"><ele>306.0</ele><time>2026-05-02T15:04:41.092Z</time></trkpt><trkpt lat="46.1089726" lon="13.4898584"><ele>306.0</ele><time>2026-05-02T15:04:42.092Z</time></trkpt><trkpt lat="46.1089955" lon="13.4899633"><ele>306.0</ele><time>2026-05-02T15:04:43.092Z</time></trkpt><trkpt lat="46.1090164" lon="13.4900707"><ele>307.1666666666667</ele><time>2026-05-02T15:04:44.092Z</time></trkpt><trkpt lat="46.109032" lon="13.4901804"><ele>308.3333333333333</ele><time>2026-05-02T15:04:45.092Z</time></trkpt><trkpt lat="46.1090463" lon="13.4903082"><ele>309.5</ele><time>2026-05-02T15:04:46.092Z</time></trkpt><trkpt lat="46.1090595" lon="13.4904506"><ele>310.66666666666663</ele><time>2026-05-02T15:04:47.092Z</time></trkpt><trkpt lat="46.1090732" lon="13.4905838"><ele>311.8333333333333</ele><time>2026-05-02T15:04:48.092Z</time></trkpt><trkpt lat="46.1090948" lon="13.4906963"><ele>313.0</ele><time>2026-05-02T15:04:49.092Z</time></trkpt><trkpt lat="46.1091151" lon="13.4908121"><ele>313.0</ele><time>2026-05-02T15:04:50.092Z</time></trkpt><trkpt lat="46.1091384" lon="13.4909169"><ele>313.0</ele><time>2026-05-02T15:04:51.092Z</time></trkpt><trkpt lat="46.1091753" lon="13.4909962"><ele>313.0</ele><time>2026-05-02T15:04:52.092Z</time></trkpt><trkpt lat="46.1092624" lon="13.4911422"><ele>313.0</ele><time>2026-05-02T15:04:54.093Z</time></trkpt><trkpt lat="46.1093227" lon="13.491207"><ele>313.0</ele><time>2026-05-02T15:04:55.092Z</time></trkpt><trkpt lat="46.1093942" lon="13.4912687"><ele>313.0</ele><time>2026-05-02T15:04:56.092Z</time></trkpt><trkpt lat="46.1094621" lon="13.4913195"><ele>312.8333333333333</ele><time>2026-05-02T15:04:57.093Z</time></trkpt><trkpt lat="46.109535" lon="13.4913573"><ele>312.66666666666663</ele><time>2026-05-02T15:04:58.092Z</time></trkpt><trkpt lat="46.1096007" lon="13.4913858"><ele>312.5</ele><time>2026-05-02T15:04:59.092Z</time></trkpt><trkpt lat="46.109663" lon="13.4914099"><ele>312.3333333333333</ele><time>2026-05-02T15:05:00.092Z</time></trkpt><trkpt lat="46.1097701" lon="13.4914703"><ele>312.1666666666667</ele><time>2026-05-02T15:05:02.092Z</time></trkpt><trkpt lat="46.10984" lon="13.4915941"><ele>312.0</ele><time>2026-05-02T15:05:04.092Z</time></trkpt><trkpt lat="46.1098717" lon="13.4916888"><ele>312.0</ele><time>2026-05-02T15:05:05.092Z</time></trkpt><trkpt lat="46.1099053" lon="13.4918064"><ele>312.0</ele><time>2026-05-02T15:05:06.093Z</time></trkpt><trkpt lat="46.1099305" lon="13.4919171"><ele>312.0</ele><time>2026-05-02T15:05:07.092Z</time></trkpt><trkpt lat="46.1099346" lon="13.4920199"><ele>312.0</ele><time>2026-05-02T15:05:08.092Z</time></trkpt><trkpt lat="46.109944" lon="13.4921182"><ele>312.0</ele><time>2026-05-02T15:05:09.092Z</time></trkpt><trkpt lat="46.10994" lon="13.4923049"><ele>312.0</ele><time>2026-05-02T15:05:11.093Z</time></trkpt><trkpt lat="46.109928" lon="13.4924117"><ele>309.8333333333333</ele><time>2026-05-02T15:05:12.092Z</time></trkpt><trkpt lat="46.1099162" lon="13.492523"><ele>307.6666666666667</ele><time>2026-05-02T15:05:13.092Z</time></trkpt><trkpt lat="46.1099005" lon="13.4926328"><ele>305.5</ele><time>2026-05-02T15:05:14.093Z</time></trkpt><trkpt lat="46.1098882" lon="13.4927349"><ele>303.33333333333337</ele><time>2026-05-02T15:05:15.092Z</time></trkpt><trkpt lat="46.1098771" lon="13.492827"><ele>301.1666666666667</ele><time>2026-05-02T15:05:16.092Z</time></trkpt><trkpt lat="46.1098349" lon="13.4929784"><ele>299.0</ele><time>2026-05-02T15:05:18.092Z</time></trkpt><trkpt lat="46.1097962" lon="13.4930501"><ele>296.83333333333337</ele><time>2026-05-02T15:05:19.092Z</time></trkpt><trkpt lat="46.1097483" lon="13.4931423"><ele>294.6666666666667</ele><time>2026-05-02T15:05:20.093Z</time></trkpt><trkpt lat="46.1096905" lon="13.4932043"><ele>292.5</ele><time>2026-05-02T15:05:21.093Z</time></trkpt><trkpt lat="46.1096291" lon="13.4932553"><ele>290.3333333333333</ele><time>2026-05-02T15:05:22.092Z</time></trkpt><trkpt lat="46.1095706" lon="13.4932976"><ele>288.16666666666663</ele><time>2026-05-02T15:05:23.092Z</time></trkpt><trkpt lat="46.1094999" lon="13.4933414"><ele>286.0</ele><time>2026-05-02T15:05:24.093Z</time></trkpt><trkpt lat="46.1094176" lon="13.493378"><ele>286.0</ele><time>2026-05-02T15:05:25.092Z</time></trkpt><trkpt lat="46.1093392" lon="13.4934155"><ele>286.0</ele><time>2026-05-02T15:05:26.093Z</time></trkpt><trkpt lat="46.1092626" lon="13.4934312"><ele>286.0</ele><time>2026-05-02T15:05:27.092Z</time></trkpt><trkpt lat="46.1091298" lon="13.4934554"><ele>286.0</ele><time>2026-05-02T15:05:29.092Z</time></trkpt><trkpt lat="46.1090532" lon="13.4934383"><ele>286.0</ele><time>2026-05-02T15:05:30.092Z</time></trkpt><trkpt lat="46.1089775" lon="13.4934257"><ele>286.0</ele><time>2026-05-02T15:05:31.093Z</time></trkpt><trkpt lat="46.1089108" lon="13.4933931"><ele>283.16666666666663</ele><time>2026-05-02T15:05:32.092Z</time></trkpt><trkpt lat="46.1088446" lon="13.4933503"><ele>280.3333333333333</ele><time>2026-05-02T15:05:33.092Z</time></trkpt><trkpt lat="46.1087742" lon="13.4932938"><ele>277.5</ele><time>2026-05-02T15:05:34.092Z</time></trkpt><trkpt lat="46.1087083" lon="13.4932449"><ele>274.6666666666667</ele><time>2026-05-02T15:05:35.092Z</time></trkpt><trkpt lat="46.1086376" lon="13.4931829"><ele>271.83333333333337</ele><time>2026-05-02T15:05:36.092Z</time></trkpt><trkpt lat="46.1085673" lon="13.4931279"><ele>269.0</ele><time>2026-05-02T15:05:37.092Z</time></trkpt><trkpt lat="46.1085007" lon="13.4930759"><ele>269.0</ele><time>2026-05-02T15:05:38.093Z</time></trkpt><trkpt lat="46.1084301" lon="13.493017"><ele>269.0</ele><time>2026-05-02T15:05:39.092Z</time></trkpt><trkpt lat="46.1083771" lon="13.4929601"><ele>269.0</ele><time>2026-05-02T15:05:40.092Z</time></trkpt><trkpt lat="46.1082928" lon="13.4928629"><ele>269.0</ele><time>2026-05-02T15:05:42.092Z</time></trkpt><trkpt lat="46.1082172" lon="13.4928797"><ele>269.0</ele><time>2026-05-02T15:05:44.092Z</time></trkpt><trkpt lat="46.1081219" lon="13.4930485"><ele>265.75</ele><time>2026-05-02T15:05:46.092Z</time></trkpt><trkpt lat="46.1080593" lon="13.4931282"><ele>262.5</ele><time>2026-05-02T15:05:47.092Z</time></trkpt><trkpt lat="46.107969" lon="13.4932539"><ele>259.25</ele><time>2026-05-02T15:05:49.092Z</time></trkpt><trkpt lat="46.1078621" lon="13.4933448"><ele>256.0</ele><time>2026-05-02T15:05:51.092Z</time></trkpt><trkpt lat="46.1077445" lon="13.4934014"><ele>256.0</ele><time>2026-05-02T15:05:53.092Z</time></trkpt><trkpt lat="46.1076303" lon="13.4934298"><ele>256.0</ele><time>2026-05-02T15:05:55.093Z</time></trkpt><trkpt lat="46.1075204" lon="13.4934234"><ele>256.0</ele><time>2026-05-02T15:05:57.092Z</time></trkpt><trkpt lat="46.1074153" lon="13.4933888"><ele>256.0</ele><time>2026-05-02T15:05:59.093Z</time></trkpt><trkpt lat="46.1073106" lon="13.493295"><ele>254.25</ele><time>2026-05-02T15:06:01.093Z</time></trkpt><trkpt lat="46.1072297" lon="13.4931792"><ele>252.5</ele><time>2026-05-02T15:06:03.092Z</time></trkpt><trkpt lat="46.1071229" lon="13.4931194"><ele>250.75</ele><time>2026-05-02T15:06:05.092Z</time></trkpt><trkpt lat="46.1070198" lon="13.4930902"><ele>249.0</ele><time>2026-05-02T15:06:07.093Z</time></trkpt><trkpt lat="46.1069093" lon="13.4930361"><ele>249.0</ele><time>2026-05-02T15:06:09.092Z</time></trkpt><trkpt lat="46.1067993" lon="13.4930336"><ele>248.99999999999997</ele><time>2026-05-02T15:06:11.092Z</time></trkpt><trkpt lat="46.1067097" lon="13.4931649"><ele>248.99999999999997</ele><time>2026-05-02T15:06:13.092Z</time></trkpt><trkpt lat="46.1066533" lon="13.4932435"><ele>249.0</ele><time>2026-05-02T15:06:14.093Z</time></trkpt><trkpt lat="46.1066064" lon="13.493315"><ele>249.0</ele><time>2026-05-02T15:06:15.092Z</time></trkpt><trkpt lat="46.1065566" lon="13.4933947"><ele>250.6</ele><time>2026-05-02T15:06:16.092Z</time></trkpt><trkpt lat="46.1065105" lon="13.4934618"><ele>252.2</ele><time>2026-05-02T15:06:17.093Z</time></trkpt><trkpt lat="46.1064231" lon="13.4935346"><ele>253.79999999999998</ele><time>2026-05-02T15:06:19.093Z</time></trkpt><trkpt lat="46.1063112" lon="13.4935724"><ele>255.39999999999998</ele><time>2026-05-02T15:06:21.092Z</time></trkpt><trkpt lat="46.1061963" lon="13.493529"><ele>257.0</ele><time>2026-05-02T15:06:23.092Z</time></trkpt><trkpt lat="46.1061364" lon="13.4934953"><ele>257.0</ele><time>2026-05-02T15:06:24.092Z</time></trkpt><trkpt lat="46.1060441" lon="13.4933581"><ele>257.0</ele><time>2026-05-02T15:06:26.092Z</time></trkpt><trkpt lat="46.1060066" lon="13.4932632"><ele>257.0</ele><time>2026-05-02T15:06:27.092Z</time></trkpt><trkpt lat="46.1059105" lon="13.4931809"><ele>257.0</ele><time>2026-05-02T15:06:29.092Z</time></trkpt><trkpt lat="46.1058547" lon="13.4931324"><ele>257.0</ele><time>2026-05-02T15:06:30.092Z</time></trkpt><trkpt lat="46.1058033" lon="13.4930608"><ele>264.1666666666667</ele><time>2026-05-02T15:06:31.092Z</time></trkpt><trkpt lat="46.1057398" lon="13.4930078"><ele>271.33333333333337</ele><time>2026-05-02T15:06:32.092Z</time></trkpt><trkpt lat="46.1056747" lon="13.4929716"><ele>278.5</ele><time>2026-05-02T15:06:33.092Z</time></trkpt><trkpt lat="46.1055613" lon="13.4929311"><ele>285.6666666666667</ele><time>2026-05-02T15:06:35.093Z</time></trkpt><trkpt lat="46.1054957" lon="13.4929775"><ele>292.8333333333333</ele><time>2026-05-02T15:06:37.093Z</time></trkpt><trkpt lat="46.1054948" lon="13.4930941"><ele>300.0</ele><time>2026-05-02T15:06:39.092Z</time></trkpt><trkpt lat="46.1055701" lon="13.4932885"><ele>300.0</ele><time>2026-05-02T15:06:41.091Z</time></trkpt><trkpt lat="46.1055963" lon="13.493444"><ele>300.0</ele><time>2026-05-02T15:06:42.091Z</time></trkpt><trkpt lat="46.1056195" lon="13.4935565"><ele>300.0</ele><time>2026-05-02T15:06:43.091Z</time></trkpt><trkpt lat="46.1056341" lon="13.4936711"><ele>300.0</ele><time>2026-05-02T15:06:44.092Z</time></trkpt><trkpt lat="46.1056479" lon="13.4937755"><ele>300.0</ele><time>2026-05-02T15:06:45.092Z</time></trkpt><trkpt lat="46.1056476" lon="13.4938826"><ele>300.0</ele><time>2026-05-02T15:06:46.091Z</time></trkpt><trkpt lat="46.1056402" lon="13.4939828"><ele>300.5</ele><time>2026-05-02T15:06:47.091Z</time></trkpt><trkpt lat="46.1055949" lon="13.4941494"><ele>301.0</ele><time>2026-05-02T15:06:49.091Z</time></trkpt><trkpt lat="46.1055685" lon="13.4942655"><ele>301.5</ele><time>2026-05-02T15:06:50.092Z</time></trkpt><trkpt lat="46.1055516" lon="13.4943931"><ele>302.0</ele><time>2026-05-02T15:06:51.091Z</time></trkpt><trkpt lat="46.1055367" lon="13.4945052"><ele>302.5</ele><time>2026-05-02T15:06:52.091Z</time></trkpt><trkpt lat="46.1055374" lon="13.4945993"><ele>303.0</ele><time>2026-05-02T15:06:53.091Z</time></trkpt><trkpt lat="46.1055383" lon="13.4947333"><ele>299.0</ele><time>2026-05-02T15:06:55.091Z</time></trkpt><trkpt lat="46.1055379" lon="13.4948302"><ele>295.0</ele><time>2026-05-02T15:06:57.092Z</time></trkpt><trkpt lat="46.1055337" lon="13.4950378"><ele>291.0</ele><time>2026-05-02T15:07:57.092Z</time></trkpt><trkpt lat="46.1055273" lon="13.4951604"><ele>287.0</ele><time>2026-05-02T15:08:00.092Z</time></trkpt><trkpt lat="46.1054953" lon="13.495248"><ele>283.0</ele><time>2026-05-02T15:08:02.091Z</time></trkpt><trkpt lat="46.1054305" lon="13.4953384"><ele>279.8333333333333</ele><time>2026-05-02T15:08:04.092Z</time></trkpt><trkpt lat="46.1053532" lon="13.4954494"><ele>276.66666666666663</ele><time>2026-05-02T15:08:06.092Z</time></trkpt><trkpt lat="46.1053117" lon="13.4955271"><ele>273.5</ele><time>2026-05-02T15:08:07.092Z</time></trkpt><trkpt lat="46.105267" lon="13.495602"><ele>270.3333333333333</ele><time>2026-05-02T15:08:08.091Z</time></trkpt><trkpt lat="46.1052136" lon="13.4956865"><ele>267.1666666666667</ele><time>2026-05-02T15:08:09.091Z</time></trkpt><trkpt lat="46.1051547" lon="13.4957731"><ele>264.0</ele><time>2026-05-02T15:08:10.092Z</time></trkpt><trkpt lat="46.1050976" lon="13.4958605"><ele>264.0</ele><time>2026-05-02T15:08:11.091Z</time></trkpt><trkpt lat="46.1050304" lon="13.4959456"><ele>264.0</ele><time>2026-05-02T15:08:12.091Z</time></trkpt><trkpt lat="46.1049644" lon="13.4960258"><ele>264.0</ele><time>2026-05-02T15:08:13.092Z</time></trkpt><trkpt lat="46.1049052" lon="13.4960968"><ele>264.0</ele><time>2026-05-02T15:08:14.091Z</time></trkpt><trkpt lat="46.1048596" lon="13.4961803"><ele>264.0</ele><time>2026-05-02T15:08:15.091Z</time></trkpt><trkpt lat="46.104822" lon="13.4962715"><ele>264.0</ele><time>2026-05-02T15:08:16.091Z</time></trkpt><trkpt lat="46.1048012" lon="13.4963734"><ele>270.1666666666667</ele><time>2026-05-02T15:08:17.091Z</time></trkpt><trkpt lat="46.1047772" lon="13.49648"><ele>276.3333333333333</ele><time>2026-05-02T15:08:18.091Z</time></trkpt><trkpt lat="46.1047512" lon="13.4965773"><ele>282.5</ele><time>2026-05-02T15:08:19.091Z</time></trkpt><trkpt lat="46.1047132" lon="13.4966609"><ele>288.66666666666663</ele><time>2026-05-02T15:08:20.091Z</time></trkpt><trkpt lat="46.1046708" lon="13.4967491"><ele>294.8333333333333</ele><time>2026-05-02T15:08:21.091Z</time></trkpt><trkpt lat="46.1046076" lon="13.4968324"><ele>301.0</ele><time>2026-05-02T15:08:22.092Z</time></trkpt><trkpt lat="46.1045635" lon="13.4969504"><ele>301.0</ele><time>2026-05-02T15:08:23.091Z</time></trkpt><trkpt lat="46.1045275" lon="13.4970422"><ele>301.0</ele><time>2026-05-02T15:08:24.091Z</time></trkpt><trkpt lat="46.1044983" lon="13.4972129"><ele>301.0</ele><time>2026-05-02T15:08:26.092Z</time></trkpt><trkpt lat="46.1045061" lon="13.4973048"><ele>301.0</ele><time>2026-05-02T15:08:27.092Z</time></trkpt><trkpt lat="46.1045712" lon="13.4974028"><ele>301.0</ele><time>2026-05-02T15:08:29.092Z</time></trkpt><trkpt lat="46.1046322" lon="13.4974303"><ele>301.0</ele><time>2026-05-02T15:08:30.092Z</time></trkpt><trkpt lat="46.1046964" lon="13.4974477"><ele>302.3333333333333</ele><time>2026-05-02T15:08:31.091Z</time></trkpt><trkpt lat="46.1048288" lon="13.4974641"><ele>303.66666666666663</ele><time>2026-05-02T15:08:33.091Z</time></trkpt><trkpt lat="46.1048962" lon="13.4975031"><ele>305.0</ele><time>2026-05-02T15:08:34.092Z</time></trkpt><trkpt lat="46.1049459" lon="13.4975707"><ele>306.3333333333333</ele><time>2026-05-02T15:08:35.091Z</time></trkpt><trkpt lat="46.1050029" lon="13.4976562"><ele>307.6666666666667</ele><time>2026-05-02T15:08:36.091Z</time></trkpt><trkpt lat="46.1050618" lon="13.4977579"><ele>309.0</ele><time>2026-05-02T15:08:37.092Z</time></trkpt><trkpt lat="46.1051637" lon="13.4978311"><ele>304.8</ele><time>2026-05-02T15:08:38.092Z</time></trkpt><trkpt lat="46.1052324" lon="13.497903"><ele>300.59999999999997</ele><time>2026-05-02T15:08:39.091Z</time></trkpt><trkpt lat="46.1053112" lon="13.4980336"><ele>296.4</ele><time>2026-05-02T15:08:41.091Z</time></trkpt><trkpt lat="46.1053665" lon="13.4981133"><ele>292.2</ele><time>2026-05-02T15:08:42.091Z</time></trkpt><trkpt lat="46.1054303" lon="13.4981956"><ele>288.0</ele><time>2026-05-02T15:08:43.091Z</time></trkpt><trkpt lat="46.1054799" lon="13.4982943"><ele>288.0</ele><time>2026-05-02T15:08:44.092Z</time></trkpt><trkpt lat="46.1055504" lon="13.4983934"><ele>288.0</ele><time>2026-05-02T15:08:45.092Z</time></trkpt><trkpt lat="46.1056005" lon="13.4984936"><ele>288.0</ele><time>2026-05-02T15:08:46.092Z</time></trkpt><trkpt lat="46.105657" lon="13.4985789"><ele>288.0</ele><time>2026-05-02T15:08:47.091Z</time></trkpt><trkpt lat="46.1057065" lon="13.4986672"><ele>288.0</ele><time>2026-05-02T15:08:48.091Z</time></trkpt><trkpt lat="46.1057427" lon="13.4987426"><ele>288.0</ele><time>2026-05-02T15:08:49.091Z</time></trkpt><trkpt lat="46.1057972" lon="13.4988196"><ele>285.6</ele><time>2026-05-02T15:08:50.091Z</time></trkpt><trkpt lat="46.1058418" lon="13.4988947"><ele>283.20000000000005</ele><time>2026-05-02T15:08:51.091Z</time></trkpt><trkpt lat="46.1059294" lon="13.4989701"><ele>280.8</ele><time>2026-05-02T15:08:52.092Z</time></trkpt><trkpt lat="46.1060071" lon="13.4990364"><ele>278.40000000000003</ele><time>2026-05-02T15:08:53.091Z</time></trkpt><trkpt lat="46.1061007" lon="13.4991385"><ele>276.0</ele><time>2026-05-02T15:08:55.091Z</time></trkpt><trkpt lat="46.1061879" lon="13.4991597"><ele>276.0</ele><time>2026-05-02T15:08:57.092Z</time></trkpt><trkpt lat="46.1063168" lon="13.499001"><ele>276.0</ele><time>2026-05-02T15:08:59.091Z</time></trkpt><trkpt lat="46.1063771" lon="13.4989747"><ele>276.0</ele><time>2026-05-02T15:09:00.092Z</time></trkpt><trkpt lat="46.1064429" lon="13.498931"><ele>276.0</ele><time>2026-05-02T15:09:01.091Z</time></trkpt><trkpt lat="46.1065211" lon="13.4988596"><ele>276.0</ele><time>2026-05-02T15:09:02.091Z</time></trkpt><trkpt lat="46.1065974" lon="13.4987925"><ele>271.0</ele><time>2026-05-02T15:09:03.092Z</time></trkpt><trkpt lat="46.1066907" lon="13.4987343"><ele>266.0</ele><time>2026-05-02T15:09:04.092Z</time></trkpt><trkpt lat="46.1067843" lon="13.4987127"><ele>261.0</ele><time>2026-05-02T15:09:05.092Z</time></trkpt><trkpt lat="46.1067878" lon="13.498871"><ele>256.0</ele><time>2026-05-02T15:09:06.091Z</time></trkpt><trkpt lat="46.1069033" lon="13.4989348"><ele>251.0</ele><time>2026-05-02T15:09:08.092Z</time></trkpt><trkpt lat="46.1069677" lon="13.4989344"><ele>251.00000000000003</ele><time>2026-05-02T15:09:09.091Z</time></trkpt><trkpt lat="46.1070383" lon="13.4989295"><ele>251.0</ele><time>2026-05-02T15:09:10.091Z</time></trkpt><trkpt lat="46.1071049" lon="13.4989347"><ele>251.0</ele><time>2026-05-02T15:09:11.091Z</time></trkpt><trkpt lat="46.1071833" lon="13.4989458"><ele>251.0</ele><time>2026-05-02T15:09:12.091Z</time></trkpt><trkpt lat="46.1072585" lon="13.4989593"><ele>251.00000000000003</ele><time>2026-05-02T15:09:13.091Z</time></trkpt><trkpt lat="46.1073482" lon="13.498964"><ele>251.0</ele><time>2026-05-02T15:09:15.091Z</time></trkpt><trkpt lat="46.1074387" lon="13.4989727"><ele>248.0</ele><time>2026-05-02T15:09:17.091Z</time></trkpt><trkpt lat="46.1075475" lon="13.4989854"><ele>245.00000000000003</ele><time>2026-05-02T15:09:19.092Z</time></trkpt><trkpt lat="46.1076673" lon="13.4990179"><ele>242.00000000000003</ele><time>2026-05-02T15:09:21.091Z</time></trkpt><trkpt lat="46.1077941" lon="13.4990725"><ele>239.0</ele><time>2026-05-02T15:09:23.092Z</time></trkpt><trkpt lat="46.1078593" lon="13.4990951"><ele>236.0</ele><time>2026-05-02T15:09:24.091Z</time></trkpt><trkpt lat="46.1079391" lon="13.4991183"><ele>236.00000000000003</ele><time>2026-05-02T15:09:25.092Z</time></trkpt><trkpt lat="46.1080214" lon="13.4991623"><ele>236.0</ele><time>2026-05-02T15:09:26.091Z</time></trkpt><trkpt lat="46.1080959" lon="13.4992091"><ele>236.0</ele><time>2026-05-02T15:09:27.092Z</time></trkpt><trkpt lat="46.1081551" lon="13.4992762"><ele>236.0</ele><time>2026-05-02T15:09:28.091Z</time></trkpt><trkpt lat="46.1082125" lon="13.4993554"><ele>236.00000000000003</ele><time>2026-05-02T15:09:29.092Z</time></trkpt><trkpt lat="46.1082333" lon="13.4994478"><ele>236.0</ele><time>2026-05-02T15:09:30.091Z</time></trkpt><trkpt lat="46.1082479" lon="13.4995435"><ele>236.83333333333334</ele><time>2026-05-02T15:09:31.092Z</time></trkpt><trkpt lat="46.1082464" lon="13.4996687"><ele>237.66666666666669</ele><time>2026-05-02T15:09:32.091Z</time></trkpt><trkpt lat="46.1082544" lon="13.4997793"><ele>238.5</ele><time>2026-05-02T15:09:33.092Z</time></trkpt><trkpt lat="46.108253" lon="13.4998943"><ele>239.33333333333331</ele><time>2026-05-02T15:09:34.092Z</time></trkpt><trkpt lat="46.108239" lon="13.5000004"><ele>240.16666666666666</ele><time>2026-05-02T15:09:35.091Z</time></trkpt><trkpt lat="46.1082181" lon="13.5000935"><ele>241.0</ele><time>2026-05-02T15:09:36.092Z</time></trkpt><trkpt lat="46.108213" lon="13.5002645"><ele>236.33333333333331</ele><time>2026-05-02T15:09:38.091Z</time></trkpt><trkpt lat="46.1082967" lon="13.5003086"><ele>231.66666666666666</ele><time>2026-05-02T15:09:41.092Z</time></trkpt><trkpt lat="46.1083856" lon="13.5003142"><ele>227.0</ele><time>2026-05-02T15:09:42.091Z</time></trkpt><trkpt lat="46.1084495" lon="13.5003114"><ele>222.33333333333331</ele><time>2026-05-02T15:09:43.091Z</time></trkpt><trkpt lat="46.1085265" lon="13.5003131"><ele>217.66666666666666</ele><time>2026-05-02T15:09:44.091Z</time></trkpt><trkpt lat="46.108597" lon="13.5003011"><ele>213.0</ele><time>2026-05-02T15:09:45.091Z</time></trkpt><trkpt lat="46.1086741" lon="13.5002699"><ele>213.0</ele><time>2026-05-02T15:09:46.092Z</time></trkpt><trkpt lat="46.1087396" lon="13.5002234"><ele>213.0</ele><time>2026-05-02T15:09:47.091Z</time></trkpt><trkpt lat="46.1088232" lon="13.500176"><ele>213.0</ele><time>2026-05-02T15:09:48.092Z</time></trkpt><trkpt lat="46.1089196" lon="13.5001166"><ele>213.0</ele><time>2026-05-02T15:09:49.091Z</time></trkpt><trkpt lat="46.1089841" lon="13.5000366"><ele>213.0</ele><time>2026-05-02T15:09:50.091Z</time></trkpt><trkpt lat="46.1090666" lon="13.4999759"><ele>213.0</ele><time>2026-05-02T15:09:51.091Z</time></trkpt><trkpt lat="46.1091524" lon="13.4999148"><ele>209.83333333333334</ele><time>2026-05-02T15:09:52.091Z</time></trkpt><trkpt lat="46.1092308" lon="13.4998668"><ele>206.66666666666669</ele><time>2026-05-02T15:09:53.092Z</time></trkpt><trkpt lat="46.1093164" lon="13.4998425"><ele>203.5</ele><time>2026-05-02T15:09:54.092Z</time></trkpt><trkpt lat="46.1094187" lon="13.4998347"><ele>200.33333333333334</ele><time>2026-05-02T15:09:55.091Z</time></trkpt><trkpt lat="46.1095068" lon="13.4998373"><ele>197.16666666666669</ele><time>2026-05-02T15:09:56.092Z</time></trkpt><trkpt lat="46.1095905" lon="13.499844"><ele>194.0</ele><time>2026-05-02T15:09:57.091Z</time></trkpt><trkpt lat="46.109673" lon="13.4998685"><ele>194.0</ele><time>2026-05-02T15:09:58.091Z</time></trkpt><trkpt lat="46.1097368" lon="13.499902"><ele>194.0</ele><time>2026-05-02T15:09:59.091Z</time></trkpt><trkpt lat="46.1097948" lon="13.4999453"><ele>194.0</ele><time>2026-05-02T15:10:00.091Z</time></trkpt><trkpt lat="46.1098535" lon="13.500014"><ele>194.0</ele><time>2026-05-02T15:10:01.091Z</time></trkpt><trkpt lat="46.1099061" lon="13.5000813"><ele>194.0</ele><time>2026-05-02T15:10:02.091Z</time></trkpt><trkpt lat="46.1099501" lon="13.5001732"><ele>194.0</ele><time>2026-05-02T15:10:03.091Z</time></trkpt><trkpt lat="46.1099974" lon="13.5002647"><ele>194.0</ele><time>2026-05-02T15:10:04.091Z</time></trkpt><trkpt lat="46.1100463" lon="13.5003651"><ele>192.00000000000003</ele><time>2026-05-02T15:10:05.092Z</time></trkpt><trkpt lat="46.1100887" lon="13.500444"><ele>190.0</ele><time>2026-05-02T15:10:06.092Z</time></trkpt><trkpt lat="46.1101363" lon="13.5005125"><ele>188.0</ele><time>2026-05-02T15:10:07.091Z</time></trkpt><trkpt lat="46.1101806" lon="13.5005831"><ele>186.0</ele><time>2026-05-02T15:10:08.091Z</time></trkpt><trkpt lat="46.1102512" lon="13.5007102"><ele>184.0</ele><time>2026-05-02T15:10:10.092Z</time></trkpt><trkpt lat="46.1103155" lon="13.5008529"><ele>182.0</ele><time>2026-05-02T15:10:12.091Z</time></trkpt><trkpt lat="46.1103942" lon="13.501007"><ele>182.0</ele><time>2026-05-02T15:10:14.092Z</time></trkpt><trkpt lat="46.1104335" lon="13.5010949"><ele>182.0</ele><time>2026-05-02T15:10:15.091Z</time></trkpt><trkpt lat="46.110612" lon="13.5016563"><ele>180.5</ele><time>2026-05-02T15:10:16.092Z</time></trkpt><trkpt lat="46.1106316" lon="13.5017505"><ele>179.0</ele><time>2026-05-02T15:10:17.091Z</time></trkpt><trkpt lat="46.1106521" lon="13.5018483"><ele>177.5</ele><time>2026-05-02T15:10:18.091Z</time></trkpt><trkpt lat="46.1106709" lon="13.5019437"><ele>176.0</ele><time>2026-05-02T15:10:19.092Z</time></trkpt><trkpt lat="46.1107251" lon="13.5021043"><ele>174.5</ele><time>2026-05-02T15:10:21.091Z</time></trkpt><trkpt lat="46.1107673" lon="13.5021747"><ele>173.0</ele><time>2026-05-02T15:10:22.092Z</time></trkpt><trkpt lat="46.110825" lon="13.5022551"><ele>170.60000000000002</ele><time>2026-05-02T15:10:23.091Z</time></trkpt><trkpt lat="46.1108884" lon="13.5023388"><ele>168.20000000000002</ele><time>2026-05-02T15:10:24.092Z</time></trkpt><trkpt lat="46.110943" lon="13.5024179"><ele>165.8</ele><time>2026-05-02T15:10:25.091Z</time></trkpt><trkpt lat="46.1110325" lon="13.5025512"><ele>163.4</ele><time>2026-05-02T15:10:27.092Z</time></trkpt><trkpt lat="46.1111061" lon="13.5026076"><ele>161.0</ele><time>2026-05-02T15:10:28.092Z</time></trkpt><trkpt lat="46.111193" lon="13.5026795"><ele>161.0</ele><time>2026-05-02T15:10:29.092Z</time></trkpt><trkpt lat="46.1112746" lon="13.5027488"><ele>161.0</ele><time>2026-05-02T15:10:30.091Z</time></trkpt><trkpt lat="46.1113808" lon="13.5028348"><ele>161.0</ele><time>2026-05-02T15:10:32.091Z</time></trkpt><trkpt lat="46.1114394" lon="13.5028811"><ele>161.0</ele><time>2026-05-02T15:10:33.092Z</time></trkpt><trkpt lat="46.1115491" lon="13.502961"><ele>161.0</ele><time>2026-05-02T15:10:35.092Z</time></trkpt><trkpt lat="46.1116225" lon="13.5029935"><ele>159.5</ele><time>2026-05-02T15:10:36.091Z</time></trkpt><trkpt lat="46.1116995" lon="13.5030098"><ele>158.0</ele><time>2026-05-02T15:10:37.092Z</time></trkpt><trkpt lat="46.1117772" lon="13.5030209"><ele>156.5</ele><time>2026-05-02T15:10:38.092Z</time></trkpt><trkpt lat="46.1118672" lon="13.5030334"><ele>155.0</ele><time>2026-05-02T15:10:39.091Z</time></trkpt><trkpt lat="46.1119534" lon="13.5030377"><ele>153.5</ele><time>2026-05-02T15:10:40.091Z</time></trkpt><trkpt lat="46.1120311" lon="13.5030417"><ele>152.0</ele><time>2026-05-02T15:10:41.092Z</time></trkpt><trkpt lat="46.1121027" lon="13.5030684"><ele>152.0</ele><time>2026-05-02T15:10:42.09Z</time></trkpt><trkpt lat="46.1121676" lon="13.5031062"><ele>152.0</ele><time>2026-05-02T15:10:43.091Z</time></trkpt><trkpt lat="46.112225" lon="13.5031666"><ele>152.0</ele><time>2026-05-02T15:10:44.09Z</time></trkpt><trkpt lat="46.1122591" lon="13.5033467"><ele>152.0</ele><time>2026-05-02T15:10:46.09Z</time></trkpt><trkpt lat="46.1122553" lon="13.5034819"><ele>152.0</ele><time>2026-05-02T15:10:47.091Z</time></trkpt><trkpt lat="46.1122301" lon="13.5036366"><ele>151.66666666666666</ele><time>2026-05-02T15:10:48.09Z</time></trkpt><trkpt lat="46.1121953" lon="13.5037762"><ele>151.33333333333331</ele><time>2026-05-02T15:10:49.09Z</time></trkpt><trkpt lat="46.112161" lon="13.5038835"><ele>151.0</ele><time>2026-05-02T15:10:50.09Z</time></trkpt><trkpt lat="46.1121096" lon="13.5040199"><ele>150.66666666666666</ele><time>2026-05-02T15:10:52.09Z</time></trkpt><trkpt lat="46.112075" lon="13.5041163"><ele>150.33333333333334</ele><time>2026-05-02T15:10:54.09Z</time></trkpt><trkpt lat="46.112045" lon="13.5042199"><ele>150.0</ele><time>2026-05-02T15:10:57.09Z</time></trkpt><trkpt lat="46.112002" lon="13.5043477"><ele>150.0</ele><time>2026-05-02T15:11:00.09Z</time></trkpt><trkpt lat="46.1119692" lon="13.5044631"><ele>150.0</ele><time>2026-05-02T15:11:02.09Z</time></trkpt><trkpt lat="46.111941" lon="13.504549"><ele>150.0</ele><time>2026-05-02T15:11:03.091Z</time></trkpt><trkpt lat="46.1119158" lon="13.5046359"><ele>150.0</ele><time>2026-05-02T15:11:04.09Z</time></trkpt><trkpt lat="46.1118883" lon="13.504723"><ele>150.0</ele><time>2026-05-02T15:11:05.09Z</time></trkpt><trkpt lat="46.1118383" lon="13.5048854"><ele>150.0</ele><time>2026-05-02T15:11:07.09Z</time></trkpt><trkpt lat="46.1118201" lon="13.504982"><ele>150.0</ele><time>2026-05-02T15:11:08.091Z</time></trkpt><trkpt lat="46.1118123" lon="13.5051008"><ele>150.0</ele><time>2026-05-02T15:11:09.091Z</time></trkpt><trkpt lat="46.1118258" lon="13.5052122"><ele>150.0</ele><time>2026-05-02T15:11:10.09Z</time></trkpt><trkpt lat="46.1118569" lon="13.5053023"><ele>150.0</ele><time>2026-05-02T15:11:11.09Z</time></trkpt><trkpt lat="46.1119014" lon="13.5053923"><ele>150.0</ele><time>2026-05-02T15:11:12.09Z</time></trkpt><trkpt lat="46.1119532" lon="13.5054842"><ele>150.0</ele><time>2026-05-02T15:11:13.091Z</time></trkpt><trkpt lat="46.1120072" lon="13.5055738"><ele>152.16666666666666</ele><time>2026-05-02T15:11:14.091Z</time></trkpt><trkpt lat="46.1120607" lon="13.5056675"><ele>154.33333333333334</ele><time>2026-05-02T15:11:15.091Z</time></trkpt><trkpt lat="46.1121204" lon="13.5057627"><ele>156.5</ele><time>2026-05-02T15:11:16.091Z</time></trkpt><trkpt lat="46.112179" lon="13.5058542"><ele>158.66666666666669</ele><time>2026-05-02T15:11:17.09Z</time></trkpt><trkpt lat="46.1122347" lon="13.5059353"><ele>160.83333333333334</ele><time>2026-05-02T15:11:18.09Z</time></trkpt><trkpt lat="46.1122866" lon="13.5060034"><ele>163.0</ele><time>2026-05-02T15:11:19.09Z</time></trkpt><trkpt lat="46.1123395" lon="13.5060705"><ele>163.0</ele><time>2026-05-02T15:11:20.09Z</time></trkpt><trkpt lat="46.1123955" lon="13.5061405"><ele>163.0</ele><time>2026-05-02T15:11:21.09Z</time></trkpt><trkpt lat="46.1124375" lon="13.5062088"><ele>163.0</ele><time>2026-05-02T15:11:22.09Z</time></trkpt><trkpt lat="46.1125266" lon="13.5063357"><ele>163.0</ele><time>2026-05-02T15:11:24.09Z</time></trkpt><trkpt lat="46.1125709" lon="13.5064232"><ele>163.0</ele><time>2026-05-02T15:11:25.091Z</time></trkpt><trkpt lat="46.1126283" lon="13.5064823"><ele>163.0</ele><time>2026-05-02T15:11:26.09Z</time></trkpt><trkpt lat="46.1126915" lon="13.5066253"><ele>165.0</ele><time>2026-05-02T15:11:28.09Z</time></trkpt><trkpt lat="46.1127468" lon="13.5066845"><ele>167.0</ele><time>2026-05-02T15:11:29.091Z</time></trkpt><trkpt lat="46.1128095" lon="13.5067319"><ele>169.0</ele><time>2026-05-02T15:11:30.09Z</time></trkpt><trkpt lat="46.1128626" lon="13.5067894"><ele>171.0</ele><time>2026-05-02T15:11:31.091Z</time></trkpt><trkpt lat="46.1129625" lon="13.5069052"><ele>173.0</ele><time>2026-05-02T15:11:33.09Z</time></trkpt><trkpt lat="46.113004" lon="13.5070112"><ele>175.0</ele><time>2026-05-02T15:11:34.09Z</time></trkpt><trkpt lat="46.1130399" lon="13.5071156"><ele>176.33333333333334</ele><time>2026-05-02T15:11:35.09Z</time></trkpt><trkpt lat="46.1130848" lon="13.5072134"><ele>177.66666666666669</ele><time>2026-05-02T15:11:36.09Z</time></trkpt><trkpt lat="46.1131253" lon="13.5073073"><ele>179.0</ele><time>2026-05-02T15:11:37.091Z</time></trkpt><trkpt lat="46.1131651" lon="13.5073926"><ele>180.33333333333334</ele><time>2026-05-02T15:11:38.091Z</time></trkpt><trkpt lat="46.1132026" lon="13.5074716"><ele>181.66666666666666</ele><time>2026-05-02T15:11:39.091Z</time></trkpt><trkpt lat="46.1132439" lon="13.5075885"><ele>183.0</ele><time>2026-05-02T15:11:41.091Z</time></trkpt><trkpt lat="46.113279" lon="13.5077494"><ele>178.33333333333334</ele><time>2026-05-02T15:11:43.09Z</time></trkpt><trkpt lat="46.1132986" lon="13.5078602"><ele>173.66666666666666</ele><time>2026-05-02T15:11:44.09Z</time></trkpt><trkpt lat="46.1133199" lon="13.507974"><ele>169.0</ele><time>2026-05-02T15:11:45.09Z</time></trkpt><trkpt lat="46.1133536" lon="13.5080832"><ele>164.33333333333331</ele><time>2026-05-02T15:11:46.091Z</time></trkpt><trkpt lat="46.1133968" lon="13.5081932"><ele>159.66666666666666</ele><time>2026-05-02T15:11:47.091Z</time></trkpt><trkpt lat="46.1134545" lon="13.5083104"><ele>155.0</ele><time>2026-05-02T15:11:48.091Z</time></trkpt><trkpt lat="46.1135162" lon="13.5084161"><ele>155.0</ele><time>2026-05-02T15:11:49.091Z</time></trkpt><trkpt lat="46.1135762" lon="13.5085098"><ele>155.0</ele><time>2026-05-02T15:11:50.09Z</time></trkpt><trkpt lat="46.1136325" lon="13.5085917"><ele>155.0</ele><time>2026-05-02T15:11:51.09Z</time></trkpt><trkpt lat="46.1136886" lon="13.5086755"><ele>155.0</ele><time>2026-05-02T15:11:52.09Z</time></trkpt><trkpt lat="46.1137475" lon="13.5087686"><ele>155.0</ele><time>2026-05-02T15:11:53.091Z</time></trkpt><trkpt lat="46.1138032" lon="13.5088662"><ele>155.0</ele><time>2026-05-02T15:11:54.09Z</time></trkpt><trkpt lat="46.1138544" lon="13.5089537"><ele>155.5</ele><time>2026-05-02T15:11:55.09Z</time></trkpt><trkpt lat="46.1138965" lon="13.5090289"><ele>156.0</ele><time>2026-05-02T15:11:56.091Z</time></trkpt><trkpt lat="46.113928" lon="13.5091542"><ele>156.5</ele><time>2026-05-02T15:11:58.09Z</time></trkpt><trkpt lat="46.1138829" lon="13.5092506"><ele>157.0</ele><time>2026-05-02T15:12:00.09Z</time></trkpt><trkpt lat="46.1137701" lon="13.5093428"><ele>157.5</ele><time>2026-05-02T15:12:02.09Z</time></trkpt><trkpt lat="46.1137369" lon="13.5094297"><ele>158.0</ele><time>2026-05-02T15:12:03.091Z</time></trkpt><trkpt lat="46.1137285" lon="13.5095256"><ele>159.0</ele><time>2026-05-02T15:12:04.091Z</time></trkpt><trkpt lat="46.1137424" lon="13.5096415"><ele>160.0</ele><time>2026-05-02T15:12:05.09Z</time></trkpt><trkpt lat="46.113764" lon="13.5097898"><ele>161.0</ele><time>2026-05-02T15:12:06.091Z</time></trkpt><trkpt lat="46.1137739" lon="13.5099244"><ele>162.0</ele><time>2026-05-02T15:12:07.09Z</time></trkpt><trkpt lat="46.1137831" lon="13.5100442"><ele>163.0</ele><time>2026-05-02T15:12:08.091Z</time></trkpt><trkpt lat="46.1137871" lon="13.5101767"><ele>163.0</ele><time>2026-05-02T15:12:09.091Z</time></trkpt><trkpt lat="46.1137989" lon="13.5103224"><ele>163.0</ele><time>2026-05-02T15:12:10.09Z</time></trkpt><trkpt lat="46.1138092" lon="13.5104653"><ele>163.0</ele><time>2026-05-02T15:12:11.091Z</time></trkpt><trkpt lat="46.1138171" lon="13.5106016"><ele>163.0</ele><time>2026-05-02T15:12:12.091Z</time></trkpt><trkpt lat="46.1138278" lon="13.5107251"><ele>163.0</ele><time>2026-05-02T15:12:13.091Z</time></trkpt><trkpt lat="46.113835" lon="13.5108408"><ele>163.0</ele><time>2026-05-02T15:12:14.09Z</time></trkpt><trkpt lat="46.1138432" lon="13.5109491"><ele>163.0</ele><time>2026-05-02T15:12:15.09Z</time></trkpt><trkpt lat="46.1138437" lon="13.5110562"><ele>163.0</ele><time>2026-05-02T15:12:16.09Z</time></trkpt><trkpt lat="46.1138417" lon="13.5111813"><ele>163.0</ele><time>2026-05-02T15:12:17.091Z</time></trkpt><trkpt lat="46.1138503" lon="13.5113031"><ele>163.0</ele><time>2026-05-02T15:12:18.091Z</time></trkpt><trkpt lat="46.1138561" lon="13.5114138"><ele>163.0</ele><time>2026-05-02T15:12:19.09Z</time></trkpt><trkpt lat="46.113851" lon="13.5115127"><ele>163.0</ele><time>2026-05-02T15:12:20.09Z</time></trkpt><trkpt lat="46.1138418" lon="13.5116123"><ele>163.0</ele><time>2026-05-02T15:12:21.09Z</time></trkpt><trkpt lat="46.1138321" lon="13.5117186"><ele>163.0</ele><time>2026-05-02T15:12:22.09Z</time></trkpt><trkpt lat="46.1138337" lon="13.5118159"><ele>163.0</ele><time>2026-05-02T15:12:23.091Z</time></trkpt><trkpt lat="46.1138607" lon="13.5119242"><ele>163.0</ele><time>2026-05-02T15:12:24.091Z</time></trkpt><trkpt lat="46.1138959" lon="13.5120713"><ele>163.0</ele><time>2026-05-02T15:12:25.09Z</time></trkpt><trkpt lat="46.1139305" lon="13.5122184"><ele>165.16666666666669</ele><time>2026-05-02T15:12:26.09Z</time></trkpt><trkpt lat="46.113966" lon="13.5123459"><ele>167.33333333333334</ele><time>2026-05-02T15:12:27.091Z</time></trkpt><trkpt lat="46.1140008" lon="13.5124636"><ele>169.5</ele><time>2026-05-02T15:12:28.09Z</time></trkpt><trkpt lat="46.1140242" lon="13.5125709"><ele>171.66666666666666</ele><time>2026-05-02T15:12:29.091Z</time></trkpt><trkpt lat="46.1140429" lon="13.5126853"><ele>173.83333333333331</ele><time>2026-05-02T15:12:30.091Z</time></trkpt><trkpt lat="46.1140522" lon="13.5128161"><ele>176.0</ele><time>2026-05-02T15:12:31.09Z</time></trkpt><trkpt lat="46.1140525" lon="13.5129525"><ele>173.20000000000002</ele><time>2026-05-02T15:12:32.091Z</time></trkpt><trkpt lat="46.1140664" lon="13.5130901"><ele>170.4</ele><time>2026-05-02T15:12:33.091Z</time></trkpt><trkpt lat="46.114094" lon="13.5132299"><ele>167.6</ele><time>2026-05-02T15:12:34.09Z</time></trkpt><trkpt lat="46.1141241" lon="13.5133561"><ele>164.8</ele><time>2026-05-02T15:12:35.091Z</time></trkpt><trkpt lat="46.1141565" lon="13.5134732"><ele>162.0</ele><time>2026-05-02T15:12:36.091Z</time></trkpt><trkpt lat="46.1141942" lon="13.5135827"><ele>162.0</ele><time>2026-05-02T15:12:37.09Z</time></trkpt><trkpt lat="46.1142303" lon="13.5136844"><ele>162.0</ele><time>2026-05-02T15:12:38.091Z</time></trkpt><trkpt lat="46.114269" lon="13.5137918"><ele>162.0</ele><time>2026-05-02T15:12:39.09Z</time></trkpt><trkpt lat="46.1143035" lon="13.5138976"><ele>162.0</ele><time>2026-05-02T15:12:40.09Z</time></trkpt><trkpt lat="46.1143287" lon="13.5140042"><ele>162.0</ele><time>2026-05-02T15:12:41.09Z</time></trkpt><trkpt lat="46.1143492" lon="13.5141294"><ele>162.0</ele><time>2026-05-02T15:12:42.091Z</time></trkpt><trkpt lat="46.1143617" lon="13.5142691"><ele>162.6</ele><time>2026-05-02T15:12:43.09Z</time></trkpt><trkpt lat="46.1143843" lon="13.5144139"><ele>163.2</ele><time>2026-05-02T15:12:44.09Z</time></trkpt><trkpt lat="46.1144153" lon="13.5145705"><ele>163.8</ele><time>2026-05-02T15:12:45.091Z</time></trkpt><trkpt lat="46.1144319" lon="13.514725"><ele>164.4</ele><time>2026-05-02T15:12:46.09Z</time></trkpt><trkpt lat="46.1144449" lon="13.5148728"><ele>165.0</ele><time>2026-05-02T15:12:47.09Z</time></trkpt><trkpt lat="46.114446" lon="13.5150232"><ele>165.66666666666666</ele><time>2026-05-02T15:12:48.091Z</time></trkpt><trkpt lat="46.1144524" lon="13.5151499"><ele>166.33333333333334</ele><time>2026-05-02T15:12:49.09Z</time></trkpt><trkpt lat="46.1144508" lon="13.5152724"><ele>167.0</ele><time>2026-05-02T15:12:50.09Z</time></trkpt><trkpt lat="46.1144578" lon="13.5153853"><ele>167.66666666666669</ele><time>2026-05-02T15:12:51.091Z</time></trkpt><trkpt lat="46.1144655" lon="13.5155071"><ele>168.33333333333334</ele><time>2026-05-02T15:12:52.091Z</time></trkpt><trkpt lat="46.1144609" lon="13.5156155"><ele>169.0</ele><time>2026-05-02T15:12:53.09Z</time></trkpt><trkpt lat="46.1144488" lon="13.5157149"><ele>169.6</ele><time>2026-05-02T15:12:54.09Z</time></trkpt><trkpt lat="46.1144504" lon="13.5158138"><ele>170.2</ele><time>2026-05-02T15:12:55.09Z</time></trkpt><trkpt lat="46.1144749" lon="13.515943"><ele>170.79999999999998</ele><time>2026-05-02T15:12:56.09Z</time></trkpt><trkpt lat="46.1145101" lon="13.51608"><ele>171.39999999999998</ele><time>2026-05-02T15:12:57.091Z</time></trkpt><trkpt lat="46.1145553" lon="13.5162013"><ele>172.0</ele><time>2026-05-02T15:12:58.091Z</time></trkpt><trkpt lat="46.1145859" lon="13.5163327"><ele>172.0</ele><time>2026-05-02T15:12:59.09Z</time></trkpt><trkpt lat="46.1146154" lon="13.5164462"><ele>172.0</ele><time>2026-05-02T15:13:00.09Z</time></trkpt><trkpt lat="46.1146547" lon="13.5165608"><ele>172.0</ele><time>2026-05-02T15:13:01.09Z</time></trkpt><trkpt lat="46.114697" lon="13.5166853"><ele>172.0</ele><time>2026-05-02T15:13:02.09Z</time></trkpt><trkpt lat="46.1147707" lon="13.516814"><ele>172.0</ele><time>2026-05-02T15:13:03.091Z</time></trkpt><trkpt lat="46.1148461" lon="13.5169331"><ele>168.0</ele><time>2026-05-02T15:13:04.09Z</time></trkpt><trkpt lat="46.1149156" lon="13.5170541"><ele>164.0</ele><time>2026-05-02T15:13:05.091Z</time></trkpt><trkpt lat="46.1149784" lon="13.5171656"><ele>160.0</ele><time>2026-05-02T15:13:06.09Z</time></trkpt><trkpt lat="46.1150362" lon="13.5172851"><ele>156.0</ele><time>2026-05-02T15:13:07.091Z</time></trkpt><trkpt lat="46.1150986" lon="13.5174127"><ele>152.0</ele><time>2026-05-02T15:13:08.091Z</time></trkpt><trkpt lat="46.1151606" lon="13.5175049"><ele>152.0</ele><time>2026-05-02T15:13:09.091Z</time></trkpt><trkpt lat="46.1152179" lon="13.5175793"><ele>152.0</ele><time>2026-05-02T15:13:10.09Z</time></trkpt><trkpt lat="46.1152786" lon="13.517674"><ele>152.0</ele><time>2026-05-02T15:13:11.09Z</time></trkpt><trkpt lat="46.1153443" lon="13.5177706"><ele>152.0</ele><time>2026-05-02T15:13:12.09Z</time></trkpt><trkpt lat="46.1154055" lon="13.5178758"><ele>152.0</ele><time>2026-05-02T15:13:13.091Z</time></trkpt><trkpt lat="46.1154612" lon="13.5179594"><ele>152.0</ele><time>2026-05-02T15:13:14.09Z</time></trkpt><trkpt lat="46.1155198" lon="13.5180268"><ele>151.79999999999998</ele><time>2026-05-02T15:13:15.09Z</time></trkpt><trkpt lat="46.1155823" lon="13.5180917"><ele>151.6</ele><time>2026-05-02T15:13:16.091Z</time></trkpt><trkpt lat="46.1156594" lon="13.5181645"><ele>151.39999999999998</ele><time>2026-05-02T15:13:17.091Z</time></trkpt><trkpt lat="46.1157444" lon="13.5182347"><ele>151.2</ele><time>2026-05-02T15:13:18.091Z</time></trkpt><trkpt lat="46.1158494" lon="13.5183199"><ele>151.0</ele><time>2026-05-02T15:13:19.09Z</time></trkpt><trkpt lat="46.1159384" lon="13.5183781"><ele>151.0</ele><time>2026-05-02T15:13:20.09Z</time></trkpt><trkpt lat="46.1160292" lon="13.5184366"><ele>151.0</ele><time>2026-05-02T15:13:21.091Z</time></trkpt><trkpt lat="46.116113" lon="13.5184982"><ele>151.0</ele><time>2026-05-02T15:13:22.09Z</time></trkpt><trkpt lat="46.1161859" lon="13.5185577"><ele>151.0</ele><time>2026-05-02T15:13:23.091Z</time></trkpt><trkpt lat="46.1162469" lon="13.5186162"><ele>151.0</ele><time>2026-05-02T15:13:24.09Z</time></trkpt><trkpt lat="46.1163074" lon="13.5186919"><ele>151.0</ele><time>2026-05-02T15:13:25.09Z</time></trkpt><trkpt lat="46.1163689" lon="13.5187792"><ele>151.0</ele><time>2026-05-02T15:13:26.09Z</time></trkpt><trkpt lat="46.1164389" lon="13.5188643"><ele>151.0</ele><time>2026-05-02T15:13:27.09Z</time></trkpt><trkpt lat="46.1165195" lon="13.5189504"><ele>151.0</ele><time>2026-05-02T15:13:28.09Z</time></trkpt><trkpt lat="46.1166155" lon="13.5190253"><ele>151.0</ele><time>2026-05-02T15:13:29.09Z</time></trkpt><trkpt lat="46.1167072" lon="13.5191007"><ele>151.0</ele><time>2026-05-02T15:13:30.09Z</time></trkpt><trkpt lat="46.1167977" lon="13.5191796"><ele>151.2</ele><time>2026-05-02T15:13:31.091Z</time></trkpt><trkpt lat="46.1168934" lon="13.519273"><ele>151.39999999999998</ele><time>2026-05-02T15:13:32.091Z</time></trkpt><trkpt lat="46.116981" lon="13.5193631"><ele>151.6</ele><time>2026-05-02T15:13:33.09Z</time></trkpt><trkpt lat="46.1170595" lon="13.5194424"><ele>151.79999999999998</ele><time>2026-05-02T15:13:34.091Z</time></trkpt><trkpt lat="46.117124" lon="13.5195123"><ele>152.0</ele><time>2026-05-02T15:13:35.09Z</time></trkpt><trkpt lat="46.1171855" lon="13.5195898"><ele>152.0</ele><time>2026-05-02T15:13:36.09Z</time></trkpt><trkpt lat="46.1172464" lon="13.519661"><ele>152.0</ele><time>2026-05-02T15:13:37.09Z</time></trkpt><trkpt lat="46.1173107" lon="13.5197398"><ele>152.0</ele><time>2026-05-02T15:13:38.091Z</time></trkpt><trkpt lat="46.1173495" lon="13.5198335"><ele>152.0</ele><time>2026-05-02T15:13:39.091Z</time></trkpt><trkpt lat="46.1173832" lon="13.5199366"><ele>152.0</ele><time>2026-05-02T15:13:40.091Z</time></trkpt><trkpt lat="46.1174107" lon="13.5200651"><ele>152.0</ele><time>2026-05-02T15:13:41.09Z</time></trkpt><trkpt lat="46.1174395" lon="13.5201899"><ele>152.0</ele><time>2026-05-02T15:13:42.091Z</time></trkpt><trkpt lat="46.1174674" lon="13.5202986"><ele>152.0</ele><time>2026-05-02T15:13:43.09Z</time></trkpt><trkpt lat="46.1175071" lon="13.5203965"><ele>152.0</ele><time>2026-05-02T15:13:44.09Z</time></trkpt><trkpt lat="46.1175644" lon="13.5204925"><ele>152.0</ele><time>2026-05-02T15:13:45.09Z</time></trkpt><trkpt lat="46.1176244" lon="13.5205958"><ele>152.0</ele><time>2026-05-02T15:13:46.091Z</time></trkpt><trkpt lat="46.1176837" lon="13.5206818"><ele>152.0</ele><time>2026-05-02T15:13:47.091Z</time></trkpt><trkpt lat="46.1177534" lon="13.5207654"><ele>152.2</ele><time>2026-05-02T15:13:48.09Z</time></trkpt><trkpt lat="46.1178442" lon="13.5208483"><ele>152.39999999999998</ele><time>2026-05-02T15:13:49.09Z</time></trkpt><trkpt lat="46.1179282" lon="13.5209217"><ele>152.60000000000002</ele><time>2026-05-02T15:13:50.09Z</time></trkpt><trkpt lat="46.1180038" lon="13.5209821"><ele>152.8</ele><time>2026-05-02T15:13:51.091Z</time></trkpt><trkpt lat="46.1180676" lon="13.5210361"><ele>153.0</ele><time>2026-05-02T15:13:52.091Z</time></trkpt><trkpt lat="46.1181476" lon="13.5211578"><ele>153.0</ele><time>2026-05-02T15:13:54.09Z</time></trkpt><trkpt lat="46.1181541" lon="13.5213303"><ele>153.0</ele><time>2026-05-02T15:13:56.091Z</time></trkpt><trkpt lat="46.1181356" lon="13.5214471"><ele>153.0</ele><time>2026-05-02T15:13:57.09Z</time></trkpt><trkpt lat="46.1181041" lon="13.5215683"><ele>153.0</ele><time>2026-05-02T15:13:58.09Z</time></trkpt><trkpt lat="46.1180847" lon="13.5216684"><ele>153.0</ele><time>2026-05-02T15:13:59.09Z</time></trkpt><trkpt lat="46.1180811" lon="13.5217959"><ele>153.0</ele><time>2026-05-02T15:14:01.09Z</time></trkpt><trkpt lat="46.1181735" lon="13.5218382"><ele>153.0</ele><time>2026-05-02T15:14:03.09Z</time></trkpt><trkpt lat="46.1182691" lon="13.5218532"><ele>153.0</ele><time>2026-05-02T15:14:04.091Z</time></trkpt><trkpt lat="46.1183859" lon="13.5218757"><ele>153.0</ele><time>2026-05-02T15:14:05.091Z</time></trkpt><trkpt lat="46.1184902" lon="13.5219287"><ele>153.0</ele><time>2026-05-02T15:14:06.091Z</time></trkpt><trkpt lat="46.1185856" lon="13.5219888"><ele>153.0</ele><time>2026-05-02T15:14:07.09Z</time></trkpt><trkpt lat="46.1186809" lon="13.5220437"><ele>153.0</ele><time>2026-05-02T15:14:08.091Z</time></trkpt><trkpt lat="46.1187811" lon="13.5221008"><ele>153.0</ele><time>2026-05-02T15:14:09.09Z</time></trkpt><trkpt lat="46.118882" lon="13.5221527"><ele>153.0</ele><time>2026-05-02T15:14:10.091Z</time></trkpt><trkpt lat="46.1189802" lon="13.5221956"><ele>153.0</ele><time>2026-05-02T15:14:11.091Z</time></trkpt><trkpt lat="46.1190734" lon="13.5222371"><ele>153.4</ele><time>2026-05-02T15:14:12.09Z</time></trkpt><trkpt lat="46.119168" lon="13.5222723"><ele>153.8</ele><time>2026-05-02T15:14:13.091Z</time></trkpt><trkpt lat="46.1192642" lon="13.5222799"><ele>154.2</ele><time>2026-05-02T15:14:14.09Z</time></trkpt><trkpt lat="46.1193569" lon="13.5222709"><ele>154.6</ele><time>2026-05-02T15:14:15.09Z</time></trkpt><trkpt lat="46.1194457" lon="13.5222651"><ele>155.0</ele><time>2026-05-02T15:14:16.091Z</time></trkpt><trkpt lat="46.119528" lon="13.5222813"><ele>155.0</ele><time>2026-05-02T15:14:17.091Z</time></trkpt><trkpt lat="46.1195918" lon="13.5223528"><ele>155.0</ele><time>2026-05-02T15:14:18.09Z</time></trkpt><trkpt lat="46.1196548" lon="13.5224523"><ele>155.0</ele><time>2026-05-02T15:14:19.09Z</time></trkpt><trkpt lat="46.1197392" lon="13.5225562"><ele>155.0</ele><time>2026-05-02T15:14:20.09Z</time></trkpt><trkpt lat="46.1198123" lon="13.5226564"><ele>155.0</ele><time>2026-05-02T15:14:21.09Z</time></trkpt><trkpt lat="46.1198746" lon="13.5227529"><ele>155.0</ele><time>2026-05-02T15:14:22.09Z</time></trkpt><trkpt lat="46.1199283" lon="13.5228557"><ele>155.0</ele><time>2026-05-02T15:14:23.09Z</time></trkpt><trkpt lat="46.1199767" lon="13.5229473"><ele>155.0</ele><time>2026-05-02T15:14:24.09Z</time></trkpt><trkpt lat="46.1200165" lon="13.5230441"><ele>155.0</ele><time>2026-05-02T15:14:25.091Z</time></trkpt><trkpt lat="46.1200612" lon="13.523141"><ele>155.0</ele><time>2026-05-02T15:14:26.09Z</time></trkpt><trkpt lat="46.1201046" lon="13.5232392"><ele>155.0</ele><time>2026-05-02T15:14:27.09Z</time></trkpt><trkpt lat="46.1201474" lon="13.5233281"><ele>155.0</ele><time>2026-05-02T15:14:28.09Z</time></trkpt><trkpt lat="46.1201818" lon="13.5234056"><ele>155.0</ele><time>2026-05-02T15:14:29.09Z</time></trkpt><trkpt lat="46.1202387" lon="13.5235263"><ele>155.0</ele><time>2026-05-02T15:14:31.09Z</time></trkpt><trkpt lat="46.1202707" lon="13.5236383"><ele>155.0</ele><time>2026-05-02T15:14:33.091Z</time></trkpt><trkpt lat="46.1202391" lon="13.5237414"><ele>155.0</ele><time>2026-05-02T15:14:35.09Z</time></trkpt><trkpt lat="46.1201614" lon="13.5238123"><ele>155.0</ele><time>2026-05-02T15:14:37.09Z</time></trkpt><trkpt lat="46.1201027" lon="13.5238617"><ele>155.0</ele><time>2026-05-02T15:14:39.09Z</time></trkpt><trkpt lat="46.1200233" lon="13.523921"><ele>155.0</ele><time>2026-05-02T15:14:42.09Z</time></trkpt><trkpt lat="46.1199683" lon="13.5240033"><ele>155.0</ele><time>2026-05-02T15:14:45.09Z</time></trkpt></trkseg></trk></gpx>